<?xml version="1.0" encoding="UTF-8" standalone="no" ?>
<gpx xmlns="http://www.topografix.com/GPX/1/1" xmlns:xsi="http://www.w3.org/2001/XMLSchema-instance" xsi:schemaLocation="http://www.topografix.com/GPX/1/1 http://www.topografix.com/GPX/1/1/gpx.xsd" version="1.1" creator="VisuGPX - https://www.visugpx.com">
  <metadata>
    <name>Mandeure Bourguignon etc</name>
    <desc><![CDATA[Mandeure Bourguignon etc
Mandeure Bourguignon etc]]></desc>
  </metadata>
  <trk>
    <name><![CDATA[Mandeure Bourguignon et la suite]]></name>
    <trkseg>
      <trkpt lat="47.51804" lon="6.77465">
        <ele>382.2</ele>
        <time>2017-10-01T06:48:08Z</time>
      </trkpt>
      <trkpt lat="47.51806" lon="6.77473">
        <ele>382.2</ele>
        <time>2017-10-01T06:48:09Z</time>
      </trkpt>
      <trkpt lat="47.51808" lon="6.7748">
        <ele>382.4</ele>
        <time>2017-10-01T06:48:45Z</time>
      </trkpt>
      <trkpt lat="47.5181" lon="6.77488">
        <ele>382.8</ele>
        <time>2017-10-01T06:48:46Z</time>
      </trkpt>
      <trkpt lat="47.51808" lon="6.77492">
        <ele>382.9</ele>
        <time>2017-10-01T06:48:47Z</time>
      </trkpt>
      <trkpt lat="47.51807" lon="6.77496">
        <ele>382.9</ele>
        <time>2017-10-01T06:48:48Z</time>
      </trkpt>
      <trkpt lat="47.51803" lon="6.77496">
        <ele>383</ele>
        <time>2017-10-01T06:48:49Z</time>
      </trkpt>
      <trkpt lat="47.518" lon="6.77496">
        <ele>383.1</ele>
        <time>2017-10-01T06:48:50Z</time>
      </trkpt>
      <trkpt lat="47.51797" lon="6.77495">
        <ele>383.1</ele>
        <time>2017-10-01T06:48:51Z</time>
      </trkpt>
      <trkpt lat="47.51794" lon="6.77494">
        <ele>383.2</ele>
        <time>2017-10-01T06:48:52Z</time>
      </trkpt>
      <trkpt lat="47.51791" lon="6.77493">
        <ele>383.2</ele>
        <time>2017-10-01T06:48:53Z</time>
      </trkpt>
      <trkpt lat="47.51789" lon="6.77492">
        <ele>383.3</ele>
        <time>2017-10-01T06:48:54Z</time>
      </trkpt>
      <trkpt lat="47.51786" lon="6.77491">
        <ele>383.4</ele>
        <time>2017-10-01T06:48:55Z</time>
      </trkpt>
      <trkpt lat="47.51783" lon="6.77488">
        <ele>383.6</ele>
        <time>2017-10-01T06:48:56Z</time>
      </trkpt>
      <trkpt lat="47.5178" lon="6.77486">
        <ele>383.7</ele>
        <time>2017-10-01T06:48:57Z</time>
      </trkpt>
      <trkpt lat="47.51777" lon="6.77485">
        <ele>383.9</ele>
        <time>2017-10-01T06:48:58Z</time>
      </trkpt>
      <trkpt lat="47.51775" lon="6.77484">
        <ele>384</ele>
        <time>2017-10-01T06:48:59Z</time>
      </trkpt>
      <trkpt lat="47.51771" lon="6.77483">
        <ele>384.1</ele>
        <time>2017-10-01T06:49:00Z</time>
      </trkpt>
      <trkpt lat="47.51768" lon="6.77482">
        <ele>384.2</ele>
        <time>2017-10-01T06:49:01Z</time>
      </trkpt>
      <trkpt lat="47.51765" lon="6.77481">
        <ele>384.4</ele>
        <time>2017-10-01T06:49:02Z</time>
      </trkpt>
      <trkpt lat="47.51762" lon="6.77481">
        <ele>384.6</ele>
        <time>2017-10-01T06:49:03Z</time>
      </trkpt>
      <trkpt lat="47.51759" lon="6.77481">
        <ele>384.8</ele>
        <time>2017-10-01T06:49:04Z</time>
      </trkpt>
      <trkpt lat="47.51756" lon="6.77482">
        <ele>385</ele>
        <time>2017-10-01T06:49:05Z</time>
      </trkpt>
      <trkpt lat="47.51752" lon="6.77482">
        <ele>385.2</ele>
        <time>2017-10-01T06:49:06Z</time>
      </trkpt>
      <trkpt lat="47.51749" lon="6.77481">
        <ele>385.3</ele>
        <time>2017-10-01T06:49:07Z</time>
      </trkpt>
      <trkpt lat="47.51746" lon="6.77481">
        <ele>385.5</ele>
        <time>2017-10-01T06:49:08Z</time>
      </trkpt>
      <trkpt lat="47.51742" lon="6.7748">
        <ele>385.6</ele>
        <time>2017-10-01T06:49:09Z</time>
      </trkpt>
      <trkpt lat="47.5174" lon="6.77478">
        <ele>385.7</ele>
        <time>2017-10-01T06:49:10Z</time>
      </trkpt>
      <trkpt lat="47.51736" lon="6.77477">
        <ele>385.9</ele>
        <time>2017-10-01T06:49:12Z</time>
      </trkpt>
      <trkpt lat="47.51734" lon="6.77478">
        <ele>385.9</ele>
        <time>2017-10-01T06:49:13Z</time>
      </trkpt>
      <trkpt lat="47.51737" lon="6.77481">
        <ele>385.8</ele>
        <time>2017-10-01T06:49:15Z</time>
      </trkpt>
      <trkpt lat="47.5174" lon="6.7748">
        <ele>385.8</ele>
        <time>2017-10-01T06:49:16Z</time>
      </trkpt>
      <trkpt lat="47.51742" lon="6.7748">
        <ele>385.7</ele>
        <time>2017-10-01T06:49:17Z</time>
      </trkpt>
      <trkpt lat="47.51745" lon="6.77479">
        <ele>385.7</ele>
        <time>2017-10-01T06:49:18Z</time>
      </trkpt>
      <trkpt lat="47.51748" lon="6.77479">
        <ele>385.6</ele>
        <time>2017-10-01T06:49:19Z</time>
      </trkpt>
      <trkpt lat="47.51753" lon="6.77479">
        <ele>385.4</ele>
        <time>2017-10-01T06:49:20Z</time>
      </trkpt>
      <trkpt lat="47.51757" lon="6.7748">
        <ele>385.3</ele>
        <time>2017-10-01T06:49:21Z</time>
      </trkpt>
      <trkpt lat="47.51762" lon="6.7748">
        <ele>385.1</ele>
        <time>2017-10-01T06:49:22Z</time>
      </trkpt>
      <trkpt lat="47.51766" lon="6.7748">
        <ele>384.9</ele>
        <time>2017-10-01T06:49:23Z</time>
      </trkpt>
      <trkpt lat="47.51771" lon="6.77481">
        <ele>384.7</ele>
        <time>2017-10-01T06:49:24Z</time>
      </trkpt>
      <trkpt lat="47.51776" lon="6.77482">
        <ele>384.5</ele>
        <time>2017-10-01T06:49:25Z</time>
      </trkpt>
      <trkpt lat="47.51781" lon="6.77484">
        <ele>384.3</ele>
        <time>2017-10-01T06:49:26Z</time>
      </trkpt>
      <trkpt lat="47.51787" lon="6.77487">
        <ele>384.1</ele>
        <time>2017-10-01T06:49:27Z</time>
      </trkpt>
      <trkpt lat="47.51792" lon="6.7749">
        <ele>384</ele>
        <time>2017-10-01T06:49:28Z</time>
      </trkpt>
      <trkpt lat="47.51798" lon="6.77494">
        <ele>383.8</ele>
        <time>2017-10-01T06:49:29Z</time>
      </trkpt>
      <trkpt lat="47.51802" lon="6.77496">
        <ele>383.6</ele>
        <time>2017-10-01T06:49:30Z</time>
      </trkpt>
      <trkpt lat="47.51806" lon="6.77495">
        <ele>383.5</ele>
        <time>2017-10-01T06:49:31Z</time>
      </trkpt>
      <trkpt lat="47.51809" lon="6.77492">
        <ele>383.4</ele>
        <time>2017-10-01T06:49:32Z</time>
      </trkpt>
      <trkpt lat="47.51808" lon="6.77487">
        <ele>383.3</ele>
        <time>2017-10-01T06:49:33Z</time>
      </trkpt>
      <trkpt lat="47.51806" lon="6.77484">
        <ele>383.2</ele>
        <time>2017-10-01T06:49:34Z</time>
      </trkpt>
      <trkpt lat="47.51804" lon="6.77481">
        <ele>383.2</ele>
        <time>2017-10-01T06:49:35Z</time>
      </trkpt>
      <trkpt lat="47.51803" lon="6.77477">
        <ele>383.2</ele>
        <time>2017-10-01T06:49:36Z</time>
      </trkpt>
      <trkpt lat="47.51804" lon="6.77481">
        <ele>383.1</ele>
        <time>2017-10-01T06:50:08Z</time>
      </trkpt>
      <trkpt lat="47.51804" lon="6.77483">
        <ele>383.1</ele>
        <time>2017-10-01T06:50:09Z</time>
      </trkpt>
      <trkpt lat="47.518" lon="6.77485">
        <ele>383.1</ele>
        <time>2017-10-01T06:50:21Z</time>
      </trkpt>
      <trkpt lat="47.518" lon="6.77484">
        <ele>383.1</ele>
        <time>2017-10-01T06:50:22Z</time>
      </trkpt>
      <trkpt lat="47.51803" lon="6.77481">
        <ele>383</ele>
        <time>2017-10-01T06:51:01Z</time>
      </trkpt>
      <trkpt lat="47.51804" lon="6.77483">
        <ele>383</ele>
        <time>2017-10-01T06:51:02Z</time>
      </trkpt>
      <trkpt lat="47.51807" lon="6.77486">
        <ele>382.9</ele>
        <time>2017-10-01T06:51:04Z</time>
      </trkpt>
      <trkpt lat="47.51808" lon="6.77489">
        <ele>382.9</ele>
        <time>2017-10-01T06:51:05Z</time>
      </trkpt>
      <trkpt lat="47.51808" lon="6.77494">
        <ele>382.8</ele>
        <time>2017-10-01T06:51:07Z</time>
      </trkpt>
      <trkpt lat="47.51804" lon="6.77497">
        <ele>382.9</ele>
        <time>2017-10-01T06:51:08Z</time>
      </trkpt>
      <trkpt lat="47.518" lon="6.77495">
        <ele>383</ele>
        <time>2017-10-01T06:51:09Z</time>
      </trkpt>
      <trkpt lat="47.51796" lon="6.77494">
        <ele>383.1</ele>
        <time>2017-10-01T06:51:10Z</time>
      </trkpt>
      <trkpt lat="47.51791" lon="6.77492">
        <ele>383.2</ele>
        <time>2017-10-01T06:51:11Z</time>
      </trkpt>
      <trkpt lat="47.51787" lon="6.77491">
        <ele>383.3</ele>
        <time>2017-10-01T06:51:12Z</time>
      </trkpt>
      <trkpt lat="47.51783" lon="6.77489">
        <ele>383.4</ele>
        <time>2017-10-01T06:51:13Z</time>
      </trkpt>
      <trkpt lat="47.5178" lon="6.77488">
        <ele>383.6</ele>
        <time>2017-10-01T06:51:14Z</time>
      </trkpt>
      <trkpt lat="47.51777" lon="6.77487">
        <ele>383.8</ele>
        <time>2017-10-01T06:51:15Z</time>
      </trkpt>
      <trkpt lat="47.51772" lon="6.77486">
        <ele>384</ele>
        <time>2017-10-01T06:51:16Z</time>
      </trkpt>
      <trkpt lat="47.51769" lon="6.77485">
        <ele>384.1</ele>
        <time>2017-10-01T06:51:17Z</time>
      </trkpt>
      <trkpt lat="47.51765" lon="6.77483">
        <ele>384.3</ele>
        <time>2017-10-01T06:51:18Z</time>
      </trkpt>
      <trkpt lat="47.51761" lon="6.77481">
        <ele>384.5</ele>
        <time>2017-10-01T06:51:19Z</time>
      </trkpt>
      <trkpt lat="47.51758" lon="6.77481">
        <ele>384.8</ele>
        <time>2017-10-01T06:51:20Z</time>
      </trkpt>
      <trkpt lat="47.51753" lon="6.7748">
        <ele>385</ele>
        <time>2017-10-01T06:51:21Z</time>
      </trkpt>
      <trkpt lat="47.5175" lon="6.77479">
        <ele>385.3</ele>
        <time>2017-10-01T06:51:22Z</time>
      </trkpt>
      <trkpt lat="47.51745" lon="6.77478">
        <ele>385.5</ele>
        <time>2017-10-01T06:51:23Z</time>
      </trkpt>
      <trkpt lat="47.5174" lon="6.77477">
        <ele>385.7</ele>
        <time>2017-10-01T06:51:24Z</time>
      </trkpt>
      <trkpt lat="47.51735" lon="6.77479">
        <ele>385.9</ele>
        <time>2017-10-01T06:51:25Z</time>
      </trkpt>
      <trkpt lat="47.51731" lon="6.77483">
        <ele>386.4</ele>
        <time>2017-10-01T06:51:26Z</time>
      </trkpt>
      <trkpt lat="47.51729" lon="6.77491">
        <ele>386.9</ele>
        <time>2017-10-01T06:51:27Z</time>
      </trkpt>
      <trkpt lat="47.51727" lon="6.77501">
        <ele>387.4</ele>
        <time>2017-10-01T06:51:28Z</time>
      </trkpt>
      <trkpt lat="47.51724" lon="6.77509">
        <ele>387.5</ele>
        <time>2017-10-01T06:51:29Z</time>
      </trkpt>
      <trkpt lat="47.51722" lon="6.77517">
        <ele>387.7</ele>
        <time>2017-10-01T06:51:30Z</time>
      </trkpt>
      <trkpt lat="47.51721" lon="6.77524">
        <ele>387.8</ele>
        <time>2017-10-01T06:51:31Z</time>
      </trkpt>
      <trkpt lat="47.51721" lon="6.77531">
        <ele>388</ele>
        <time>2017-10-01T06:51:32Z</time>
      </trkpt>
      <trkpt lat="47.51719" lon="6.77539">
        <ele>388.2</ele>
        <time>2017-10-01T06:51:33Z</time>
      </trkpt>
      <trkpt lat="47.51717" lon="6.77545">
        <ele>388.5</ele>
        <time>2017-10-01T06:51:34Z</time>
      </trkpt>
      <trkpt lat="47.51712" lon="6.77549">
        <ele>388.7</ele>
        <time>2017-10-01T06:51:35Z</time>
      </trkpt>
      <trkpt lat="47.51707" lon="6.77547">
        <ele>388.9</ele>
        <time>2017-10-01T06:51:36Z</time>
      </trkpt>
      <trkpt lat="47.51702" lon="6.77544">
        <ele>388.8</ele>
        <time>2017-10-01T06:51:37Z</time>
      </trkpt>
      <trkpt lat="47.51697" lon="6.77539">
        <ele>388.8</ele>
        <time>2017-10-01T06:51:38Z</time>
      </trkpt>
      <trkpt lat="47.5169" lon="6.77534">
        <ele>388.7</ele>
        <time>2017-10-01T06:51:39Z</time>
      </trkpt>
      <trkpt lat="47.51685" lon="6.77529">
        <ele>388.5</ele>
        <time>2017-10-01T06:51:40Z</time>
      </trkpt>
      <trkpt lat="47.51679" lon="6.77523">
        <ele>388</ele>
        <time>2017-10-01T06:51:41Z</time>
      </trkpt>
      <trkpt lat="47.51673" lon="6.77517">
        <ele>387.4</ele>
        <time>2017-10-01T06:51:42Z</time>
      </trkpt>
      <trkpt lat="47.51667" lon="6.7751">
        <ele>387</ele>
        <time>2017-10-01T06:51:43Z</time>
      </trkpt>
      <trkpt lat="47.51661" lon="6.77503">
        <ele>386.8</ele>
        <time>2017-10-01T06:51:44Z</time>
      </trkpt>
      <trkpt lat="47.51655" lon="6.77496">
        <ele>386.6</ele>
        <time>2017-10-01T06:51:45Z</time>
      </trkpt>
      <trkpt lat="47.51649" lon="6.77489">
        <ele>386</ele>
        <time>2017-10-01T06:51:46Z</time>
      </trkpt>
      <trkpt lat="47.51643" lon="6.77481">
        <ele>385.5</ele>
        <time>2017-10-01T06:51:47Z</time>
      </trkpt>
      <trkpt lat="47.51638" lon="6.77475">
        <ele>385.3</ele>
        <time>2017-10-01T06:51:48Z</time>
      </trkpt>
      <trkpt lat="47.51631" lon="6.77467">
        <ele>384.9</ele>
        <time>2017-10-01T06:51:49Z</time>
      </trkpt>
      <trkpt lat="47.51624" lon="6.77459">
        <ele>384.3</ele>
        <time>2017-10-01T06:51:50Z</time>
      </trkpt>
      <trkpt lat="47.51619" lon="6.77451">
        <ele>383.4</ele>
        <time>2017-10-01T06:51:51Z</time>
      </trkpt>
      <trkpt lat="47.51613" lon="6.77443">
        <ele>382.8</ele>
        <time>2017-10-01T06:51:52Z</time>
      </trkpt>
      <trkpt lat="47.51607" lon="6.77435">
        <ele>382.5</ele>
        <time>2017-10-01T06:51:53Z</time>
      </trkpt>
      <trkpt lat="47.51601" lon="6.77427">
        <ele>382.2</ele>
        <time>2017-10-01T06:51:54Z</time>
      </trkpt>
      <trkpt lat="47.51595" lon="6.7742">
        <ele>382.1</ele>
        <time>2017-10-01T06:51:55Z</time>
      </trkpt>
      <trkpt lat="47.51588" lon="6.77412">
        <ele>382</ele>
        <time>2017-10-01T06:51:56Z</time>
      </trkpt>
      <trkpt lat="47.51581" lon="6.77404">
        <ele>381.9</ele>
        <time>2017-10-01T06:51:57Z</time>
      </trkpt>
      <trkpt lat="47.51574" lon="6.77396">
        <ele>381.8</ele>
        <time>2017-10-01T06:51:58Z</time>
      </trkpt>
      <trkpt lat="47.51567" lon="6.77388">
        <ele>381.7</ele>
        <time>2017-10-01T06:51:59Z</time>
      </trkpt>
      <trkpt lat="47.5156" lon="6.7738">
        <ele>381.5</ele>
        <time>2017-10-01T06:52:00Z</time>
      </trkpt>
      <trkpt lat="47.51553" lon="6.77372">
        <ele>381.3</ele>
        <time>2017-10-01T06:52:01Z</time>
      </trkpt>
      <trkpt lat="47.51546" lon="6.77364">
        <ele>381</ele>
        <time>2017-10-01T06:52:02Z</time>
      </trkpt>
      <trkpt lat="47.51537" lon="6.77354">
        <ele>380.6</ele>
        <time>2017-10-01T06:52:03Z</time>
      </trkpt>
      <trkpt lat="47.5153" lon="6.77345">
        <ele>380</ele>
        <time>2017-10-01T06:52:04Z</time>
      </trkpt>
      <trkpt lat="47.51522" lon="6.77336">
        <ele>379.4</ele>
        <time>2017-10-01T06:52:05Z</time>
      </trkpt>
      <trkpt lat="47.51515" lon="6.77327">
        <ele>378.7</ele>
        <time>2017-10-01T06:52:06Z</time>
      </trkpt>
      <trkpt lat="47.51507" lon="6.77319">
        <ele>377.9</ele>
        <time>2017-10-01T06:52:07Z</time>
      </trkpt>
      <trkpt lat="47.515" lon="6.77309">
        <ele>377</ele>
        <time>2017-10-01T06:52:08Z</time>
      </trkpt>
      <trkpt lat="47.51495" lon="6.77296">
        <ele>376</ele>
        <time>2017-10-01T06:52:09Z</time>
      </trkpt>
      <trkpt lat="47.51492" lon="6.77282">
        <ele>376</ele>
        <time>2017-10-01T06:52:10Z</time>
      </trkpt>
      <trkpt lat="47.5149" lon="6.77268">
        <ele>375.8</ele>
        <time>2017-10-01T06:52:11Z</time>
      </trkpt>
      <trkpt lat="47.51488" lon="6.77253">
        <ele>375.2</ele>
        <time>2017-10-01T06:52:12Z</time>
      </trkpt>
      <trkpt lat="47.51487" lon="6.77239">
        <ele>374.9</ele>
        <time>2017-10-01T06:52:13Z</time>
      </trkpt>
      <trkpt lat="47.51486" lon="6.77226">
        <ele>374.7</ele>
        <time>2017-10-01T06:52:14Z</time>
      </trkpt>
      <trkpt lat="47.51485" lon="6.77215">
        <ele>374.4</ele>
        <time>2017-10-01T06:52:15Z</time>
      </trkpt>
      <trkpt lat="47.51484" lon="6.77207">
        <ele>374.3</ele>
        <time>2017-10-01T06:52:16Z</time>
      </trkpt>
      <trkpt lat="47.51481" lon="6.772">
        <ele>374.1</ele>
        <time>2017-10-01T06:52:17Z</time>
      </trkpt>
      <trkpt lat="47.51475" lon="6.77198">
        <ele>374</ele>
        <time>2017-10-01T06:52:18Z</time>
      </trkpt>
      <trkpt lat="47.51471" lon="6.77198">
        <ele>374.1</ele>
        <time>2017-10-01T06:52:19Z</time>
      </trkpt>
      <trkpt lat="47.51466" lon="6.77199">
        <ele>374.1</ele>
        <time>2017-10-01T06:52:20Z</time>
      </trkpt>
      <trkpt lat="47.51459" lon="6.77202">
        <ele>374.1</ele>
        <time>2017-10-01T06:52:21Z</time>
      </trkpt>
      <trkpt lat="47.51451" lon="6.77205">
        <ele>374.1</ele>
        <time>2017-10-01T06:52:22Z</time>
      </trkpt>
      <trkpt lat="47.51444" lon="6.77209">
        <ele>374</ele>
        <time>2017-10-01T06:52:23Z</time>
      </trkpt>
      <trkpt lat="47.51437" lon="6.77212">
        <ele>374</ele>
        <time>2017-10-01T06:52:24Z</time>
      </trkpt>
      <trkpt lat="47.5143" lon="6.77216">
        <ele>373.9</ele>
        <time>2017-10-01T06:52:25Z</time>
      </trkpt>
      <trkpt lat="47.51423" lon="6.7722">
        <ele>373.8</ele>
        <time>2017-10-01T06:52:26Z</time>
      </trkpt>
      <trkpt lat="47.51418" lon="6.77223">
        <ele>373.8</ele>
        <time>2017-10-01T06:52:27Z</time>
      </trkpt>
      <trkpt lat="47.51412" lon="6.77226">
        <ele>373.8</ele>
        <time>2017-10-01T06:52:28Z</time>
      </trkpt>
      <trkpt lat="47.51407" lon="6.77228">
        <ele>373.9</ele>
        <time>2017-10-01T06:52:29Z</time>
      </trkpt>
      <trkpt lat="47.51403" lon="6.77231">
        <ele>373.9</ele>
        <time>2017-10-01T06:52:30Z</time>
      </trkpt>
      <trkpt lat="47.51398" lon="6.77234">
        <ele>373.9</ele>
        <time>2017-10-01T06:52:31Z</time>
      </trkpt>
      <trkpt lat="47.51393" lon="6.77237">
        <ele>374</ele>
        <time>2017-10-01T06:52:32Z</time>
      </trkpt>
      <trkpt lat="47.51389" lon="6.77239">
        <ele>374</ele>
        <time>2017-10-01T06:52:33Z</time>
      </trkpt>
      <trkpt lat="47.51384" lon="6.77241">
        <ele>374.1</ele>
        <time>2017-10-01T06:52:34Z</time>
      </trkpt>
      <trkpt lat="47.5138" lon="6.77244">
        <ele>374.2</ele>
        <time>2017-10-01T06:52:35Z</time>
      </trkpt>
      <trkpt lat="47.51377" lon="6.77245">
        <ele>374.3</ele>
        <time>2017-10-01T06:52:36Z</time>
      </trkpt>
      <trkpt lat="47.51373" lon="6.77248">
        <ele>374.4</ele>
        <time>2017-10-01T06:52:37Z</time>
      </trkpt>
      <trkpt lat="47.5137" lon="6.7725">
        <ele>374.5</ele>
        <time>2017-10-01T06:52:38Z</time>
      </trkpt>
      <trkpt lat="47.51367" lon="6.77251">
        <ele>374.7</ele>
        <time>2017-10-01T06:52:39Z</time>
      </trkpt>
      <trkpt lat="47.51364" lon="6.77253">
        <ele>374.9</ele>
        <time>2017-10-01T06:52:40Z</time>
      </trkpt>
      <trkpt lat="47.5136" lon="6.77256">
        <ele>375.1</ele>
        <time>2017-10-01T06:52:41Z</time>
      </trkpt>
      <trkpt lat="47.51357" lon="6.7726">
        <ele>375.4</ele>
        <time>2017-10-01T06:52:42Z</time>
      </trkpt>
      <trkpt lat="47.51355" lon="6.77262">
        <ele>375.7</ele>
        <time>2017-10-01T06:52:43Z</time>
      </trkpt>
      <trkpt lat="47.51353" lon="6.77264">
        <ele>375.9</ele>
        <time>2017-10-01T06:52:44Z</time>
      </trkpt>
      <trkpt lat="47.5135" lon="6.77266">
        <ele>376.2</ele>
        <time>2017-10-01T06:52:45Z</time>
      </trkpt>
      <trkpt lat="47.51348" lon="6.77268">
        <ele>376.4</ele>
        <time>2017-10-01T06:52:46Z</time>
      </trkpt>
      <trkpt lat="47.51345" lon="6.77271">
        <ele>376.8</ele>
        <time>2017-10-01T06:52:47Z</time>
      </trkpt>
      <trkpt lat="47.51342" lon="6.77273">
        <ele>377.1</ele>
        <time>2017-10-01T06:52:48Z</time>
      </trkpt>
      <trkpt lat="47.51339" lon="6.77275">
        <ele>377.5</ele>
        <time>2017-10-01T06:52:49Z</time>
      </trkpt>
      <trkpt lat="47.51336" lon="6.77278">
        <ele>377.9</ele>
        <time>2017-10-01T06:52:50Z</time>
      </trkpt>
      <trkpt lat="47.51333" lon="6.77279">
        <ele>378.2</ele>
        <time>2017-10-01T06:52:51Z</time>
      </trkpt>
      <trkpt lat="47.51329" lon="6.7728">
        <ele>378.7</ele>
        <time>2017-10-01T06:52:53Z</time>
      </trkpt>
      <trkpt lat="47.51325" lon="6.77281">
        <ele>379</ele>
        <time>2017-10-01T06:52:54Z</time>
      </trkpt>
      <trkpt lat="47.5132" lon="6.77281">
        <ele>379</ele>
        <time>2017-10-01T06:52:55Z</time>
      </trkpt>
      <trkpt lat="47.51316" lon="6.7728">
        <ele>379</ele>
        <time>2017-10-01T06:52:56Z</time>
      </trkpt>
      <trkpt lat="47.51313" lon="6.77279">
        <ele>379</ele>
        <time>2017-10-01T06:52:57Z</time>
      </trkpt>
      <trkpt lat="47.51309" lon="6.77277">
        <ele>379</ele>
        <time>2017-10-01T06:52:58Z</time>
      </trkpt>
      <trkpt lat="47.51306" lon="6.77276">
        <ele>379</ele>
        <time>2017-10-01T06:52:59Z</time>
      </trkpt>
      <trkpt lat="47.51302" lon="6.77274">
        <ele>379</ele>
        <time>2017-10-01T06:53:00Z</time>
      </trkpt>
      <trkpt lat="47.51299" lon="6.77273">
        <ele>379</ele>
        <time>2017-10-01T06:53:01Z</time>
      </trkpt>
      <trkpt lat="47.51296" lon="6.77271">
        <ele>379</ele>
        <time>2017-10-01T06:53:02Z</time>
      </trkpt>
      <trkpt lat="47.51293" lon="6.7727">
        <ele>379</ele>
        <time>2017-10-01T06:53:03Z</time>
      </trkpt>
      <trkpt lat="47.5129" lon="6.77268">
        <ele>379</ele>
        <time>2017-10-01T06:53:04Z</time>
      </trkpt>
      <trkpt lat="47.51288" lon="6.77266">
        <ele>379</ele>
        <time>2017-10-01T06:53:05Z</time>
      </trkpt>
      <trkpt lat="47.51285" lon="6.77264">
        <ele>379</ele>
        <time>2017-10-01T06:53:06Z</time>
      </trkpt>
      <trkpt lat="47.51282" lon="6.77261">
        <ele>379</ele>
        <time>2017-10-01T06:53:07Z</time>
      </trkpt>
      <trkpt lat="47.51278" lon="6.77259">
        <ele>378.9</ele>
        <time>2017-10-01T06:53:08Z</time>
      </trkpt>
      <trkpt lat="47.51274" lon="6.77257">
        <ele>378.9</ele>
        <time>2017-10-01T06:53:09Z</time>
      </trkpt>
      <trkpt lat="47.51271" lon="6.77255">
        <ele>378.9</ele>
        <time>2017-10-01T06:53:10Z</time>
      </trkpt>
      <trkpt lat="47.51268" lon="6.77252">
        <ele>378.8</ele>
        <time>2017-10-01T06:53:11Z</time>
      </trkpt>
      <trkpt lat="47.51264" lon="6.77246">
        <ele>378.8</ele>
        <time>2017-10-01T06:53:12Z</time>
      </trkpt>
      <trkpt lat="47.51262" lon="6.77242">
        <ele>378.8</ele>
        <time>2017-10-01T06:53:13Z</time>
      </trkpt>
      <trkpt lat="47.51258" lon="6.77238">
        <ele>378.8</ele>
        <time>2017-10-01T06:53:14Z</time>
      </trkpt>
      <trkpt lat="47.51256" lon="6.77234">
        <ele>378.7</ele>
        <time>2017-10-01T06:53:15Z</time>
      </trkpt>
      <trkpt lat="47.51252" lon="6.77228">
        <ele>378.7</ele>
        <time>2017-10-01T06:53:16Z</time>
      </trkpt>
      <trkpt lat="47.51249" lon="6.77224">
        <ele>378.7</ele>
        <time>2017-10-01T06:53:17Z</time>
      </trkpt>
      <trkpt lat="47.51246" lon="6.77218">
        <ele>378.7</ele>
        <time>2017-10-01T06:53:18Z</time>
      </trkpt>
      <trkpt lat="47.51243" lon="6.77213">
        <ele>378.7</ele>
        <time>2017-10-01T06:53:19Z</time>
      </trkpt>
      <trkpt lat="47.5124" lon="6.77206">
        <ele>378.6</ele>
        <time>2017-10-01T06:53:20Z</time>
      </trkpt>
      <trkpt lat="47.51237" lon="6.772">
        <ele>378.6</ele>
        <time>2017-10-01T06:53:21Z</time>
      </trkpt>
      <trkpt lat="47.51235" lon="6.77195">
        <ele>378.6</ele>
        <time>2017-10-01T06:53:22Z</time>
      </trkpt>
      <trkpt lat="47.51232" lon="6.77191">
        <ele>378.6</ele>
        <time>2017-10-01T06:53:23Z</time>
      </trkpt>
      <trkpt lat="47.51229" lon="6.77184">
        <ele>378.6</ele>
        <time>2017-10-01T06:53:24Z</time>
      </trkpt>
      <trkpt lat="47.51226" lon="6.77178">
        <ele>378.6</ele>
        <time>2017-10-01T06:53:25Z</time>
      </trkpt>
      <trkpt lat="47.51222" lon="6.77172">
        <ele>378.5</ele>
        <time>2017-10-01T06:53:26Z</time>
      </trkpt>
      <trkpt lat="47.51218" lon="6.77165">
        <ele>378.5</ele>
        <time>2017-10-01T06:53:27Z</time>
      </trkpt>
      <trkpt lat="47.51215" lon="6.77159">
        <ele>378.5</ele>
        <time>2017-10-01T06:53:28Z</time>
      </trkpt>
      <trkpt lat="47.51211" lon="6.77153">
        <ele>378.4</ele>
        <time>2017-10-01T06:53:29Z</time>
      </trkpt>
      <trkpt lat="47.51207" lon="6.77145">
        <ele>378.4</ele>
        <time>2017-10-01T06:53:30Z</time>
      </trkpt>
      <trkpt lat="47.51203" lon="6.77139">
        <ele>378.4</ele>
        <time>2017-10-01T06:53:31Z</time>
      </trkpt>
      <trkpt lat="47.51198" lon="6.77131">
        <ele>378.3</ele>
        <time>2017-10-01T06:53:32Z</time>
      </trkpt>
      <trkpt lat="47.51194" lon="6.77123">
        <ele>378.3</ele>
        <time>2017-10-01T06:53:33Z</time>
      </trkpt>
      <trkpt lat="47.51189" lon="6.77115">
        <ele>378.2</ele>
        <time>2017-10-01T06:53:34Z</time>
      </trkpt>
      <trkpt lat="47.51185" lon="6.77107">
        <ele>378.1</ele>
        <time>2017-10-01T06:53:35Z</time>
      </trkpt>
      <trkpt lat="47.51181" lon="6.77099">
        <ele>378</ele>
        <time>2017-10-01T06:53:36Z</time>
      </trkpt>
      <trkpt lat="47.51177" lon="6.77091">
        <ele>377.9</ele>
        <time>2017-10-01T06:53:37Z</time>
      </trkpt>
      <trkpt lat="47.51173" lon="6.77084">
        <ele>377.8</ele>
        <time>2017-10-01T06:53:38Z</time>
      </trkpt>
      <trkpt lat="47.51169" lon="6.77077">
        <ele>377.7</ele>
        <time>2017-10-01T06:53:39Z</time>
      </trkpt>
      <trkpt lat="47.51164" lon="6.77069">
        <ele>377.6</ele>
        <time>2017-10-01T06:53:40Z</time>
      </trkpt>
      <trkpt lat="47.51158" lon="6.77061">
        <ele>377.4</ele>
        <time>2017-10-01T06:53:41Z</time>
      </trkpt>
      <trkpt lat="47.51153" lon="6.77056">
        <ele>377.1</ele>
        <time>2017-10-01T06:53:42Z</time>
      </trkpt>
      <trkpt lat="47.51147" lon="6.7705">
        <ele>376.8</ele>
        <time>2017-10-01T06:53:43Z</time>
      </trkpt>
      <trkpt lat="47.51142" lon="6.77044">
        <ele>376.4</ele>
        <time>2017-10-01T06:53:44Z</time>
      </trkpt>
      <trkpt lat="47.51136" lon="6.7704">
        <ele>376.1</ele>
        <time>2017-10-01T06:53:45Z</time>
      </trkpt>
      <trkpt lat="47.51131" lon="6.77036">
        <ele>375.8</ele>
        <time>2017-10-01T06:53:46Z</time>
      </trkpt>
      <trkpt lat="47.51125" lon="6.7703">
        <ele>375.5</ele>
        <time>2017-10-01T06:53:47Z</time>
      </trkpt>
      <trkpt lat="47.5112" lon="6.77026">
        <ele>375.3</ele>
        <time>2017-10-01T06:53:48Z</time>
      </trkpt>
      <trkpt lat="47.51114" lon="6.77021">
        <ele>375</ele>
        <time>2017-10-01T06:53:49Z</time>
      </trkpt>
      <trkpt lat="47.51108" lon="6.77016">
        <ele>375.3</ele>
        <time>2017-10-01T06:53:50Z</time>
      </trkpt>
      <trkpt lat="47.51102" lon="6.7701">
        <ele>375.5</ele>
        <time>2017-10-01T06:53:51Z</time>
      </trkpt>
      <trkpt lat="47.51097" lon="6.77006">
        <ele>375.7</ele>
        <time>2017-10-01T06:53:52Z</time>
      </trkpt>
      <trkpt lat="47.51091" lon="6.77001">
        <ele>375.8</ele>
        <time>2017-10-01T06:53:53Z</time>
      </trkpt>
      <trkpt lat="47.51086" lon="6.76997">
        <ele>376</ele>
        <time>2017-10-01T06:53:54Z</time>
      </trkpt>
      <trkpt lat="47.5108" lon="6.76993">
        <ele>376.1</ele>
        <time>2017-10-01T06:53:55Z</time>
      </trkpt>
      <trkpt lat="47.51074" lon="6.76989">
        <ele>376.3</ele>
        <time>2017-10-01T06:53:56Z</time>
      </trkpt>
      <trkpt lat="47.51068" lon="6.76984">
        <ele>376.4</ele>
        <time>2017-10-01T06:53:57Z</time>
      </trkpt>
      <trkpt lat="47.51063" lon="6.7698">
        <ele>376.6</ele>
        <time>2017-10-01T06:53:58Z</time>
      </trkpt>
      <trkpt lat="47.51058" lon="6.76976">
        <ele>376.7</ele>
        <time>2017-10-01T06:53:59Z</time>
      </trkpt>
      <trkpt lat="47.51053" lon="6.76972">
        <ele>376.8</ele>
        <time>2017-10-01T06:54:00Z</time>
      </trkpt>
      <trkpt lat="47.51049" lon="6.76968">
        <ele>376.9</ele>
        <time>2017-10-01T06:54:01Z</time>
      </trkpt>
      <trkpt lat="47.51044" lon="6.76964">
        <ele>377.1</ele>
        <time>2017-10-01T06:54:02Z</time>
      </trkpt>
      <trkpt lat="47.51038" lon="6.76959">
        <ele>377.2</ele>
        <time>2017-10-01T06:54:03Z</time>
      </trkpt>
      <trkpt lat="47.51034" lon="6.76954">
        <ele>377.3</ele>
        <time>2017-10-01T06:54:04Z</time>
      </trkpt>
      <trkpt lat="47.5103" lon="6.76951">
        <ele>377.4</ele>
        <time>2017-10-01T06:54:05Z</time>
      </trkpt>
      <trkpt lat="47.51027" lon="6.76947">
        <ele>377.5</ele>
        <time>2017-10-01T06:54:06Z</time>
      </trkpt>
      <trkpt lat="47.51023" lon="6.76943">
        <ele>377.5</ele>
        <time>2017-10-01T06:54:07Z</time>
      </trkpt>
      <trkpt lat="47.5102" lon="6.76939">
        <ele>377.6</ele>
        <time>2017-10-01T06:54:08Z</time>
      </trkpt>
      <trkpt lat="47.51017" lon="6.76935">
        <ele>377.6</ele>
        <time>2017-10-01T06:54:09Z</time>
      </trkpt>
      <trkpt lat="47.51014" lon="6.76931">
        <ele>377.7</ele>
        <time>2017-10-01T06:54:10Z</time>
      </trkpt>
      <trkpt lat="47.51009" lon="6.76929">
        <ele>377.7</ele>
        <time>2017-10-01T06:54:11Z</time>
      </trkpt>
      <trkpt lat="47.51006" lon="6.76925">
        <ele>377.8</ele>
        <time>2017-10-01T06:54:12Z</time>
      </trkpt>
      <trkpt lat="47.51002" lon="6.76921">
        <ele>377.9</ele>
        <time>2017-10-01T06:54:13Z</time>
      </trkpt>
      <trkpt lat="47.50999" lon="6.76917">
        <ele>379</ele>
        <time>2017-10-01T06:54:14Z</time>
      </trkpt>
      <trkpt lat="47.50997" lon="6.7691">
        <ele>379.1</ele>
        <time>2017-10-01T06:54:15Z</time>
      </trkpt>
      <trkpt lat="47.50994" lon="6.76904">
        <ele>380</ele>
        <time>2017-10-01T06:54:16Z</time>
      </trkpt>
      <trkpt lat="47.50989" lon="6.76901">
        <ele>380</ele>
        <time>2017-10-01T06:54:17Z</time>
      </trkpt>
      <trkpt lat="47.50985" lon="6.769">
        <ele>380</ele>
        <time>2017-10-01T06:54:18Z</time>
      </trkpt>
      <trkpt lat="47.5098" lon="6.76897">
        <ele>380</ele>
        <time>2017-10-01T06:54:19Z</time>
      </trkpt>
      <trkpt lat="47.50977" lon="6.76898">
        <ele>380</ele>
        <time>2017-10-01T06:54:20Z</time>
      </trkpt>
      <trkpt lat="47.50973" lon="6.76897">
        <ele>380</ele>
        <time>2017-10-01T06:54:21Z</time>
      </trkpt>
      <trkpt lat="47.5097" lon="6.76896">
        <ele>380</ele>
        <time>2017-10-01T06:54:22Z</time>
      </trkpt>
      <trkpt lat="47.50965" lon="6.76894">
        <ele>380</ele>
        <time>2017-10-01T06:54:23Z</time>
      </trkpt>
      <trkpt lat="47.50962" lon="6.76893">
        <ele>380.1</ele>
        <time>2017-10-01T06:54:24Z</time>
      </trkpt>
      <trkpt lat="47.50958" lon="6.7689">
        <ele>380.2</ele>
        <time>2017-10-01T06:54:25Z</time>
      </trkpt>
      <trkpt lat="47.50955" lon="6.76888">
        <ele>380.2</ele>
        <time>2017-10-01T06:54:26Z</time>
      </trkpt>
      <trkpt lat="47.50951" lon="6.76884">
        <ele>380.3</ele>
        <time>2017-10-01T06:54:27Z</time>
      </trkpt>
      <trkpt lat="47.50947" lon="6.76881">
        <ele>380.4</ele>
        <time>2017-10-01T06:54:28Z</time>
      </trkpt>
      <trkpt lat="47.50944" lon="6.76878">
        <ele>380.5</ele>
        <time>2017-10-01T06:54:29Z</time>
      </trkpt>
      <trkpt lat="47.50941" lon="6.76875">
        <ele>380.6</ele>
        <time>2017-10-01T06:54:30Z</time>
      </trkpt>
      <trkpt lat="47.50938" lon="6.76872">
        <ele>380.8</ele>
        <time>2017-10-01T06:54:31Z</time>
      </trkpt>
      <trkpt lat="47.50934" lon="6.76868">
        <ele>381.1</ele>
        <time>2017-10-01T06:54:32Z</time>
      </trkpt>
      <trkpt lat="47.50931" lon="6.76864">
        <ele>381.3</ele>
        <time>2017-10-01T06:54:33Z</time>
      </trkpt>
      <trkpt lat="47.50929" lon="6.7686">
        <ele>381.5</ele>
        <time>2017-10-01T06:54:34Z</time>
      </trkpt>
      <trkpt lat="47.50926" lon="6.76856">
        <ele>381.7</ele>
        <time>2017-10-01T06:54:35Z</time>
      </trkpt>
      <trkpt lat="47.50924" lon="6.76851">
        <ele>381.8</ele>
        <time>2017-10-01T06:54:36Z</time>
      </trkpt>
      <trkpt lat="47.50921" lon="6.76846">
        <ele>382</ele>
        <time>2017-10-01T06:54:37Z</time>
      </trkpt>
      <trkpt lat="47.50918" lon="6.76841">
        <ele>382.2</ele>
        <time>2017-10-01T06:54:38Z</time>
      </trkpt>
      <trkpt lat="47.50917" lon="6.76836">
        <ele>382.3</ele>
        <time>2017-10-01T06:54:39Z</time>
      </trkpt>
      <trkpt lat="47.50915" lon="6.76832">
        <ele>382.6</ele>
        <time>2017-10-01T06:54:40Z</time>
      </trkpt>
      <trkpt lat="47.50913" lon="6.76826">
        <ele>383</ele>
        <time>2017-10-01T06:54:41Z</time>
      </trkpt>
      <trkpt lat="47.50911" lon="6.7682">
        <ele>383.3</ele>
        <time>2017-10-01T06:54:42Z</time>
      </trkpt>
      <trkpt lat="47.50909" lon="6.76816">
        <ele>383.6</ele>
        <time>2017-10-01T06:54:43Z</time>
      </trkpt>
      <trkpt lat="47.50907" lon="6.76811">
        <ele>383.9</ele>
        <time>2017-10-01T06:54:44Z</time>
      </trkpt>
      <trkpt lat="47.50905" lon="6.76807">
        <ele>384.3</ele>
        <time>2017-10-01T06:54:45Z</time>
      </trkpt>
      <trkpt lat="47.50903" lon="6.76802">
        <ele>384.6</ele>
        <time>2017-10-01T06:54:46Z</time>
      </trkpt>
      <trkpt lat="47.50901" lon="6.76797">
        <ele>384.7</ele>
        <time>2017-10-01T06:54:47Z</time>
      </trkpt>
      <trkpt lat="47.50898" lon="6.76792">
        <ele>384.9</ele>
        <time>2017-10-01T06:54:48Z</time>
      </trkpt>
      <trkpt lat="47.50896" lon="6.76788">
        <ele>385</ele>
        <time>2017-10-01T06:54:49Z</time>
      </trkpt>
      <trkpt lat="47.50894" lon="6.76784">
        <ele>385.1</ele>
        <time>2017-10-01T06:54:50Z</time>
      </trkpt>
      <trkpt lat="47.50892" lon="6.7678">
        <ele>385.2</ele>
        <time>2017-10-01T06:54:51Z</time>
      </trkpt>
      <trkpt lat="47.50891" lon="6.76775">
        <ele>385.3</ele>
        <time>2017-10-01T06:54:52Z</time>
      </trkpt>
      <trkpt lat="47.50889" lon="6.76771">
        <ele>385.5</ele>
        <time>2017-10-01T06:54:53Z</time>
      </trkpt>
      <trkpt lat="47.50887" lon="6.76765">
        <ele>385.6</ele>
        <time>2017-10-01T06:54:54Z</time>
      </trkpt>
      <trkpt lat="47.50885" lon="6.76759">
        <ele>385.7</ele>
        <time>2017-10-01T06:54:55Z</time>
      </trkpt>
      <trkpt lat="47.50884" lon="6.76754">
        <ele>386</ele>
        <time>2017-10-01T06:54:56Z</time>
      </trkpt>
      <trkpt lat="47.50883" lon="6.76751">
        <ele>386.2</ele>
        <time>2017-10-01T06:54:57Z</time>
      </trkpt>
      <trkpt lat="47.50882" lon="6.76746">
        <ele>386.5</ele>
        <time>2017-10-01T06:54:58Z</time>
      </trkpt>
      <trkpt lat="47.5088" lon="6.76742">
        <ele>386.8</ele>
        <time>2017-10-01T06:54:59Z</time>
      </trkpt>
      <trkpt lat="47.50879" lon="6.76737">
        <ele>387.2</ele>
        <time>2017-10-01T06:55:00Z</time>
      </trkpt>
      <trkpt lat="47.50878" lon="6.76732">
        <ele>387.5</ele>
        <time>2017-10-01T06:55:01Z</time>
      </trkpt>
      <trkpt lat="47.50876" lon="6.76726">
        <ele>388</ele>
        <time>2017-10-01T06:55:02Z</time>
      </trkpt>
      <trkpt lat="47.50874" lon="6.7672">
        <ele>388.4</ele>
        <time>2017-10-01T06:55:03Z</time>
      </trkpt>
      <trkpt lat="47.50872" lon="6.76715">
        <ele>388.9</ele>
        <time>2017-10-01T06:55:04Z</time>
      </trkpt>
      <trkpt lat="47.50871" lon="6.7671">
        <ele>389.1</ele>
        <time>2017-10-01T06:55:05Z</time>
      </trkpt>
      <trkpt lat="47.50869" lon="6.76706">
        <ele>389.2</ele>
        <time>2017-10-01T06:55:06Z</time>
      </trkpt>
      <trkpt lat="47.50868" lon="6.76701">
        <ele>389.4</ele>
        <time>2017-10-01T06:55:07Z</time>
      </trkpt>
      <trkpt lat="47.50867" lon="6.76696">
        <ele>389.6</ele>
        <time>2017-10-01T06:55:08Z</time>
      </trkpt>
      <trkpt lat="47.50866" lon="6.76692">
        <ele>389.7</ele>
        <time>2017-10-01T06:55:09Z</time>
      </trkpt>
      <trkpt lat="47.50865" lon="6.76687">
        <ele>389.9</ele>
        <time>2017-10-01T06:55:10Z</time>
      </trkpt>
      <trkpt lat="47.50863" lon="6.76683">
        <ele>390</ele>
        <time>2017-10-01T06:55:11Z</time>
      </trkpt>
      <trkpt lat="47.5086" lon="6.76678">
        <ele>390.1</ele>
        <time>2017-10-01T06:55:12Z</time>
      </trkpt>
      <trkpt lat="47.50858" lon="6.76673">
        <ele>390.2</ele>
        <time>2017-10-01T06:55:13Z</time>
      </trkpt>
      <trkpt lat="47.50856" lon="6.76669">
        <ele>390.3</ele>
        <time>2017-10-01T06:55:14Z</time>
      </trkpt>
      <trkpt lat="47.50855" lon="6.76666">
        <ele>390.4</ele>
        <time>2017-10-01T06:55:15Z</time>
      </trkpt>
      <trkpt lat="47.50853" lon="6.76662">
        <ele>390.4</ele>
        <time>2017-10-01T06:55:16Z</time>
      </trkpt>
      <trkpt lat="47.50851" lon="6.76658">
        <ele>390.5</ele>
        <time>2017-10-01T06:55:17Z</time>
      </trkpt>
      <trkpt lat="47.50849" lon="6.76654">
        <ele>390.6</ele>
        <time>2017-10-01T06:55:18Z</time>
      </trkpt>
      <trkpt lat="47.50847" lon="6.76651">
        <ele>390.7</ele>
        <time>2017-10-01T06:55:19Z</time>
      </trkpt>
      <trkpt lat="47.50845" lon="6.76648">
        <ele>390.8</ele>
        <time>2017-10-01T06:55:20Z</time>
      </trkpt>
      <trkpt lat="47.50844" lon="6.76644">
        <ele>390.9</ele>
        <time>2017-10-01T06:55:21Z</time>
      </trkpt>
      <trkpt lat="47.50842" lon="6.76641">
        <ele>391</ele>
        <time>2017-10-01T06:55:22Z</time>
      </trkpt>
      <trkpt lat="47.5084" lon="6.76637">
        <ele>391.2</ele>
        <time>2017-10-01T06:55:23Z</time>
      </trkpt>
      <trkpt lat="47.50838" lon="6.76633">
        <ele>391.3</ele>
        <time>2017-10-01T06:55:24Z</time>
      </trkpt>
      <trkpt lat="47.50837" lon="6.7663">
        <ele>391.4</ele>
        <time>2017-10-01T06:55:25Z</time>
      </trkpt>
      <trkpt lat="47.50836" lon="6.76628">
        <ele>391.5</ele>
        <time>2017-10-01T06:55:26Z</time>
      </trkpt>
      <trkpt lat="47.50835" lon="6.76625">
        <ele>391.6</ele>
        <time>2017-10-01T06:55:27Z</time>
      </trkpt>
      <trkpt lat="47.50833" lon="6.7662">
        <ele>391.8</ele>
        <time>2017-10-01T06:55:28Z</time>
      </trkpt>
      <trkpt lat="47.50831" lon="6.76617">
        <ele>391.9</ele>
        <time>2017-10-01T06:55:29Z</time>
      </trkpt>
      <trkpt lat="47.5083" lon="6.76613">
        <ele>392</ele>
        <time>2017-10-01T06:55:30Z</time>
      </trkpt>
      <trkpt lat="47.50828" lon="6.76609">
        <ele>392.1</ele>
        <time>2017-10-01T06:55:31Z</time>
      </trkpt>
      <trkpt lat="47.50826" lon="6.76604">
        <ele>392.2</ele>
        <time>2017-10-01T06:55:32Z</time>
      </trkpt>
      <trkpt lat="47.50825" lon="6.76601">
        <ele>392.3</ele>
        <time>2017-10-01T06:55:33Z</time>
      </trkpt>
      <trkpt lat="47.50824" lon="6.76596">
        <ele>392.5</ele>
        <time>2017-10-01T06:55:34Z</time>
      </trkpt>
      <trkpt lat="47.50822" lon="6.76593">
        <ele>392.6</ele>
        <time>2017-10-01T06:55:35Z</time>
      </trkpt>
      <trkpt lat="47.50819" lon="6.76593">
        <ele>392.7</ele>
        <time>2017-10-01T06:55:36Z</time>
      </trkpt>
      <trkpt lat="47.50817" lon="6.76595">
        <ele>394</ele>
        <time>2017-10-01T06:55:37Z</time>
      </trkpt>
      <trkpt lat="47.50815" lon="6.76598">
        <ele>394.1</ele>
        <time>2017-10-01T06:55:38Z</time>
      </trkpt>
      <trkpt lat="47.50812" lon="6.76596">
        <ele>394.2</ele>
        <time>2017-10-01T06:55:39Z</time>
      </trkpt>
      <trkpt lat="47.50811" lon="6.76593">
        <ele>394.3</ele>
        <time>2017-10-01T06:55:40Z</time>
      </trkpt>
      <trkpt lat="47.5081" lon="6.7659">
        <ele>394.3</ele>
        <time>2017-10-01T06:55:41Z</time>
      </trkpt>
      <trkpt lat="47.50807" lon="6.76587">
        <ele>394.4</ele>
        <time>2017-10-01T06:55:43Z</time>
      </trkpt>
      <trkpt lat="47.50804" lon="6.76587">
        <ele>394.4</ele>
        <time>2017-10-01T06:55:44Z</time>
      </trkpt>
      <trkpt lat="47.50802" lon="6.76588">
        <ele>394.4</ele>
        <time>2017-10-01T06:55:45Z</time>
      </trkpt>
      <trkpt lat="47.508" lon="6.76589">
        <ele>394.5</ele>
        <time>2017-10-01T06:55:46Z</time>
      </trkpt>
      <trkpt lat="47.50796" lon="6.76589">
        <ele>394.8</ele>
        <time>2017-10-01T06:55:48Z</time>
      </trkpt>
      <trkpt lat="47.50791" lon="6.7659">
        <ele>395.2</ele>
        <time>2017-10-01T06:55:49Z</time>
      </trkpt>
      <trkpt lat="47.50787" lon="6.76591">
        <ele>395.5</ele>
        <time>2017-10-01T06:56:03Z</time>
      </trkpt>
      <trkpt lat="47.50784" lon="6.76592">
        <ele>395.9</ele>
        <time>2017-10-01T06:56:04Z</time>
      </trkpt>
      <trkpt lat="47.50781" lon="6.76592">
        <ele>396.2</ele>
        <time>2017-10-01T06:56:14Z</time>
      </trkpt>
      <trkpt lat="47.50778" lon="6.76593">
        <ele>396.6</ele>
        <time>2017-10-01T06:56:15Z</time>
      </trkpt>
      <trkpt lat="47.50771" lon="6.76593">
        <ele>397.4</ele>
        <time>2017-10-01T06:56:16Z</time>
      </trkpt>
      <trkpt lat="47.50768" lon="6.76594">
        <ele>397.9</ele>
        <time>2017-10-01T06:56:17Z</time>
      </trkpt>
      <trkpt lat="47.50765" lon="6.76594">
        <ele>398.2</ele>
        <time>2017-10-01T06:56:18Z</time>
      </trkpt>
      <trkpt lat="47.50762" lon="6.76595">
        <ele>398.6</ele>
        <time>2017-10-01T06:56:19Z</time>
      </trkpt>
      <trkpt lat="47.50759" lon="6.76596">
        <ele>398.9</ele>
        <time>2017-10-01T06:56:20Z</time>
      </trkpt>
      <trkpt lat="47.50756" lon="6.76597">
        <ele>399.2</ele>
        <time>2017-10-01T06:56:21Z</time>
      </trkpt>
      <trkpt lat="47.50753" lon="6.76597">
        <ele>399.4</ele>
        <time>2017-10-01T06:56:22Z</time>
      </trkpt>
      <trkpt lat="47.50749" lon="6.76597">
        <ele>399.6</ele>
        <time>2017-10-01T06:56:23Z</time>
      </trkpt>
      <trkpt lat="47.50746" lon="6.76597">
        <ele>399.7</ele>
        <time>2017-10-01T06:56:24Z</time>
      </trkpt>
      <trkpt lat="47.50743" lon="6.76597">
        <ele>399.7</ele>
        <time>2017-10-01T06:56:25Z</time>
      </trkpt>
      <trkpt lat="47.50739" lon="6.76596">
        <ele>399.8</ele>
        <time>2017-10-01T06:56:26Z</time>
      </trkpt>
      <trkpt lat="47.50736" lon="6.76596">
        <ele>399.8</ele>
        <time>2017-10-01T06:56:27Z</time>
      </trkpt>
      <trkpt lat="47.50733" lon="6.76596">
        <ele>399.9</ele>
        <time>2017-10-01T06:56:28Z</time>
      </trkpt>
      <trkpt lat="47.50729" lon="6.76595">
        <ele>400</ele>
        <time>2017-10-01T06:56:29Z</time>
      </trkpt>
      <trkpt lat="47.50725" lon="6.76594">
        <ele>400</ele>
        <time>2017-10-01T06:56:30Z</time>
      </trkpt>
      <trkpt lat="47.50723" lon="6.76594">
        <ele>400</ele>
        <time>2017-10-01T06:56:31Z</time>
      </trkpt>
      <trkpt lat="47.50719" lon="6.76593">
        <ele>400.1</ele>
        <time>2017-10-01T06:56:32Z</time>
      </trkpt>
      <trkpt lat="47.50716" lon="6.76592">
        <ele>400.1</ele>
        <time>2017-10-01T06:56:33Z</time>
      </trkpt>
      <trkpt lat="47.50712" lon="6.76591">
        <ele>400.3</ele>
        <time>2017-10-01T06:56:34Z</time>
      </trkpt>
      <trkpt lat="47.50709" lon="6.76591">
        <ele>400.5</ele>
        <time>2017-10-01T06:56:35Z</time>
      </trkpt>
      <trkpt lat="47.50706" lon="6.7659">
        <ele>400.7</ele>
        <time>2017-10-01T06:56:36Z</time>
      </trkpt>
      <trkpt lat="47.50702" lon="6.7659">
        <ele>400.9</ele>
        <time>2017-10-01T06:56:37Z</time>
      </trkpt>
      <trkpt lat="47.50698" lon="6.76589">
        <ele>401.1</ele>
        <time>2017-10-01T06:56:38Z</time>
      </trkpt>
      <trkpt lat="47.50694" lon="6.76589">
        <ele>401.3</ele>
        <time>2017-10-01T06:56:39Z</time>
      </trkpt>
      <trkpt lat="47.5069" lon="6.76589">
        <ele>401.4</ele>
        <time>2017-10-01T06:56:40Z</time>
      </trkpt>
      <trkpt lat="47.50687" lon="6.76589">
        <ele>401.5</ele>
        <time>2017-10-01T06:56:41Z</time>
      </trkpt>
      <trkpt lat="47.50684" lon="6.76589">
        <ele>401.5</ele>
        <time>2017-10-01T06:56:42Z</time>
      </trkpt>
      <trkpt lat="47.50682" lon="6.76589">
        <ele>401.6</ele>
        <time>2017-10-01T06:56:43Z</time>
      </trkpt>
      <trkpt lat="47.50679" lon="6.76589">
        <ele>401.6</ele>
        <time>2017-10-01T06:56:44Z</time>
      </trkpt>
      <trkpt lat="47.50677" lon="6.7659">
        <ele>401.6</ele>
        <time>2017-10-01T06:56:45Z</time>
      </trkpt>
      <trkpt lat="47.50673" lon="6.7659">
        <ele>401.6</ele>
        <time>2017-10-01T06:56:46Z</time>
      </trkpt>
      <trkpt lat="47.50669" lon="6.76591">
        <ele>401.5</ele>
        <time>2017-10-01T06:56:47Z</time>
      </trkpt>
      <trkpt lat="47.50666" lon="6.76592">
        <ele>401.5</ele>
        <time>2017-10-01T06:56:48Z</time>
      </trkpt>
      <trkpt lat="47.50662" lon="6.76594">
        <ele>401.5</ele>
        <time>2017-10-01T06:56:49Z</time>
      </trkpt>
      <trkpt lat="47.50659" lon="6.76596">
        <ele>401.5</ele>
        <time>2017-10-01T06:56:50Z</time>
      </trkpt>
      <trkpt lat="47.50656" lon="6.76597">
        <ele>401.5</ele>
        <time>2017-10-01T06:56:51Z</time>
      </trkpt>
      <trkpt lat="47.50652" lon="6.76599">
        <ele>401.4</ele>
        <time>2017-10-01T06:56:52Z</time>
      </trkpt>
      <trkpt lat="47.50649" lon="6.76601">
        <ele>401.3</ele>
        <time>2017-10-01T06:56:53Z</time>
      </trkpt>
      <trkpt lat="47.50645" lon="6.76603">
        <ele>401.2</ele>
        <time>2017-10-01T06:56:54Z</time>
      </trkpt>
      <trkpt lat="47.50641" lon="6.76605">
        <ele>401.1</ele>
        <time>2017-10-01T06:56:55Z</time>
      </trkpt>
      <trkpt lat="47.50638" lon="6.76606">
        <ele>401</ele>
        <time>2017-10-01T06:56:56Z</time>
      </trkpt>
      <trkpt lat="47.50635" lon="6.76608">
        <ele>400.9</ele>
        <time>2017-10-01T06:56:57Z</time>
      </trkpt>
      <trkpt lat="47.50633" lon="6.76609">
        <ele>400.8</ele>
        <time>2017-10-01T06:56:58Z</time>
      </trkpt>
      <trkpt lat="47.5063" lon="6.76611">
        <ele>400.8</ele>
        <time>2017-10-01T06:56:59Z</time>
      </trkpt>
      <trkpt lat="47.50627" lon="6.76613">
        <ele>400.8</ele>
        <time>2017-10-01T06:57:00Z</time>
      </trkpt>
      <trkpt lat="47.50624" lon="6.76615">
        <ele>400.8</ele>
        <time>2017-10-01T06:57:01Z</time>
      </trkpt>
      <trkpt lat="47.50621" lon="6.76617">
        <ele>400.9</ele>
        <time>2017-10-01T06:57:02Z</time>
      </trkpt>
      <trkpt lat="47.50618" lon="6.76618">
        <ele>400.9</ele>
        <time>2017-10-01T06:57:03Z</time>
      </trkpt>
      <trkpt lat="47.50615" lon="6.76619">
        <ele>401</ele>
        <time>2017-10-01T06:57:04Z</time>
      </trkpt>
      <trkpt lat="47.50613" lon="6.7662">
        <ele>401</ele>
        <time>2017-10-01T06:57:05Z</time>
      </trkpt>
      <trkpt lat="47.5061" lon="6.76622">
        <ele>401.1</ele>
        <time>2017-10-01T06:57:06Z</time>
      </trkpt>
      <trkpt lat="47.50606" lon="6.76624">
        <ele>401.4</ele>
        <time>2017-10-01T06:57:07Z</time>
      </trkpt>
      <trkpt lat="47.50602" lon="6.76625">
        <ele>401.7</ele>
        <time>2017-10-01T06:57:08Z</time>
      </trkpt>
      <trkpt lat="47.506" lon="6.76626">
        <ele>401.8</ele>
        <time>2017-10-01T06:57:09Z</time>
      </trkpt>
      <trkpt lat="47.50596" lon="6.76628">
        <ele>402.3</ele>
        <time>2017-10-01T06:57:10Z</time>
      </trkpt>
      <trkpt lat="47.50592" lon="6.76629">
        <ele>402.7</ele>
        <time>2017-10-01T06:57:11Z</time>
      </trkpt>
      <trkpt lat="47.50589" lon="6.7663">
        <ele>403.1</ele>
        <time>2017-10-01T06:57:12Z</time>
      </trkpt>
      <trkpt lat="47.50585" lon="6.76632">
        <ele>403.5</ele>
        <time>2017-10-01T06:57:13Z</time>
      </trkpt>
      <trkpt lat="47.50581" lon="6.76633">
        <ele>403.9</ele>
        <time>2017-10-01T06:57:14Z</time>
      </trkpt>
      <trkpt lat="47.50577" lon="6.76634">
        <ele>404.2</ele>
        <time>2017-10-01T06:57:15Z</time>
      </trkpt>
      <trkpt lat="47.50574" lon="6.76635">
        <ele>404.5</ele>
        <time>2017-10-01T06:57:16Z</time>
      </trkpt>
      <trkpt lat="47.50571" lon="6.76635">
        <ele>404.6</ele>
        <time>2017-10-01T06:57:17Z</time>
      </trkpt>
      <trkpt lat="47.50566" lon="6.76637">
        <ele>404.8</ele>
        <time>2017-10-01T06:57:19Z</time>
      </trkpt>
      <trkpt lat="47.50563" lon="6.76638">
        <ele>404.9</ele>
        <time>2017-10-01T06:57:20Z</time>
      </trkpt>
      <trkpt lat="47.5056" lon="6.76639">
        <ele>404.9</ele>
        <time>2017-10-01T06:57:21Z</time>
      </trkpt>
      <trkpt lat="47.50556" lon="6.76639">
        <ele>405</ele>
        <time>2017-10-01T06:57:22Z</time>
      </trkpt>
      <trkpt lat="47.50552" lon="6.7664">
        <ele>405</ele>
        <time>2017-10-01T06:57:23Z</time>
      </trkpt>
      <trkpt lat="47.50549" lon="6.76642">
        <ele>405.1</ele>
        <time>2017-10-01T06:57:24Z</time>
      </trkpt>
      <trkpt lat="47.50545" lon="6.76643">
        <ele>405.2</ele>
        <time>2017-10-01T06:57:25Z</time>
      </trkpt>
      <trkpt lat="47.50541" lon="6.76644">
        <ele>405.2</ele>
        <time>2017-10-01T06:57:26Z</time>
      </trkpt>
      <trkpt lat="47.50538" lon="6.76644">
        <ele>405.2</ele>
        <time>2017-10-01T06:57:27Z</time>
      </trkpt>
      <trkpt lat="47.50535" lon="6.76644">
        <ele>405.2</ele>
        <time>2017-10-01T06:57:28Z</time>
      </trkpt>
      <trkpt lat="47.50531" lon="6.76645">
        <ele>405.1</ele>
        <time>2017-10-01T06:57:29Z</time>
      </trkpt>
      <trkpt lat="47.50526" lon="6.76645">
        <ele>405</ele>
        <time>2017-10-01T06:57:30Z</time>
      </trkpt>
      <trkpt lat="47.50522" lon="6.76646">
        <ele>404.8</ele>
        <time>2017-10-01T06:57:31Z</time>
      </trkpt>
      <trkpt lat="47.50517" lon="6.76648">
        <ele>404.5</ele>
        <time>2017-10-01T06:57:32Z</time>
      </trkpt>
      <trkpt lat="47.50512" lon="6.76649">
        <ele>404.2</ele>
        <time>2017-10-01T06:57:33Z</time>
      </trkpt>
      <trkpt lat="47.50507" lon="6.76651">
        <ele>403.9</ele>
        <time>2017-10-01T06:57:34Z</time>
      </trkpt>
      <trkpt lat="47.50502" lon="6.76652">
        <ele>403.7</ele>
        <time>2017-10-01T06:57:35Z</time>
      </trkpt>
      <trkpt lat="47.50497" lon="6.76654">
        <ele>403.4</ele>
        <time>2017-10-01T06:57:36Z</time>
      </trkpt>
      <trkpt lat="47.50493" lon="6.76655">
        <ele>403.1</ele>
        <time>2017-10-01T06:57:37Z</time>
      </trkpt>
      <trkpt lat="47.50487" lon="6.76657">
        <ele>402.7</ele>
        <time>2017-10-01T06:57:38Z</time>
      </trkpt>
      <trkpt lat="47.50482" lon="6.76659">
        <ele>402.4</ele>
        <time>2017-10-01T06:57:39Z</time>
      </trkpt>
      <trkpt lat="47.50476" lon="6.76661">
        <ele>402.1</ele>
        <time>2017-10-01T06:57:40Z</time>
      </trkpt>
      <trkpt lat="47.50471" lon="6.76663">
        <ele>402</ele>
        <time>2017-10-01T06:57:41Z</time>
      </trkpt>
      <trkpt lat="47.50466" lon="6.76665">
        <ele>402</ele>
        <time>2017-10-01T06:57:42Z</time>
      </trkpt>
      <trkpt lat="47.50461" lon="6.76667">
        <ele>402</ele>
        <time>2017-10-01T06:57:43Z</time>
      </trkpt>
      <trkpt lat="47.50456" lon="6.7667">
        <ele>402.1</ele>
        <time>2017-10-01T06:57:44Z</time>
      </trkpt>
      <trkpt lat="47.50451" lon="6.76672">
        <ele>402</ele>
        <time>2017-10-01T06:57:45Z</time>
      </trkpt>
      <trkpt lat="47.50446" lon="6.76674">
        <ele>401.9</ele>
        <time>2017-10-01T06:57:46Z</time>
      </trkpt>
      <trkpt lat="47.50442" lon="6.76676">
        <ele>401.8</ele>
        <time>2017-10-01T06:57:47Z</time>
      </trkpt>
      <trkpt lat="47.50437" lon="6.76679">
        <ele>401.6</ele>
        <time>2017-10-01T06:57:48Z</time>
      </trkpt>
      <trkpt lat="47.50433" lon="6.76682">
        <ele>401.4</ele>
        <time>2017-10-01T06:57:49Z</time>
      </trkpt>
      <trkpt lat="47.50428" lon="6.76684">
        <ele>401.3</ele>
        <time>2017-10-01T06:57:50Z</time>
      </trkpt>
      <trkpt lat="47.50423" lon="6.76686">
        <ele>401.2</ele>
        <time>2017-10-01T06:57:51Z</time>
      </trkpt>
      <trkpt lat="47.50419" lon="6.76688">
        <ele>401</ele>
        <time>2017-10-01T06:57:52Z</time>
      </trkpt>
      <trkpt lat="47.50415" lon="6.76689">
        <ele>400.8</ele>
        <time>2017-10-01T06:57:53Z</time>
      </trkpt>
      <trkpt lat="47.50411" lon="6.7669">
        <ele>400.7</ele>
        <time>2017-10-01T06:57:54Z</time>
      </trkpt>
      <trkpt lat="47.50406" lon="6.76691">
        <ele>400.5</ele>
        <time>2017-10-01T06:57:55Z</time>
      </trkpt>
      <trkpt lat="47.504" lon="6.76694">
        <ele>400.3</ele>
        <time>2017-10-01T06:57:56Z</time>
      </trkpt>
      <trkpt lat="47.50396" lon="6.76696">
        <ele>400.1</ele>
        <time>2017-10-01T06:57:57Z</time>
      </trkpt>
      <trkpt lat="47.5039" lon="6.76699">
        <ele>400</ele>
        <time>2017-10-01T06:57:58Z</time>
      </trkpt>
      <trkpt lat="47.50384" lon="6.76702">
        <ele>400</ele>
        <time>2017-10-01T06:57:59Z</time>
      </trkpt>
      <trkpt lat="47.5038" lon="6.76704">
        <ele>400.1</ele>
        <time>2017-10-01T06:58:00Z</time>
      </trkpt>
      <trkpt lat="47.50375" lon="6.76706">
        <ele>400.3</ele>
        <time>2017-10-01T06:58:01Z</time>
      </trkpt>
      <trkpt lat="47.50371" lon="6.76708">
        <ele>400.5</ele>
        <time>2017-10-01T06:58:02Z</time>
      </trkpt>
      <trkpt lat="47.50366" lon="6.7671">
        <ele>400.8</ele>
        <time>2017-10-01T06:58:03Z</time>
      </trkpt>
      <trkpt lat="47.50361" lon="6.76712">
        <ele>401.1</ele>
        <time>2017-10-01T06:58:04Z</time>
      </trkpt>
      <trkpt lat="47.50358" lon="6.76714">
        <ele>401.4</ele>
        <time>2017-10-01T06:58:05Z</time>
      </trkpt>
      <trkpt lat="47.50352" lon="6.76716">
        <ele>401.6</ele>
        <time>2017-10-01T06:58:06Z</time>
      </trkpt>
      <trkpt lat="47.50347" lon="6.76719">
        <ele>401.9</ele>
        <time>2017-10-01T06:58:07Z</time>
      </trkpt>
      <trkpt lat="47.50342" lon="6.76721">
        <ele>402</ele>
        <time>2017-10-01T06:58:08Z</time>
      </trkpt>
      <trkpt lat="47.50337" lon="6.76722">
        <ele>402.2</ele>
        <time>2017-10-01T06:58:09Z</time>
      </trkpt>
      <trkpt lat="47.50332" lon="6.76724">
        <ele>402.2</ele>
        <time>2017-10-01T06:58:10Z</time>
      </trkpt>
      <trkpt lat="47.50328" lon="6.76726">
        <ele>402.1</ele>
        <time>2017-10-01T06:58:11Z</time>
      </trkpt>
      <trkpt lat="47.50324" lon="6.76727">
        <ele>401.9</ele>
        <time>2017-10-01T06:58:12Z</time>
      </trkpt>
      <trkpt lat="47.50319" lon="6.76729">
        <ele>401.9</ele>
        <time>2017-10-01T06:58:13Z</time>
      </trkpt>
      <trkpt lat="47.50315" lon="6.76731">
        <ele>401.8</ele>
        <time>2017-10-01T06:58:14Z</time>
      </trkpt>
      <trkpt lat="47.50312" lon="6.76733">
        <ele>401.7</ele>
        <time>2017-10-01T06:58:15Z</time>
      </trkpt>
      <trkpt lat="47.50307" lon="6.76735">
        <ele>401.6</ele>
        <time>2017-10-01T06:58:16Z</time>
      </trkpt>
      <trkpt lat="47.50301" lon="6.76736">
        <ele>401.4</ele>
        <time>2017-10-01T06:58:17Z</time>
      </trkpt>
      <trkpt lat="47.50296" lon="6.76737">
        <ele>401.2</ele>
        <time>2017-10-01T06:58:18Z</time>
      </trkpt>
      <trkpt lat="47.50292" lon="6.76738">
        <ele>401.1</ele>
        <time>2017-10-01T06:58:19Z</time>
      </trkpt>
      <trkpt lat="47.50287" lon="6.76739">
        <ele>401.1</ele>
        <time>2017-10-01T06:58:20Z</time>
      </trkpt>
      <trkpt lat="47.50282" lon="6.76739">
        <ele>401.1</ele>
        <time>2017-10-01T06:58:21Z</time>
      </trkpt>
      <trkpt lat="47.50278" lon="6.7674">
        <ele>401.1</ele>
        <time>2017-10-01T06:58:22Z</time>
      </trkpt>
      <trkpt lat="47.50273" lon="6.76741">
        <ele>401.1</ele>
        <time>2017-10-01T06:58:23Z</time>
      </trkpt>
      <trkpt lat="47.50269" lon="6.76742">
        <ele>401.2</ele>
        <time>2017-10-01T06:58:24Z</time>
      </trkpt>
      <trkpt lat="47.50264" lon="6.76743">
        <ele>401.3</ele>
        <time>2017-10-01T06:58:25Z</time>
      </trkpt>
      <trkpt lat="47.5026" lon="6.76744">
        <ele>401.5</ele>
        <time>2017-10-01T06:58:26Z</time>
      </trkpt>
      <trkpt lat="47.50255" lon="6.76745">
        <ele>401.7</ele>
        <time>2017-10-01T06:58:27Z</time>
      </trkpt>
      <trkpt lat="47.50252" lon="6.76745">
        <ele>402.1</ele>
        <time>2017-10-01T06:58:28Z</time>
      </trkpt>
      <trkpt lat="47.50248" lon="6.76742">
        <ele>402.6</ele>
        <time>2017-10-01T06:58:29Z</time>
      </trkpt>
      <trkpt lat="47.50245" lon="6.76738">
        <ele>403.1</ele>
        <time>2017-10-01T06:58:30Z</time>
      </trkpt>
      <trkpt lat="47.50243" lon="6.76735">
        <ele>403.6</ele>
        <time>2017-10-01T06:58:31Z</time>
      </trkpt>
      <trkpt lat="47.5024" lon="6.7673">
        <ele>404.2</ele>
        <time>2017-10-01T06:58:32Z</time>
      </trkpt>
      <trkpt lat="47.50237" lon="6.76726">
        <ele>404.8</ele>
        <time>2017-10-01T06:58:33Z</time>
      </trkpt>
      <trkpt lat="47.50234" lon="6.76721">
        <ele>405.1</ele>
        <time>2017-10-01T06:58:34Z</time>
      </trkpt>
      <trkpt lat="47.50232" lon="6.76717">
        <ele>405.4</ele>
        <time>2017-10-01T06:58:35Z</time>
      </trkpt>
      <trkpt lat="47.5023" lon="6.76711">
        <ele>405.7</ele>
        <time>2017-10-01T06:58:36Z</time>
      </trkpt>
      <trkpt lat="47.50227" lon="6.76706">
        <ele>405.9</ele>
        <time>2017-10-01T06:58:37Z</time>
      </trkpt>
      <trkpt lat="47.50225" lon="6.767">
        <ele>405.9</ele>
        <time>2017-10-01T06:58:38Z</time>
      </trkpt>
      <trkpt lat="47.50223" lon="6.76694">
        <ele>405.8</ele>
        <time>2017-10-01T06:58:39Z</time>
      </trkpt>
      <trkpt lat="47.50221" lon="6.76688">
        <ele>405.7</ele>
        <time>2017-10-01T06:58:40Z</time>
      </trkpt>
      <trkpt lat="47.50219" lon="6.76683">
        <ele>405.6</ele>
        <time>2017-10-01T06:58:41Z</time>
      </trkpt>
      <trkpt lat="47.50217" lon="6.76678">
        <ele>405.4</ele>
        <time>2017-10-01T06:58:42Z</time>
      </trkpt>
      <trkpt lat="47.50215" lon="6.76671">
        <ele>405</ele>
        <time>2017-10-01T06:58:43Z</time>
      </trkpt>
      <trkpt lat="47.50214" lon="6.76666">
        <ele>404.6</ele>
        <time>2017-10-01T06:58:44Z</time>
      </trkpt>
      <trkpt lat="47.50212" lon="6.76661">
        <ele>404.2</ele>
        <time>2017-10-01T06:58:45Z</time>
      </trkpt>
      <trkpt lat="47.5021" lon="6.76654">
        <ele>404</ele>
        <time>2017-10-01T06:58:46Z</time>
      </trkpt>
      <trkpt lat="47.50209" lon="6.76647">
        <ele>403.9</ele>
        <time>2017-10-01T06:58:47Z</time>
      </trkpt>
      <trkpt lat="47.50207" lon="6.76641">
        <ele>403.9</ele>
        <time>2017-10-01T06:58:48Z</time>
      </trkpt>
      <trkpt lat="47.50205" lon="6.76634">
        <ele>403.9</ele>
        <time>2017-10-01T06:58:49Z</time>
      </trkpt>
      <trkpt lat="47.50203" lon="6.76628">
        <ele>404.1</ele>
        <time>2017-10-01T06:58:50Z</time>
      </trkpt>
      <trkpt lat="47.502" lon="6.76621">
        <ele>404.4</ele>
        <time>2017-10-01T06:58:51Z</time>
      </trkpt>
      <trkpt lat="47.50198" lon="6.76615">
        <ele>404.6</ele>
        <time>2017-10-01T06:58:52Z</time>
      </trkpt>
      <trkpt lat="47.50196" lon="6.76607">
        <ele>405.2</ele>
        <time>2017-10-01T06:58:53Z</time>
      </trkpt>
      <trkpt lat="47.50194" lon="6.76602">
        <ele>405.6</ele>
        <time>2017-10-01T06:58:54Z</time>
      </trkpt>
      <trkpt lat="47.50194" lon="6.76597">
        <ele>405.8</ele>
        <time>2017-10-01T06:58:55Z</time>
      </trkpt>
      <trkpt lat="47.50195" lon="6.76592">
        <ele>406.2</ele>
        <time>2017-10-01T06:58:56Z</time>
      </trkpt>
      <trkpt lat="47.50196" lon="6.76585">
        <ele>407.6</ele>
        <time>2017-10-01T06:58:57Z</time>
      </trkpt>
      <trkpt lat="47.50195" lon="6.7658">
        <ele>408.9</ele>
        <time>2017-10-01T06:58:58Z</time>
      </trkpt>
      <trkpt lat="47.50195" lon="6.76576">
        <ele>408.8</ele>
        <time>2017-10-01T06:58:59Z</time>
      </trkpt>
      <trkpt lat="47.50196" lon="6.76573">
        <ele>408.8</ele>
        <time>2017-10-01T06:59:00Z</time>
      </trkpt>
      <trkpt lat="47.50198" lon="6.76568">
        <ele>408.7</ele>
        <time>2017-10-01T06:59:01Z</time>
      </trkpt>
      <trkpt lat="47.50201" lon="6.76566">
        <ele>408.5</ele>
        <time>2017-10-01T06:59:02Z</time>
      </trkpt>
      <trkpt lat="47.50204" lon="6.76566">
        <ele>408.2</ele>
        <time>2017-10-01T06:59:03Z</time>
      </trkpt>
      <trkpt lat="47.50207" lon="6.76565">
        <ele>407.8</ele>
        <time>2017-10-01T06:59:04Z</time>
      </trkpt>
      <trkpt lat="47.50211" lon="6.76563">
        <ele>407.3</ele>
        <time>2017-10-01T06:59:05Z</time>
      </trkpt>
      <trkpt lat="47.50215" lon="6.76561">
        <ele>406.9</ele>
        <time>2017-10-01T06:59:06Z</time>
      </trkpt>
      <trkpt lat="47.50215" lon="6.76555">
        <ele>406.6</ele>
        <time>2017-10-01T06:59:07Z</time>
      </trkpt>
      <trkpt lat="47.50214" lon="6.76549">
        <ele>404.8</ele>
        <time>2017-10-01T06:59:08Z</time>
      </trkpt>
      <trkpt lat="47.50214" lon="6.76544">
        <ele>404.5</ele>
        <time>2017-10-01T06:59:09Z</time>
      </trkpt>
      <trkpt lat="47.50213" lon="6.76538">
        <ele>404.2</ele>
        <time>2017-10-01T06:59:10Z</time>
      </trkpt>
      <trkpt lat="47.50212" lon="6.76529">
        <ele>403.7</ele>
        <time>2017-10-01T06:59:11Z</time>
      </trkpt>
      <trkpt lat="47.5021" lon="6.76519">
        <ele>403.2</ele>
        <time>2017-10-01T06:59:12Z</time>
      </trkpt>
      <trkpt lat="47.50207" lon="6.7651">
        <ele>402.7</ele>
        <time>2017-10-01T06:59:13Z</time>
      </trkpt>
      <trkpt lat="47.50204" lon="6.76505">
        <ele>402.2</ele>
        <time>2017-10-01T06:59:14Z</time>
      </trkpt>
      <trkpt lat="47.502" lon="6.76498">
        <ele>401.7</ele>
        <time>2017-10-01T06:59:15Z</time>
      </trkpt>
      <trkpt lat="47.50197" lon="6.76484">
        <ele>401.1</ele>
        <time>2017-10-01T06:59:16Z</time>
      </trkpt>
      <trkpt lat="47.50195" lon="6.76473">
        <ele>400.7</ele>
        <time>2017-10-01T06:59:17Z</time>
      </trkpt>
      <trkpt lat="47.50191" lon="6.76457">
        <ele>400.2</ele>
        <time>2017-10-01T06:59:18Z</time>
      </trkpt>
      <trkpt lat="47.50189" lon="6.76446">
        <ele>399.9</ele>
        <time>2017-10-01T06:59:19Z</time>
      </trkpt>
      <trkpt lat="47.50186" lon="6.76437">
        <ele>399.7</ele>
        <time>2017-10-01T06:59:20Z</time>
      </trkpt>
      <trkpt lat="47.50183" lon="6.76432">
        <ele>399.5</ele>
        <time>2017-10-01T06:59:21Z</time>
      </trkpt>
      <trkpt lat="47.50181" lon="6.76423">
        <ele>399.3</ele>
        <time>2017-10-01T06:59:22Z</time>
      </trkpt>
      <trkpt lat="47.50179" lon="6.76412">
        <ele>399</ele>
        <time>2017-10-01T06:59:23Z</time>
      </trkpt>
      <trkpt lat="47.50177" lon="6.76401">
        <ele>398.8</ele>
        <time>2017-10-01T06:59:24Z</time>
      </trkpt>
      <trkpt lat="47.50175" lon="6.76391">
        <ele>398.7</ele>
        <time>2017-10-01T06:59:25Z</time>
      </trkpt>
      <trkpt lat="47.50174" lon="6.76384">
        <ele>398.6</ele>
        <time>2017-10-01T06:59:26Z</time>
      </trkpt>
      <trkpt lat="47.50173" lon="6.76378">
        <ele>398.5</ele>
        <time>2017-10-01T06:59:27Z</time>
      </trkpt>
      <trkpt lat="47.50172" lon="6.76371">
        <ele>398.3</ele>
        <time>2017-10-01T06:59:28Z</time>
      </trkpt>
      <trkpt lat="47.50166" lon="6.76361">
        <ele>397.9</ele>
        <time>2017-10-01T06:59:29Z</time>
      </trkpt>
      <trkpt lat="47.50162" lon="6.76351">
        <ele>397.5</ele>
        <time>2017-10-01T06:59:30Z</time>
      </trkpt>
      <trkpt lat="47.5016" lon="6.76343">
        <ele>397.3</ele>
        <time>2017-10-01T06:59:31Z</time>
      </trkpt>
      <trkpt lat="47.50159" lon="6.76335">
        <ele>397</ele>
        <time>2017-10-01T06:59:32Z</time>
      </trkpt>
      <trkpt lat="47.50158" lon="6.76328">
        <ele>396.8</ele>
        <time>2017-10-01T06:59:33Z</time>
      </trkpt>
      <trkpt lat="47.50158" lon="6.76318">
        <ele>396.4</ele>
        <time>2017-10-01T06:59:34Z</time>
      </trkpt>
      <trkpt lat="47.50157" lon="6.76307">
        <ele>396</ele>
        <time>2017-10-01T06:59:35Z</time>
      </trkpt>
      <trkpt lat="47.50156" lon="6.76293">
        <ele>395.5</ele>
        <time>2017-10-01T06:59:36Z</time>
      </trkpt>
      <trkpt lat="47.50154" lon="6.76277">
        <ele>395.1</ele>
        <time>2017-10-01T06:59:37Z</time>
      </trkpt>
      <trkpt lat="47.50154" lon="6.7626">
        <ele>394.6</ele>
        <time>2017-10-01T06:59:38Z</time>
      </trkpt>
      <trkpt lat="47.50152" lon="6.76246">
        <ele>394.1</ele>
        <time>2017-10-01T06:59:39Z</time>
      </trkpt>
      <trkpt lat="47.50153" lon="6.76236">
        <ele>393.8</ele>
        <time>2017-10-01T06:59:40Z</time>
      </trkpt>
      <trkpt lat="47.50153" lon="6.76224">
        <ele>393.2</ele>
        <time>2017-10-01T06:59:41Z</time>
      </trkpt>
      <trkpt lat="47.50151" lon="6.76213">
        <ele>392.7</ele>
        <time>2017-10-01T06:59:42Z</time>
      </trkpt>
      <trkpt lat="47.50149" lon="6.76201">
        <ele>392.1</ele>
        <time>2017-10-01T06:59:43Z</time>
      </trkpt>
      <trkpt lat="47.50145" lon="6.76185">
        <ele>391.3</ele>
        <time>2017-10-01T06:59:44Z</time>
      </trkpt>
      <trkpt lat="47.50139" lon="6.76173">
        <ele>390.7</ele>
        <time>2017-10-01T06:59:45Z</time>
      </trkpt>
      <trkpt lat="47.50133" lon="6.76161">
        <ele>390.1</ele>
        <time>2017-10-01T06:59:46Z</time>
      </trkpt>
      <trkpt lat="47.50129" lon="6.76148">
        <ele>389.4</ele>
        <time>2017-10-01T06:59:47Z</time>
      </trkpt>
      <trkpt lat="47.50126" lon="6.76138">
        <ele>389</ele>
        <time>2017-10-01T06:59:48Z</time>
      </trkpt>
      <trkpt lat="47.50123" lon="6.76125">
        <ele>388.4</ele>
        <time>2017-10-01T06:59:49Z</time>
      </trkpt>
      <trkpt lat="47.5012" lon="6.7611">
        <ele>387.7</ele>
        <time>2017-10-01T06:59:50Z</time>
      </trkpt>
      <trkpt lat="47.50117" lon="6.76098">
        <ele>387.1</ele>
        <time>2017-10-01T06:59:51Z</time>
      </trkpt>
      <trkpt lat="47.50114" lon="6.76086">
        <ele>386.5</ele>
        <time>2017-10-01T06:59:52Z</time>
      </trkpt>
      <trkpt lat="47.50111" lon="6.76074">
        <ele>385.9</ele>
        <time>2017-10-01T06:59:53Z</time>
      </trkpt>
      <trkpt lat="47.50107" lon="6.76059">
        <ele>384.8</ele>
        <time>2017-10-01T06:59:54Z</time>
      </trkpt>
      <trkpt lat="47.50104" lon="6.76044">
        <ele>383.9</ele>
        <time>2017-10-01T06:59:55Z</time>
      </trkpt>
      <trkpt lat="47.50102" lon="6.7603">
        <ele>383.3</ele>
        <time>2017-10-01T06:59:56Z</time>
      </trkpt>
      <trkpt lat="47.50099" lon="6.76021">
        <ele>382.8</ele>
        <time>2017-10-01T06:59:57Z</time>
      </trkpt>
      <trkpt lat="47.50096" lon="6.76011">
        <ele>382.4</ele>
        <time>2017-10-01T06:59:58Z</time>
      </trkpt>
      <trkpt lat="47.50092" lon="6.75998">
        <ele>382</ele>
        <time>2017-10-01T06:59:59Z</time>
      </trkpt>
      <trkpt lat="47.50087" lon="6.75987">
        <ele>381.8</ele>
        <time>2017-10-01T07:00:00Z</time>
      </trkpt>
      <trkpt lat="47.50081" lon="6.75977">
        <ele>381.4</ele>
        <time>2017-10-01T07:00:01Z</time>
      </trkpt>
      <trkpt lat="47.50077" lon="6.75968">
        <ele>381.1</ele>
        <time>2017-10-01T07:00:02Z</time>
      </trkpt>
      <trkpt lat="47.50073" lon="6.75958">
        <ele>380.9</ele>
        <time>2017-10-01T07:00:03Z</time>
      </trkpt>
      <trkpt lat="47.50068" lon="6.75947">
        <ele>380.6</ele>
        <time>2017-10-01T07:00:04Z</time>
      </trkpt>
      <trkpt lat="47.50064" lon="6.75942">
        <ele>380.4</ele>
        <time>2017-10-01T07:00:05Z</time>
      </trkpt>
      <trkpt lat="47.5006" lon="6.75935">
        <ele>380.2</ele>
        <time>2017-10-01T07:00:06Z</time>
      </trkpt>
      <trkpt lat="47.50056" lon="6.75927">
        <ele>379.8</ele>
        <time>2017-10-01T07:00:07Z</time>
      </trkpt>
      <trkpt lat="47.5005" lon="6.75919">
        <ele>379.4</ele>
        <time>2017-10-01T07:00:08Z</time>
      </trkpt>
      <trkpt lat="47.50044" lon="6.75912">
        <ele>379</ele>
        <time>2017-10-01T07:00:09Z</time>
      </trkpt>
      <trkpt lat="47.50037" lon="6.75904">
        <ele>378.6</ele>
        <time>2017-10-01T07:00:10Z</time>
      </trkpt>
      <trkpt lat="47.5003" lon="6.75896">
        <ele>378.2</ele>
        <time>2017-10-01T07:00:11Z</time>
      </trkpt>
      <trkpt lat="47.50022" lon="6.75886">
        <ele>377.7</ele>
        <time>2017-10-01T07:00:12Z</time>
      </trkpt>
      <trkpt lat="47.50016" lon="6.75877">
        <ele>377.1</ele>
        <time>2017-10-01T07:00:13Z</time>
      </trkpt>
      <trkpt lat="47.5001" lon="6.75868">
        <ele>376.3</ele>
        <time>2017-10-01T07:00:14Z</time>
      </trkpt>
      <trkpt lat="47.50004" lon="6.75856">
        <ele>375.4</ele>
        <time>2017-10-01T07:00:15Z</time>
      </trkpt>
      <trkpt lat="47.49999" lon="6.75845">
        <ele>374.7</ele>
        <time>2017-10-01T07:00:16Z</time>
      </trkpt>
      <trkpt lat="47.49994" lon="6.75835">
        <ele>374.2</ele>
        <time>2017-10-01T07:00:17Z</time>
      </trkpt>
      <trkpt lat="47.4999" lon="6.75825">
        <ele>373.7</ele>
        <time>2017-10-01T07:00:18Z</time>
      </trkpt>
      <trkpt lat="47.49985" lon="6.75816">
        <ele>372.9</ele>
        <time>2017-10-01T07:00:19Z</time>
      </trkpt>
      <trkpt lat="47.49979" lon="6.75804">
        <ele>371.9</ele>
        <time>2017-10-01T07:00:20Z</time>
      </trkpt>
      <trkpt lat="47.49973" lon="6.75793">
        <ele>370.7</ele>
        <time>2017-10-01T07:00:21Z</time>
      </trkpt>
      <trkpt lat="47.49966" lon="6.75783">
        <ele>369.6</ele>
        <time>2017-10-01T07:00:22Z</time>
      </trkpt>
      <trkpt lat="47.49959" lon="6.75774">
        <ele>368.9</ele>
        <time>2017-10-01T07:00:23Z</time>
      </trkpt>
      <trkpt lat="47.49952" lon="6.75765">
        <ele>367.9</ele>
        <time>2017-10-01T07:00:24Z</time>
      </trkpt>
      <trkpt lat="47.49944" lon="6.75753">
        <ele>366.5</ele>
        <time>2017-10-01T07:00:25Z</time>
      </trkpt>
      <trkpt lat="47.49938" lon="6.75745">
        <ele>365.5</ele>
        <time>2017-10-01T07:00:26Z</time>
      </trkpt>
      <trkpt lat="47.49932" lon="6.75736">
        <ele>364.3</ele>
        <time>2017-10-01T07:00:27Z</time>
      </trkpt>
      <trkpt lat="47.49926" lon="6.75728">
        <ele>363</ele>
        <time>2017-10-01T07:00:28Z</time>
      </trkpt>
      <trkpt lat="47.4992" lon="6.75719">
        <ele>361.9</ele>
        <time>2017-10-01T07:00:29Z</time>
      </trkpt>
      <trkpt lat="47.49912" lon="6.75712">
        <ele>360.8</ele>
        <time>2017-10-01T07:00:30Z</time>
      </trkpt>
      <trkpt lat="47.49905" lon="6.75706">
        <ele>360</ele>
        <time>2017-10-01T07:00:31Z</time>
      </trkpt>
      <trkpt lat="47.49899" lon="6.75705">
        <ele>359.4</ele>
        <time>2017-10-01T07:00:32Z</time>
      </trkpt>
      <trkpt lat="47.49893" lon="6.75705">
        <ele>358.8</ele>
        <time>2017-10-01T07:00:33Z</time>
      </trkpt>
      <trkpt lat="47.49885" lon="6.75706">
        <ele>358.1</ele>
        <time>2017-10-01T07:00:34Z</time>
      </trkpt>
      <trkpt lat="47.49877" lon="6.75707">
        <ele>357</ele>
        <time>2017-10-01T07:00:35Z</time>
      </trkpt>
      <trkpt lat="47.49865" lon="6.7571">
        <ele>355.7</ele>
        <time>2017-10-01T07:00:36Z</time>
      </trkpt>
      <trkpt lat="47.49855" lon="6.75712">
        <ele>354.6</ele>
        <time>2017-10-01T07:00:37Z</time>
      </trkpt>
      <trkpt lat="47.49845" lon="6.75716">
        <ele>353.5</ele>
        <time>2017-10-01T07:00:38Z</time>
      </trkpt>
      <trkpt lat="47.49835" lon="6.75719">
        <ele>352.2</ele>
        <time>2017-10-01T07:00:39Z</time>
      </trkpt>
      <trkpt lat="47.49824" lon="6.75723">
        <ele>351.1</ele>
        <time>2017-10-01T07:00:40Z</time>
      </trkpt>
      <trkpt lat="47.49813" lon="6.75727">
        <ele>349.8</ele>
        <time>2017-10-01T07:00:41Z</time>
      </trkpt>
      <trkpt lat="47.49804" lon="6.7573">
        <ele>349</ele>
        <time>2017-10-01T07:00:42Z</time>
      </trkpt>
      <trkpt lat="47.49794" lon="6.75733">
        <ele>347.9</ele>
        <time>2017-10-01T07:00:43Z</time>
      </trkpt>
      <trkpt lat="47.49783" lon="6.75739">
        <ele>346.6</ele>
        <time>2017-10-01T07:00:44Z</time>
      </trkpt>
      <trkpt lat="47.49771" lon="6.75743">
        <ele>345.4</ele>
        <time>2017-10-01T07:00:45Z</time>
      </trkpt>
      <trkpt lat="47.4976" lon="6.75748">
        <ele>344.6</ele>
        <time>2017-10-01T07:00:46Z</time>
      </trkpt>
      <trkpt lat="47.49749" lon="6.75753">
        <ele>344</ele>
        <time>2017-10-01T07:00:47Z</time>
      </trkpt>
      <trkpt lat="47.49739" lon="6.75757">
        <ele>343.6</ele>
        <time>2017-10-01T07:00:48Z</time>
      </trkpt>
      <trkpt lat="47.49729" lon="6.7576">
        <ele>343.2</ele>
        <time>2017-10-01T07:00:49Z</time>
      </trkpt>
      <trkpt lat="47.49719" lon="6.75763">
        <ele>342.8</ele>
        <time>2017-10-01T07:00:50Z</time>
      </trkpt>
      <trkpt lat="47.4971" lon="6.75766">
        <ele>342.3</ele>
        <time>2017-10-01T07:00:51Z</time>
      </trkpt>
      <trkpt lat="47.497" lon="6.75771">
        <ele>341.7</ele>
        <time>2017-10-01T07:00:52Z</time>
      </trkpt>
      <trkpt lat="47.49691" lon="6.75774">
        <ele>341.1</ele>
        <time>2017-10-01T07:00:53Z</time>
      </trkpt>
      <trkpt lat="47.49681" lon="6.75778">
        <ele>340.5</ele>
        <time>2017-10-01T07:00:54Z</time>
      </trkpt>
      <trkpt lat="47.49672" lon="6.75781">
        <ele>339.9</ele>
        <time>2017-10-01T07:00:55Z</time>
      </trkpt>
      <trkpt lat="47.49663" lon="6.75785">
        <ele>339.2</ele>
        <time>2017-10-01T07:00:56Z</time>
      </trkpt>
      <trkpt lat="47.49655" lon="6.75786">
        <ele>338.5</ele>
        <time>2017-10-01T07:00:57Z</time>
      </trkpt>
      <trkpt lat="47.49645" lon="6.75787">
        <ele>337.6</ele>
        <time>2017-10-01T07:00:58Z</time>
      </trkpt>
      <trkpt lat="47.49637" lon="6.75783">
        <ele>336.9</ele>
        <time>2017-10-01T07:00:59Z</time>
      </trkpt>
      <trkpt lat="47.49628" lon="6.75779">
        <ele>335.7</ele>
        <time>2017-10-01T07:01:00Z</time>
      </trkpt>
      <trkpt lat="47.49618" lon="6.75774">
        <ele>334.4</ele>
        <time>2017-10-01T07:01:01Z</time>
      </trkpt>
      <trkpt lat="47.49611" lon="6.75773">
        <ele>333.6</ele>
        <time>2017-10-01T07:01:02Z</time>
      </trkpt>
      <trkpt lat="47.49607" lon="6.75773">
        <ele>333.2</ele>
        <time>2017-10-01T07:01:03Z</time>
      </trkpt>
      <trkpt lat="47.49605" lon="6.75775">
        <ele>333.1</ele>
        <time>2017-10-01T07:01:04Z</time>
      </trkpt>
      <trkpt lat="47.49602" lon="6.75776">
        <ele>332.9</ele>
        <time>2017-10-01T07:01:05Z</time>
      </trkpt>
      <trkpt lat="47.496" lon="6.75777">
        <ele>332.7</ele>
        <time>2017-10-01T07:01:06Z</time>
      </trkpt>
      <trkpt lat="47.49598" lon="6.75777">
        <ele>332.6</ele>
        <time>2017-10-01T07:01:11Z</time>
      </trkpt>
      <trkpt lat="47.49595" lon="6.75778">
        <ele>332.4</ele>
        <time>2017-10-01T07:01:12Z</time>
      </trkpt>
      <trkpt lat="47.49586" lon="6.75778">
        <ele>331</ele>
        <time>2017-10-01T07:01:14Z</time>
      </trkpt>
      <trkpt lat="47.49578" lon="6.75774">
        <ele>329.3</ele>
        <time>2017-10-01T07:01:15Z</time>
      </trkpt>
      <trkpt lat="47.49571" lon="6.75771">
        <ele>327.5</ele>
        <time>2017-10-01T07:01:16Z</time>
      </trkpt>
      <trkpt lat="47.49566" lon="6.75769">
        <ele>326.3</ele>
        <time>2017-10-01T07:01:17Z</time>
      </trkpt>
      <trkpt lat="47.49562" lon="6.75765">
        <ele>325.3</ele>
        <time>2017-10-01T07:01:18Z</time>
      </trkpt>
      <trkpt lat="47.49559" lon="6.75762">
        <ele>324.2</ele>
        <time>2017-10-01T07:01:19Z</time>
      </trkpt>
      <trkpt lat="47.49555" lon="6.75759">
        <ele>322.7</ele>
        <time>2017-10-01T07:01:20Z</time>
      </trkpt>
      <trkpt lat="47.49553" lon="6.75756">
        <ele>321.7</ele>
        <time>2017-10-01T07:01:21Z</time>
      </trkpt>
      <trkpt lat="47.49553" lon="6.7575">
        <ele>321</ele>
        <time>2017-10-01T07:01:22Z</time>
      </trkpt>
      <trkpt lat="47.49552" lon="6.75744">
        <ele>321</ele>
        <time>2017-10-01T07:01:23Z</time>
      </trkpt>
      <trkpt lat="47.49556" lon="6.75741">
        <ele>321</ele>
        <time>2017-10-01T07:01:24Z</time>
      </trkpt>
      <trkpt lat="47.4956" lon="6.75738">
        <ele>321.1</ele>
        <time>2017-10-01T07:01:25Z</time>
      </trkpt>
      <trkpt lat="47.49564" lon="6.75735">
        <ele>321.4</ele>
        <time>2017-10-01T07:01:26Z</time>
      </trkpt>
      <trkpt lat="47.49569" lon="6.75733">
        <ele>321.1</ele>
        <time>2017-10-01T07:01:27Z</time>
      </trkpt>
      <trkpt lat="47.49573" lon="6.7573">
        <ele>320.4</ele>
        <time>2017-10-01T07:01:28Z</time>
      </trkpt>
      <trkpt lat="47.49578" lon="6.75727">
        <ele>320.5</ele>
        <time>2017-10-01T07:01:29Z</time>
      </trkpt>
      <trkpt lat="47.49582" lon="6.75722">
        <ele>320.7</ele>
        <time>2017-10-01T07:01:30Z</time>
      </trkpt>
      <trkpt lat="47.49586" lon="6.75715">
        <ele>320.5</ele>
        <time>2017-10-01T07:01:31Z</time>
      </trkpt>
      <trkpt lat="47.49589" lon="6.75708">
        <ele>320.4</ele>
        <time>2017-10-01T07:01:32Z</time>
      </trkpt>
      <trkpt lat="47.49592" lon="6.75701">
        <ele>320.5</ele>
        <time>2017-10-01T07:01:33Z</time>
      </trkpt>
      <trkpt lat="47.49594" lon="6.75693">
        <ele>321.2</ele>
        <time>2017-10-01T07:01:34Z</time>
      </trkpt>
      <trkpt lat="47.49593" lon="6.75685">
        <ele>321.3</ele>
        <time>2017-10-01T07:01:35Z</time>
      </trkpt>
      <trkpt lat="47.49589" lon="6.75678">
        <ele>321.5</ele>
        <time>2017-10-01T07:01:36Z</time>
      </trkpt>
      <trkpt lat="47.49584" lon="6.75673">
        <ele>321.7</ele>
        <time>2017-10-01T07:01:37Z</time>
      </trkpt>
      <trkpt lat="47.4958" lon="6.75667">
        <ele>321.8</ele>
        <time>2017-10-01T07:01:38Z</time>
      </trkpt>
      <trkpt lat="47.49576" lon="6.75665">
        <ele>321.9</ele>
        <time>2017-10-01T07:01:39Z</time>
      </trkpt>
      <trkpt lat="47.49571" lon="6.75665">
        <ele>321.9</ele>
        <time>2017-10-01T07:01:40Z</time>
      </trkpt>
      <trkpt lat="47.49567" lon="6.75668">
        <ele>321.7</ele>
        <time>2017-10-01T07:01:41Z</time>
      </trkpt>
      <trkpt lat="47.49563" lon="6.75674">
        <ele>321.6</ele>
        <time>2017-10-01T07:01:42Z</time>
      </trkpt>
      <trkpt lat="47.49559" lon="6.75681">
        <ele>321.4</ele>
        <time>2017-10-01T07:01:43Z</time>
      </trkpt>
      <trkpt lat="47.49556" lon="6.75687">
        <ele>321.2</ele>
        <time>2017-10-01T07:01:44Z</time>
      </trkpt>
      <trkpt lat="47.49552" lon="6.75693">
        <ele>321</ele>
        <time>2017-10-01T07:01:45Z</time>
      </trkpt>
      <trkpt lat="47.49548" lon="6.75699">
        <ele>320.9</ele>
        <time>2017-10-01T07:01:46Z</time>
      </trkpt>
      <trkpt lat="47.49544" lon="6.75704">
        <ele>320.7</ele>
        <time>2017-10-01T07:01:47Z</time>
      </trkpt>
      <trkpt lat="47.4954" lon="6.75709">
        <ele>320.6</ele>
        <time>2017-10-01T07:01:48Z</time>
      </trkpt>
      <trkpt lat="47.49536" lon="6.75712">
        <ele>320.4</ele>
        <time>2017-10-01T07:01:49Z</time>
      </trkpt>
      <trkpt lat="47.49532" lon="6.75715">
        <ele>320.3</ele>
        <time>2017-10-01T07:01:50Z</time>
      </trkpt>
      <trkpt lat="47.49528" lon="6.75719">
        <ele>320.2</ele>
        <time>2017-10-01T07:01:51Z</time>
      </trkpt>
      <trkpt lat="47.49524" lon="6.75722">
        <ele>320</ele>
        <time>2017-10-01T07:01:52Z</time>
      </trkpt>
      <trkpt lat="47.4952" lon="6.75725">
        <ele>319.9</ele>
        <time>2017-10-01T07:01:53Z</time>
      </trkpt>
      <trkpt lat="47.49515" lon="6.75728">
        <ele>319.8</ele>
        <time>2017-10-01T07:01:54Z</time>
      </trkpt>
      <trkpt lat="47.49511" lon="6.75731">
        <ele>319.7</ele>
        <time>2017-10-01T07:01:55Z</time>
      </trkpt>
      <trkpt lat="47.49506" lon="6.75733">
        <ele>319.6</ele>
        <time>2017-10-01T07:01:56Z</time>
      </trkpt>
      <trkpt lat="47.49502" lon="6.75735">
        <ele>319.5</ele>
        <time>2017-10-01T07:01:57Z</time>
      </trkpt>
      <trkpt lat="47.49498" lon="6.75737">
        <ele>319.4</ele>
        <time>2017-10-01T07:01:58Z</time>
      </trkpt>
      <trkpt lat="47.49493" lon="6.7574">
        <ele>319.3</ele>
        <time>2017-10-01T07:01:59Z</time>
      </trkpt>
      <trkpt lat="47.49489" lon="6.75741">
        <ele>319.2</ele>
        <time>2017-10-01T07:02:00Z</time>
      </trkpt>
      <trkpt lat="47.49484" lon="6.7574">
        <ele>319.1</ele>
        <time>2017-10-01T07:02:01Z</time>
      </trkpt>
      <trkpt lat="47.4948" lon="6.75737">
        <ele>319</ele>
        <time>2017-10-01T07:02:02Z</time>
      </trkpt>
      <trkpt lat="47.49477" lon="6.75733">
        <ele>319</ele>
        <time>2017-10-01T07:02:03Z</time>
      </trkpt>
      <trkpt lat="47.49474" lon="6.75726">
        <ele>319</ele>
        <time>2017-10-01T07:02:04Z</time>
      </trkpt>
      <trkpt lat="47.49472" lon="6.7572">
        <ele>319</ele>
        <time>2017-10-01T07:02:05Z</time>
      </trkpt>
      <trkpt lat="47.4947" lon="6.75714">
        <ele>319</ele>
        <time>2017-10-01T07:02:06Z</time>
      </trkpt>
      <trkpt lat="47.49468" lon="6.75708">
        <ele>319</ele>
        <time>2017-10-01T07:02:07Z</time>
      </trkpt>
      <trkpt lat="47.49466" lon="6.75702">
        <ele>319</ele>
        <time>2017-10-01T07:02:08Z</time>
      </trkpt>
      <trkpt lat="47.49463" lon="6.75699">
        <ele>319</ele>
        <time>2017-10-01T07:02:09Z</time>
      </trkpt>
      <trkpt lat="47.4946" lon="6.75695">
        <ele>319</ele>
        <time>2017-10-01T07:02:10Z</time>
      </trkpt>
      <trkpt lat="47.49457" lon="6.75694">
        <ele>319</ele>
        <time>2017-10-01T07:02:11Z</time>
      </trkpt>
      <trkpt lat="47.49454" lon="6.75696">
        <ele>319</ele>
        <time>2017-10-01T07:02:12Z</time>
      </trkpt>
      <trkpt lat="47.49451" lon="6.75697">
        <ele>319</ele>
        <time>2017-10-01T07:02:13Z</time>
      </trkpt>
      <trkpt lat="47.49447" lon="6.757">
        <ele>319</ele>
        <time>2017-10-01T07:02:14Z</time>
      </trkpt>
      <trkpt lat="47.49445" lon="6.75699">
        <ele>319</ele>
        <time>2017-10-01T07:02:15Z</time>
      </trkpt>
      <trkpt lat="47.49442" lon="6.75696">
        <ele>318.9</ele>
        <time>2017-10-01T07:02:16Z</time>
      </trkpt>
      <trkpt lat="47.49441" lon="6.75692">
        <ele>318.9</ele>
        <time>2017-10-01T07:02:17Z</time>
      </trkpt>
      <trkpt lat="47.4944" lon="6.75687">
        <ele>318.8</ele>
        <time>2017-10-01T07:02:18Z</time>
      </trkpt>
      <trkpt lat="47.49439" lon="6.75682">
        <ele>318.8</ele>
        <time>2017-10-01T07:02:19Z</time>
      </trkpt>
      <trkpt lat="47.49438" lon="6.75678">
        <ele>318.7</ele>
        <time>2017-10-01T07:02:20Z</time>
      </trkpt>
      <trkpt lat="47.49437" lon="6.75674">
        <ele>318.6</ele>
        <time>2017-10-01T07:02:21Z</time>
      </trkpt>
      <trkpt lat="47.49435" lon="6.7567">
        <ele>318.6</ele>
        <time>2017-10-01T07:02:22Z</time>
      </trkpt>
      <trkpt lat="47.49429" lon="6.75668">
        <ele>318.5</ele>
        <time>2017-10-01T07:02:23Z</time>
      </trkpt>
      <trkpt lat="47.49425" lon="6.75671">
        <ele>318.5</ele>
        <time>2017-10-01T07:02:24Z</time>
      </trkpt>
      <trkpt lat="47.49422" lon="6.75675">
        <ele>318.5</ele>
        <time>2017-10-01T07:02:25Z</time>
      </trkpt>
      <trkpt lat="47.49419" lon="6.75677">
        <ele>318.5</ele>
        <time>2017-10-01T07:02:26Z</time>
      </trkpt>
      <trkpt lat="47.49417" lon="6.75679">
        <ele>318.4</ele>
        <time>2017-10-01T07:02:27Z</time>
      </trkpt>
      <trkpt lat="47.49414" lon="6.75682">
        <ele>318.4</ele>
        <time>2017-10-01T07:02:28Z</time>
      </trkpt>
      <trkpt lat="47.49411" lon="6.75685">
        <ele>318.4</ele>
        <time>2017-10-01T07:02:29Z</time>
      </trkpt>
      <trkpt lat="47.49406" lon="6.75688">
        <ele>318.4</ele>
        <time>2017-10-01T07:02:30Z</time>
      </trkpt>
      <trkpt lat="47.49402" lon="6.75689">
        <ele>318.3</ele>
        <time>2017-10-01T07:02:31Z</time>
      </trkpt>
      <trkpt lat="47.49397" lon="6.75693">
        <ele>318.3</ele>
        <time>2017-10-01T07:02:32Z</time>
      </trkpt>
      <trkpt lat="47.49392" lon="6.75697">
        <ele>318.3</ele>
        <time>2017-10-01T07:02:33Z</time>
      </trkpt>
      <trkpt lat="47.49388" lon="6.757">
        <ele>318.2</ele>
        <time>2017-10-01T07:02:34Z</time>
      </trkpt>
      <trkpt lat="47.49384" lon="6.75702">
        <ele>318.2</ele>
        <time>2017-10-01T07:02:35Z</time>
      </trkpt>
      <trkpt lat="47.49379" lon="6.75706">
        <ele>318.2</ele>
        <time>2017-10-01T07:02:36Z</time>
      </trkpt>
      <trkpt lat="47.49375" lon="6.75709">
        <ele>318.2</ele>
        <time>2017-10-01T07:02:37Z</time>
      </trkpt>
      <trkpt lat="47.49371" lon="6.75712">
        <ele>318.1</ele>
        <time>2017-10-01T07:02:38Z</time>
      </trkpt>
      <trkpt lat="47.49367" lon="6.75714">
        <ele>318.1</ele>
        <time>2017-10-01T07:02:39Z</time>
      </trkpt>
      <trkpt lat="47.49364" lon="6.75716">
        <ele>318.1</ele>
        <time>2017-10-01T07:02:40Z</time>
      </trkpt>
      <trkpt lat="47.49362" lon="6.75717">
        <ele>318</ele>
        <time>2017-10-01T07:02:41Z</time>
      </trkpt>
      <trkpt lat="47.4936" lon="6.7572">
        <ele>318</ele>
        <time>2017-10-01T07:02:42Z</time>
      </trkpt>
      <trkpt lat="47.49356" lon="6.75723">
        <ele>318</ele>
        <time>2017-10-01T07:02:43Z</time>
      </trkpt>
      <trkpt lat="47.49352" lon="6.75723">
        <ele>317.9</ele>
        <time>2017-10-01T07:02:44Z</time>
      </trkpt>
      <trkpt lat="47.49349" lon="6.75724">
        <ele>317.9</ele>
        <time>2017-10-01T07:02:45Z</time>
      </trkpt>
      <trkpt lat="47.49344" lon="6.75724">
        <ele>317.8</ele>
        <time>2017-10-01T07:02:46Z</time>
      </trkpt>
      <trkpt lat="47.49338" lon="6.75727">
        <ele>317.7</ele>
        <time>2017-10-01T07:02:47Z</time>
      </trkpt>
      <trkpt lat="47.49334" lon="6.7573">
        <ele>317.6</ele>
        <time>2017-10-01T07:02:48Z</time>
      </trkpt>
      <trkpt lat="47.49328" lon="6.75734">
        <ele>317.6</ele>
        <time>2017-10-01T07:02:49Z</time>
      </trkpt>
      <trkpt lat="47.49322" lon="6.75739">
        <ele>317.6</ele>
        <time>2017-10-01T07:02:50Z</time>
      </trkpt>
      <trkpt lat="47.49316" lon="6.75744">
        <ele>317.6</ele>
        <time>2017-10-01T07:02:51Z</time>
      </trkpt>
      <trkpt lat="47.49311" lon="6.75749">
        <ele>317.6</ele>
        <time>2017-10-01T07:02:52Z</time>
      </trkpt>
      <trkpt lat="47.49308" lon="6.75753">
        <ele>317.6</ele>
        <time>2017-10-01T07:02:53Z</time>
      </trkpt>
      <trkpt lat="47.49304" lon="6.75758">
        <ele>317.6</ele>
        <time>2017-10-01T07:02:54Z</time>
      </trkpt>
      <trkpt lat="47.49299" lon="6.75764">
        <ele>317.7</ele>
        <time>2017-10-01T07:02:55Z</time>
      </trkpt>
      <trkpt lat="47.49295" lon="6.75771">
        <ele>317.7</ele>
        <time>2017-10-01T07:02:56Z</time>
      </trkpt>
      <trkpt lat="47.49291" lon="6.75777">
        <ele>317.7</ele>
        <time>2017-10-01T07:02:57Z</time>
      </trkpt>
      <trkpt lat="47.49286" lon="6.75784">
        <ele>317.8</ele>
        <time>2017-10-01T07:02:58Z</time>
      </trkpt>
      <trkpt lat="47.49281" lon="6.7579">
        <ele>317.9</ele>
        <time>2017-10-01T07:02:59Z</time>
      </trkpt>
      <trkpt lat="47.49277" lon="6.75797">
        <ele>317.9</ele>
        <time>2017-10-01T07:03:00Z</time>
      </trkpt>
      <trkpt lat="47.49273" lon="6.75805">
        <ele>318</ele>
        <time>2017-10-01T07:03:01Z</time>
      </trkpt>
      <trkpt lat="47.49268" lon="6.75813">
        <ele>318</ele>
        <time>2017-10-01T07:03:02Z</time>
      </trkpt>
      <trkpt lat="47.49264" lon="6.7582">
        <ele>318.1</ele>
        <time>2017-10-01T07:03:03Z</time>
      </trkpt>
      <trkpt lat="47.4926" lon="6.75827">
        <ele>318.2</ele>
        <time>2017-10-01T07:03:04Z</time>
      </trkpt>
      <trkpt lat="47.49256" lon="6.75833">
        <ele>318.2</ele>
        <time>2017-10-01T07:03:05Z</time>
      </trkpt>
      <trkpt lat="47.49253" lon="6.7584">
        <ele>318.3</ele>
        <time>2017-10-01T07:03:06Z</time>
      </trkpt>
      <trkpt lat="47.4925" lon="6.75847">
        <ele>318.3</ele>
        <time>2017-10-01T07:03:07Z</time>
      </trkpt>
      <trkpt lat="47.49247" lon="6.75853">
        <ele>318.4</ele>
        <time>2017-10-01T07:03:08Z</time>
      </trkpt>
      <trkpt lat="47.49244" lon="6.7586">
        <ele>318.4</ele>
        <time>2017-10-01T07:03:09Z</time>
      </trkpt>
      <trkpt lat="47.4924" lon="6.75868">
        <ele>318.5</ele>
        <time>2017-10-01T07:03:10Z</time>
      </trkpt>
      <trkpt lat="47.49235" lon="6.75877">
        <ele>318.5</ele>
        <time>2017-10-01T07:03:11Z</time>
      </trkpt>
      <trkpt lat="47.49231" lon="6.75885">
        <ele>318.6</ele>
        <time>2017-10-01T07:03:12Z</time>
      </trkpt>
      <trkpt lat="47.49227" lon="6.75894">
        <ele>318.7</ele>
        <time>2017-10-01T07:03:13Z</time>
      </trkpt>
      <trkpt lat="47.49222" lon="6.75903">
        <ele>318.7</ele>
        <time>2017-10-01T07:03:14Z</time>
      </trkpt>
      <trkpt lat="47.49218" lon="6.75911">
        <ele>318.8</ele>
        <time>2017-10-01T07:03:15Z</time>
      </trkpt>
      <trkpt lat="47.49214" lon="6.75919">
        <ele>318.8</ele>
        <time>2017-10-01T07:03:16Z</time>
      </trkpt>
      <trkpt lat="47.4921" lon="6.75926">
        <ele>318.9</ele>
        <time>2017-10-01T07:03:17Z</time>
      </trkpt>
      <trkpt lat="47.49207" lon="6.75934">
        <ele>318.9</ele>
        <time>2017-10-01T07:03:18Z</time>
      </trkpt>
      <trkpt lat="47.49204" lon="6.7594">
        <ele>319</ele>
        <time>2017-10-01T07:03:19Z</time>
      </trkpt>
      <trkpt lat="47.49201" lon="6.75947">
        <ele>319</ele>
        <time>2017-10-01T07:03:20Z</time>
      </trkpt>
      <trkpt lat="47.49197" lon="6.75954">
        <ele>319.1</ele>
        <time>2017-10-01T07:03:21Z</time>
      </trkpt>
      <trkpt lat="47.49193" lon="6.75962">
        <ele>319.1</ele>
        <time>2017-10-01T07:03:22Z</time>
      </trkpt>
      <trkpt lat="47.4919" lon="6.7597">
        <ele>319.1</ele>
        <time>2017-10-01T07:03:23Z</time>
      </trkpt>
      <trkpt lat="47.49187" lon="6.75976">
        <ele>319.2</ele>
        <time>2017-10-01T07:03:24Z</time>
      </trkpt>
      <trkpt lat="47.49183" lon="6.75984">
        <ele>319.2</ele>
        <time>2017-10-01T07:03:25Z</time>
      </trkpt>
      <trkpt lat="47.4918" lon="6.75992">
        <ele>319.3</ele>
        <time>2017-10-01T07:03:26Z</time>
      </trkpt>
      <trkpt lat="47.49177" lon="6.75999">
        <ele>319.3</ele>
        <time>2017-10-01T07:03:27Z</time>
      </trkpt>
      <trkpt lat="47.49174" lon="6.76007">
        <ele>319.3</ele>
        <time>2017-10-01T07:03:28Z</time>
      </trkpt>
      <trkpt lat="47.4917" lon="6.76014">
        <ele>319.4</ele>
        <time>2017-10-01T07:03:29Z</time>
      </trkpt>
      <trkpt lat="47.49168" lon="6.76021">
        <ele>319.4</ele>
        <time>2017-10-01T07:03:30Z</time>
      </trkpt>
      <trkpt lat="47.49165" lon="6.76028">
        <ele>319.4</ele>
        <time>2017-10-01T07:03:31Z</time>
      </trkpt>
      <trkpt lat="47.49163" lon="6.76035">
        <ele>319.5</ele>
        <time>2017-10-01T07:03:32Z</time>
      </trkpt>
      <trkpt lat="47.4916" lon="6.76042">
        <ele>319.5</ele>
        <time>2017-10-01T07:03:33Z</time>
      </trkpt>
      <trkpt lat="47.49158" lon="6.76049">
        <ele>319.5</ele>
        <time>2017-10-01T07:03:34Z</time>
      </trkpt>
      <trkpt lat="47.49155" lon="6.76058">
        <ele>319.5</ele>
        <time>2017-10-01T07:03:35Z</time>
      </trkpt>
      <trkpt lat="47.49153" lon="6.76066">
        <ele>319.6</ele>
        <time>2017-10-01T07:03:36Z</time>
      </trkpt>
      <trkpt lat="47.49151" lon="6.76073">
        <ele>319.6</ele>
        <time>2017-10-01T07:03:37Z</time>
      </trkpt>
      <trkpt lat="47.49148" lon="6.76082">
        <ele>319.6</ele>
        <time>2017-10-01T07:03:38Z</time>
      </trkpt>
      <trkpt lat="47.49146" lon="6.76089">
        <ele>319.6</ele>
        <time>2017-10-01T07:03:39Z</time>
      </trkpt>
      <trkpt lat="47.49144" lon="6.76097">
        <ele>319.6</ele>
        <time>2017-10-01T07:03:40Z</time>
      </trkpt>
      <trkpt lat="47.49143" lon="6.76105">
        <ele>319.6</ele>
        <time>2017-10-01T07:03:41Z</time>
      </trkpt>
      <trkpt lat="47.49141" lon="6.76112">
        <ele>319.6</ele>
        <time>2017-10-01T07:03:42Z</time>
      </trkpt>
      <trkpt lat="47.4914" lon="6.7612">
        <ele>319.6</ele>
        <time>2017-10-01T07:03:43Z</time>
      </trkpt>
      <trkpt lat="47.49138" lon="6.76128">
        <ele>319.6</ele>
        <time>2017-10-01T07:03:44Z</time>
      </trkpt>
      <trkpt lat="47.49137" lon="6.76136">
        <ele>319.6</ele>
        <time>2017-10-01T07:03:45Z</time>
      </trkpt>
      <trkpt lat="47.49135" lon="6.76145">
        <ele>319.6</ele>
        <time>2017-10-01T07:03:46Z</time>
      </trkpt>
      <trkpt lat="47.49133" lon="6.76154">
        <ele>319.5</ele>
        <time>2017-10-01T07:03:47Z</time>
      </trkpt>
      <trkpt lat="47.49131" lon="6.76162">
        <ele>319.5</ele>
        <time>2017-10-01T07:03:48Z</time>
      </trkpt>
      <trkpt lat="47.49129" lon="6.76171">
        <ele>319.3</ele>
        <time>2017-10-01T07:03:49Z</time>
      </trkpt>
      <trkpt lat="47.49129" lon="6.76178">
        <ele>319.3</ele>
        <time>2017-10-01T07:03:50Z</time>
      </trkpt>
      <trkpt lat="47.49128" lon="6.76185">
        <ele>319.3</ele>
        <time>2017-10-01T07:03:51Z</time>
      </trkpt>
      <trkpt lat="47.49127" lon="6.76193">
        <ele>319.3</ele>
        <time>2017-10-01T07:03:52Z</time>
      </trkpt>
      <trkpt lat="47.49127" lon="6.76203">
        <ele>319.3</ele>
        <time>2017-10-01T07:03:53Z</time>
      </trkpt>
      <trkpt lat="47.49128" lon="6.76211">
        <ele>319.4</ele>
        <time>2017-10-01T07:03:54Z</time>
      </trkpt>
      <trkpt lat="47.49127" lon="6.76217">
        <ele>319.4</ele>
        <time>2017-10-01T07:03:55Z</time>
      </trkpt>
      <trkpt lat="47.49126" lon="6.76225">
        <ele>319.5</ele>
        <time>2017-10-01T07:03:56Z</time>
      </trkpt>
      <trkpt lat="47.49125" lon="6.76232">
        <ele>319.6</ele>
        <time>2017-10-01T07:03:57Z</time>
      </trkpt>
      <trkpt lat="47.49124" lon="6.76239">
        <ele>319.7</ele>
        <time>2017-10-01T07:03:58Z</time>
      </trkpt>
      <trkpt lat="47.49124" lon="6.76246">
        <ele>319.8</ele>
        <time>2017-10-01T07:03:59Z</time>
      </trkpt>
      <trkpt lat="47.49123" lon="6.76253">
        <ele>319.8</ele>
        <time>2017-10-01T07:04:00Z</time>
      </trkpt>
      <trkpt lat="47.49123" lon="6.7626">
        <ele>319.9</ele>
        <time>2017-10-01T07:04:01Z</time>
      </trkpt>
      <trkpt lat="47.49122" lon="6.7627">
        <ele>319.9</ele>
        <time>2017-10-01T07:04:02Z</time>
      </trkpt>
      <trkpt lat="47.49121" lon="6.76278">
        <ele>320</ele>
        <time>2017-10-01T07:04:03Z</time>
      </trkpt>
      <trkpt lat="47.4912" lon="6.76286">
        <ele>320.1</ele>
        <time>2017-10-01T07:04:04Z</time>
      </trkpt>
      <trkpt lat="47.49119" lon="6.76296">
        <ele>320.2</ele>
        <time>2017-10-01T07:04:05Z</time>
      </trkpt>
      <trkpt lat="47.49118" lon="6.76305">
        <ele>320.2</ele>
        <time>2017-10-01T07:04:06Z</time>
      </trkpt>
      <trkpt lat="47.49117" lon="6.76314">
        <ele>320.3</ele>
        <time>2017-10-01T07:04:07Z</time>
      </trkpt>
      <trkpt lat="47.49116" lon="6.76323">
        <ele>320.3</ele>
        <time>2017-10-01T07:04:08Z</time>
      </trkpt>
      <trkpt lat="47.49115" lon="6.7633">
        <ele>320.4</ele>
        <time>2017-10-01T07:04:09Z</time>
      </trkpt>
      <trkpt lat="47.49115" lon="6.76339">
        <ele>320.4</ele>
        <time>2017-10-01T07:04:10Z</time>
      </trkpt>
      <trkpt lat="47.49115" lon="6.76347">
        <ele>320.5</ele>
        <time>2017-10-01T07:04:11Z</time>
      </trkpt>
      <trkpt lat="47.49115" lon="6.76356">
        <ele>320.6</ele>
        <time>2017-10-01T07:04:12Z</time>
      </trkpt>
      <trkpt lat="47.49115" lon="6.76365">
        <ele>320.6</ele>
        <time>2017-10-01T07:04:13Z</time>
      </trkpt>
      <trkpt lat="47.49115" lon="6.76374">
        <ele>320.7</ele>
        <time>2017-10-01T07:04:14Z</time>
      </trkpt>
      <trkpt lat="47.49114" lon="6.76383">
        <ele>320.7</ele>
        <time>2017-10-01T07:04:15Z</time>
      </trkpt>
      <trkpt lat="47.49114" lon="6.76391">
        <ele>320.7</ele>
        <time>2017-10-01T07:04:16Z</time>
      </trkpt>
      <trkpt lat="47.49114" lon="6.76399">
        <ele>320.8</ele>
        <time>2017-10-01T07:04:17Z</time>
      </trkpt>
      <trkpt lat="47.49114" lon="6.76408">
        <ele>320.9</ele>
        <time>2017-10-01T07:04:18Z</time>
      </trkpt>
      <trkpt lat="47.49114" lon="6.76416">
        <ele>320.9</ele>
        <time>2017-10-01T07:04:19Z</time>
      </trkpt>
      <trkpt lat="47.49114" lon="6.76424">
        <ele>321</ele>
        <time>2017-10-01T07:04:20Z</time>
      </trkpt>
      <trkpt lat="47.49113" lon="6.76431">
        <ele>320.9</ele>
        <time>2017-10-01T07:04:21Z</time>
      </trkpt>
      <trkpt lat="47.49113" lon="6.76437">
        <ele>320.8</ele>
        <time>2017-10-01T07:04:22Z</time>
      </trkpt>
      <trkpt lat="47.49112" lon="6.76445">
        <ele>320.5</ele>
        <time>2017-10-01T07:04:23Z</time>
      </trkpt>
      <trkpt lat="47.49111" lon="6.76453">
        <ele>320.4</ele>
        <time>2017-10-01T07:04:24Z</time>
      </trkpt>
      <trkpt lat="47.49111" lon="6.7646">
        <ele>320.2</ele>
        <time>2017-10-01T07:04:25Z</time>
      </trkpt>
      <trkpt lat="47.4911" lon="6.76466">
        <ele>320.1</ele>
        <time>2017-10-01T07:04:26Z</time>
      </trkpt>
      <trkpt lat="47.49109" lon="6.76472">
        <ele>320</ele>
        <time>2017-10-01T07:04:27Z</time>
      </trkpt>
      <trkpt lat="47.49109" lon="6.76479">
        <ele>319.9</ele>
        <time>2017-10-01T07:04:28Z</time>
      </trkpt>
      <trkpt lat="47.4911" lon="6.76487">
        <ele>319.9</ele>
        <time>2017-10-01T07:04:29Z</time>
      </trkpt>
      <trkpt lat="47.49111" lon="6.76494">
        <ele>319.8</ele>
        <time>2017-10-01T07:04:30Z</time>
      </trkpt>
      <trkpt lat="47.49114" lon="6.76501">
        <ele>319.7</ele>
        <time>2017-10-01T07:04:31Z</time>
      </trkpt>
      <trkpt lat="47.49118" lon="6.76504">
        <ele>319.6</ele>
        <time>2017-10-01T07:04:32Z</time>
      </trkpt>
      <trkpt lat="47.49125" lon="6.76502">
        <ele>319.2</ele>
        <time>2017-10-01T07:04:33Z</time>
      </trkpt>
      <trkpt lat="47.4913" lon="6.76501">
        <ele>318.8</ele>
        <time>2017-10-01T07:04:34Z</time>
      </trkpt>
      <trkpt lat="47.49136" lon="6.76502">
        <ele>318.3</ele>
        <time>2017-10-01T07:04:35Z</time>
      </trkpt>
      <trkpt lat="47.49141" lon="6.765">
        <ele>317.8</ele>
        <time>2017-10-01T07:04:36Z</time>
      </trkpt>
      <trkpt lat="47.49147" lon="6.76499">
        <ele>317.2</ele>
        <time>2017-10-01T07:04:37Z</time>
      </trkpt>
      <trkpt lat="47.49151" lon="6.76498">
        <ele>317</ele>
        <time>2017-10-01T07:04:38Z</time>
      </trkpt>
      <trkpt lat="47.49157" lon="6.76498">
        <ele>316.4</ele>
        <time>2017-10-01T07:04:39Z</time>
      </trkpt>
      <trkpt lat="47.49162" lon="6.76501">
        <ele>316</ele>
        <time>2017-10-01T07:04:40Z</time>
      </trkpt>
      <trkpt lat="47.49165" lon="6.76501">
        <ele>316</ele>
        <time>2017-10-01T07:04:41Z</time>
      </trkpt>
      <trkpt lat="47.49169" lon="6.765">
        <ele>316.1</ele>
        <time>2017-10-01T07:04:42Z</time>
      </trkpt>
      <trkpt lat="47.49172" lon="6.765">
        <ele>316.4</ele>
        <time>2017-10-01T07:04:43Z</time>
      </trkpt>
      <trkpt lat="47.49174" lon="6.765">
        <ele>316.5</ele>
        <time>2017-10-01T07:04:44Z</time>
      </trkpt>
      <trkpt lat="47.49174" lon="6.76501">
        <ele>316.7</ele>
        <time>2017-10-01T07:05:08Z</time>
      </trkpt>
      <trkpt lat="47.49172" lon="6.76503">
        <ele>316.8</ele>
        <time>2017-10-01T07:05:09Z</time>
      </trkpt>
      <trkpt lat="47.49163" lon="6.76509">
        <ele>316.8</ele>
        <time>2017-10-01T07:05:11Z</time>
      </trkpt>
      <trkpt lat="47.4916" lon="6.76511">
        <ele>317.1</ele>
        <time>2017-10-01T07:05:12Z</time>
      </trkpt>
      <trkpt lat="47.49157" lon="6.76513">
        <ele>317.7</ele>
        <time>2017-10-01T07:05:13Z</time>
      </trkpt>
      <trkpt lat="47.49152" lon="6.76516">
        <ele>317.9</ele>
        <time>2017-10-01T07:05:14Z</time>
      </trkpt>
      <trkpt lat="47.49148" lon="6.76518">
        <ele>318.4</ele>
        <time>2017-10-01T07:05:15Z</time>
      </trkpt>
      <trkpt lat="47.49143" lon="6.76521">
        <ele>319.3</ele>
        <time>2017-10-01T07:05:16Z</time>
      </trkpt>
      <trkpt lat="47.49138" lon="6.76522">
        <ele>319.5</ele>
        <time>2017-10-01T07:05:17Z</time>
      </trkpt>
      <trkpt lat="47.49133" lon="6.76522">
        <ele>319.4</ele>
        <time>2017-10-01T07:05:18Z</time>
      </trkpt>
      <trkpt lat="47.4913" lon="6.76522">
        <ele>319.4</ele>
        <time>2017-10-01T07:05:19Z</time>
      </trkpt>
      <trkpt lat="47.49126" lon="6.76523">
        <ele>319.3</ele>
        <time>2017-10-01T07:05:20Z</time>
      </trkpt>
      <trkpt lat="47.49124" lon="6.76526">
        <ele>319.2</ele>
        <time>2017-10-01T07:05:21Z</time>
      </trkpt>
      <trkpt lat="47.49123" lon="6.76532">
        <ele>319.2</ele>
        <time>2017-10-01T07:05:22Z</time>
      </trkpt>
      <trkpt lat="47.49122" lon="6.76536">
        <ele>319.1</ele>
        <time>2017-10-01T07:05:23Z</time>
      </trkpt>
      <trkpt lat="47.49122" lon="6.76542">
        <ele>319.1</ele>
        <time>2017-10-01T07:05:24Z</time>
      </trkpt>
      <trkpt lat="47.49122" lon="6.76548">
        <ele>319</ele>
        <time>2017-10-01T07:05:25Z</time>
      </trkpt>
      <trkpt lat="47.49123" lon="6.76554">
        <ele>319</ele>
        <time>2017-10-01T07:05:26Z</time>
      </trkpt>
      <trkpt lat="47.49124" lon="6.76561">
        <ele>318.9</ele>
        <time>2017-10-01T07:05:27Z</time>
      </trkpt>
      <trkpt lat="47.49125" lon="6.76568">
        <ele>318.8</ele>
        <time>2017-10-01T07:05:28Z</time>
      </trkpt>
      <trkpt lat="47.49125" lon="6.76573">
        <ele>318.8</ele>
        <time>2017-10-01T07:05:29Z</time>
      </trkpt>
      <trkpt lat="47.49126" lon="6.76579">
        <ele>318.6</ele>
        <time>2017-10-01T07:05:30Z</time>
      </trkpt>
      <trkpt lat="47.49126" lon="6.76585">
        <ele>318.5</ele>
        <time>2017-10-01T07:05:31Z</time>
      </trkpt>
      <trkpt lat="47.49128" lon="6.76591">
        <ele>318.4</ele>
        <time>2017-10-01T07:05:32Z</time>
      </trkpt>
      <trkpt lat="47.49129" lon="6.76599">
        <ele>318.3</ele>
        <time>2017-10-01T07:05:33Z</time>
      </trkpt>
      <trkpt lat="47.4913" lon="6.76606">
        <ele>318.2</ele>
        <time>2017-10-01T07:05:34Z</time>
      </trkpt>
      <trkpt lat="47.49131" lon="6.76614">
        <ele>318.1</ele>
        <time>2017-10-01T07:05:35Z</time>
      </trkpt>
      <trkpt lat="47.49132" lon="6.7662">
        <ele>318</ele>
        <time>2017-10-01T07:05:36Z</time>
      </trkpt>
      <trkpt lat="47.49132" lon="6.76626">
        <ele>318</ele>
        <time>2017-10-01T07:05:37Z</time>
      </trkpt>
      <trkpt lat="47.49133" lon="6.7663">
        <ele>317.9</ele>
        <time>2017-10-01T07:05:38Z</time>
      </trkpt>
      <trkpt lat="47.49134" lon="6.76637">
        <ele>317.8</ele>
        <time>2017-10-01T07:05:39Z</time>
      </trkpt>
      <trkpt lat="47.49135" lon="6.76643">
        <ele>317.7</ele>
        <time>2017-10-01T07:05:40Z</time>
      </trkpt>
      <trkpt lat="47.49135" lon="6.7665">
        <ele>317.6</ele>
        <time>2017-10-01T07:05:41Z</time>
      </trkpt>
      <trkpt lat="47.49136" lon="6.76657">
        <ele>317.5</ele>
        <time>2017-10-01T07:05:42Z</time>
      </trkpt>
      <trkpt lat="47.49137" lon="6.76663">
        <ele>317.4</ele>
        <time>2017-10-01T07:05:43Z</time>
      </trkpt>
      <trkpt lat="47.49137" lon="6.7667">
        <ele>317.2</ele>
        <time>2017-10-01T07:05:44Z</time>
      </trkpt>
      <trkpt lat="47.49137" lon="6.76676">
        <ele>317.1</ele>
        <time>2017-10-01T07:05:45Z</time>
      </trkpt>
      <trkpt lat="47.49138" lon="6.76682">
        <ele>316.9</ele>
        <time>2017-10-01T07:05:46Z</time>
      </trkpt>
      <trkpt lat="47.49138" lon="6.7669">
        <ele>316.8</ele>
        <time>2017-10-01T07:05:47Z</time>
      </trkpt>
      <trkpt lat="47.49138" lon="6.76696">
        <ele>316.5</ele>
        <time>2017-10-01T07:05:48Z</time>
      </trkpt>
      <trkpt lat="47.49139" lon="6.76703">
        <ele>316.1</ele>
        <time>2017-10-01T07:05:49Z</time>
      </trkpt>
      <trkpt lat="47.4914" lon="6.76709">
        <ele>315.8</ele>
        <time>2017-10-01T07:05:50Z</time>
      </trkpt>
      <trkpt lat="47.4914" lon="6.76715">
        <ele>315.5</ele>
        <time>2017-10-01T07:05:51Z</time>
      </trkpt>
      <trkpt lat="47.49141" lon="6.76721">
        <ele>315.1</ele>
        <time>2017-10-01T07:05:52Z</time>
      </trkpt>
      <trkpt lat="47.49142" lon="6.76728">
        <ele>314.8</ele>
        <time>2017-10-01T07:05:53Z</time>
      </trkpt>
      <trkpt lat="47.49143" lon="6.76735">
        <ele>314.5</ele>
        <time>2017-10-01T07:05:54Z</time>
      </trkpt>
      <trkpt lat="47.49144" lon="6.76743">
        <ele>314.4</ele>
        <time>2017-10-01T07:05:55Z</time>
      </trkpt>
      <trkpt lat="47.49145" lon="6.76749">
        <ele>314.2</ele>
        <time>2017-10-01T07:05:56Z</time>
      </trkpt>
      <trkpt lat="47.49145" lon="6.76756">
        <ele>314.1</ele>
        <time>2017-10-01T07:05:57Z</time>
      </trkpt>
      <trkpt lat="47.49146" lon="6.76763">
        <ele>314</ele>
        <time>2017-10-01T07:05:58Z</time>
      </trkpt>
      <trkpt lat="47.49147" lon="6.7677">
        <ele>313.9</ele>
        <time>2017-10-01T07:05:59Z</time>
      </trkpt>
      <trkpt lat="47.49147" lon="6.76777">
        <ele>313.8</ele>
        <time>2017-10-01T07:06:00Z</time>
      </trkpt>
      <trkpt lat="47.49148" lon="6.76783">
        <ele>313.7</ele>
        <time>2017-10-01T07:06:01Z</time>
      </trkpt>
      <trkpt lat="47.49148" lon="6.76789">
        <ele>313.5</ele>
        <time>2017-10-01T07:06:02Z</time>
      </trkpt>
      <trkpt lat="47.49149" lon="6.76795">
        <ele>313.4</ele>
        <time>2017-10-01T07:06:03Z</time>
      </trkpt>
      <trkpt lat="47.49149" lon="6.76801">
        <ele>313.3</ele>
        <time>2017-10-01T07:06:04Z</time>
      </trkpt>
      <trkpt lat="47.4915" lon="6.76809">
        <ele>313.2</ele>
        <time>2017-10-01T07:06:05Z</time>
      </trkpt>
      <trkpt lat="47.4915" lon="6.76817">
        <ele>313.1</ele>
        <time>2017-10-01T07:06:06Z</time>
      </trkpt>
      <trkpt lat="47.4915" lon="6.76825">
        <ele>313</ele>
        <time>2017-10-01T07:06:07Z</time>
      </trkpt>
      <trkpt lat="47.4915" lon="6.76832">
        <ele>313</ele>
        <time>2017-10-01T07:06:08Z</time>
      </trkpt>
      <trkpt lat="47.4915" lon="6.76843">
        <ele>312.9</ele>
        <time>2017-10-01T07:06:09Z</time>
      </trkpt>
      <trkpt lat="47.49149" lon="6.76851">
        <ele>312.8</ele>
        <time>2017-10-01T07:06:10Z</time>
      </trkpt>
      <trkpt lat="47.49149" lon="6.76857">
        <ele>312.7</ele>
        <time>2017-10-01T07:06:11Z</time>
      </trkpt>
      <trkpt lat="47.49149" lon="6.76865">
        <ele>312.7</ele>
        <time>2017-10-01T07:06:12Z</time>
      </trkpt>
      <trkpt lat="47.49149" lon="6.76872">
        <ele>312.6</ele>
        <time>2017-10-01T07:06:13Z</time>
      </trkpt>
      <trkpt lat="47.49149" lon="6.7688">
        <ele>312.6</ele>
        <time>2017-10-01T07:06:14Z</time>
      </trkpt>
      <trkpt lat="47.49149" lon="6.76887">
        <ele>312.5</ele>
        <time>2017-10-01T07:06:15Z</time>
      </trkpt>
      <trkpt lat="47.49149" lon="6.76894">
        <ele>312.5</ele>
        <time>2017-10-01T07:06:16Z</time>
      </trkpt>
      <trkpt lat="47.49149" lon="6.769">
        <ele>312.4</ele>
        <time>2017-10-01T07:06:17Z</time>
      </trkpt>
      <trkpt lat="47.49149" lon="6.76907">
        <ele>312.4</ele>
        <time>2017-10-01T07:06:18Z</time>
      </trkpt>
      <trkpt lat="47.49149" lon="6.76915">
        <ele>312.3</ele>
        <time>2017-10-01T07:06:19Z</time>
      </trkpt>
      <trkpt lat="47.49148" lon="6.76922">
        <ele>312.3</ele>
        <time>2017-10-01T07:06:20Z</time>
      </trkpt>
      <trkpt lat="47.49148" lon="6.76929">
        <ele>312.2</ele>
        <time>2017-10-01T07:06:21Z</time>
      </trkpt>
      <trkpt lat="47.49148" lon="6.76936">
        <ele>312.1</ele>
        <time>2017-10-01T07:06:22Z</time>
      </trkpt>
      <trkpt lat="47.49148" lon="6.76942">
        <ele>312.1</ele>
        <time>2017-10-01T07:06:23Z</time>
      </trkpt>
      <trkpt lat="47.49148" lon="6.76949">
        <ele>312</ele>
        <time>2017-10-01T07:06:24Z</time>
      </trkpt>
      <trkpt lat="47.49147" lon="6.76955">
        <ele>311.9</ele>
        <time>2017-10-01T07:06:25Z</time>
      </trkpt>
      <trkpt lat="47.49147" lon="6.76961">
        <ele>311.9</ele>
        <time>2017-10-01T07:06:26Z</time>
      </trkpt>
      <trkpt lat="47.49146" lon="6.76967">
        <ele>311.8</ele>
        <time>2017-10-01T07:06:27Z</time>
      </trkpt>
      <trkpt lat="47.49146" lon="6.76973">
        <ele>311.8</ele>
        <time>2017-10-01T07:06:28Z</time>
      </trkpt>
      <trkpt lat="47.49147" lon="6.7698">
        <ele>311.7</ele>
        <time>2017-10-01T07:06:29Z</time>
      </trkpt>
      <trkpt lat="47.49148" lon="6.76988">
        <ele>311.5</ele>
        <time>2017-10-01T07:06:30Z</time>
      </trkpt>
      <trkpt lat="47.49151" lon="6.76996">
        <ele>311.3</ele>
        <time>2017-10-01T07:06:31Z</time>
      </trkpt>
      <trkpt lat="47.49155" lon="6.77002">
        <ele>311</ele>
        <time>2017-10-01T07:06:32Z</time>
      </trkpt>
      <trkpt lat="47.49158" lon="6.77007">
        <ele>311.1</ele>
        <time>2017-10-01T07:06:33Z</time>
      </trkpt>
      <trkpt lat="47.49161" lon="6.77012">
        <ele>311.1</ele>
        <time>2017-10-01T07:06:34Z</time>
      </trkpt>
      <trkpt lat="47.49163" lon="6.77022">
        <ele>311.1</ele>
        <time>2017-10-01T07:06:35Z</time>
      </trkpt>
      <trkpt lat="47.49164" lon="6.77029">
        <ele>311.1</ele>
        <time>2017-10-01T07:06:36Z</time>
      </trkpt>
      <trkpt lat="47.49166" lon="6.77037">
        <ele>311.1</ele>
        <time>2017-10-01T07:06:37Z</time>
      </trkpt>
      <trkpt lat="47.49167" lon="6.77045">
        <ele>311.2</ele>
        <time>2017-10-01T07:06:38Z</time>
      </trkpt>
      <trkpt lat="47.49168" lon="6.77052">
        <ele>311.2</ele>
        <time>2017-10-01T07:06:39Z</time>
      </trkpt>
      <trkpt lat="47.49169" lon="6.7706">
        <ele>311.2</ele>
        <time>2017-10-01T07:06:40Z</time>
      </trkpt>
      <trkpt lat="47.4917" lon="6.77065">
        <ele>311.2</ele>
        <time>2017-10-01T07:06:41Z</time>
      </trkpt>
      <trkpt lat="47.49171" lon="6.77072">
        <ele>311.3</ele>
        <time>2017-10-01T07:06:42Z</time>
      </trkpt>
      <trkpt lat="47.49172" lon="6.7708">
        <ele>311.3</ele>
        <time>2017-10-01T07:06:43Z</time>
      </trkpt>
      <trkpt lat="47.49173" lon="6.77087">
        <ele>311.4</ele>
        <time>2017-10-01T07:06:44Z</time>
      </trkpt>
      <trkpt lat="47.49174" lon="6.77092">
        <ele>311.4</ele>
        <time>2017-10-01T07:06:45Z</time>
      </trkpt>
      <trkpt lat="47.49176" lon="6.77099">
        <ele>311.4</ele>
        <time>2017-10-01T07:06:46Z</time>
      </trkpt>
      <trkpt lat="47.49178" lon="6.77106">
        <ele>311.5</ele>
        <time>2017-10-01T07:06:47Z</time>
      </trkpt>
      <trkpt lat="47.4918" lon="6.77113">
        <ele>311.5</ele>
        <time>2017-10-01T07:06:48Z</time>
      </trkpt>
      <trkpt lat="47.49182" lon="6.77118">
        <ele>311.7</ele>
        <time>2017-10-01T07:06:49Z</time>
      </trkpt>
      <trkpt lat="47.49183" lon="6.77125">
        <ele>311.8</ele>
        <time>2017-10-01T07:06:50Z</time>
      </trkpt>
      <trkpt lat="47.49184" lon="6.77129">
        <ele>312</ele>
        <time>2017-10-01T07:06:51Z</time>
      </trkpt>
      <trkpt lat="47.49185" lon="6.77135">
        <ele>312</ele>
        <time>2017-10-01T07:06:52Z</time>
      </trkpt>
      <trkpt lat="47.49185" lon="6.77141">
        <ele>312.1</ele>
        <time>2017-10-01T07:06:53Z</time>
      </trkpt>
      <trkpt lat="47.49185" lon="6.77148">
        <ele>312.2</ele>
        <time>2017-10-01T07:06:54Z</time>
      </trkpt>
      <trkpt lat="47.49185" lon="6.77155">
        <ele>312.4</ele>
        <time>2017-10-01T07:06:55Z</time>
      </trkpt>
      <trkpt lat="47.49185" lon="6.77162">
        <ele>312.5</ele>
        <time>2017-10-01T07:06:56Z</time>
      </trkpt>
      <trkpt lat="47.49185" lon="6.77169">
        <ele>312.6</ele>
        <time>2017-10-01T07:06:57Z</time>
      </trkpt>
      <trkpt lat="47.49185" lon="6.77176">
        <ele>312.7</ele>
        <time>2017-10-01T07:06:58Z</time>
      </trkpt>
      <trkpt lat="47.49185" lon="6.77182">
        <ele>312.8</ele>
        <time>2017-10-01T07:06:59Z</time>
      </trkpt>
      <trkpt lat="47.49186" lon="6.77188">
        <ele>312.9</ele>
        <time>2017-10-01T07:07:00Z</time>
      </trkpt>
      <trkpt lat="47.49187" lon="6.77195">
        <ele>313</ele>
        <time>2017-10-01T07:07:01Z</time>
      </trkpt>
      <trkpt lat="47.49186" lon="6.77202">
        <ele>313</ele>
        <time>2017-10-01T07:07:02Z</time>
      </trkpt>
      <trkpt lat="47.49186" lon="6.77209">
        <ele>313</ele>
        <time>2017-10-01T07:07:03Z</time>
      </trkpt>
      <trkpt lat="47.49185" lon="6.77216">
        <ele>313</ele>
        <time>2017-10-01T07:07:04Z</time>
      </trkpt>
      <trkpt lat="47.49184" lon="6.77224">
        <ele>313</ele>
        <time>2017-10-01T07:07:05Z</time>
      </trkpt>
      <trkpt lat="47.49183" lon="6.77231">
        <ele>312.9</ele>
        <time>2017-10-01T07:07:06Z</time>
      </trkpt>
      <trkpt lat="47.49183" lon="6.77237">
        <ele>312.9</ele>
        <time>2017-10-01T07:07:07Z</time>
      </trkpt>
      <trkpt lat="47.49184" lon="6.77243">
        <ele>312.8</ele>
        <time>2017-10-01T07:07:08Z</time>
      </trkpt>
      <trkpt lat="47.49184" lon="6.77249">
        <ele>312.7</ele>
        <time>2017-10-01T07:07:09Z</time>
      </trkpt>
      <trkpt lat="47.49184" lon="6.77255">
        <ele>312.7</ele>
        <time>2017-10-01T07:07:10Z</time>
      </trkpt>
      <trkpt lat="47.49184" lon="6.77262">
        <ele>312.6</ele>
        <time>2017-10-01T07:07:11Z</time>
      </trkpt>
      <trkpt lat="47.49184" lon="6.77271">
        <ele>312.5</ele>
        <time>2017-10-01T07:07:12Z</time>
      </trkpt>
      <trkpt lat="47.49183" lon="6.77279">
        <ele>312.4</ele>
        <time>2017-10-01T07:07:13Z</time>
      </trkpt>
      <trkpt lat="47.49182" lon="6.77288">
        <ele>312.3</ele>
        <time>2017-10-01T07:07:14Z</time>
      </trkpt>
      <trkpt lat="47.49182" lon="6.77296">
        <ele>312.2</ele>
        <time>2017-10-01T07:07:15Z</time>
      </trkpt>
      <trkpt lat="47.49181" lon="6.77304">
        <ele>312.2</ele>
        <time>2017-10-01T07:07:16Z</time>
      </trkpt>
      <trkpt lat="47.49182" lon="6.77311">
        <ele>312.1</ele>
        <time>2017-10-01T07:07:17Z</time>
      </trkpt>
      <trkpt lat="47.49181" lon="6.77319">
        <ele>312</ele>
        <time>2017-10-01T07:07:18Z</time>
      </trkpt>
      <trkpt lat="47.49179" lon="6.77325">
        <ele>312</ele>
        <time>2017-10-01T07:07:19Z</time>
      </trkpt>
      <trkpt lat="47.49176" lon="6.77329">
        <ele>310.9</ele>
        <time>2017-10-01T07:07:20Z</time>
      </trkpt>
      <trkpt lat="47.49174" lon="6.77331">
        <ele>311.1</ele>
        <time>2017-10-01T07:07:21Z</time>
      </trkpt>
      <trkpt lat="47.4917" lon="6.77332">
        <ele>311.3</ele>
        <time>2017-10-01T07:07:22Z</time>
      </trkpt>
      <trkpt lat="47.49166" lon="6.77333">
        <ele>311.5</ele>
        <time>2017-10-01T07:07:23Z</time>
      </trkpt>
      <trkpt lat="47.49162" lon="6.77333">
        <ele>311.7</ele>
        <time>2017-10-01T07:07:24Z</time>
      </trkpt>
      <trkpt lat="47.49157" lon="6.77333">
        <ele>312</ele>
        <time>2017-10-01T07:07:25Z</time>
      </trkpt>
      <trkpt lat="47.49153" lon="6.77332">
        <ele>312</ele>
        <time>2017-10-01T07:07:26Z</time>
      </trkpt>
      <trkpt lat="47.49148" lon="6.77331">
        <ele>312</ele>
        <time>2017-10-01T07:07:27Z</time>
      </trkpt>
      <trkpt lat="47.49143" lon="6.77331">
        <ele>312</ele>
        <time>2017-10-01T07:07:28Z</time>
      </trkpt>
      <trkpt lat="47.49138" lon="6.77331">
        <ele>312</ele>
        <time>2017-10-01T07:07:29Z</time>
      </trkpt>
      <trkpt lat="47.49133" lon="6.7733">
        <ele>312</ele>
        <time>2017-10-01T07:07:30Z</time>
      </trkpt>
      <trkpt lat="47.49128" lon="6.7733">
        <ele>312.1</ele>
        <time>2017-10-01T07:07:31Z</time>
      </trkpt>
      <trkpt lat="47.49124" lon="6.77329">
        <ele>312.1</ele>
        <time>2017-10-01T07:07:32Z</time>
      </trkpt>
      <trkpt lat="47.49118" lon="6.77328">
        <ele>312.1</ele>
        <time>2017-10-01T07:07:33Z</time>
      </trkpt>
      <trkpt lat="47.49113" lon="6.77328">
        <ele>312.2</ele>
        <time>2017-10-01T07:07:34Z</time>
      </trkpt>
      <trkpt lat="47.49107" lon="6.77327">
        <ele>312.2</ele>
        <time>2017-10-01T07:07:35Z</time>
      </trkpt>
      <trkpt lat="47.49103" lon="6.77327">
        <ele>312.2</ele>
        <time>2017-10-01T07:07:36Z</time>
      </trkpt>
      <trkpt lat="47.49097" lon="6.77326">
        <ele>312.2</ele>
        <time>2017-10-01T07:07:37Z</time>
      </trkpt>
      <trkpt lat="47.49092" lon="6.77325">
        <ele>312.3</ele>
        <time>2017-10-01T07:07:38Z</time>
      </trkpt>
      <trkpt lat="47.49086" lon="6.77325">
        <ele>312.3</ele>
        <time>2017-10-01T07:07:39Z</time>
      </trkpt>
      <trkpt lat="47.49081" lon="6.77325">
        <ele>312.3</ele>
        <time>2017-10-01T07:07:40Z</time>
      </trkpt>
      <trkpt lat="47.49075" lon="6.77324">
        <ele>312.4</ele>
        <time>2017-10-01T07:07:41Z</time>
      </trkpt>
      <trkpt lat="47.4907" lon="6.77324">
        <ele>312.4</ele>
        <time>2017-10-01T07:07:42Z</time>
      </trkpt>
      <trkpt lat="47.49065" lon="6.77324">
        <ele>312.4</ele>
        <time>2017-10-01T07:07:43Z</time>
      </trkpt>
      <trkpt lat="47.4906" lon="6.77323">
        <ele>312.5</ele>
        <time>2017-10-01T07:07:44Z</time>
      </trkpt>
      <trkpt lat="47.49054" lon="6.77322">
        <ele>312.5</ele>
        <time>2017-10-01T07:07:45Z</time>
      </trkpt>
      <trkpt lat="47.49049" lon="6.77322">
        <ele>312.5</ele>
        <time>2017-10-01T07:07:46Z</time>
      </trkpt>
      <trkpt lat="47.49043" lon="6.77321">
        <ele>312.5</ele>
        <time>2017-10-01T07:07:47Z</time>
      </trkpt>
      <trkpt lat="47.49038" lon="6.7732">
        <ele>312.6</ele>
        <time>2017-10-01T07:07:48Z</time>
      </trkpt>
      <trkpt lat="47.49033" lon="6.77319">
        <ele>312.6</ele>
        <time>2017-10-01T07:07:49Z</time>
      </trkpt>
      <trkpt lat="47.49028" lon="6.77319">
        <ele>312.6</ele>
        <time>2017-10-01T07:07:50Z</time>
      </trkpt>
      <trkpt lat="47.49022" lon="6.77318">
        <ele>312.7</ele>
        <time>2017-10-01T07:07:51Z</time>
      </trkpt>
      <trkpt lat="47.49017" lon="6.77318">
        <ele>312.7</ele>
        <time>2017-10-01T07:07:52Z</time>
      </trkpt>
      <trkpt lat="47.49012" lon="6.77318">
        <ele>312.7</ele>
        <time>2017-10-01T07:07:53Z</time>
      </trkpt>
      <trkpt lat="47.49007" lon="6.77317">
        <ele>312.7</ele>
        <time>2017-10-01T07:07:54Z</time>
      </trkpt>
      <trkpt lat="47.49002" lon="6.77318">
        <ele>312.8</ele>
        <time>2017-10-01T07:07:55Z</time>
      </trkpt>
      <trkpt lat="47.48996" lon="6.77318">
        <ele>312.8</ele>
        <time>2017-10-01T07:07:56Z</time>
      </trkpt>
      <trkpt lat="47.4899" lon="6.77317">
        <ele>312.8</ele>
        <time>2017-10-01T07:07:57Z</time>
      </trkpt>
      <trkpt lat="47.48985" lon="6.77317">
        <ele>312.8</ele>
        <time>2017-10-01T07:07:58Z</time>
      </trkpt>
      <trkpt lat="47.48979" lon="6.77317">
        <ele>312.9</ele>
        <time>2017-10-01T07:07:59Z</time>
      </trkpt>
      <trkpt lat="47.48973" lon="6.77316">
        <ele>312.9</ele>
        <time>2017-10-01T07:08:00Z</time>
      </trkpt>
      <trkpt lat="47.48967" lon="6.77316">
        <ele>312.9</ele>
        <time>2017-10-01T07:08:01Z</time>
      </trkpt>
      <trkpt lat="47.48961" lon="6.77316">
        <ele>313</ele>
        <time>2017-10-01T07:08:02Z</time>
      </trkpt>
      <trkpt lat="47.48954" lon="6.77316">
        <ele>313</ele>
        <time>2017-10-01T07:08:03Z</time>
      </trkpt>
      <trkpt lat="47.48948" lon="6.77314">
        <ele>313</ele>
        <time>2017-10-01T07:08:04Z</time>
      </trkpt>
      <trkpt lat="47.48943" lon="6.77313">
        <ele>313.1</ele>
        <time>2017-10-01T07:08:05Z</time>
      </trkpt>
      <trkpt lat="47.48938" lon="6.77311">
        <ele>313.1</ele>
        <time>2017-10-01T07:08:06Z</time>
      </trkpt>
      <trkpt lat="47.48933" lon="6.77308">
        <ele>313.1</ele>
        <time>2017-10-01T07:08:07Z</time>
      </trkpt>
      <trkpt lat="47.48927" lon="6.77306">
        <ele>313.2</ele>
        <time>2017-10-01T07:08:08Z</time>
      </trkpt>
      <trkpt lat="47.48921" lon="6.77303">
        <ele>313.2</ele>
        <time>2017-10-01T07:08:09Z</time>
      </trkpt>
      <trkpt lat="47.48916" lon="6.77301">
        <ele>313.2</ele>
        <time>2017-10-01T07:08:10Z</time>
      </trkpt>
      <trkpt lat="47.48911" lon="6.77299">
        <ele>313.3</ele>
        <time>2017-10-01T07:08:11Z</time>
      </trkpt>
      <trkpt lat="47.48906" lon="6.77297">
        <ele>313.3</ele>
        <time>2017-10-01T07:08:12Z</time>
      </trkpt>
      <trkpt lat="47.489" lon="6.77295">
        <ele>313.3</ele>
        <time>2017-10-01T07:08:13Z</time>
      </trkpt>
      <trkpt lat="47.48894" lon="6.77293">
        <ele>313.4</ele>
        <time>2017-10-01T07:08:14Z</time>
      </trkpt>
      <trkpt lat="47.48888" lon="6.77291">
        <ele>313.4</ele>
        <time>2017-10-01T07:08:15Z</time>
      </trkpt>
      <trkpt lat="47.48883" lon="6.77289">
        <ele>313.4</ele>
        <time>2017-10-01T07:08:16Z</time>
      </trkpt>
      <trkpt lat="47.48878" lon="6.77288">
        <ele>313.5</ele>
        <time>2017-10-01T07:08:17Z</time>
      </trkpt>
      <trkpt lat="47.48873" lon="6.77286">
        <ele>313.5</ele>
        <time>2017-10-01T07:08:18Z</time>
      </trkpt>
      <trkpt lat="47.48867" lon="6.77284">
        <ele>313.5</ele>
        <time>2017-10-01T07:08:19Z</time>
      </trkpt>
      <trkpt lat="47.48862" lon="6.77281">
        <ele>313.6</ele>
        <time>2017-10-01T07:08:20Z</time>
      </trkpt>
      <trkpt lat="47.48857" lon="6.77278">
        <ele>313.6</ele>
        <time>2017-10-01T07:08:21Z</time>
      </trkpt>
      <trkpt lat="47.48851" lon="6.77275">
        <ele>313.7</ele>
        <time>2017-10-01T07:08:22Z</time>
      </trkpt>
      <trkpt lat="47.48846" lon="6.77272">
        <ele>313.8</ele>
        <time>2017-10-01T07:08:23Z</time>
      </trkpt>
      <trkpt lat="47.48841" lon="6.77269">
        <ele>313.9</ele>
        <time>2017-10-01T07:08:24Z</time>
      </trkpt>
      <trkpt lat="47.48835" lon="6.77265">
        <ele>313.9</ele>
        <time>2017-10-01T07:08:25Z</time>
      </trkpt>
      <trkpt lat="47.48829" lon="6.77262">
        <ele>314</ele>
        <time>2017-10-01T07:08:26Z</time>
      </trkpt>
      <trkpt lat="47.48824" lon="6.77257">
        <ele>314.1</ele>
        <time>2017-10-01T07:08:27Z</time>
      </trkpt>
      <trkpt lat="47.48819" lon="6.77253">
        <ele>314.1</ele>
        <time>2017-10-01T07:08:28Z</time>
      </trkpt>
      <trkpt lat="47.48813" lon="6.77248">
        <ele>314.2</ele>
        <time>2017-10-01T07:08:29Z</time>
      </trkpt>
      <trkpt lat="47.48808" lon="6.77245">
        <ele>314.2</ele>
        <time>2017-10-01T07:08:30Z</time>
      </trkpt>
      <trkpt lat="47.48803" lon="6.77241">
        <ele>314.3</ele>
        <time>2017-10-01T07:08:31Z</time>
      </trkpt>
      <trkpt lat="47.48797" lon="6.77237">
        <ele>314.3</ele>
        <time>2017-10-01T07:08:32Z</time>
      </trkpt>
      <trkpt lat="47.48792" lon="6.77234">
        <ele>314.3</ele>
        <time>2017-10-01T07:08:33Z</time>
      </trkpt>
      <trkpt lat="47.48788" lon="6.77231">
        <ele>314.4</ele>
        <time>2017-10-01T07:08:34Z</time>
      </trkpt>
      <trkpt lat="47.48782" lon="6.77226">
        <ele>314.4</ele>
        <time>2017-10-01T07:08:35Z</time>
      </trkpt>
      <trkpt lat="47.48777" lon="6.77222">
        <ele>314.4</ele>
        <time>2017-10-01T07:08:36Z</time>
      </trkpt>
      <trkpt lat="47.48773" lon="6.77218">
        <ele>314.5</ele>
        <time>2017-10-01T07:08:37Z</time>
      </trkpt>
      <trkpt lat="47.48768" lon="6.77213">
        <ele>314.5</ele>
        <time>2017-10-01T07:08:38Z</time>
      </trkpt>
      <trkpt lat="47.48763" lon="6.7721">
        <ele>314.5</ele>
        <time>2017-10-01T07:08:39Z</time>
      </trkpt>
      <trkpt lat="47.48758" lon="6.77206">
        <ele>314.6</ele>
        <time>2017-10-01T07:08:40Z</time>
      </trkpt>
      <trkpt lat="47.48752" lon="6.77202">
        <ele>314.6</ele>
        <time>2017-10-01T07:08:41Z</time>
      </trkpt>
      <trkpt lat="47.48747" lon="6.77199">
        <ele>314.6</ele>
        <time>2017-10-01T07:08:42Z</time>
      </trkpt>
      <trkpt lat="47.48741" lon="6.77194">
        <ele>314.7</ele>
        <time>2017-10-01T07:08:43Z</time>
      </trkpt>
      <trkpt lat="47.48736" lon="6.7719">
        <ele>314.7</ele>
        <time>2017-10-01T07:08:44Z</time>
      </trkpt>
      <trkpt lat="47.48731" lon="6.77186">
        <ele>314.7</ele>
        <time>2017-10-01T07:08:45Z</time>
      </trkpt>
      <trkpt lat="47.48726" lon="6.77181">
        <ele>314.8</ele>
        <time>2017-10-01T07:08:46Z</time>
      </trkpt>
      <trkpt lat="47.48721" lon="6.77177">
        <ele>314.8</ele>
        <time>2017-10-01T07:08:47Z</time>
      </trkpt>
      <trkpt lat="47.48715" lon="6.77173">
        <ele>314.9</ele>
        <time>2017-10-01T07:08:48Z</time>
      </trkpt>
      <trkpt lat="47.4871" lon="6.7717">
        <ele>314.9</ele>
        <time>2017-10-01T07:08:49Z</time>
      </trkpt>
      <trkpt lat="47.48705" lon="6.77166">
        <ele>315</ele>
        <time>2017-10-01T07:08:50Z</time>
      </trkpt>
      <trkpt lat="47.487" lon="6.77162">
        <ele>315</ele>
        <time>2017-10-01T07:08:51Z</time>
      </trkpt>
      <trkpt lat="47.48694" lon="6.77157">
        <ele>315</ele>
        <time>2017-10-01T07:08:52Z</time>
      </trkpt>
      <trkpt lat="47.48689" lon="6.77152">
        <ele>315.1</ele>
        <time>2017-10-01T07:08:53Z</time>
      </trkpt>
      <trkpt lat="47.48684" lon="6.77147">
        <ele>315.2</ele>
        <time>2017-10-01T07:08:54Z</time>
      </trkpt>
      <trkpt lat="47.48679" lon="6.77142">
        <ele>315.3</ele>
        <time>2017-10-01T07:08:55Z</time>
      </trkpt>
      <trkpt lat="47.48675" lon="6.77138">
        <ele>315.3</ele>
        <time>2017-10-01T07:08:56Z</time>
      </trkpt>
      <trkpt lat="47.4867" lon="6.77133">
        <ele>315.4</ele>
        <time>2017-10-01T07:08:57Z</time>
      </trkpt>
      <trkpt lat="47.48665" lon="6.77127">
        <ele>315.5</ele>
        <time>2017-10-01T07:08:58Z</time>
      </trkpt>
      <trkpt lat="47.48659" lon="6.77121">
        <ele>315.5</ele>
        <time>2017-10-01T07:08:59Z</time>
      </trkpt>
      <trkpt lat="47.48655" lon="6.77116">
        <ele>315.6</ele>
        <time>2017-10-01T07:09:00Z</time>
      </trkpt>
      <trkpt lat="47.4865" lon="6.7711">
        <ele>315.7</ele>
        <time>2017-10-01T07:09:01Z</time>
      </trkpt>
      <trkpt lat="47.48646" lon="6.77106">
        <ele>315.7</ele>
        <time>2017-10-01T07:09:02Z</time>
      </trkpt>
      <trkpt lat="47.48642" lon="6.77101">
        <ele>315.8</ele>
        <time>2017-10-01T07:09:03Z</time>
      </trkpt>
      <trkpt lat="47.48638" lon="6.77097">
        <ele>315.8</ele>
        <time>2017-10-01T07:09:04Z</time>
      </trkpt>
      <trkpt lat="47.48633" lon="6.77092">
        <ele>315.9</ele>
        <time>2017-10-01T07:09:05Z</time>
      </trkpt>
      <trkpt lat="47.4863" lon="6.77088">
        <ele>315.9</ele>
        <time>2017-10-01T07:09:06Z</time>
      </trkpt>
      <trkpt lat="47.48626" lon="6.77084">
        <ele>315.9</ele>
        <time>2017-10-01T07:09:07Z</time>
      </trkpt>
      <trkpt lat="47.48621" lon="6.7708">
        <ele>316</ele>
        <time>2017-10-01T07:09:08Z</time>
      </trkpt>
      <trkpt lat="47.48616" lon="6.77078">
        <ele>316</ele>
        <time>2017-10-01T07:09:09Z</time>
      </trkpt>
      <trkpt lat="47.48611" lon="6.77076">
        <ele>316</ele>
        <time>2017-10-01T07:09:10Z</time>
      </trkpt>
      <trkpt lat="47.48606" lon="6.77071">
        <ele>315.9</ele>
        <time>2017-10-01T07:09:11Z</time>
      </trkpt>
      <trkpt lat="47.486" lon="6.77067">
        <ele>315.9</ele>
        <time>2017-10-01T07:09:12Z</time>
      </trkpt>
      <trkpt lat="47.48595" lon="6.77063">
        <ele>315.9</ele>
        <time>2017-10-01T07:09:13Z</time>
      </trkpt>
      <trkpt lat="47.4859" lon="6.77059">
        <ele>315.9</ele>
        <time>2017-10-01T07:09:14Z</time>
      </trkpt>
      <trkpt lat="47.48585" lon="6.77056">
        <ele>315.8</ele>
        <time>2017-10-01T07:09:15Z</time>
      </trkpt>
      <trkpt lat="47.48581" lon="6.77053">
        <ele>315.8</ele>
        <time>2017-10-01T07:09:16Z</time>
      </trkpt>
      <trkpt lat="47.48575" lon="6.7705">
        <ele>315.8</ele>
        <time>2017-10-01T07:09:17Z</time>
      </trkpt>
      <trkpt lat="47.4857" lon="6.77048">
        <ele>315.8</ele>
        <time>2017-10-01T07:09:18Z</time>
      </trkpt>
      <trkpt lat="47.48565" lon="6.77045">
        <ele>315.7</ele>
        <time>2017-10-01T07:09:19Z</time>
      </trkpt>
      <trkpt lat="47.48559" lon="6.77043">
        <ele>315.7</ele>
        <time>2017-10-01T07:09:20Z</time>
      </trkpt>
      <trkpt lat="47.48552" lon="6.77042">
        <ele>315.7</ele>
        <time>2017-10-01T07:09:21Z</time>
      </trkpt>
      <trkpt lat="47.48545" lon="6.7704">
        <ele>315.6</ele>
        <time>2017-10-01T07:09:22Z</time>
      </trkpt>
      <trkpt lat="47.48538" lon="6.77036">
        <ele>315.6</ele>
        <time>2017-10-01T07:09:23Z</time>
      </trkpt>
      <trkpt lat="47.48532" lon="6.77032">
        <ele>315.6</ele>
        <time>2017-10-01T07:09:24Z</time>
      </trkpt>
      <trkpt lat="47.48527" lon="6.77028">
        <ele>315.5</ele>
        <time>2017-10-01T07:09:25Z</time>
      </trkpt>
      <trkpt lat="47.48521" lon="6.77023">
        <ele>315.5</ele>
        <time>2017-10-01T07:09:26Z</time>
      </trkpt>
      <trkpt lat="47.48515" lon="6.77019">
        <ele>315.5</ele>
        <time>2017-10-01T07:09:27Z</time>
      </trkpt>
      <trkpt lat="47.48509" lon="6.77014">
        <ele>315.5</ele>
        <time>2017-10-01T07:09:28Z</time>
      </trkpt>
      <trkpt lat="47.48504" lon="6.7701">
        <ele>315.5</ele>
        <time>2017-10-01T07:09:29Z</time>
      </trkpt>
      <trkpt lat="47.48498" lon="6.77006">
        <ele>315.4</ele>
        <time>2017-10-01T07:09:30Z</time>
      </trkpt>
      <trkpt lat="47.48493" lon="6.77002">
        <ele>315.4</ele>
        <time>2017-10-01T07:09:31Z</time>
      </trkpt>
      <trkpt lat="47.48487" lon="6.76998">
        <ele>315.4</ele>
        <time>2017-10-01T07:09:32Z</time>
      </trkpt>
      <trkpt lat="47.48481" lon="6.76993">
        <ele>315.4</ele>
        <time>2017-10-01T07:09:33Z</time>
      </trkpt>
      <trkpt lat="47.48475" lon="6.7699">
        <ele>315.4</ele>
        <time>2017-10-01T07:09:34Z</time>
      </trkpt>
      <trkpt lat="47.48469" lon="6.76986">
        <ele>315.4</ele>
        <time>2017-10-01T07:09:35Z</time>
      </trkpt>
      <trkpt lat="47.48463" lon="6.76982">
        <ele>315.4</ele>
        <time>2017-10-01T07:09:36Z</time>
      </trkpt>
      <trkpt lat="47.48458" lon="6.76979">
        <ele>315.3</ele>
        <time>2017-10-01T07:09:37Z</time>
      </trkpt>
      <trkpt lat="47.48453" lon="6.76976">
        <ele>315.3</ele>
        <time>2017-10-01T07:09:38Z</time>
      </trkpt>
      <trkpt lat="47.48448" lon="6.76972">
        <ele>315.3</ele>
        <time>2017-10-01T07:09:39Z</time>
      </trkpt>
      <trkpt lat="47.48441" lon="6.76967">
        <ele>315.3</ele>
        <time>2017-10-01T07:09:40Z</time>
      </trkpt>
      <trkpt lat="47.48436" lon="6.76964">
        <ele>315.3</ele>
        <time>2017-10-01T07:09:41Z</time>
      </trkpt>
      <trkpt lat="47.48431" lon="6.76961">
        <ele>315.2</ele>
        <time>2017-10-01T07:09:42Z</time>
      </trkpt>
      <trkpt lat="47.48426" lon="6.76958">
        <ele>315.2</ele>
        <time>2017-10-01T07:09:43Z</time>
      </trkpt>
      <trkpt lat="47.4842" lon="6.76955">
        <ele>315.2</ele>
        <time>2017-10-01T07:09:44Z</time>
      </trkpt>
      <trkpt lat="47.48414" lon="6.76953">
        <ele>315.2</ele>
        <time>2017-10-01T07:09:45Z</time>
      </trkpt>
      <trkpt lat="47.48408" lon="6.7695">
        <ele>315.2</ele>
        <time>2017-10-01T07:09:46Z</time>
      </trkpt>
      <trkpt lat="47.48402" lon="6.76948">
        <ele>315.1</ele>
        <time>2017-10-01T07:09:47Z</time>
      </trkpt>
      <trkpt lat="47.48397" lon="6.76945">
        <ele>315.1</ele>
        <time>2017-10-01T07:09:48Z</time>
      </trkpt>
      <trkpt lat="47.48391" lon="6.76942">
        <ele>315.1</ele>
        <time>2017-10-01T07:09:49Z</time>
      </trkpt>
      <trkpt lat="47.48385" lon="6.76939">
        <ele>315.1</ele>
        <time>2017-10-01T07:09:50Z</time>
      </trkpt>
      <trkpt lat="47.48379" lon="6.76935">
        <ele>315.1</ele>
        <time>2017-10-01T07:09:51Z</time>
      </trkpt>
      <trkpt lat="47.48374" lon="6.76932">
        <ele>315.1</ele>
        <time>2017-10-01T07:09:52Z</time>
      </trkpt>
      <trkpt lat="47.4837" lon="6.76928">
        <ele>315.1</ele>
        <time>2017-10-01T07:09:53Z</time>
      </trkpt>
      <trkpt lat="47.48364" lon="6.76925">
        <ele>315.1</ele>
        <time>2017-10-01T07:09:54Z</time>
      </trkpt>
      <trkpt lat="47.48358" lon="6.76921">
        <ele>315</ele>
        <time>2017-10-01T07:09:55Z</time>
      </trkpt>
      <trkpt lat="47.48352" lon="6.76917">
        <ele>315</ele>
        <time>2017-10-01T07:09:56Z</time>
      </trkpt>
      <trkpt lat="47.48346" lon="6.76914">
        <ele>315</ele>
        <time>2017-10-01T07:09:57Z</time>
      </trkpt>
      <trkpt lat="47.48342" lon="6.76911">
        <ele>315</ele>
        <time>2017-10-01T07:09:58Z</time>
      </trkpt>
      <trkpt lat="47.48337" lon="6.76907">
        <ele>315</ele>
        <time>2017-10-01T07:09:59Z</time>
      </trkpt>
      <trkpt lat="47.48331" lon="6.76903">
        <ele>315</ele>
        <time>2017-10-01T07:10:00Z</time>
      </trkpt>
      <trkpt lat="47.48325" lon="6.76899">
        <ele>315</ele>
        <time>2017-10-01T07:10:01Z</time>
      </trkpt>
      <trkpt lat="47.4832" lon="6.76895">
        <ele>314.9</ele>
        <time>2017-10-01T07:10:02Z</time>
      </trkpt>
      <trkpt lat="47.48316" lon="6.76892">
        <ele>314.9</ele>
        <time>2017-10-01T07:10:03Z</time>
      </trkpt>
      <trkpt lat="47.48311" lon="6.76887">
        <ele>314.9</ele>
        <time>2017-10-01T07:10:04Z</time>
      </trkpt>
      <trkpt lat="47.48305" lon="6.76882">
        <ele>314.9</ele>
        <time>2017-10-01T07:10:05Z</time>
      </trkpt>
      <trkpt lat="47.48301" lon="6.76878">
        <ele>314.9</ele>
        <time>2017-10-01T07:10:06Z</time>
      </trkpt>
      <trkpt lat="47.48296" lon="6.76873">
        <ele>314.9</ele>
        <time>2017-10-01T07:10:07Z</time>
      </trkpt>
      <trkpt lat="47.48291" lon="6.76869">
        <ele>314.9</ele>
        <time>2017-10-01T07:10:08Z</time>
      </trkpt>
      <trkpt lat="47.48286" lon="6.76865">
        <ele>314.8</ele>
        <time>2017-10-01T07:10:09Z</time>
      </trkpt>
      <trkpt lat="47.48283" lon="6.76859">
        <ele>314.8</ele>
        <time>2017-10-01T07:10:10Z</time>
      </trkpt>
      <trkpt lat="47.48281" lon="6.76853">
        <ele>314.8</ele>
        <time>2017-10-01T07:10:11Z</time>
      </trkpt>
      <trkpt lat="47.48277" lon="6.76847">
        <ele>314.8</ele>
        <time>2017-10-01T07:10:12Z</time>
      </trkpt>
      <trkpt lat="47.48274" lon="6.76841">
        <ele>314.7</ele>
        <time>2017-10-01T07:10:13Z</time>
      </trkpt>
      <trkpt lat="47.4827" lon="6.76835">
        <ele>314.7</ele>
        <time>2017-10-01T07:10:14Z</time>
      </trkpt>
      <trkpt lat="47.48265" lon="6.76829">
        <ele>314.7</ele>
        <time>2017-10-01T07:10:15Z</time>
      </trkpt>
      <trkpt lat="47.48261" lon="6.76823">
        <ele>314.7</ele>
        <time>2017-10-01T07:10:16Z</time>
      </trkpt>
      <trkpt lat="47.48257" lon="6.76817">
        <ele>314.7</ele>
        <time>2017-10-01T07:10:17Z</time>
      </trkpt>
      <trkpt lat="47.48252" lon="6.76811">
        <ele>314.6</ele>
        <time>2017-10-01T07:10:18Z</time>
      </trkpt>
      <trkpt lat="47.48247" lon="6.76806">
        <ele>314.6</ele>
        <time>2017-10-01T07:10:19Z</time>
      </trkpt>
      <trkpt lat="47.48244" lon="6.76802">
        <ele>314.6</ele>
        <time>2017-10-01T07:10:20Z</time>
      </trkpt>
      <trkpt lat="47.48239" lon="6.768">
        <ele>314.6</ele>
        <time>2017-10-01T07:10:21Z</time>
      </trkpt>
      <trkpt lat="47.48234" lon="6.76797">
        <ele>314.5</ele>
        <time>2017-10-01T07:10:22Z</time>
      </trkpt>
      <trkpt lat="47.48229" lon="6.76794">
        <ele>314.5</ele>
        <time>2017-10-01T07:10:23Z</time>
      </trkpt>
      <trkpt lat="47.48223" lon="6.76791">
        <ele>314.5</ele>
        <time>2017-10-01T07:10:24Z</time>
      </trkpt>
      <trkpt lat="47.48217" lon="6.76789">
        <ele>314.4</ele>
        <time>2017-10-01T07:10:25Z</time>
      </trkpt>
      <trkpt lat="47.48212" lon="6.76786">
        <ele>314.4</ele>
        <time>2017-10-01T07:10:26Z</time>
      </trkpt>
      <trkpt lat="47.48207" lon="6.76784">
        <ele>314.4</ele>
        <time>2017-10-01T07:10:27Z</time>
      </trkpt>
      <trkpt lat="47.48201" lon="6.76782">
        <ele>314.4</ele>
        <time>2017-10-01T07:10:28Z</time>
      </trkpt>
      <trkpt lat="47.48194" lon="6.76779">
        <ele>314.3</ele>
        <time>2017-10-01T07:10:29Z</time>
      </trkpt>
      <trkpt lat="47.48188" lon="6.76776">
        <ele>314.3</ele>
        <time>2017-10-01T07:10:30Z</time>
      </trkpt>
      <trkpt lat="47.48182" lon="6.76772">
        <ele>314.3</ele>
        <time>2017-10-01T07:10:31Z</time>
      </trkpt>
      <trkpt lat="47.48178" lon="6.76768">
        <ele>314.2</ele>
        <time>2017-10-01T07:10:32Z</time>
      </trkpt>
      <trkpt lat="47.48173" lon="6.76763">
        <ele>314.2</ele>
        <time>2017-10-01T07:10:33Z</time>
      </trkpt>
      <trkpt lat="47.48168" lon="6.76757">
        <ele>314.2</ele>
        <time>2017-10-01T07:10:34Z</time>
      </trkpt>
      <trkpt lat="47.48164" lon="6.76751">
        <ele>314.2</ele>
        <time>2017-10-01T07:10:35Z</time>
      </trkpt>
      <trkpt lat="47.48159" lon="6.76745">
        <ele>314.2</ele>
        <time>2017-10-01T07:10:36Z</time>
      </trkpt>
      <trkpt lat="47.48156" lon="6.7674">
        <ele>314.2</ele>
        <time>2017-10-01T07:10:37Z</time>
      </trkpt>
      <trkpt lat="47.48152" lon="6.76733">
        <ele>314.1</ele>
        <time>2017-10-01T07:10:38Z</time>
      </trkpt>
      <trkpt lat="47.48149" lon="6.76727">
        <ele>314.1</ele>
        <time>2017-10-01T07:10:39Z</time>
      </trkpt>
      <trkpt lat="47.48146" lon="6.76721">
        <ele>314.1</ele>
        <time>2017-10-01T07:10:40Z</time>
      </trkpt>
      <trkpt lat="47.48143" lon="6.76714">
        <ele>314.1</ele>
        <time>2017-10-01T07:10:41Z</time>
      </trkpt>
      <trkpt lat="47.48139" lon="6.76707">
        <ele>314</ele>
        <time>2017-10-01T07:10:42Z</time>
      </trkpt>
      <trkpt lat="47.48135" lon="6.76698">
        <ele>314</ele>
        <time>2017-10-01T07:10:43Z</time>
      </trkpt>
      <trkpt lat="47.48132" lon="6.76692">
        <ele>314</ele>
        <time>2017-10-01T07:10:44Z</time>
      </trkpt>
      <trkpt lat="47.48129" lon="6.76684">
        <ele>314</ele>
        <time>2017-10-01T07:10:45Z</time>
      </trkpt>
      <trkpt lat="47.48125" lon="6.76678">
        <ele>314</ele>
        <time>2017-10-01T07:10:46Z</time>
      </trkpt>
      <trkpt lat="47.48122" lon="6.76673">
        <ele>314</ele>
        <time>2017-10-01T07:10:47Z</time>
      </trkpt>
      <trkpt lat="47.48119" lon="6.76668">
        <ele>313.9</ele>
        <time>2017-10-01T07:10:48Z</time>
      </trkpt>
      <trkpt lat="47.48116" lon="6.76663">
        <ele>313.9</ele>
        <time>2017-10-01T07:10:49Z</time>
      </trkpt>
      <trkpt lat="47.48113" lon="6.76659">
        <ele>313.9</ele>
        <time>2017-10-01T07:10:50Z</time>
      </trkpt>
      <trkpt lat="47.48109" lon="6.76653">
        <ele>313.9</ele>
        <time>2017-10-01T07:10:51Z</time>
      </trkpt>
      <trkpt lat="47.48106" lon="6.76647">
        <ele>313.9</ele>
        <time>2017-10-01T07:10:52Z</time>
      </trkpt>
      <trkpt lat="47.48103" lon="6.76641">
        <ele>313.9</ele>
        <time>2017-10-01T07:10:53Z</time>
      </trkpt>
      <trkpt lat="47.48101" lon="6.76637">
        <ele>313.8</ele>
        <time>2017-10-01T07:10:54Z</time>
      </trkpt>
      <trkpt lat="47.48099" lon="6.76631">
        <ele>313.8</ele>
        <time>2017-10-01T07:10:55Z</time>
      </trkpt>
      <trkpt lat="47.48098" lon="6.76623">
        <ele>313.8</ele>
        <time>2017-10-01T07:10:56Z</time>
      </trkpt>
      <trkpt lat="47.48097" lon="6.76615">
        <ele>313.7</ele>
        <time>2017-10-01T07:10:57Z</time>
      </trkpt>
      <trkpt lat="47.48098" lon="6.76608">
        <ele>313.7</ele>
        <time>2017-10-01T07:10:58Z</time>
      </trkpt>
      <trkpt lat="47.481" lon="6.76602">
        <ele>313.7</ele>
        <time>2017-10-01T07:10:59Z</time>
      </trkpt>
      <trkpt lat="47.48102" lon="6.76596">
        <ele>313.7</ele>
        <time>2017-10-01T07:11:00Z</time>
      </trkpt>
      <trkpt lat="47.48104" lon="6.76589">
        <ele>313.6</ele>
        <time>2017-10-01T07:11:01Z</time>
      </trkpt>
      <trkpt lat="47.48107" lon="6.76583">
        <ele>313.6</ele>
        <time>2017-10-01T07:11:02Z</time>
      </trkpt>
      <trkpt lat="47.48111" lon="6.76576">
        <ele>313.5</ele>
        <time>2017-10-01T07:11:03Z</time>
      </trkpt>
      <trkpt lat="47.48115" lon="6.7657">
        <ele>313.5</ele>
        <time>2017-10-01T07:11:04Z</time>
      </trkpt>
      <trkpt lat="47.48118" lon="6.76564">
        <ele>313.5</ele>
        <time>2017-10-01T07:11:05Z</time>
      </trkpt>
      <trkpt lat="47.48121" lon="6.76559">
        <ele>313.4</ele>
        <time>2017-10-01T07:11:06Z</time>
      </trkpt>
      <trkpt lat="47.48123" lon="6.76554">
        <ele>313.4</ele>
        <time>2017-10-01T07:11:07Z</time>
      </trkpt>
      <trkpt lat="47.48123" lon="6.76548">
        <ele>313.3</ele>
        <time>2017-10-01T07:11:08Z</time>
      </trkpt>
      <trkpt lat="47.48122" lon="6.76541">
        <ele>313.3</ele>
        <time>2017-10-01T07:11:09Z</time>
      </trkpt>
      <trkpt lat="47.48119" lon="6.76535">
        <ele>313.2</ele>
        <time>2017-10-01T07:11:10Z</time>
      </trkpt>
      <trkpt lat="47.48118" lon="6.7653">
        <ele>313.2</ele>
        <time>2017-10-01T07:11:11Z</time>
      </trkpt>
      <trkpt lat="47.48115" lon="6.76524">
        <ele>313.1</ele>
        <time>2017-10-01T07:11:12Z</time>
      </trkpt>
      <trkpt lat="47.48113" lon="6.76519">
        <ele>313.1</ele>
        <time>2017-10-01T07:11:13Z</time>
      </trkpt>
      <trkpt lat="47.48111" lon="6.76514">
        <ele>313.1</ele>
        <time>2017-10-01T07:11:14Z</time>
      </trkpt>
      <trkpt lat="47.48109" lon="6.7651">
        <ele>313</ele>
        <time>2017-10-01T07:11:15Z</time>
      </trkpt>
      <trkpt lat="47.48106" lon="6.76509">
        <ele>313</ele>
        <time>2017-10-01T07:11:16Z</time>
      </trkpt>
      <trkpt lat="47.48103" lon="6.76509">
        <ele>313</ele>
        <time>2017-10-01T07:11:17Z</time>
      </trkpt>
      <trkpt lat="47.48099" lon="6.76512">
        <ele>312.8</ele>
        <time>2017-10-01T07:11:18Z</time>
      </trkpt>
      <trkpt lat="47.48095" lon="6.76516">
        <ele>312.7</ele>
        <time>2017-10-01T07:11:19Z</time>
      </trkpt>
      <trkpt lat="47.48091" lon="6.76519">
        <ele>312.5</ele>
        <time>2017-10-01T07:11:20Z</time>
      </trkpt>
      <trkpt lat="47.48088" lon="6.76523">
        <ele>312.5</ele>
        <time>2017-10-01T07:11:21Z</time>
      </trkpt>
      <trkpt lat="47.48083" lon="6.76527">
        <ele>312.4</ele>
        <time>2017-10-01T07:11:22Z</time>
      </trkpt>
      <trkpt lat="47.48079" lon="6.76532">
        <ele>312.3</ele>
        <time>2017-10-01T07:11:23Z</time>
      </trkpt>
      <trkpt lat="47.48076" lon="6.76536">
        <ele>312.3</ele>
        <time>2017-10-01T07:11:24Z</time>
      </trkpt>
      <trkpt lat="47.48073" lon="6.7654">
        <ele>312.2</ele>
        <time>2017-10-01T07:11:25Z</time>
      </trkpt>
      <trkpt lat="47.4807" lon="6.76543">
        <ele>312.2</ele>
        <time>2017-10-01T07:11:26Z</time>
      </trkpt>
      <trkpt lat="47.48065" lon="6.76548">
        <ele>312.1</ele>
        <time>2017-10-01T07:11:27Z</time>
      </trkpt>
      <trkpt lat="47.48061" lon="6.76552">
        <ele>312.1</ele>
        <time>2017-10-01T07:11:28Z</time>
      </trkpt>
      <trkpt lat="47.48056" lon="6.76556">
        <ele>312</ele>
        <time>2017-10-01T07:11:29Z</time>
      </trkpt>
      <trkpt lat="47.48052" lon="6.7656">
        <ele>312</ele>
        <time>2017-10-01T07:11:30Z</time>
      </trkpt>
      <trkpt lat="47.48048" lon="6.76564">
        <ele>311.9</ele>
        <time>2017-10-01T07:11:31Z</time>
      </trkpt>
      <trkpt lat="47.48044" lon="6.76568">
        <ele>311.7</ele>
        <time>2017-10-01T07:11:32Z</time>
      </trkpt>
      <trkpt lat="47.48039" lon="6.76572">
        <ele>311.6</ele>
        <time>2017-10-01T07:11:33Z</time>
      </trkpt>
      <trkpt lat="47.48034" lon="6.76576">
        <ele>311.5</ele>
        <time>2017-10-01T07:11:34Z</time>
      </trkpt>
      <trkpt lat="47.4803" lon="6.76579">
        <ele>311.4</ele>
        <time>2017-10-01T07:11:35Z</time>
      </trkpt>
      <trkpt lat="47.48026" lon="6.76582">
        <ele>311.2</ele>
        <time>2017-10-01T07:11:36Z</time>
      </trkpt>
      <trkpt lat="47.48021" lon="6.76586">
        <ele>311.1</ele>
        <time>2017-10-01T07:11:37Z</time>
      </trkpt>
      <trkpt lat="47.48017" lon="6.76589">
        <ele>311</ele>
        <time>2017-10-01T07:11:38Z</time>
      </trkpt>
      <trkpt lat="47.48013" lon="6.76592">
        <ele>310.9</ele>
        <time>2017-10-01T07:11:39Z</time>
      </trkpt>
      <trkpt lat="47.48008" lon="6.76595">
        <ele>310.7</ele>
        <time>2017-10-01T07:11:40Z</time>
      </trkpt>
      <trkpt lat="47.48003" lon="6.76597">
        <ele>310.6</ele>
        <time>2017-10-01T07:11:41Z</time>
      </trkpt>
      <trkpt lat="47.47999" lon="6.766">
        <ele>310.5</ele>
        <time>2017-10-01T07:11:42Z</time>
      </trkpt>
      <trkpt lat="47.47995" lon="6.76602">
        <ele>310.4</ele>
        <time>2017-10-01T07:11:43Z</time>
      </trkpt>
      <trkpt lat="47.4799" lon="6.76604">
        <ele>310.2</ele>
        <time>2017-10-01T07:11:44Z</time>
      </trkpt>
      <trkpt lat="47.47986" lon="6.76606">
        <ele>310.1</ele>
        <time>2017-10-01T07:11:45Z</time>
      </trkpt>
      <trkpt lat="47.47982" lon="6.76608">
        <ele>310</ele>
        <time>2017-10-01T07:11:46Z</time>
      </trkpt>
      <trkpt lat="47.47977" lon="6.76611">
        <ele>310</ele>
        <time>2017-10-01T07:11:47Z</time>
      </trkpt>
      <trkpt lat="47.47972" lon="6.76613">
        <ele>310</ele>
        <time>2017-10-01T07:11:48Z</time>
      </trkpt>
      <trkpt lat="47.47968" lon="6.76616">
        <ele>310</ele>
        <time>2017-10-01T07:11:49Z</time>
      </trkpt>
      <trkpt lat="47.47964" lon="6.76618">
        <ele>310</ele>
        <time>2017-10-01T07:11:50Z</time>
      </trkpt>
      <trkpt lat="47.4796" lon="6.76618">
        <ele>310</ele>
        <time>2017-10-01T07:11:51Z</time>
      </trkpt>
      <trkpt lat="47.47955" lon="6.76618">
        <ele>310</ele>
        <time>2017-10-01T07:11:52Z</time>
      </trkpt>
      <trkpt lat="47.47951" lon="6.7662">
        <ele>310</ele>
        <time>2017-10-01T07:11:53Z</time>
      </trkpt>
      <trkpt lat="47.47947" lon="6.76622">
        <ele>310</ele>
        <time>2017-10-01T07:11:54Z</time>
      </trkpt>
      <trkpt lat="47.47941" lon="6.76624">
        <ele>310.2</ele>
        <time>2017-10-01T07:11:55Z</time>
      </trkpt>
      <trkpt lat="47.47934" lon="6.76628">
        <ele>310.4</ele>
        <time>2017-10-01T07:11:56Z</time>
      </trkpt>
      <trkpt lat="47.47928" lon="6.76632">
        <ele>310.4</ele>
        <time>2017-10-01T07:11:57Z</time>
      </trkpt>
      <trkpt lat="47.47922" lon="6.76636">
        <ele>310.3</ele>
        <time>2017-10-01T07:11:58Z</time>
      </trkpt>
      <trkpt lat="47.47916" lon="6.7664">
        <ele>310.2</ele>
        <time>2017-10-01T07:11:59Z</time>
      </trkpt>
      <trkpt lat="47.4791" lon="6.76645">
        <ele>310.1</ele>
        <time>2017-10-01T07:12:00Z</time>
      </trkpt>
      <trkpt lat="47.47904" lon="6.76652">
        <ele>310</ele>
        <time>2017-10-01T07:12:01Z</time>
      </trkpt>
      <trkpt lat="47.47899" lon="6.7666">
        <ele>309.9</ele>
        <time>2017-10-01T07:12:02Z</time>
      </trkpt>
      <trkpt lat="47.47894" lon="6.76667">
        <ele>309.7</ele>
        <time>2017-10-01T07:12:03Z</time>
      </trkpt>
      <trkpt lat="47.47889" lon="6.76674">
        <ele>309.6</ele>
        <time>2017-10-01T07:12:04Z</time>
      </trkpt>
      <trkpt lat="47.47885" lon="6.76681">
        <ele>309.5</ele>
        <time>2017-10-01T07:12:05Z</time>
      </trkpt>
      <trkpt lat="47.47881" lon="6.76688">
        <ele>309.4</ele>
        <time>2017-10-01T07:12:06Z</time>
      </trkpt>
      <trkpt lat="47.47878" lon="6.76696">
        <ele>309.4</ele>
        <time>2017-10-01T07:12:07Z</time>
      </trkpt>
      <trkpt lat="47.47874" lon="6.76703">
        <ele>309.4</ele>
        <time>2017-10-01T07:12:08Z</time>
      </trkpt>
      <trkpt lat="47.47871" lon="6.7671">
        <ele>309.5</ele>
        <time>2017-10-01T07:12:09Z</time>
      </trkpt>
      <trkpt lat="47.47868" lon="6.76718">
        <ele>309.7</ele>
        <time>2017-10-01T07:12:10Z</time>
      </trkpt>
      <trkpt lat="47.47865" lon="6.76726">
        <ele>309.9</ele>
        <time>2017-10-01T07:12:11Z</time>
      </trkpt>
      <trkpt lat="47.47862" lon="6.76734">
        <ele>310</ele>
        <time>2017-10-01T07:12:12Z</time>
      </trkpt>
      <trkpt lat="47.47858" lon="6.76741">
        <ele>310</ele>
        <time>2017-10-01T07:12:13Z</time>
      </trkpt>
      <trkpt lat="47.47855" lon="6.76748">
        <ele>310</ele>
        <time>2017-10-01T07:12:14Z</time>
      </trkpt>
      <trkpt lat="47.47851" lon="6.76755">
        <ele>310</ele>
        <time>2017-10-01T07:12:15Z</time>
      </trkpt>
      <trkpt lat="47.47847" lon="6.76762">
        <ele>309.9</ele>
        <time>2017-10-01T07:12:16Z</time>
      </trkpt>
      <trkpt lat="47.47844" lon="6.76768">
        <ele>310</ele>
        <time>2017-10-01T07:12:17Z</time>
      </trkpt>
      <trkpt lat="47.47841" lon="6.76775">
        <ele>310.1</ele>
        <time>2017-10-01T07:12:18Z</time>
      </trkpt>
      <trkpt lat="47.47837" lon="6.76782">
        <ele>310.3</ele>
        <time>2017-10-01T07:12:19Z</time>
      </trkpt>
      <trkpt lat="47.47833" lon="6.76789">
        <ele>310.5</ele>
        <time>2017-10-01T07:12:20Z</time>
      </trkpt>
      <trkpt lat="47.4783" lon="6.76795">
        <ele>310.7</ele>
        <time>2017-10-01T07:12:21Z</time>
      </trkpt>
      <trkpt lat="47.47826" lon="6.76802">
        <ele>310.9</ele>
        <time>2017-10-01T07:12:22Z</time>
      </trkpt>
      <trkpt lat="47.47822" lon="6.76804">
        <ele>311</ele>
        <time>2017-10-01T07:12:23Z</time>
      </trkpt>
      <trkpt lat="47.47817" lon="6.76806">
        <ele>310.7</ele>
        <time>2017-10-01T07:12:24Z</time>
      </trkpt>
      <trkpt lat="47.47813" lon="6.76806">
        <ele>310.4</ele>
        <time>2017-10-01T07:12:25Z</time>
      </trkpt>
      <trkpt lat="47.47808" lon="6.76804">
        <ele>310.2</ele>
        <time>2017-10-01T07:12:26Z</time>
      </trkpt>
      <trkpt lat="47.47802" lon="6.76802">
        <ele>310.1</ele>
        <time>2017-10-01T07:12:27Z</time>
      </trkpt>
      <trkpt lat="47.47798" lon="6.76801">
        <ele>310.1</ele>
        <time>2017-10-01T07:12:28Z</time>
      </trkpt>
      <trkpt lat="47.47793" lon="6.76799">
        <ele>310.3</ele>
        <time>2017-10-01T07:12:29Z</time>
      </trkpt>
      <trkpt lat="47.47789" lon="6.76797">
        <ele>310.5</ele>
        <time>2017-10-01T07:12:30Z</time>
      </trkpt>
      <trkpt lat="47.47784" lon="6.76796">
        <ele>310.7</ele>
        <time>2017-10-01T07:12:31Z</time>
      </trkpt>
      <trkpt lat="47.47779" lon="6.76794">
        <ele>310.8</ele>
        <time>2017-10-01T07:12:32Z</time>
      </trkpt>
      <trkpt lat="47.47774" lon="6.76792">
        <ele>310.8</ele>
        <time>2017-10-01T07:12:33Z</time>
      </trkpt>
      <trkpt lat="47.47769" lon="6.7679">
        <ele>310.9</ele>
        <time>2017-10-01T07:12:34Z</time>
      </trkpt>
      <trkpt lat="47.47764" lon="6.7679">
        <ele>310.9</ele>
        <time>2017-10-01T07:12:35Z</time>
      </trkpt>
      <trkpt lat="47.4776" lon="6.76792">
        <ele>311</ele>
        <time>2017-10-01T07:12:36Z</time>
      </trkpt>
      <trkpt lat="47.47756" lon="6.76794">
        <ele>311</ele>
        <time>2017-10-01T07:12:37Z</time>
      </trkpt>
      <trkpt lat="47.47751" lon="6.76796">
        <ele>311</ele>
        <time>2017-10-01T07:12:38Z</time>
      </trkpt>
      <trkpt lat="47.47747" lon="6.76796">
        <ele>311</ele>
        <time>2017-10-01T07:12:39Z</time>
      </trkpt>
      <trkpt lat="47.47742" lon="6.76797">
        <ele>311</ele>
        <time>2017-10-01T07:12:40Z</time>
      </trkpt>
      <trkpt lat="47.47736" lon="6.76798">
        <ele>310.9</ele>
        <time>2017-10-01T07:12:41Z</time>
      </trkpt>
      <trkpt lat="47.4773" lon="6.76804">
        <ele>310.8</ele>
        <time>2017-10-01T07:12:42Z</time>
      </trkpt>
      <trkpt lat="47.47725" lon="6.7681">
        <ele>310.7</ele>
        <time>2017-10-01T07:12:43Z</time>
      </trkpt>
      <trkpt lat="47.47721" lon="6.76817">
        <ele>310.6</ele>
        <time>2017-10-01T07:12:44Z</time>
      </trkpt>
      <trkpt lat="47.47717" lon="6.76825">
        <ele>310.5</ele>
        <time>2017-10-01T07:12:45Z</time>
      </trkpt>
      <trkpt lat="47.47714" lon="6.76833">
        <ele>310.5</ele>
        <time>2017-10-01T07:12:46Z</time>
      </trkpt>
      <trkpt lat="47.47711" lon="6.76841">
        <ele>310.4</ele>
        <time>2017-10-01T07:12:47Z</time>
      </trkpt>
      <trkpt lat="47.47707" lon="6.76849">
        <ele>310.4</ele>
        <time>2017-10-01T07:12:48Z</time>
      </trkpt>
      <trkpt lat="47.47705" lon="6.76856">
        <ele>310.3</ele>
        <time>2017-10-01T07:12:49Z</time>
      </trkpt>
      <trkpt lat="47.47702" lon="6.76864">
        <ele>310.3</ele>
        <time>2017-10-01T07:12:50Z</time>
      </trkpt>
      <trkpt lat="47.477" lon="6.76872">
        <ele>310.3</ele>
        <time>2017-10-01T07:12:51Z</time>
      </trkpt>
      <trkpt lat="47.47697" lon="6.76878">
        <ele>310.3</ele>
        <time>2017-10-01T07:12:52Z</time>
      </trkpt>
      <trkpt lat="47.47695" lon="6.76886">
        <ele>310.3</ele>
        <time>2017-10-01T07:12:53Z</time>
      </trkpt>
      <trkpt lat="47.47693" lon="6.76893">
        <ele>310.3</ele>
        <time>2017-10-01T07:12:54Z</time>
      </trkpt>
      <trkpt lat="47.47691" lon="6.76898">
        <ele>310.3</ele>
        <time>2017-10-01T07:12:55Z</time>
      </trkpt>
      <trkpt lat="47.47689" lon="6.76903">
        <ele>310.4</ele>
        <time>2017-10-01T07:12:56Z</time>
      </trkpt>
      <trkpt lat="47.47688" lon="6.76907">
        <ele>310.4</ele>
        <time>2017-10-01T07:12:57Z</time>
      </trkpt>
      <trkpt lat="47.47686" lon="6.76911">
        <ele>310.4</ele>
        <time>2017-10-01T07:12:58Z</time>
      </trkpt>
      <trkpt lat="47.47684" lon="6.76917">
        <ele>310.5</ele>
        <time>2017-10-01T07:12:59Z</time>
      </trkpt>
      <trkpt lat="47.47682" lon="6.76925">
        <ele>310.6</ele>
        <time>2017-10-01T07:13:00Z</time>
      </trkpt>
      <trkpt lat="47.47679" lon="6.76934">
        <ele>310.7</ele>
        <time>2017-10-01T07:13:01Z</time>
      </trkpt>
      <trkpt lat="47.47676" lon="6.76941">
        <ele>310.7</ele>
        <time>2017-10-01T07:13:02Z</time>
      </trkpt>
      <trkpt lat="47.47674" lon="6.76949">
        <ele>310.8</ele>
        <time>2017-10-01T07:13:03Z</time>
      </trkpt>
      <trkpt lat="47.47672" lon="6.76957">
        <ele>310.9</ele>
        <time>2017-10-01T07:13:04Z</time>
      </trkpt>
      <trkpt lat="47.47669" lon="6.76964">
        <ele>311</ele>
        <time>2017-10-01T07:13:05Z</time>
      </trkpt>
      <trkpt lat="47.47667" lon="6.7697">
        <ele>311.2</ele>
        <time>2017-10-01T07:13:06Z</time>
      </trkpt>
      <trkpt lat="47.47664" lon="6.76976">
        <ele>311.5</ele>
        <time>2017-10-01T07:13:07Z</time>
      </trkpt>
      <trkpt lat="47.47662" lon="6.76981">
        <ele>311.8</ele>
        <time>2017-10-01T07:13:08Z</time>
      </trkpt>
      <trkpt lat="47.4766" lon="6.76986">
        <ele>312</ele>
        <time>2017-10-01T07:13:09Z</time>
      </trkpt>
      <trkpt lat="47.47658" lon="6.76992">
        <ele>312.2</ele>
        <time>2017-10-01T07:13:10Z</time>
      </trkpt>
      <trkpt lat="47.47656" lon="6.76997">
        <ele>312.4</ele>
        <time>2017-10-01T07:13:11Z</time>
      </trkpt>
      <trkpt lat="47.47654" lon="6.77003">
        <ele>312.5</ele>
        <time>2017-10-01T07:13:12Z</time>
      </trkpt>
      <trkpt lat="47.47653" lon="6.77008">
        <ele>312.6</ele>
        <time>2017-10-01T07:13:13Z</time>
      </trkpt>
      <trkpt lat="47.47652" lon="6.77013">
        <ele>312.7</ele>
        <time>2017-10-01T07:13:14Z</time>
      </trkpt>
      <trkpt lat="47.47651" lon="6.77017">
        <ele>312.8</ele>
        <time>2017-10-01T07:13:15Z</time>
      </trkpt>
      <trkpt lat="47.47651" lon="6.77022">
        <ele>312.9</ele>
        <time>2017-10-01T07:13:16Z</time>
      </trkpt>
      <trkpt lat="47.4765" lon="6.77026">
        <ele>312.9</ele>
        <time>2017-10-01T07:13:17Z</time>
      </trkpt>
      <trkpt lat="47.4765" lon="6.77031">
        <ele>313</ele>
        <time>2017-10-01T07:13:18Z</time>
      </trkpt>
      <trkpt lat="47.47649" lon="6.77035">
        <ele>313</ele>
        <time>2017-10-01T07:13:19Z</time>
      </trkpt>
      <trkpt lat="47.47649" lon="6.7704">
        <ele>313</ele>
        <time>2017-10-01T07:13:20Z</time>
      </trkpt>
      <trkpt lat="47.47648" lon="6.77045">
        <ele>313</ele>
        <time>2017-10-01T07:13:21Z</time>
      </trkpt>
      <trkpt lat="47.47647" lon="6.7705">
        <ele>313</ele>
        <time>2017-10-01T07:13:22Z</time>
      </trkpt>
      <trkpt lat="47.47646" lon="6.77056">
        <ele>313</ele>
        <time>2017-10-01T07:13:23Z</time>
      </trkpt>
      <trkpt lat="47.47646" lon="6.77062">
        <ele>312.9</ele>
        <time>2017-10-01T07:13:24Z</time>
      </trkpt>
      <trkpt lat="47.47645" lon="6.77065">
        <ele>312.8</ele>
        <time>2017-10-01T07:13:25Z</time>
      </trkpt>
      <trkpt lat="47.47645" lon="6.77071">
        <ele>312.5</ele>
        <time>2017-10-01T07:13:26Z</time>
      </trkpt>
      <trkpt lat="47.47644" lon="6.77077">
        <ele>312.3</ele>
        <time>2017-10-01T07:13:27Z</time>
      </trkpt>
      <trkpt lat="47.47643" lon="6.77083">
        <ele>312.1</ele>
        <time>2017-10-01T07:13:28Z</time>
      </trkpt>
      <trkpt lat="47.47642" lon="6.7709">
        <ele>311.9</ele>
        <time>2017-10-01T07:13:29Z</time>
      </trkpt>
      <trkpt lat="47.47641" lon="6.77097">
        <ele>311.7</ele>
        <time>2017-10-01T07:13:30Z</time>
      </trkpt>
      <trkpt lat="47.47641" lon="6.77102">
        <ele>311.5</ele>
        <time>2017-10-01T07:13:31Z</time>
      </trkpt>
      <trkpt lat="47.4764" lon="6.7711">
        <ele>311.2</ele>
        <time>2017-10-01T07:13:32Z</time>
      </trkpt>
      <trkpt lat="47.47639" lon="6.77118">
        <ele>310.9</ele>
        <time>2017-10-01T07:13:33Z</time>
      </trkpt>
      <trkpt lat="47.47637" lon="6.77127">
        <ele>310.6</ele>
        <time>2017-10-01T07:13:34Z</time>
      </trkpt>
      <trkpt lat="47.47635" lon="6.77136">
        <ele>310.3</ele>
        <time>2017-10-01T07:13:35Z</time>
      </trkpt>
      <trkpt lat="47.47631" lon="6.77145">
        <ele>310.1</ele>
        <time>2017-10-01T07:13:36Z</time>
      </trkpt>
      <trkpt lat="47.47627" lon="6.77154">
        <ele>309.9</ele>
        <time>2017-10-01T07:13:37Z</time>
      </trkpt>
      <trkpt lat="47.47623" lon="6.77163">
        <ele>309.7</ele>
        <time>2017-10-01T07:13:38Z</time>
      </trkpt>
      <trkpt lat="47.47618" lon="6.77173">
        <ele>309.5</ele>
        <time>2017-10-01T07:13:39Z</time>
      </trkpt>
      <trkpt lat="47.47614" lon="6.77183">
        <ele>309.2</ele>
        <time>2017-10-01T07:13:40Z</time>
      </trkpt>
      <trkpt lat="47.47607" lon="6.77187">
        <ele>309.1</ele>
        <time>2017-10-01T07:13:41Z</time>
      </trkpt>
      <trkpt lat="47.47602" lon="6.77186">
        <ele>309.2</ele>
        <time>2017-10-01T07:13:42Z</time>
      </trkpt>
      <trkpt lat="47.47597" lon="6.77182">
        <ele>309.3</ele>
        <time>2017-10-01T07:13:43Z</time>
      </trkpt>
      <trkpt lat="47.47592" lon="6.77177">
        <ele>309.4</ele>
        <time>2017-10-01T07:13:44Z</time>
      </trkpt>
      <trkpt lat="47.47586" lon="6.77173">
        <ele>309.5</ele>
        <time>2017-10-01T07:13:45Z</time>
      </trkpt>
      <trkpt lat="47.4758" lon="6.77168">
        <ele>309.6</ele>
        <time>2017-10-01T07:13:46Z</time>
      </trkpt>
      <trkpt lat="47.47574" lon="6.77164">
        <ele>309.8</ele>
        <time>2017-10-01T07:13:47Z</time>
      </trkpt>
      <trkpt lat="47.47569" lon="6.77159">
        <ele>309.9</ele>
        <time>2017-10-01T07:13:48Z</time>
      </trkpt>
      <trkpt lat="47.47563" lon="6.77155">
        <ele>310</ele>
        <time>2017-10-01T07:13:49Z</time>
      </trkpt>
      <trkpt lat="47.47558" lon="6.77151">
        <ele>310.1</ele>
        <time>2017-10-01T07:13:50Z</time>
      </trkpt>
      <trkpt lat="47.47552" lon="6.77147">
        <ele>310.3</ele>
        <time>2017-10-01T07:13:51Z</time>
      </trkpt>
      <trkpt lat="47.47547" lon="6.77144">
        <ele>310.4</ele>
        <time>2017-10-01T07:13:52Z</time>
      </trkpt>
      <trkpt lat="47.47543" lon="6.77141">
        <ele>310.6</ele>
        <time>2017-10-01T07:13:53Z</time>
      </trkpt>
      <trkpt lat="47.47538" lon="6.77138">
        <ele>310.7</ele>
        <time>2017-10-01T07:13:54Z</time>
      </trkpt>
      <trkpt lat="47.47533" lon="6.77137">
        <ele>310.9</ele>
        <time>2017-10-01T07:13:55Z</time>
      </trkpt>
      <trkpt lat="47.47528" lon="6.77141">
        <ele>310.8</ele>
        <time>2017-10-01T07:13:56Z</time>
      </trkpt>
      <trkpt lat="47.47523" lon="6.77145">
        <ele>310.4</ele>
        <time>2017-10-01T07:13:57Z</time>
      </trkpt>
      <trkpt lat="47.47519" lon="6.77148">
        <ele>310.1</ele>
        <time>2017-10-01T07:13:58Z</time>
      </trkpt>
      <trkpt lat="47.47517" lon="6.77153">
        <ele>309.8</ele>
        <time>2017-10-01T07:13:59Z</time>
      </trkpt>
      <trkpt lat="47.47516" lon="6.77163">
        <ele>309.2</ele>
        <time>2017-10-01T07:14:00Z</time>
      </trkpt>
      <trkpt lat="47.47517" lon="6.77172">
        <ele>309</ele>
        <time>2017-10-01T07:14:01Z</time>
      </trkpt>
      <trkpt lat="47.47521" lon="6.7718">
        <ele>309</ele>
        <time>2017-10-01T07:14:02Z</time>
      </trkpt>
      <trkpt lat="47.47526" lon="6.77185">
        <ele>309</ele>
        <time>2017-10-01T07:14:03Z</time>
      </trkpt>
      <trkpt lat="47.47529" lon="6.77187">
        <ele>309</ele>
        <time>2017-10-01T07:14:04Z</time>
      </trkpt>
      <trkpt lat="47.47533" lon="6.7719">
        <ele>309</ele>
        <time>2017-10-01T07:14:05Z</time>
      </trkpt>
      <trkpt lat="47.47538" lon="6.77194">
        <ele>309.1</ele>
        <time>2017-10-01T07:14:06Z</time>
      </trkpt>
      <trkpt lat="47.47542" lon="6.77196">
        <ele>309.1</ele>
        <time>2017-10-01T07:14:07Z</time>
      </trkpt>
      <trkpt lat="47.47547" lon="6.772">
        <ele>309.2</ele>
        <time>2017-10-01T07:14:08Z</time>
      </trkpt>
      <trkpt lat="47.47552" lon="6.77203">
        <ele>309.2</ele>
        <time>2017-10-01T07:14:09Z</time>
      </trkpt>
      <trkpt lat="47.47556" lon="6.77206">
        <ele>309.3</ele>
        <time>2017-10-01T07:14:10Z</time>
      </trkpt>
      <trkpt lat="47.47561" lon="6.77209">
        <ele>309.3</ele>
        <time>2017-10-01T07:14:11Z</time>
      </trkpt>
      <trkpt lat="47.47567" lon="6.77214">
        <ele>309.4</ele>
        <time>2017-10-01T07:14:12Z</time>
      </trkpt>
      <trkpt lat="47.47572" lon="6.77218">
        <ele>309.4</ele>
        <time>2017-10-01T07:14:13Z</time>
      </trkpt>
      <trkpt lat="47.47577" lon="6.77221">
        <ele>309.5</ele>
        <time>2017-10-01T07:14:14Z</time>
      </trkpt>
      <trkpt lat="47.47581" lon="6.77225">
        <ele>309.5</ele>
        <time>2017-10-01T07:14:15Z</time>
      </trkpt>
      <trkpt lat="47.47585" lon="6.77229">
        <ele>309.6</ele>
        <time>2017-10-01T07:14:16Z</time>
      </trkpt>
      <trkpt lat="47.4759" lon="6.77234">
        <ele>309.6</ele>
        <time>2017-10-01T07:14:17Z</time>
      </trkpt>
      <trkpt lat="47.47594" lon="6.77237">
        <ele>309.7</ele>
        <time>2017-10-01T07:14:18Z</time>
      </trkpt>
      <trkpt lat="47.47599" lon="6.77241">
        <ele>309.7</ele>
        <time>2017-10-01T07:14:19Z</time>
      </trkpt>
      <trkpt lat="47.47603" lon="6.77245">
        <ele>309.8</ele>
        <time>2017-10-01T07:14:20Z</time>
      </trkpt>
      <trkpt lat="47.47608" lon="6.77249">
        <ele>309.8</ele>
        <time>2017-10-01T07:14:21Z</time>
      </trkpt>
      <trkpt lat="47.47612" lon="6.77253">
        <ele>309.9</ele>
        <time>2017-10-01T07:14:22Z</time>
      </trkpt>
      <trkpt lat="47.47616" lon="6.77256">
        <ele>310</ele>
        <time>2017-10-01T07:14:23Z</time>
      </trkpt>
      <trkpt lat="47.47621" lon="6.7726">
        <ele>310.1</ele>
        <time>2017-10-01T07:14:24Z</time>
      </trkpt>
      <trkpt lat="47.47626" lon="6.77264">
        <ele>310.1</ele>
        <time>2017-10-01T07:14:25Z</time>
      </trkpt>
      <trkpt lat="47.47631" lon="6.77268">
        <ele>310.3</ele>
        <time>2017-10-01T07:14:26Z</time>
      </trkpt>
      <trkpt lat="47.47635" lon="6.77273">
        <ele>310.4</ele>
        <time>2017-10-01T07:14:27Z</time>
      </trkpt>
      <trkpt lat="47.47638" lon="6.7728">
        <ele>310.5</ele>
        <time>2017-10-01T07:14:28Z</time>
      </trkpt>
      <trkpt lat="47.4764" lon="6.77289">
        <ele>310.8</ele>
        <time>2017-10-01T07:14:29Z</time>
      </trkpt>
      <trkpt lat="47.4764" lon="6.77296">
        <ele>311.1</ele>
        <time>2017-10-01T07:14:30Z</time>
      </trkpt>
      <trkpt lat="47.47638" lon="6.77302">
        <ele>311.4</ele>
        <time>2017-10-01T07:14:31Z</time>
      </trkpt>
      <trkpt lat="47.47636" lon="6.7731">
        <ele>311.7</ele>
        <time>2017-10-01T07:14:32Z</time>
      </trkpt>
      <trkpt lat="47.47635" lon="6.77316">
        <ele>312.1</ele>
        <time>2017-10-01T07:14:33Z</time>
      </trkpt>
      <trkpt lat="47.47633" lon="6.77323">
        <ele>312.3</ele>
        <time>2017-10-01T07:14:34Z</time>
      </trkpt>
      <trkpt lat="47.4763" lon="6.77329">
        <ele>312.4</ele>
        <time>2017-10-01T07:14:35Z</time>
      </trkpt>
      <trkpt lat="47.47627" lon="6.77336">
        <ele>312.5</ele>
        <time>2017-10-01T07:14:36Z</time>
      </trkpt>
      <trkpt lat="47.47625" lon="6.77342">
        <ele>312.6</ele>
        <time>2017-10-01T07:14:37Z</time>
      </trkpt>
      <trkpt lat="47.47623" lon="6.77348">
        <ele>312.7</ele>
        <time>2017-10-01T07:14:38Z</time>
      </trkpt>
      <trkpt lat="47.47621" lon="6.77355">
        <ele>312.8</ele>
        <time>2017-10-01T07:14:39Z</time>
      </trkpt>
      <trkpt lat="47.47619" lon="6.77361">
        <ele>312.9</ele>
        <time>2017-10-01T07:14:40Z</time>
      </trkpt>
      <trkpt lat="47.47617" lon="6.77368">
        <ele>312.9</ele>
        <time>2017-10-01T07:14:41Z</time>
      </trkpt>
      <trkpt lat="47.47615" lon="6.77375">
        <ele>313</ele>
        <time>2017-10-01T07:14:42Z</time>
      </trkpt>
      <trkpt lat="47.47613" lon="6.77381">
        <ele>313.1</ele>
        <time>2017-10-01T07:14:43Z</time>
      </trkpt>
      <trkpt lat="47.47611" lon="6.77388">
        <ele>313.2</ele>
        <time>2017-10-01T07:14:44Z</time>
      </trkpt>
      <trkpt lat="47.47609" lon="6.77394">
        <ele>313.3</ele>
        <time>2017-10-01T07:14:45Z</time>
      </trkpt>
      <trkpt lat="47.47608" lon="6.774">
        <ele>313.4</ele>
        <time>2017-10-01T07:14:46Z</time>
      </trkpt>
      <trkpt lat="47.47606" lon="6.77405">
        <ele>313.4</ele>
        <time>2017-10-01T07:14:47Z</time>
      </trkpt>
      <trkpt lat="47.47603" lon="6.77412">
        <ele>313.5</ele>
        <time>2017-10-01T07:14:48Z</time>
      </trkpt>
      <trkpt lat="47.47601" lon="6.7742">
        <ele>313.6</ele>
        <time>2017-10-01T07:14:49Z</time>
      </trkpt>
      <trkpt lat="47.47598" lon="6.77428">
        <ele>313.7</ele>
        <time>2017-10-01T07:14:50Z</time>
      </trkpt>
      <trkpt lat="47.47595" lon="6.77436">
        <ele>313.8</ele>
        <time>2017-10-01T07:14:51Z</time>
      </trkpt>
      <trkpt lat="47.47593" lon="6.77442">
        <ele>313.9</ele>
        <time>2017-10-01T07:14:52Z</time>
      </trkpt>
      <trkpt lat="47.47592" lon="6.77448">
        <ele>313.9</ele>
        <time>2017-10-01T07:14:53Z</time>
      </trkpt>
      <trkpt lat="47.47593" lon="6.77453">
        <ele>314.1</ele>
        <time>2017-10-01T07:14:54Z</time>
      </trkpt>
      <trkpt lat="47.47595" lon="6.77458">
        <ele>314.1</ele>
        <time>2017-10-01T07:14:55Z</time>
      </trkpt>
      <trkpt lat="47.47598" lon="6.77462">
        <ele>314.2</ele>
        <time>2017-10-01T07:14:56Z</time>
      </trkpt>
      <trkpt lat="47.47601" lon="6.77467">
        <ele>314.2</ele>
        <time>2017-10-01T07:14:57Z</time>
      </trkpt>
      <trkpt lat="47.47604" lon="6.77471">
        <ele>314.3</ele>
        <time>2017-10-01T07:14:58Z</time>
      </trkpt>
      <trkpt lat="47.47607" lon="6.77475">
        <ele>314.3</ele>
        <time>2017-10-01T07:14:59Z</time>
      </trkpt>
      <trkpt lat="47.4761" lon="6.77479">
        <ele>314.3</ele>
        <time>2017-10-01T07:15:00Z</time>
      </trkpt>
      <trkpt lat="47.47613" lon="6.77483">
        <ele>314.3</ele>
        <time>2017-10-01T07:15:01Z</time>
      </trkpt>
      <trkpt lat="47.47617" lon="6.77488">
        <ele>314.1</ele>
        <time>2017-10-01T07:15:02Z</time>
      </trkpt>
      <trkpt lat="47.4762" lon="6.77492">
        <ele>314</ele>
        <time>2017-10-01T07:15:03Z</time>
      </trkpt>
      <trkpt lat="47.47624" lon="6.77496">
        <ele>313.8</ele>
        <time>2017-10-01T07:15:04Z</time>
      </trkpt>
      <trkpt lat="47.47628" lon="6.77501">
        <ele>313.7</ele>
        <time>2017-10-01T07:15:05Z</time>
      </trkpt>
      <trkpt lat="47.47632" lon="6.77505">
        <ele>313.6</ele>
        <time>2017-10-01T07:15:06Z</time>
      </trkpt>
      <trkpt lat="47.47636" lon="6.7751">
        <ele>313.7</ele>
        <time>2017-10-01T07:15:07Z</time>
      </trkpt>
      <trkpt lat="47.4764" lon="6.77515">
        <ele>313.8</ele>
        <time>2017-10-01T07:15:08Z</time>
      </trkpt>
      <trkpt lat="47.47644" lon="6.77521">
        <ele>314</ele>
        <time>2017-10-01T07:15:09Z</time>
      </trkpt>
      <trkpt lat="47.47647" lon="6.77525">
        <ele>314.1</ele>
        <time>2017-10-01T07:15:10Z</time>
      </trkpt>
      <trkpt lat="47.47651" lon="6.77531">
        <ele>314.2</ele>
        <time>2017-10-01T07:15:11Z</time>
      </trkpt>
      <trkpt lat="47.47655" lon="6.77537">
        <ele>314.2</ele>
        <time>2017-10-01T07:15:12Z</time>
      </trkpt>
      <trkpt lat="47.47658" lon="6.77543">
        <ele>314.1</ele>
        <time>2017-10-01T07:15:13Z</time>
      </trkpt>
      <trkpt lat="47.47662" lon="6.77548">
        <ele>314.1</ele>
        <time>2017-10-01T07:15:14Z</time>
      </trkpt>
      <trkpt lat="47.47666" lon="6.77554">
        <ele>314.1</ele>
        <time>2017-10-01T07:15:15Z</time>
      </trkpt>
      <trkpt lat="47.47669" lon="6.77559">
        <ele>314.1</ele>
        <time>2017-10-01T07:15:16Z</time>
      </trkpt>
      <trkpt lat="47.47673" lon="6.77564">
        <ele>314</ele>
        <time>2017-10-01T07:15:17Z</time>
      </trkpt>
      <trkpt lat="47.47676" lon="6.77569">
        <ele>314</ele>
        <time>2017-10-01T07:15:18Z</time>
      </trkpt>
      <trkpt lat="47.4768" lon="6.77574">
        <ele>314</ele>
        <time>2017-10-01T07:15:19Z</time>
      </trkpt>
      <trkpt lat="47.47683" lon="6.77579">
        <ele>314</ele>
        <time>2017-10-01T07:15:20Z</time>
      </trkpt>
      <trkpt lat="47.47687" lon="6.77586">
        <ele>314.1</ele>
        <time>2017-10-01T07:15:21Z</time>
      </trkpt>
      <trkpt lat="47.47691" lon="6.77591">
        <ele>314.2</ele>
        <time>2017-10-01T07:15:22Z</time>
      </trkpt>
      <trkpt lat="47.47693" lon="6.77597">
        <ele>314.2</ele>
        <time>2017-10-01T07:15:23Z</time>
      </trkpt>
      <trkpt lat="47.47696" lon="6.77605">
        <ele>314.3</ele>
        <time>2017-10-01T07:15:24Z</time>
      </trkpt>
      <trkpt lat="47.47698" lon="6.77612">
        <ele>314.3</ele>
        <time>2017-10-01T07:15:25Z</time>
      </trkpt>
      <trkpt lat="47.47699" lon="6.77619">
        <ele>314.4</ele>
        <time>2017-10-01T07:15:26Z</time>
      </trkpt>
      <trkpt lat="47.477" lon="6.77627">
        <ele>314.5</ele>
        <time>2017-10-01T07:15:27Z</time>
      </trkpt>
      <trkpt lat="47.47701" lon="6.77634">
        <ele>314.6</ele>
        <time>2017-10-01T07:15:28Z</time>
      </trkpt>
      <trkpt lat="47.47702" lon="6.77641">
        <ele>314.7</ele>
        <time>2017-10-01T07:15:29Z</time>
      </trkpt>
      <trkpt lat="47.47703" lon="6.77647">
        <ele>314.7</ele>
        <time>2017-10-01T07:15:30Z</time>
      </trkpt>
      <trkpt lat="47.47704" lon="6.77652">
        <ele>314.8</ele>
        <time>2017-10-01T07:15:31Z</time>
      </trkpt>
      <trkpt lat="47.47706" lon="6.77658">
        <ele>314.9</ele>
        <time>2017-10-01T07:15:32Z</time>
      </trkpt>
      <trkpt lat="47.47707" lon="6.77664">
        <ele>315</ele>
        <time>2017-10-01T07:15:33Z</time>
      </trkpt>
      <trkpt lat="47.47709" lon="6.7767">
        <ele>315.1</ele>
        <time>2017-10-01T07:15:34Z</time>
      </trkpt>
      <trkpt lat="47.4771" lon="6.77677">
        <ele>315.3</ele>
        <time>2017-10-01T07:15:35Z</time>
      </trkpt>
      <trkpt lat="47.47712" lon="6.77684">
        <ele>315.4</ele>
        <time>2017-10-01T07:15:36Z</time>
      </trkpt>
      <trkpt lat="47.47714" lon="6.77691">
        <ele>315.6</ele>
        <time>2017-10-01T07:15:37Z</time>
      </trkpt>
      <trkpt lat="47.47716" lon="6.77697">
        <ele>315.8</ele>
        <time>2017-10-01T07:15:38Z</time>
      </trkpt>
      <trkpt lat="47.47718" lon="6.77703">
        <ele>316</ele>
        <time>2017-10-01T07:15:39Z</time>
      </trkpt>
      <trkpt lat="47.47717" lon="6.7771">
        <ele>316</ele>
        <time>2017-10-01T07:15:40Z</time>
      </trkpt>
      <trkpt lat="47.47714" lon="6.77716">
        <ele>316</ele>
        <time>2017-10-01T07:15:41Z</time>
      </trkpt>
      <trkpt lat="47.47713" lon="6.77722">
        <ele>316</ele>
        <time>2017-10-01T07:15:42Z</time>
      </trkpt>
      <trkpt lat="47.47711" lon="6.77727">
        <ele>316</ele>
        <time>2017-10-01T07:15:43Z</time>
      </trkpt>
      <trkpt lat="47.47709" lon="6.77732">
        <ele>316</ele>
        <time>2017-10-01T07:15:44Z</time>
      </trkpt>
      <trkpt lat="47.47708" lon="6.77737">
        <ele>316</ele>
        <time>2017-10-01T07:15:45Z</time>
      </trkpt>
      <trkpt lat="47.47707" lon="6.77743">
        <ele>316</ele>
        <time>2017-10-01T07:15:46Z</time>
      </trkpt>
      <trkpt lat="47.47706" lon="6.7775">
        <ele>316</ele>
        <time>2017-10-01T07:15:47Z</time>
      </trkpt>
      <trkpt lat="47.47705" lon="6.77756">
        <ele>316.2</ele>
        <time>2017-10-01T07:15:48Z</time>
      </trkpt>
      <trkpt lat="47.47705" lon="6.7776">
        <ele>316.2</ele>
        <time>2017-10-01T07:15:49Z</time>
      </trkpt>
      <trkpt lat="47.47704" lon="6.77764">
        <ele>316.3</ele>
        <time>2017-10-01T07:15:50Z</time>
      </trkpt>
      <trkpt lat="47.47704" lon="6.77769">
        <ele>316.4</ele>
        <time>2017-10-01T07:15:51Z</time>
      </trkpt>
      <trkpt lat="47.47704" lon="6.77776">
        <ele>316.5</ele>
        <time>2017-10-01T07:15:52Z</time>
      </trkpt>
      <trkpt lat="47.47704" lon="6.77781">
        <ele>316.6</ele>
        <time>2017-10-01T07:15:53Z</time>
      </trkpt>
      <trkpt lat="47.47703" lon="6.77787">
        <ele>316.7</ele>
        <time>2017-10-01T07:15:54Z</time>
      </trkpt>
      <trkpt lat="47.47703" lon="6.77794">
        <ele>316.7</ele>
        <time>2017-10-01T07:15:55Z</time>
      </trkpt>
      <trkpt lat="47.47703" lon="6.778">
        <ele>316.8</ele>
        <time>2017-10-01T07:15:56Z</time>
      </trkpt>
      <trkpt lat="47.47702" lon="6.77806">
        <ele>316.9</ele>
        <time>2017-10-01T07:15:57Z</time>
      </trkpt>
      <trkpt lat="47.47702" lon="6.77811">
        <ele>316.9</ele>
        <time>2017-10-01T07:15:58Z</time>
      </trkpt>
      <trkpt lat="47.47702" lon="6.77816">
        <ele>317</ele>
        <time>2017-10-01T07:15:59Z</time>
      </trkpt>
      <trkpt lat="47.47702" lon="6.77821">
        <ele>317</ele>
        <time>2017-10-01T07:16:00Z</time>
      </trkpt>
      <trkpt lat="47.47702" lon="6.77828">
        <ele>317.1</ele>
        <time>2017-10-01T07:16:01Z</time>
      </trkpt>
      <trkpt lat="47.47702" lon="6.77835">
        <ele>317.1</ele>
        <time>2017-10-01T07:16:02Z</time>
      </trkpt>
      <trkpt lat="47.47702" lon="6.77841">
        <ele>317.3</ele>
        <time>2017-10-01T07:16:03Z</time>
      </trkpt>
      <trkpt lat="47.47702" lon="6.77847">
        <ele>317.4</ele>
        <time>2017-10-01T07:16:04Z</time>
      </trkpt>
      <trkpt lat="47.47701" lon="6.77853">
        <ele>317.5</ele>
        <time>2017-10-01T07:16:05Z</time>
      </trkpt>
      <trkpt lat="47.47702" lon="6.77859">
        <ele>317.7</ele>
        <time>2017-10-01T07:16:06Z</time>
      </trkpt>
      <trkpt lat="47.47703" lon="6.77864">
        <ele>317.8</ele>
        <time>2017-10-01T07:16:07Z</time>
      </trkpt>
      <trkpt lat="47.47704" lon="6.77869">
        <ele>317.9</ele>
        <time>2017-10-01T07:16:08Z</time>
      </trkpt>
      <trkpt lat="47.47705" lon="6.77874">
        <ele>318</ele>
        <time>2017-10-01T07:16:09Z</time>
      </trkpt>
      <trkpt lat="47.47705" lon="6.7788">
        <ele>318.1</ele>
        <time>2017-10-01T07:16:10Z</time>
      </trkpt>
      <trkpt lat="47.47707" lon="6.77885">
        <ele>318.1</ele>
        <time>2017-10-01T07:16:11Z</time>
      </trkpt>
      <trkpt lat="47.47707" lon="6.77889">
        <ele>318.2</ele>
        <time>2017-10-01T07:16:12Z</time>
      </trkpt>
      <trkpt lat="47.47708" lon="6.77894">
        <ele>318.2</ele>
        <time>2017-10-01T07:16:13Z</time>
      </trkpt>
      <trkpt lat="47.47708" lon="6.779">
        <ele>318.3</ele>
        <time>2017-10-01T07:16:14Z</time>
      </trkpt>
      <trkpt lat="47.47709" lon="6.77906">
        <ele>318.4</ele>
        <time>2017-10-01T07:16:15Z</time>
      </trkpt>
      <trkpt lat="47.4771" lon="6.77912">
        <ele>318.4</ele>
        <time>2017-10-01T07:16:16Z</time>
      </trkpt>
      <trkpt lat="47.4771" lon="6.77918">
        <ele>318.6</ele>
        <time>2017-10-01T07:16:17Z</time>
      </trkpt>
      <trkpt lat="47.47711" lon="6.77923">
        <ele>318.7</ele>
        <time>2017-10-01T07:16:18Z</time>
      </trkpt>
      <trkpt lat="47.47712" lon="6.77929">
        <ele>318.8</ele>
        <time>2017-10-01T07:16:19Z</time>
      </trkpt>
      <trkpt lat="47.47713" lon="6.77934">
        <ele>318.9</ele>
        <time>2017-10-01T07:16:20Z</time>
      </trkpt>
      <trkpt lat="47.47715" lon="6.77941">
        <ele>319</ele>
        <time>2017-10-01T07:16:21Z</time>
      </trkpt>
      <trkpt lat="47.47716" lon="6.77948">
        <ele>319.2</ele>
        <time>2017-10-01T07:16:22Z</time>
      </trkpt>
      <trkpt lat="47.47716" lon="6.77953">
        <ele>319.3</ele>
        <time>2017-10-01T07:16:23Z</time>
      </trkpt>
      <trkpt lat="47.47716" lon="6.77959">
        <ele>319.4</ele>
        <time>2017-10-01T07:16:24Z</time>
      </trkpt>
      <trkpt lat="47.47716" lon="6.77965">
        <ele>319.5</ele>
        <time>2017-10-01T07:16:25Z</time>
      </trkpt>
      <trkpt lat="47.47717" lon="6.7797">
        <ele>319.6</ele>
        <time>2017-10-01T07:16:26Z</time>
      </trkpt>
      <trkpt lat="47.47718" lon="6.77975">
        <ele>319.7</ele>
        <time>2017-10-01T07:16:27Z</time>
      </trkpt>
      <trkpt lat="47.47719" lon="6.77981">
        <ele>319.8</ele>
        <time>2017-10-01T07:16:28Z</time>
      </trkpt>
      <trkpt lat="47.4772" lon="6.77987">
        <ele>319.9</ele>
        <time>2017-10-01T07:16:29Z</time>
      </trkpt>
      <trkpt lat="47.47721" lon="6.77993">
        <ele>320.1</ele>
        <time>2017-10-01T07:16:30Z</time>
      </trkpt>
      <trkpt lat="47.47722" lon="6.77998">
        <ele>320.4</ele>
        <time>2017-10-01T07:16:31Z</time>
      </trkpt>
      <trkpt lat="47.47723" lon="6.78004">
        <ele>320.7</ele>
        <time>2017-10-01T07:16:32Z</time>
      </trkpt>
      <trkpt lat="47.47724" lon="6.7801">
        <ele>321.1</ele>
        <time>2017-10-01T07:16:33Z</time>
      </trkpt>
      <trkpt lat="47.47725" lon="6.78016">
        <ele>321.4</ele>
        <time>2017-10-01T07:16:34Z</time>
      </trkpt>
      <trkpt lat="47.47726" lon="6.78021">
        <ele>321.7</ele>
        <time>2017-10-01T07:16:35Z</time>
      </trkpt>
      <trkpt lat="47.47725" lon="6.78028">
        <ele>322.1</ele>
        <time>2017-10-01T07:16:36Z</time>
      </trkpt>
      <trkpt lat="47.47725" lon="6.78033">
        <ele>322.4</ele>
        <time>2017-10-01T07:16:37Z</time>
      </trkpt>
      <trkpt lat="47.47725" lon="6.78038">
        <ele>322.7</ele>
        <time>2017-10-01T07:16:38Z</time>
      </trkpt>
      <trkpt lat="47.47725" lon="6.78044">
        <ele>323.1</ele>
        <time>2017-10-01T07:16:39Z</time>
      </trkpt>
      <trkpt lat="47.47725" lon="6.7805">
        <ele>323.4</ele>
        <time>2017-10-01T07:16:40Z</time>
      </trkpt>
      <trkpt lat="47.47726" lon="6.78056">
        <ele>323.8</ele>
        <time>2017-10-01T07:16:41Z</time>
      </trkpt>
      <trkpt lat="47.47726" lon="6.78063">
        <ele>324.2</ele>
        <time>2017-10-01T07:16:42Z</time>
      </trkpt>
      <trkpt lat="47.47725" lon="6.78067">
        <ele>324.5</ele>
        <time>2017-10-01T07:16:43Z</time>
      </trkpt>
      <trkpt lat="47.47724" lon="6.78071">
        <ele>324.8</ele>
        <time>2017-10-01T07:16:44Z</time>
      </trkpt>
      <trkpt lat="47.47723" lon="6.78075">
        <ele>325</ele>
        <time>2017-10-01T07:16:45Z</time>
      </trkpt>
      <trkpt lat="47.47722" lon="6.7808">
        <ele>325.3</ele>
        <time>2017-10-01T07:16:46Z</time>
      </trkpt>
      <trkpt lat="47.4772" lon="6.78084">
        <ele>325.6</ele>
        <time>2017-10-01T07:16:47Z</time>
      </trkpt>
      <trkpt lat="47.47719" lon="6.78088">
        <ele>326</ele>
        <time>2017-10-01T07:16:48Z</time>
      </trkpt>
      <trkpt lat="47.47717" lon="6.78093">
        <ele>326</ele>
        <time>2017-10-01T07:16:49Z</time>
      </trkpt>
      <trkpt lat="47.47715" lon="6.78098">
        <ele>326.1</ele>
        <time>2017-10-01T07:16:50Z</time>
      </trkpt>
      <trkpt lat="47.47714" lon="6.78102">
        <ele>326.1</ele>
        <time>2017-10-01T07:16:51Z</time>
      </trkpt>
      <trkpt lat="47.47712" lon="6.78106">
        <ele>326.1</ele>
        <time>2017-10-01T07:16:52Z</time>
      </trkpt>
      <trkpt lat="47.47711" lon="6.78109">
        <ele>326.1</ele>
        <time>2017-10-01T07:16:53Z</time>
      </trkpt>
      <trkpt lat="47.4771" lon="6.78113">
        <ele>326.1</ele>
        <time>2017-10-01T07:16:54Z</time>
      </trkpt>
      <trkpt lat="47.47708" lon="6.78118">
        <ele>326.1</ele>
        <time>2017-10-01T07:16:56Z</time>
      </trkpt>
      <trkpt lat="47.47706" lon="6.78121">
        <ele>326.1</ele>
        <time>2017-10-01T07:16:57Z</time>
      </trkpt>
      <trkpt lat="47.47705" lon="6.78124">
        <ele>326.1</ele>
        <time>2017-10-01T07:16:58Z</time>
      </trkpt>
      <trkpt lat="47.47703" lon="6.78127">
        <ele>326.1</ele>
        <time>2017-10-01T07:16:59Z</time>
      </trkpt>
      <trkpt lat="47.47702" lon="6.78131">
        <ele>326.1</ele>
        <time>2017-10-01T07:17:00Z</time>
      </trkpt>
      <trkpt lat="47.477" lon="6.78134">
        <ele>326.1</ele>
        <time>2017-10-01T07:17:01Z</time>
      </trkpt>
      <trkpt lat="47.47698" lon="6.78139">
        <ele>326.1</ele>
        <time>2017-10-01T07:17:03Z</time>
      </trkpt>
      <trkpt lat="47.47697" lon="6.78142">
        <ele>326.1</ele>
        <time>2017-10-01T07:17:04Z</time>
      </trkpt>
      <trkpt lat="47.47696" lon="6.78145">
        <ele>326.1</ele>
        <time>2017-10-01T07:17:05Z</time>
      </trkpt>
      <trkpt lat="47.47695" lon="6.78149">
        <ele>326.1</ele>
        <time>2017-10-01T07:17:06Z</time>
      </trkpt>
      <trkpt lat="47.47694" lon="6.78152">
        <ele>326</ele>
        <time>2017-10-01T07:17:07Z</time>
      </trkpt>
      <trkpt lat="47.47693" lon="6.78156">
        <ele>326</ele>
        <time>2017-10-01T07:17:08Z</time>
      </trkpt>
      <trkpt lat="47.47693" lon="6.7816">
        <ele>326</ele>
        <time>2017-10-01T07:17:09Z</time>
      </trkpt>
      <trkpt lat="47.47692" lon="6.78163">
        <ele>326.3</ele>
        <time>2017-10-01T07:17:10Z</time>
      </trkpt>
      <trkpt lat="47.4769" lon="6.7817">
        <ele>326.8</ele>
        <time>2017-10-01T07:17:12Z</time>
      </trkpt>
      <trkpt lat="47.47689" lon="6.78173">
        <ele>327.2</ele>
        <time>2017-10-01T07:17:13Z</time>
      </trkpt>
      <trkpt lat="47.47687" lon="6.78179">
        <ele>327.7</ele>
        <time>2017-10-01T07:17:15Z</time>
      </trkpt>
      <trkpt lat="47.47687" lon="6.78182">
        <ele>328</ele>
        <time>2017-10-01T07:17:16Z</time>
      </trkpt>
      <trkpt lat="47.47686" lon="6.78186">
        <ele>328.4</ele>
        <time>2017-10-01T07:17:17Z</time>
      </trkpt>
      <trkpt lat="47.47686" lon="6.7819">
        <ele>328.8</ele>
        <time>2017-10-01T07:17:18Z</time>
      </trkpt>
      <trkpt lat="47.47685" lon="6.78196">
        <ele>329.3</ele>
        <time>2017-10-01T07:17:20Z</time>
      </trkpt>
      <trkpt lat="47.47685" lon="6.78199">
        <ele>329.6</ele>
        <time>2017-10-01T07:17:21Z</time>
      </trkpt>
      <trkpt lat="47.47685" lon="6.78203">
        <ele>329.9</ele>
        <time>2017-10-01T07:17:22Z</time>
      </trkpt>
      <trkpt lat="47.47686" lon="6.78206">
        <ele>330.2</ele>
        <time>2017-10-01T07:17:23Z</time>
      </trkpt>
      <trkpt lat="47.47686" lon="6.78209">
        <ele>330.4</ele>
        <time>2017-10-01T07:17:24Z</time>
      </trkpt>
      <trkpt lat="47.47686" lon="6.78213">
        <ele>330.7</ele>
        <time>2017-10-01T07:17:25Z</time>
      </trkpt>
      <trkpt lat="47.47687" lon="6.78216">
        <ele>331.1</ele>
        <time>2017-10-01T07:17:26Z</time>
      </trkpt>
      <trkpt lat="47.47687" lon="6.78219">
        <ele>331.3</ele>
        <time>2017-10-01T07:17:27Z</time>
      </trkpt>
      <trkpt lat="47.47688" lon="6.78223">
        <ele>331.6</ele>
        <time>2017-10-01T07:17:28Z</time>
      </trkpt>
      <trkpt lat="47.4769" lon="6.78225">
        <ele>331.9</ele>
        <time>2017-10-01T07:17:29Z</time>
      </trkpt>
      <trkpt lat="47.47692" lon="6.7823">
        <ele>332.4</ele>
        <time>2017-10-01T07:17:31Z</time>
      </trkpt>
      <trkpt lat="47.47692" lon="6.78233">
        <ele>332.6</ele>
        <time>2017-10-01T07:17:32Z</time>
      </trkpt>
      <trkpt lat="47.47693" lon="6.78239">
        <ele>333.1</ele>
        <time>2017-10-01T07:17:34Z</time>
      </trkpt>
      <trkpt lat="47.47694" lon="6.78241">
        <ele>333.3</ele>
        <time>2017-10-01T07:17:35Z</time>
      </trkpt>
      <trkpt lat="47.47695" lon="6.78246">
        <ele>333.7</ele>
        <time>2017-10-01T07:17:37Z</time>
      </trkpt>
      <trkpt lat="47.47695" lon="6.78249">
        <ele>334.1</ele>
        <time>2017-10-01T07:17:38Z</time>
      </trkpt>
      <trkpt lat="47.47697" lon="6.78255">
        <ele>334.6</ele>
        <time>2017-10-01T07:17:40Z</time>
      </trkpt>
      <trkpt lat="47.47697" lon="6.78258">
        <ele>334.9</ele>
        <time>2017-10-01T07:17:41Z</time>
      </trkpt>
      <trkpt lat="47.47699" lon="6.78261">
        <ele>335.2</ele>
        <time>2017-10-01T07:17:42Z</time>
      </trkpt>
      <trkpt lat="47.47701" lon="6.78264">
        <ele>335.6</ele>
        <time>2017-10-01T07:17:43Z</time>
      </trkpt>
      <trkpt lat="47.47701" lon="6.78269">
        <ele>335.9</ele>
        <time>2017-10-01T07:17:44Z</time>
      </trkpt>
      <trkpt lat="47.47701" lon="6.78272">
        <ele>336.2</ele>
        <time>2017-10-01T07:17:45Z</time>
      </trkpt>
      <trkpt lat="47.47701" lon="6.78278">
        <ele>336.8</ele>
        <time>2017-10-01T07:17:47Z</time>
      </trkpt>
      <trkpt lat="47.47701" lon="6.78281">
        <ele>337</ele>
        <time>2017-10-01T07:17:48Z</time>
      </trkpt>
      <trkpt lat="47.47702" lon="6.78285">
        <ele>337.2</ele>
        <time>2017-10-01T07:17:49Z</time>
      </trkpt>
      <trkpt lat="47.47702" lon="6.78289">
        <ele>337.4</ele>
        <time>2017-10-01T07:17:50Z</time>
      </trkpt>
      <trkpt lat="47.47703" lon="6.78294">
        <ele>337.7</ele>
        <time>2017-10-01T07:17:52Z</time>
      </trkpt>
      <trkpt lat="47.47703" lon="6.78297">
        <ele>337.8</ele>
        <time>2017-10-01T07:17:53Z</time>
      </trkpt>
      <trkpt lat="47.47703" lon="6.78303">
        <ele>338.1</ele>
        <time>2017-10-01T07:17:55Z</time>
      </trkpt>
      <trkpt lat="47.47703" lon="6.78306">
        <ele>338.2</ele>
        <time>2017-10-01T07:17:56Z</time>
      </trkpt>
      <trkpt lat="47.47703" lon="6.7831">
        <ele>338.4</ele>
        <time>2017-10-01T07:17:57Z</time>
      </trkpt>
      <trkpt lat="47.47703" lon="6.78313">
        <ele>338.6</ele>
        <time>2017-10-01T07:17:58Z</time>
      </trkpt>
      <trkpt lat="47.47703" lon="6.78317">
        <ele>338.9</ele>
        <time>2017-10-01T07:17:59Z</time>
      </trkpt>
      <trkpt lat="47.47703" lon="6.78321">
        <ele>339.2</ele>
        <time>2017-10-01T07:18:00Z</time>
      </trkpt>
      <trkpt lat="47.47703" lon="6.78325">
        <ele>339.5</ele>
        <time>2017-10-01T07:18:01Z</time>
      </trkpt>
      <trkpt lat="47.47702" lon="6.78328">
        <ele>339.8</ele>
        <time>2017-10-01T07:18:02Z</time>
      </trkpt>
      <trkpt lat="47.47701" lon="6.78331">
        <ele>340</ele>
        <time>2017-10-01T07:18:03Z</time>
      </trkpt>
      <trkpt lat="47.47701" lon="6.78335">
        <ele>340.2</ele>
        <time>2017-10-01T07:18:04Z</time>
      </trkpt>
      <trkpt lat="47.47699" lon="6.78339">
        <ele>340.5</ele>
        <time>2017-10-01T07:18:05Z</time>
      </trkpt>
      <trkpt lat="47.47698" lon="6.78343">
        <ele>340.9</ele>
        <time>2017-10-01T07:18:06Z</time>
      </trkpt>
      <trkpt lat="47.47696" lon="6.78348">
        <ele>341.5</ele>
        <time>2017-10-01T07:18:07Z</time>
      </trkpt>
      <trkpt lat="47.47694" lon="6.78354">
        <ele>342.2</ele>
        <time>2017-10-01T07:18:08Z</time>
      </trkpt>
      <trkpt lat="47.47692" lon="6.7836">
        <ele>343</ele>
        <time>2017-10-01T07:18:09Z</time>
      </trkpt>
      <trkpt lat="47.4769" lon="6.78365">
        <ele>343.5</ele>
        <time>2017-10-01T07:18:10Z</time>
      </trkpt>
      <trkpt lat="47.47689" lon="6.7837">
        <ele>344</ele>
        <time>2017-10-01T07:18:11Z</time>
      </trkpt>
      <trkpt lat="47.47687" lon="6.78374">
        <ele>343.9</ele>
        <time>2017-10-01T07:18:12Z</time>
      </trkpt>
      <trkpt lat="47.47685" lon="6.7838">
        <ele>343.9</ele>
        <time>2017-10-01T07:18:13Z</time>
      </trkpt>
      <trkpt lat="47.47683" lon="6.78385">
        <ele>343.9</ele>
        <time>2017-10-01T07:18:14Z</time>
      </trkpt>
      <trkpt lat="47.47681" lon="6.78391">
        <ele>343.9</ele>
        <time>2017-10-01T07:18:15Z</time>
      </trkpt>
      <trkpt lat="47.4768" lon="6.78396">
        <ele>343.6</ele>
        <time>2017-10-01T07:18:16Z</time>
      </trkpt>
      <trkpt lat="47.4768" lon="6.78401">
        <ele>343.3</ele>
        <time>2017-10-01T07:18:17Z</time>
      </trkpt>
      <trkpt lat="47.47674" lon="6.78415">
        <ele>342.9</ele>
        <time>2017-10-01T07:18:20Z</time>
      </trkpt>
      <trkpt lat="47.47671" lon="6.78418">
        <ele>343.2</ele>
        <time>2017-10-01T07:18:21Z</time>
      </trkpt>
      <trkpt lat="47.47668" lon="6.78423">
        <ele>343.3</ele>
        <time>2017-10-01T07:18:22Z</time>
      </trkpt>
      <trkpt lat="47.47663" lon="6.78428">
        <ele>343.7</ele>
        <time>2017-10-01T07:18:23Z</time>
      </trkpt>
      <trkpt lat="47.47659" lon="6.78434">
        <ele>343.8</ele>
        <time>2017-10-01T07:18:24Z</time>
      </trkpt>
      <trkpt lat="47.47656" lon="6.78439">
        <ele>343.9</ele>
        <time>2017-10-01T07:18:25Z</time>
      </trkpt>
      <trkpt lat="47.47652" lon="6.78444">
        <ele>344</ele>
        <time>2017-10-01T07:18:26Z</time>
      </trkpt>
      <trkpt lat="47.47648" lon="6.7845">
        <ele>344.1</ele>
        <time>2017-10-01T07:18:27Z</time>
      </trkpt>
      <trkpt lat="47.47644" lon="6.78456">
        <ele>344.2</ele>
        <time>2017-10-01T07:18:28Z</time>
      </trkpt>
      <trkpt lat="47.47641" lon="6.78463">
        <ele>344.3</ele>
        <time>2017-10-01T07:18:29Z</time>
      </trkpt>
      <trkpt lat="47.47638" lon="6.7847">
        <ele>344.9</ele>
        <time>2017-10-01T07:18:30Z</time>
      </trkpt>
      <trkpt lat="47.47634" lon="6.78477">
        <ele>345.1</ele>
        <time>2017-10-01T07:18:31Z</time>
      </trkpt>
      <trkpt lat="47.47632" lon="6.78482">
        <ele>345.2</ele>
        <time>2017-10-01T07:18:32Z</time>
      </trkpt>
      <trkpt lat="47.47629" lon="6.78488">
        <ele>345</ele>
        <time>2017-10-01T07:18:33Z</time>
      </trkpt>
      <trkpt lat="47.47627" lon="6.78494">
        <ele>344.9</ele>
        <time>2017-10-01T07:18:34Z</time>
      </trkpt>
      <trkpt lat="47.47624" lon="6.785">
        <ele>344.6</ele>
        <time>2017-10-01T07:18:35Z</time>
      </trkpt>
      <trkpt lat="47.47622" lon="6.78506">
        <ele>344.5</ele>
        <time>2017-10-01T07:18:36Z</time>
      </trkpt>
      <trkpt lat="47.47618" lon="6.78513">
        <ele>344.5</ele>
        <time>2017-10-01T07:18:37Z</time>
      </trkpt>
      <trkpt lat="47.47615" lon="6.78519">
        <ele>344.6</ele>
        <time>2017-10-01T07:18:38Z</time>
      </trkpt>
      <trkpt lat="47.47613" lon="6.78525">
        <ele>345</ele>
        <time>2017-10-01T07:18:39Z</time>
      </trkpt>
      <trkpt lat="47.4761" lon="6.7853">
        <ele>345.5</ele>
        <time>2017-10-01T07:18:40Z</time>
      </trkpt>
      <trkpt lat="47.47608" lon="6.78535">
        <ele>346</ele>
        <time>2017-10-01T07:18:41Z</time>
      </trkpt>
      <trkpt lat="47.47605" lon="6.78541">
        <ele>346.5</ele>
        <time>2017-10-01T07:18:42Z</time>
      </trkpt>
      <trkpt lat="47.47602" lon="6.78546">
        <ele>347.1</ele>
        <time>2017-10-01T07:18:43Z</time>
      </trkpt>
      <trkpt lat="47.476" lon="6.78551">
        <ele>347.7</ele>
        <time>2017-10-01T07:18:44Z</time>
      </trkpt>
      <trkpt lat="47.47597" lon="6.78555">
        <ele>347.8</ele>
        <time>2017-10-01T07:18:45Z</time>
      </trkpt>
      <trkpt lat="47.47595" lon="6.78559">
        <ele>348.4</ele>
        <time>2017-10-01T07:18:46Z</time>
      </trkpt>
      <trkpt lat="47.47593" lon="6.78563">
        <ele>349.1</ele>
        <time>2017-10-01T07:18:47Z</time>
      </trkpt>
      <trkpt lat="47.47591" lon="6.78566">
        <ele>349.7</ele>
        <time>2017-10-01T07:18:48Z</time>
      </trkpt>
      <trkpt lat="47.47589" lon="6.78569">
        <ele>349.8</ele>
        <time>2017-10-01T07:18:49Z</time>
      </trkpt>
      <trkpt lat="47.47586" lon="6.78573">
        <ele>350.3</ele>
        <time>2017-10-01T07:18:50Z</time>
      </trkpt>
      <trkpt lat="47.47583" lon="6.78577">
        <ele>350.8</ele>
        <time>2017-10-01T07:18:51Z</time>
      </trkpt>
      <trkpt lat="47.4758" lon="6.78581">
        <ele>351.3</ele>
        <time>2017-10-01T07:18:52Z</time>
      </trkpt>
      <trkpt lat="47.47576" lon="6.78587">
        <ele>352.4</ele>
        <time>2017-10-01T07:18:53Z</time>
      </trkpt>
      <trkpt lat="47.47572" lon="6.78591">
        <ele>353</ele>
        <time>2017-10-01T07:18:54Z</time>
      </trkpt>
      <trkpt lat="47.47569" lon="6.78595">
        <ele>353.7</ele>
        <time>2017-10-01T07:18:55Z</time>
      </trkpt>
      <trkpt lat="47.47567" lon="6.78599">
        <ele>354.5</ele>
        <time>2017-10-01T07:18:56Z</time>
      </trkpt>
      <trkpt lat="47.47565" lon="6.78603">
        <ele>354.4</ele>
        <time>2017-10-01T07:18:57Z</time>
      </trkpt>
      <trkpt lat="47.47564" lon="6.78606">
        <ele>355.2</ele>
        <time>2017-10-01T07:18:58Z</time>
      </trkpt>
      <trkpt lat="47.47562" lon="6.7861">
        <ele>356</ele>
        <time>2017-10-01T07:18:59Z</time>
      </trkpt>
      <trkpt lat="47.47561" lon="6.78612">
        <ele>356.3</ele>
        <time>2017-10-01T07:19:00Z</time>
      </trkpt>
      <trkpt lat="47.4756" lon="6.78616">
        <ele>356.3</ele>
        <time>2017-10-01T07:19:01Z</time>
      </trkpt>
      <trkpt lat="47.47558" lon="6.78619">
        <ele>357</ele>
        <time>2017-10-01T07:19:02Z</time>
      </trkpt>
      <trkpt lat="47.47556" lon="6.78623">
        <ele>357.7</ele>
        <time>2017-10-01T07:19:03Z</time>
      </trkpt>
      <trkpt lat="47.47555" lon="6.78627">
        <ele>358</ele>
        <time>2017-10-01T07:19:04Z</time>
      </trkpt>
      <trkpt lat="47.47553" lon="6.78629">
        <ele>358.5</ele>
        <time>2017-10-01T07:19:05Z</time>
      </trkpt>
      <trkpt lat="47.47552" lon="6.78632">
        <ele>358.5</ele>
        <time>2017-10-01T07:19:06Z</time>
      </trkpt>
      <trkpt lat="47.4755" lon="6.78635">
        <ele>359</ele>
        <time>2017-10-01T07:19:07Z</time>
      </trkpt>
      <trkpt lat="47.47549" lon="6.78638">
        <ele>359.2</ele>
        <time>2017-10-01T07:19:08Z</time>
      </trkpt>
      <trkpt lat="47.47548" lon="6.78643">
        <ele>359.4</ele>
        <time>2017-10-01T07:19:10Z</time>
      </trkpt>
      <trkpt lat="47.47548" lon="6.78645">
        <ele>359.6</ele>
        <time>2017-10-01T07:19:11Z</time>
      </trkpt>
      <trkpt lat="47.47547" lon="6.78649">
        <ele>359.8</ele>
        <time>2017-10-01T07:19:12Z</time>
      </trkpt>
      <trkpt lat="47.47546" lon="6.78654">
        <ele>359.9</ele>
        <time>2017-10-01T07:19:13Z</time>
      </trkpt>
      <trkpt lat="47.47546" lon="6.78659">
        <ele>360.1</ele>
        <time>2017-10-01T07:19:14Z</time>
      </trkpt>
      <trkpt lat="47.47545" lon="6.78661">
        <ele>360.1</ele>
        <time>2017-10-01T07:19:15Z</time>
      </trkpt>
      <trkpt lat="47.47544" lon="6.78667">
        <ele>360.3</ele>
        <time>2017-10-01T07:19:16Z</time>
      </trkpt>
      <trkpt lat="47.47544" lon="6.78673">
        <ele>360.1</ele>
        <time>2017-10-01T07:19:17Z</time>
      </trkpt>
      <trkpt lat="47.47541" lon="6.78676">
        <ele>360.2</ele>
        <time>2017-10-01T07:19:24Z</time>
      </trkpt>
      <trkpt lat="47.4754" lon="6.78678">
        <ele>360</ele>
        <time>2017-10-01T07:19:25Z</time>
      </trkpt>
      <trkpt lat="47.47537" lon="6.78682">
        <ele>359.8</ele>
        <time>2017-10-01T07:19:26Z</time>
      </trkpt>
      <trkpt lat="47.47536" lon="6.78684">
        <ele>359.9</ele>
        <time>2017-10-01T07:19:27Z</time>
      </trkpt>
      <trkpt lat="47.47535" lon="6.78686">
        <ele>359.5</ele>
        <time>2017-10-01T07:19:28Z</time>
      </trkpt>
      <trkpt lat="47.47532" lon="6.78689">
        <ele>359.3</ele>
        <time>2017-10-01T07:19:29Z</time>
      </trkpt>
      <trkpt lat="47.47529" lon="6.78693">
        <ele>359.1</ele>
        <time>2017-10-01T07:19:31Z</time>
      </trkpt>
      <trkpt lat="47.47528" lon="6.78698">
        <ele>358.9</ele>
        <time>2017-10-01T07:19:32Z</time>
      </trkpt>
      <trkpt lat="47.47528" lon="6.78699">
        <ele>358.9</ele>
        <time>2017-10-01T07:19:33Z</time>
      </trkpt>
      <trkpt lat="47.47527" lon="6.78705">
        <ele>358.8</ele>
        <time>2017-10-01T07:19:34Z</time>
      </trkpt>
      <trkpt lat="47.47526" lon="6.78711">
        <ele>358.5</ele>
        <time>2017-10-01T07:19:35Z</time>
      </trkpt>
      <trkpt lat="47.47526" lon="6.78713">
        <ele>358.5</ele>
        <time>2017-10-01T07:19:36Z</time>
      </trkpt>
      <trkpt lat="47.47525" lon="6.78718">
        <ele>358.3</ele>
        <time>2017-10-01T07:19:38Z</time>
      </trkpt>
      <trkpt lat="47.47525" lon="6.78722">
        <ele>358.1</ele>
        <time>2017-10-01T07:19:39Z</time>
      </trkpt>
      <trkpt lat="47.47525" lon="6.78725">
        <ele>357.9</ele>
        <time>2017-10-01T07:19:40Z</time>
      </trkpt>
      <trkpt lat="47.47522" lon="6.7873">
        <ele>357.7</ele>
        <time>2017-10-01T07:19:41Z</time>
      </trkpt>
      <trkpt lat="47.4752" lon="6.78735">
        <ele>357.4</ele>
        <time>2017-10-01T07:19:43Z</time>
      </trkpt>
      <trkpt lat="47.47519" lon="6.78736">
        <ele>357.5</ele>
        <time>2017-10-01T07:19:44Z</time>
      </trkpt>
      <trkpt lat="47.4752" lon="6.7873">
        <ele>358.1</ele>
        <time>2017-10-01T07:19:56Z</time>
      </trkpt>
      <trkpt lat="47.4752" lon="6.78729">
        <ele>358.2</ele>
        <time>2017-10-01T07:19:57Z</time>
      </trkpt>
      <trkpt lat="47.47517" lon="6.78725">
        <ele>358.7</ele>
        <time>2017-10-01T07:19:58Z</time>
      </trkpt>
      <trkpt lat="47.47514" lon="6.78723">
        <ele>359.2</ele>
        <time>2017-10-01T07:19:59Z</time>
      </trkpt>
      <trkpt lat="47.47512" lon="6.78721">
        <ele>359.6</ele>
        <time>2017-10-01T07:20:03Z</time>
      </trkpt>
      <trkpt lat="47.4751" lon="6.78719">
        <ele>360</ele>
        <time>2017-10-01T07:20:04Z</time>
      </trkpt>
      <trkpt lat="47.47507" lon="6.78715">
        <ele>360.6</ele>
        <time>2017-10-01T07:20:05Z</time>
      </trkpt>
      <trkpt lat="47.47507" lon="6.78713">
        <ele>360.8</ele>
        <time>2017-10-01T07:20:06Z</time>
      </trkpt>
      <trkpt lat="47.47509" lon="6.78708">
        <ele>361.3</ele>
        <time>2017-10-01T07:20:15Z</time>
      </trkpt>
      <trkpt lat="47.47509" lon="6.78706">
        <ele>361.5</ele>
        <time>2017-10-01T07:20:16Z</time>
      </trkpt>
      <trkpt lat="47.47509" lon="6.78705">
        <ele>361.6</ele>
        <time>2017-10-01T07:20:17Z</time>
      </trkpt>
      <trkpt lat="47.47509" lon="6.787">
        <ele>362.3</ele>
        <time>2017-10-01T07:20:18Z</time>
      </trkpt>
      <trkpt lat="47.47509" lon="6.78695">
        <ele>362.8</ele>
        <time>2017-10-01T07:20:20Z</time>
      </trkpt>
      <trkpt lat="47.47509" lon="6.78692">
        <ele>363.2</ele>
        <time>2017-10-01T07:20:21Z</time>
      </trkpt>
      <trkpt lat="47.47508" lon="6.78688">
        <ele>363.6</ele>
        <time>2017-10-01T07:20:27Z</time>
      </trkpt>
      <trkpt lat="47.47504" lon="6.78688">
        <ele>364.1</ele>
        <time>2017-10-01T07:20:28Z</time>
      </trkpt>
      <trkpt lat="47.47502" lon="6.78685">
        <ele>364.6</ele>
        <time>2017-10-01T07:20:29Z</time>
      </trkpt>
      <trkpt lat="47.47499" lon="6.78682">
        <ele>364.9</ele>
        <time>2017-10-01T07:20:30Z</time>
      </trkpt>
      <trkpt lat="47.47495" lon="6.7868">
        <ele>365.2</ele>
        <time>2017-10-01T07:20:33Z</time>
      </trkpt>
      <trkpt lat="47.47492" lon="6.78679">
        <ele>365.4</ele>
        <time>2017-10-01T07:20:34Z</time>
      </trkpt>
      <trkpt lat="47.47491" lon="6.78677">
        <ele>365.5</ele>
        <time>2017-10-01T07:20:37Z</time>
      </trkpt>
      <trkpt lat="47.47488" lon="6.78674">
        <ele>365.6</ele>
        <time>2017-10-01T07:20:38Z</time>
      </trkpt>
      <trkpt lat="47.47484" lon="6.78671">
        <ele>365.8</ele>
        <time>2017-10-01T07:20:39Z</time>
      </trkpt>
      <trkpt lat="47.47482" lon="6.78669">
        <ele>365.9</ele>
        <time>2017-10-01T07:20:40Z</time>
      </trkpt>
      <trkpt lat="47.47478" lon="6.78666">
        <ele>366</ele>
        <time>2017-10-01T07:20:42Z</time>
      </trkpt>
      <trkpt lat="47.47478" lon="6.78664">
        <ele>366</ele>
        <time>2017-10-01T07:20:43Z</time>
      </trkpt>
      <trkpt lat="47.47478" lon="6.78658">
        <ele>366.1</ele>
        <time>2017-10-01T07:20:48Z</time>
      </trkpt>
      <trkpt lat="47.47476" lon="6.78656">
        <ele>366.1</ele>
        <time>2017-10-01T07:20:49Z</time>
      </trkpt>
      <trkpt lat="47.47473" lon="6.78653">
        <ele>366.1</ele>
        <time>2017-10-01T07:20:50Z</time>
      </trkpt>
      <trkpt lat="47.4747" lon="6.7865">
        <ele>366.3</ele>
        <time>2017-10-01T07:20:51Z</time>
      </trkpt>
      <trkpt lat="47.47467" lon="6.78646">
        <ele>366.4</ele>
        <time>2017-10-01T07:20:52Z</time>
      </trkpt>
      <trkpt lat="47.47466" lon="6.78645">
        <ele>366.5</ele>
        <time>2017-10-01T07:20:53Z</time>
      </trkpt>
      <trkpt lat="47.47463" lon="6.78641">
        <ele>366.8</ele>
        <time>2017-10-01T07:20:58Z</time>
      </trkpt>
      <trkpt lat="47.47461" lon="6.78636">
        <ele>367.1</ele>
        <time>2017-10-01T07:20:59Z</time>
      </trkpt>
      <trkpt lat="47.4746" lon="6.7863">
        <ele>367.3</ele>
        <time>2017-10-01T07:21:05Z</time>
      </trkpt>
      <trkpt lat="47.47459" lon="6.78629">
        <ele>367.4</ele>
        <time>2017-10-01T07:21:06Z</time>
      </trkpt>
      <trkpt lat="47.47457" lon="6.78627">
        <ele>367.6</ele>
        <time>2017-10-01T07:21:09Z</time>
      </trkpt>
      <trkpt lat="47.47455" lon="6.78622">
        <ele>367.9</ele>
        <time>2017-10-01T07:21:10Z</time>
      </trkpt>
      <trkpt lat="47.47454" lon="6.7862">
        <ele>367.9</ele>
        <time>2017-10-01T07:21:11Z</time>
      </trkpt>
      <trkpt lat="47.47452" lon="6.78616">
        <ele>368</ele>
        <time>2017-10-01T07:21:12Z</time>
      </trkpt>
      <trkpt lat="47.47449" lon="6.78611">
        <ele>368.2</ele>
        <time>2017-10-01T07:21:15Z</time>
      </trkpt>
      <trkpt lat="47.47448" lon="6.78609">
        <ele>368.2</ele>
        <time>2017-10-01T07:21:16Z</time>
      </trkpt>
      <trkpt lat="47.47446" lon="6.78607">
        <ele>368.3</ele>
        <time>2017-10-01T07:21:17Z</time>
      </trkpt>
      <trkpt lat="47.47445" lon="6.78604">
        <ele>368.3</ele>
        <time>2017-10-01T07:21:18Z</time>
      </trkpt>
      <trkpt lat="47.47442" lon="6.78602">
        <ele>368.4</ele>
        <time>2017-10-01T07:21:19Z</time>
      </trkpt>
      <trkpt lat="47.47439" lon="6.78601">
        <ele>368.3</ele>
        <time>2017-10-01T07:21:20Z</time>
      </trkpt>
      <trkpt lat="47.47437" lon="6.786">
        <ele>368.3</ele>
        <time>2017-10-01T07:21:21Z</time>
      </trkpt>
      <trkpt lat="47.47434" lon="6.78599">
        <ele>368.3</ele>
        <time>2017-10-01T07:21:22Z</time>
      </trkpt>
      <trkpt lat="47.47431" lon="6.78598">
        <ele>368.3</ele>
        <time>2017-10-01T07:21:23Z</time>
      </trkpt>
      <trkpt lat="47.47429" lon="6.78596">
        <ele>368.2</ele>
        <time>2017-10-01T07:21:24Z</time>
      </trkpt>
      <trkpt lat="47.47427" lon="6.78594">
        <ele>368.2</ele>
        <time>2017-10-01T07:21:25Z</time>
      </trkpt>
      <trkpt lat="47.47424" lon="6.78593">
        <ele>368.1</ele>
        <time>2017-10-01T07:21:26Z</time>
      </trkpt>
      <trkpt lat="47.47421" lon="6.78591">
        <ele>368.1</ele>
        <time>2017-10-01T07:21:27Z</time>
      </trkpt>
      <trkpt lat="47.47419" lon="6.7859">
        <ele>368</ele>
        <time>2017-10-01T07:21:28Z</time>
      </trkpt>
      <trkpt lat="47.47415" lon="6.78587">
        <ele>368</ele>
        <time>2017-10-01T07:21:30Z</time>
      </trkpt>
      <trkpt lat="47.47413" lon="6.78586">
        <ele>367.9</ele>
        <time>2017-10-01T07:21:31Z</time>
      </trkpt>
      <trkpt lat="47.47409" lon="6.78583">
        <ele>367.9</ele>
        <time>2017-10-01T07:21:33Z</time>
      </trkpt>
      <trkpt lat="47.47406" lon="6.78581">
        <ele>367.8</ele>
        <time>2017-10-01T07:21:34Z</time>
      </trkpt>
      <trkpt lat="47.47404" lon="6.7858">
        <ele>367.8</ele>
        <time>2017-10-01T07:21:35Z</time>
      </trkpt>
      <trkpt lat="47.47402" lon="6.78579">
        <ele>367.7</ele>
        <time>2017-10-01T07:21:36Z</time>
      </trkpt>
      <trkpt lat="47.474" lon="6.78578">
        <ele>367.7</ele>
        <time>2017-10-01T07:21:37Z</time>
      </trkpt>
      <trkpt lat="47.47397" lon="6.78576">
        <ele>367.6</ele>
        <time>2017-10-01T07:21:38Z</time>
      </trkpt>
      <trkpt lat="47.47393" lon="6.78574">
        <ele>367.5</ele>
        <time>2017-10-01T07:21:39Z</time>
      </trkpt>
      <trkpt lat="47.47391" lon="6.78573">
        <ele>367.5</ele>
        <time>2017-10-01T07:21:40Z</time>
      </trkpt>
      <trkpt lat="47.47388" lon="6.78571">
        <ele>367.4</ele>
        <time>2017-10-01T07:21:41Z</time>
      </trkpt>
      <trkpt lat="47.47384" lon="6.78568">
        <ele>367.4</ele>
        <time>2017-10-01T07:21:43Z</time>
      </trkpt>
      <trkpt lat="47.47382" lon="6.78568">
        <ele>367.3</ele>
        <time>2017-10-01T07:21:44Z</time>
      </trkpt>
      <trkpt lat="47.47379" lon="6.78566">
        <ele>367.2</ele>
        <time>2017-10-01T07:21:45Z</time>
      </trkpt>
      <trkpt lat="47.47376" lon="6.78564">
        <ele>367.2</ele>
        <time>2017-10-01T07:21:46Z</time>
      </trkpt>
      <trkpt lat="47.47374" lon="6.78563">
        <ele>367.1</ele>
        <time>2017-10-01T07:21:47Z</time>
      </trkpt>
      <trkpt lat="47.47371" lon="6.78561">
        <ele>367.1</ele>
        <time>2017-10-01T07:21:48Z</time>
      </trkpt>
      <trkpt lat="47.47369" lon="6.7856">
        <ele>367</ele>
        <time>2017-10-01T07:21:49Z</time>
      </trkpt>
      <trkpt lat="47.47366" lon="6.78558">
        <ele>366.9</ele>
        <time>2017-10-01T07:21:50Z</time>
      </trkpt>
      <trkpt lat="47.47364" lon="6.78555">
        <ele>366.9</ele>
        <time>2017-10-01T07:21:51Z</time>
      </trkpt>
      <trkpt lat="47.4736" lon="6.78554">
        <ele>366.7</ele>
        <time>2017-10-01T07:21:52Z</time>
      </trkpt>
      <trkpt lat="47.47357" lon="6.78553">
        <ele>366.6</ele>
        <time>2017-10-01T07:21:53Z</time>
      </trkpt>
      <trkpt lat="47.47354" lon="6.78552">
        <ele>366.5</ele>
        <time>2017-10-01T07:21:54Z</time>
      </trkpt>
      <trkpt lat="47.47351" lon="6.7855">
        <ele>366.3</ele>
        <time>2017-10-01T07:21:55Z</time>
      </trkpt>
      <trkpt lat="47.47348" lon="6.78548">
        <ele>366.1</ele>
        <time>2017-10-01T07:21:56Z</time>
      </trkpt>
      <trkpt lat="47.47345" lon="6.78546">
        <ele>366</ele>
        <time>2017-10-01T07:21:57Z</time>
      </trkpt>
      <trkpt lat="47.47342" lon="6.78545">
        <ele>365.8</ele>
        <time>2017-10-01T07:21:58Z</time>
      </trkpt>
      <trkpt lat="47.4734" lon="6.78543">
        <ele>365.7</ele>
        <time>2017-10-01T07:21:59Z</time>
      </trkpt>
      <trkpt lat="47.47336" lon="6.78542">
        <ele>365.5</ele>
        <time>2017-10-01T07:22:00Z</time>
      </trkpt>
      <trkpt lat="47.47334" lon="6.78541">
        <ele>365.4</ele>
        <time>2017-10-01T07:22:01Z</time>
      </trkpt>
      <trkpt lat="47.47331" lon="6.7854">
        <ele>365.4</ele>
        <time>2017-10-01T07:22:02Z</time>
      </trkpt>
      <trkpt lat="47.47329" lon="6.78539">
        <ele>365.3</ele>
        <time>2017-10-01T07:22:03Z</time>
      </trkpt>
      <trkpt lat="47.47325" lon="6.78537">
        <ele>365.2</ele>
        <time>2017-10-01T07:22:04Z</time>
      </trkpt>
      <trkpt lat="47.47322" lon="6.78535">
        <ele>365.2</ele>
        <time>2017-10-01T07:22:05Z</time>
      </trkpt>
      <trkpt lat="47.47319" lon="6.78533">
        <ele>365.1</ele>
        <time>2017-10-01T07:22:06Z</time>
      </trkpt>
      <trkpt lat="47.47315" lon="6.78531">
        <ele>365.1</ele>
        <time>2017-10-01T07:22:07Z</time>
      </trkpt>
      <trkpt lat="47.47311" lon="6.78529">
        <ele>365.1</ele>
        <time>2017-10-01T07:22:08Z</time>
      </trkpt>
      <trkpt lat="47.47308" lon="6.78526">
        <ele>365.1</ele>
        <time>2017-10-01T07:22:09Z</time>
      </trkpt>
      <trkpt lat="47.47304" lon="6.78524">
        <ele>365</ele>
        <time>2017-10-01T07:22:10Z</time>
      </trkpt>
      <trkpt lat="47.47301" lon="6.78522">
        <ele>365</ele>
        <time>2017-10-01T07:22:11Z</time>
      </trkpt>
      <trkpt lat="47.47297" lon="6.7852">
        <ele>365</ele>
        <time>2017-10-01T07:22:12Z</time>
      </trkpt>
      <trkpt lat="47.47294" lon="6.78519">
        <ele>364.9</ele>
        <time>2017-10-01T07:22:13Z</time>
      </trkpt>
      <trkpt lat="47.47291" lon="6.78517">
        <ele>364.8</ele>
        <time>2017-10-01T07:22:14Z</time>
      </trkpt>
      <trkpt lat="47.47288" lon="6.78516">
        <ele>364.8</ele>
        <time>2017-10-01T07:22:15Z</time>
      </trkpt>
      <trkpt lat="47.47285" lon="6.78515">
        <ele>364.7</ele>
        <time>2017-10-01T07:22:16Z</time>
      </trkpt>
      <trkpt lat="47.47282" lon="6.78513">
        <ele>364.6</ele>
        <time>2017-10-01T07:22:17Z</time>
      </trkpt>
      <trkpt lat="47.47278" lon="6.78512">
        <ele>364.4</ele>
        <time>2017-10-01T07:22:18Z</time>
      </trkpt>
      <trkpt lat="47.47275" lon="6.78509">
        <ele>364.3</ele>
        <time>2017-10-01T07:22:19Z</time>
      </trkpt>
      <trkpt lat="47.47272" lon="6.78506">
        <ele>364.1</ele>
        <time>2017-10-01T07:22:20Z</time>
      </trkpt>
      <trkpt lat="47.47269" lon="6.78504">
        <ele>363.9</ele>
        <time>2017-10-01T07:22:21Z</time>
      </trkpt>
      <trkpt lat="47.47264" lon="6.78503">
        <ele>363.7</ele>
        <time>2017-10-01T07:22:22Z</time>
      </trkpt>
      <trkpt lat="47.47259" lon="6.78501">
        <ele>363.6</ele>
        <time>2017-10-01T07:22:23Z</time>
      </trkpt>
      <trkpt lat="47.47255" lon="6.78499">
        <ele>363.4</ele>
        <time>2017-10-01T07:22:24Z</time>
      </trkpt>
      <trkpt lat="47.47251" lon="6.78496">
        <ele>363.3</ele>
        <time>2017-10-01T07:22:25Z</time>
      </trkpt>
      <trkpt lat="47.47247" lon="6.78494">
        <ele>363.2</ele>
        <time>2017-10-01T07:22:26Z</time>
      </trkpt>
      <trkpt lat="47.47243" lon="6.78491">
        <ele>363.1</ele>
        <time>2017-10-01T07:22:27Z</time>
      </trkpt>
      <trkpt lat="47.47239" lon="6.78489">
        <ele>362.9</ele>
        <time>2017-10-01T07:22:28Z</time>
      </trkpt>
      <trkpt lat="47.47235" lon="6.78486">
        <ele>362.7</ele>
        <time>2017-10-01T07:22:29Z</time>
      </trkpt>
      <trkpt lat="47.47232" lon="6.78485">
        <ele>362.6</ele>
        <time>2017-10-01T07:22:30Z</time>
      </trkpt>
      <trkpt lat="47.47228" lon="6.78482">
        <ele>362.4</ele>
        <time>2017-10-01T07:22:31Z</time>
      </trkpt>
      <trkpt lat="47.47224" lon="6.78481">
        <ele>362.3</ele>
        <time>2017-10-01T07:22:32Z</time>
      </trkpt>
      <trkpt lat="47.47221" lon="6.7848">
        <ele>362.2</ele>
        <time>2017-10-01T07:22:33Z</time>
      </trkpt>
      <trkpt lat="47.47217" lon="6.78479">
        <ele>362.1</ele>
        <time>2017-10-01T07:22:34Z</time>
      </trkpt>
      <trkpt lat="47.47214" lon="6.78478">
        <ele>362</ele>
        <time>2017-10-01T07:22:35Z</time>
      </trkpt>
      <trkpt lat="47.4721" lon="6.78476">
        <ele>362</ele>
        <time>2017-10-01T07:22:36Z</time>
      </trkpt>
      <trkpt lat="47.47206" lon="6.78475">
        <ele>361.9</ele>
        <time>2017-10-01T07:22:37Z</time>
      </trkpt>
      <trkpt lat="47.47201" lon="6.78473">
        <ele>361.7</ele>
        <time>2017-10-01T07:22:38Z</time>
      </trkpt>
      <trkpt lat="47.47197" lon="6.78471">
        <ele>361.6</ele>
        <time>2017-10-01T07:22:39Z</time>
      </trkpt>
      <trkpt lat="47.47192" lon="6.7847">
        <ele>361.4</ele>
        <time>2017-10-01T07:22:40Z</time>
      </trkpt>
      <trkpt lat="47.47188" lon="6.78469">
        <ele>361.2</ele>
        <time>2017-10-01T07:22:41Z</time>
      </trkpt>
      <trkpt lat="47.47184" lon="6.78467">
        <ele>361</ele>
        <time>2017-10-01T07:22:42Z</time>
      </trkpt>
      <trkpt lat="47.4718" lon="6.78464">
        <ele>360.8</ele>
        <time>2017-10-01T07:22:43Z</time>
      </trkpt>
      <trkpt lat="47.47176" lon="6.78462">
        <ele>360.6</ele>
        <time>2017-10-01T07:22:44Z</time>
      </trkpt>
      <trkpt lat="47.47171" lon="6.7846">
        <ele>360.4</ele>
        <time>2017-10-01T07:22:45Z</time>
      </trkpt>
      <trkpt lat="47.47167" lon="6.78457">
        <ele>360.4</ele>
        <time>2017-10-01T07:22:46Z</time>
      </trkpt>
      <trkpt lat="47.47162" lon="6.78455">
        <ele>360.3</ele>
        <time>2017-10-01T07:22:47Z</time>
      </trkpt>
      <trkpt lat="47.47158" lon="6.78453">
        <ele>360.3</ele>
        <time>2017-10-01T07:22:48Z</time>
      </trkpt>
      <trkpt lat="47.47154" lon="6.78454">
        <ele>360.3</ele>
        <time>2017-10-01T07:22:49Z</time>
      </trkpt>
      <trkpt lat="47.4715" lon="6.78456">
        <ele>360.3</ele>
        <time>2017-10-01T07:22:50Z</time>
      </trkpt>
      <trkpt lat="47.47147" lon="6.78458">
        <ele>360.3</ele>
        <time>2017-10-01T07:22:51Z</time>
      </trkpt>
      <trkpt lat="47.47142" lon="6.78461">
        <ele>360.3</ele>
        <time>2017-10-01T07:22:52Z</time>
      </trkpt>
      <trkpt lat="47.47138" lon="6.78464">
        <ele>360.4</ele>
        <time>2017-10-01T07:22:53Z</time>
      </trkpt>
      <trkpt lat="47.47134" lon="6.78466">
        <ele>360.5</ele>
        <time>2017-10-01T07:22:54Z</time>
      </trkpt>
      <trkpt lat="47.47129" lon="6.78468">
        <ele>360.8</ele>
        <time>2017-10-01T07:22:55Z</time>
      </trkpt>
      <trkpt lat="47.47123" lon="6.78469">
        <ele>361.2</ele>
        <time>2017-10-01T07:22:56Z</time>
      </trkpt>
      <trkpt lat="47.47117" lon="6.78468">
        <ele>361.2</ele>
        <time>2017-10-01T07:22:57Z</time>
      </trkpt>
      <trkpt lat="47.47112" lon="6.78468">
        <ele>361.1</ele>
        <time>2017-10-01T07:22:58Z</time>
      </trkpt>
      <trkpt lat="47.47104" lon="6.7847">
        <ele>361</ele>
        <time>2017-10-01T07:22:59Z</time>
      </trkpt>
      <trkpt lat="47.47096" lon="6.78475">
        <ele>360.4</ele>
        <time>2017-10-01T07:23:00Z</time>
      </trkpt>
      <trkpt lat="47.4709" lon="6.78479">
        <ele>360.1</ele>
        <time>2017-10-01T07:23:01Z</time>
      </trkpt>
      <trkpt lat="47.47082" lon="6.78484">
        <ele>360.4</ele>
        <time>2017-10-01T07:23:02Z</time>
      </trkpt>
      <trkpt lat="47.47076" lon="6.78487">
        <ele>360.5</ele>
        <time>2017-10-01T07:23:03Z</time>
      </trkpt>
      <trkpt lat="47.47071" lon="6.78489">
        <ele>361.1</ele>
        <time>2017-10-01T07:23:04Z</time>
      </trkpt>
      <trkpt lat="47.47066" lon="6.78491">
        <ele>361.4</ele>
        <time>2017-10-01T07:23:05Z</time>
      </trkpt>
      <trkpt lat="47.47064" lon="6.78495">
        <ele>362</ele>
        <time>2017-10-01T07:23:06Z</time>
      </trkpt>
      <trkpt lat="47.4706" lon="6.785">
        <ele>363</ele>
        <time>2017-10-01T07:23:07Z</time>
      </trkpt>
      <trkpt lat="47.47056" lon="6.78507">
        <ele>364.2</ele>
        <time>2017-10-01T07:23:08Z</time>
      </trkpt>
      <trkpt lat="47.47048" lon="6.78515">
        <ele>366.2</ele>
        <time>2017-10-01T07:23:09Z</time>
      </trkpt>
      <trkpt lat="47.47045" lon="6.7852">
        <ele>367</ele>
        <time>2017-10-01T07:23:10Z</time>
      </trkpt>
      <trkpt lat="47.47042" lon="6.78524">
        <ele>367.6</ele>
        <time>2017-10-01T07:23:11Z</time>
      </trkpt>
      <trkpt lat="47.47039" lon="6.7853">
        <ele>368</ele>
        <time>2017-10-01T07:23:12Z</time>
      </trkpt>
      <trkpt lat="47.47037" lon="6.78534">
        <ele>368.4</ele>
        <time>2017-10-01T07:23:13Z</time>
      </trkpt>
      <trkpt lat="47.47035" lon="6.78534">
        <ele>368.5</ele>
        <time>2017-10-01T07:23:14Z</time>
      </trkpt>
      <trkpt lat="47.47031" lon="6.78535">
        <ele>368.9</ele>
        <time>2017-10-01T07:23:16Z</time>
      </trkpt>
      <trkpt lat="47.47027" lon="6.78537">
        <ele>369</ele>
        <time>2017-10-01T07:23:17Z</time>
      </trkpt>
      <trkpt lat="47.47024" lon="6.78541">
        <ele>369.4</ele>
        <time>2017-10-01T07:23:18Z</time>
      </trkpt>
      <trkpt lat="47.4702" lon="6.78544">
        <ele>369.7</ele>
        <time>2017-10-01T07:23:19Z</time>
      </trkpt>
      <trkpt lat="47.47017" lon="6.78548">
        <ele>369.8</ele>
        <time>2017-10-01T07:23:20Z</time>
      </trkpt>
      <trkpt lat="47.47013" lon="6.78551">
        <ele>369.6</ele>
        <time>2017-10-01T07:23:21Z</time>
      </trkpt>
      <trkpt lat="47.47008" lon="6.78555">
        <ele>369.3</ele>
        <time>2017-10-01T07:23:22Z</time>
      </trkpt>
      <trkpt lat="47.47003" lon="6.78558">
        <ele>369.2</ele>
        <time>2017-10-01T07:23:23Z</time>
      </trkpt>
      <trkpt lat="47.46997" lon="6.78562">
        <ele>368.1</ele>
        <time>2017-10-01T07:23:24Z</time>
      </trkpt>
      <trkpt lat="47.46991" lon="6.78567">
        <ele>367.1</ele>
        <time>2017-10-01T07:23:25Z</time>
      </trkpt>
      <trkpt lat="47.46986" lon="6.78572">
        <ele>366.4</ele>
        <time>2017-10-01T07:23:26Z</time>
      </trkpt>
      <trkpt lat="47.46981" lon="6.78576">
        <ele>364.7</ele>
        <time>2017-10-01T07:23:27Z</time>
      </trkpt>
      <trkpt lat="47.46976" lon="6.78579">
        <ele>363.1</ele>
        <time>2017-10-01T07:23:28Z</time>
      </trkpt>
      <trkpt lat="47.46971" lon="6.78581">
        <ele>362.6</ele>
        <time>2017-10-01T07:23:29Z</time>
      </trkpt>
      <trkpt lat="47.46965" lon="6.78582">
        <ele>361.3</ele>
        <time>2017-10-01T07:23:30Z</time>
      </trkpt>
      <trkpt lat="47.46956" lon="6.78584">
        <ele>359.2</ele>
        <time>2017-10-01T07:23:31Z</time>
      </trkpt>
      <trkpt lat="47.46947" lon="6.78589">
        <ele>358.4</ele>
        <time>2017-10-01T07:23:32Z</time>
      </trkpt>
      <trkpt lat="47.46941" lon="6.78592">
        <ele>357.3</ele>
        <time>2017-10-01T07:23:33Z</time>
      </trkpt>
      <trkpt lat="47.46935" lon="6.78588">
        <ele>357.5</ele>
        <time>2017-10-01T07:23:34Z</time>
      </trkpt>
      <trkpt lat="47.4693" lon="6.78585">
        <ele>357.7</ele>
        <time>2017-10-01T07:23:35Z</time>
      </trkpt>
      <trkpt lat="47.46923" lon="6.78586">
        <ele>357.9</ele>
        <time>2017-10-01T07:23:36Z</time>
      </trkpt>
      <trkpt lat="47.46916" lon="6.78588">
        <ele>358.2</ele>
        <time>2017-10-01T07:23:37Z</time>
      </trkpt>
      <trkpt lat="47.46912" lon="6.78592">
        <ele>358.5</ele>
        <time>2017-10-01T07:23:38Z</time>
      </trkpt>
      <trkpt lat="47.4691" lon="6.78586">
        <ele>358.9</ele>
        <time>2017-10-01T07:23:45Z</time>
      </trkpt>
      <trkpt lat="47.46909" lon="6.78585">
        <ele>359</ele>
        <time>2017-10-01T07:23:46Z</time>
      </trkpt>
      <trkpt lat="47.46906" lon="6.78583">
        <ele>359.3</ele>
        <time>2017-10-01T07:23:48Z</time>
      </trkpt>
      <trkpt lat="47.46903" lon="6.78583">
        <ele>359.5</ele>
        <time>2017-10-01T07:23:49Z</time>
      </trkpt>
      <trkpt lat="47.46899" lon="6.78581">
        <ele>359.7</ele>
        <time>2017-10-01T07:23:52Z</time>
      </trkpt>
      <trkpt lat="47.46895" lon="6.7858">
        <ele>360</ele>
        <time>2017-10-01T07:23:53Z</time>
      </trkpt>
      <trkpt lat="47.46893" lon="6.7858">
        <ele>360.1</ele>
        <time>2017-10-01T07:23:54Z</time>
      </trkpt>
      <trkpt lat="47.46889" lon="6.78581">
        <ele>360.4</ele>
        <time>2017-10-01T07:23:55Z</time>
      </trkpt>
      <trkpt lat="47.46885" lon="6.78578">
        <ele>360.6</ele>
        <time>2017-10-01T07:23:56Z</time>
      </trkpt>
      <trkpt lat="47.46884" lon="6.78577">
        <ele>360.7</ele>
        <time>2017-10-01T07:23:57Z</time>
      </trkpt>
      <trkpt lat="47.46879" lon="6.78577">
        <ele>360.9</ele>
        <time>2017-10-01T07:24:01Z</time>
      </trkpt>
      <trkpt lat="47.46878" lon="6.78577">
        <ele>361</ele>
        <time>2017-10-01T07:24:02Z</time>
      </trkpt>
      <trkpt lat="47.46874" lon="6.78578">
        <ele>361.9</ele>
        <time>2017-10-01T07:24:06Z</time>
      </trkpt>
      <trkpt lat="47.46874" lon="6.78578">
        <ele>361.9</ele>
        <time>2017-10-01T07:24:07Z</time>
      </trkpt>
      <trkpt lat="47.4687" lon="6.78579">
        <ele>362.3</ele>
        <time>2017-10-01T07:24:20Z</time>
      </trkpt>
      <trkpt lat="47.46869" lon="6.78579">
        <ele>362.9</ele>
        <time>2017-10-01T07:24:21Z</time>
      </trkpt>
      <trkpt lat="47.46864" lon="6.78579">
        <ele>363.6</ele>
        <time>2017-10-01T07:24:22Z</time>
      </trkpt>
      <trkpt lat="47.4686" lon="6.78577">
        <ele>364.1</ele>
        <time>2017-10-01T07:24:23Z</time>
      </trkpt>
      <trkpt lat="47.46856" lon="6.78576">
        <ele>365.9</ele>
        <time>2017-10-01T07:24:31Z</time>
      </trkpt>
      <trkpt lat="47.46856" lon="6.78577">
        <ele>365.8</ele>
        <time>2017-10-01T07:24:32Z</time>
      </trkpt>
      <trkpt lat="47.46853" lon="6.78581">
        <ele>367</ele>
        <time>2017-10-01T07:24:33Z</time>
      </trkpt>
      <trkpt lat="47.46851" lon="6.78584">
        <ele>368.1</ele>
        <time>2017-10-01T07:24:34Z</time>
      </trkpt>
      <trkpt lat="47.46848" lon="6.78589">
        <ele>369.4</ele>
        <time>2017-10-01T07:24:35Z</time>
      </trkpt>
      <trkpt lat="47.46845" lon="6.78592">
        <ele>370.6</ele>
        <time>2017-10-01T07:24:36Z</time>
      </trkpt>
      <trkpt lat="47.46841" lon="6.78595">
        <ele>371.9</ele>
        <time>2017-10-01T07:24:38Z</time>
      </trkpt>
      <trkpt lat="47.46839" lon="6.78596">
        <ele>373</ele>
        <time>2017-10-01T07:24:39Z</time>
      </trkpt>
      <trkpt lat="47.46837" lon="6.78596">
        <ele>374</ele>
        <time>2017-10-01T07:24:40Z</time>
      </trkpt>
      <trkpt lat="47.46834" lon="6.78596">
        <ele>374</ele>
        <time>2017-10-01T07:24:41Z</time>
      </trkpt>
      <trkpt lat="47.46831" lon="6.78596">
        <ele>375</ele>
        <time>2017-10-01T07:24:42Z</time>
      </trkpt>
      <trkpt lat="47.4683" lon="6.78596">
        <ele>376.1</ele>
        <time>2017-10-01T07:24:43Z</time>
      </trkpt>
      <trkpt lat="47.46828" lon="6.78597">
        <ele>376</ele>
        <time>2017-10-01T07:24:44Z</time>
      </trkpt>
      <trkpt lat="47.46825" lon="6.78599">
        <ele>378.2</ele>
        <time>2017-10-01T07:24:45Z</time>
      </trkpt>
      <trkpt lat="47.46821" lon="6.78601">
        <ele>379.2</ele>
        <time>2017-10-01T07:24:46Z</time>
      </trkpt>
      <trkpt lat="47.46817" lon="6.78603">
        <ele>380.2</ele>
        <time>2017-10-01T07:24:47Z</time>
      </trkpt>
      <trkpt lat="47.46814" lon="6.78606">
        <ele>381.9</ele>
        <time>2017-10-01T07:24:51Z</time>
      </trkpt>
      <trkpt lat="47.46813" lon="6.78607">
        <ele>381.8</ele>
        <time>2017-10-01T07:24:52Z</time>
      </trkpt>
      <trkpt lat="47.46812" lon="6.78606">
        <ele>381.8</ele>
        <time>2017-10-01T07:24:55Z</time>
      </trkpt>
      <trkpt lat="47.46809" lon="6.7861">
        <ele>382.4</ele>
        <time>2017-10-01T07:24:56Z</time>
      </trkpt>
      <trkpt lat="47.46807" lon="6.78613">
        <ele>383.1</ele>
        <time>2017-10-01T07:24:59Z</time>
      </trkpt>
      <trkpt lat="47.46805" lon="6.78615">
        <ele>383.6</ele>
        <time>2017-10-01T07:25:00Z</time>
      </trkpt>
      <trkpt lat="47.46803" lon="6.78616">
        <ele>383.6</ele>
        <time>2017-10-01T07:25:02Z</time>
      </trkpt>
      <trkpt lat="47.46802" lon="6.78621">
        <ele>384.3</ele>
        <time>2017-10-01T07:25:03Z</time>
      </trkpt>
      <trkpt lat="47.468" lon="6.78627">
        <ele>384.4</ele>
        <time>2017-10-01T07:25:07Z</time>
      </trkpt>
      <trkpt lat="47.46798" lon="6.7863">
        <ele>384.9</ele>
        <time>2017-10-01T07:25:08Z</time>
      </trkpt>
      <trkpt lat="47.46797" lon="6.78634">
        <ele>385</ele>
        <time>2017-10-01T07:25:10Z</time>
      </trkpt>
      <trkpt lat="47.46796" lon="6.78636">
        <ele>385.3</ele>
        <time>2017-10-01T07:25:11Z</time>
      </trkpt>
      <trkpt lat="47.46793" lon="6.78637">
        <ele>385.5</ele>
        <time>2017-10-01T07:25:12Z</time>
      </trkpt>
      <trkpt lat="47.46791" lon="6.78642">
        <ele>385.6</ele>
        <time>2017-10-01T07:25:13Z</time>
      </trkpt>
      <trkpt lat="47.46789" lon="6.78644">
        <ele>385.7</ele>
        <time>2017-10-01T07:25:15Z</time>
      </trkpt>
      <trkpt lat="47.46786" lon="6.78645">
        <ele>385.7</ele>
        <time>2017-10-01T07:25:16Z</time>
      </trkpt>
      <trkpt lat="47.46782" lon="6.78647">
        <ele>385.6</ele>
        <time>2017-10-01T07:25:21Z</time>
      </trkpt>
      <trkpt lat="47.4678" lon="6.78647">
        <ele>385.5</ele>
        <time>2017-10-01T07:25:22Z</time>
      </trkpt>
      <trkpt lat="47.46776" lon="6.78651">
        <ele>385.3</ele>
        <time>2017-10-01T07:25:23Z</time>
      </trkpt>
      <trkpt lat="47.46772" lon="6.78655">
        <ele>385.2</ele>
        <time>2017-10-01T07:25:24Z</time>
      </trkpt>
      <trkpt lat="47.46768" lon="6.78656">
        <ele>385.1</ele>
        <time>2017-10-01T07:25:28Z</time>
      </trkpt>
      <trkpt lat="47.46767" lon="6.78656">
        <ele>385.1</ele>
        <time>2017-10-01T07:25:29Z</time>
      </trkpt>
      <trkpt lat="47.46765" lon="6.7866">
        <ele>385</ele>
        <time>2017-10-01T07:25:33Z</time>
      </trkpt>
      <trkpt lat="47.46764" lon="6.78662">
        <ele>385</ele>
        <time>2017-10-01T07:25:34Z</time>
      </trkpt>
      <trkpt lat="47.46761" lon="6.78667">
        <ele>384.9</ele>
        <time>2017-10-01T07:25:35Z</time>
      </trkpt>
      <trkpt lat="47.46759" lon="6.78673">
        <ele>384.7</ele>
        <time>2017-10-01T07:25:36Z</time>
      </trkpt>
      <trkpt lat="47.46758" lon="6.78676">
        <ele>384.7</ele>
        <time>2017-10-01T07:25:37Z</time>
      </trkpt>
      <trkpt lat="47.46755" lon="6.78681">
        <ele>384.3</ele>
        <time>2017-10-01T07:25:38Z</time>
      </trkpt>
      <trkpt lat="47.46754" lon="6.78683">
        <ele>384.3</ele>
        <time>2017-10-01T07:25:40Z</time>
      </trkpt>
      <trkpt lat="47.46753" lon="6.78689">
        <ele>384</ele>
        <time>2017-10-01T07:25:41Z</time>
      </trkpt>
      <trkpt lat="47.46749" lon="6.78692">
        <ele>383.7</ele>
        <time>2017-10-01T07:25:46Z</time>
      </trkpt>
      <trkpt lat="47.46748" lon="6.78691">
        <ele>383.6</ele>
        <time>2017-10-01T07:25:47Z</time>
      </trkpt>
      <trkpt lat="47.46745" lon="6.78687">
        <ele>383.8</ele>
        <time>2017-10-01T07:25:50Z</time>
      </trkpt>
      <trkpt lat="47.46744" lon="6.78686">
        <ele>383.8</ele>
        <time>2017-10-01T07:25:51Z</time>
      </trkpt>
      <trkpt lat="47.4674" lon="6.78685">
        <ele>383.8</ele>
        <time>2017-10-01T07:25:55Z</time>
      </trkpt>
      <trkpt lat="47.46739" lon="6.78687">
        <ele>383.7</ele>
        <time>2017-10-01T07:25:56Z</time>
      </trkpt>
      <trkpt lat="47.46736" lon="6.78691">
        <ele>383.5</ele>
        <time>2017-10-01T07:25:57Z</time>
      </trkpt>
      <trkpt lat="47.46735" lon="6.78692">
        <ele>383.5</ele>
        <time>2017-10-01T07:25:58Z</time>
      </trkpt>
      <trkpt lat="47.46732" lon="6.78697">
        <ele>383.3</ele>
        <time>2017-10-01T07:26:02Z</time>
      </trkpt>
      <trkpt lat="47.4673" lon="6.78698">
        <ele>382.9</ele>
        <time>2017-10-01T07:26:03Z</time>
      </trkpt>
      <trkpt lat="47.46726" lon="6.78698">
        <ele>383.2</ele>
        <time>2017-10-01T07:26:04Z</time>
      </trkpt>
      <trkpt lat="47.46725" lon="6.78699">
        <ele>383.1</ele>
        <time>2017-10-01T07:26:05Z</time>
      </trkpt>
      <trkpt lat="47.4672" lon="6.78699">
        <ele>383.5</ele>
        <time>2017-10-01T07:26:10Z</time>
      </trkpt>
      <trkpt lat="47.46719" lon="6.78698">
        <ele>383.4</ele>
        <time>2017-10-01T07:26:11Z</time>
      </trkpt>
      <trkpt lat="47.46714" lon="6.78699">
        <ele>384</ele>
        <time>2017-10-01T07:26:12Z</time>
      </trkpt>
      <trkpt lat="47.46711" lon="6.78698">
        <ele>384.4</ele>
        <time>2017-10-01T07:26:16Z</time>
      </trkpt>
      <trkpt lat="47.46709" lon="6.78698">
        <ele>384.8</ele>
        <time>2017-10-01T07:26:17Z</time>
      </trkpt>
      <trkpt lat="47.46706" lon="6.78698">
        <ele>385.2</ele>
        <time>2017-10-01T07:26:19Z</time>
      </trkpt>
      <trkpt lat="47.46704" lon="6.78698">
        <ele>385.1</ele>
        <time>2017-10-01T07:26:20Z</time>
      </trkpt>
      <trkpt lat="47.46701" lon="6.78698">
        <ele>385.5</ele>
        <time>2017-10-01T07:26:23Z</time>
      </trkpt>
      <trkpt lat="47.46699" lon="6.78699">
        <ele>386</ele>
        <time>2017-10-01T07:26:24Z</time>
      </trkpt>
      <trkpt lat="47.46695" lon="6.787">
        <ele>386.4</ele>
        <time>2017-10-01T07:26:27Z</time>
      </trkpt>
      <trkpt lat="47.46694" lon="6.78699">
        <ele>386.8</ele>
        <time>2017-10-01T07:26:28Z</time>
      </trkpt>
      <trkpt lat="47.46691" lon="6.787">
        <ele>387.2</ele>
        <time>2017-10-01T07:26:30Z</time>
      </trkpt>
      <trkpt lat="47.46689" lon="6.787">
        <ele>387.1</ele>
        <time>2017-10-01T07:26:31Z</time>
      </trkpt>
      <trkpt lat="47.46685" lon="6.78699">
        <ele>388</ele>
        <time>2017-10-01T07:26:34Z</time>
      </trkpt>
      <trkpt lat="47.46683" lon="6.787">
        <ele>388.4</ele>
        <time>2017-10-01T07:26:35Z</time>
      </trkpt>
      <trkpt lat="47.46679" lon="6.78701">
        <ele>388.8</ele>
        <time>2017-10-01T07:26:38Z</time>
      </trkpt>
      <trkpt lat="47.46677" lon="6.78701">
        <ele>389.2</ele>
        <time>2017-10-01T07:26:39Z</time>
      </trkpt>
      <trkpt lat="47.46674" lon="6.787">
        <ele>389.5</ele>
        <time>2017-10-01T07:26:41Z</time>
      </trkpt>
      <trkpt lat="47.46673" lon="6.78699">
        <ele>389.4</ele>
        <time>2017-10-01T07:26:42Z</time>
      </trkpt>
      <trkpt lat="47.46669" lon="6.78699">
        <ele>389.7</ele>
        <time>2017-10-01T07:26:44Z</time>
      </trkpt>
      <trkpt lat="47.46668" lon="6.78699">
        <ele>390</ele>
        <time>2017-10-01T07:26:45Z</time>
      </trkpt>
      <trkpt lat="47.46664" lon="6.78699">
        <ele>390.2</ele>
        <time>2017-10-01T07:26:48Z</time>
      </trkpt>
      <trkpt lat="47.46662" lon="6.78699">
        <ele>390.4</ele>
        <time>2017-10-01T07:26:49Z</time>
      </trkpt>
      <trkpt lat="47.46658" lon="6.787">
        <ele>390.6</ele>
        <time>2017-10-01T07:26:51Z</time>
      </trkpt>
      <trkpt lat="47.46657" lon="6.787">
        <ele>390.5</ele>
        <time>2017-10-01T07:26:52Z</time>
      </trkpt>
      <trkpt lat="47.46653" lon="6.787">
        <ele>390.9</ele>
        <time>2017-10-01T07:26:55Z</time>
      </trkpt>
      <trkpt lat="47.46651" lon="6.787">
        <ele>391.1</ele>
        <time>2017-10-01T07:26:56Z</time>
      </trkpt>
      <trkpt lat="47.46648" lon="6.78701">
        <ele>391.2</ele>
        <time>2017-10-01T07:26:58Z</time>
      </trkpt>
      <trkpt lat="47.46647" lon="6.78702">
        <ele>391.1</ele>
        <time>2017-10-01T07:26:59Z</time>
      </trkpt>
      <trkpt lat="47.46643" lon="6.78703">
        <ele>390.9</ele>
        <time>2017-10-01T07:27:01Z</time>
      </trkpt>
      <trkpt lat="47.46642" lon="6.78703">
        <ele>391</ele>
        <time>2017-10-01T07:27:02Z</time>
      </trkpt>
      <trkpt lat="47.46638" lon="6.78703">
        <ele>391</ele>
        <time>2017-10-01T07:27:05Z</time>
      </trkpt>
      <trkpt lat="47.46637" lon="6.78703">
        <ele>391.1</ele>
        <time>2017-10-01T07:27:06Z</time>
      </trkpt>
      <trkpt lat="47.46633" lon="6.78703">
        <ele>391.2</ele>
        <time>2017-10-01T07:27:09Z</time>
      </trkpt>
      <trkpt lat="47.46631" lon="6.78704">
        <ele>391.3</ele>
        <time>2017-10-01T07:27:10Z</time>
      </trkpt>
      <trkpt lat="47.46627" lon="6.78704">
        <ele>391.4</ele>
        <time>2017-10-01T07:27:13Z</time>
      </trkpt>
      <trkpt lat="47.46626" lon="6.78704">
        <ele>391.3</ele>
        <time>2017-10-01T07:27:14Z</time>
      </trkpt>
      <trkpt lat="47.46622" lon="6.78704">
        <ele>391.6</ele>
        <time>2017-10-01T07:27:18Z</time>
      </trkpt>
      <trkpt lat="47.46621" lon="6.78704">
        <ele>391.5</ele>
        <time>2017-10-01T07:27:19Z</time>
      </trkpt>
      <trkpt lat="47.46617" lon="6.78704">
        <ele>391.6</ele>
        <time>2017-10-01T07:27:24Z</time>
      </trkpt>
      <trkpt lat="47.46616" lon="6.78703">
        <ele>391.6</ele>
        <time>2017-10-01T07:27:25Z</time>
      </trkpt>
      <trkpt lat="47.46612" lon="6.78701">
        <ele>391.8</ele>
        <time>2017-10-01T07:27:28Z</time>
      </trkpt>
      <trkpt lat="47.46612" lon="6.78701">
        <ele>391.8</ele>
        <time>2017-10-01T07:27:29Z</time>
      </trkpt>
      <trkpt lat="47.46608" lon="6.78702">
        <ele>391.6</ele>
        <time>2017-10-01T07:27:32Z</time>
      </trkpt>
      <trkpt lat="47.46606" lon="6.78701">
        <ele>391.5</ele>
        <time>2017-10-01T07:27:33Z</time>
      </trkpt>
      <trkpt lat="47.46602" lon="6.78701">
        <ele>391.4</ele>
        <time>2017-10-01T07:27:35Z</time>
      </trkpt>
      <trkpt lat="47.46602" lon="6.787">
        <ele>391.3</ele>
        <time>2017-10-01T07:27:36Z</time>
      </trkpt>
      <trkpt lat="47.46598" lon="6.78698">
        <ele>391.2</ele>
        <time>2017-10-01T07:27:39Z</time>
      </trkpt>
      <trkpt lat="47.46597" lon="6.78697">
        <ele>391.4</ele>
        <time>2017-10-01T07:27:40Z</time>
      </trkpt>
      <trkpt lat="47.46594" lon="6.78697">
        <ele>391.3</ele>
        <time>2017-10-01T07:27:42Z</time>
      </trkpt>
      <trkpt lat="47.46592" lon="6.78697">
        <ele>391.3</ele>
        <time>2017-10-01T07:27:43Z</time>
      </trkpt>
      <trkpt lat="47.46589" lon="6.78696">
        <ele>391.3</ele>
        <time>2017-10-01T07:27:45Z</time>
      </trkpt>
      <trkpt lat="47.46587" lon="6.78696">
        <ele>391.3</ele>
        <time>2017-10-01T07:27:46Z</time>
      </trkpt>
      <trkpt lat="47.46583" lon="6.78695">
        <ele>391.3</ele>
        <time>2017-10-01T07:27:48Z</time>
      </trkpt>
      <trkpt lat="47.46581" lon="6.78695">
        <ele>391.3</ele>
        <time>2017-10-01T07:27:49Z</time>
      </trkpt>
      <trkpt lat="47.46577" lon="6.78695">
        <ele>391.5</ele>
        <time>2017-10-01T07:27:51Z</time>
      </trkpt>
      <trkpt lat="47.46575" lon="6.78695">
        <ele>391.7</ele>
        <time>2017-10-01T07:27:52Z</time>
      </trkpt>
      <trkpt lat="47.46573" lon="6.78695">
        <ele>392.1</ele>
        <time>2017-10-01T07:27:53Z</time>
      </trkpt>
      <trkpt lat="47.46569" lon="6.78699">
        <ele>392.3</ele>
        <time>2017-10-01T07:27:54Z</time>
      </trkpt>
      <trkpt lat="47.46565" lon="6.787">
        <ele>392.7</ele>
        <time>2017-10-01T07:27:56Z</time>
      </trkpt>
      <trkpt lat="47.46564" lon="6.78699">
        <ele>393.2</ele>
        <time>2017-10-01T07:27:57Z</time>
      </trkpt>
      <trkpt lat="47.46561" lon="6.78697">
        <ele>394</ele>
        <time>2017-10-01T07:28:01Z</time>
      </trkpt>
      <trkpt lat="47.4656" lon="6.78694">
        <ele>393.9</ele>
        <time>2017-10-01T07:28:02Z</time>
      </trkpt>
      <trkpt lat="47.46559" lon="6.78689">
        <ele>394.4</ele>
        <time>2017-10-01T07:28:04Z</time>
      </trkpt>
      <trkpt lat="47.46559" lon="6.78686">
        <ele>394.3</ele>
        <time>2017-10-01T07:28:05Z</time>
      </trkpt>
      <trkpt lat="47.46559" lon="6.78681">
        <ele>394.6</ele>
        <time>2017-10-01T07:28:06Z</time>
      </trkpt>
      <trkpt lat="47.46559" lon="6.78677">
        <ele>394.9</ele>
        <time>2017-10-01T07:28:07Z</time>
      </trkpt>
      <trkpt lat="47.46558" lon="6.78672">
        <ele>396</ele>
        <time>2017-10-01T07:28:08Z</time>
      </trkpt>
      <trkpt lat="47.46557" lon="6.78666">
        <ele>396.2</ele>
        <time>2017-10-01T07:28:09Z</time>
      </trkpt>
      <trkpt lat="47.46557" lon="6.78661">
        <ele>396.4</ele>
        <time>2017-10-01T07:28:10Z</time>
      </trkpt>
      <trkpt lat="47.46556" lon="6.78656">
        <ele>396.5</ele>
        <time>2017-10-01T07:28:11Z</time>
      </trkpt>
      <trkpt lat="47.46556" lon="6.78651">
        <ele>396.7</ele>
        <time>2017-10-01T07:28:12Z</time>
      </trkpt>
      <trkpt lat="47.46556" lon="6.78647">
        <ele>396.7</ele>
        <time>2017-10-01T07:28:13Z</time>
      </trkpt>
      <trkpt lat="47.46556" lon="6.7864">
        <ele>396.8</ele>
        <time>2017-10-01T07:28:14Z</time>
      </trkpt>
      <trkpt lat="47.46557" lon="6.78635">
        <ele>396.8</ele>
        <time>2017-10-01T07:28:15Z</time>
      </trkpt>
      <trkpt lat="47.46557" lon="6.7863">
        <ele>396.7</ele>
        <time>2017-10-01T07:28:16Z</time>
      </trkpt>
      <trkpt lat="47.46556" lon="6.78624">
        <ele>396.7</ele>
        <time>2017-10-01T07:28:17Z</time>
      </trkpt>
      <trkpt lat="47.46556" lon="6.78619">
        <ele>396.6</ele>
        <time>2017-10-01T07:28:18Z</time>
      </trkpt>
      <trkpt lat="47.46556" lon="6.78612">
        <ele>396.5</ele>
        <time>2017-10-01T07:28:19Z</time>
      </trkpt>
      <trkpt lat="47.46556" lon="6.78607">
        <ele>396.4</ele>
        <time>2017-10-01T07:28:20Z</time>
      </trkpt>
      <trkpt lat="47.46556" lon="6.78602">
        <ele>396.4</ele>
        <time>2017-10-01T07:28:21Z</time>
      </trkpt>
      <trkpt lat="47.46555" lon="6.78597">
        <ele>396.6</ele>
        <time>2017-10-01T07:28:22Z</time>
      </trkpt>
      <trkpt lat="47.46554" lon="6.78592">
        <ele>396.6</ele>
        <time>2017-10-01T07:28:23Z</time>
      </trkpt>
      <trkpt lat="47.46554" lon="6.78585">
        <ele>396.6</ele>
        <time>2017-10-01T07:28:24Z</time>
      </trkpt>
      <trkpt lat="47.46553" lon="6.78581">
        <ele>396.5</ele>
        <time>2017-10-01T07:28:25Z</time>
      </trkpt>
      <trkpt lat="47.46552" lon="6.78577">
        <ele>396.9</ele>
        <time>2017-10-01T07:28:26Z</time>
      </trkpt>
      <trkpt lat="47.46551" lon="6.78573">
        <ele>396.8</ele>
        <time>2017-10-01T07:28:27Z</time>
      </trkpt>
      <trkpt lat="47.4655" lon="6.78568">
        <ele>396.7</ele>
        <time>2017-10-01T07:28:28Z</time>
      </trkpt>
      <trkpt lat="47.46549" lon="6.78563">
        <ele>397.1</ele>
        <time>2017-10-01T07:28:29Z</time>
      </trkpt>
      <trkpt lat="47.46549" lon="6.78558">
        <ele>397</ele>
        <time>2017-10-01T07:28:30Z</time>
      </trkpt>
      <trkpt lat="47.46548" lon="6.78553">
        <ele>397</ele>
        <time>2017-10-01T07:28:31Z</time>
      </trkpt>
      <trkpt lat="47.46548" lon="6.78548">
        <ele>396.9</ele>
        <time>2017-10-01T07:28:32Z</time>
      </trkpt>
      <trkpt lat="47.46548" lon="6.78544">
        <ele>396.8</ele>
        <time>2017-10-01T07:28:33Z</time>
      </trkpt>
      <trkpt lat="47.46548" lon="6.7854">
        <ele>396.7</ele>
        <time>2017-10-01T07:28:34Z</time>
      </trkpt>
      <trkpt lat="47.46549" lon="6.78536">
        <ele>396.6</ele>
        <time>2017-10-01T07:28:35Z</time>
      </trkpt>
      <trkpt lat="47.46549" lon="6.7853">
        <ele>396.2</ele>
        <time>2017-10-01T07:28:36Z</time>
      </trkpt>
      <trkpt lat="47.4655" lon="6.78523">
        <ele>395.7</ele>
        <time>2017-10-01T07:28:37Z</time>
      </trkpt>
      <trkpt lat="47.46552" lon="6.78517">
        <ele>395</ele>
        <time>2017-10-01T07:28:38Z</time>
      </trkpt>
      <trkpt lat="47.46553" lon="6.78511">
        <ele>394.4</ele>
        <time>2017-10-01T07:28:39Z</time>
      </trkpt>
      <trkpt lat="47.46555" lon="6.78503">
        <ele>393.6</ele>
        <time>2017-10-01T07:28:40Z</time>
      </trkpt>
      <trkpt lat="47.46556" lon="6.78495">
        <ele>392.8</ele>
        <time>2017-10-01T07:28:41Z</time>
      </trkpt>
      <trkpt lat="47.46557" lon="6.78487">
        <ele>392.3</ele>
        <time>2017-10-01T07:28:42Z</time>
      </trkpt>
      <trkpt lat="47.46558" lon="6.78479">
        <ele>392.1</ele>
        <time>2017-10-01T07:28:43Z</time>
      </trkpt>
      <trkpt lat="47.46559" lon="6.78471">
        <ele>391.8</ele>
        <time>2017-10-01T07:28:44Z</time>
      </trkpt>
      <trkpt lat="47.4656" lon="6.78463">
        <ele>391.8</ele>
        <time>2017-10-01T07:28:45Z</time>
      </trkpt>
      <trkpt lat="47.46561" lon="6.78456">
        <ele>391.7</ele>
        <time>2017-10-01T07:28:46Z</time>
      </trkpt>
      <trkpt lat="47.46562" lon="6.78448">
        <ele>391.7</ele>
        <time>2017-10-01T07:28:47Z</time>
      </trkpt>
      <trkpt lat="47.46562" lon="6.78441">
        <ele>391.6</ele>
        <time>2017-10-01T07:28:48Z</time>
      </trkpt>
      <trkpt lat="47.46562" lon="6.78434">
        <ele>391.4</ele>
        <time>2017-10-01T07:28:49Z</time>
      </trkpt>
      <trkpt lat="47.46562" lon="6.7843">
        <ele>391.3</ele>
        <time>2017-10-01T07:28:50Z</time>
      </trkpt>
      <trkpt lat="47.46559" lon="6.78434">
        <ele>391.4</ele>
        <time>2017-10-01T07:29:00Z</time>
      </trkpt>
      <trkpt lat="47.46559" lon="6.78437">
        <ele>391.4</ele>
        <time>2017-10-01T07:29:01Z</time>
      </trkpt>
      <trkpt lat="47.46557" lon="6.78443">
        <ele>391.4</ele>
        <time>2017-10-01T07:29:04Z</time>
      </trkpt>
      <trkpt lat="47.46555" lon="6.78444">
        <ele>391.5</ele>
        <time>2017-10-01T07:29:05Z</time>
      </trkpt>
      <trkpt lat="47.46552" lon="6.78444">
        <ele>391.6</ele>
        <time>2017-10-01T07:29:08Z</time>
      </trkpt>
      <trkpt lat="47.4655" lon="6.78444">
        <ele>391.6</ele>
        <time>2017-10-01T07:29:09Z</time>
      </trkpt>
      <trkpt lat="47.46547" lon="6.78443">
        <ele>392.2</ele>
        <time>2017-10-01T07:29:11Z</time>
      </trkpt>
      <trkpt lat="47.46545" lon="6.78442">
        <ele>392.1</ele>
        <time>2017-10-01T07:29:12Z</time>
      </trkpt>
      <trkpt lat="47.4654" lon="6.78442">
        <ele>393</ele>
        <time>2017-10-01T07:29:15Z</time>
      </trkpt>
      <trkpt lat="47.46539" lon="6.78442">
        <ele>392.9</ele>
        <time>2017-10-01T07:29:16Z</time>
      </trkpt>
      <trkpt lat="47.46536" lon="6.78442">
        <ele>393.4</ele>
        <time>2017-10-01T07:29:18Z</time>
      </trkpt>
      <trkpt lat="47.46534" lon="6.78442">
        <ele>393.9</ele>
        <time>2017-10-01T07:29:19Z</time>
      </trkpt>
      <trkpt lat="47.4653" lon="6.78442">
        <ele>394.4</ele>
        <time>2017-10-01T07:29:23Z</time>
      </trkpt>
      <trkpt lat="47.46529" lon="6.78442">
        <ele>394.8</ele>
        <time>2017-10-01T07:29:24Z</time>
      </trkpt>
      <trkpt lat="47.46525" lon="6.78441">
        <ele>395.3</ele>
        <time>2017-10-01T07:29:29Z</time>
      </trkpt>
      <trkpt lat="47.46524" lon="6.78441">
        <ele>395.2</ele>
        <time>2017-10-01T07:29:30Z</time>
      </trkpt>
      <trkpt lat="47.4652" lon="6.7844">
        <ele>396.3</ele>
        <time>2017-10-01T07:29:33Z</time>
      </trkpt>
      <trkpt lat="47.46519" lon="6.7844">
        <ele>396.5</ele>
        <time>2017-10-01T07:29:34Z</time>
      </trkpt>
      <trkpt lat="47.46515" lon="6.78439">
        <ele>397.6</ele>
        <time>2017-10-01T07:29:37Z</time>
      </trkpt>
      <trkpt lat="47.46513" lon="6.78439">
        <ele>397.6</ele>
        <time>2017-10-01T07:29:38Z</time>
      </trkpt>
      <trkpt lat="47.4651" lon="6.7844">
        <ele>398.1</ele>
        <time>2017-10-01T07:29:41Z</time>
      </trkpt>
      <trkpt lat="47.46509" lon="6.7844">
        <ele>398.7</ele>
        <time>2017-10-01T07:29:42Z</time>
      </trkpt>
      <trkpt lat="47.46505" lon="6.7844">
        <ele>399.3</ele>
        <time>2017-10-01T07:29:46Z</time>
      </trkpt>
      <trkpt lat="47.46503" lon="6.7844">
        <ele>399.8</ele>
        <time>2017-10-01T07:29:47Z</time>
      </trkpt>
      <trkpt lat="47.46499" lon="6.7844">
        <ele>400.4</ele>
        <time>2017-10-01T07:29:51Z</time>
      </trkpt>
      <trkpt lat="47.46498" lon="6.7844">
        <ele>400.3</ele>
        <time>2017-10-01T07:29:52Z</time>
      </trkpt>
      <trkpt lat="47.46494" lon="6.78441">
        <ele>401.6</ele>
        <time>2017-10-01T07:29:55Z</time>
      </trkpt>
      <trkpt lat="47.46492" lon="6.78441">
        <ele>401.6</ele>
        <time>2017-10-01T07:29:56Z</time>
      </trkpt>
      <trkpt lat="47.46488" lon="6.7844">
        <ele>403</ele>
        <time>2017-10-01T07:30:00Z</time>
      </trkpt>
      <trkpt lat="47.46487" lon="6.7844">
        <ele>402.9</ele>
        <time>2017-10-01T07:30:01Z</time>
      </trkpt>
      <trkpt lat="47.46483" lon="6.7844">
        <ele>404.1</ele>
        <time>2017-10-01T07:30:04Z</time>
      </trkpt>
      <trkpt lat="47.46481" lon="6.7844">
        <ele>404.1</ele>
        <time>2017-10-01T07:30:05Z</time>
      </trkpt>
      <trkpt lat="47.46478" lon="6.78439">
        <ele>404.5</ele>
        <time>2017-10-01T07:30:08Z</time>
      </trkpt>
      <trkpt lat="47.46477" lon="6.78439">
        <ele>404.9</ele>
        <time>2017-10-01T07:30:09Z</time>
      </trkpt>
      <trkpt lat="47.46474" lon="6.78439">
        <ele>405.2</ele>
        <time>2017-10-01T07:30:11Z</time>
      </trkpt>
      <trkpt lat="47.46472" lon="6.78439">
        <ele>405.1</ele>
        <time>2017-10-01T07:30:12Z</time>
      </trkpt>
      <trkpt lat="47.46468" lon="6.7844">
        <ele>405.6</ele>
        <time>2017-10-01T07:30:14Z</time>
      </trkpt>
      <trkpt lat="47.46467" lon="6.7844">
        <ele>405.6</ele>
        <time>2017-10-01T07:30:15Z</time>
      </trkpt>
      <trkpt lat="47.46464" lon="6.78442">
        <ele>405.7</ele>
        <time>2017-10-01T07:30:17Z</time>
      </trkpt>
      <trkpt lat="47.46462" lon="6.78442">
        <ele>405.8</ele>
        <time>2017-10-01T07:30:18Z</time>
      </trkpt>
      <trkpt lat="47.46458" lon="6.78443">
        <ele>405.8</ele>
        <time>2017-10-01T07:30:21Z</time>
      </trkpt>
      <trkpt lat="47.46457" lon="6.78443">
        <ele>405.8</ele>
        <time>2017-10-01T07:30:22Z</time>
      </trkpt>
      <trkpt lat="47.46454" lon="6.78443">
        <ele>405.8</ele>
        <time>2017-10-01T07:30:25Z</time>
      </trkpt>
      <trkpt lat="47.46452" lon="6.78443">
        <ele>405.7</ele>
        <time>2017-10-01T07:30:26Z</time>
      </trkpt>
      <trkpt lat="47.46448" lon="6.78443">
        <ele>405.6</ele>
        <time>2017-10-01T07:30:29Z</time>
      </trkpt>
      <trkpt lat="47.46447" lon="6.78442">
        <ele>405.6</ele>
        <time>2017-10-01T07:30:30Z</time>
      </trkpt>
      <trkpt lat="47.46444" lon="6.78442">
        <ele>405.5</ele>
        <time>2017-10-01T07:30:32Z</time>
      </trkpt>
      <trkpt lat="47.46442" lon="6.78441">
        <ele>405.5</ele>
        <time>2017-10-01T07:30:33Z</time>
      </trkpt>
      <trkpt lat="47.46438" lon="6.7844">
        <ele>405.4</ele>
        <time>2017-10-01T07:30:35Z</time>
      </trkpt>
      <trkpt lat="47.46434" lon="6.78439">
        <ele>405.5</ele>
        <time>2017-10-01T07:30:36Z</time>
      </trkpt>
      <trkpt lat="47.46431" lon="6.78439">
        <ele>405.5</ele>
        <time>2017-10-01T07:30:37Z</time>
      </trkpt>
      <trkpt lat="47.46428" lon="6.78439">
        <ele>405.7</ele>
        <time>2017-10-01T07:30:38Z</time>
      </trkpt>
      <trkpt lat="47.46426" lon="6.78439">
        <ele>405.6</ele>
        <time>2017-10-01T07:30:39Z</time>
      </trkpt>
      <trkpt lat="47.46423" lon="6.78439">
        <ele>405.6</ele>
        <time>2017-10-01T07:30:40Z</time>
      </trkpt>
      <trkpt lat="47.4642" lon="6.78439">
        <ele>405.5</ele>
        <time>2017-10-01T07:30:41Z</time>
      </trkpt>
      <trkpt lat="47.46417" lon="6.78439">
        <ele>405.4</ele>
        <time>2017-10-01T07:30:42Z</time>
      </trkpt>
      <trkpt lat="47.46414" lon="6.78438">
        <ele>405.3</ele>
        <time>2017-10-01T07:30:43Z</time>
      </trkpt>
      <trkpt lat="47.46412" lon="6.78438">
        <ele>405.1</ele>
        <time>2017-10-01T07:30:44Z</time>
      </trkpt>
      <trkpt lat="47.46409" lon="6.78437">
        <ele>404.9</ele>
        <time>2017-10-01T07:30:45Z</time>
      </trkpt>
      <trkpt lat="47.46406" lon="6.78437">
        <ele>404.6</ele>
        <time>2017-10-01T07:30:46Z</time>
      </trkpt>
      <trkpt lat="47.46403" lon="6.78436">
        <ele>403.8</ele>
        <time>2017-10-01T07:30:47Z</time>
      </trkpt>
      <trkpt lat="47.46401" lon="6.78435">
        <ele>403.5</ele>
        <time>2017-10-01T07:30:48Z</time>
      </trkpt>
      <trkpt lat="47.46398" lon="6.78434">
        <ele>403.2</ele>
        <time>2017-10-01T07:30:49Z</time>
      </trkpt>
      <trkpt lat="47.46395" lon="6.78434">
        <ele>402.9</ele>
        <time>2017-10-01T07:30:50Z</time>
      </trkpt>
      <trkpt lat="47.46391" lon="6.78433">
        <ele>402.6</ele>
        <time>2017-10-01T07:30:52Z</time>
      </trkpt>
      <trkpt lat="47.46389" lon="6.78432">
        <ele>402.3</ele>
        <time>2017-10-01T07:30:53Z</time>
      </trkpt>
      <trkpt lat="47.46385" lon="6.7843">
        <ele>401.6</ele>
        <time>2017-10-01T07:30:55Z</time>
      </trkpt>
      <trkpt lat="47.46383" lon="6.78429">
        <ele>401.3</ele>
        <time>2017-10-01T07:30:56Z</time>
      </trkpt>
      <trkpt lat="47.4638" lon="6.78428">
        <ele>401.1</ele>
        <time>2017-10-01T07:30:57Z</time>
      </trkpt>
      <trkpt lat="47.46378" lon="6.78427">
        <ele>400.5</ele>
        <time>2017-10-01T07:30:58Z</time>
      </trkpt>
      <trkpt lat="47.46373" lon="6.78426">
        <ele>400.4</ele>
        <time>2017-10-01T07:31:00Z</time>
      </trkpt>
      <trkpt lat="47.46371" lon="6.78427">
        <ele>400.3</ele>
        <time>2017-10-01T07:31:01Z</time>
      </trkpt>
      <trkpt lat="47.46369" lon="6.78427">
        <ele>400.2</ele>
        <time>2017-10-01T07:31:02Z</time>
      </trkpt>
      <trkpt lat="47.46366" lon="6.78428">
        <ele>400.3</ele>
        <time>2017-10-01T07:31:03Z</time>
      </trkpt>
      <trkpt lat="47.46364" lon="6.78429">
        <ele>400.1</ele>
        <time>2017-10-01T07:31:04Z</time>
      </trkpt>
      <trkpt lat="47.46362" lon="6.78431">
        <ele>400.1</ele>
        <time>2017-10-01T07:31:05Z</time>
      </trkpt>
      <trkpt lat="47.46359" lon="6.78433">
        <ele>400.1</ele>
        <time>2017-10-01T07:31:06Z</time>
      </trkpt>
      <trkpt lat="47.46358" lon="6.78434">
        <ele>399.9</ele>
        <time>2017-10-01T07:31:07Z</time>
      </trkpt>
      <trkpt lat="47.46355" lon="6.78436">
        <ele>399.8</ele>
        <time>2017-10-01T07:31:08Z</time>
      </trkpt>
      <trkpt lat="47.46353" lon="6.78437">
        <ele>399.9</ele>
        <time>2017-10-01T07:31:09Z</time>
      </trkpt>
      <trkpt lat="47.46351" lon="6.78437">
        <ele>399.7</ele>
        <time>2017-10-01T07:31:10Z</time>
      </trkpt>
      <trkpt lat="47.46348" lon="6.78438">
        <ele>399.6</ele>
        <time>2017-10-01T07:31:11Z</time>
      </trkpt>
      <trkpt lat="47.46345" lon="6.78438">
        <ele>399.4</ele>
        <time>2017-10-01T07:31:12Z</time>
      </trkpt>
      <trkpt lat="47.46342" lon="6.78438">
        <ele>399.3</ele>
        <time>2017-10-01T07:31:13Z</time>
      </trkpt>
      <trkpt lat="47.46339" lon="6.78438">
        <ele>399.2</ele>
        <time>2017-10-01T07:31:14Z</time>
      </trkpt>
      <trkpt lat="47.46337" lon="6.78438">
        <ele>399</ele>
        <time>2017-10-01T07:31:15Z</time>
      </trkpt>
      <trkpt lat="47.46335" lon="6.78438">
        <ele>398.9</ele>
        <time>2017-10-01T07:31:16Z</time>
      </trkpt>
      <trkpt lat="47.46333" lon="6.78439">
        <ele>398.8</ele>
        <time>2017-10-01T07:31:17Z</time>
      </trkpt>
      <trkpt lat="47.4633" lon="6.78439">
        <ele>398.7</ele>
        <time>2017-10-01T07:31:18Z</time>
      </trkpt>
      <trkpt lat="47.46328" lon="6.7844">
        <ele>398.6</ele>
        <time>2017-10-01T07:31:19Z</time>
      </trkpt>
      <trkpt lat="47.46325" lon="6.78441">
        <ele>398.5</ele>
        <time>2017-10-01T07:31:20Z</time>
      </trkpt>
      <trkpt lat="47.46323" lon="6.78441">
        <ele>398.4</ele>
        <time>2017-10-01T07:31:21Z</time>
      </trkpt>
      <trkpt lat="47.4632" lon="6.78442">
        <ele>398.3</ele>
        <time>2017-10-01T07:31:22Z</time>
      </trkpt>
      <trkpt lat="47.46317" lon="6.78444">
        <ele>398.3</ele>
        <time>2017-10-01T07:31:23Z</time>
      </trkpt>
      <trkpt lat="47.46314" lon="6.78444">
        <ele>398.2</ele>
        <time>2017-10-01T07:31:24Z</time>
      </trkpt>
      <trkpt lat="47.46311" lon="6.78444">
        <ele>398.2</ele>
        <time>2017-10-01T07:31:25Z</time>
      </trkpt>
      <trkpt lat="47.46307" lon="6.78446">
        <ele>398.3</ele>
        <time>2017-10-01T07:31:27Z</time>
      </trkpt>
      <trkpt lat="47.46303" lon="6.78447">
        <ele>398.5</ele>
        <time>2017-10-01T07:31:28Z</time>
      </trkpt>
      <trkpt lat="47.463" lon="6.78449">
        <ele>398.6</ele>
        <time>2017-10-01T07:31:29Z</time>
      </trkpt>
      <trkpt lat="47.46298" lon="6.78449">
        <ele>398.4</ele>
        <time>2017-10-01T07:31:30Z</time>
      </trkpt>
      <trkpt lat="47.46296" lon="6.7845">
        <ele>398.6</ele>
        <time>2017-10-01T07:31:31Z</time>
      </trkpt>
      <trkpt lat="47.46294" lon="6.78452">
        <ele>398.7</ele>
        <time>2017-10-01T07:31:32Z</time>
      </trkpt>
      <trkpt lat="47.46292" lon="6.78453">
        <ele>398.6</ele>
        <time>2017-10-01T07:31:33Z</time>
      </trkpt>
      <trkpt lat="47.46289" lon="6.78455">
        <ele>398.7</ele>
        <time>2017-10-01T07:31:34Z</time>
      </trkpt>
      <trkpt lat="47.46285" lon="6.78459">
        <ele>398.8</ele>
        <time>2017-10-01T07:31:35Z</time>
      </trkpt>
      <trkpt lat="47.46282" lon="6.7846">
        <ele>398.9</ele>
        <time>2017-10-01T07:31:36Z</time>
      </trkpt>
      <trkpt lat="47.46281" lon="6.78461">
        <ele>398.8</ele>
        <time>2017-10-01T07:31:38Z</time>
      </trkpt>
      <trkpt lat="47.46278" lon="6.78465">
        <ele>398.8</ele>
        <time>2017-10-01T07:31:39Z</time>
      </trkpt>
      <trkpt lat="47.46273" lon="6.7847">
        <ele>398.8</ele>
        <time>2017-10-01T07:31:40Z</time>
      </trkpt>
      <trkpt lat="47.46267" lon="6.78471">
        <ele>398.8</ele>
        <time>2017-10-01T07:31:41Z</time>
      </trkpt>
      <trkpt lat="47.46264" lon="6.78472">
        <ele>398.8</ele>
        <time>2017-10-01T07:31:43Z</time>
      </trkpt>
      <trkpt lat="47.46262" lon="6.78474">
        <ele>398.9</ele>
        <time>2017-10-01T07:31:44Z</time>
      </trkpt>
      <trkpt lat="47.46258" lon="6.78476">
        <ele>398.9</ele>
        <time>2017-10-01T07:31:45Z</time>
      </trkpt>
      <trkpt lat="47.46258" lon="6.78476">
        <ele>398.8</ele>
        <time>2017-10-01T07:31:46Z</time>
      </trkpt>
      <trkpt lat="47.46255" lon="6.78479">
        <ele>398.8</ele>
        <time>2017-10-01T07:31:50Z</time>
      </trkpt>
      <trkpt lat="47.46251" lon="6.78481">
        <ele>398.9</ele>
        <time>2017-10-01T07:31:51Z</time>
      </trkpt>
      <trkpt lat="47.46246" lon="6.78483">
        <ele>399</ele>
        <time>2017-10-01T07:31:52Z</time>
      </trkpt>
      <trkpt lat="47.46238" lon="6.78487">
        <ele>399.6</ele>
        <time>2017-10-01T07:31:53Z</time>
      </trkpt>
      <trkpt lat="47.46231" lon="6.78489">
        <ele>400.1</ele>
        <time>2017-10-01T07:31:54Z</time>
      </trkpt>
      <trkpt lat="47.46223" lon="6.7849">
        <ele>400.9</ele>
        <time>2017-10-01T07:31:55Z</time>
      </trkpt>
      <trkpt lat="47.46216" lon="6.78491">
        <ele>401.9</ele>
        <time>2017-10-01T07:31:56Z</time>
      </trkpt>
      <trkpt lat="47.46209" lon="6.78494">
        <ele>402.4</ele>
        <time>2017-10-01T07:31:57Z</time>
      </trkpt>
      <trkpt lat="47.46203" lon="6.78497">
        <ele>402.9</ele>
        <time>2017-10-01T07:31:58Z</time>
      </trkpt>
      <trkpt lat="47.46199" lon="6.78499">
        <ele>403.2</ele>
        <time>2017-10-01T07:31:59Z</time>
      </trkpt>
      <trkpt lat="47.46194" lon="6.78502">
        <ele>403.4</ele>
        <time>2017-10-01T07:32:00Z</time>
      </trkpt>
      <trkpt lat="47.46189" lon="6.78504">
        <ele>403.7</ele>
        <time>2017-10-01T07:32:01Z</time>
      </trkpt>
      <trkpt lat="47.46183" lon="6.78505">
        <ele>403.7</ele>
        <time>2017-10-01T07:32:02Z</time>
      </trkpt>
      <trkpt lat="47.46177" lon="6.78505">
        <ele>404</ele>
        <time>2017-10-01T07:32:03Z</time>
      </trkpt>
      <trkpt lat="47.46172" lon="6.78506">
        <ele>404.3</ele>
        <time>2017-10-01T07:32:04Z</time>
      </trkpt>
      <trkpt lat="47.46169" lon="6.78506">
        <ele>404.4</ele>
        <time>2017-10-01T07:32:05Z</time>
      </trkpt>
      <trkpt lat="47.46167" lon="6.78506">
        <ele>404.5</ele>
        <time>2017-10-01T07:32:06Z</time>
      </trkpt>
      <trkpt lat="47.46162" lon="6.78506">
        <ele>404.6</ele>
        <time>2017-10-01T07:32:07Z</time>
      </trkpt>
      <trkpt lat="47.46159" lon="6.78506">
        <ele>404.7</ele>
        <time>2017-10-01T07:32:08Z</time>
      </trkpt>
      <trkpt lat="47.46154" lon="6.78507">
        <ele>405.1</ele>
        <time>2017-10-01T07:32:09Z</time>
      </trkpt>
      <trkpt lat="47.46149" lon="6.78509">
        <ele>405</ele>
        <time>2017-10-01T07:32:10Z</time>
      </trkpt>
      <trkpt lat="47.46144" lon="6.78511">
        <ele>405.1</ele>
        <time>2017-10-01T07:32:11Z</time>
      </trkpt>
      <trkpt lat="47.46141" lon="6.78511">
        <ele>405.3</ele>
        <time>2017-10-01T07:32:12Z</time>
      </trkpt>
      <trkpt lat="47.46135" lon="6.78512">
        <ele>405.3</ele>
        <time>2017-10-01T07:32:13Z</time>
      </trkpt>
      <trkpt lat="47.46133" lon="6.78512">
        <ele>405.3</ele>
        <time>2017-10-01T07:32:14Z</time>
      </trkpt>
      <trkpt lat="47.46129" lon="6.78512">
        <ele>405.4</ele>
        <time>2017-10-01T07:32:15Z</time>
      </trkpt>
      <trkpt lat="47.46126" lon="6.78513">
        <ele>405.5</ele>
        <time>2017-10-01T07:32:16Z</time>
      </trkpt>
      <trkpt lat="47.46124" lon="6.78513">
        <ele>404.8</ele>
        <time>2017-10-01T07:32:17Z</time>
      </trkpt>
      <trkpt lat="47.46121" lon="6.78514">
        <ele>404.8</ele>
        <time>2017-10-01T07:32:18Z</time>
      </trkpt>
      <trkpt lat="47.46117" lon="6.78514">
        <ele>404.8</ele>
        <time>2017-10-01T07:32:19Z</time>
      </trkpt>
      <trkpt lat="47.46113" lon="6.78514">
        <ele>404.8</ele>
        <time>2017-10-01T07:32:20Z</time>
      </trkpt>
      <trkpt lat="47.46109" lon="6.78516">
        <ele>404.8</ele>
        <time>2017-10-01T07:32:21Z</time>
      </trkpt>
      <trkpt lat="47.46105" lon="6.78515">
        <ele>404.9</ele>
        <time>2017-10-01T07:32:22Z</time>
      </trkpt>
      <trkpt lat="47.46102" lon="6.78515">
        <ele>404.9</ele>
        <time>2017-10-01T07:32:23Z</time>
      </trkpt>
      <trkpt lat="47.46097" lon="6.78517">
        <ele>404.8</ele>
        <time>2017-10-01T07:32:24Z</time>
      </trkpt>
      <trkpt lat="47.46091" lon="6.7852">
        <ele>404.1</ele>
        <time>2017-10-01T07:32:25Z</time>
      </trkpt>
      <trkpt lat="47.46085" lon="6.78523">
        <ele>403.4</ele>
        <time>2017-10-01T07:32:26Z</time>
      </trkpt>
      <trkpt lat="47.46082" lon="6.78526">
        <ele>403.3</ele>
        <time>2017-10-01T07:32:27Z</time>
      </trkpt>
      <trkpt lat="47.46079" lon="6.78525">
        <ele>403.3</ele>
        <time>2017-10-01T07:32:28Z</time>
      </trkpt>
      <trkpt lat="47.46077" lon="6.78519">
        <ele>403.9</ele>
        <time>2017-10-01T07:32:33Z</time>
      </trkpt>
      <trkpt lat="47.46076" lon="6.78516">
        <ele>404.5</ele>
        <time>2017-10-01T07:32:34Z</time>
      </trkpt>
      <trkpt lat="47.46074" lon="6.78509">
        <ele>405.1</ele>
        <time>2017-10-01T07:32:35Z</time>
      </trkpt>
      <trkpt lat="47.46074" lon="6.78502">
        <ele>405.9</ele>
        <time>2017-10-01T07:32:36Z</time>
      </trkpt>
      <trkpt lat="47.46071" lon="6.78497">
        <ele>405.9</ele>
        <time>2017-10-01T07:32:37Z</time>
      </trkpt>
      <trkpt lat="47.46068" lon="6.78494">
        <ele>405.9</ele>
        <time>2017-10-01T07:32:38Z</time>
      </trkpt>
      <trkpt lat="47.46062" lon="6.78493">
        <ele>405.2</ele>
        <time>2017-10-01T07:32:39Z</time>
      </trkpt>
      <trkpt lat="47.46054" lon="6.7849">
        <ele>404.4</ele>
        <time>2017-10-01T07:32:40Z</time>
      </trkpt>
      <trkpt lat="47.46045" lon="6.78488">
        <ele>403.4</ele>
        <time>2017-10-01T07:32:41Z</time>
      </trkpt>
      <trkpt lat="47.46037" lon="6.78486">
        <ele>402</ele>
        <time>2017-10-01T07:32:42Z</time>
      </trkpt>
      <trkpt lat="47.46031" lon="6.78482">
        <ele>401.1</ele>
        <time>2017-10-01T07:32:43Z</time>
      </trkpt>
      <trkpt lat="47.46025" lon="6.7848">
        <ele>400</ele>
        <time>2017-10-01T07:32:44Z</time>
      </trkpt>
      <trkpt lat="47.4602" lon="6.78476">
        <ele>399.1</ele>
        <time>2017-10-01T07:32:45Z</time>
      </trkpt>
      <trkpt lat="47.46014" lon="6.78472">
        <ele>398</ele>
        <time>2017-10-01T07:32:46Z</time>
      </trkpt>
      <trkpt lat="47.46004" lon="6.7847">
        <ele>395.5</ele>
        <time>2017-10-01T07:32:47Z</time>
      </trkpt>
      <trkpt lat="47.45996" lon="6.78469">
        <ele>394.2</ele>
        <time>2017-10-01T07:32:48Z</time>
      </trkpt>
      <trkpt lat="47.4599" lon="6.78467">
        <ele>392.9</ele>
        <time>2017-10-01T07:32:49Z</time>
      </trkpt>
      <trkpt lat="47.45984" lon="6.78466">
        <ele>391.5</ele>
        <time>2017-10-01T07:32:50Z</time>
      </trkpt>
      <trkpt lat="47.4598" lon="6.78459">
        <ele>390.3</ele>
        <time>2017-10-01T07:32:51Z</time>
      </trkpt>
      <trkpt lat="47.45977" lon="6.7845">
        <ele>390</ele>
        <time>2017-10-01T07:32:52Z</time>
      </trkpt>
      <trkpt lat="47.45976" lon="6.78442">
        <ele>390.3</ele>
        <time>2017-10-01T07:32:53Z</time>
      </trkpt>
      <trkpt lat="47.45974" lon="6.78431">
        <ele>390.2</ele>
        <time>2017-10-01T07:32:54Z</time>
      </trkpt>
      <trkpt lat="47.45973" lon="6.78423">
        <ele>390.4</ele>
        <time>2017-10-01T07:32:55Z</time>
      </trkpt>
      <trkpt lat="47.45972" lon="6.78419">
        <ele>389.8</ele>
        <time>2017-10-01T07:32:56Z</time>
      </trkpt>
      <trkpt lat="47.4597" lon="6.78417">
        <ele>389.6</ele>
        <time>2017-10-01T07:32:57Z</time>
      </trkpt>
      <trkpt lat="47.45966" lon="6.78415">
        <ele>389.3</ele>
        <time>2017-10-01T07:32:59Z</time>
      </trkpt>
      <trkpt lat="47.4596" lon="6.78418">
        <ele>388.8</ele>
        <time>2017-10-01T07:33:00Z</time>
      </trkpt>
      <trkpt lat="47.45953" lon="6.78422">
        <ele>388.3</ele>
        <time>2017-10-01T07:33:01Z</time>
      </trkpt>
      <trkpt lat="47.45947" lon="6.78425">
        <ele>387.7</ele>
        <time>2017-10-01T07:33:02Z</time>
      </trkpt>
      <trkpt lat="47.45941" lon="6.78428">
        <ele>387.3</ele>
        <time>2017-10-01T07:33:03Z</time>
      </trkpt>
      <trkpt lat="47.45937" lon="6.7843">
        <ele>386.9</ele>
        <time>2017-10-01T07:33:04Z</time>
      </trkpt>
      <trkpt lat="47.45933" lon="6.78435">
        <ele>386.5</ele>
        <time>2017-10-01T07:33:05Z</time>
      </trkpt>
      <trkpt lat="47.4593" lon="6.78441">
        <ele>386.1</ele>
        <time>2017-10-01T07:33:06Z</time>
      </trkpt>
      <trkpt lat="47.45929" lon="6.78449">
        <ele>385.6</ele>
        <time>2017-10-01T07:33:07Z</time>
      </trkpt>
      <trkpt lat="47.45931" lon="6.78457">
        <ele>385.1</ele>
        <time>2017-10-01T07:33:08Z</time>
      </trkpt>
      <trkpt lat="47.45932" lon="6.78468">
        <ele>384.6</ele>
        <time>2017-10-01T07:33:09Z</time>
      </trkpt>
      <trkpt lat="47.45934" lon="6.7848">
        <ele>384.2</ele>
        <time>2017-10-01T07:33:10Z</time>
      </trkpt>
      <trkpt lat="47.45936" lon="6.78492">
        <ele>383.8</ele>
        <time>2017-10-01T07:33:11Z</time>
      </trkpt>
      <trkpt lat="47.45937" lon="6.78506">
        <ele>383.3</ele>
        <time>2017-10-01T07:33:12Z</time>
      </trkpt>
      <trkpt lat="47.45934" lon="6.78518">
        <ele>382.9</ele>
        <time>2017-10-01T07:33:13Z</time>
      </trkpt>
      <trkpt lat="47.45931" lon="6.78532">
        <ele>382.3</ele>
        <time>2017-10-01T07:33:14Z</time>
      </trkpt>
      <trkpt lat="47.45924" lon="6.78535">
        <ele>381.8</ele>
        <time>2017-10-01T07:33:15Z</time>
      </trkpt>
      <trkpt lat="47.45918" lon="6.78534">
        <ele>381.6</ele>
        <time>2017-10-01T07:33:16Z</time>
      </trkpt>
      <trkpt lat="47.45912" lon="6.78528">
        <ele>381.4</ele>
        <time>2017-10-01T07:33:17Z</time>
      </trkpt>
      <trkpt lat="47.45905" lon="6.78521">
        <ele>381.2</ele>
        <time>2017-10-01T07:33:18Z</time>
      </trkpt>
      <trkpt lat="47.45898" lon="6.78515">
        <ele>380.4</ele>
        <time>2017-10-01T07:33:19Z</time>
      </trkpt>
      <trkpt lat="47.45891" lon="6.78507">
        <ele>379.1</ele>
        <time>2017-10-01T07:33:20Z</time>
      </trkpt>
      <trkpt lat="47.45884" lon="6.78499">
        <ele>377.8</ele>
        <time>2017-10-01T07:33:21Z</time>
      </trkpt>
      <trkpt lat="47.45877" lon="6.78491">
        <ele>377</ele>
        <time>2017-10-01T07:33:22Z</time>
      </trkpt>
      <trkpt lat="47.4587" lon="6.78483">
        <ele>376.2</ele>
        <time>2017-10-01T07:33:23Z</time>
      </trkpt>
      <trkpt lat="47.45863" lon="6.78475">
        <ele>375.1</ele>
        <time>2017-10-01T07:33:24Z</time>
      </trkpt>
      <trkpt lat="47.45854" lon="6.78467">
        <ele>373.9</ele>
        <time>2017-10-01T07:33:25Z</time>
      </trkpt>
      <trkpt lat="47.45845" lon="6.78458">
        <ele>372.5</ele>
        <time>2017-10-01T07:33:26Z</time>
      </trkpt>
      <trkpt lat="47.45837" lon="6.7845">
        <ele>371.2</ele>
        <time>2017-10-01T07:33:27Z</time>
      </trkpt>
      <trkpt lat="47.45828" lon="6.78442">
        <ele>370.2</ele>
        <time>2017-10-01T07:33:28Z</time>
      </trkpt>
      <trkpt lat="47.45819" lon="6.78434">
        <ele>369.6</ele>
        <time>2017-10-01T07:33:29Z</time>
      </trkpt>
      <trkpt lat="47.4581" lon="6.78426">
        <ele>368.3</ele>
        <time>2017-10-01T07:33:30Z</time>
      </trkpt>
      <trkpt lat="47.45802" lon="6.78419">
        <ele>367.6</ele>
        <time>2017-10-01T07:33:31Z</time>
      </trkpt>
      <trkpt lat="47.45793" lon="6.78412">
        <ele>366.7</ele>
        <time>2017-10-01T07:33:32Z</time>
      </trkpt>
      <trkpt lat="47.45785" lon="6.78404">
        <ele>365.8</ele>
        <time>2017-10-01T07:33:33Z</time>
      </trkpt>
      <trkpt lat="47.45776" lon="6.78397">
        <ele>364.6</ele>
        <time>2017-10-01T07:33:34Z</time>
      </trkpt>
      <trkpt lat="47.45766" lon="6.78391">
        <ele>363.7</ele>
        <time>2017-10-01T07:33:35Z</time>
      </trkpt>
      <trkpt lat="47.45756" lon="6.78388">
        <ele>362.9</ele>
        <time>2017-10-01T07:33:36Z</time>
      </trkpt>
      <trkpt lat="47.45746" lon="6.78386">
        <ele>361.7</ele>
        <time>2017-10-01T07:33:37Z</time>
      </trkpt>
      <trkpt lat="47.45736" lon="6.78384">
        <ele>361.1</ele>
        <time>2017-10-01T07:33:38Z</time>
      </trkpt>
      <trkpt lat="47.45727" lon="6.78382">
        <ele>360.7</ele>
        <time>2017-10-01T07:33:39Z</time>
      </trkpt>
      <trkpt lat="47.45718" lon="6.78381">
        <ele>359.7</ele>
        <time>2017-10-01T07:33:40Z</time>
      </trkpt>
      <trkpt lat="47.45708" lon="6.78381">
        <ele>359.3</ele>
        <time>2017-10-01T07:33:41Z</time>
      </trkpt>
      <trkpt lat="47.45699" lon="6.78381">
        <ele>359</ele>
        <time>2017-10-01T07:33:42Z</time>
      </trkpt>
      <trkpt lat="47.4569" lon="6.7838">
        <ele>358.6</ele>
        <time>2017-10-01T07:33:43Z</time>
      </trkpt>
      <trkpt lat="47.45682" lon="6.78381">
        <ele>358.1</ele>
        <time>2017-10-01T07:33:44Z</time>
      </trkpt>
      <trkpt lat="47.45673" lon="6.78382">
        <ele>357.3</ele>
        <time>2017-10-01T07:33:45Z</time>
      </trkpt>
      <trkpt lat="47.45664" lon="6.78383">
        <ele>357</ele>
        <time>2017-10-01T07:33:46Z</time>
      </trkpt>
      <trkpt lat="47.45657" lon="6.78384">
        <ele>356.8</ele>
        <time>2017-10-01T07:33:47Z</time>
      </trkpt>
      <trkpt lat="47.45649" lon="6.78386">
        <ele>356.7</ele>
        <time>2017-10-01T07:33:48Z</time>
      </trkpt>
      <trkpt lat="47.45642" lon="6.78389">
        <ele>356.6</ele>
        <time>2017-10-01T07:33:49Z</time>
      </trkpt>
      <trkpt lat="47.45635" lon="6.78391">
        <ele>356.5</ele>
        <time>2017-10-01T07:33:50Z</time>
      </trkpt>
      <trkpt lat="47.45628" lon="6.78395">
        <ele>356.4</ele>
        <time>2017-10-01T07:33:51Z</time>
      </trkpt>
      <trkpt lat="47.45621" lon="6.78398">
        <ele>356.3</ele>
        <time>2017-10-01T07:33:52Z</time>
      </trkpt>
      <trkpt lat="47.45614" lon="6.78402">
        <ele>356.2</ele>
        <time>2017-10-01T07:33:53Z</time>
      </trkpt>
      <trkpt lat="47.45607" lon="6.78406">
        <ele>356</ele>
        <time>2017-10-01T07:33:54Z</time>
      </trkpt>
      <trkpt lat="47.45599" lon="6.7841">
        <ele>355.6</ele>
        <time>2017-10-01T07:33:55Z</time>
      </trkpt>
      <trkpt lat="47.45592" lon="6.78415">
        <ele>355</ele>
        <time>2017-10-01T07:33:56Z</time>
      </trkpt>
      <trkpt lat="47.45585" lon="6.78419">
        <ele>354.8</ele>
        <time>2017-10-01T07:33:57Z</time>
      </trkpt>
      <trkpt lat="47.45578" lon="6.78422">
        <ele>354.6</ele>
        <time>2017-10-01T07:33:58Z</time>
      </trkpt>
      <trkpt lat="47.45572" lon="6.78425">
        <ele>354.4</ele>
        <time>2017-10-01T07:33:59Z</time>
      </trkpt>
      <trkpt lat="47.45566" lon="6.78429">
        <ele>354.1</ele>
        <time>2017-10-01T07:34:00Z</time>
      </trkpt>
      <trkpt lat="47.4556" lon="6.78432">
        <ele>353.5</ele>
        <time>2017-10-01T07:34:01Z</time>
      </trkpt>
      <trkpt lat="47.45553" lon="6.78435">
        <ele>353</ele>
        <time>2017-10-01T07:34:02Z</time>
      </trkpt>
      <trkpt lat="47.45547" lon="6.78439">
        <ele>352.8</ele>
        <time>2017-10-01T07:34:03Z</time>
      </trkpt>
      <trkpt lat="47.45541" lon="6.78442">
        <ele>352.6</ele>
        <time>2017-10-01T07:34:04Z</time>
      </trkpt>
      <trkpt lat="47.45536" lon="6.78447">
        <ele>352.4</ele>
        <time>2017-10-01T07:34:05Z</time>
      </trkpt>
      <trkpt lat="47.45531" lon="6.78451">
        <ele>352.3</ele>
        <time>2017-10-01T07:34:06Z</time>
      </trkpt>
      <trkpt lat="47.45525" lon="6.78456">
        <ele>352.1</ele>
        <time>2017-10-01T07:34:07Z</time>
      </trkpt>
      <trkpt lat="47.45519" lon="6.7846">
        <ele>352</ele>
        <time>2017-10-01T07:34:08Z</time>
      </trkpt>
      <trkpt lat="47.45513" lon="6.78464">
        <ele>351.8</ele>
        <time>2017-10-01T07:34:09Z</time>
      </trkpt>
      <trkpt lat="47.45507" lon="6.78468">
        <ele>351.6</ele>
        <time>2017-10-01T07:34:10Z</time>
      </trkpt>
      <trkpt lat="47.45501" lon="6.78471">
        <ele>351.4</ele>
        <time>2017-10-01T07:34:11Z</time>
      </trkpt>
      <trkpt lat="47.45495" lon="6.78475">
        <ele>350.8</ele>
        <time>2017-10-01T07:34:12Z</time>
      </trkpt>
      <trkpt lat="47.45489" lon="6.78478">
        <ele>350.3</ele>
        <time>2017-10-01T07:34:13Z</time>
      </trkpt>
      <trkpt lat="47.45483" lon="6.78482">
        <ele>350.1</ele>
        <time>2017-10-01T07:34:14Z</time>
      </trkpt>
      <trkpt lat="47.45477" lon="6.78486">
        <ele>349.9</ele>
        <time>2017-10-01T07:34:15Z</time>
      </trkpt>
      <trkpt lat="47.45471" lon="6.7849">
        <ele>349.6</ele>
        <time>2017-10-01T07:34:16Z</time>
      </trkpt>
      <trkpt lat="47.45465" lon="6.78494">
        <ele>349</ele>
        <time>2017-10-01T07:34:17Z</time>
      </trkpt>
      <trkpt lat="47.45458" lon="6.78499">
        <ele>348.3</ele>
        <time>2017-10-01T07:34:18Z</time>
      </trkpt>
      <trkpt lat="47.45453" lon="6.78504">
        <ele>347.9</ele>
        <time>2017-10-01T07:34:19Z</time>
      </trkpt>
      <trkpt lat="47.45447" lon="6.7851">
        <ele>347.7</ele>
        <time>2017-10-01T07:34:20Z</time>
      </trkpt>
      <trkpt lat="47.45442" lon="6.78515">
        <ele>347.4</ele>
        <time>2017-10-01T07:34:21Z</time>
      </trkpt>
      <trkpt lat="47.45436" lon="6.78521">
        <ele>346.8</ele>
        <time>2017-10-01T07:34:22Z</time>
      </trkpt>
      <trkpt lat="47.4543" lon="6.78527">
        <ele>346.2</ele>
        <time>2017-10-01T07:34:23Z</time>
      </trkpt>
      <trkpt lat="47.45424" lon="6.78533">
        <ele>345.9</ele>
        <time>2017-10-01T07:34:24Z</time>
      </trkpt>
      <trkpt lat="47.45418" lon="6.78538">
        <ele>343.4</ele>
        <time>2017-10-01T07:34:25Z</time>
      </trkpt>
      <trkpt lat="47.45411" lon="6.78542">
        <ele>341.2</ele>
        <time>2017-10-01T07:34:26Z</time>
      </trkpt>
      <trkpt lat="47.45404" lon="6.78545">
        <ele>338.9</ele>
        <time>2017-10-01T07:34:27Z</time>
      </trkpt>
      <trkpt lat="47.45397" lon="6.78549">
        <ele>336.7</ele>
        <time>2017-10-01T07:34:28Z</time>
      </trkpt>
      <trkpt lat="47.45394" lon="6.78556">
        <ele>336.5</ele>
        <time>2017-10-01T07:34:29Z</time>
      </trkpt>
      <trkpt lat="47.45392" lon="6.78564">
        <ele>336.4</ele>
        <time>2017-10-01T07:34:30Z</time>
      </trkpt>
      <trkpt lat="47.45392" lon="6.78571">
        <ele>336.4</ele>
        <time>2017-10-01T07:34:31Z</time>
      </trkpt>
      <trkpt lat="47.45392" lon="6.78577">
        <ele>336.3</ele>
        <time>2017-10-01T07:34:32Z</time>
      </trkpt>
      <trkpt lat="47.45394" lon="6.78584">
        <ele>336.2</ele>
        <time>2017-10-01T07:34:33Z</time>
      </trkpt>
      <trkpt lat="47.45398" lon="6.78591">
        <ele>336.1</ele>
        <time>2017-10-01T07:34:34Z</time>
      </trkpt>
      <trkpt lat="47.45401" lon="6.78597">
        <ele>336</ele>
        <time>2017-10-01T07:34:35Z</time>
      </trkpt>
      <trkpt lat="47.45404" lon="6.78603">
        <ele>336</ele>
        <time>2017-10-01T07:34:36Z</time>
      </trkpt>
      <trkpt lat="47.45407" lon="6.78608">
        <ele>335.9</ele>
        <time>2017-10-01T07:34:37Z</time>
      </trkpt>
      <trkpt lat="47.45411" lon="6.78613">
        <ele>335.8</ele>
        <time>2017-10-01T07:34:38Z</time>
      </trkpt>
      <trkpt lat="47.45414" lon="6.78619">
        <ele>335.7</ele>
        <time>2017-10-01T07:34:39Z</time>
      </trkpt>
      <trkpt lat="47.45417" lon="6.78625">
        <ele>335.7</ele>
        <time>2017-10-01T07:34:40Z</time>
      </trkpt>
      <trkpt lat="47.4542" lon="6.78631">
        <ele>335.6</ele>
        <time>2017-10-01T07:34:41Z</time>
      </trkpt>
      <trkpt lat="47.45424" lon="6.78637">
        <ele>335.5</ele>
        <time>2017-10-01T07:34:42Z</time>
      </trkpt>
      <trkpt lat="47.45428" lon="6.78644">
        <ele>335.3</ele>
        <time>2017-10-01T07:34:43Z</time>
      </trkpt>
      <trkpt lat="47.45432" lon="6.78651">
        <ele>335.1</ele>
        <time>2017-10-01T07:34:44Z</time>
      </trkpt>
      <trkpt lat="47.45435" lon="6.78658">
        <ele>335</ele>
        <time>2017-10-01T07:34:45Z</time>
      </trkpt>
      <trkpt lat="47.45438" lon="6.78663">
        <ele>334.8</ele>
        <time>2017-10-01T07:34:46Z</time>
      </trkpt>
      <trkpt lat="47.4544" lon="6.78668">
        <ele>334.6</ele>
        <time>2017-10-01T07:34:47Z</time>
      </trkpt>
      <trkpt lat="47.45443" lon="6.78673">
        <ele>334.5</ele>
        <time>2017-10-01T07:34:48Z</time>
      </trkpt>
      <trkpt lat="47.45445" lon="6.78679">
        <ele>334.3</ele>
        <time>2017-10-01T07:34:49Z</time>
      </trkpt>
      <trkpt lat="47.45449" lon="6.78686">
        <ele>334.1</ele>
        <time>2017-10-01T07:34:50Z</time>
      </trkpt>
      <trkpt lat="47.45452" lon="6.78692">
        <ele>333.9</ele>
        <time>2017-10-01T07:34:51Z</time>
      </trkpt>
      <trkpt lat="47.45455" lon="6.78698">
        <ele>333.8</ele>
        <time>2017-10-01T07:34:52Z</time>
      </trkpt>
      <trkpt lat="47.45458" lon="6.78704">
        <ele>333.6</ele>
        <time>2017-10-01T07:34:53Z</time>
      </trkpt>
      <trkpt lat="47.45461" lon="6.7871">
        <ele>333.5</ele>
        <time>2017-10-01T07:34:54Z</time>
      </trkpt>
      <trkpt lat="47.45464" lon="6.78715">
        <ele>333.4</ele>
        <time>2017-10-01T07:34:55Z</time>
      </trkpt>
      <trkpt lat="47.45467" lon="6.78721">
        <ele>333.3</ele>
        <time>2017-10-01T07:34:56Z</time>
      </trkpt>
      <trkpt lat="47.45471" lon="6.78727">
        <ele>333.2</ele>
        <time>2017-10-01T07:34:57Z</time>
      </trkpt>
      <trkpt lat="47.45474" lon="6.78733">
        <ele>332.9</ele>
        <time>2017-10-01T07:34:58Z</time>
      </trkpt>
      <trkpt lat="47.45477" lon="6.78739">
        <ele>332.7</ele>
        <time>2017-10-01T07:34:59Z</time>
      </trkpt>
      <trkpt lat="47.4548" lon="6.78745">
        <ele>332.5</ele>
        <time>2017-10-01T07:35:00Z</time>
      </trkpt>
      <trkpt lat="47.45483" lon="6.7875">
        <ele>332.3</ele>
        <time>2017-10-01T07:35:01Z</time>
      </trkpt>
      <trkpt lat="47.45484" lon="6.78756">
        <ele>331.9</ele>
        <time>2017-10-01T07:35:02Z</time>
      </trkpt>
      <trkpt lat="47.45482" lon="6.78762">
        <ele>331.7</ele>
        <time>2017-10-01T07:35:03Z</time>
      </trkpt>
      <trkpt lat="47.45479" lon="6.78768">
        <ele>331.6</ele>
        <time>2017-10-01T07:35:04Z</time>
      </trkpt>
      <trkpt lat="47.45475" lon="6.78771">
        <ele>331.5</ele>
        <time>2017-10-01T07:35:05Z</time>
      </trkpt>
      <trkpt lat="47.45469" lon="6.78776">
        <ele>331.4</ele>
        <time>2017-10-01T07:35:06Z</time>
      </trkpt>
      <trkpt lat="47.45463" lon="6.78781">
        <ele>331.3</ele>
        <time>2017-10-01T07:35:07Z</time>
      </trkpt>
      <trkpt lat="47.45458" lon="6.78786">
        <ele>331.3</ele>
        <time>2017-10-01T07:35:08Z</time>
      </trkpt>
      <trkpt lat="47.45453" lon="6.78792">
        <ele>331.2</ele>
        <time>2017-10-01T07:35:09Z</time>
      </trkpt>
      <trkpt lat="47.45448" lon="6.78798">
        <ele>331.2</ele>
        <time>2017-10-01T07:35:10Z</time>
      </trkpt>
      <trkpt lat="47.45444" lon="6.78804">
        <ele>331.2</ele>
        <time>2017-10-01T07:35:11Z</time>
      </trkpt>
      <trkpt lat="47.4544" lon="6.78811">
        <ele>331.1</ele>
        <time>2017-10-01T07:35:12Z</time>
      </trkpt>
      <trkpt lat="47.45435" lon="6.78817">
        <ele>331</ele>
        <time>2017-10-01T07:35:13Z</time>
      </trkpt>
      <trkpt lat="47.45431" lon="6.78824">
        <ele>331</ele>
        <time>2017-10-01T07:35:14Z</time>
      </trkpt>
      <trkpt lat="47.45427" lon="6.78829">
        <ele>330.9</ele>
        <time>2017-10-01T07:35:15Z</time>
      </trkpt>
      <trkpt lat="47.45423" lon="6.78836">
        <ele>330.7</ele>
        <time>2017-10-01T07:35:16Z</time>
      </trkpt>
      <trkpt lat="47.45417" lon="6.78842">
        <ele>330.5</ele>
        <time>2017-10-01T07:35:17Z</time>
      </trkpt>
      <trkpt lat="47.45413" lon="6.78847">
        <ele>330.4</ele>
        <time>2017-10-01T07:35:18Z</time>
      </trkpt>
      <trkpt lat="47.45408" lon="6.78852">
        <ele>330.3</ele>
        <time>2017-10-01T07:35:19Z</time>
      </trkpt>
      <trkpt lat="47.45404" lon="6.78858">
        <ele>330.3</ele>
        <time>2017-10-01T07:35:20Z</time>
      </trkpt>
      <trkpt lat="47.45399" lon="6.78863">
        <ele>330.3</ele>
        <time>2017-10-01T07:35:21Z</time>
      </trkpt>
      <trkpt lat="47.45395" lon="6.78868">
        <ele>330.3</ele>
        <time>2017-10-01T07:35:22Z</time>
      </trkpt>
      <trkpt lat="47.45391" lon="6.78874">
        <ele>330.4</ele>
        <time>2017-10-01T07:35:23Z</time>
      </trkpt>
      <trkpt lat="47.45386" lon="6.78879">
        <ele>330.4</ele>
        <time>2017-10-01T07:35:24Z</time>
      </trkpt>
      <trkpt lat="47.45382" lon="6.78885">
        <ele>330.5</ele>
        <time>2017-10-01T07:35:25Z</time>
      </trkpt>
      <trkpt lat="47.45378" lon="6.7889">
        <ele>330.6</ele>
        <time>2017-10-01T07:35:26Z</time>
      </trkpt>
      <trkpt lat="47.45374" lon="6.78896">
        <ele>330.7</ele>
        <time>2017-10-01T07:35:27Z</time>
      </trkpt>
      <trkpt lat="47.45369" lon="6.78902">
        <ele>330.8</ele>
        <time>2017-10-01T07:35:28Z</time>
      </trkpt>
      <trkpt lat="47.45365" lon="6.78907">
        <ele>330.8</ele>
        <time>2017-10-01T07:35:29Z</time>
      </trkpt>
      <trkpt lat="47.45361" lon="6.78911">
        <ele>330.9</ele>
        <time>2017-10-01T07:35:30Z</time>
      </trkpt>
      <trkpt lat="47.45357" lon="6.78916">
        <ele>330.9</ele>
        <time>2017-10-01T07:35:31Z</time>
      </trkpt>
      <trkpt lat="47.45353" lon="6.78922">
        <ele>331</ele>
        <time>2017-10-01T07:35:32Z</time>
      </trkpt>
      <trkpt lat="47.45349" lon="6.78927">
        <ele>331</ele>
        <time>2017-10-01T07:35:33Z</time>
      </trkpt>
      <trkpt lat="47.45345" lon="6.78932">
        <ele>331.1</ele>
        <time>2017-10-01T07:35:34Z</time>
      </trkpt>
      <trkpt lat="47.45342" lon="6.78937">
        <ele>331.1</ele>
        <time>2017-10-01T07:35:35Z</time>
      </trkpt>
      <trkpt lat="47.45338" lon="6.78942">
        <ele>331.2</ele>
        <time>2017-10-01T07:35:36Z</time>
      </trkpt>
      <trkpt lat="47.45333" lon="6.78947">
        <ele>331.2</ele>
        <time>2017-10-01T07:35:37Z</time>
      </trkpt>
      <trkpt lat="47.4533" lon="6.78951">
        <ele>331.3</ele>
        <time>2017-10-01T07:35:38Z</time>
      </trkpt>
      <trkpt lat="47.45326" lon="6.78956">
        <ele>331.3</ele>
        <time>2017-10-01T07:35:39Z</time>
      </trkpt>
      <trkpt lat="47.45322" lon="6.78962">
        <ele>331.4</ele>
        <time>2017-10-01T07:35:40Z</time>
      </trkpt>
      <trkpt lat="47.45318" lon="6.78966">
        <ele>331.4</ele>
        <time>2017-10-01T07:35:41Z</time>
      </trkpt>
      <trkpt lat="47.45314" lon="6.78971">
        <ele>331.5</ele>
        <time>2017-10-01T07:35:42Z</time>
      </trkpt>
      <trkpt lat="47.45311" lon="6.78976">
        <ele>331.5</ele>
        <time>2017-10-01T07:35:43Z</time>
      </trkpt>
      <trkpt lat="47.45307" lon="6.78981">
        <ele>331.5</ele>
        <time>2017-10-01T07:35:44Z</time>
      </trkpt>
      <trkpt lat="47.45304" lon="6.78987">
        <ele>331.6</ele>
        <time>2017-10-01T07:35:45Z</time>
      </trkpt>
      <trkpt lat="47.453" lon="6.78992">
        <ele>331.6</ele>
        <time>2017-10-01T07:35:46Z</time>
      </trkpt>
      <trkpt lat="47.45296" lon="6.78998">
        <ele>331.7</ele>
        <time>2017-10-01T07:35:47Z</time>
      </trkpt>
      <trkpt lat="47.45293" lon="6.79003">
        <ele>331.7</ele>
        <time>2017-10-01T07:35:48Z</time>
      </trkpt>
      <trkpt lat="47.4529" lon="6.79008">
        <ele>331.8</ele>
        <time>2017-10-01T07:35:49Z</time>
      </trkpt>
      <trkpt lat="47.45288" lon="6.79013">
        <ele>331.8</ele>
        <time>2017-10-01T07:35:50Z</time>
      </trkpt>
      <trkpt lat="47.45286" lon="6.79018">
        <ele>331.9</ele>
        <time>2017-10-01T07:35:51Z</time>
      </trkpt>
      <trkpt lat="47.45283" lon="6.79024">
        <ele>331.9</ele>
        <time>2017-10-01T07:35:52Z</time>
      </trkpt>
      <trkpt lat="47.4528" lon="6.79029">
        <ele>331.9</ele>
        <time>2017-10-01T07:35:53Z</time>
      </trkpt>
      <trkpt lat="47.45278" lon="6.79034">
        <ele>332</ele>
        <time>2017-10-01T07:35:54Z</time>
      </trkpt>
      <trkpt lat="47.45276" lon="6.79038">
        <ele>332.1</ele>
        <time>2017-10-01T07:35:55Z</time>
      </trkpt>
      <trkpt lat="47.45274" lon="6.79042">
        <ele>332.2</ele>
        <time>2017-10-01T07:35:56Z</time>
      </trkpt>
      <trkpt lat="47.45272" lon="6.79047">
        <ele>332.3</ele>
        <time>2017-10-01T07:35:57Z</time>
      </trkpt>
      <trkpt lat="47.4527" lon="6.79053">
        <ele>332.5</ele>
        <time>2017-10-01T07:35:58Z</time>
      </trkpt>
      <trkpt lat="47.45268" lon="6.79059">
        <ele>332.6</ele>
        <time>2017-10-01T07:35:59Z</time>
      </trkpt>
      <trkpt lat="47.45266" lon="6.79063">
        <ele>332.7</ele>
        <time>2017-10-01T07:36:00Z</time>
      </trkpt>
      <trkpt lat="47.45265" lon="6.79068">
        <ele>332.8</ele>
        <time>2017-10-01T07:36:01Z</time>
      </trkpt>
      <trkpt lat="47.45263" lon="6.79073">
        <ele>332.9</ele>
        <time>2017-10-01T07:36:02Z</time>
      </trkpt>
      <trkpt lat="47.45261" lon="6.79077">
        <ele>333</ele>
        <time>2017-10-01T07:36:03Z</time>
      </trkpt>
      <trkpt lat="47.45259" lon="6.79083">
        <ele>333.1</ele>
        <time>2017-10-01T07:36:04Z</time>
      </trkpt>
      <trkpt lat="47.45258" lon="6.79087">
        <ele>333.1</ele>
        <time>2017-10-01T07:36:05Z</time>
      </trkpt>
      <trkpt lat="47.45256" lon="6.79093">
        <ele>333.2</ele>
        <time>2017-10-01T07:36:06Z</time>
      </trkpt>
      <trkpt lat="47.45254" lon="6.79099">
        <ele>333.2</ele>
        <time>2017-10-01T07:36:07Z</time>
      </trkpt>
      <trkpt lat="47.45253" lon="6.79106">
        <ele>333.3</ele>
        <time>2017-10-01T07:36:08Z</time>
      </trkpt>
      <trkpt lat="47.45251" lon="6.79112">
        <ele>333.3</ele>
        <time>2017-10-01T07:36:09Z</time>
      </trkpt>
      <trkpt lat="47.45249" lon="6.79116">
        <ele>333.4</ele>
        <time>2017-10-01T07:36:10Z</time>
      </trkpt>
      <trkpt lat="47.45247" lon="6.79122">
        <ele>333.4</ele>
        <time>2017-10-01T07:36:11Z</time>
      </trkpt>
      <trkpt lat="47.45244" lon="6.79126">
        <ele>333.5</ele>
        <time>2017-10-01T07:36:12Z</time>
      </trkpt>
      <trkpt lat="47.45241" lon="6.79129">
        <ele>333.5</ele>
        <time>2017-10-01T07:36:13Z</time>
      </trkpt>
      <trkpt lat="47.45237" lon="6.79131">
        <ele>333.6</ele>
        <time>2017-10-01T07:36:14Z</time>
      </trkpt>
      <trkpt lat="47.45234" lon="6.79131">
        <ele>333.7</ele>
        <time>2017-10-01T07:36:15Z</time>
      </trkpt>
      <trkpt lat="47.45231" lon="6.79131">
        <ele>333.8</ele>
        <time>2017-10-01T07:36:16Z</time>
      </trkpt>
      <trkpt lat="47.45227" lon="6.79132">
        <ele>333.9</ele>
        <time>2017-10-01T07:36:17Z</time>
      </trkpt>
      <trkpt lat="47.45224" lon="6.79136">
        <ele>334</ele>
        <time>2017-10-01T07:36:18Z</time>
      </trkpt>
      <trkpt lat="47.45223" lon="6.7914">
        <ele>334</ele>
        <time>2017-10-01T07:36:19Z</time>
      </trkpt>
      <trkpt lat="47.45221" lon="6.79145">
        <ele>334.1</ele>
        <time>2017-10-01T07:36:20Z</time>
      </trkpt>
      <trkpt lat="47.4522" lon="6.79149">
        <ele>334.1</ele>
        <time>2017-10-01T07:36:21Z</time>
      </trkpt>
      <trkpt lat="47.45219" lon="6.79155">
        <ele>334.2</ele>
        <time>2017-10-01T07:36:22Z</time>
      </trkpt>
      <trkpt lat="47.45217" lon="6.79162">
        <ele>334.2</ele>
        <time>2017-10-01T07:36:23Z</time>
      </trkpt>
      <trkpt lat="47.45215" lon="6.79168">
        <ele>334.3</ele>
        <time>2017-10-01T07:36:24Z</time>
      </trkpt>
      <trkpt lat="47.45214" lon="6.79174">
        <ele>334.3</ele>
        <time>2017-10-01T07:36:25Z</time>
      </trkpt>
      <trkpt lat="47.45212" lon="6.7918">
        <ele>334.4</ele>
        <time>2017-10-01T07:36:26Z</time>
      </trkpt>
      <trkpt lat="47.45211" lon="6.79185">
        <ele>334.4</ele>
        <time>2017-10-01T07:36:27Z</time>
      </trkpt>
      <trkpt lat="47.45209" lon="6.79191">
        <ele>334.3</ele>
        <time>2017-10-01T07:36:28Z</time>
      </trkpt>
      <trkpt lat="47.45208" lon="6.79196">
        <ele>334.3</ele>
        <time>2017-10-01T07:36:29Z</time>
      </trkpt>
      <trkpt lat="47.45207" lon="6.79201">
        <ele>334.3</ele>
        <time>2017-10-01T07:36:30Z</time>
      </trkpt>
      <trkpt lat="47.45206" lon="6.79207">
        <ele>334.2</ele>
        <time>2017-10-01T07:36:31Z</time>
      </trkpt>
      <trkpt lat="47.45204" lon="6.79213">
        <ele>334.2</ele>
        <time>2017-10-01T07:36:32Z</time>
      </trkpt>
      <trkpt lat="47.45202" lon="6.79218">
        <ele>334.1</ele>
        <time>2017-10-01T07:36:33Z</time>
      </trkpt>
      <trkpt lat="47.45199" lon="6.79222">
        <ele>334</ele>
        <time>2017-10-01T07:36:34Z</time>
      </trkpt>
      <trkpt lat="47.45197" lon="6.79226">
        <ele>334.2</ele>
        <time>2017-10-01T07:36:35Z</time>
      </trkpt>
      <trkpt lat="47.45194" lon="6.79233">
        <ele>334.5</ele>
        <time>2017-10-01T07:36:36Z</time>
      </trkpt>
      <trkpt lat="47.45192" lon="6.7924">
        <ele>334.8</ele>
        <time>2017-10-01T07:36:37Z</time>
      </trkpt>
      <trkpt lat="47.45191" lon="6.79247">
        <ele>335</ele>
        <time>2017-10-01T07:36:38Z</time>
      </trkpt>
      <trkpt lat="47.45189" lon="6.79254">
        <ele>335.3</ele>
        <time>2017-10-01T07:36:39Z</time>
      </trkpt>
      <trkpt lat="47.45188" lon="6.7926">
        <ele>335.5</ele>
        <time>2017-10-01T07:36:40Z</time>
      </trkpt>
      <trkpt lat="47.45186" lon="6.79267">
        <ele>335.8</ele>
        <time>2017-10-01T07:36:41Z</time>
      </trkpt>
      <trkpt lat="47.45184" lon="6.79275">
        <ele>335.9</ele>
        <time>2017-10-01T07:36:42Z</time>
      </trkpt>
      <trkpt lat="47.45183" lon="6.79281">
        <ele>335.8</ele>
        <time>2017-10-01T07:36:43Z</time>
      </trkpt>
      <trkpt lat="47.45182" lon="6.79288">
        <ele>335.7</ele>
        <time>2017-10-01T07:36:44Z</time>
      </trkpt>
      <trkpt lat="47.4518" lon="6.79296">
        <ele>335.6</ele>
        <time>2017-10-01T07:36:45Z</time>
      </trkpt>
      <trkpt lat="47.45178" lon="6.79304">
        <ele>335.5</ele>
        <time>2017-10-01T07:36:46Z</time>
      </trkpt>
      <trkpt lat="47.45177" lon="6.79312">
        <ele>335.3</ele>
        <time>2017-10-01T07:36:47Z</time>
      </trkpt>
      <trkpt lat="47.45175" lon="6.7932">
        <ele>335.2</ele>
        <time>2017-10-01T07:36:48Z</time>
      </trkpt>
      <trkpt lat="47.45173" lon="6.79329">
        <ele>335</ele>
        <time>2017-10-01T07:36:49Z</time>
      </trkpt>
      <trkpt lat="47.45171" lon="6.79336">
        <ele>334.9</ele>
        <time>2017-10-01T07:36:50Z</time>
      </trkpt>
      <trkpt lat="47.4517" lon="6.79343">
        <ele>334.8</ele>
        <time>2017-10-01T07:36:51Z</time>
      </trkpt>
      <trkpt lat="47.45168" lon="6.7935">
        <ele>334.6</ele>
        <time>2017-10-01T07:36:52Z</time>
      </trkpt>
      <trkpt lat="47.45166" lon="6.79357">
        <ele>334.5</ele>
        <time>2017-10-01T07:36:53Z</time>
      </trkpt>
      <trkpt lat="47.45164" lon="6.79365">
        <ele>334.4</ele>
        <time>2017-10-01T07:36:54Z</time>
      </trkpt>
      <trkpt lat="47.45162" lon="6.79372">
        <ele>334.2</ele>
        <time>2017-10-01T07:36:55Z</time>
      </trkpt>
      <trkpt lat="47.45161" lon="6.79379">
        <ele>334.1</ele>
        <time>2017-10-01T07:36:56Z</time>
      </trkpt>
      <trkpt lat="47.45159" lon="6.79387">
        <ele>334</ele>
        <time>2017-10-01T07:36:57Z</time>
      </trkpt>
      <trkpt lat="47.45158" lon="6.79394">
        <ele>334</ele>
        <time>2017-10-01T07:36:58Z</time>
      </trkpt>
      <trkpt lat="47.45156" lon="6.79401">
        <ele>333.7</ele>
        <time>2017-10-01T07:36:59Z</time>
      </trkpt>
      <trkpt lat="47.45155" lon="6.79407">
        <ele>333.5</ele>
        <time>2017-10-01T07:37:00Z</time>
      </trkpt>
      <trkpt lat="47.45154" lon="6.79413">
        <ele>333.2</ele>
        <time>2017-10-01T07:37:01Z</time>
      </trkpt>
      <trkpt lat="47.45151" lon="6.79419">
        <ele>333</ele>
        <time>2017-10-01T07:37:02Z</time>
      </trkpt>
      <trkpt lat="47.45148" lon="6.79425">
        <ele>333.1</ele>
        <time>2017-10-01T07:37:03Z</time>
      </trkpt>
      <trkpt lat="47.45144" lon="6.79431">
        <ele>333.2</ele>
        <time>2017-10-01T07:37:04Z</time>
      </trkpt>
      <trkpt lat="47.45143" lon="6.79438">
        <ele>333.2</ele>
        <time>2017-10-01T07:37:05Z</time>
      </trkpt>
      <trkpt lat="47.45141" lon="6.79444">
        <ele>333.3</ele>
        <time>2017-10-01T07:37:06Z</time>
      </trkpt>
      <trkpt lat="47.45139" lon="6.79449">
        <ele>333.4</ele>
        <time>2017-10-01T07:37:07Z</time>
      </trkpt>
      <trkpt lat="47.45138" lon="6.79455">
        <ele>333.5</ele>
        <time>2017-10-01T07:37:08Z</time>
      </trkpt>
      <trkpt lat="47.45136" lon="6.7946">
        <ele>333.6</ele>
        <time>2017-10-01T07:37:09Z</time>
      </trkpt>
      <trkpt lat="47.45134" lon="6.79467">
        <ele>333.7</ele>
        <time>2017-10-01T07:37:10Z</time>
      </trkpt>
      <trkpt lat="47.45133" lon="6.79475">
        <ele>333.8</ele>
        <time>2017-10-01T07:37:11Z</time>
      </trkpt>
      <trkpt lat="47.45131" lon="6.7948">
        <ele>333.9</ele>
        <time>2017-10-01T07:37:12Z</time>
      </trkpt>
      <trkpt lat="47.4513" lon="6.79486">
        <ele>334</ele>
        <time>2017-10-01T07:37:13Z</time>
      </trkpt>
      <trkpt lat="47.45128" lon="6.79495">
        <ele>334.2</ele>
        <time>2017-10-01T07:37:14Z</time>
      </trkpt>
      <trkpt lat="47.45127" lon="6.79503">
        <ele>334.3</ele>
        <time>2017-10-01T07:37:15Z</time>
      </trkpt>
      <trkpt lat="47.45127" lon="6.79509">
        <ele>334.4</ele>
        <time>2017-10-01T07:37:16Z</time>
      </trkpt>
      <trkpt lat="47.45126" lon="6.79516">
        <ele>334.5</ele>
        <time>2017-10-01T07:37:17Z</time>
      </trkpt>
      <trkpt lat="47.45125" lon="6.79523">
        <ele>334.6</ele>
        <time>2017-10-01T07:37:18Z</time>
      </trkpt>
      <trkpt lat="47.45124" lon="6.79529">
        <ele>334.7</ele>
        <time>2017-10-01T07:37:19Z</time>
      </trkpt>
      <trkpt lat="47.4512" lon="6.79534">
        <ele>334.9</ele>
        <time>2017-10-01T07:37:20Z</time>
      </trkpt>
      <trkpt lat="47.45116" lon="6.7954">
        <ele>335</ele>
        <time>2017-10-01T07:37:21Z</time>
      </trkpt>
      <trkpt lat="47.45112" lon="6.79546">
        <ele>335.1</ele>
        <time>2017-10-01T07:37:22Z</time>
      </trkpt>
      <trkpt lat="47.45108" lon="6.79551">
        <ele>335.4</ele>
        <time>2017-10-01T07:37:23Z</time>
      </trkpt>
      <trkpt lat="47.45105" lon="6.79556">
        <ele>335.5</ele>
        <time>2017-10-01T07:37:24Z</time>
      </trkpt>
      <trkpt lat="47.45101" lon="6.79562">
        <ele>335.5</ele>
        <time>2017-10-01T07:37:25Z</time>
      </trkpt>
      <trkpt lat="47.45097" lon="6.79567">
        <ele>335.4</ele>
        <time>2017-10-01T07:37:26Z</time>
      </trkpt>
      <trkpt lat="47.45093" lon="6.79573">
        <ele>335.3</ele>
        <time>2017-10-01T07:37:27Z</time>
      </trkpt>
      <trkpt lat="47.4509" lon="6.79579">
        <ele>335.3</ele>
        <time>2017-10-01T07:37:28Z</time>
      </trkpt>
      <trkpt lat="47.45086" lon="6.79584">
        <ele>335.4</ele>
        <time>2017-10-01T07:37:29Z</time>
      </trkpt>
      <trkpt lat="47.45082" lon="6.7959">
        <ele>335.5</ele>
        <time>2017-10-01T07:37:30Z</time>
      </trkpt>
      <trkpt lat="47.45078" lon="6.79596">
        <ele>335.5</ele>
        <time>2017-10-01T07:37:31Z</time>
      </trkpt>
      <trkpt lat="47.45074" lon="6.79601">
        <ele>335.5</ele>
        <time>2017-10-01T07:37:32Z</time>
      </trkpt>
      <trkpt lat="47.45069" lon="6.79606">
        <ele>335.4</ele>
        <time>2017-10-01T07:37:33Z</time>
      </trkpt>
      <trkpt lat="47.45066" lon="6.79611">
        <ele>335.5</ele>
        <time>2017-10-01T07:37:34Z</time>
      </trkpt>
      <trkpt lat="47.45062" lon="6.79617">
        <ele>335.5</ele>
        <time>2017-10-01T07:37:35Z</time>
      </trkpt>
      <trkpt lat="47.45059" lon="6.79621">
        <ele>335.6</ele>
        <time>2017-10-01T07:37:36Z</time>
      </trkpt>
      <trkpt lat="47.45057" lon="6.79625">
        <ele>335.6</ele>
        <time>2017-10-01T07:37:37Z</time>
      </trkpt>
      <trkpt lat="47.45054" lon="6.79627">
        <ele>335.6</ele>
        <time>2017-10-01T07:37:38Z</time>
      </trkpt>
      <trkpt lat="47.45052" lon="6.79632">
        <ele>335.7</ele>
        <time>2017-10-01T07:37:39Z</time>
      </trkpt>
      <trkpt lat="47.45052" lon="6.79638">
        <ele>335.7</ele>
        <time>2017-10-01T07:37:41Z</time>
      </trkpt>
      <trkpt lat="47.4505" lon="6.79642">
        <ele>335.7</ele>
        <time>2017-10-01T07:37:42Z</time>
      </trkpt>
      <trkpt lat="47.45048" lon="6.79646">
        <ele>335.7</ele>
        <time>2017-10-01T07:37:43Z</time>
      </trkpt>
      <trkpt lat="47.45046" lon="6.7965">
        <ele>335.8</ele>
        <time>2017-10-01T07:37:44Z</time>
      </trkpt>
      <trkpt lat="47.45045" lon="6.79655">
        <ele>335.8</ele>
        <time>2017-10-01T07:37:45Z</time>
      </trkpt>
      <trkpt lat="47.45043" lon="6.7966">
        <ele>336.2</ele>
        <time>2017-10-01T07:37:46Z</time>
      </trkpt>
      <trkpt lat="47.45042" lon="6.79665">
        <ele>336.5</ele>
        <time>2017-10-01T07:37:47Z</time>
      </trkpt>
      <trkpt lat="47.4504" lon="6.7967">
        <ele>336.9</ele>
        <time>2017-10-01T07:37:48Z</time>
      </trkpt>
      <trkpt lat="47.4504" lon="6.79674">
        <ele>337.3</ele>
        <time>2017-10-01T07:37:49Z</time>
      </trkpt>
      <trkpt lat="47.4504" lon="6.79677">
        <ele>337.8</ele>
        <time>2017-10-01T07:37:50Z</time>
      </trkpt>
      <trkpt lat="47.45038" lon="6.79682">
        <ele>338.5</ele>
        <time>2017-10-01T07:37:52Z</time>
      </trkpt>
      <trkpt lat="47.45037" lon="6.79684">
        <ele>338.7</ele>
        <time>2017-10-01T07:37:53Z</time>
      </trkpt>
      <trkpt lat="47.45036" lon="6.7969">
        <ele>339.7</ele>
        <time>2017-10-01T07:37:56Z</time>
      </trkpt>
      <trkpt lat="47.45036" lon="6.79693">
        <ele>339.9</ele>
        <time>2017-10-01T07:37:57Z</time>
      </trkpt>
      <trkpt lat="47.45035" lon="6.79698">
        <ele>341.1</ele>
        <time>2017-10-01T07:37:59Z</time>
      </trkpt>
      <trkpt lat="47.45035" lon="6.79702">
        <ele>341.3</ele>
        <time>2017-10-01T07:38:00Z</time>
      </trkpt>
      <trkpt lat="47.45034" lon="6.79704">
        <ele>342.3</ele>
        <time>2017-10-01T07:38:02Z</time>
      </trkpt>
      <trkpt lat="47.45033" lon="6.79708">
        <ele>343.2</ele>
        <time>2017-10-01T07:38:04Z</time>
      </trkpt>
      <trkpt lat="47.45032" lon="6.79714">
        <ele>344.3</ele>
        <time>2017-10-01T07:38:17Z</time>
      </trkpt>
      <trkpt lat="47.45028" lon="6.79713">
        <ele>344.3</ele>
        <time>2017-10-01T07:38:18Z</time>
      </trkpt>
      <trkpt lat="47.45018" lon="6.79711">
        <ele>344.1</ele>
        <time>2017-10-01T07:38:21Z</time>
      </trkpt>
      <trkpt lat="47.45014" lon="6.79709">
        <ele>344.1</ele>
        <time>2017-10-01T07:38:22Z</time>
      </trkpt>
      <trkpt lat="47.45012" lon="6.79708">
        <ele>344</ele>
        <time>2017-10-01T07:38:25Z</time>
      </trkpt>
      <trkpt lat="47.4501" lon="6.79706">
        <ele>344</ele>
        <time>2017-10-01T07:38:26Z</time>
      </trkpt>
      <trkpt lat="47.45007" lon="6.79705">
        <ele>343.9</ele>
        <time>2017-10-01T07:38:29Z</time>
      </trkpt>
      <trkpt lat="47.45005" lon="6.79703">
        <ele>343.9</ele>
        <time>2017-10-01T07:38:30Z</time>
      </trkpt>
      <trkpt lat="47.45003" lon="6.79702">
        <ele>343.9</ele>
        <time>2017-10-01T07:38:35Z</time>
      </trkpt>
      <trkpt lat="47.45001" lon="6.797">
        <ele>343.9</ele>
        <time>2017-10-01T07:38:36Z</time>
      </trkpt>
      <trkpt lat="47.44997" lon="6.79697">
        <ele>343.8</ele>
        <time>2017-10-01T07:38:39Z</time>
      </trkpt>
      <trkpt lat="47.44996" lon="6.79696">
        <ele>343.8</ele>
        <time>2017-10-01T07:38:40Z</time>
      </trkpt>
      <trkpt lat="47.44993" lon="6.79692">
        <ele>343.7</ele>
        <time>2017-10-01T07:38:43Z</time>
      </trkpt>
      <trkpt lat="47.44991" lon="6.79691">
        <ele>343.7</ele>
        <time>2017-10-01T07:38:44Z</time>
      </trkpt>
      <trkpt lat="47.44988" lon="6.79689">
        <ele>343.7</ele>
        <time>2017-10-01T07:38:47Z</time>
      </trkpt>
      <trkpt lat="47.44987" lon="6.79688">
        <ele>343.6</ele>
        <time>2017-10-01T07:38:48Z</time>
      </trkpt>
      <trkpt lat="47.44984" lon="6.79688">
        <ele>343.6</ele>
        <time>2017-10-01T07:38:50Z</time>
      </trkpt>
      <trkpt lat="47.44982" lon="6.79687">
        <ele>343.6</ele>
        <time>2017-10-01T07:38:51Z</time>
      </trkpt>
      <trkpt lat="47.44978" lon="6.79686">
        <ele>343.5</ele>
        <time>2017-10-01T07:38:54Z</time>
      </trkpt>
      <trkpt lat="47.44977" lon="6.79686">
        <ele>343.5</ele>
        <time>2017-10-01T07:38:55Z</time>
      </trkpt>
      <trkpt lat="47.44973" lon="6.79688">
        <ele>343.4</ele>
        <time>2017-10-01T07:38:57Z</time>
      </trkpt>
      <trkpt lat="47.44971" lon="6.79689">
        <ele>343.4</ele>
        <time>2017-10-01T07:38:58Z</time>
      </trkpt>
      <trkpt lat="47.44968" lon="6.79692">
        <ele>343.3</ele>
        <time>2017-10-01T07:39:01Z</time>
      </trkpt>
      <trkpt lat="47.44966" lon="6.79693">
        <ele>343.3</ele>
        <time>2017-10-01T07:39:02Z</time>
      </trkpt>
      <trkpt lat="47.44963" lon="6.79696">
        <ele>343.2</ele>
        <time>2017-10-01T07:39:05Z</time>
      </trkpt>
      <trkpt lat="47.44961" lon="6.79698">
        <ele>343.2</ele>
        <time>2017-10-01T07:39:06Z</time>
      </trkpt>
      <trkpt lat="47.44958" lon="6.797">
        <ele>343.2</ele>
        <time>2017-10-01T07:39:09Z</time>
      </trkpt>
      <trkpt lat="47.44958" lon="6.79702">
        <ele>343.1</ele>
        <time>2017-10-01T07:39:10Z</time>
      </trkpt>
      <trkpt lat="47.44955" lon="6.79705">
        <ele>343.1</ele>
        <time>2017-10-01T07:39:12Z</time>
      </trkpt>
      <trkpt lat="47.44954" lon="6.79708">
        <ele>343.1</ele>
        <time>2017-10-01T07:39:13Z</time>
      </trkpt>
      <trkpt lat="47.44953" lon="6.79711">
        <ele>343</ele>
        <time>2017-10-01T07:39:15Z</time>
      </trkpt>
      <trkpt lat="47.44952" lon="6.79714">
        <ele>343</ele>
        <time>2017-10-01T07:39:16Z</time>
      </trkpt>
      <trkpt lat="47.44949" lon="6.79718">
        <ele>343</ele>
        <time>2017-10-01T07:39:18Z</time>
      </trkpt>
      <trkpt lat="47.44947" lon="6.7972">
        <ele>343</ele>
        <time>2017-10-01T07:39:19Z</time>
      </trkpt>
      <trkpt lat="47.44945" lon="6.7972">
        <ele>343</ele>
        <time>2017-10-01T07:39:20Z</time>
      </trkpt>
      <trkpt lat="47.44942" lon="6.79721">
        <ele>343</ele>
        <time>2017-10-01T07:39:21Z</time>
      </trkpt>
      <trkpt lat="47.44939" lon="6.79722">
        <ele>343</ele>
        <time>2017-10-01T07:39:23Z</time>
      </trkpt>
      <trkpt lat="47.44938" lon="6.79722">
        <ele>343</ele>
        <time>2017-10-01T07:39:24Z</time>
      </trkpt>
      <trkpt lat="47.44935" lon="6.79724">
        <ele>343</ele>
        <time>2017-10-01T07:39:25Z</time>
      </trkpt>
      <trkpt lat="47.44933" lon="6.79725">
        <ele>343</ele>
        <time>2017-10-01T07:39:26Z</time>
      </trkpt>
      <trkpt lat="47.44931" lon="6.79727">
        <ele>343</ele>
        <time>2017-10-01T07:39:27Z</time>
      </trkpt>
      <trkpt lat="47.44929" lon="6.79729">
        <ele>343</ele>
        <time>2017-10-01T07:39:28Z</time>
      </trkpt>
      <trkpt lat="47.44925" lon="6.79731">
        <ele>343</ele>
        <time>2017-10-01T07:39:30Z</time>
      </trkpt>
      <trkpt lat="47.44922" lon="6.79733">
        <ele>343</ele>
        <time>2017-10-01T07:39:31Z</time>
      </trkpt>
      <trkpt lat="47.4492" lon="6.79735">
        <ele>346.4</ele>
        <time>2017-10-01T07:39:32Z</time>
      </trkpt>
      <trkpt lat="47.44917" lon="6.79737">
        <ele>349.9</ele>
        <time>2017-10-01T07:39:33Z</time>
      </trkpt>
      <trkpt lat="47.44914" lon="6.79739">
        <ele>350</ele>
        <time>2017-10-01T07:39:34Z</time>
      </trkpt>
      <trkpt lat="47.44912" lon="6.7974">
        <ele>350.2</ele>
        <time>2017-10-01T07:39:35Z</time>
      </trkpt>
      <trkpt lat="47.44908" lon="6.79741">
        <ele>350.4</ele>
        <time>2017-10-01T07:39:37Z</time>
      </trkpt>
      <trkpt lat="47.44906" lon="6.79742">
        <ele>350.6</ele>
        <time>2017-10-01T07:39:38Z</time>
      </trkpt>
      <trkpt lat="47.44903" lon="6.79742">
        <ele>351</ele>
        <time>2017-10-01T07:39:39Z</time>
      </trkpt>
      <trkpt lat="47.44901" lon="6.79743">
        <ele>351.4</ele>
        <time>2017-10-01T07:39:40Z</time>
      </trkpt>
      <trkpt lat="47.44899" lon="6.79742">
        <ele>351.7</ele>
        <time>2017-10-01T07:39:41Z</time>
      </trkpt>
      <trkpt lat="47.44896" lon="6.79742">
        <ele>352</ele>
        <time>2017-10-01T07:39:42Z</time>
      </trkpt>
      <trkpt lat="47.44893" lon="6.79741">
        <ele>352.4</ele>
        <time>2017-10-01T07:39:43Z</time>
      </trkpt>
      <trkpt lat="47.44891" lon="6.79739">
        <ele>352.6</ele>
        <time>2017-10-01T07:39:44Z</time>
      </trkpt>
      <trkpt lat="47.44889" lon="6.79738">
        <ele>352.7</ele>
        <time>2017-10-01T07:39:45Z</time>
      </trkpt>
      <trkpt lat="47.44887" lon="6.79735">
        <ele>352.8</ele>
        <time>2017-10-01T07:39:46Z</time>
      </trkpt>
      <trkpt lat="47.44884" lon="6.79733">
        <ele>353</ele>
        <time>2017-10-01T07:39:47Z</time>
      </trkpt>
      <trkpt lat="47.44882" lon="6.79731">
        <ele>353.1</ele>
        <time>2017-10-01T07:39:48Z</time>
      </trkpt>
      <trkpt lat="47.44878" lon="6.79728">
        <ele>353.2</ele>
        <time>2017-10-01T07:39:50Z</time>
      </trkpt>
      <trkpt lat="47.44875" lon="6.79727">
        <ele>353.3</ele>
        <time>2017-10-01T07:39:51Z</time>
      </trkpt>
      <trkpt lat="47.44871" lon="6.79725">
        <ele>353.4</ele>
        <time>2017-10-01T07:39:52Z</time>
      </trkpt>
      <trkpt lat="47.44868" lon="6.79723">
        <ele>353.5</ele>
        <time>2017-10-01T07:39:53Z</time>
      </trkpt>
      <trkpt lat="47.44865" lon="6.79722">
        <ele>353.5</ele>
        <time>2017-10-01T07:39:54Z</time>
      </trkpt>
      <trkpt lat="47.44863" lon="6.79721">
        <ele>353.6</ele>
        <time>2017-10-01T07:39:55Z</time>
      </trkpt>
      <trkpt lat="47.4486" lon="6.79719">
        <ele>353.7</ele>
        <time>2017-10-01T07:39:56Z</time>
      </trkpt>
      <trkpt lat="47.44855" lon="6.79718">
        <ele>353.8</ele>
        <time>2017-10-01T07:39:57Z</time>
      </trkpt>
      <trkpt lat="47.44852" lon="6.79717">
        <ele>353.9</ele>
        <time>2017-10-01T07:39:58Z</time>
      </trkpt>
      <trkpt lat="47.44849" lon="6.79718">
        <ele>354</ele>
        <time>2017-10-01T07:39:59Z</time>
      </trkpt>
      <trkpt lat="47.44845" lon="6.79718">
        <ele>354.1</ele>
        <time>2017-10-01T07:40:00Z</time>
      </trkpt>
      <trkpt lat="47.44841" lon="6.79719">
        <ele>354.4</ele>
        <time>2017-10-01T07:40:01Z</time>
      </trkpt>
      <trkpt lat="47.44837" lon="6.7972">
        <ele>354.5</ele>
        <time>2017-10-01T07:40:02Z</time>
      </trkpt>
      <trkpt lat="47.44833" lon="6.79721">
        <ele>354.6</ele>
        <time>2017-10-01T07:40:03Z</time>
      </trkpt>
      <trkpt lat="47.4483" lon="6.79722">
        <ele>354.7</ele>
        <time>2017-10-01T07:40:04Z</time>
      </trkpt>
      <trkpt lat="47.44827" lon="6.79724">
        <ele>354.8</ele>
        <time>2017-10-01T07:40:05Z</time>
      </trkpt>
      <trkpt lat="47.44824" lon="6.79725">
        <ele>354.9</ele>
        <time>2017-10-01T07:40:06Z</time>
      </trkpt>
      <trkpt lat="47.44822" lon="6.79729">
        <ele>355</ele>
        <time>2017-10-01T07:40:07Z</time>
      </trkpt>
      <trkpt lat="47.44822" lon="6.79735">
        <ele>355</ele>
        <time>2017-10-01T07:40:08Z</time>
      </trkpt>
      <trkpt lat="47.44822" lon="6.79739">
        <ele>355.1</ele>
        <time>2017-10-01T07:40:09Z</time>
      </trkpt>
      <trkpt lat="47.44821" lon="6.79744">
        <ele>355.1</ele>
        <time>2017-10-01T07:40:10Z</time>
      </trkpt>
      <trkpt lat="47.44821" lon="6.79748">
        <ele>355.2</ele>
        <time>2017-10-01T07:40:11Z</time>
      </trkpt>
      <trkpt lat="47.44819" lon="6.79755">
        <ele>355.2</ele>
        <time>2017-10-01T07:40:12Z</time>
      </trkpt>
      <trkpt lat="47.44818" lon="6.79761">
        <ele>355.3</ele>
        <time>2017-10-01T07:40:13Z</time>
      </trkpt>
      <trkpt lat="47.44817" lon="6.79768">
        <ele>355.4</ele>
        <time>2017-10-01T07:40:14Z</time>
      </trkpt>
      <trkpt lat="47.44817" lon="6.79772">
        <ele>355.4</ele>
        <time>2017-10-01T07:40:15Z</time>
      </trkpt>
      <trkpt lat="47.44816" lon="6.79778">
        <ele>355.5</ele>
        <time>2017-10-01T07:40:16Z</time>
      </trkpt>
      <trkpt lat="47.44815" lon="6.79784">
        <ele>355.5</ele>
        <time>2017-10-01T07:40:17Z</time>
      </trkpt>
      <trkpt lat="47.44814" lon="6.79791">
        <ele>355.6</ele>
        <time>2017-10-01T07:40:18Z</time>
      </trkpt>
      <trkpt lat="47.44813" lon="6.79799">
        <ele>355.7</ele>
        <time>2017-10-01T07:40:19Z</time>
      </trkpt>
      <trkpt lat="47.44812" lon="6.79805">
        <ele>355.7</ele>
        <time>2017-10-01T07:40:20Z</time>
      </trkpt>
      <trkpt lat="47.44811" lon="6.79811">
        <ele>355.7</ele>
        <time>2017-10-01T07:40:21Z</time>
      </trkpt>
      <trkpt lat="47.4481" lon="6.79816">
        <ele>355.8</ele>
        <time>2017-10-01T07:40:22Z</time>
      </trkpt>
      <trkpt lat="47.4481" lon="6.79821">
        <ele>355.8</ele>
        <time>2017-10-01T07:40:23Z</time>
      </trkpt>
      <trkpt lat="47.44809" lon="6.79827">
        <ele>355.9</ele>
        <time>2017-10-01T07:40:24Z</time>
      </trkpt>
      <trkpt lat="47.44808" lon="6.79834">
        <ele>355.9</ele>
        <time>2017-10-01T07:40:25Z</time>
      </trkpt>
      <trkpt lat="47.44807" lon="6.79839">
        <ele>355.9</ele>
        <time>2017-10-01T07:40:26Z</time>
      </trkpt>
      <trkpt lat="47.44806" lon="6.79846">
        <ele>356</ele>
        <time>2017-10-01T07:40:27Z</time>
      </trkpt>
      <trkpt lat="47.44805" lon="6.79853">
        <ele>356</ele>
        <time>2017-10-01T07:40:28Z</time>
      </trkpt>
      <trkpt lat="47.44804" lon="6.79858">
        <ele>356.1</ele>
        <time>2017-10-01T07:40:29Z</time>
      </trkpt>
      <trkpt lat="47.44803" lon="6.79863">
        <ele>356.1</ele>
        <time>2017-10-01T07:40:30Z</time>
      </trkpt>
      <trkpt lat="47.44802" lon="6.79868">
        <ele>356.1</ele>
        <time>2017-10-01T07:40:31Z</time>
      </trkpt>
      <trkpt lat="47.44801" lon="6.79875">
        <ele>356.2</ele>
        <time>2017-10-01T07:40:32Z</time>
      </trkpt>
      <trkpt lat="47.448" lon="6.7988">
        <ele>356.2</ele>
        <time>2017-10-01T07:40:33Z</time>
      </trkpt>
      <trkpt lat="47.448" lon="6.79885">
        <ele>356.2</ele>
        <time>2017-10-01T07:40:34Z</time>
      </trkpt>
      <trkpt lat="47.44799" lon="6.79891">
        <ele>356.3</ele>
        <time>2017-10-01T07:40:35Z</time>
      </trkpt>
      <trkpt lat="47.44798" lon="6.79896">
        <ele>356.3</ele>
        <time>2017-10-01T07:40:36Z</time>
      </trkpt>
      <trkpt lat="47.44797" lon="6.79902">
        <ele>356.3</ele>
        <time>2017-10-01T07:40:37Z</time>
      </trkpt>
      <trkpt lat="47.44797" lon="6.79907">
        <ele>356.4</ele>
        <time>2017-10-01T07:40:38Z</time>
      </trkpt>
      <trkpt lat="47.44796" lon="6.79913">
        <ele>356.4</ele>
        <time>2017-10-01T07:40:39Z</time>
      </trkpt>
      <trkpt lat="47.44795" lon="6.79919">
        <ele>356.4</ele>
        <time>2017-10-01T07:40:40Z</time>
      </trkpt>
      <trkpt lat="47.44794" lon="6.79925">
        <ele>356.5</ele>
        <time>2017-10-01T07:40:41Z</time>
      </trkpt>
      <trkpt lat="47.44794" lon="6.7993">
        <ele>356.5</ele>
        <time>2017-10-01T07:40:42Z</time>
      </trkpt>
      <trkpt lat="47.44793" lon="6.79935">
        <ele>356.6</ele>
        <time>2017-10-01T07:40:43Z</time>
      </trkpt>
      <trkpt lat="47.44792" lon="6.79939">
        <ele>356.6</ele>
        <time>2017-10-01T07:40:44Z</time>
      </trkpt>
      <trkpt lat="47.44792" lon="6.79944">
        <ele>356.6</ele>
        <time>2017-10-01T07:40:45Z</time>
      </trkpt>
      <trkpt lat="47.44791" lon="6.79948">
        <ele>356.7</ele>
        <time>2017-10-01T07:40:46Z</time>
      </trkpt>
      <trkpt lat="47.4479" lon="6.79953">
        <ele>356.7</ele>
        <time>2017-10-01T07:40:47Z</time>
      </trkpt>
      <trkpt lat="47.44789" lon="6.79958">
        <ele>356.7</ele>
        <time>2017-10-01T07:40:48Z</time>
      </trkpt>
      <trkpt lat="47.44788" lon="6.79962">
        <ele>356.8</ele>
        <time>2017-10-01T07:40:49Z</time>
      </trkpt>
      <trkpt lat="47.44787" lon="6.79966">
        <ele>356.8</ele>
        <time>2017-10-01T07:40:50Z</time>
      </trkpt>
      <trkpt lat="47.44787" lon="6.79971">
        <ele>356.9</ele>
        <time>2017-10-01T07:40:51Z</time>
      </trkpt>
      <trkpt lat="47.44786" lon="6.79975">
        <ele>356.9</ele>
        <time>2017-10-01T07:40:52Z</time>
      </trkpt>
      <trkpt lat="47.44785" lon="6.79981">
        <ele>357.1</ele>
        <time>2017-10-01T07:40:54Z</time>
      </trkpt>
      <trkpt lat="47.44784" lon="6.79982">
        <ele>357.1</ele>
        <time>2017-10-01T07:40:55Z</time>
      </trkpt>
      <trkpt lat="47.44781" lon="6.7998">
        <ele>357.2</ele>
        <time>2017-10-01T07:40:57Z</time>
      </trkpt>
      <trkpt lat="47.44779" lon="6.79979">
        <ele>357.3</ele>
        <time>2017-10-01T07:40:58Z</time>
      </trkpt>
      <trkpt lat="47.44776" lon="6.79978">
        <ele>357.3</ele>
        <time>2017-10-01T07:40:59Z</time>
      </trkpt>
      <trkpt lat="47.44773" lon="6.79978">
        <ele>357.4</ele>
        <time>2017-10-01T07:41:00Z</time>
      </trkpt>
      <trkpt lat="47.44771" lon="6.79978">
        <ele>357.4</ele>
        <time>2017-10-01T07:41:01Z</time>
      </trkpt>
      <trkpt lat="47.44768" lon="6.79977">
        <ele>357.5</ele>
        <time>2017-10-01T07:41:02Z</time>
      </trkpt>
      <trkpt lat="47.44764" lon="6.79977">
        <ele>357.6</ele>
        <time>2017-10-01T07:41:03Z</time>
      </trkpt>
      <trkpt lat="47.44761" lon="6.79976">
        <ele>357.7</ele>
        <time>2017-10-01T07:41:04Z</time>
      </trkpt>
      <trkpt lat="47.44758" lon="6.79976">
        <ele>357.8</ele>
        <time>2017-10-01T07:41:05Z</time>
      </trkpt>
      <trkpt lat="47.44754" lon="6.79975">
        <ele>357.9</ele>
        <time>2017-10-01T07:41:06Z</time>
      </trkpt>
      <trkpt lat="47.44752" lon="6.79974">
        <ele>358</ele>
        <time>2017-10-01T07:41:07Z</time>
      </trkpt>
      <trkpt lat="47.44749" lon="6.79974">
        <ele>358.1</ele>
        <time>2017-10-01T07:41:08Z</time>
      </trkpt>
      <trkpt lat="47.44745" lon="6.79973">
        <ele>358.2</ele>
        <time>2017-10-01T07:41:10Z</time>
      </trkpt>
      <trkpt lat="47.44742" lon="6.79973">
        <ele>358.5</ele>
        <time>2017-10-01T07:41:11Z</time>
      </trkpt>
      <trkpt lat="47.44739" lon="6.79972">
        <ele>358.8</ele>
        <time>2017-10-01T07:41:12Z</time>
      </trkpt>
      <trkpt lat="47.44736" lon="6.79971">
        <ele>359.1</ele>
        <time>2017-10-01T07:41:13Z</time>
      </trkpt>
      <trkpt lat="47.44733" lon="6.79971">
        <ele>359.4</ele>
        <time>2017-10-01T07:41:14Z</time>
      </trkpt>
      <trkpt lat="47.44731" lon="6.79971">
        <ele>359.4</ele>
        <time>2017-10-01T07:41:15Z</time>
      </trkpt>
      <trkpt lat="47.44728" lon="6.79971">
        <ele>359.5</ele>
        <time>2017-10-01T07:41:16Z</time>
      </trkpt>
      <trkpt lat="47.44725" lon="6.7997">
        <ele>359.6</ele>
        <time>2017-10-01T07:41:17Z</time>
      </trkpt>
      <trkpt lat="47.44722" lon="6.7997">
        <ele>359.7</ele>
        <time>2017-10-01T07:41:18Z</time>
      </trkpt>
      <trkpt lat="47.4472" lon="6.7997">
        <ele>359.8</ele>
        <time>2017-10-01T07:41:19Z</time>
      </trkpt>
      <trkpt lat="47.44716" lon="6.79969">
        <ele>359.9</ele>
        <time>2017-10-01T07:41:20Z</time>
      </trkpt>
      <trkpt lat="47.44714" lon="6.79968">
        <ele>360</ele>
        <time>2017-10-01T07:41:21Z</time>
      </trkpt>
      <trkpt lat="47.44711" lon="6.79966">
        <ele>360.1</ele>
        <time>2017-10-01T07:41:22Z</time>
      </trkpt>
      <trkpt lat="47.44707" lon="6.79965">
        <ele>360.2</ele>
        <time>2017-10-01T07:41:23Z</time>
      </trkpt>
      <trkpt lat="47.44703" lon="6.79964">
        <ele>360.3</ele>
        <time>2017-10-01T07:41:24Z</time>
      </trkpt>
      <trkpt lat="47.447" lon="6.79963">
        <ele>360.4</ele>
        <time>2017-10-01T07:41:25Z</time>
      </trkpt>
      <trkpt lat="47.44698" lon="6.79963">
        <ele>360.5</ele>
        <time>2017-10-01T07:41:26Z</time>
      </trkpt>
      <trkpt lat="47.44695" lon="6.79962">
        <ele>360.6</ele>
        <time>2017-10-01T07:41:27Z</time>
      </trkpt>
      <trkpt lat="47.44692" lon="6.79962">
        <ele>360.7</ele>
        <time>2017-10-01T07:41:28Z</time>
      </trkpt>
      <trkpt lat="47.44689" lon="6.79962">
        <ele>360.9</ele>
        <time>2017-10-01T07:41:29Z</time>
      </trkpt>
      <trkpt lat="47.44686" lon="6.79962">
        <ele>361.2</ele>
        <time>2017-10-01T07:41:30Z</time>
      </trkpt>
      <trkpt lat="47.44682" lon="6.79962">
        <ele>361.6</ele>
        <time>2017-10-01T07:41:31Z</time>
      </trkpt>
      <trkpt lat="47.44679" lon="6.79961">
        <ele>362</ele>
        <time>2017-10-01T07:41:32Z</time>
      </trkpt>
      <trkpt lat="47.44676" lon="6.79962">
        <ele>362.2</ele>
        <time>2017-10-01T07:41:33Z</time>
      </trkpt>
      <trkpt lat="47.44672" lon="6.79963">
        <ele>362.3</ele>
        <time>2017-10-01T07:41:34Z</time>
      </trkpt>
      <trkpt lat="47.44668" lon="6.79963">
        <ele>362.4</ele>
        <time>2017-10-01T07:41:35Z</time>
      </trkpt>
      <trkpt lat="47.44665" lon="6.79962">
        <ele>362.5</ele>
        <time>2017-10-01T07:41:37Z</time>
      </trkpt>
      <trkpt lat="47.44662" lon="6.79961">
        <ele>362.6</ele>
        <time>2017-10-01T07:41:38Z</time>
      </trkpt>
      <trkpt lat="47.44659" lon="6.79961">
        <ele>362.6</ele>
        <time>2017-10-01T07:41:39Z</time>
      </trkpt>
      <trkpt lat="47.44657" lon="6.79961">
        <ele>362.7</ele>
        <time>2017-10-01T07:41:40Z</time>
      </trkpt>
      <trkpt lat="47.44654" lon="6.79961">
        <ele>362.7</ele>
        <time>2017-10-01T07:41:41Z</time>
      </trkpt>
      <trkpt lat="47.44651" lon="6.7996">
        <ele>362.7</ele>
        <time>2017-10-01T07:41:42Z</time>
      </trkpt>
      <trkpt lat="47.44649" lon="6.79959">
        <ele>362.8</ele>
        <time>2017-10-01T07:41:43Z</time>
      </trkpt>
      <trkpt lat="47.44647" lon="6.79958">
        <ele>362.8</ele>
        <time>2017-10-01T07:41:44Z</time>
      </trkpt>
      <trkpt lat="47.44644" lon="6.79957">
        <ele>362.8</ele>
        <time>2017-10-01T07:41:45Z</time>
      </trkpt>
      <trkpt lat="47.44641" lon="6.79956">
        <ele>362.9</ele>
        <time>2017-10-01T07:41:46Z</time>
      </trkpt>
      <trkpt lat="47.44638" lon="6.79956">
        <ele>362.9</ele>
        <time>2017-10-01T07:41:47Z</time>
      </trkpt>
      <trkpt lat="47.44635" lon="6.79955">
        <ele>363</ele>
        <time>2017-10-01T07:41:48Z</time>
      </trkpt>
      <trkpt lat="47.44632" lon="6.79954">
        <ele>363</ele>
        <time>2017-10-01T07:41:49Z</time>
      </trkpt>
      <trkpt lat="47.44629" lon="6.79954">
        <ele>363.2</ele>
        <time>2017-10-01T07:41:50Z</time>
      </trkpt>
      <trkpt lat="47.44625" lon="6.79953">
        <ele>363.4</ele>
        <time>2017-10-01T07:41:51Z</time>
      </trkpt>
      <trkpt lat="47.44622" lon="6.79953">
        <ele>363.6</ele>
        <time>2017-10-01T07:41:52Z</time>
      </trkpt>
      <trkpt lat="47.44619" lon="6.79952">
        <ele>363.8</ele>
        <time>2017-10-01T07:41:53Z</time>
      </trkpt>
      <trkpt lat="47.44616" lon="6.79951">
        <ele>363.9</ele>
        <time>2017-10-01T07:41:54Z</time>
      </trkpt>
      <trkpt lat="47.44613" lon="6.7995">
        <ele>364.1</ele>
        <time>2017-10-01T07:41:55Z</time>
      </trkpt>
      <trkpt lat="47.44609" lon="6.79949">
        <ele>364.3</ele>
        <time>2017-10-01T07:41:56Z</time>
      </trkpt>
      <trkpt lat="47.44606" lon="6.79949">
        <ele>364.4</ele>
        <time>2017-10-01T07:41:57Z</time>
      </trkpt>
      <trkpt lat="47.44603" lon="6.79948">
        <ele>364.6</ele>
        <time>2017-10-01T07:41:58Z</time>
      </trkpt>
      <trkpt lat="47.446" lon="6.79947">
        <ele>364.7</ele>
        <time>2017-10-01T07:41:59Z</time>
      </trkpt>
      <trkpt lat="47.44596" lon="6.79945">
        <ele>364.9</ele>
        <time>2017-10-01T07:42:00Z</time>
      </trkpt>
      <trkpt lat="47.44592" lon="6.79944">
        <ele>365.1</ele>
        <time>2017-10-01T07:42:01Z</time>
      </trkpt>
      <trkpt lat="47.44588" lon="6.79942">
        <ele>365.5</ele>
        <time>2017-10-01T07:42:02Z</time>
      </trkpt>
      <trkpt lat="47.44585" lon="6.79941">
        <ele>366.2</ele>
        <time>2017-10-01T07:42:03Z</time>
      </trkpt>
      <trkpt lat="47.44581" lon="6.7994">
        <ele>367</ele>
        <time>2017-10-01T07:42:04Z</time>
      </trkpt>
      <trkpt lat="47.44579" lon="6.7994">
        <ele>367.5</ele>
        <time>2017-10-01T07:42:05Z</time>
      </trkpt>
      <trkpt lat="47.44577" lon="6.79939">
        <ele>367.9</ele>
        <time>2017-10-01T07:42:06Z</time>
      </trkpt>
      <trkpt lat="47.44573" lon="6.79937">
        <ele>368.2</ele>
        <time>2017-10-01T07:42:07Z</time>
      </trkpt>
      <trkpt lat="47.4457" lon="6.79936">
        <ele>368.4</ele>
        <time>2017-10-01T07:42:08Z</time>
      </trkpt>
      <trkpt lat="47.44567" lon="6.79934">
        <ele>368.6</ele>
        <time>2017-10-01T07:42:09Z</time>
      </trkpt>
      <trkpt lat="47.44564" lon="6.79933">
        <ele>368.8</ele>
        <time>2017-10-01T07:42:10Z</time>
      </trkpt>
      <trkpt lat="47.44561" lon="6.79932">
        <ele>369</ele>
        <time>2017-10-01T07:42:11Z</time>
      </trkpt>
      <trkpt lat="47.44558" lon="6.7993">
        <ele>369.2</ele>
        <time>2017-10-01T07:42:12Z</time>
      </trkpt>
      <trkpt lat="47.44555" lon="6.79929">
        <ele>369.3</ele>
        <time>2017-10-01T07:42:13Z</time>
      </trkpt>
      <trkpt lat="47.44552" lon="6.79928">
        <ele>369.5</ele>
        <time>2017-10-01T07:42:14Z</time>
      </trkpt>
      <trkpt lat="47.44549" lon="6.79926">
        <ele>369.7</ele>
        <time>2017-10-01T07:42:16Z</time>
      </trkpt>
      <trkpt lat="47.44545" lon="6.79925">
        <ele>369.9</ele>
        <time>2017-10-01T07:42:17Z</time>
      </trkpt>
      <trkpt lat="47.44543" lon="6.79924">
        <ele>370.1</ele>
        <time>2017-10-01T07:42:18Z</time>
      </trkpt>
      <trkpt lat="47.44539" lon="6.79922">
        <ele>370.3</ele>
        <time>2017-10-01T07:42:19Z</time>
      </trkpt>
      <trkpt lat="47.44537" lon="6.79921">
        <ele>370.4</ele>
        <time>2017-10-01T07:42:20Z</time>
      </trkpt>
      <trkpt lat="47.44534" lon="6.7992">
        <ele>370.5</ele>
        <time>2017-10-01T07:42:21Z</time>
      </trkpt>
      <trkpt lat="47.44531" lon="6.7992">
        <ele>370.7</ele>
        <time>2017-10-01T07:42:22Z</time>
      </trkpt>
      <trkpt lat="47.44528" lon="6.79919">
        <ele>370.8</ele>
        <time>2017-10-01T07:42:23Z</time>
      </trkpt>
      <trkpt lat="47.44525" lon="6.79918">
        <ele>371</ele>
        <time>2017-10-01T07:42:24Z</time>
      </trkpt>
      <trkpt lat="47.44522" lon="6.79917">
        <ele>371.2</ele>
        <time>2017-10-01T07:42:25Z</time>
      </trkpt>
      <trkpt lat="47.4452" lon="6.79917">
        <ele>371.5</ele>
        <time>2017-10-01T07:42:26Z</time>
      </trkpt>
      <trkpt lat="47.44517" lon="6.79916">
        <ele>372</ele>
        <time>2017-10-01T07:42:27Z</time>
      </trkpt>
      <trkpt lat="47.44515" lon="6.79915">
        <ele>372.7</ele>
        <time>2017-10-01T07:42:28Z</time>
      </trkpt>
      <trkpt lat="47.44511" lon="6.79915">
        <ele>373.5</ele>
        <time>2017-10-01T07:42:29Z</time>
      </trkpt>
      <trkpt lat="47.44509" lon="6.79915">
        <ele>374.1</ele>
        <time>2017-10-01T07:42:30Z</time>
      </trkpt>
      <trkpt lat="47.44506" lon="6.79914">
        <ele>374.6</ele>
        <time>2017-10-01T07:42:31Z</time>
      </trkpt>
      <trkpt lat="47.44503" lon="6.79914">
        <ele>375.1</ele>
        <time>2017-10-01T07:42:33Z</time>
      </trkpt>
      <trkpt lat="47.44501" lon="6.79914">
        <ele>375.3</ele>
        <time>2017-10-01T07:42:34Z</time>
      </trkpt>
      <trkpt lat="47.44498" lon="6.79913">
        <ele>375.6</ele>
        <time>2017-10-01T07:42:35Z</time>
      </trkpt>
      <trkpt lat="47.44495" lon="6.79913">
        <ele>375.8</ele>
        <time>2017-10-01T07:42:36Z</time>
      </trkpt>
      <trkpt lat="47.44493" lon="6.79913">
        <ele>376.1</ele>
        <time>2017-10-01T07:42:37Z</time>
      </trkpt>
      <trkpt lat="47.4449" lon="6.79913">
        <ele>376.3</ele>
        <time>2017-10-01T07:42:38Z</time>
      </trkpt>
      <trkpt lat="47.44488" lon="6.79912">
        <ele>376.7</ele>
        <time>2017-10-01T07:42:39Z</time>
      </trkpt>
      <trkpt lat="47.44486" lon="6.79911">
        <ele>377.3</ele>
        <time>2017-10-01T07:42:40Z</time>
      </trkpt>
      <trkpt lat="47.44483" lon="6.7991">
        <ele>378.1</ele>
        <time>2017-10-01T07:42:41Z</time>
      </trkpt>
      <trkpt lat="47.4448" lon="6.79909">
        <ele>378.9</ele>
        <time>2017-10-01T07:42:42Z</time>
      </trkpt>
      <trkpt lat="47.44478" lon="6.79909">
        <ele>379.6</ele>
        <time>2017-10-01T07:42:43Z</time>
      </trkpt>
      <trkpt lat="47.44475" lon="6.79908">
        <ele>379.9</ele>
        <time>2017-10-01T07:42:44Z</time>
      </trkpt>
      <trkpt lat="47.44473" lon="6.79907">
        <ele>380.4</ele>
        <time>2017-10-01T07:42:45Z</time>
      </trkpt>
      <trkpt lat="47.44471" lon="6.79906">
        <ele>380.7</ele>
        <time>2017-10-01T07:42:46Z</time>
      </trkpt>
      <trkpt lat="47.44467" lon="6.79904">
        <ele>381.2</ele>
        <time>2017-10-01T07:42:48Z</time>
      </trkpt>
      <trkpt lat="47.44465" lon="6.79903">
        <ele>381.5</ele>
        <time>2017-10-01T07:42:49Z</time>
      </trkpt>
      <trkpt lat="47.44461" lon="6.799">
        <ele>382.1</ele>
        <time>2017-10-01T07:42:51Z</time>
      </trkpt>
      <trkpt lat="47.44459" lon="6.79899">
        <ele>382.7</ele>
        <time>2017-10-01T07:42:52Z</time>
      </trkpt>
      <trkpt lat="47.44455" lon="6.79897">
        <ele>384</ele>
        <time>2017-10-01T07:42:54Z</time>
      </trkpt>
      <trkpt lat="47.44453" lon="6.79895">
        <ele>384.7</ele>
        <time>2017-10-01T07:42:55Z</time>
      </trkpt>
      <trkpt lat="47.44451" lon="6.79894">
        <ele>385</ele>
        <time>2017-10-01T07:42:56Z</time>
      </trkpt>
      <trkpt lat="47.44448" lon="6.79892">
        <ele>385.2</ele>
        <time>2017-10-01T07:42:57Z</time>
      </trkpt>
      <trkpt lat="47.44446" lon="6.79891">
        <ele>385.5</ele>
        <time>2017-10-01T07:42:58Z</time>
      </trkpt>
      <trkpt lat="47.44443" lon="6.7989">
        <ele>385.8</ele>
        <time>2017-10-01T07:42:59Z</time>
      </trkpt>
      <trkpt lat="47.44439" lon="6.79888">
        <ele>386.3</ele>
        <time>2017-10-01T07:43:01Z</time>
      </trkpt>
      <trkpt lat="47.44437" lon="6.79888">
        <ele>386.6</ele>
        <time>2017-10-01T07:43:02Z</time>
      </trkpt>
      <trkpt lat="47.44433" lon="6.79885">
        <ele>387.1</ele>
        <time>2017-10-01T07:43:04Z</time>
      </trkpt>
      <trkpt lat="47.44431" lon="6.79885">
        <ele>387.6</ele>
        <time>2017-10-01T07:43:05Z</time>
      </trkpt>
      <trkpt lat="47.44427" lon="6.79883">
        <ele>388.8</ele>
        <time>2017-10-01T07:43:07Z</time>
      </trkpt>
      <trkpt lat="47.44425" lon="6.79882">
        <ele>389</ele>
        <time>2017-10-01T07:43:08Z</time>
      </trkpt>
      <trkpt lat="47.44421" lon="6.79881">
        <ele>389.4</ele>
        <time>2017-10-01T07:43:10Z</time>
      </trkpt>
      <trkpt lat="47.44419" lon="6.79881">
        <ele>389.5</ele>
        <time>2017-10-01T07:43:11Z</time>
      </trkpt>
      <trkpt lat="47.44416" lon="6.79879">
        <ele>389.9</ele>
        <time>2017-10-01T07:43:13Z</time>
      </trkpt>
      <trkpt lat="47.44413" lon="6.79878">
        <ele>390.2</ele>
        <time>2017-10-01T07:43:14Z</time>
      </trkpt>
      <trkpt lat="47.4441" lon="6.79877">
        <ele>390.4</ele>
        <time>2017-10-01T07:43:15Z</time>
      </trkpt>
      <trkpt lat="47.44408" lon="6.79876">
        <ele>390.7</ele>
        <time>2017-10-01T07:43:16Z</time>
      </trkpt>
      <trkpt lat="47.44405" lon="6.79874">
        <ele>391.3</ele>
        <time>2017-10-01T07:43:18Z</time>
      </trkpt>
      <trkpt lat="47.44403" lon="6.79873">
        <ele>391.6</ele>
        <time>2017-10-01T07:43:19Z</time>
      </trkpt>
      <trkpt lat="47.444" lon="6.79871">
        <ele>392.8</ele>
        <time>2017-10-01T07:43:21Z</time>
      </trkpt>
      <trkpt lat="47.44397" lon="6.79869">
        <ele>393.5</ele>
        <time>2017-10-01T07:43:22Z</time>
      </trkpt>
      <trkpt lat="47.44395" lon="6.79868">
        <ele>393.9</ele>
        <time>2017-10-01T07:43:23Z</time>
      </trkpt>
      <trkpt lat="47.44391" lon="6.79867">
        <ele>394.3</ele>
        <time>2017-10-01T07:43:24Z</time>
      </trkpt>
      <trkpt lat="47.44388" lon="6.79864">
        <ele>394.6</ele>
        <time>2017-10-01T07:43:25Z</time>
      </trkpt>
      <trkpt lat="47.44386" lon="6.79861">
        <ele>395.7</ele>
        <time>2017-10-01T07:43:26Z</time>
      </trkpt>
      <trkpt lat="47.44386" lon="6.79857">
        <ele>396.3</ele>
        <time>2017-10-01T07:43:27Z</time>
      </trkpt>
      <trkpt lat="47.44386" lon="6.79853">
        <ele>396.6</ele>
        <time>2017-10-01T07:43:28Z</time>
      </trkpt>
      <trkpt lat="47.44386" lon="6.79847">
        <ele>397</ele>
        <time>2017-10-01T07:43:30Z</time>
      </trkpt>
      <trkpt lat="47.44387" lon="6.79844">
        <ele>397.2</ele>
        <time>2017-10-01T07:43:31Z</time>
      </trkpt>
      <trkpt lat="47.44387" lon="6.79839">
        <ele>397.5</ele>
        <time>2017-10-01T07:43:33Z</time>
      </trkpt>
      <trkpt lat="47.44387" lon="6.79837">
        <ele>397.8</ele>
        <time>2017-10-01T07:43:34Z</time>
      </trkpt>
      <trkpt lat="47.44389" lon="6.79832">
        <ele>398.4</ele>
        <time>2017-10-01T07:43:37Z</time>
      </trkpt>
      <trkpt lat="47.4439" lon="6.79832">
        <ele>398.5</ele>
        <time>2017-10-01T07:43:38Z</time>
      </trkpt>
      <trkpt lat="47.44392" lon="6.79827">
        <ele>399.1</ele>
        <time>2017-10-01T07:43:40Z</time>
      </trkpt>
      <trkpt lat="47.44392" lon="6.79826">
        <ele>399.2</ele>
        <time>2017-10-01T07:43:41Z</time>
      </trkpt>
      <trkpt lat="47.44394" lon="6.7982">
        <ele>399.6</ele>
        <time>2017-10-01T07:43:43Z</time>
      </trkpt>
      <trkpt lat="47.44394" lon="6.79818">
        <ele>399.6</ele>
        <time>2017-10-01T07:43:44Z</time>
      </trkpt>
      <trkpt lat="47.44394" lon="6.79813">
        <ele>399.7</ele>
        <time>2017-10-01T07:43:46Z</time>
      </trkpt>
      <trkpt lat="47.44395" lon="6.79811">
        <ele>399.8</ele>
        <time>2017-10-01T07:43:47Z</time>
      </trkpt>
      <trkpt lat="47.44397" lon="6.79806">
        <ele>400</ele>
        <time>2017-10-01T07:43:49Z</time>
      </trkpt>
      <trkpt lat="47.44398" lon="6.79803">
        <ele>400.1</ele>
        <time>2017-10-01T07:43:50Z</time>
      </trkpt>
      <trkpt lat="47.44399" lon="6.79797">
        <ele>400.4</ele>
        <time>2017-10-01T07:43:53Z</time>
      </trkpt>
      <trkpt lat="47.444" lon="6.79796">
        <ele>400.4</ele>
        <time>2017-10-01T07:43:54Z</time>
      </trkpt>
      <trkpt lat="47.44399" lon="6.79791">
        <ele>400.7</ele>
        <time>2017-10-01T07:43:57Z</time>
      </trkpt>
      <trkpt lat="47.444" lon="6.79789">
        <ele>400.8</ele>
        <time>2017-10-01T07:43:58Z</time>
      </trkpt>
      <trkpt lat="47.44396" lon="6.79785">
        <ele>401</ele>
        <time>2017-10-01T07:44:01Z</time>
      </trkpt>
      <trkpt lat="47.44395" lon="6.79784">
        <ele>401.1</ele>
        <time>2017-10-01T07:44:02Z</time>
      </trkpt>
      <trkpt lat="47.44392" lon="6.79784">
        <ele>401.7</ele>
        <time>2017-10-01T07:44:05Z</time>
      </trkpt>
      <trkpt lat="47.44391" lon="6.79783">
        <ele>401.8</ele>
        <time>2017-10-01T07:44:06Z</time>
      </trkpt>
      <trkpt lat="47.44387" lon="6.79781">
        <ele>402.7</ele>
        <time>2017-10-01T07:44:10Z</time>
      </trkpt>
      <trkpt lat="47.44386" lon="6.79781">
        <ele>402.8</ele>
        <time>2017-10-01T07:44:11Z</time>
      </trkpt>
      <trkpt lat="47.44384" lon="6.79781">
        <ele>402.9</ele>
        <time>2017-10-01T07:44:13Z</time>
      </trkpt>
      <trkpt lat="47.44381" lon="6.79781">
        <ele>403.3</ele>
        <time>2017-10-01T07:44:14Z</time>
      </trkpt>
      <trkpt lat="47.44377" lon="6.79784">
        <ele>404</ele>
        <time>2017-10-01T07:44:17Z</time>
      </trkpt>
      <trkpt lat="47.44375" lon="6.79785">
        <ele>404.4</ele>
        <time>2017-10-01T07:44:18Z</time>
      </trkpt>
      <trkpt lat="47.44372" lon="6.79789">
        <ele>404.8</ele>
        <time>2017-10-01T07:44:22Z</time>
      </trkpt>
      <trkpt lat="47.44371" lon="6.7979">
        <ele>404.9</ele>
        <time>2017-10-01T07:44:23Z</time>
      </trkpt>
      <trkpt lat="47.44369" lon="6.79791">
        <ele>405.1</ele>
        <time>2017-10-01T07:44:25Z</time>
      </trkpt>
      <trkpt lat="47.44367" lon="6.79793">
        <ele>405.3</ele>
        <time>2017-10-01T07:44:26Z</time>
      </trkpt>
      <trkpt lat="47.44365" lon="6.79795">
        <ele>405.4</ele>
        <time>2017-10-01T07:44:27Z</time>
      </trkpt>
      <trkpt lat="47.44363" lon="6.79797">
        <ele>405.6</ele>
        <time>2017-10-01T07:44:28Z</time>
      </trkpt>
      <trkpt lat="47.44359" lon="6.798">
        <ele>406</ele>
        <time>2017-10-01T07:44:32Z</time>
      </trkpt>
      <trkpt lat="47.44358" lon="6.79801">
        <ele>406.2</ele>
        <time>2017-10-01T07:44:33Z</time>
      </trkpt>
      <trkpt lat="47.44355" lon="6.79802">
        <ele>406.8</ele>
        <time>2017-10-01T07:44:35Z</time>
      </trkpt>
      <trkpt lat="47.44353" lon="6.79802">
        <ele>407</ele>
        <time>2017-10-01T07:44:36Z</time>
      </trkpt>
      <trkpt lat="47.44351" lon="6.79803">
        <ele>407.3</ele>
        <time>2017-10-01T07:44:37Z</time>
      </trkpt>
      <trkpt lat="47.44348" lon="6.79804">
        <ele>407.7</ele>
        <time>2017-10-01T07:44:38Z</time>
      </trkpt>
      <trkpt lat="47.44345" lon="6.79807">
        <ele>408.3</ele>
        <time>2017-10-01T07:44:40Z</time>
      </trkpt>
      <trkpt lat="47.44344" lon="6.79808">
        <ele>408.7</ele>
        <time>2017-10-01T07:44:41Z</time>
      </trkpt>
      <trkpt lat="47.4434" lon="6.7981">
        <ele>409.1</ele>
        <time>2017-10-01T07:44:43Z</time>
      </trkpt>
      <trkpt lat="47.44339" lon="6.7981">
        <ele>409.3</ele>
        <time>2017-10-01T07:44:44Z</time>
      </trkpt>
      <trkpt lat="47.44336" lon="6.79811">
        <ele>409.7</ele>
        <time>2017-10-01T07:44:45Z</time>
      </trkpt>
      <trkpt lat="47.44335" lon="6.79813">
        <ele>410.1</ele>
        <time>2017-10-01T07:44:46Z</time>
      </trkpt>
      <trkpt lat="47.44331" lon="6.79814">
        <ele>410.9</ele>
        <time>2017-10-01T07:44:49Z</time>
      </trkpt>
      <trkpt lat="47.4433" lon="6.79815">
        <ele>411</ele>
        <time>2017-10-01T07:44:50Z</time>
      </trkpt>
      <trkpt lat="47.44327" lon="6.79817">
        <ele>411.4</ele>
        <time>2017-10-01T07:44:54Z</time>
      </trkpt>
      <trkpt lat="47.44325" lon="6.7982">
        <ele>412.1</ele>
        <time>2017-10-01T07:44:55Z</time>
      </trkpt>
      <trkpt lat="47.44322" lon="6.79824">
        <ele>412.8</ele>
        <time>2017-10-01T07:44:57Z</time>
      </trkpt>
      <trkpt lat="47.44321" lon="6.79826">
        <ele>412.9</ele>
        <time>2017-10-01T07:44:58Z</time>
      </trkpt>
      <trkpt lat="47.44318" lon="6.79829">
        <ele>413.3</ele>
        <time>2017-10-01T07:45:00Z</time>
      </trkpt>
      <trkpt lat="47.44317" lon="6.79831">
        <ele>413.5</ele>
        <time>2017-10-01T07:45:01Z</time>
      </trkpt>
      <trkpt lat="47.44315" lon="6.79836">
        <ele>414.3</ele>
        <time>2017-10-01T07:45:04Z</time>
      </trkpt>
      <trkpt lat="47.44314" lon="6.79837">
        <ele>414.6</ele>
        <time>2017-10-01T07:45:05Z</time>
      </trkpt>
      <trkpt lat="47.44312" lon="6.79842">
        <ele>415.3</ele>
        <time>2017-10-01T07:45:07Z</time>
      </trkpt>
      <trkpt lat="47.44311" lon="6.79844">
        <ele>415.4</ele>
        <time>2017-10-01T07:45:08Z</time>
      </trkpt>
      <trkpt lat="47.44309" lon="6.79847">
        <ele>415.7</ele>
        <time>2017-10-01T07:45:10Z</time>
      </trkpt>
      <trkpt lat="47.44307" lon="6.79849">
        <ele>416.1</ele>
        <time>2017-10-01T07:45:11Z</time>
      </trkpt>
      <trkpt lat="47.44306" lon="6.79853">
        <ele>416.7</ele>
        <time>2017-10-01T07:45:13Z</time>
      </trkpt>
      <trkpt lat="47.44305" lon="6.79855">
        <ele>417</ele>
        <time>2017-10-01T07:45:14Z</time>
      </trkpt>
      <trkpt lat="47.44302" lon="6.79859">
        <ele>417.6</ele>
        <time>2017-10-01T07:45:16Z</time>
      </trkpt>
      <trkpt lat="47.44301" lon="6.7986">
        <ele>417.8</ele>
        <time>2017-10-01T07:45:17Z</time>
      </trkpt>
      <trkpt lat="47.44297" lon="6.79861">
        <ele>418.6</ele>
        <time>2017-10-01T07:45:22Z</time>
      </trkpt>
      <trkpt lat="47.44296" lon="6.79861">
        <ele>418.9</ele>
        <time>2017-10-01T07:45:23Z</time>
      </trkpt>
      <trkpt lat="47.44292" lon="6.79863">
        <ele>419.5</ele>
        <time>2017-10-01T07:45:26Z</time>
      </trkpt>
      <trkpt lat="47.44291" lon="6.79863">
        <ele>419.6</ele>
        <time>2017-10-01T07:45:27Z</time>
      </trkpt>
      <trkpt lat="47.44289" lon="6.79862">
        <ele>420</ele>
        <time>2017-10-01T07:45:33Z</time>
      </trkpt>
      <trkpt lat="47.44286" lon="6.79862">
        <ele>420.4</ele>
        <time>2017-10-01T07:45:34Z</time>
      </trkpt>
      <trkpt lat="47.44284" lon="6.79862">
        <ele>420.8</ele>
        <time>2017-10-01T07:45:36Z</time>
      </trkpt>
      <trkpt lat="47.44281" lon="6.79864">
        <ele>421.4</ele>
        <time>2017-10-01T07:45:37Z</time>
      </trkpt>
      <trkpt lat="47.44276" lon="6.79865">
        <ele>422.4</ele>
        <time>2017-10-01T07:45:40Z</time>
      </trkpt>
      <trkpt lat="47.44275" lon="6.79866">
        <ele>422.6</ele>
        <time>2017-10-01T07:45:41Z</time>
      </trkpt>
      <trkpt lat="47.44271" lon="6.79867">
        <ele>423.3</ele>
        <time>2017-10-01T07:45:44Z</time>
      </trkpt>
      <trkpt lat="47.4427" lon="6.79868">
        <ele>423.4</ele>
        <time>2017-10-01T07:45:45Z</time>
      </trkpt>
      <trkpt lat="47.44266" lon="6.7987">
        <ele>423.7</ele>
        <time>2017-10-01T07:45:52Z</time>
      </trkpt>
      <trkpt lat="47.44266" lon="6.7987">
        <ele>423.9</ele>
        <time>2017-10-01T07:45:53Z</time>
      </trkpt>
      <trkpt lat="47.44265" lon="6.79871">
        <ele>424.2</ele>
        <time>2017-10-01T07:45:54Z</time>
      </trkpt>
      <trkpt lat="47.44261" lon="6.79873">
        <ele>424.9</ele>
        <time>2017-10-01T07:45:55Z</time>
      </trkpt>
      <trkpt lat="47.44258" lon="6.79874">
        <ele>425.2</ele>
        <time>2017-10-01T07:45:56Z</time>
      </trkpt>
      <trkpt lat="47.44255" lon="6.79876">
        <ele>425.8</ele>
        <time>2017-10-01T07:45:57Z</time>
      </trkpt>
      <trkpt lat="47.44251" lon="6.79879">
        <ele>426.8</ele>
        <time>2017-10-01T07:46:03Z</time>
      </trkpt>
      <trkpt lat="47.44247" lon="6.79881">
        <ele>427.2</ele>
        <time>2017-10-01T07:46:04Z</time>
      </trkpt>
      <trkpt lat="47.44245" lon="6.79887">
        <ele>427.4</ele>
        <time>2017-10-01T07:46:08Z</time>
      </trkpt>
      <trkpt lat="47.44243" lon="6.79887">
        <ele>427.5</ele>
        <time>2017-10-01T07:46:09Z</time>
      </trkpt>
      <trkpt lat="47.44241" lon="6.7989">
        <ele>428</ele>
        <time>2017-10-01T07:46:16Z</time>
      </trkpt>
      <trkpt lat="47.44239" lon="6.79892">
        <ele>428.4</ele>
        <time>2017-10-01T07:46:17Z</time>
      </trkpt>
      <trkpt lat="47.44236" lon="6.79895">
        <ele>428.9</ele>
        <time>2017-10-01T07:46:23Z</time>
      </trkpt>
      <trkpt lat="47.44234" lon="6.79896">
        <ele>429</ele>
        <time>2017-10-01T07:46:24Z</time>
      </trkpt>
      <trkpt lat="47.44233" lon="6.79896">
        <ele>429.1</ele>
        <time>2017-10-01T07:46:25Z</time>
      </trkpt>
      <trkpt lat="47.44229" lon="6.79897">
        <ele>429.6</ele>
        <time>2017-10-01T07:46:26Z</time>
      </trkpt>
      <trkpt lat="47.44225" lon="6.799">
        <ele>430</ele>
        <time>2017-10-01T07:46:27Z</time>
      </trkpt>
      <trkpt lat="47.44224" lon="6.799">
        <ele>430.3</ele>
        <time>2017-10-01T07:46:28Z</time>
      </trkpt>
      <trkpt lat="47.4422" lon="6.79902">
        <ele>430.9</ele>
        <time>2017-10-01T07:46:30Z</time>
      </trkpt>
      <trkpt lat="47.44218" lon="6.79902">
        <ele>431.2</ele>
        <time>2017-10-01T07:46:31Z</time>
      </trkpt>
      <trkpt lat="47.44214" lon="6.79905">
        <ele>431.8</ele>
        <time>2017-10-01T07:46:33Z</time>
      </trkpt>
      <trkpt lat="47.44211" lon="6.79907">
        <ele>432.1</ele>
        <time>2017-10-01T07:46:34Z</time>
      </trkpt>
      <trkpt lat="47.44209" lon="6.79911">
        <ele>432.8</ele>
        <time>2017-10-01T07:46:36Z</time>
      </trkpt>
      <trkpt lat="47.44208" lon="6.79913">
        <ele>433.1</ele>
        <time>2017-10-01T07:46:37Z</time>
      </trkpt>
      <trkpt lat="47.44205" lon="6.79917">
        <ele>433.6</ele>
        <time>2017-10-01T07:46:41Z</time>
      </trkpt>
      <trkpt lat="47.44204" lon="6.79918">
        <ele>433.7</ele>
        <time>2017-10-01T07:46:42Z</time>
      </trkpt>
      <trkpt lat="47.44201" lon="6.79921">
        <ele>434.2</ele>
        <time>2017-10-01T07:46:45Z</time>
      </trkpt>
      <trkpt lat="47.442" lon="6.79922">
        <ele>434.4</ele>
        <time>2017-10-01T07:46:46Z</time>
      </trkpt>
      <trkpt lat="47.44196" lon="6.79924">
        <ele>434.9</ele>
        <time>2017-10-01T07:46:50Z</time>
      </trkpt>
      <trkpt lat="47.44195" lon="6.79924">
        <ele>435</ele>
        <time>2017-10-01T07:46:51Z</time>
      </trkpt>
      <trkpt lat="47.44192" lon="6.7992">
        <ele>435.3</ele>
        <time>2017-10-01T07:47:01Z</time>
      </trkpt>
      <trkpt lat="47.44191" lon="6.79917">
        <ele>435.5</ele>
        <time>2017-10-01T07:47:02Z</time>
      </trkpt>
      <trkpt lat="47.44192" lon="6.79912">
        <ele>435.8</ele>
        <time>2017-10-01T07:47:05Z</time>
      </trkpt>
      <trkpt lat="47.44192" lon="6.79911">
        <ele>435.9</ele>
        <time>2017-10-01T07:47:06Z</time>
      </trkpt>
      <trkpt lat="47.44193" lon="6.79906">
        <ele>436.5</ele>
        <time>2017-10-01T07:47:08Z</time>
      </trkpt>
      <trkpt lat="47.44195" lon="6.79902">
        <ele>436.7</ele>
        <time>2017-10-01T07:47:09Z</time>
      </trkpt>
      <trkpt lat="47.44197" lon="6.79897">
        <ele>436.8</ele>
        <time>2017-10-01T07:47:12Z</time>
      </trkpt>
      <trkpt lat="47.44197" lon="6.79896">
        <ele>436.8</ele>
        <time>2017-10-01T07:47:13Z</time>
      </trkpt>
      <trkpt lat="47.44198" lon="6.7989">
        <ele>436.9</ele>
        <time>2017-10-01T07:47:16Z</time>
      </trkpt>
      <trkpt lat="47.44199" lon="6.79887">
        <ele>437</ele>
        <time>2017-10-01T07:47:17Z</time>
      </trkpt>
      <trkpt lat="47.44199" lon="6.7988">
        <ele>437.2</ele>
        <time>2017-10-01T07:47:21Z</time>
      </trkpt>
      <trkpt lat="47.44199" lon="6.7988">
        <ele>437.2</ele>
        <time>2017-10-01T07:47:22Z</time>
      </trkpt>
      <trkpt lat="47.44199" lon="6.79875">
        <ele>437.4</ele>
        <time>2017-10-01T07:47:24Z</time>
      </trkpt>
      <trkpt lat="47.44199" lon="6.79871">
        <ele>437.5</ele>
        <time>2017-10-01T07:47:25Z</time>
      </trkpt>
      <trkpt lat="47.44199" lon="6.79867">
        <ele>437.7</ele>
        <time>2017-10-01T07:47:26Z</time>
      </trkpt>
      <trkpt lat="47.442" lon="6.79864">
        <ele>438</ele>
        <time>2017-10-01T07:47:27Z</time>
      </trkpt>
      <trkpt lat="47.44201" lon="6.79859">
        <ele>438.4</ele>
        <time>2017-10-01T07:47:29Z</time>
      </trkpt>
      <trkpt lat="47.44201" lon="6.79857">
        <ele>438.5</ele>
        <time>2017-10-01T07:47:30Z</time>
      </trkpt>
      <trkpt lat="47.44202" lon="6.79851">
        <ele>438.8</ele>
        <time>2017-10-01T07:47:33Z</time>
      </trkpt>
      <trkpt lat="47.44201" lon="6.79849">
        <ele>439</ele>
        <time>2017-10-01T07:47:34Z</time>
      </trkpt>
      <trkpt lat="47.442" lon="6.79843">
        <ele>439.3</ele>
        <time>2017-10-01T07:47:36Z</time>
      </trkpt>
      <trkpt lat="47.442" lon="6.79841">
        <ele>439.4</ele>
        <time>2017-10-01T07:47:37Z</time>
      </trkpt>
      <trkpt lat="47.442" lon="6.79837">
        <ele>439.7</ele>
        <time>2017-10-01T07:47:39Z</time>
      </trkpt>
      <trkpt lat="47.44199" lon="6.79834">
        <ele>439.9</ele>
        <time>2017-10-01T07:47:40Z</time>
      </trkpt>
      <trkpt lat="47.44198" lon="6.7983">
        <ele>440.4</ele>
        <time>2017-10-01T07:47:42Z</time>
      </trkpt>
      <trkpt lat="47.44198" lon="6.79826">
        <ele>440.5</ele>
        <time>2017-10-01T07:47:43Z</time>
      </trkpt>
      <trkpt lat="47.44198" lon="6.7982">
        <ele>440.7</ele>
        <time>2017-10-01T07:47:45Z</time>
      </trkpt>
      <trkpt lat="47.44197" lon="6.79818">
        <ele>440.8</ele>
        <time>2017-10-01T07:47:46Z</time>
      </trkpt>
      <trkpt lat="47.44197" lon="6.79813">
        <ele>441.1</ele>
        <time>2017-10-01T07:47:48Z</time>
      </trkpt>
      <trkpt lat="47.44197" lon="6.7981">
        <ele>441.3</ele>
        <time>2017-10-01T07:47:49Z</time>
      </trkpt>
      <trkpt lat="47.44197" lon="6.79804">
        <ele>441.8</ele>
        <time>2017-10-01T07:47:52Z</time>
      </trkpt>
      <trkpt lat="47.44197" lon="6.79801">
        <ele>442.1</ele>
        <time>2017-10-01T07:47:53Z</time>
      </trkpt>
      <trkpt lat="47.44196" lon="6.79797">
        <ele>442.4</ele>
        <time>2017-10-01T07:47:54Z</time>
      </trkpt>
      <trkpt lat="47.44197" lon="6.79794">
        <ele>442.5</ele>
        <time>2017-10-01T07:47:55Z</time>
      </trkpt>
      <trkpt lat="47.44198" lon="6.79789">
        <ele>442.7</ele>
        <time>2017-10-01T07:47:57Z</time>
      </trkpt>
      <trkpt lat="47.44198" lon="6.79786">
        <ele>442.8</ele>
        <time>2017-10-01T07:47:58Z</time>
      </trkpt>
      <trkpt lat="47.44197" lon="6.79781">
        <ele>443</ele>
        <time>2017-10-01T07:48:00Z</time>
      </trkpt>
      <trkpt lat="47.44197" lon="6.79778">
        <ele>443.1</ele>
        <time>2017-10-01T07:48:01Z</time>
      </trkpt>
      <trkpt lat="47.44197" lon="6.79774">
        <ele>443.4</ele>
        <time>2017-10-01T07:48:02Z</time>
      </trkpt>
      <trkpt lat="47.44198" lon="6.79771">
        <ele>443.6</ele>
        <time>2017-10-01T07:48:03Z</time>
      </trkpt>
      <trkpt lat="47.44199" lon="6.79767">
        <ele>443.9</ele>
        <time>2017-10-01T07:48:04Z</time>
      </trkpt>
      <trkpt lat="47.442" lon="6.79763">
        <ele>444.2</ele>
        <time>2017-10-01T07:48:05Z</time>
      </trkpt>
      <trkpt lat="47.442" lon="6.7976">
        <ele>444.2</ele>
        <time>2017-10-01T07:48:06Z</time>
      </trkpt>
      <trkpt lat="47.44202" lon="6.79756">
        <ele>444.3</ele>
        <time>2017-10-01T07:48:07Z</time>
      </trkpt>
      <trkpt lat="47.44201" lon="6.79752">
        <ele>444.4</ele>
        <time>2017-10-01T07:48:08Z</time>
      </trkpt>
      <trkpt lat="47.442" lon="6.79749">
        <ele>444.2</ele>
        <time>2017-10-01T07:48:09Z</time>
      </trkpt>
      <trkpt lat="47.442" lon="6.79746">
        <ele>444.2</ele>
        <time>2017-10-01T07:48:10Z</time>
      </trkpt>
      <trkpt lat="47.442" lon="6.79742">
        <ele>444.1</ele>
        <time>2017-10-01T07:48:11Z</time>
      </trkpt>
      <trkpt lat="47.442" lon="6.79739">
        <ele>444.1</ele>
        <time>2017-10-01T07:48:12Z</time>
      </trkpt>
      <trkpt lat="47.44201" lon="6.79735">
        <ele>444.1</ele>
        <time>2017-10-01T07:48:13Z</time>
      </trkpt>
      <trkpt lat="47.44201" lon="6.79731">
        <ele>444</ele>
        <time>2017-10-01T07:48:14Z</time>
      </trkpt>
      <trkpt lat="47.44201" lon="6.79726">
        <ele>444</ele>
        <time>2017-10-01T07:48:15Z</time>
      </trkpt>
      <trkpt lat="47.44201" lon="6.79721">
        <ele>443.9</ele>
        <time>2017-10-01T07:48:16Z</time>
      </trkpt>
      <trkpt lat="47.44202" lon="6.79718">
        <ele>443.8</ele>
        <time>2017-10-01T07:48:17Z</time>
      </trkpt>
      <trkpt lat="47.44202" lon="6.79714">
        <ele>443.8</ele>
        <time>2017-10-01T07:48:18Z</time>
      </trkpt>
      <trkpt lat="47.44203" lon="6.7971">
        <ele>443.3</ele>
        <time>2017-10-01T07:48:19Z</time>
      </trkpt>
      <trkpt lat="47.44203" lon="6.79706">
        <ele>443.2</ele>
        <time>2017-10-01T07:48:20Z</time>
      </trkpt>
      <trkpt lat="47.44203" lon="6.79702">
        <ele>443.2</ele>
        <time>2017-10-01T07:48:21Z</time>
      </trkpt>
      <trkpt lat="47.44201" lon="6.79696">
        <ele>443.6</ele>
        <time>2017-10-01T07:48:22Z</time>
      </trkpt>
      <trkpt lat="47.442" lon="6.79692">
        <ele>443.5</ele>
        <time>2017-10-01T07:48:23Z</time>
      </trkpt>
      <trkpt lat="47.44201" lon="6.79688">
        <ele>443.4</ele>
        <time>2017-10-01T07:48:24Z</time>
      </trkpt>
      <trkpt lat="47.44201" lon="6.79684">
        <ele>443.3</ele>
        <time>2017-10-01T07:48:25Z</time>
      </trkpt>
      <trkpt lat="47.442" lon="6.7968">
        <ele>443.2</ele>
        <time>2017-10-01T07:48:26Z</time>
      </trkpt>
      <trkpt lat="47.44199" lon="6.79677">
        <ele>443.6</ele>
        <time>2017-10-01T07:48:27Z</time>
      </trkpt>
      <trkpt lat="47.44198" lon="6.79672">
        <ele>443.5</ele>
        <time>2017-10-01T07:48:29Z</time>
      </trkpt>
      <trkpt lat="47.44197" lon="6.79669">
        <ele>443.4</ele>
        <time>2017-10-01T07:48:30Z</time>
      </trkpt>
      <trkpt lat="47.44195" lon="6.79666">
        <ele>443.9</ele>
        <time>2017-10-01T07:48:31Z</time>
      </trkpt>
      <trkpt lat="47.44191" lon="6.79662">
        <ele>444.5</ele>
        <time>2017-10-01T07:48:32Z</time>
      </trkpt>
      <trkpt lat="47.44187" lon="6.7966">
        <ele>445.5</ele>
        <time>2017-10-01T07:48:33Z</time>
      </trkpt>
      <trkpt lat="47.44183" lon="6.79658">
        <ele>446</ele>
        <time>2017-10-01T07:48:34Z</time>
      </trkpt>
      <trkpt lat="47.44181" lon="6.79657">
        <ele>446.3</ele>
        <time>2017-10-01T07:48:35Z</time>
      </trkpt>
      <trkpt lat="47.44176" lon="6.79656">
        <ele>446.7</ele>
        <time>2017-10-01T07:48:37Z</time>
      </trkpt>
      <trkpt lat="47.44174" lon="6.79657">
        <ele>446.9</ele>
        <time>2017-10-01T07:48:38Z</time>
      </trkpt>
      <trkpt lat="47.4417" lon="6.79657">
        <ele>447.1</ele>
        <time>2017-10-01T07:48:40Z</time>
      </trkpt>
      <trkpt lat="47.44169" lon="6.79656">
        <ele>447.2</ele>
        <time>2017-10-01T07:48:41Z</time>
      </trkpt>
      <trkpt lat="47.44166" lon="6.79654">
        <ele>447.6</ele>
        <time>2017-10-01T07:48:43Z</time>
      </trkpt>
      <trkpt lat="47.44165" lon="6.79652">
        <ele>447.8</ele>
        <time>2017-10-01T07:48:44Z</time>
      </trkpt>
      <trkpt lat="47.44162" lon="6.79649">
        <ele>448.1</ele>
        <time>2017-10-01T07:48:46Z</time>
      </trkpt>
      <trkpt lat="47.4416" lon="6.79648">
        <ele>448.2</ele>
        <time>2017-10-01T07:48:47Z</time>
      </trkpt>
      <trkpt lat="47.44157" lon="6.79645">
        <ele>448.4</ele>
        <time>2017-10-01T07:48:49Z</time>
      </trkpt>
      <trkpt lat="47.44156" lon="6.79643">
        <ele>448.5</ele>
        <time>2017-10-01T07:48:50Z</time>
      </trkpt>
      <trkpt lat="47.44154" lon="6.79641">
        <ele>448.6</ele>
        <time>2017-10-01T07:48:52Z</time>
      </trkpt>
      <trkpt lat="47.44152" lon="6.7964">
        <ele>448.7</ele>
        <time>2017-10-01T07:48:53Z</time>
      </trkpt>
      <trkpt lat="47.4415" lon="6.79637">
        <ele>448.8</ele>
        <time>2017-10-01T07:48:55Z</time>
      </trkpt>
      <trkpt lat="47.44148" lon="6.79636">
        <ele>448.9</ele>
        <time>2017-10-01T07:48:56Z</time>
      </trkpt>
      <trkpt lat="47.44146" lon="6.79633">
        <ele>449</ele>
        <time>2017-10-01T07:48:58Z</time>
      </trkpt>
      <trkpt lat="47.44144" lon="6.79632">
        <ele>449.1</ele>
        <time>2017-10-01T07:48:59Z</time>
      </trkpt>
      <trkpt lat="47.44142" lon="6.79631">
        <ele>449.2</ele>
        <time>2017-10-01T07:49:00Z</time>
      </trkpt>
      <trkpt lat="47.4414" lon="6.79629">
        <ele>449.4</ele>
        <time>2017-10-01T07:49:01Z</time>
      </trkpt>
      <trkpt lat="47.44136" lon="6.79627">
        <ele>449.8</ele>
        <time>2017-10-01T07:49:03Z</time>
      </trkpt>
      <trkpt lat="47.44135" lon="6.79626">
        <ele>450</ele>
        <time>2017-10-01T07:49:04Z</time>
      </trkpt>
      <trkpt lat="47.44133" lon="6.79625">
        <ele>450.2</ele>
        <time>2017-10-01T07:49:05Z</time>
      </trkpt>
      <trkpt lat="47.44129" lon="6.79621">
        <ele>450.5</ele>
        <time>2017-10-01T07:49:06Z</time>
      </trkpt>
      <trkpt lat="47.44125" lon="6.7962">
        <ele>450.7</ele>
        <time>2017-10-01T07:49:08Z</time>
      </trkpt>
      <trkpt lat="47.44123" lon="6.7962">
        <ele>450.7</ele>
        <time>2017-10-01T07:49:09Z</time>
      </trkpt>
      <trkpt lat="47.44119" lon="6.79617">
        <ele>450.9</ele>
        <time>2017-10-01T07:49:11Z</time>
      </trkpt>
      <trkpt lat="47.44117" lon="6.79616">
        <ele>451</ele>
        <time>2017-10-01T07:49:12Z</time>
      </trkpt>
      <trkpt lat="47.44113" lon="6.79614">
        <ele>451.2</ele>
        <time>2017-10-01T07:49:14Z</time>
      </trkpt>
      <trkpt lat="47.44111" lon="6.79612">
        <ele>451.4</ele>
        <time>2017-10-01T07:49:15Z</time>
      </trkpt>
      <trkpt lat="47.44107" lon="6.79611">
        <ele>452</ele>
        <time>2017-10-01T07:49:17Z</time>
      </trkpt>
      <trkpt lat="47.44106" lon="6.7961">
        <ele>452</ele>
        <time>2017-10-01T07:49:18Z</time>
      </trkpt>
      <trkpt lat="47.44102" lon="6.7961">
        <ele>452.2</ele>
        <time>2017-10-01T07:49:21Z</time>
      </trkpt>
      <trkpt lat="47.441" lon="6.7961">
        <ele>452.2</ele>
        <time>2017-10-01T07:49:22Z</time>
      </trkpt>
      <trkpt lat="47.44097" lon="6.7961">
        <ele>452.3</ele>
        <time>2017-10-01T07:49:23Z</time>
      </trkpt>
      <trkpt lat="47.44095" lon="6.79609">
        <ele>452.4</ele>
        <time>2017-10-01T07:49:24Z</time>
      </trkpt>
      <trkpt lat="47.44092" lon="6.79609">
        <ele>452.4</ele>
        <time>2017-10-01T07:49:25Z</time>
      </trkpt>
      <trkpt lat="47.44089" lon="6.79608">
        <ele>452.5</ele>
        <time>2017-10-01T07:49:26Z</time>
      </trkpt>
      <trkpt lat="47.44088" lon="6.79607">
        <ele>452.6</ele>
        <time>2017-10-01T07:49:27Z</time>
      </trkpt>
      <trkpt lat="47.44085" lon="6.79606">
        <ele>452.7</ele>
        <time>2017-10-01T07:49:28Z</time>
      </trkpt>
      <trkpt lat="47.4408" lon="6.79603">
        <ele>452.9</ele>
        <time>2017-10-01T07:49:29Z</time>
      </trkpt>
      <trkpt lat="47.44076" lon="6.79599">
        <ele>453.3</ele>
        <time>2017-10-01T07:49:30Z</time>
      </trkpt>
      <trkpt lat="47.44074" lon="6.79597">
        <ele>453.6</ele>
        <time>2017-10-01T07:49:31Z</time>
      </trkpt>
      <trkpt lat="47.44071" lon="6.79595">
        <ele>453.9</ele>
        <time>2017-10-01T07:49:32Z</time>
      </trkpt>
      <trkpt lat="47.44069" lon="6.79592">
        <ele>454.1</ele>
        <time>2017-10-01T07:49:33Z</time>
      </trkpt>
      <trkpt lat="47.44066" lon="6.79589">
        <ele>454.3</ele>
        <time>2017-10-01T07:49:34Z</time>
      </trkpt>
      <trkpt lat="47.44064" lon="6.79587">
        <ele>454.4</ele>
        <time>2017-10-01T07:49:35Z</time>
      </trkpt>
      <trkpt lat="47.44062" lon="6.79586">
        <ele>454.5</ele>
        <time>2017-10-01T07:49:36Z</time>
      </trkpt>
      <trkpt lat="47.44058" lon="6.79583">
        <ele>454.7</ele>
        <time>2017-10-01T07:49:38Z</time>
      </trkpt>
      <trkpt lat="47.44056" lon="6.79582">
        <ele>454.8</ele>
        <time>2017-10-01T07:49:39Z</time>
      </trkpt>
      <trkpt lat="47.44053" lon="6.79581">
        <ele>455.1</ele>
        <time>2017-10-01T07:49:41Z</time>
      </trkpt>
      <trkpt lat="47.44051" lon="6.7958">
        <ele>455.2</ele>
        <time>2017-10-01T07:49:42Z</time>
      </trkpt>
      <trkpt lat="47.44048" lon="6.79579">
        <ele>455.4</ele>
        <time>2017-10-01T07:49:44Z</time>
      </trkpt>
      <trkpt lat="47.44046" lon="6.79578">
        <ele>455.5</ele>
        <time>2017-10-01T07:49:45Z</time>
      </trkpt>
      <trkpt lat="47.44042" lon="6.79576">
        <ele>456</ele>
        <time>2017-10-01T07:49:47Z</time>
      </trkpt>
      <trkpt lat="47.44039" lon="6.79575">
        <ele>456.3</ele>
        <time>2017-10-01T07:49:48Z</time>
      </trkpt>
      <trkpt lat="47.44036" lon="6.79575">
        <ele>456.6</ele>
        <time>2017-10-01T07:49:49Z</time>
      </trkpt>
      <trkpt lat="47.44034" lon="6.79575">
        <ele>456.8</ele>
        <time>2017-10-01T07:49:50Z</time>
      </trkpt>
      <trkpt lat="47.4403" lon="6.79574">
        <ele>457</ele>
        <time>2017-10-01T07:49:52Z</time>
      </trkpt>
      <trkpt lat="47.44028" lon="6.79574">
        <ele>457.1</ele>
        <time>2017-10-01T07:49:53Z</time>
      </trkpt>
      <trkpt lat="47.44025" lon="6.79573">
        <ele>457.3</ele>
        <time>2017-10-01T07:49:55Z</time>
      </trkpt>
      <trkpt lat="47.44023" lon="6.79572">
        <ele>457.4</ele>
        <time>2017-10-01T07:49:56Z</time>
      </trkpt>
      <trkpt lat="47.44019" lon="6.7957">
        <ele>457.8</ele>
        <time>2017-10-01T07:49:58Z</time>
      </trkpt>
      <trkpt lat="47.44017" lon="6.79569">
        <ele>458.1</ele>
        <time>2017-10-01T07:49:59Z</time>
      </trkpt>
      <trkpt lat="47.44012" lon="6.79568">
        <ele>458.7</ele>
        <time>2017-10-01T07:50:01Z</time>
      </trkpt>
      <trkpt lat="47.44011" lon="6.79567">
        <ele>458.9</ele>
        <time>2017-10-01T07:50:02Z</time>
      </trkpt>
      <trkpt lat="47.44007" lon="6.79567">
        <ele>459.3</ele>
        <time>2017-10-01T07:50:04Z</time>
      </trkpt>
      <trkpt lat="47.44005" lon="6.79567">
        <ele>459.4</ele>
        <time>2017-10-01T07:50:05Z</time>
      </trkpt>
      <trkpt lat="47.44002" lon="6.79566">
        <ele>459.7</ele>
        <time>2017-10-01T07:50:07Z</time>
      </trkpt>
      <trkpt lat="47.44" lon="6.79566">
        <ele>459.8</ele>
        <time>2017-10-01T07:50:08Z</time>
      </trkpt>
      <trkpt lat="47.43995" lon="6.79567">
        <ele>460</ele>
        <time>2017-10-01T07:50:10Z</time>
      </trkpt>
      <trkpt lat="47.43993" lon="6.79567">
        <ele>460.1</ele>
        <time>2017-10-01T07:50:11Z</time>
      </trkpt>
      <trkpt lat="47.43989" lon="6.79567">
        <ele>460.4</ele>
        <time>2017-10-01T07:50:13Z</time>
      </trkpt>
      <trkpt lat="47.43987" lon="6.79566">
        <ele>460.7</ele>
        <time>2017-10-01T07:50:14Z</time>
      </trkpt>
      <trkpt lat="47.43984" lon="6.79569">
        <ele>461.1</ele>
        <time>2017-10-01T07:50:16Z</time>
      </trkpt>
      <trkpt lat="47.43982" lon="6.79571">
        <ele>461.3</ele>
        <time>2017-10-01T07:50:17Z</time>
      </trkpt>
      <trkpt lat="47.43979" lon="6.79574">
        <ele>461.5</ele>
        <time>2017-10-01T07:50:19Z</time>
      </trkpt>
      <trkpt lat="47.43977" lon="6.79575">
        <ele>461.6</ele>
        <time>2017-10-01T07:50:20Z</time>
      </trkpt>
      <trkpt lat="47.43974" lon="6.79577">
        <ele>461.7</ele>
        <time>2017-10-01T07:50:23Z</time>
      </trkpt>
      <trkpt lat="47.43973" lon="6.79578">
        <ele>461.8</ele>
        <time>2017-10-01T07:50:24Z</time>
      </trkpt>
      <trkpt lat="47.43972" lon="6.79578">
        <ele>461.8</ele>
        <time>2017-10-01T07:50:25Z</time>
      </trkpt>
      <trkpt lat="47.43969" lon="6.7958">
        <ele>462</ele>
        <time>2017-10-01T07:50:26Z</time>
      </trkpt>
      <trkpt lat="47.43965" lon="6.79581">
        <ele>462.2</ele>
        <time>2017-10-01T07:50:28Z</time>
      </trkpt>
      <trkpt lat="47.43963" lon="6.79582">
        <ele>462.3</ele>
        <time>2017-10-01T07:50:29Z</time>
      </trkpt>
      <trkpt lat="47.4396" lon="6.79581">
        <ele>462.5</ele>
        <time>2017-10-01T07:50:31Z</time>
      </trkpt>
      <trkpt lat="47.43958" lon="6.79581">
        <ele>462.7</ele>
        <time>2017-10-01T07:50:32Z</time>
      </trkpt>
      <trkpt lat="47.43954" lon="6.79578">
        <ele>463.4</ele>
        <time>2017-10-01T07:50:34Z</time>
      </trkpt>
      <trkpt lat="47.43952" lon="6.79577">
        <ele>463.7</ele>
        <time>2017-10-01T07:50:35Z</time>
      </trkpt>
      <trkpt lat="47.43949" lon="6.79576">
        <ele>463.9</ele>
        <time>2017-10-01T07:50:36Z</time>
      </trkpt>
      <trkpt lat="47.43946" lon="6.79574">
        <ele>464.2</ele>
        <time>2017-10-01T07:50:37Z</time>
      </trkpt>
      <trkpt lat="47.43944" lon="6.79573">
        <ele>464.3</ele>
        <time>2017-10-01T07:50:38Z</time>
      </trkpt>
      <trkpt lat="47.43941" lon="6.79573">
        <ele>464.7</ele>
        <time>2017-10-01T07:50:39Z</time>
      </trkpt>
      <trkpt lat="47.43936" lon="6.79573">
        <ele>465.4</ele>
        <time>2017-10-01T07:50:43Z</time>
      </trkpt>
      <trkpt lat="47.43934" lon="6.79571">
        <ele>465.6</ele>
        <time>2017-10-01T07:50:44Z</time>
      </trkpt>
      <trkpt lat="47.43932" lon="6.7957">
        <ele>465.8</ele>
        <time>2017-10-01T07:50:45Z</time>
      </trkpt>
      <trkpt lat="47.43928" lon="6.79567">
        <ele>466.1</ele>
        <time>2017-10-01T07:50:46Z</time>
      </trkpt>
      <trkpt lat="47.43927" lon="6.79567">
        <ele>466.2</ele>
        <time>2017-10-01T07:50:47Z</time>
      </trkpt>
      <trkpt lat="47.43923" lon="6.79566">
        <ele>466.6</ele>
        <time>2017-10-01T07:50:48Z</time>
      </trkpt>
      <trkpt lat="47.43918" lon="6.79564">
        <ele>467</ele>
        <time>2017-10-01T07:50:49Z</time>
      </trkpt>
      <trkpt lat="47.43914" lon="6.79563">
        <ele>467.2</ele>
        <time>2017-10-01T07:50:51Z</time>
      </trkpt>
      <trkpt lat="47.43912" lon="6.79563">
        <ele>467.3</ele>
        <time>2017-10-01T07:50:52Z</time>
      </trkpt>
      <trkpt lat="47.43908" lon="6.79561">
        <ele>467.7</ele>
        <time>2017-10-01T07:50:53Z</time>
      </trkpt>
      <trkpt lat="47.43906" lon="6.79561">
        <ele>467.9</ele>
        <time>2017-10-01T07:50:54Z</time>
      </trkpt>
      <trkpt lat="47.43902" lon="6.79561">
        <ele>468.1</ele>
        <time>2017-10-01T07:50:56Z</time>
      </trkpt>
      <trkpt lat="47.43896" lon="6.7956">
        <ele>468.3</ele>
        <time>2017-10-01T07:50:57Z</time>
      </trkpt>
      <trkpt lat="47.43893" lon="6.79558">
        <ele>468.3</ele>
        <time>2017-10-01T07:50:58Z</time>
      </trkpt>
      <trkpt lat="47.43891" lon="6.79556">
        <ele>468.3</ele>
        <time>2017-10-01T07:50:59Z</time>
      </trkpt>
      <trkpt lat="47.43889" lon="6.79555">
        <ele>468.4</ele>
        <time>2017-10-01T07:51:00Z</time>
      </trkpt>
      <trkpt lat="47.43886" lon="6.79554">
        <ele>468.4</ele>
        <time>2017-10-01T07:51:01Z</time>
      </trkpt>
      <trkpt lat="47.43882" lon="6.79553">
        <ele>468.4</ele>
        <time>2017-10-01T07:51:02Z</time>
      </trkpt>
      <trkpt lat="47.4388" lon="6.79552">
        <ele>468.4</ele>
        <time>2017-10-01T07:51:03Z</time>
      </trkpt>
      <trkpt lat="47.43877" lon="6.79551">
        <ele>468.4</ele>
        <time>2017-10-01T07:51:04Z</time>
      </trkpt>
      <trkpt lat="47.43875" lon="6.7955">
        <ele>468.4</ele>
        <time>2017-10-01T07:51:05Z</time>
      </trkpt>
      <trkpt lat="47.43873" lon="6.79548">
        <ele>468.4</ele>
        <time>2017-10-01T07:51:06Z</time>
      </trkpt>
      <trkpt lat="47.43871" lon="6.79546">
        <ele>468.3</ele>
        <time>2017-10-01T07:51:07Z</time>
      </trkpt>
      <trkpt lat="47.43868" lon="6.79544">
        <ele>468.2</ele>
        <time>2017-10-01T07:51:08Z</time>
      </trkpt>
      <trkpt lat="47.43865" lon="6.79543">
        <ele>468.2</ele>
        <time>2017-10-01T07:51:09Z</time>
      </trkpt>
      <trkpt lat="47.43863" lon="6.79542">
        <ele>468.1</ele>
        <time>2017-10-01T07:51:10Z</time>
      </trkpt>
      <trkpt lat="47.4386" lon="6.79541">
        <ele>468.1</ele>
        <time>2017-10-01T07:51:11Z</time>
      </trkpt>
      <trkpt lat="47.43857" lon="6.79541">
        <ele>468</ele>
        <time>2017-10-01T07:51:12Z</time>
      </trkpt>
      <trkpt lat="47.43855" lon="6.79541">
        <ele>468</ele>
        <time>2017-10-01T07:51:13Z</time>
      </trkpt>
      <trkpt lat="47.43851" lon="6.79541">
        <ele>468</ele>
        <time>2017-10-01T07:51:15Z</time>
      </trkpt>
      <trkpt lat="47.43849" lon="6.79541">
        <ele>468.1</ele>
        <time>2017-10-01T07:51:16Z</time>
      </trkpt>
      <trkpt lat="47.43845" lon="6.79543">
        <ele>468.2</ele>
        <time>2017-10-01T07:51:18Z</time>
      </trkpt>
      <trkpt lat="47.43842" lon="6.79543">
        <ele>468.2</ele>
        <time>2017-10-01T07:51:19Z</time>
      </trkpt>
      <trkpt lat="47.43839" lon="6.79542">
        <ele>468.4</ele>
        <time>2017-10-01T07:51:21Z</time>
      </trkpt>
      <trkpt lat="47.43837" lon="6.79542">
        <ele>468.5</ele>
        <time>2017-10-01T07:51:22Z</time>
      </trkpt>
      <trkpt lat="47.43833" lon="6.79541">
        <ele>468.7</ele>
        <time>2017-10-01T07:51:24Z</time>
      </trkpt>
      <trkpt lat="47.43831" lon="6.79541">
        <ele>468.8</ele>
        <time>2017-10-01T07:51:25Z</time>
      </trkpt>
      <trkpt lat="47.43827" lon="6.79539">
        <ele>469.1</ele>
        <time>2017-10-01T07:51:27Z</time>
      </trkpt>
      <trkpt lat="47.43824" lon="6.79539">
        <ele>469.3</ele>
        <time>2017-10-01T07:51:28Z</time>
      </trkpt>
      <trkpt lat="47.4382" lon="6.79541">
        <ele>469.5</ele>
        <time>2017-10-01T07:51:30Z</time>
      </trkpt>
      <trkpt lat="47.43818" lon="6.79543">
        <ele>469.7</ele>
        <time>2017-10-01T07:51:31Z</time>
      </trkpt>
      <trkpt lat="47.43816" lon="6.79545">
        <ele>469.9</ele>
        <time>2017-10-01T07:51:32Z</time>
      </trkpt>
      <trkpt lat="47.43814" lon="6.79548">
        <ele>470.1</ele>
        <time>2017-10-01T07:51:33Z</time>
      </trkpt>
      <trkpt lat="47.43811" lon="6.79551">
        <ele>470.2</ele>
        <time>2017-10-01T07:51:35Z</time>
      </trkpt>
      <trkpt lat="47.4381" lon="6.79553">
        <ele>470.3</ele>
        <time>2017-10-01T07:51:36Z</time>
      </trkpt>
      <trkpt lat="47.43806" lon="6.79553">
        <ele>470.5</ele>
        <time>2017-10-01T07:51:40Z</time>
      </trkpt>
      <trkpt lat="47.43805" lon="6.79551">
        <ele>470.1</ele>
        <time>2017-10-01T07:51:41Z</time>
      </trkpt>
      <trkpt lat="47.43803" lon="6.79545">
        <ele>470.2</ele>
        <time>2017-10-01T07:51:44Z</time>
      </trkpt>
      <trkpt lat="47.43803" lon="6.79542">
        <ele>469.6</ele>
        <time>2017-10-01T07:51:45Z</time>
      </trkpt>
      <trkpt lat="47.43804" lon="6.79537">
        <ele>468.7</ele>
        <time>2017-10-01T07:51:47Z</time>
      </trkpt>
      <trkpt lat="47.43804" lon="6.79533">
        <ele>468.2</ele>
        <time>2017-10-01T07:51:48Z</time>
      </trkpt>
      <trkpt lat="47.43805" lon="6.79527">
        <ele>467.3</ele>
        <time>2017-10-01T07:51:50Z</time>
      </trkpt>
      <trkpt lat="47.43804" lon="6.79524">
        <ele>466.8</ele>
        <time>2017-10-01T07:51:51Z</time>
      </trkpt>
      <trkpt lat="47.43805" lon="6.79519">
        <ele>466.1</ele>
        <time>2017-10-01T07:51:53Z</time>
      </trkpt>
      <trkpt lat="47.43805" lon="6.79516">
        <ele>465.6</ele>
        <time>2017-10-01T07:51:54Z</time>
      </trkpt>
      <trkpt lat="47.43803" lon="6.7951">
        <ele>464.8</ele>
        <time>2017-10-01T07:51:56Z</time>
      </trkpt>
      <trkpt lat="47.43803" lon="6.79506">
        <ele>464.3</ele>
        <time>2017-10-01T07:51:57Z</time>
      </trkpt>
      <trkpt lat="47.43804" lon="6.79503">
        <ele>463.9</ele>
        <time>2017-10-01T07:51:58Z</time>
      </trkpt>
      <trkpt lat="47.43804" lon="6.79499">
        <ele>463.4</ele>
        <time>2017-10-01T07:51:59Z</time>
      </trkpt>
      <trkpt lat="47.43803" lon="6.79493">
        <ele>462.5</ele>
        <time>2017-10-01T07:52:01Z</time>
      </trkpt>
      <trkpt lat="47.43802" lon="6.79491">
        <ele>462.2</ele>
        <time>2017-10-01T07:52:02Z</time>
      </trkpt>
      <trkpt lat="47.438" lon="6.79486">
        <ele>461.3</ele>
        <time>2017-10-01T07:52:05Z</time>
      </trkpt>
      <trkpt lat="47.43801" lon="6.7948">
        <ele>460.5</ele>
        <time>2017-10-01T07:52:06Z</time>
      </trkpt>
      <trkpt lat="47.43802" lon="6.79477">
        <ele>460</ele>
        <time>2017-10-01T07:52:07Z</time>
      </trkpt>
      <trkpt lat="47.43801" lon="6.79473">
        <ele>459.3</ele>
        <time>2017-10-01T07:52:08Z</time>
      </trkpt>
      <trkpt lat="47.438" lon="6.79469">
        <ele>458.5</ele>
        <time>2017-10-01T07:52:09Z</time>
      </trkpt>
      <trkpt lat="47.43801" lon="6.79464">
        <ele>457.5</ele>
        <time>2017-10-01T07:52:10Z</time>
      </trkpt>
      <trkpt lat="47.43801" lon="6.7946">
        <ele>456.6</ele>
        <time>2017-10-01T07:52:11Z</time>
      </trkpt>
      <trkpt lat="47.438" lon="6.79457">
        <ele>455.9</ele>
        <time>2017-10-01T07:52:12Z</time>
      </trkpt>
      <trkpt lat="47.43799" lon="6.79454">
        <ele>455.2</ele>
        <time>2017-10-01T07:52:13Z</time>
      </trkpt>
      <trkpt lat="47.43798" lon="6.7945">
        <ele>454.4</ele>
        <time>2017-10-01T07:52:14Z</time>
      </trkpt>
      <trkpt lat="47.43797" lon="6.79447">
        <ele>453.7</ele>
        <time>2017-10-01T07:52:15Z</time>
      </trkpt>
      <trkpt lat="47.43796" lon="6.79443">
        <ele>452.8</ele>
        <time>2017-10-01T07:52:16Z</time>
      </trkpt>
      <trkpt lat="47.43795" lon="6.79439">
        <ele>451.7</ele>
        <time>2017-10-01T07:52:17Z</time>
      </trkpt>
      <trkpt lat="47.43794" lon="6.79436">
        <ele>450.8</ele>
        <time>2017-10-01T07:52:18Z</time>
      </trkpt>
      <trkpt lat="47.43791" lon="6.79431">
        <ele>449.2</ele>
        <time>2017-10-01T07:52:20Z</time>
      </trkpt>
      <trkpt lat="47.43789" lon="6.79429">
        <ele>448.1</ele>
        <time>2017-10-01T07:52:21Z</time>
      </trkpt>
      <trkpt lat="47.43785" lon="6.79427">
        <ele>446.4</ele>
        <time>2017-10-01T07:52:23Z</time>
      </trkpt>
      <trkpt lat="47.43782" lon="6.79427">
        <ele>445.5</ele>
        <time>2017-10-01T07:52:24Z</time>
      </trkpt>
      <trkpt lat="47.43778" lon="6.79425">
        <ele>443.8</ele>
        <time>2017-10-01T07:52:26Z</time>
      </trkpt>
      <trkpt lat="47.43776" lon="6.79423">
        <ele>442.9</ele>
        <time>2017-10-01T07:52:27Z</time>
      </trkpt>
      <trkpt lat="47.43773" lon="6.7942">
        <ele>441</ele>
        <time>2017-10-01T07:52:29Z</time>
      </trkpt>
      <trkpt lat="47.4377" lon="6.7942">
        <ele>439.8</ele>
        <time>2017-10-01T07:52:30Z</time>
      </trkpt>
      <trkpt lat="47.43768" lon="6.79421">
        <ele>438.5</ele>
        <time>2017-10-01T07:52:31Z</time>
      </trkpt>
      <trkpt lat="47.43765" lon="6.79421">
        <ele>437.3</ele>
        <time>2017-10-01T07:52:32Z</time>
      </trkpt>
      <trkpt lat="47.43763" lon="6.79421">
        <ele>437.9</ele>
        <time>2017-10-01T07:52:33Z</time>
      </trkpt>
      <trkpt lat="47.4376" lon="6.7942">
        <ele>438.4</ele>
        <time>2017-10-01T07:52:34Z</time>
      </trkpt>
      <trkpt lat="47.43757" lon="6.7942">
        <ele>438.9</ele>
        <time>2017-10-01T07:52:35Z</time>
      </trkpt>
      <trkpt lat="47.43754" lon="6.7942">
        <ele>439.3</ele>
        <time>2017-10-01T07:52:36Z</time>
      </trkpt>
      <trkpt lat="47.43751" lon="6.79421">
        <ele>439.5</ele>
        <time>2017-10-01T07:52:37Z</time>
      </trkpt>
      <trkpt lat="47.43749" lon="6.79422">
        <ele>439.7</ele>
        <time>2017-10-01T07:52:38Z</time>
      </trkpt>
      <trkpt lat="47.43746" lon="6.79423">
        <ele>439.9</ele>
        <time>2017-10-01T07:52:39Z</time>
      </trkpt>
      <trkpt lat="47.43743" lon="6.79424">
        <ele>440.1</ele>
        <time>2017-10-01T07:52:40Z</time>
      </trkpt>
      <trkpt lat="47.4374" lon="6.79423">
        <ele>440.3</ele>
        <time>2017-10-01T07:52:41Z</time>
      </trkpt>
      <trkpt lat="47.43737" lon="6.79421">
        <ele>440.4</ele>
        <time>2017-10-01T07:52:42Z</time>
      </trkpt>
      <trkpt lat="47.43735" lon="6.79421">
        <ele>440.5</ele>
        <time>2017-10-01T07:52:43Z</time>
      </trkpt>
      <trkpt lat="47.43732" lon="6.7942">
        <ele>440.6</ele>
        <time>2017-10-01T07:52:44Z</time>
      </trkpt>
      <trkpt lat="47.43729" lon="6.7942">
        <ele>440.7</ele>
        <time>2017-10-01T07:52:45Z</time>
      </trkpt>
      <trkpt lat="47.43727" lon="6.7942">
        <ele>440.8</ele>
        <time>2017-10-01T07:52:46Z</time>
      </trkpt>
      <trkpt lat="47.43724" lon="6.7942">
        <ele>440.9</ele>
        <time>2017-10-01T07:52:47Z</time>
      </trkpt>
      <trkpt lat="47.43722" lon="6.79419">
        <ele>441</ele>
        <time>2017-10-01T07:52:48Z</time>
      </trkpt>
      <trkpt lat="47.43719" lon="6.79419">
        <ele>441.1</ele>
        <time>2017-10-01T07:52:49Z</time>
      </trkpt>
      <trkpt lat="47.43716" lon="6.7942">
        <ele>441.3</ele>
        <time>2017-10-01T07:52:50Z</time>
      </trkpt>
      <trkpt lat="47.43714" lon="6.79421">
        <ele>441.4</ele>
        <time>2017-10-01T07:52:51Z</time>
      </trkpt>
      <trkpt lat="47.43711" lon="6.79422">
        <ele>441.5</ele>
        <time>2017-10-01T07:52:52Z</time>
      </trkpt>
      <trkpt lat="47.43708" lon="6.79424">
        <ele>441.8</ele>
        <time>2017-10-01T07:52:53Z</time>
      </trkpt>
      <trkpt lat="47.43706" lon="6.79424">
        <ele>442.1</ele>
        <time>2017-10-01T07:52:54Z</time>
      </trkpt>
      <trkpt lat="47.43703" lon="6.79426">
        <ele>442.5</ele>
        <time>2017-10-01T07:52:55Z</time>
      </trkpt>
      <trkpt lat="47.43701" lon="6.79427">
        <ele>443</ele>
        <time>2017-10-01T07:52:56Z</time>
      </trkpt>
      <trkpt lat="47.43698" lon="6.79429">
        <ele>443.3</ele>
        <time>2017-10-01T07:52:57Z</time>
      </trkpt>
      <trkpt lat="47.43696" lon="6.7943">
        <ele>443.7</ele>
        <time>2017-10-01T07:52:58Z</time>
      </trkpt>
      <trkpt lat="47.43693" lon="6.7943">
        <ele>443.8</ele>
        <time>2017-10-01T07:52:59Z</time>
      </trkpt>
      <trkpt lat="47.43689" lon="6.7943">
        <ele>443.9</ele>
        <time>2017-10-01T07:53:00Z</time>
      </trkpt>
      <trkpt lat="47.43687" lon="6.79431">
        <ele>444</ele>
        <time>2017-10-01T07:53:01Z</time>
      </trkpt>
      <trkpt lat="47.43684" lon="6.79432">
        <ele>444.2</ele>
        <time>2017-10-01T07:53:02Z</time>
      </trkpt>
      <trkpt lat="47.4368" lon="6.79435">
        <ele>444.3</ele>
        <time>2017-10-01T07:53:03Z</time>
      </trkpt>
      <trkpt lat="47.43678" lon="6.79437">
        <ele>444.4</ele>
        <time>2017-10-01T07:53:04Z</time>
      </trkpt>
      <trkpt lat="47.43675" lon="6.79439">
        <ele>444.5</ele>
        <time>2017-10-01T07:53:05Z</time>
      </trkpt>
      <trkpt lat="47.4367" lon="6.79442">
        <ele>444.7</ele>
        <time>2017-10-01T07:53:06Z</time>
      </trkpt>
      <trkpt lat="47.43666" lon="6.79444">
        <ele>444.9</ele>
        <time>2017-10-01T07:53:08Z</time>
      </trkpt>
      <trkpt lat="47.43664" lon="6.79446">
        <ele>445</ele>
        <time>2017-10-01T07:53:09Z</time>
      </trkpt>
      <trkpt lat="47.43659" lon="6.79447">
        <ele>445.3</ele>
        <time>2017-10-01T07:53:10Z</time>
      </trkpt>
      <trkpt lat="47.43656" lon="6.7945">
        <ele>445.5</ele>
        <time>2017-10-01T07:53:12Z</time>
      </trkpt>
      <trkpt lat="47.43653" lon="6.7945">
        <ele>445.7</ele>
        <time>2017-10-01T07:53:13Z</time>
      </trkpt>
      <trkpt lat="47.4365" lon="6.79449">
        <ele>445.8</ele>
        <time>2017-10-01T07:53:14Z</time>
      </trkpt>
      <trkpt lat="47.43647" lon="6.79448">
        <ele>446</ele>
        <time>2017-10-01T07:53:15Z</time>
      </trkpt>
      <trkpt lat="47.43643" lon="6.79446">
        <ele>446.6</ele>
        <time>2017-10-01T07:53:17Z</time>
      </trkpt>
      <trkpt lat="47.43641" lon="6.79446">
        <ele>447</ele>
        <time>2017-10-01T07:53:18Z</time>
      </trkpt>
      <trkpt lat="47.43637" lon="6.79445">
        <ele>447.7</ele>
        <time>2017-10-01T07:53:19Z</time>
      </trkpt>
      <trkpt lat="47.43635" lon="6.79444">
        <ele>447.8</ele>
        <time>2017-10-01T07:53:20Z</time>
      </trkpt>
      <trkpt lat="47.43631" lon="6.79446">
        <ele>448</ele>
        <time>2017-10-01T07:53:22Z</time>
      </trkpt>
      <trkpt lat="47.43628" lon="6.79446">
        <ele>448.2</ele>
        <time>2017-10-01T07:53:23Z</time>
      </trkpt>
      <trkpt lat="47.43626" lon="6.79445">
        <ele>448.3</ele>
        <time>2017-10-01T07:53:24Z</time>
      </trkpt>
      <trkpt lat="47.43624" lon="6.79443">
        <ele>448.5</ele>
        <time>2017-10-01T07:53:25Z</time>
      </trkpt>
      <trkpt lat="47.43619" lon="6.79441">
        <ele>448.6</ele>
        <time>2017-10-01T07:53:27Z</time>
      </trkpt>
      <trkpt lat="47.43617" lon="6.7944">
        <ele>448.7</ele>
        <time>2017-10-01T07:53:28Z</time>
      </trkpt>
      <trkpt lat="47.43615" lon="6.7944">
        <ele>448.7</ele>
        <time>2017-10-01T07:53:29Z</time>
      </trkpt>
      <trkpt lat="47.43612" lon="6.79439">
        <ele>448.8</ele>
        <time>2017-10-01T07:53:30Z</time>
      </trkpt>
      <trkpt lat="47.43609" lon="6.7944">
        <ele>448.9</ele>
        <time>2017-10-01T07:53:31Z</time>
      </trkpt>
      <trkpt lat="47.43606" lon="6.7944">
        <ele>449</ele>
        <time>2017-10-01T07:53:32Z</time>
      </trkpt>
      <trkpt lat="47.43602" lon="6.79439">
        <ele>449.1</ele>
        <time>2017-10-01T07:53:33Z</time>
      </trkpt>
      <trkpt lat="47.43599" lon="6.79439">
        <ele>449.2</ele>
        <time>2017-10-01T07:53:34Z</time>
      </trkpt>
      <trkpt lat="47.43597" lon="6.79439">
        <ele>449.3</ele>
        <time>2017-10-01T07:53:35Z</time>
      </trkpt>
      <trkpt lat="47.43595" lon="6.79438">
        <ele>449.4</ele>
        <time>2017-10-01T07:53:36Z</time>
      </trkpt>
      <trkpt lat="47.43591" lon="6.79437">
        <ele>449.5</ele>
        <time>2017-10-01T07:53:38Z</time>
      </trkpt>
      <trkpt lat="47.43589" lon="6.79436">
        <ele>449.5</ele>
        <time>2017-10-01T07:53:39Z</time>
      </trkpt>
      <trkpt lat="47.43586" lon="6.79435">
        <ele>449.6</ele>
        <time>2017-10-01T07:53:41Z</time>
      </trkpt>
      <trkpt lat="47.43583" lon="6.79437">
        <ele>449.7</ele>
        <time>2017-10-01T07:53:42Z</time>
      </trkpt>
      <trkpt lat="47.4358" lon="6.79438">
        <ele>449.8</ele>
        <time>2017-10-01T07:53:43Z</time>
      </trkpt>
      <trkpt lat="47.43576" lon="6.79437">
        <ele>449.9</ele>
        <time>2017-10-01T07:53:44Z</time>
      </trkpt>
      <trkpt lat="47.43572" lon="6.79436">
        <ele>449.9</ele>
        <time>2017-10-01T07:53:45Z</time>
      </trkpt>
      <trkpt lat="47.43569" lon="6.79437">
        <ele>450</ele>
        <time>2017-10-01T07:53:46Z</time>
      </trkpt>
      <trkpt lat="47.43565" lon="6.7944">
        <ele>450</ele>
        <time>2017-10-01T07:53:47Z</time>
      </trkpt>
      <trkpt lat="47.43562" lon="6.7944">
        <ele>450.1</ele>
        <time>2017-10-01T07:53:48Z</time>
      </trkpt>
      <trkpt lat="47.43558" lon="6.79441">
        <ele>450.1</ele>
        <time>2017-10-01T07:53:49Z</time>
      </trkpt>
      <trkpt lat="47.43555" lon="6.79442">
        <ele>450.2</ele>
        <time>2017-10-01T07:53:50Z</time>
      </trkpt>
      <trkpt lat="47.43551" lon="6.79444">
        <ele>450.2</ele>
        <time>2017-10-01T07:53:53Z</time>
      </trkpt>
      <trkpt lat="47.4355" lon="6.79445">
        <ele>450.3</ele>
        <time>2017-10-01T07:53:54Z</time>
      </trkpt>
      <trkpt lat="47.43546" lon="6.79447">
        <ele>450.3</ele>
        <time>2017-10-01T07:53:56Z</time>
      </trkpt>
      <trkpt lat="47.43544" lon="6.79448">
        <ele>450.4</ele>
        <time>2017-10-01T07:53:57Z</time>
      </trkpt>
      <trkpt lat="47.43539" lon="6.7945">
        <ele>450.4</ele>
        <time>2017-10-01T07:53:59Z</time>
      </trkpt>
      <trkpt lat="47.43536" lon="6.79452">
        <ele>450.5</ele>
        <time>2017-10-01T07:54:00Z</time>
      </trkpt>
      <trkpt lat="47.43533" lon="6.79452">
        <ele>450.5</ele>
        <time>2017-10-01T07:54:01Z</time>
      </trkpt>
      <trkpt lat="47.43531" lon="6.79452">
        <ele>450.6</ele>
        <time>2017-10-01T07:54:02Z</time>
      </trkpt>
      <trkpt lat="47.43529" lon="6.79452">
        <ele>450.6</ele>
        <time>2017-10-01T07:54:03Z</time>
      </trkpt>
      <trkpt lat="47.43526" lon="6.79453">
        <ele>450.7</ele>
        <time>2017-10-01T07:54:04Z</time>
      </trkpt>
      <trkpt lat="47.43523" lon="6.79456">
        <ele>450.7</ele>
        <time>2017-10-01T07:54:06Z</time>
      </trkpt>
      <trkpt lat="47.43522" lon="6.79457">
        <ele>450.7</ele>
        <time>2017-10-01T07:54:07Z</time>
      </trkpt>
      <trkpt lat="47.43519" lon="6.79457">
        <ele>450.8</ele>
        <time>2017-10-01T07:54:09Z</time>
      </trkpt>
      <trkpt lat="47.43517" lon="6.79457">
        <ele>450.8</ele>
        <time>2017-10-01T07:54:10Z</time>
      </trkpt>
      <trkpt lat="47.43513" lon="6.79458">
        <ele>450.8</ele>
        <time>2017-10-01T07:54:12Z</time>
      </trkpt>
      <trkpt lat="47.43511" lon="6.79458">
        <ele>450.9</ele>
        <time>2017-10-01T07:54:13Z</time>
      </trkpt>
      <trkpt lat="47.43507" lon="6.79461">
        <ele>451</ele>
        <time>2017-10-01T07:54:15Z</time>
      </trkpt>
      <trkpt lat="47.43505" lon="6.79462">
        <ele>451</ele>
        <time>2017-10-01T07:54:16Z</time>
      </trkpt>
      <trkpt lat="47.43501" lon="6.79464">
        <ele>451.1</ele>
        <time>2017-10-01T07:54:19Z</time>
      </trkpt>
      <trkpt lat="47.435" lon="6.79465">
        <ele>451.1</ele>
        <time>2017-10-01T07:54:20Z</time>
      </trkpt>
      <trkpt lat="47.43498" lon="6.79469">
        <ele>451.1</ele>
        <time>2017-10-01T07:54:23Z</time>
      </trkpt>
      <trkpt lat="47.43494" lon="6.79473">
        <ele>451.1</ele>
        <time>2017-10-01T07:54:24Z</time>
      </trkpt>
      <trkpt lat="47.43491" lon="6.79475">
        <ele>451.2</ele>
        <time>2017-10-01T07:54:25Z</time>
      </trkpt>
      <trkpt lat="47.43488" lon="6.79477">
        <ele>451.2</ele>
        <time>2017-10-01T07:54:26Z</time>
      </trkpt>
      <trkpt lat="47.43485" lon="6.79479">
        <ele>451.2</ele>
        <time>2017-10-01T07:54:27Z</time>
      </trkpt>
      <trkpt lat="47.43482" lon="6.79484">
        <ele>451.2</ele>
        <time>2017-10-01T07:54:28Z</time>
      </trkpt>
      <trkpt lat="47.43478" lon="6.79487">
        <ele>451.2</ele>
        <time>2017-10-01T07:54:29Z</time>
      </trkpt>
      <trkpt lat="47.43474" lon="6.79489">
        <ele>451.2</ele>
        <time>2017-10-01T07:54:30Z</time>
      </trkpt>
      <trkpt lat="47.43471" lon="6.79491">
        <ele>451.2</ele>
        <time>2017-10-01T07:54:31Z</time>
      </trkpt>
      <trkpt lat="47.43467" lon="6.79494">
        <ele>451.1</ele>
        <time>2017-10-01T07:54:32Z</time>
      </trkpt>
      <trkpt lat="47.43464" lon="6.79499">
        <ele>451</ele>
        <time>2017-10-01T07:54:33Z</time>
      </trkpt>
      <trkpt lat="47.4346" lon="6.79501">
        <ele>450.9</ele>
        <time>2017-10-01T07:54:34Z</time>
      </trkpt>
      <trkpt lat="47.43456" lon="6.79504">
        <ele>450.8</ele>
        <time>2017-10-01T07:54:35Z</time>
      </trkpt>
      <trkpt lat="47.43452" lon="6.79505">
        <ele>450.7</ele>
        <time>2017-10-01T07:54:38Z</time>
      </trkpt>
      <trkpt lat="47.43451" lon="6.79504">
        <ele>450.7</ele>
        <time>2017-10-01T07:54:39Z</time>
      </trkpt>
      <trkpt lat="47.43448" lon="6.79505">
        <ele>450.8</ele>
        <time>2017-10-01T07:54:41Z</time>
      </trkpt>
      <trkpt lat="47.43446" lon="6.79506">
        <ele>450.8</ele>
        <time>2017-10-01T07:54:42Z</time>
      </trkpt>
      <trkpt lat="47.43443" lon="6.79506">
        <ele>450.9</ele>
        <time>2017-10-01T07:54:43Z</time>
      </trkpt>
      <trkpt lat="47.43439" lon="6.79507">
        <ele>451</ele>
        <time>2017-10-01T07:54:44Z</time>
      </trkpt>
      <trkpt lat="47.43435" lon="6.79509">
        <ele>451.1</ele>
        <time>2017-10-01T07:54:45Z</time>
      </trkpt>
      <trkpt lat="47.43432" lon="6.7951">
        <ele>451.2</ele>
        <time>2017-10-01T07:54:46Z</time>
      </trkpt>
      <trkpt lat="47.43429" lon="6.79513">
        <ele>451.3</ele>
        <time>2017-10-01T07:54:47Z</time>
      </trkpt>
      <trkpt lat="47.43425" lon="6.79516">
        <ele>451.4</ele>
        <time>2017-10-01T07:54:48Z</time>
      </trkpt>
      <trkpt lat="47.43423" lon="6.79518">
        <ele>451.6</ele>
        <time>2017-10-01T07:54:49Z</time>
      </trkpt>
      <trkpt lat="47.43421" lon="6.7952">
        <ele>451.7</ele>
        <time>2017-10-01T07:54:50Z</time>
      </trkpt>
      <trkpt lat="47.43418" lon="6.79521">
        <ele>451.8</ele>
        <time>2017-10-01T07:54:52Z</time>
      </trkpt>
      <trkpt lat="47.43416" lon="6.79521">
        <ele>451.9</ele>
        <time>2017-10-01T07:54:53Z</time>
      </trkpt>
      <trkpt lat="47.43412" lon="6.7952">
        <ele>452.5</ele>
        <time>2017-10-01T07:54:55Z</time>
      </trkpt>
      <trkpt lat="47.4341" lon="6.79519">
        <ele>452.8</ele>
        <time>2017-10-01T07:54:56Z</time>
      </trkpt>
      <trkpt lat="47.43407" lon="6.79518">
        <ele>453.5</ele>
        <time>2017-10-01T07:54:58Z</time>
      </trkpt>
      <trkpt lat="47.43405" lon="6.79518">
        <ele>453.8</ele>
        <time>2017-10-01T07:54:59Z</time>
      </trkpt>
      <trkpt lat="47.43401" lon="6.79517">
        <ele>454.3</ele>
        <time>2017-10-01T07:55:01Z</time>
      </trkpt>
      <trkpt lat="47.434" lon="6.79517">
        <ele>454.5</ele>
        <time>2017-10-01T07:55:02Z</time>
      </trkpt>
      <trkpt lat="47.43396" lon="6.79518">
        <ele>456.1</ele>
        <time>2017-10-01T07:55:05Z</time>
      </trkpt>
      <trkpt lat="47.43394" lon="6.79519">
        <ele>456.3</ele>
        <time>2017-10-01T07:55:06Z</time>
      </trkpt>
      <trkpt lat="47.43392" lon="6.79522">
        <ele>456.8</ele>
        <time>2017-10-01T07:55:08Z</time>
      </trkpt>
      <trkpt lat="47.43387" lon="6.79528">
        <ele>457.6</ele>
        <time>2017-10-01T07:55:09Z</time>
      </trkpt>
      <trkpt lat="47.43383" lon="6.7953">
        <ele>458.3</ele>
        <time>2017-10-01T07:55:10Z</time>
      </trkpt>
      <trkpt lat="47.4338" lon="6.79531">
        <ele>458.8</ele>
        <time>2017-10-01T07:55:11Z</time>
      </trkpt>
      <trkpt lat="47.43377" lon="6.79532">
        <ele>459.2</ele>
        <time>2017-10-01T07:55:13Z</time>
      </trkpt>
      <trkpt lat="47.43375" lon="6.79533">
        <ele>459.3</ele>
        <time>2017-10-01T07:55:14Z</time>
      </trkpt>
      <trkpt lat="47.43371" lon="6.79535">
        <ele>459.9</ele>
        <time>2017-10-01T07:55:16Z</time>
      </trkpt>
      <trkpt lat="47.43369" lon="6.79537">
        <ele>460.1</ele>
        <time>2017-10-01T07:55:17Z</time>
      </trkpt>
      <trkpt lat="47.43365" lon="6.79536">
        <ele>460.5</ele>
        <time>2017-10-01T07:55:20Z</time>
      </trkpt>
      <trkpt lat="47.43363" lon="6.79536">
        <ele>460.6</ele>
        <time>2017-10-01T07:55:21Z</time>
      </trkpt>
      <trkpt lat="47.4336" lon="6.79536">
        <ele>460.9</ele>
        <time>2017-10-01T07:55:25Z</time>
      </trkpt>
      <trkpt lat="47.43358" lon="6.79537">
        <ele>461.1</ele>
        <time>2017-10-01T07:55:26Z</time>
      </trkpt>
      <trkpt lat="47.43355" lon="6.79537">
        <ele>461.7</ele>
        <time>2017-10-01T07:55:28Z</time>
      </trkpt>
      <trkpt lat="47.43354" lon="6.79537">
        <ele>462.1</ele>
        <time>2017-10-01T07:55:29Z</time>
      </trkpt>
      <trkpt lat="47.43351" lon="6.79538">
        <ele>462.5</ele>
        <time>2017-10-01T07:55:30Z</time>
      </trkpt>
      <trkpt lat="47.43349" lon="6.79538">
        <ele>462.7</ele>
        <time>2017-10-01T07:55:31Z</time>
      </trkpt>
      <trkpt lat="47.43346" lon="6.79538">
        <ele>463</ele>
        <time>2017-10-01T07:55:32Z</time>
      </trkpt>
      <trkpt lat="47.43343" lon="6.79537">
        <ele>463.2</ele>
        <time>2017-10-01T07:55:33Z</time>
      </trkpt>
      <trkpt lat="47.43339" lon="6.79538">
        <ele>463.4</ele>
        <time>2017-10-01T07:55:35Z</time>
      </trkpt>
      <trkpt lat="47.43337" lon="6.7954">
        <ele>463.6</ele>
        <time>2017-10-01T07:55:36Z</time>
      </trkpt>
      <trkpt lat="47.43334" lon="6.79544">
        <ele>464</ele>
        <time>2017-10-01T07:55:38Z</time>
      </trkpt>
      <trkpt lat="47.43333" lon="6.79545">
        <ele>464.2</ele>
        <time>2017-10-01T07:55:39Z</time>
      </trkpt>
      <trkpt lat="47.43331" lon="6.79546">
        <ele>464.4</ele>
        <time>2017-10-01T07:55:41Z</time>
      </trkpt>
      <trkpt lat="47.43329" lon="6.79546">
        <ele>464.7</ele>
        <time>2017-10-01T07:55:42Z</time>
      </trkpt>
      <trkpt lat="47.43326" lon="6.79547">
        <ele>465.3</ele>
        <time>2017-10-01T07:55:43Z</time>
      </trkpt>
      <trkpt lat="47.43323" lon="6.79548">
        <ele>466</ele>
        <time>2017-10-01T07:55:44Z</time>
      </trkpt>
      <trkpt lat="47.43321" lon="6.79549">
        <ele>466.3</ele>
        <time>2017-10-01T07:55:45Z</time>
      </trkpt>
      <trkpt lat="47.43318" lon="6.79551">
        <ele>466.7</ele>
        <time>2017-10-01T07:55:46Z</time>
      </trkpt>
      <trkpt lat="47.43314" lon="6.79553">
        <ele>467.1</ele>
        <time>2017-10-01T07:55:47Z</time>
      </trkpt>
      <trkpt lat="47.43311" lon="6.79556">
        <ele>467.3</ele>
        <time>2017-10-01T07:55:48Z</time>
      </trkpt>
      <trkpt lat="47.43307" lon="6.79557">
        <ele>467.5</ele>
        <time>2017-10-01T07:55:50Z</time>
      </trkpt>
      <trkpt lat="47.43306" lon="6.79558">
        <ele>467.6</ele>
        <time>2017-10-01T07:55:51Z</time>
      </trkpt>
      <trkpt lat="47.43302" lon="6.79559">
        <ele>467.9</ele>
        <time>2017-10-01T07:55:53Z</time>
      </trkpt>
      <trkpt lat="47.43299" lon="6.7956">
        <ele>468.3</ele>
        <time>2017-10-01T07:55:54Z</time>
      </trkpt>
      <trkpt lat="47.43296" lon="6.79561">
        <ele>468.8</ele>
        <time>2017-10-01T07:55:55Z</time>
      </trkpt>
      <trkpt lat="47.43294" lon="6.79561">
        <ele>469.3</ele>
        <time>2017-10-01T07:55:56Z</time>
      </trkpt>
      <trkpt lat="47.4329" lon="6.79561">
        <ele>469.5</ele>
        <time>2017-10-01T07:55:57Z</time>
      </trkpt>
      <trkpt lat="47.43288" lon="6.79561">
        <ele>469.6</ele>
        <time>2017-10-01T07:55:58Z</time>
      </trkpt>
      <trkpt lat="47.43286" lon="6.79561">
        <ele>469.7</ele>
        <time>2017-10-01T07:55:59Z</time>
      </trkpt>
      <trkpt lat="47.43283" lon="6.79561">
        <ele>469.8</ele>
        <time>2017-10-01T07:56:00Z</time>
      </trkpt>
      <trkpt lat="47.4328" lon="6.79561">
        <ele>469.9</ele>
        <time>2017-10-01T07:56:01Z</time>
      </trkpt>
      <trkpt lat="47.43277" lon="6.79561">
        <ele>470</ele>
        <time>2017-10-01T07:56:02Z</time>
      </trkpt>
      <trkpt lat="47.43274" lon="6.7956">
        <ele>470.1</ele>
        <time>2017-10-01T07:56:03Z</time>
      </trkpt>
      <trkpt lat="47.43272" lon="6.79559">
        <ele>470.2</ele>
        <time>2017-10-01T07:56:04Z</time>
      </trkpt>
      <trkpt lat="47.4327" lon="6.79558">
        <ele>470.3</ele>
        <time>2017-10-01T07:56:05Z</time>
      </trkpt>
      <trkpt lat="47.43266" lon="6.79558">
        <ele>470.4</ele>
        <time>2017-10-01T07:56:06Z</time>
      </trkpt>
      <trkpt lat="47.43263" lon="6.79557">
        <ele>470.5</ele>
        <time>2017-10-01T07:56:07Z</time>
      </trkpt>
      <trkpt lat="47.43261" lon="6.79557">
        <ele>470.5</ele>
        <time>2017-10-01T07:56:08Z</time>
      </trkpt>
      <trkpt lat="47.43258" lon="6.79558">
        <ele>470.6</ele>
        <time>2017-10-01T07:56:09Z</time>
      </trkpt>
      <trkpt lat="47.43253" lon="6.7956">
        <ele>470.6</ele>
        <time>2017-10-01T07:56:10Z</time>
      </trkpt>
      <trkpt lat="47.43249" lon="6.79561">
        <ele>470.7</ele>
        <time>2017-10-01T07:56:11Z</time>
      </trkpt>
      <trkpt lat="47.43245" lon="6.79563">
        <ele>470.8</ele>
        <time>2017-10-01T07:56:12Z</time>
      </trkpt>
      <trkpt lat="47.43241" lon="6.79563">
        <ele>470.9</ele>
        <time>2017-10-01T07:56:13Z</time>
      </trkpt>
      <trkpt lat="47.43237" lon="6.79564">
        <ele>471</ele>
        <time>2017-10-01T07:56:15Z</time>
      </trkpt>
      <trkpt lat="47.43234" lon="6.79563">
        <ele>471</ele>
        <time>2017-10-01T07:56:16Z</time>
      </trkpt>
      <trkpt lat="47.43232" lon="6.79563">
        <ele>471.1</ele>
        <time>2017-10-01T07:56:17Z</time>
      </trkpt>
      <trkpt lat="47.43229" lon="6.79561">
        <ele>471.1</ele>
        <time>2017-10-01T07:56:18Z</time>
      </trkpt>
      <trkpt lat="47.43226" lon="6.79561">
        <ele>471.2</ele>
        <time>2017-10-01T07:56:19Z</time>
      </trkpt>
      <trkpt lat="47.43224" lon="6.7956">
        <ele>471.3</ele>
        <time>2017-10-01T07:56:20Z</time>
      </trkpt>
      <trkpt lat="47.43221" lon="6.7956">
        <ele>471.4</ele>
        <time>2017-10-01T07:56:21Z</time>
      </trkpt>
      <trkpt lat="47.43218" lon="6.79559">
        <ele>471.5</ele>
        <time>2017-10-01T07:56:22Z</time>
      </trkpt>
      <trkpt lat="47.43214" lon="6.79559">
        <ele>471.6</ele>
        <time>2017-10-01T07:56:23Z</time>
      </trkpt>
      <trkpt lat="47.43211" lon="6.79558">
        <ele>471.6</ele>
        <time>2017-10-01T07:56:24Z</time>
      </trkpt>
      <trkpt lat="47.43207" lon="6.79558">
        <ele>471.7</ele>
        <time>2017-10-01T07:56:25Z</time>
      </trkpt>
      <trkpt lat="47.43204" lon="6.79559">
        <ele>471.8</ele>
        <time>2017-10-01T07:56:26Z</time>
      </trkpt>
      <trkpt lat="47.432" lon="6.79561">
        <ele>471.9</ele>
        <time>2017-10-01T07:56:27Z</time>
      </trkpt>
      <trkpt lat="47.43197" lon="6.79562">
        <ele>472</ele>
        <time>2017-10-01T07:56:28Z</time>
      </trkpt>
      <trkpt lat="47.43193" lon="6.79562">
        <ele>472.1</ele>
        <time>2017-10-01T07:56:30Z</time>
      </trkpt>
      <trkpt lat="47.4319" lon="6.79561">
        <ele>472.2</ele>
        <time>2017-10-01T07:56:31Z</time>
      </trkpt>
      <trkpt lat="47.43187" lon="6.79561">
        <ele>472.3</ele>
        <time>2017-10-01T07:56:32Z</time>
      </trkpt>
      <trkpt lat="47.43185" lon="6.79561">
        <ele>472.4</ele>
        <time>2017-10-01T07:56:33Z</time>
      </trkpt>
      <trkpt lat="47.43181" lon="6.79561">
        <ele>472.5</ele>
        <time>2017-10-01T07:56:34Z</time>
      </trkpt>
      <trkpt lat="47.43179" lon="6.79562">
        <ele>472.6</ele>
        <time>2017-10-01T07:56:35Z</time>
      </trkpt>
      <trkpt lat="47.43174" lon="6.79564">
        <ele>472.8</ele>
        <time>2017-10-01T07:56:37Z</time>
      </trkpt>
      <trkpt lat="47.43171" lon="6.79565">
        <ele>472.9</ele>
        <time>2017-10-01T07:56:38Z</time>
      </trkpt>
      <trkpt lat="47.43169" lon="6.79568">
        <ele>473.1</ele>
        <time>2017-10-01T07:56:39Z</time>
      </trkpt>
      <trkpt lat="47.43169" lon="6.79571">
        <ele>473.3</ele>
        <time>2017-10-01T07:56:40Z</time>
      </trkpt>
      <trkpt lat="47.43168" lon="6.79575">
        <ele>473.7</ele>
        <time>2017-10-01T07:56:41Z</time>
      </trkpt>
      <trkpt lat="47.43167" lon="6.79578">
        <ele>474.1</ele>
        <time>2017-10-01T07:56:42Z</time>
      </trkpt>
      <trkpt lat="47.43165" lon="6.79581">
        <ele>474.5</ele>
        <time>2017-10-01T07:56:43Z</time>
      </trkpt>
      <trkpt lat="47.43163" lon="6.79582">
        <ele>474.9</ele>
        <time>2017-10-01T07:56:44Z</time>
      </trkpt>
      <trkpt lat="47.43162" lon="6.79588">
        <ele>475.4</ele>
        <time>2017-10-01T07:56:46Z</time>
      </trkpt>
      <trkpt lat="47.4316" lon="6.79591">
        <ele>475.7</ele>
        <time>2017-10-01T07:56:47Z</time>
      </trkpt>
      <trkpt lat="47.43159" lon="6.79595">
        <ele>476</ele>
        <time>2017-10-01T07:56:48Z</time>
      </trkpt>
      <trkpt lat="47.43158" lon="6.79598">
        <ele>476.3</ele>
        <time>2017-10-01T07:56:49Z</time>
      </trkpt>
      <trkpt lat="47.43156" lon="6.79603">
        <ele>476.6</ele>
        <time>2017-10-01T07:56:51Z</time>
      </trkpt>
      <trkpt lat="47.43155" lon="6.79605">
        <ele>476.8</ele>
        <time>2017-10-01T07:56:52Z</time>
      </trkpt>
      <trkpt lat="47.43152" lon="6.79607">
        <ele>477.3</ele>
        <time>2017-10-01T07:56:54Z</time>
      </trkpt>
      <trkpt lat="47.4315" lon="6.79607">
        <ele>477.7</ele>
        <time>2017-10-01T07:56:55Z</time>
      </trkpt>
      <trkpt lat="47.43146" lon="6.79608">
        <ele>478.6</ele>
        <time>2017-10-01T07:56:58Z</time>
      </trkpt>
      <trkpt lat="47.43145" lon="6.79608">
        <ele>478.8</ele>
        <time>2017-10-01T07:56:59Z</time>
      </trkpt>
      <trkpt lat="47.43143" lon="6.79607">
        <ele>479.2</ele>
        <time>2017-10-01T07:57:00Z</time>
      </trkpt>
      <trkpt lat="47.43141" lon="6.79606">
        <ele>479.6</ele>
        <time>2017-10-01T07:57:01Z</time>
      </trkpt>
      <trkpt lat="47.43136" lon="6.79604">
        <ele>480.3</ele>
        <time>2017-10-01T07:57:03Z</time>
      </trkpt>
      <trkpt lat="47.43134" lon="6.79603">
        <ele>481</ele>
        <time>2017-10-01T07:57:04Z</time>
      </trkpt>
      <trkpt lat="47.4313" lon="6.79602">
        <ele>482</ele>
        <time>2017-10-01T07:57:07Z</time>
      </trkpt>
      <trkpt lat="47.43128" lon="6.796">
        <ele>482.2</ele>
        <time>2017-10-01T07:57:08Z</time>
      </trkpt>
      <trkpt lat="47.43124" lon="6.79597">
        <ele>482.7</ele>
        <time>2017-10-01T07:57:10Z</time>
      </trkpt>
      <trkpt lat="47.43122" lon="6.79596">
        <ele>482.9</ele>
        <time>2017-10-01T07:57:11Z</time>
      </trkpt>
      <trkpt lat="47.43118" lon="6.79593">
        <ele>483.5</ele>
        <time>2017-10-01T07:57:13Z</time>
      </trkpt>
      <trkpt lat="47.43116" lon="6.79592">
        <ele>483.7</ele>
        <time>2017-10-01T07:57:14Z</time>
      </trkpt>
      <trkpt lat="47.43112" lon="6.79592">
        <ele>484.2</ele>
        <time>2017-10-01T07:57:16Z</time>
      </trkpt>
      <trkpt lat="47.4311" lon="6.79592">
        <ele>484.6</ele>
        <time>2017-10-01T07:57:17Z</time>
      </trkpt>
      <trkpt lat="47.43106" lon="6.7959">
        <ele>485.3</ele>
        <time>2017-10-01T07:57:19Z</time>
      </trkpt>
      <trkpt lat="47.43104" lon="6.79588">
        <ele>485.8</ele>
        <time>2017-10-01T07:57:20Z</time>
      </trkpt>
      <trkpt lat="47.43101" lon="6.79586">
        <ele>486.1</ele>
        <time>2017-10-01T07:57:21Z</time>
      </trkpt>
      <trkpt lat="47.43098" lon="6.79585">
        <ele>486.3</ele>
        <time>2017-10-01T07:57:22Z</time>
      </trkpt>
      <trkpt lat="47.43095" lon="6.79583">
        <ele>486.5</ele>
        <time>2017-10-01T07:57:24Z</time>
      </trkpt>
      <trkpt lat="47.43094" lon="6.79582">
        <ele>486.5</ele>
        <time>2017-10-01T07:57:25Z</time>
      </trkpt>
      <trkpt lat="47.4309" lon="6.7958">
        <ele>486.6</ele>
        <time>2017-10-01T07:57:28Z</time>
      </trkpt>
      <trkpt lat="47.4309" lon="6.79579">
        <ele>486.7</ele>
        <time>2017-10-01T07:57:29Z</time>
      </trkpt>
      <trkpt lat="47.43086" lon="6.79576">
        <ele>486.8</ele>
        <time>2017-10-01T07:57:44Z</time>
      </trkpt>
      <trkpt lat="47.43085" lon="6.79576">
        <ele>486.8</ele>
        <time>2017-10-01T07:57:45Z</time>
      </trkpt>
      <trkpt lat="47.43086" lon="6.79569">
        <ele>487</ele>
        <time>2017-10-01T07:58:06Z</time>
      </trkpt>
      <trkpt lat="47.43088" lon="6.7957">
        <ele>487</ele>
        <time>2017-10-01T07:58:07Z</time>
      </trkpt>
      <trkpt lat="47.4309" lon="6.79564">
        <ele>487</ele>
        <time>2017-10-01T07:58:19Z</time>
      </trkpt>
      <trkpt lat="47.4309" lon="6.79563">
        <ele>487</ele>
        <time>2017-10-01T07:58:20Z</time>
      </trkpt>
      <trkpt lat="47.43087" lon="6.79559">
        <ele>487</ele>
        <time>2017-10-01T07:58:29Z</time>
      </trkpt>
      <trkpt lat="47.43085" lon="6.79561">
        <ele>487</ele>
        <time>2017-10-01T07:58:30Z</time>
      </trkpt>
      <trkpt lat="47.43082" lon="6.79564">
        <ele>486.9</ele>
        <time>2017-10-01T07:58:34Z</time>
      </trkpt>
      <trkpt lat="47.43081" lon="6.79564">
        <ele>486.9</ele>
        <time>2017-10-01T07:58:35Z</time>
      </trkpt>
      <trkpt lat="47.43078" lon="6.7957">
        <ele>486.8</ele>
        <time>2017-10-01T07:59:02Z</time>
      </trkpt>
      <trkpt lat="47.43079" lon="6.79571">
        <ele>486.8</ele>
        <time>2017-10-01T07:59:03Z</time>
      </trkpt>
      <trkpt lat="47.43081" lon="6.79577">
        <ele>486.8</ele>
        <time>2017-10-01T07:59:08Z</time>
      </trkpt>
      <trkpt lat="47.43081" lon="6.79578">
        <ele>486.9</ele>
        <time>2017-10-01T07:59:09Z</time>
      </trkpt>
      <trkpt lat="47.43083" lon="6.79583">
        <ele>487.1</ele>
        <time>2017-10-01T08:00:17Z</time>
      </trkpt>
      <trkpt lat="47.43083" lon="6.79584">
        <ele>487.1</ele>
        <time>2017-10-01T08:00:18Z</time>
      </trkpt>
      <trkpt lat="47.43087" lon="6.79581">
        <ele>487.4</ele>
        <time>2017-10-01T08:01:10Z</time>
      </trkpt>
      <trkpt lat="47.43087" lon="6.7958">
        <ele>487.4</ele>
        <time>2017-10-01T08:01:11Z</time>
      </trkpt>
      <trkpt lat="47.43084" lon="6.79576">
        <ele>487.3</ele>
        <time>2017-10-01T08:01:53Z</time>
      </trkpt>
      <trkpt lat="47.43084" lon="6.79574">
        <ele>487.3</ele>
        <time>2017-10-01T08:01:54Z</time>
      </trkpt>
      <trkpt lat="47.43082" lon="6.7958">
        <ele>487.3</ele>
        <time>2017-10-01T08:02:57Z</time>
      </trkpt>
      <trkpt lat="47.43083" lon="6.79581">
        <ele>487.2</ele>
        <time>2017-10-01T08:02:58Z</time>
      </trkpt>
      <trkpt lat="47.43082" lon="6.79587">
        <ele>487.2</ele>
        <time>2017-10-01T08:03:01Z</time>
      </trkpt>
      <trkpt lat="47.43081" lon="6.79589">
        <ele>487.2</ele>
        <time>2017-10-01T08:03:02Z</time>
      </trkpt>
      <trkpt lat="47.43078" lon="6.7959">
        <ele>487.2</ele>
        <time>2017-10-01T08:03:04Z</time>
      </trkpt>
      <trkpt lat="47.43076" lon="6.7959">
        <ele>487.2</ele>
        <time>2017-10-01T08:03:05Z</time>
      </trkpt>
      <trkpt lat="47.43073" lon="6.79588">
        <ele>487.2</ele>
        <time>2017-10-01T08:03:07Z</time>
      </trkpt>
      <trkpt lat="47.43071" lon="6.79589">
        <ele>487.2</ele>
        <time>2017-10-01T08:03:08Z</time>
      </trkpt>
      <trkpt lat="47.43068" lon="6.79592">
        <ele>487.2</ele>
        <time>2017-10-01T08:03:10Z</time>
      </trkpt>
      <trkpt lat="47.43065" lon="6.79591">
        <ele>487.2</ele>
        <time>2017-10-01T08:03:11Z</time>
      </trkpt>
      <trkpt lat="47.43062" lon="6.79592">
        <ele>487.2</ele>
        <time>2017-10-01T08:03:14Z</time>
      </trkpt>
      <trkpt lat="47.43061" lon="6.79593">
        <ele>487.2</ele>
        <time>2017-10-01T08:03:15Z</time>
      </trkpt>
      <trkpt lat="47.43057" lon="6.79593">
        <ele>487.1</ele>
        <time>2017-10-01T08:03:17Z</time>
      </trkpt>
      <trkpt lat="47.43055" lon="6.79593">
        <ele>487.1</ele>
        <time>2017-10-01T08:03:18Z</time>
      </trkpt>
      <trkpt lat="47.4305" lon="6.79593">
        <ele>486.7</ele>
        <time>2017-10-01T08:03:19Z</time>
      </trkpt>
      <trkpt lat="47.43046" lon="6.79592">
        <ele>486.4</ele>
        <time>2017-10-01T08:03:20Z</time>
      </trkpt>
      <trkpt lat="47.43042" lon="6.79591">
        <ele>486.2</ele>
        <time>2017-10-01T08:03:21Z</time>
      </trkpt>
      <trkpt lat="47.43039" lon="6.7959">
        <ele>486.1</ele>
        <time>2017-10-01T08:03:22Z</time>
      </trkpt>
      <trkpt lat="47.43038" lon="6.79588">
        <ele>486</ele>
        <time>2017-10-01T08:03:23Z</time>
      </trkpt>
      <trkpt lat="47.43035" lon="6.79585">
        <ele>486</ele>
        <time>2017-10-01T08:03:25Z</time>
      </trkpt>
      <trkpt lat="47.43034" lon="6.79583">
        <ele>486</ele>
        <time>2017-10-01T08:03:26Z</time>
      </trkpt>
      <trkpt lat="47.43031" lon="6.79582">
        <ele>485.9</ele>
        <time>2017-10-01T08:03:27Z</time>
      </trkpt>
      <trkpt lat="47.43029" lon="6.79581">
        <ele>485.9</ele>
        <time>2017-10-01T08:03:28Z</time>
      </trkpt>
      <trkpt lat="47.43026" lon="6.79581">
        <ele>485.9</ele>
        <time>2017-10-01T08:03:29Z</time>
      </trkpt>
      <trkpt lat="47.43024" lon="6.7958">
        <ele>485.8</ele>
        <time>2017-10-01T08:03:30Z</time>
      </trkpt>
      <trkpt lat="47.4302" lon="6.79579">
        <ele>485.7</ele>
        <time>2017-10-01T08:03:32Z</time>
      </trkpt>
      <trkpt lat="47.43018" lon="6.79578">
        <ele>485.7</ele>
        <time>2017-10-01T08:03:33Z</time>
      </trkpt>
      <trkpt lat="47.43016" lon="6.79578">
        <ele>485.7</ele>
        <time>2017-10-01T08:03:34Z</time>
      </trkpt>
      <trkpt lat="47.43013" lon="6.79577">
        <ele>485.9</ele>
        <time>2017-10-01T08:03:35Z</time>
      </trkpt>
      <trkpt lat="47.43009" lon="6.79579">
        <ele>486.1</ele>
        <time>2017-10-01T08:03:37Z</time>
      </trkpt>
      <trkpt lat="47.43008" lon="6.7958">
        <ele>486.1</ele>
        <time>2017-10-01T08:03:38Z</time>
      </trkpt>
      <trkpt lat="47.43008" lon="6.79585">
        <ele>486.4</ele>
        <time>2017-10-01T08:03:40Z</time>
      </trkpt>
      <trkpt lat="47.43008" lon="6.7959">
        <ele>486.5</ele>
        <time>2017-10-01T08:03:41Z</time>
      </trkpt>
      <trkpt lat="47.43006" lon="6.79594">
        <ele>486.7</ele>
        <time>2017-10-01T08:03:42Z</time>
      </trkpt>
      <trkpt lat="47.43004" lon="6.79596">
        <ele>486.8</ele>
        <time>2017-10-01T08:03:43Z</time>
      </trkpt>
      <trkpt lat="47.43001" lon="6.79596">
        <ele>487</ele>
        <time>2017-10-01T08:03:45Z</time>
      </trkpt>
      <trkpt lat="47.42999" lon="6.79595">
        <ele>487</ele>
        <time>2017-10-01T08:03:46Z</time>
      </trkpt>
      <trkpt lat="47.42996" lon="6.79595">
        <ele>487.1</ele>
        <time>2017-10-01T08:03:47Z</time>
      </trkpt>
      <trkpt lat="47.42994" lon="6.79594">
        <ele>487.1</ele>
        <time>2017-10-01T08:03:48Z</time>
      </trkpt>
      <trkpt lat="47.42991" lon="6.79594">
        <ele>487.1</ele>
        <time>2017-10-01T08:03:49Z</time>
      </trkpt>
      <trkpt lat="47.42988" lon="6.79593">
        <ele>487.1</ele>
        <time>2017-10-01T08:03:50Z</time>
      </trkpt>
      <trkpt lat="47.42984" lon="6.79593">
        <ele>487.1</ele>
        <time>2017-10-01T08:03:52Z</time>
      </trkpt>
      <trkpt lat="47.42982" lon="6.79592">
        <ele>487.1</ele>
        <time>2017-10-01T08:03:53Z</time>
      </trkpt>
      <trkpt lat="47.42978" lon="6.79592">
        <ele>487.1</ele>
        <time>2017-10-01T08:03:56Z</time>
      </trkpt>
      <trkpt lat="47.42977" lon="6.79591">
        <ele>487</ele>
        <time>2017-10-01T08:03:57Z</time>
      </trkpt>
      <trkpt lat="47.42974" lon="6.79591">
        <ele>487</ele>
        <time>2017-10-01T08:03:59Z</time>
      </trkpt>
      <trkpt lat="47.42972" lon="6.7959">
        <ele>487</ele>
        <time>2017-10-01T08:04:00Z</time>
      </trkpt>
      <trkpt lat="47.42967" lon="6.79588">
        <ele>486.9</ele>
        <time>2017-10-01T08:04:02Z</time>
      </trkpt>
      <trkpt lat="47.42965" lon="6.79588">
        <ele>486.8</ele>
        <time>2017-10-01T08:04:03Z</time>
      </trkpt>
      <trkpt lat="47.42963" lon="6.79588">
        <ele>486.7</ele>
        <time>2017-10-01T08:04:04Z</time>
      </trkpt>
      <trkpt lat="47.4296" lon="6.79588">
        <ele>486.6</ele>
        <time>2017-10-01T08:04:05Z</time>
      </trkpt>
      <trkpt lat="47.42957" lon="6.79589">
        <ele>486.5</ele>
        <time>2017-10-01T08:04:06Z</time>
      </trkpt>
      <trkpt lat="47.42954" lon="6.7959">
        <ele>486.4</ele>
        <time>2017-10-01T08:04:07Z</time>
      </trkpt>
      <trkpt lat="47.4295" lon="6.7959">
        <ele>486.3</ele>
        <time>2017-10-01T08:04:08Z</time>
      </trkpt>
      <trkpt lat="47.42946" lon="6.79591">
        <ele>486.2</ele>
        <time>2017-10-01T08:04:09Z</time>
      </trkpt>
      <trkpt lat="47.42943" lon="6.79591">
        <ele>486.2</ele>
        <time>2017-10-01T08:04:10Z</time>
      </trkpt>
      <trkpt lat="47.4294" lon="6.79589">
        <ele>486.1</ele>
        <time>2017-10-01T08:04:11Z</time>
      </trkpt>
      <trkpt lat="47.42938" lon="6.79588">
        <ele>486.1</ele>
        <time>2017-10-01T08:04:12Z</time>
      </trkpt>
      <trkpt lat="47.42936" lon="6.79587">
        <ele>486</ele>
        <time>2017-10-01T08:04:13Z</time>
      </trkpt>
      <trkpt lat="47.42931" lon="6.79586">
        <ele>485.9</ele>
        <time>2017-10-01T08:04:15Z</time>
      </trkpt>
      <trkpt lat="47.42929" lon="6.79585">
        <ele>485.9</ele>
        <time>2017-10-01T08:04:16Z</time>
      </trkpt>
      <trkpt lat="47.42926" lon="6.79584">
        <ele>485.8</ele>
        <time>2017-10-01T08:04:18Z</time>
      </trkpt>
      <trkpt lat="47.42925" lon="6.79583">
        <ele>485.8</ele>
        <time>2017-10-01T08:04:19Z</time>
      </trkpt>
      <trkpt lat="47.42922" lon="6.79581">
        <ele>485.6</ele>
        <time>2017-10-01T08:04:21Z</time>
      </trkpt>
      <trkpt lat="47.4292" lon="6.7958">
        <ele>485.6</ele>
        <time>2017-10-01T08:04:22Z</time>
      </trkpt>
      <trkpt lat="47.42917" lon="6.79578">
        <ele>485.4</ele>
        <time>2017-10-01T08:04:24Z</time>
      </trkpt>
      <trkpt lat="47.42915" lon="6.79578">
        <ele>485.3</ele>
        <time>2017-10-01T08:04:25Z</time>
      </trkpt>
      <trkpt lat="47.42912" lon="6.79576">
        <ele>485.1</ele>
        <time>2017-10-01T08:04:28Z</time>
      </trkpt>
      <trkpt lat="47.4291" lon="6.79576">
        <ele>485</ele>
        <time>2017-10-01T08:04:29Z</time>
      </trkpt>
      <trkpt lat="47.42906" lon="6.79577">
        <ele>484.8</ele>
        <time>2017-10-01T08:04:33Z</time>
      </trkpt>
      <trkpt lat="47.42905" lon="6.79577">
        <ele>484.7</ele>
        <time>2017-10-01T08:04:34Z</time>
      </trkpt>
      <trkpt lat="47.429" lon="6.79577">
        <ele>484.4</ele>
        <time>2017-10-01T08:04:36Z</time>
      </trkpt>
      <trkpt lat="47.42898" lon="6.79577">
        <ele>484.3</ele>
        <time>2017-10-01T08:04:37Z</time>
      </trkpt>
      <trkpt lat="47.42895" lon="6.79576">
        <ele>484.1</ele>
        <time>2017-10-01T08:04:38Z</time>
      </trkpt>
      <trkpt lat="47.42893" lon="6.79576">
        <ele>483.9</ele>
        <time>2017-10-01T08:04:39Z</time>
      </trkpt>
      <trkpt lat="47.42889" lon="6.79575">
        <ele>483.7</ele>
        <time>2017-10-01T08:04:41Z</time>
      </trkpt>
      <trkpt lat="47.42887" lon="6.79575">
        <ele>483.6</ele>
        <time>2017-10-01T08:04:42Z</time>
      </trkpt>
      <trkpt lat="47.42883" lon="6.79573">
        <ele>483.5</ele>
        <time>2017-10-01T08:04:46Z</time>
      </trkpt>
      <trkpt lat="47.42882" lon="6.79572">
        <ele>483.5</ele>
        <time>2017-10-01T08:04:47Z</time>
      </trkpt>
      <trkpt lat="47.42878" lon="6.79571">
        <ele>483.4</ele>
        <time>2017-10-01T08:04:48Z</time>
      </trkpt>
      <trkpt lat="47.42876" lon="6.7957">
        <ele>483.4</ele>
        <time>2017-10-01T08:04:49Z</time>
      </trkpt>
      <trkpt lat="47.42871" lon="6.79569">
        <ele>483.5</ele>
        <time>2017-10-01T08:04:51Z</time>
      </trkpt>
      <trkpt lat="47.42869" lon="6.79569">
        <ele>483.5</ele>
        <time>2017-10-01T08:04:52Z</time>
      </trkpt>
      <trkpt lat="47.42867" lon="6.79569">
        <ele>483.5</ele>
        <time>2017-10-01T08:04:53Z</time>
      </trkpt>
      <trkpt lat="47.42864" lon="6.7957">
        <ele>483.5</ele>
        <time>2017-10-01T08:04:54Z</time>
      </trkpt>
      <trkpt lat="47.4286" lon="6.79569">
        <ele>483.5</ele>
        <time>2017-10-01T08:04:56Z</time>
      </trkpt>
      <trkpt lat="47.42858" lon="6.79569">
        <ele>483.5</ele>
        <time>2017-10-01T08:04:57Z</time>
      </trkpt>
      <trkpt lat="47.42854" lon="6.79568">
        <ele>483.6</ele>
        <time>2017-10-01T08:05:00Z</time>
      </trkpt>
      <trkpt lat="47.42853" lon="6.79568">
        <ele>483.7</ele>
        <time>2017-10-01T08:05:01Z</time>
      </trkpt>
      <trkpt lat="47.4285" lon="6.79568">
        <ele>483.7</ele>
        <time>2017-10-01T08:05:03Z</time>
      </trkpt>
      <trkpt lat="47.42848" lon="6.79567">
        <ele>483.8</ele>
        <time>2017-10-01T08:05:04Z</time>
      </trkpt>
      <trkpt lat="47.42841" lon="6.79563">
        <ele>484.2</ele>
        <time>2017-10-01T08:05:07Z</time>
      </trkpt>
      <trkpt lat="47.42838" lon="6.79562">
        <ele>484.4</ele>
        <time>2017-10-01T08:05:08Z</time>
      </trkpt>
      <trkpt lat="47.42835" lon="6.79561">
        <ele>484.7</ele>
        <time>2017-10-01T08:05:15Z</time>
      </trkpt>
      <trkpt lat="47.42832" lon="6.79561">
        <ele>485.1</ele>
        <time>2017-10-01T08:05:16Z</time>
      </trkpt>
      <trkpt lat="47.42828" lon="6.7956">
        <ele>485.4</ele>
        <time>2017-10-01T08:05:17Z</time>
      </trkpt>
      <trkpt lat="47.42824" lon="6.79561">
        <ele>485.5</ele>
        <time>2017-10-01T08:05:18Z</time>
      </trkpt>
      <trkpt lat="47.42821" lon="6.79561">
        <ele>485.7</ele>
        <time>2017-10-01T08:05:19Z</time>
      </trkpt>
      <trkpt lat="47.42818" lon="6.79562">
        <ele>485.7</ele>
        <time>2017-10-01T08:05:20Z</time>
      </trkpt>
      <trkpt lat="47.42815" lon="6.79563">
        <ele>485.8</ele>
        <time>2017-10-01T08:05:21Z</time>
      </trkpt>
      <trkpt lat="47.42813" lon="6.79563">
        <ele>485.8</ele>
        <time>2017-10-01T08:05:22Z</time>
      </trkpt>
      <trkpt lat="47.42809" lon="6.79564">
        <ele>485.9</ele>
        <time>2017-10-01T08:05:24Z</time>
      </trkpt>
      <trkpt lat="47.42808" lon="6.79565">
        <ele>486</ele>
        <time>2017-10-01T08:05:25Z</time>
      </trkpt>
      <trkpt lat="47.42805" lon="6.79565">
        <ele>486</ele>
        <time>2017-10-01T08:05:26Z</time>
      </trkpt>
      <trkpt lat="47.42803" lon="6.79564">
        <ele>486</ele>
        <time>2017-10-01T08:05:27Z</time>
      </trkpt>
      <trkpt lat="47.428" lon="6.79563">
        <ele>486.1</ele>
        <time>2017-10-01T08:05:28Z</time>
      </trkpt>
      <trkpt lat="47.42798" lon="6.79562">
        <ele>486.1</ele>
        <time>2017-10-01T08:05:29Z</time>
      </trkpt>
      <trkpt lat="47.42794" lon="6.7956">
        <ele>486.1</ele>
        <time>2017-10-01T08:05:30Z</time>
      </trkpt>
      <trkpt lat="47.4279" lon="6.79559">
        <ele>486.2</ele>
        <time>2017-10-01T08:05:31Z</time>
      </trkpt>
      <trkpt lat="47.42787" lon="6.79558">
        <ele>486.2</ele>
        <time>2017-10-01T08:05:32Z</time>
      </trkpt>
      <trkpt lat="47.42783" lon="6.79557">
        <ele>486.2</ele>
        <time>2017-10-01T08:05:33Z</time>
      </trkpt>
      <trkpt lat="47.42779" lon="6.79556">
        <ele>486.3</ele>
        <time>2017-10-01T08:05:34Z</time>
      </trkpt>
      <trkpt lat="47.42776" lon="6.79557">
        <ele>486.3</ele>
        <time>2017-10-01T08:05:35Z</time>
      </trkpt>
      <trkpt lat="47.42773" lon="6.79557">
        <ele>486.3</ele>
        <time>2017-10-01T08:05:36Z</time>
      </trkpt>
      <trkpt lat="47.42769" lon="6.79558">
        <ele>486.3</ele>
        <time>2017-10-01T08:05:38Z</time>
      </trkpt>
      <trkpt lat="47.42766" lon="6.79558">
        <ele>486.3</ele>
        <time>2017-10-01T08:05:39Z</time>
      </trkpt>
      <trkpt lat="47.42762" lon="6.79559">
        <ele>486.4</ele>
        <time>2017-10-01T08:05:41Z</time>
      </trkpt>
      <trkpt lat="47.42759" lon="6.79558">
        <ele>486.4</ele>
        <time>2017-10-01T08:05:42Z</time>
      </trkpt>
      <trkpt lat="47.42757" lon="6.79557">
        <ele>486.4</ele>
        <time>2017-10-01T08:05:43Z</time>
      </trkpt>
      <trkpt lat="47.42753" lon="6.79556">
        <ele>486.4</ele>
        <time>2017-10-01T08:05:44Z</time>
      </trkpt>
      <trkpt lat="47.4275" lon="6.79554">
        <ele>486.4</ele>
        <time>2017-10-01T08:05:45Z</time>
      </trkpt>
      <trkpt lat="47.42746" lon="6.79554">
        <ele>486.4</ele>
        <time>2017-10-01T08:05:46Z</time>
      </trkpt>
      <trkpt lat="47.42743" lon="6.79554">
        <ele>486.4</ele>
        <time>2017-10-01T08:05:47Z</time>
      </trkpt>
      <trkpt lat="47.42741" lon="6.79555">
        <ele>486.4</ele>
        <time>2017-10-01T08:05:48Z</time>
      </trkpt>
      <trkpt lat="47.42737" lon="6.79555">
        <ele>486.4</ele>
        <time>2017-10-01T08:05:50Z</time>
      </trkpt>
      <trkpt lat="47.42735" lon="6.79556">
        <ele>486.4</ele>
        <time>2017-10-01T08:05:51Z</time>
      </trkpt>
      <trkpt lat="47.42731" lon="6.79556">
        <ele>486.4</ele>
        <time>2017-10-01T08:05:54Z</time>
      </trkpt>
      <trkpt lat="47.4273" lon="6.79556">
        <ele>486.4</ele>
        <time>2017-10-01T08:05:55Z</time>
      </trkpt>
      <trkpt lat="47.42726" lon="6.79556">
        <ele>486.4</ele>
        <time>2017-10-01T08:05:58Z</time>
      </trkpt>
      <trkpt lat="47.42725" lon="6.79555">
        <ele>486.4</ele>
        <time>2017-10-01T08:05:59Z</time>
      </trkpt>
      <trkpt lat="47.42721" lon="6.79554">
        <ele>486.4</ele>
        <time>2017-10-01T08:06:02Z</time>
      </trkpt>
      <trkpt lat="47.42719" lon="6.79555">
        <ele>486.3</ele>
        <time>2017-10-01T08:06:03Z</time>
      </trkpt>
      <trkpt lat="47.42715" lon="6.79556">
        <ele>486.3</ele>
        <time>2017-10-01T08:06:06Z</time>
      </trkpt>
      <trkpt lat="47.42714" lon="6.79556">
        <ele>486.3</ele>
        <time>2017-10-01T08:06:07Z</time>
      </trkpt>
      <trkpt lat="47.42711" lon="6.79555">
        <ele>486.2</ele>
        <time>2017-10-01T08:06:09Z</time>
      </trkpt>
      <trkpt lat="47.42709" lon="6.79555">
        <ele>486.2</ele>
        <time>2017-10-01T08:06:10Z</time>
      </trkpt>
      <trkpt lat="47.42706" lon="6.79554">
        <ele>486.2</ele>
        <time>2017-10-01T08:06:13Z</time>
      </trkpt>
      <trkpt lat="47.42704" lon="6.79554">
        <ele>486.1</ele>
        <time>2017-10-01T08:06:14Z</time>
      </trkpt>
      <trkpt lat="47.42701" lon="6.79553">
        <ele>486</ele>
        <time>2017-10-01T08:06:16Z</time>
      </trkpt>
      <trkpt lat="47.42699" lon="6.79552">
        <ele>486</ele>
        <time>2017-10-01T08:06:17Z</time>
      </trkpt>
      <trkpt lat="47.42696" lon="6.79551">
        <ele>485.9</ele>
        <time>2017-10-01T08:06:20Z</time>
      </trkpt>
      <trkpt lat="47.42695" lon="6.7955">
        <ele>485.9</ele>
        <time>2017-10-01T08:06:21Z</time>
      </trkpt>
      <trkpt lat="47.42691" lon="6.79551">
        <ele>485.7</ele>
        <time>2017-10-01T08:06:27Z</time>
      </trkpt>
      <trkpt lat="47.4269" lon="6.79552">
        <ele>485.7</ele>
        <time>2017-10-01T08:06:28Z</time>
      </trkpt>
      <trkpt lat="47.42686" lon="6.79553">
        <ele>485.6</ele>
        <time>2017-10-01T08:06:32Z</time>
      </trkpt>
      <trkpt lat="47.42685" lon="6.79553">
        <ele>485.5</ele>
        <time>2017-10-01T08:06:33Z</time>
      </trkpt>
      <trkpt lat="47.42682" lon="6.79551">
        <ele>485.5</ele>
        <time>2017-10-01T08:06:35Z</time>
      </trkpt>
      <trkpt lat="47.4268" lon="6.79551">
        <ele>485.4</ele>
        <time>2017-10-01T08:06:36Z</time>
      </trkpt>
      <trkpt lat="47.42677" lon="6.7955">
        <ele>485.4</ele>
        <time>2017-10-01T08:06:39Z</time>
      </trkpt>
      <trkpt lat="47.42675" lon="6.79551">
        <ele>485.4</ele>
        <time>2017-10-01T08:06:40Z</time>
      </trkpt>
      <trkpt lat="47.42671" lon="6.79551">
        <ele>485.3</ele>
        <time>2017-10-01T08:06:42Z</time>
      </trkpt>
      <trkpt lat="47.4267" lon="6.7955">
        <ele>485.3</ele>
        <time>2017-10-01T08:06:43Z</time>
      </trkpt>
      <trkpt lat="47.42666" lon="6.79548">
        <ele>485.3</ele>
        <time>2017-10-01T08:06:48Z</time>
      </trkpt>
      <trkpt lat="47.42665" lon="6.79547">
        <ele>485.3</ele>
        <time>2017-10-01T08:06:49Z</time>
      </trkpt>
      <trkpt lat="47.42661" lon="6.79547">
        <ele>485.4</ele>
        <time>2017-10-01T08:06:53Z</time>
      </trkpt>
      <trkpt lat="47.4266" lon="6.79547">
        <ele>485.4</ele>
        <time>2017-10-01T08:06:54Z</time>
      </trkpt>
      <trkpt lat="47.42656" lon="6.79547">
        <ele>485.4</ele>
        <time>2017-10-01T08:06:56Z</time>
      </trkpt>
      <trkpt lat="47.42654" lon="6.79546">
        <ele>485.4</ele>
        <time>2017-10-01T08:06:57Z</time>
      </trkpt>
      <trkpt lat="47.4265" lon="6.79547">
        <ele>485.4</ele>
        <time>2017-10-01T08:07:00Z</time>
      </trkpt>
      <trkpt lat="47.42649" lon="6.79547">
        <ele>485.4</ele>
        <time>2017-10-01T08:07:01Z</time>
      </trkpt>
      <trkpt lat="47.42646" lon="6.79547">
        <ele>485.5</ele>
        <time>2017-10-01T08:07:04Z</time>
      </trkpt>
      <trkpt lat="47.42643" lon="6.79546">
        <ele>485.5</ele>
        <time>2017-10-01T08:07:05Z</time>
      </trkpt>
      <trkpt lat="47.42639" lon="6.79545">
        <ele>485.6</ele>
        <time>2017-10-01T08:07:07Z</time>
      </trkpt>
      <trkpt lat="47.42638" lon="6.79546">
        <ele>485.6</ele>
        <time>2017-10-01T08:07:08Z</time>
      </trkpt>
      <trkpt lat="47.42634" lon="6.79545">
        <ele>485.7</ele>
        <time>2017-10-01T08:07:12Z</time>
      </trkpt>
      <trkpt lat="47.42633" lon="6.79544">
        <ele>485.7</ele>
        <time>2017-10-01T08:07:13Z</time>
      </trkpt>
      <trkpt lat="47.4263" lon="6.79542">
        <ele>485.8</ele>
        <time>2017-10-01T08:07:17Z</time>
      </trkpt>
      <trkpt lat="47.42627" lon="6.79542">
        <ele>485.9</ele>
        <time>2017-10-01T08:07:18Z</time>
      </trkpt>
      <trkpt lat="47.42623" lon="6.7954">
        <ele>486.1</ele>
        <time>2017-10-01T08:07:20Z</time>
      </trkpt>
      <trkpt lat="47.42621" lon="6.79538">
        <ele>486.3</ele>
        <time>2017-10-01T08:07:21Z</time>
      </trkpt>
      <trkpt lat="47.42617" lon="6.79537">
        <ele>486.7</ele>
        <time>2017-10-01T08:07:24Z</time>
      </trkpt>
      <trkpt lat="47.42615" lon="6.79537">
        <ele>486.8</ele>
        <time>2017-10-01T08:07:25Z</time>
      </trkpt>
      <trkpt lat="47.42611" lon="6.79536">
        <ele>487.3</ele>
        <time>2017-10-01T08:07:28Z</time>
      </trkpt>
      <trkpt lat="47.4261" lon="6.79537">
        <ele>487.4</ele>
        <time>2017-10-01T08:07:29Z</time>
      </trkpt>
      <trkpt lat="47.42606" lon="6.79537">
        <ele>487.6</ele>
        <time>2017-10-01T08:07:32Z</time>
      </trkpt>
      <trkpt lat="47.42604" lon="6.79536">
        <ele>487.7</ele>
        <time>2017-10-01T08:07:33Z</time>
      </trkpt>
      <trkpt lat="47.42602" lon="6.79536">
        <ele>487.7</ele>
        <time>2017-10-01T08:07:35Z</time>
      </trkpt>
      <trkpt lat="47.426" lon="6.79536">
        <ele>487.7</ele>
        <time>2017-10-01T08:07:36Z</time>
      </trkpt>
      <trkpt lat="47.42597" lon="6.79539">
        <ele>487.7</ele>
        <time>2017-10-01T08:07:38Z</time>
      </trkpt>
      <trkpt lat="47.42596" lon="6.79541">
        <ele>487.8</ele>
        <time>2017-10-01T08:07:39Z</time>
      </trkpt>
      <trkpt lat="47.42594" lon="6.79542">
        <ele>487.8</ele>
        <time>2017-10-01T08:07:41Z</time>
      </trkpt>
      <trkpt lat="47.42591" lon="6.79542">
        <ele>487.8</ele>
        <time>2017-10-01T08:07:42Z</time>
      </trkpt>
      <trkpt lat="47.42587" lon="6.79541">
        <ele>487.8</ele>
        <time>2017-10-01T08:07:44Z</time>
      </trkpt>
      <trkpt lat="47.42584" lon="6.7954">
        <ele>487.8</ele>
        <time>2017-10-01T08:07:45Z</time>
      </trkpt>
      <trkpt lat="47.42582" lon="6.7954">
        <ele>487.8</ele>
        <time>2017-10-01T08:07:46Z</time>
      </trkpt>
      <trkpt lat="47.42579" lon="6.79539">
        <ele>487.7</ele>
        <time>2017-10-01T08:07:47Z</time>
      </trkpt>
      <trkpt lat="47.42576" lon="6.79537">
        <ele>487.7</ele>
        <time>2017-10-01T08:07:49Z</time>
      </trkpt>
      <trkpt lat="47.42575" lon="6.79536">
        <ele>487.7</ele>
        <time>2017-10-01T08:07:50Z</time>
      </trkpt>
      <trkpt lat="47.42571" lon="6.79536">
        <ele>487.7</ele>
        <time>2017-10-01T08:07:53Z</time>
      </trkpt>
      <trkpt lat="47.4257" lon="6.79536">
        <ele>487.7</ele>
        <time>2017-10-01T08:07:54Z</time>
      </trkpt>
      <trkpt lat="47.42567" lon="6.79537">
        <ele>487.7</ele>
        <time>2017-10-01T08:07:55Z</time>
      </trkpt>
      <trkpt lat="47.42564" lon="6.79537">
        <ele>487.7</ele>
        <time>2017-10-01T08:07:56Z</time>
      </trkpt>
      <trkpt lat="47.42562" lon="6.79537">
        <ele>487.7</ele>
        <time>2017-10-01T08:07:57Z</time>
      </trkpt>
      <trkpt lat="47.42558" lon="6.79537">
        <ele>487.6</ele>
        <time>2017-10-01T08:07:58Z</time>
      </trkpt>
      <trkpt lat="47.42555" lon="6.79537">
        <ele>487.6</ele>
        <time>2017-10-01T08:08:00Z</time>
      </trkpt>
      <trkpt lat="47.42553" lon="6.79537">
        <ele>487.6</ele>
        <time>2017-10-01T08:08:01Z</time>
      </trkpt>
      <trkpt lat="47.42551" lon="6.79537">
        <ele>487.6</ele>
        <time>2017-10-01T08:08:02Z</time>
      </trkpt>
      <trkpt lat="47.42547" lon="6.79536">
        <ele>487.6</ele>
        <time>2017-10-01T08:08:03Z</time>
      </trkpt>
      <trkpt lat="47.42543" lon="6.79535">
        <ele>487.6</ele>
        <time>2017-10-01T08:08:05Z</time>
      </trkpt>
      <trkpt lat="47.42539" lon="6.79535">
        <ele>487.5</ele>
        <time>2017-10-01T08:08:06Z</time>
      </trkpt>
      <trkpt lat="47.42536" lon="6.79535">
        <ele>487.5</ele>
        <time>2017-10-01T08:08:07Z</time>
      </trkpt>
      <trkpt lat="47.42531" lon="6.79534">
        <ele>487.5</ele>
        <time>2017-10-01T08:08:08Z</time>
      </trkpt>
      <trkpt lat="47.42526" lon="6.79533">
        <ele>487.5</ele>
        <time>2017-10-01T08:08:09Z</time>
      </trkpt>
      <trkpt lat="47.42522" lon="6.79532">
        <ele>487.4</ele>
        <time>2017-10-01T08:08:10Z</time>
      </trkpt>
      <trkpt lat="47.42518" lon="6.79532">
        <ele>487.4</ele>
        <time>2017-10-01T08:08:11Z</time>
      </trkpt>
      <trkpt lat="47.42514" lon="6.79532">
        <ele>487.4</ele>
        <time>2017-10-01T08:08:12Z</time>
      </trkpt>
      <trkpt lat="47.4251" lon="6.79532">
        <ele>487.4</ele>
        <time>2017-10-01T08:08:13Z</time>
      </trkpt>
      <trkpt lat="47.42505" lon="6.79531">
        <ele>487.3</ele>
        <time>2017-10-01T08:08:14Z</time>
      </trkpt>
      <trkpt lat="47.425" lon="6.79527">
        <ele>487.1</ele>
        <time>2017-10-01T08:08:15Z</time>
      </trkpt>
      <trkpt lat="47.42494" lon="6.79525">
        <ele>487</ele>
        <time>2017-10-01T08:08:16Z</time>
      </trkpt>
      <trkpt lat="47.42488" lon="6.79524">
        <ele>486.8</ele>
        <time>2017-10-01T08:08:17Z</time>
      </trkpt>
      <trkpt lat="47.42482" lon="6.79524">
        <ele>486.8</ele>
        <time>2017-10-01T08:08:18Z</time>
      </trkpt>
      <trkpt lat="47.42476" lon="6.79526">
        <ele>486.7</ele>
        <time>2017-10-01T08:08:19Z</time>
      </trkpt>
      <trkpt lat="47.4247" lon="6.79528">
        <ele>486.6</ele>
        <time>2017-10-01T08:08:20Z</time>
      </trkpt>
      <trkpt lat="47.42464" lon="6.79528">
        <ele>486.5</ele>
        <time>2017-10-01T08:08:21Z</time>
      </trkpt>
      <trkpt lat="47.4246" lon="6.79528">
        <ele>486.5</ele>
        <time>2017-10-01T08:08:22Z</time>
      </trkpt>
      <trkpt lat="47.42457" lon="6.79528">
        <ele>486.4</ele>
        <time>2017-10-01T08:08:23Z</time>
      </trkpt>
      <trkpt lat="47.42453" lon="6.79526">
        <ele>486.3</ele>
        <time>2017-10-01T08:08:24Z</time>
      </trkpt>
      <trkpt lat="47.42448" lon="6.79523">
        <ele>486.1</ele>
        <time>2017-10-01T08:08:25Z</time>
      </trkpt>
      <trkpt lat="47.42441" lon="6.79521">
        <ele>485.8</ele>
        <time>2017-10-01T08:08:26Z</time>
      </trkpt>
      <trkpt lat="47.42434" lon="6.79521">
        <ele>485.7</ele>
        <time>2017-10-01T08:08:27Z</time>
      </trkpt>
      <trkpt lat="47.42427" lon="6.79518">
        <ele>485.7</ele>
        <time>2017-10-01T08:08:28Z</time>
      </trkpt>
      <trkpt lat="47.42418" lon="6.79515">
        <ele>485.7</ele>
        <time>2017-10-01T08:08:29Z</time>
      </trkpt>
      <trkpt lat="47.42412" lon="6.79515">
        <ele>485.7</ele>
        <time>2017-10-01T08:08:30Z</time>
      </trkpt>
      <trkpt lat="47.42407" lon="6.79514">
        <ele>485.7</ele>
        <time>2017-10-01T08:08:31Z</time>
      </trkpt>
      <trkpt lat="47.42401" lon="6.79513">
        <ele>485.7</ele>
        <time>2017-10-01T08:08:32Z</time>
      </trkpt>
      <trkpt lat="47.42397" lon="6.7951">
        <ele>485.7</ele>
        <time>2017-10-01T08:08:33Z</time>
      </trkpt>
      <trkpt lat="47.4239" lon="6.79506">
        <ele>485.7</ele>
        <time>2017-10-01T08:08:34Z</time>
      </trkpt>
      <trkpt lat="47.42387" lon="6.79505">
        <ele>485.7</ele>
        <time>2017-10-01T08:08:35Z</time>
      </trkpt>
      <trkpt lat="47.42379" lon="6.79505">
        <ele>485.7</ele>
        <time>2017-10-01T08:08:36Z</time>
      </trkpt>
      <trkpt lat="47.42372" lon="6.79501">
        <ele>485.6</ele>
        <time>2017-10-01T08:08:37Z</time>
      </trkpt>
      <trkpt lat="47.42368" lon="6.79499">
        <ele>485.6</ele>
        <time>2017-10-01T08:08:38Z</time>
      </trkpt>
      <trkpt lat="47.42364" lon="6.79497">
        <ele>485.5</ele>
        <time>2017-10-01T08:08:39Z</time>
      </trkpt>
      <trkpt lat="47.4236" lon="6.79497">
        <ele>485.5</ele>
        <time>2017-10-01T08:08:40Z</time>
      </trkpt>
      <trkpt lat="47.42355" lon="6.79495">
        <ele>485.4</ele>
        <time>2017-10-01T08:08:41Z</time>
      </trkpt>
      <trkpt lat="47.4235" lon="6.79494">
        <ele>485.1</ele>
        <time>2017-10-01T08:08:42Z</time>
      </trkpt>
      <trkpt lat="47.42346" lon="6.79492">
        <ele>485</ele>
        <time>2017-10-01T08:08:43Z</time>
      </trkpt>
      <trkpt lat="47.42343" lon="6.7949">
        <ele>484.8</ele>
        <time>2017-10-01T08:08:44Z</time>
      </trkpt>
      <trkpt lat="47.42337" lon="6.79488">
        <ele>484.5</ele>
        <time>2017-10-01T08:08:45Z</time>
      </trkpt>
      <trkpt lat="47.42331" lon="6.79486">
        <ele>484.3</ele>
        <time>2017-10-01T08:08:46Z</time>
      </trkpt>
      <trkpt lat="47.42324" lon="6.79486">
        <ele>484.1</ele>
        <time>2017-10-01T08:08:47Z</time>
      </trkpt>
      <trkpt lat="47.42316" lon="6.79487">
        <ele>483.8</ele>
        <time>2017-10-01T08:08:48Z</time>
      </trkpt>
      <trkpt lat="47.42311" lon="6.79489">
        <ele>483.6</ele>
        <time>2017-10-01T08:08:49Z</time>
      </trkpt>
      <trkpt lat="47.42308" lon="6.79491">
        <ele>483.5</ele>
        <time>2017-10-01T08:08:50Z</time>
      </trkpt>
      <trkpt lat="47.42301" lon="6.79493">
        <ele>483.3</ele>
        <time>2017-10-01T08:08:51Z</time>
      </trkpt>
      <trkpt lat="47.42295" lon="6.79491">
        <ele>483.2</ele>
        <time>2017-10-01T08:08:52Z</time>
      </trkpt>
      <trkpt lat="47.42291" lon="6.79488">
        <ele>483.2</ele>
        <time>2017-10-01T08:08:53Z</time>
      </trkpt>
      <trkpt lat="47.42284" lon="6.79488">
        <ele>483.1</ele>
        <time>2017-10-01T08:08:54Z</time>
      </trkpt>
      <trkpt lat="47.42281" lon="6.79487">
        <ele>483.1</ele>
        <time>2017-10-01T08:08:55Z</time>
      </trkpt>
      <trkpt lat="47.42277" lon="6.79485">
        <ele>483.2</ele>
        <time>2017-10-01T08:08:56Z</time>
      </trkpt>
      <trkpt lat="47.42272" lon="6.79484">
        <ele>483.2</ele>
        <time>2017-10-01T08:08:57Z</time>
      </trkpt>
      <trkpt lat="47.42267" lon="6.79482">
        <ele>483.2</ele>
        <time>2017-10-01T08:08:58Z</time>
      </trkpt>
      <trkpt lat="47.42263" lon="6.7948">
        <ele>483.3</ele>
        <time>2017-10-01T08:08:59Z</time>
      </trkpt>
      <trkpt lat="47.42261" lon="6.7948">
        <ele>483.3</ele>
        <time>2017-10-01T08:09:00Z</time>
      </trkpt>
      <trkpt lat="47.42261" lon="6.7948">
        <ele>483.3</ele>
        <time>2017-10-01T08:09:01Z</time>
      </trkpt>
      <trkpt lat="47.42257" lon="6.79476">
        <ele>483.3</ele>
        <time>2017-10-01T08:09:02Z</time>
      </trkpt>
      <trkpt lat="47.42254" lon="6.79474">
        <ele>483.4</ele>
        <time>2017-10-01T08:09:04Z</time>
      </trkpt>
      <trkpt lat="47.4225" lon="6.79474">
        <ele>483.4</ele>
        <time>2017-10-01T08:09:05Z</time>
      </trkpt>
      <trkpt lat="47.42247" lon="6.79475">
        <ele>483.5</ele>
        <time>2017-10-01T08:09:06Z</time>
      </trkpt>
      <trkpt lat="47.42244" lon="6.79475">
        <ele>483.5</ele>
        <time>2017-10-01T08:09:07Z</time>
      </trkpt>
      <trkpt lat="47.4224" lon="6.79476">
        <ele>483.6</ele>
        <time>2017-10-01T08:09:08Z</time>
      </trkpt>
      <trkpt lat="47.42236" lon="6.79477">
        <ele>483.7</ele>
        <time>2017-10-01T08:09:09Z</time>
      </trkpt>
      <trkpt lat="47.42233" lon="6.79477">
        <ele>483.7</ele>
        <time>2017-10-01T08:09:10Z</time>
      </trkpt>
      <trkpt lat="47.42229" lon="6.79476">
        <ele>483.8</ele>
        <time>2017-10-01T08:09:11Z</time>
      </trkpt>
      <trkpt lat="47.42224" lon="6.79475">
        <ele>483.9</ele>
        <time>2017-10-01T08:09:12Z</time>
      </trkpt>
      <trkpt lat="47.42221" lon="6.79474">
        <ele>484</ele>
        <time>2017-10-01T08:09:13Z</time>
      </trkpt>
      <trkpt lat="47.42218" lon="6.79475">
        <ele>484</ele>
        <time>2017-10-01T08:09:14Z</time>
      </trkpt>
      <trkpt lat="47.42215" lon="6.79474">
        <ele>484.1</ele>
        <time>2017-10-01T08:09:15Z</time>
      </trkpt>
      <trkpt lat="47.42211" lon="6.79474">
        <ele>484.2</ele>
        <time>2017-10-01T08:09:16Z</time>
      </trkpt>
      <trkpt lat="47.42205" lon="6.79473">
        <ele>484.9</ele>
        <time>2017-10-01T08:09:17Z</time>
      </trkpt>
      <trkpt lat="47.42201" lon="6.79474">
        <ele>485.5</ele>
        <time>2017-10-01T08:09:18Z</time>
      </trkpt>
      <trkpt lat="47.42196" lon="6.79476">
        <ele>485.8</ele>
        <time>2017-10-01T08:09:19Z</time>
      </trkpt>
      <trkpt lat="47.42194" lon="6.79477">
        <ele>485.9</ele>
        <time>2017-10-01T08:09:20Z</time>
      </trkpt>
      <trkpt lat="47.42191" lon="6.79477">
        <ele>486.1</ele>
        <time>2017-10-01T08:09:21Z</time>
      </trkpt>
      <trkpt lat="47.42188" lon="6.79477">
        <ele>486.2</ele>
        <time>2017-10-01T08:09:22Z</time>
      </trkpt>
      <trkpt lat="47.42184" lon="6.79476">
        <ele>486.4</ele>
        <time>2017-10-01T08:09:23Z</time>
      </trkpt>
      <trkpt lat="47.42181" lon="6.79476">
        <ele>486.6</ele>
        <time>2017-10-01T08:09:24Z</time>
      </trkpt>
      <trkpt lat="47.42178" lon="6.79476">
        <ele>486.7</ele>
        <time>2017-10-01T08:09:25Z</time>
      </trkpt>
      <trkpt lat="47.42176" lon="6.79477">
        <ele>486.8</ele>
        <time>2017-10-01T08:09:26Z</time>
      </trkpt>
      <trkpt lat="47.42173" lon="6.79476">
        <ele>487</ele>
        <time>2017-10-01T08:09:27Z</time>
      </trkpt>
      <trkpt lat="47.42168" lon="6.79475">
        <ele>487.3</ele>
        <time>2017-10-01T08:09:28Z</time>
      </trkpt>
      <trkpt lat="47.42163" lon="6.79473">
        <ele>488.1</ele>
        <time>2017-10-01T08:09:29Z</time>
      </trkpt>
      <trkpt lat="47.42157" lon="6.79472">
        <ele>488.6</ele>
        <time>2017-10-01T08:09:30Z</time>
      </trkpt>
      <trkpt lat="47.42154" lon="6.79472">
        <ele>488.8</ele>
        <time>2017-10-01T08:09:31Z</time>
      </trkpt>
      <trkpt lat="47.42151" lon="6.79471">
        <ele>488.9</ele>
        <time>2017-10-01T08:09:32Z</time>
      </trkpt>
      <trkpt lat="47.42149" lon="6.79469">
        <ele>489</ele>
        <time>2017-10-01T08:09:33Z</time>
      </trkpt>
      <trkpt lat="47.42147" lon="6.79467">
        <ele>489.1</ele>
        <time>2017-10-01T08:09:34Z</time>
      </trkpt>
      <trkpt lat="47.42145" lon="6.79467">
        <ele>489.2</ele>
        <time>2017-10-01T08:09:35Z</time>
      </trkpt>
      <trkpt lat="47.42142" lon="6.79467">
        <ele>489.3</ele>
        <time>2017-10-01T08:09:36Z</time>
      </trkpt>
      <trkpt lat="47.42139" lon="6.79466">
        <ele>489.5</ele>
        <time>2017-10-01T08:09:37Z</time>
      </trkpt>
      <trkpt lat="47.42135" lon="6.79465">
        <ele>489.7</ele>
        <time>2017-10-01T08:09:38Z</time>
      </trkpt>
      <trkpt lat="47.42132" lon="6.79465">
        <ele>489.8</ele>
        <time>2017-10-01T08:09:39Z</time>
      </trkpt>
      <trkpt lat="47.42129" lon="6.79465">
        <ele>490.1</ele>
        <time>2017-10-01T08:09:40Z</time>
      </trkpt>
      <trkpt lat="47.42126" lon="6.79464">
        <ele>490.6</ele>
        <time>2017-10-01T08:09:41Z</time>
      </trkpt>
      <trkpt lat="47.42122" lon="6.79464">
        <ele>491.1</ele>
        <time>2017-10-01T08:09:42Z</time>
      </trkpt>
      <trkpt lat="47.42118" lon="6.79464">
        <ele>491.5</ele>
        <time>2017-10-01T08:09:43Z</time>
      </trkpt>
      <trkpt lat="47.42116" lon="6.79464">
        <ele>491.7</ele>
        <time>2017-10-01T08:09:44Z</time>
      </trkpt>
      <trkpt lat="47.42113" lon="6.79464">
        <ele>491.9</ele>
        <time>2017-10-01T08:09:45Z</time>
      </trkpt>
      <trkpt lat="47.42111" lon="6.79463">
        <ele>492.2</ele>
        <time>2017-10-01T08:09:46Z</time>
      </trkpt>
      <trkpt lat="47.42106" lon="6.79464">
        <ele>492.7</ele>
        <time>2017-10-01T08:09:48Z</time>
      </trkpt>
      <trkpt lat="47.42102" lon="6.79466">
        <ele>493.3</ele>
        <time>2017-10-01T08:09:49Z</time>
      </trkpt>
      <trkpt lat="47.42099" lon="6.79467">
        <ele>493.7</ele>
        <time>2017-10-01T08:09:50Z</time>
      </trkpt>
      <trkpt lat="47.42097" lon="6.79467">
        <ele>494.1</ele>
        <time>2017-10-01T08:09:51Z</time>
      </trkpt>
      <trkpt lat="47.42094" lon="6.79468">
        <ele>494.3</ele>
        <time>2017-10-01T08:09:53Z</time>
      </trkpt>
      <trkpt lat="47.42089" lon="6.79467">
        <ele>494.7</ele>
        <time>2017-10-01T08:09:54Z</time>
      </trkpt>
      <trkpt lat="47.42086" lon="6.79471">
        <ele>495</ele>
        <time>2017-10-01T08:09:55Z</time>
      </trkpt>
      <trkpt lat="47.42085" lon="6.79472">
        <ele>495.1</ele>
        <time>2017-10-01T08:09:56Z</time>
      </trkpt>
      <trkpt lat="47.42081" lon="6.79472">
        <ele>495.7</ele>
        <time>2017-10-01T08:09:58Z</time>
      </trkpt>
      <trkpt lat="47.42078" lon="6.79472">
        <ele>496.2</ele>
        <time>2017-10-01T08:09:59Z</time>
      </trkpt>
      <trkpt lat="47.42076" lon="6.79475">
        <ele>496.7</ele>
        <time>2017-10-01T08:10:00Z</time>
      </trkpt>
      <trkpt lat="47.42073" lon="6.79478">
        <ele>496.8</ele>
        <time>2017-10-01T08:10:01Z</time>
      </trkpt>
      <trkpt lat="47.42071" lon="6.79479">
        <ele>497</ele>
        <time>2017-10-01T08:10:02Z</time>
      </trkpt>
      <trkpt lat="47.42068" lon="6.79479">
        <ele>497.1</ele>
        <time>2017-10-01T08:10:03Z</time>
      </trkpt>
      <trkpt lat="47.42066" lon="6.7948">
        <ele>497.2</ele>
        <time>2017-10-01T08:10:05Z</time>
      </trkpt>
      <trkpt lat="47.42063" lon="6.7948">
        <ele>497.3</ele>
        <time>2017-10-01T08:10:06Z</time>
      </trkpt>
      <trkpt lat="47.4206" lon="6.7948">
        <ele>497.5</ele>
        <time>2017-10-01T08:10:08Z</time>
      </trkpt>
      <trkpt lat="47.42057" lon="6.7948">
        <ele>497.6</ele>
        <time>2017-10-01T08:10:09Z</time>
      </trkpt>
      <trkpt lat="47.42054" lon="6.79481">
        <ele>497.7</ele>
        <time>2017-10-01T08:10:11Z</time>
      </trkpt>
      <trkpt lat="47.42053" lon="6.79482">
        <ele>497.8</ele>
        <time>2017-10-01T08:10:12Z</time>
      </trkpt>
      <trkpt lat="47.4205" lon="6.79483">
        <ele>498</ele>
        <time>2017-10-01T08:10:15Z</time>
      </trkpt>
      <trkpt lat="47.42048" lon="6.79486">
        <ele>498.1</ele>
        <time>2017-10-01T08:10:16Z</time>
      </trkpt>
      <trkpt lat="47.42045" lon="6.7949">
        <ele>498.3</ele>
        <time>2017-10-01T08:10:19Z</time>
      </trkpt>
      <trkpt lat="47.42043" lon="6.7949">
        <ele>498.3</ele>
        <time>2017-10-01T08:10:20Z</time>
      </trkpt>
      <trkpt lat="47.42041" lon="6.7949">
        <ele>498.3</ele>
        <time>2017-10-01T08:10:21Z</time>
      </trkpt>
      <trkpt lat="47.42037" lon="6.79491">
        <ele>498.4</ele>
        <time>2017-10-01T08:10:22Z</time>
      </trkpt>
      <trkpt lat="47.42032" lon="6.79491">
        <ele>498.5</ele>
        <time>2017-10-01T08:10:23Z</time>
      </trkpt>
      <trkpt lat="47.42028" lon="6.79491">
        <ele>498.5</ele>
        <time>2017-10-01T08:10:24Z</time>
      </trkpt>
      <trkpt lat="47.42024" lon="6.79491">
        <ele>498.9</ele>
        <time>2017-10-01T08:10:25Z</time>
      </trkpt>
      <trkpt lat="47.4202" lon="6.79488">
        <ele>499</ele>
        <time>2017-10-01T08:10:26Z</time>
      </trkpt>
      <trkpt lat="47.42017" lon="6.79487">
        <ele>499.1</ele>
        <time>2017-10-01T08:10:28Z</time>
      </trkpt>
      <trkpt lat="47.42015" lon="6.79486">
        <ele>498.4</ele>
        <time>2017-10-01T08:10:29Z</time>
      </trkpt>
      <trkpt lat="47.42011" lon="6.79482">
        <ele>497.5</ele>
        <time>2017-10-01T08:10:30Z</time>
      </trkpt>
      <trkpt lat="47.42009" lon="6.79483">
        <ele>497.4</ele>
        <time>2017-10-01T08:10:31Z</time>
      </trkpt>
      <trkpt lat="47.42005" lon="6.79485">
        <ele>498.3</ele>
        <time>2017-10-01T08:10:32Z</time>
      </trkpt>
      <trkpt lat="47.42002" lon="6.79488">
        <ele>499.1</ele>
        <time>2017-10-01T08:10:33Z</time>
      </trkpt>
      <trkpt lat="47.41998" lon="6.79489">
        <ele>499</ele>
        <time>2017-10-01T08:10:34Z</time>
      </trkpt>
      <trkpt lat="47.41994" lon="6.79489">
        <ele>498.9</ele>
        <time>2017-10-01T08:10:35Z</time>
      </trkpt>
      <trkpt lat="47.4199" lon="6.7949">
        <ele>498.7</ele>
        <time>2017-10-01T08:10:36Z</time>
      </trkpt>
      <trkpt lat="47.41986" lon="6.79491">
        <ele>498.1</ele>
        <time>2017-10-01T08:10:37Z</time>
      </trkpt>
      <trkpt lat="47.41983" lon="6.79495">
        <ele>498.4</ele>
        <time>2017-10-01T08:10:38Z</time>
      </trkpt>
      <trkpt lat="47.41978" lon="6.79499">
        <ele>498</ele>
        <time>2017-10-01T08:10:41Z</time>
      </trkpt>
      <trkpt lat="47.41975" lon="6.795">
        <ele>497.4</ele>
        <time>2017-10-01T08:10:42Z</time>
      </trkpt>
      <trkpt lat="47.41972" lon="6.79507">
        <ele>497.9</ele>
        <time>2017-10-01T08:10:43Z</time>
      </trkpt>
      <trkpt lat="47.41969" lon="6.79511">
        <ele>497.9</ele>
        <time>2017-10-01T08:10:44Z</time>
      </trkpt>
      <trkpt lat="47.41966" lon="6.79519">
        <ele>498.6</ele>
        <time>2017-10-01T08:10:45Z</time>
      </trkpt>
      <trkpt lat="47.41965" lon="6.79523">
        <ele>499</ele>
        <time>2017-10-01T08:10:46Z</time>
      </trkpt>
      <trkpt lat="47.41963" lon="6.79529">
        <ele>498.9</ele>
        <time>2017-10-01T08:10:47Z</time>
      </trkpt>
      <trkpt lat="47.4196" lon="6.79534">
        <ele>498.7</ele>
        <time>2017-10-01T08:10:48Z</time>
      </trkpt>
      <trkpt lat="47.41959" lon="6.79535">
        <ele>499.1</ele>
        <time>2017-10-01T08:10:49Z</time>
      </trkpt>
      <trkpt lat="47.41958" lon="6.79541">
        <ele>499</ele>
        <time>2017-10-01T08:10:52Z</time>
      </trkpt>
      <trkpt lat="47.41957" lon="6.79542">
        <ele>498.9</ele>
        <time>2017-10-01T08:10:53Z</time>
      </trkpt>
      <trkpt lat="47.41956" lon="6.79548">
        <ele>499.8</ele>
        <time>2017-10-01T08:10:58Z</time>
      </trkpt>
      <trkpt lat="47.41956" lon="6.79549">
        <ele>499.7</ele>
        <time>2017-10-01T08:10:59Z</time>
      </trkpt>
      <trkpt lat="47.41954" lon="6.79552">
        <ele>499.6</ele>
        <time>2017-10-01T08:11:02Z</time>
      </trkpt>
      <trkpt lat="47.41952" lon="6.79554">
        <ele>499.5</ele>
        <time>2017-10-01T08:11:03Z</time>
      </trkpt>
      <trkpt lat="47.41951" lon="6.79559">
        <ele>499.3</ele>
        <time>2017-10-01T08:11:05Z</time>
      </trkpt>
      <trkpt lat="47.41949" lon="6.79562">
        <ele>499.3</ele>
        <time>2017-10-01T08:11:06Z</time>
      </trkpt>
      <trkpt lat="47.41947" lon="6.79565">
        <ele>499.8</ele>
        <time>2017-10-01T08:11:07Z</time>
      </trkpt>
      <trkpt lat="47.41946" lon="6.79568">
        <ele>499.2</ele>
        <time>2017-10-01T08:11:08Z</time>
      </trkpt>
      <trkpt lat="47.41945" lon="6.79572">
        <ele>499.7</ele>
        <time>2017-10-01T08:11:09Z</time>
      </trkpt>
      <trkpt lat="47.41943" lon="6.79575">
        <ele>499.5</ele>
        <time>2017-10-01T08:11:10Z</time>
      </trkpt>
      <trkpt lat="47.41943" lon="6.79581">
        <ele>499.9</ele>
        <time>2017-10-01T08:11:11Z</time>
      </trkpt>
      <trkpt lat="47.41942" lon="6.79585">
        <ele>500.1</ele>
        <time>2017-10-01T08:11:12Z</time>
      </trkpt>
      <trkpt lat="47.41941" lon="6.7959">
        <ele>500.2</ele>
        <time>2017-10-01T08:11:13Z</time>
      </trkpt>
      <trkpt lat="47.41939" lon="6.79594">
        <ele>500.3</ele>
        <time>2017-10-01T08:11:14Z</time>
      </trkpt>
      <trkpt lat="47.41936" lon="6.79597">
        <ele>500.3</ele>
        <time>2017-10-01T08:11:15Z</time>
      </trkpt>
      <trkpt lat="47.41933" lon="6.79601">
        <ele>500.3</ele>
        <time>2017-10-01T08:11:16Z</time>
      </trkpt>
      <trkpt lat="47.41931" lon="6.79605">
        <ele>500.3</ele>
        <time>2017-10-01T08:11:17Z</time>
      </trkpt>
      <trkpt lat="47.41929" lon="6.79613">
        <ele>500.3</ele>
        <time>2017-10-01T08:11:18Z</time>
      </trkpt>
      <trkpt lat="47.41928" lon="6.79619">
        <ele>500.3</ele>
        <time>2017-10-01T08:11:19Z</time>
      </trkpt>
      <trkpt lat="47.41927" lon="6.79624">
        <ele>500.3</ele>
        <time>2017-10-01T08:11:20Z</time>
      </trkpt>
      <trkpt lat="47.41925" lon="6.79629">
        <ele>500.4</ele>
        <time>2017-10-01T08:11:21Z</time>
      </trkpt>
      <trkpt lat="47.41924" lon="6.79634">
        <ele>500.4</ele>
        <time>2017-10-01T08:11:22Z</time>
      </trkpt>
      <trkpt lat="47.41922" lon="6.79642">
        <ele>500.3</ele>
        <time>2017-10-01T08:11:23Z</time>
      </trkpt>
      <trkpt lat="47.4192" lon="6.79654">
        <ele>500.3</ele>
        <time>2017-10-01T08:11:24Z</time>
      </trkpt>
      <trkpt lat="47.41918" lon="6.79662">
        <ele>500.3</ele>
        <time>2017-10-01T08:11:25Z</time>
      </trkpt>
      <trkpt lat="47.41916" lon="6.79668">
        <ele>500.2</ele>
        <time>2017-10-01T08:11:26Z</time>
      </trkpt>
      <trkpt lat="47.41914" lon="6.79672">
        <ele>500.1</ele>
        <time>2017-10-01T08:11:27Z</time>
      </trkpt>
      <trkpt lat="47.41913" lon="6.79675">
        <ele>500.1</ele>
        <time>2017-10-01T08:11:28Z</time>
      </trkpt>
      <trkpt lat="47.41912" lon="6.79679">
        <ele>500</ele>
        <time>2017-10-01T08:11:29Z</time>
      </trkpt>
      <trkpt lat="47.41912" lon="6.79683">
        <ele>499.9</ele>
        <time>2017-10-01T08:11:30Z</time>
      </trkpt>
      <trkpt lat="47.41911" lon="6.79687">
        <ele>499.8</ele>
        <time>2017-10-01T08:11:31Z</time>
      </trkpt>
      <trkpt lat="47.4191" lon="6.79691">
        <ele>499.7</ele>
        <time>2017-10-01T08:11:32Z</time>
      </trkpt>
      <trkpt lat="47.41908" lon="6.79697">
        <ele>499.6</ele>
        <time>2017-10-01T08:11:33Z</time>
      </trkpt>
      <trkpt lat="47.41908" lon="6.79706">
        <ele>499.5</ele>
        <time>2017-10-01T08:11:34Z</time>
      </trkpt>
      <trkpt lat="47.41909" lon="6.79713">
        <ele>499.5</ele>
        <time>2017-10-01T08:11:35Z</time>
      </trkpt>
      <trkpt lat="47.4191" lon="6.79718">
        <ele>499.5</ele>
        <time>2017-10-01T08:11:36Z</time>
      </trkpt>
      <trkpt lat="47.4191" lon="6.79722">
        <ele>499.5</ele>
        <time>2017-10-01T08:11:37Z</time>
      </trkpt>
      <trkpt lat="47.4191" lon="6.79728">
        <ele>499.5</ele>
        <time>2017-10-01T08:11:38Z</time>
      </trkpt>
      <trkpt lat="47.4191" lon="6.79733">
        <ele>499.5</ele>
        <time>2017-10-01T08:11:39Z</time>
      </trkpt>
      <trkpt lat="47.41911" lon="6.79739">
        <ele>499.5</ele>
        <time>2017-10-01T08:11:40Z</time>
      </trkpt>
      <trkpt lat="47.41911" lon="6.79742">
        <ele>499.5</ele>
        <time>2017-10-01T08:11:41Z</time>
      </trkpt>
      <trkpt lat="47.4191" lon="6.79749">
        <ele>499.6</ele>
        <time>2017-10-01T08:11:42Z</time>
      </trkpt>
      <trkpt lat="47.41908" lon="6.79755">
        <ele>499.6</ele>
        <time>2017-10-01T08:11:44Z</time>
      </trkpt>
      <trkpt lat="47.41907" lon="6.79757">
        <ele>499.6</ele>
        <time>2017-10-01T08:11:45Z</time>
      </trkpt>
      <trkpt lat="47.41906" lon="6.7976">
        <ele>499.6</ele>
        <time>2017-10-01T08:11:46Z</time>
      </trkpt>
      <trkpt lat="47.41906" lon="6.79763">
        <ele>499.6</ele>
        <time>2017-10-01T08:11:47Z</time>
      </trkpt>
      <trkpt lat="47.41907" lon="6.79767">
        <ele>499.6</ele>
        <time>2017-10-01T08:11:48Z</time>
      </trkpt>
      <trkpt lat="47.41907" lon="6.79774">
        <ele>499.6</ele>
        <time>2017-10-01T08:11:49Z</time>
      </trkpt>
      <trkpt lat="47.41907" lon="6.7978">
        <ele>499.7</ele>
        <time>2017-10-01T08:11:51Z</time>
      </trkpt>
      <trkpt lat="47.41907" lon="6.79787">
        <ele>499.7</ele>
        <time>2017-10-01T08:11:52Z</time>
      </trkpt>
      <trkpt lat="47.41906" lon="6.79792">
        <ele>499.7</ele>
        <time>2017-10-01T08:11:53Z</time>
      </trkpt>
      <trkpt lat="47.41906" lon="6.79797">
        <ele>499.7</ele>
        <time>2017-10-01T08:11:54Z</time>
      </trkpt>
      <trkpt lat="47.41906" lon="6.79807">
        <ele>499.7</ele>
        <time>2017-10-01T08:11:55Z</time>
      </trkpt>
      <trkpt lat="47.41906" lon="6.79815">
        <ele>499.6</ele>
        <time>2017-10-01T08:11:56Z</time>
      </trkpt>
      <trkpt lat="47.41906" lon="6.79819">
        <ele>499.5</ele>
        <time>2017-10-01T08:11:57Z</time>
      </trkpt>
      <trkpt lat="47.41905" lon="6.79823">
        <ele>499.5</ele>
        <time>2017-10-01T08:11:58Z</time>
      </trkpt>
      <trkpt lat="47.41902" lon="6.79828">
        <ele>499.4</ele>
        <time>2017-10-01T08:11:59Z</time>
      </trkpt>
      <trkpt lat="47.41902" lon="6.79831">
        <ele>499.3</ele>
        <time>2017-10-01T08:12:00Z</time>
      </trkpt>
      <trkpt lat="47.41901" lon="6.79835">
        <ele>499.2</ele>
        <time>2017-10-01T08:12:01Z</time>
      </trkpt>
      <trkpt lat="47.41901" lon="6.7984">
        <ele>499.1</ele>
        <time>2017-10-01T08:12:02Z</time>
      </trkpt>
      <trkpt lat="47.419" lon="6.79846">
        <ele>498.9</ele>
        <time>2017-10-01T08:12:03Z</time>
      </trkpt>
      <trkpt lat="47.41903" lon="6.79859">
        <ele>498.8</ele>
        <time>2017-10-01T08:12:05Z</time>
      </trkpt>
      <trkpt lat="47.41902" lon="6.79863">
        <ele>498.8</ele>
        <time>2017-10-01T08:12:06Z</time>
      </trkpt>
      <trkpt lat="47.41902" lon="6.79871">
        <ele>498.8</ele>
        <time>2017-10-01T08:12:07Z</time>
      </trkpt>
      <trkpt lat="47.41902" lon="6.79875">
        <ele>498.8</ele>
        <time>2017-10-01T08:12:08Z</time>
      </trkpt>
      <trkpt lat="47.41902" lon="6.79878">
        <ele>498.8</ele>
        <time>2017-10-01T08:12:09Z</time>
      </trkpt>
      <trkpt lat="47.41902" lon="6.79885">
        <ele>498.8</ele>
        <time>2017-10-01T08:12:11Z</time>
      </trkpt>
      <trkpt lat="47.419" lon="6.79893">
        <ele>498.7</ele>
        <time>2017-10-01T08:12:12Z</time>
      </trkpt>
      <trkpt lat="47.419" lon="6.79896">
        <ele>498.7</ele>
        <time>2017-10-01T08:12:13Z</time>
      </trkpt>
      <trkpt lat="47.41898" lon="6.79903">
        <ele>498.7</ele>
        <time>2017-10-01T08:12:14Z</time>
      </trkpt>
      <trkpt lat="47.41896" lon="6.79907">
        <ele>498.7</ele>
        <time>2017-10-01T08:12:15Z</time>
      </trkpt>
      <trkpt lat="47.41894" lon="6.79917">
        <ele>498.6</ele>
        <time>2017-10-01T08:12:16Z</time>
      </trkpt>
      <trkpt lat="47.4189" lon="6.79926">
        <ele>498.5</ele>
        <time>2017-10-01T08:12:17Z</time>
      </trkpt>
      <trkpt lat="47.41885" lon="6.79932">
        <ele>498.4</ele>
        <time>2017-10-01T08:12:18Z</time>
      </trkpt>
      <trkpt lat="47.41882" lon="6.79938">
        <ele>498.2</ele>
        <time>2017-10-01T08:12:19Z</time>
      </trkpt>
      <trkpt lat="47.4188" lon="6.79947">
        <ele>497.8</ele>
        <time>2017-10-01T08:12:20Z</time>
      </trkpt>
      <trkpt lat="47.41878" lon="6.79957">
        <ele>497.5</ele>
        <time>2017-10-01T08:12:21Z</time>
      </trkpt>
      <trkpt lat="47.41876" lon="6.79964">
        <ele>497.3</ele>
        <time>2017-10-01T08:12:22Z</time>
      </trkpt>
      <trkpt lat="47.41873" lon="6.7997">
        <ele>497.2</ele>
        <time>2017-10-01T08:12:23Z</time>
      </trkpt>
      <trkpt lat="47.41872" lon="6.79978">
        <ele>497</ele>
        <time>2017-10-01T08:12:24Z</time>
      </trkpt>
      <trkpt lat="47.4187" lon="6.79986">
        <ele>496.8</ele>
        <time>2017-10-01T08:12:25Z</time>
      </trkpt>
      <trkpt lat="47.41868" lon="6.79997">
        <ele>496.4</ele>
        <time>2017-10-01T08:12:26Z</time>
      </trkpt>
      <trkpt lat="47.41865" lon="6.80003">
        <ele>496.1</ele>
        <time>2017-10-01T08:12:27Z</time>
      </trkpt>
      <trkpt lat="47.41861" lon="6.80012">
        <ele>495.7</ele>
        <time>2017-10-01T08:12:28Z</time>
      </trkpt>
      <trkpt lat="47.41857" lon="6.80017">
        <ele>495.5</ele>
        <time>2017-10-01T08:12:29Z</time>
      </trkpt>
      <trkpt lat="47.4185" lon="6.80022">
        <ele>495.2</ele>
        <time>2017-10-01T08:12:30Z</time>
      </trkpt>
      <trkpt lat="47.41842" lon="6.80029">
        <ele>494.8</ele>
        <time>2017-10-01T08:12:31Z</time>
      </trkpt>
      <trkpt lat="47.41839" lon="6.80035">
        <ele>494.6</ele>
        <time>2017-10-01T08:12:32Z</time>
      </trkpt>
      <trkpt lat="47.41835" lon="6.80043">
        <ele>494.3</ele>
        <time>2017-10-01T08:12:33Z</time>
      </trkpt>
      <trkpt lat="47.41832" lon="6.80047">
        <ele>494</ele>
        <time>2017-10-01T08:12:34Z</time>
      </trkpt>
      <trkpt lat="47.4183" lon="6.80048">
        <ele>494</ele>
        <time>2017-10-01T08:12:35Z</time>
      </trkpt>
      <trkpt lat="47.41827" lon="6.8005">
        <ele>493.9</ele>
        <time>2017-10-01T08:12:37Z</time>
      </trkpt>
      <trkpt lat="47.41825" lon="6.8005">
        <ele>493.8</ele>
        <time>2017-10-01T08:12:38Z</time>
      </trkpt>
      <trkpt lat="47.41822" lon="6.8005">
        <ele>493.8</ele>
        <time>2017-10-01T08:12:41Z</time>
      </trkpt>
      <trkpt lat="47.41819" lon="6.80049">
        <ele>493.9</ele>
        <time>2017-10-01T08:12:42Z</time>
      </trkpt>
      <trkpt lat="47.41815" lon="6.80048">
        <ele>494.1</ele>
        <time>2017-10-01T08:12:44Z</time>
      </trkpt>
      <trkpt lat="47.41812" lon="6.80045">
        <ele>494.2</ele>
        <time>2017-10-01T08:12:45Z</time>
      </trkpt>
      <trkpt lat="47.41808" lon="6.80042">
        <ele>494.3</ele>
        <time>2017-10-01T08:12:48Z</time>
      </trkpt>
      <trkpt lat="47.41806" lon="6.80041">
        <ele>494.3</ele>
        <time>2017-10-01T08:12:49Z</time>
      </trkpt>
      <trkpt lat="47.41804" lon="6.8004">
        <ele>494.3</ele>
        <time>2017-10-01T08:12:50Z</time>
      </trkpt>
      <trkpt lat="47.41802" lon="6.80038">
        <ele>494.5</ele>
        <time>2017-10-01T08:12:51Z</time>
      </trkpt>
      <trkpt lat="47.41799" lon="6.80036">
        <ele>494.8</ele>
        <time>2017-10-01T08:12:53Z</time>
      </trkpt>
      <trkpt lat="47.41797" lon="6.80035">
        <ele>495</ele>
        <time>2017-10-01T08:12:54Z</time>
      </trkpt>
      <trkpt lat="47.41793" lon="6.80034">
        <ele>495.4</ele>
        <time>2017-10-01T08:12:56Z</time>
      </trkpt>
      <trkpt lat="47.4179" lon="6.80034">
        <ele>495.7</ele>
        <time>2017-10-01T08:12:57Z</time>
      </trkpt>
      <trkpt lat="47.41787" lon="6.80036">
        <ele>496</ele>
        <time>2017-10-01T08:12:58Z</time>
      </trkpt>
      <trkpt lat="47.41786" lon="6.80037">
        <ele>496.2</ele>
        <time>2017-10-01T08:12:59Z</time>
      </trkpt>
      <trkpt lat="47.41783" lon="6.8004">
        <ele>496.4</ele>
        <time>2017-10-01T08:13:01Z</time>
      </trkpt>
      <trkpt lat="47.4178" lon="6.80042">
        <ele>496.6</ele>
        <time>2017-10-01T08:13:02Z</time>
      </trkpt>
      <trkpt lat="47.41777" lon="6.80044">
        <ele>496.8</ele>
        <time>2017-10-01T08:13:04Z</time>
      </trkpt>
      <trkpt lat="47.41776" lon="6.80044">
        <ele>496.8</ele>
        <time>2017-10-01T08:13:05Z</time>
      </trkpt>
      <trkpt lat="47.41772" lon="6.80044">
        <ele>497.1</ele>
        <time>2017-10-01T08:13:08Z</time>
      </trkpt>
      <trkpt lat="47.41771" lon="6.80044">
        <ele>497.1</ele>
        <time>2017-10-01T08:13:09Z</time>
      </trkpt>
      <trkpt lat="47.41767" lon="6.80043">
        <ele>497.4</ele>
        <time>2017-10-01T08:13:13Z</time>
      </trkpt>
      <trkpt lat="47.41766" lon="6.80044">
        <ele>497.4</ele>
        <time>2017-10-01T08:13:14Z</time>
      </trkpt>
      <trkpt lat="47.41762" lon="6.80045">
        <ele>497.4</ele>
        <time>2017-10-01T08:13:19Z</time>
      </trkpt>
      <trkpt lat="47.41761" lon="6.80045">
        <ele>497.5</ele>
        <time>2017-10-01T08:13:20Z</time>
      </trkpt>
      <trkpt lat="47.41757" lon="6.80043">
        <ele>497.5</ele>
        <time>2017-10-01T08:13:25Z</time>
      </trkpt>
      <trkpt lat="47.41755" lon="6.80042">
        <ele>497.4</ele>
        <time>2017-10-01T08:13:26Z</time>
      </trkpt>
      <trkpt lat="47.41751" lon="6.80041">
        <ele>497.4</ele>
        <time>2017-10-01T08:13:29Z</time>
      </trkpt>
      <trkpt lat="47.41749" lon="6.8004">
        <ele>497.3</ele>
        <time>2017-10-01T08:13:30Z</time>
      </trkpt>
      <trkpt lat="47.41745" lon="6.8004">
        <ele>497.3</ele>
        <time>2017-10-01T08:13:33Z</time>
      </trkpt>
      <trkpt lat="47.41744" lon="6.8004">
        <ele>497.3</ele>
        <time>2017-10-01T08:13:34Z</time>
      </trkpt>
      <trkpt lat="47.4174" lon="6.80041">
        <ele>497.2</ele>
        <time>2017-10-01T08:13:37Z</time>
      </trkpt>
      <trkpt lat="47.41739" lon="6.80041">
        <ele>497.2</ele>
        <time>2017-10-01T08:13:38Z</time>
      </trkpt>
      <trkpt lat="47.41735" lon="6.8004">
        <ele>497.4</ele>
        <time>2017-10-01T08:13:42Z</time>
      </trkpt>
      <trkpt lat="47.41734" lon="6.8004">
        <ele>497.5</ele>
        <time>2017-10-01T08:13:43Z</time>
      </trkpt>
      <trkpt lat="47.4173" lon="6.80039">
        <ele>497.7</ele>
        <time>2017-10-01T08:13:48Z</time>
      </trkpt>
      <trkpt lat="47.41729" lon="6.80039">
        <ele>497.6</ele>
        <time>2017-10-01T08:13:49Z</time>
      </trkpt>
      <trkpt lat="47.41726" lon="6.80038">
        <ele>497.9</ele>
        <time>2017-10-01T08:13:51Z</time>
      </trkpt>
      <trkpt lat="47.41724" lon="6.80039">
        <ele>497.8</ele>
        <time>2017-10-01T08:13:52Z</time>
      </trkpt>
      <trkpt lat="47.4172" lon="6.80039">
        <ele>497.9</ele>
        <time>2017-10-01T08:13:57Z</time>
      </trkpt>
      <trkpt lat="47.41718" lon="6.8004">
        <ele>498</ele>
        <time>2017-10-01T08:13:58Z</time>
      </trkpt>
      <trkpt lat="47.41714" lon="6.8004">
        <ele>498.4</ele>
        <time>2017-10-01T08:14:01Z</time>
      </trkpt>
      <trkpt lat="47.41712" lon="6.80041">
        <ele>498.4</ele>
        <time>2017-10-01T08:14:02Z</time>
      </trkpt>
      <trkpt lat="47.41707" lon="6.80041">
        <ele>499.4</ele>
        <time>2017-10-01T08:14:05Z</time>
      </trkpt>
      <trkpt lat="47.41706" lon="6.80041">
        <ele>499.3</ele>
        <time>2017-10-01T08:14:06Z</time>
      </trkpt>
      <trkpt lat="47.41703" lon="6.80041">
        <ele>499.7</ele>
        <time>2017-10-01T08:14:10Z</time>
      </trkpt>
      <trkpt lat="47.41702" lon="6.80041">
        <ele>500.2</ele>
        <time>2017-10-01T08:14:11Z</time>
      </trkpt>
      <trkpt lat="47.41698" lon="6.80042">
        <ele>500.7</ele>
        <time>2017-10-01T08:14:14Z</time>
      </trkpt>
      <trkpt lat="47.41697" lon="6.80042">
        <ele>501.2</ele>
        <time>2017-10-01T08:14:15Z</time>
      </trkpt>
      <trkpt lat="47.41693" lon="6.80043">
        <ele>501.8</ele>
        <time>2017-10-01T08:14:18Z</time>
      </trkpt>
      <trkpt lat="47.41692" lon="6.80042">
        <ele>501.7</ele>
        <time>2017-10-01T08:14:19Z</time>
      </trkpt>
      <trkpt lat="47.41687" lon="6.8004">
        <ele>502.6</ele>
        <time>2017-10-01T08:14:23Z</time>
      </trkpt>
      <trkpt lat="47.41686" lon="6.80038">
        <ele>502.5</ele>
        <time>2017-10-01T08:14:24Z</time>
      </trkpt>
      <trkpt lat="47.41683" lon="6.80035">
        <ele>502.7</ele>
        <time>2017-10-01T08:14:26Z</time>
      </trkpt>
      <trkpt lat="47.41681" lon="6.80033">
        <ele>503.5</ele>
        <time>2017-10-01T08:14:27Z</time>
      </trkpt>
      <trkpt lat="47.41679" lon="6.80028">
        <ele>503.3</ele>
        <time>2017-10-01T08:14:29Z</time>
      </trkpt>
      <trkpt lat="47.41678" lon="6.80026">
        <ele>503.2</ele>
        <time>2017-10-01T08:14:30Z</time>
      </trkpt>
      <trkpt lat="47.41675" lon="6.80023">
        <ele>503.3</ele>
        <time>2017-10-01T08:14:31Z</time>
      </trkpt>
      <trkpt lat="47.41673" lon="6.8002">
        <ele>504</ele>
        <time>2017-10-01T08:14:32Z</time>
      </trkpt>
      <trkpt lat="47.41671" lon="6.80017">
        <ele>503.1</ele>
        <time>2017-10-01T08:14:33Z</time>
      </trkpt>
      <trkpt lat="47.41669" lon="6.80014">
        <ele>502.9</ele>
        <time>2017-10-01T08:14:34Z</time>
      </trkpt>
      <trkpt lat="47.41668" lon="6.80012">
        <ele>502.8</ele>
        <time>2017-10-01T08:14:35Z</time>
      </trkpt>
      <trkpt lat="47.41666" lon="6.8001">
        <ele>502.5</ele>
        <time>2017-10-01T08:14:36Z</time>
      </trkpt>
      <trkpt lat="47.41665" lon="6.80008">
        <ele>503.1</ele>
        <time>2017-10-01T08:14:37Z</time>
      </trkpt>
      <trkpt lat="47.41663" lon="6.80004">
        <ele>502.2</ele>
        <time>2017-10-01T08:14:38Z</time>
      </trkpt>
      <trkpt lat="47.41662" lon="6.8">
        <ele>502.2</ele>
        <time>2017-10-01T08:14:39Z</time>
      </trkpt>
      <trkpt lat="47.41659" lon="6.79997">
        <ele>501.6</ele>
        <time>2017-10-01T08:14:40Z</time>
      </trkpt>
      <trkpt lat="47.41657" lon="6.79993">
        <ele>501.6</ele>
        <time>2017-10-01T08:14:41Z</time>
      </trkpt>
      <trkpt lat="47.41654" lon="6.79989">
        <ele>501.5</ele>
        <time>2017-10-01T08:14:42Z</time>
      </trkpt>
      <trkpt lat="47.41652" lon="6.79986">
        <ele>502.1</ele>
        <time>2017-10-01T08:14:43Z</time>
      </trkpt>
      <trkpt lat="47.4165" lon="6.79983">
        <ele>501.8</ele>
        <time>2017-10-01T08:14:44Z</time>
      </trkpt>
      <trkpt lat="47.41648" lon="6.79981">
        <ele>501</ele>
        <time>2017-10-01T08:14:45Z</time>
      </trkpt>
      <trkpt lat="47.41646" lon="6.79978">
        <ele>501.4</ele>
        <time>2017-10-01T08:14:46Z</time>
      </trkpt>
      <trkpt lat="47.41644" lon="6.79975">
        <ele>501.1</ele>
        <time>2017-10-01T08:14:47Z</time>
      </trkpt>
      <trkpt lat="47.41641" lon="6.79973">
        <ele>501.4</ele>
        <time>2017-10-01T08:14:48Z</time>
      </trkpt>
      <trkpt lat="47.41638" lon="6.7997">
        <ele>500.9</ele>
        <time>2017-10-01T08:14:49Z</time>
      </trkpt>
      <trkpt lat="47.41635" lon="6.79967">
        <ele>500.5</ele>
        <time>2017-10-01T08:14:50Z</time>
      </trkpt>
      <trkpt lat="47.41632" lon="6.79963">
        <ele>500.1</ele>
        <time>2017-10-01T08:14:51Z</time>
      </trkpt>
      <trkpt lat="47.4163" lon="6.79959">
        <ele>499.6</ele>
        <time>2017-10-01T08:14:52Z</time>
      </trkpt>
      <trkpt lat="47.41627" lon="6.79956">
        <ele>499.5</ele>
        <time>2017-10-01T08:14:53Z</time>
      </trkpt>
      <trkpt lat="47.41624" lon="6.79951">
        <ele>499.2</ele>
        <time>2017-10-01T08:14:54Z</time>
      </trkpt>
      <trkpt lat="47.4162" lon="6.79946">
        <ele>497.9</ele>
        <time>2017-10-01T08:14:55Z</time>
      </trkpt>
      <trkpt lat="47.41617" lon="6.7994">
        <ele>497.3</ele>
        <time>2017-10-01T08:14:56Z</time>
      </trkpt>
      <trkpt lat="47.41614" lon="6.79935">
        <ele>496.7</ele>
        <time>2017-10-01T08:14:57Z</time>
      </trkpt>
      <trkpt lat="47.41612" lon="6.79929">
        <ele>496.1</ele>
        <time>2017-10-01T08:14:58Z</time>
      </trkpt>
      <trkpt lat="47.41609" lon="6.79925">
        <ele>495.1</ele>
        <time>2017-10-01T08:14:59Z</time>
      </trkpt>
      <trkpt lat="47.41607" lon="6.7992">
        <ele>494.6</ele>
        <time>2017-10-01T08:15:00Z</time>
      </trkpt>
      <trkpt lat="47.41604" lon="6.79915">
        <ele>494.5</ele>
        <time>2017-10-01T08:15:01Z</time>
      </trkpt>
      <trkpt lat="47.41602" lon="6.7991">
        <ele>494.4</ele>
        <time>2017-10-01T08:15:02Z</time>
      </trkpt>
      <trkpt lat="47.41599" lon="6.79905">
        <ele>494.4</ele>
        <time>2017-10-01T08:15:03Z</time>
      </trkpt>
      <trkpt lat="47.41593" lon="6.79896">
        <ele>494.6</ele>
        <time>2017-10-01T08:15:05Z</time>
      </trkpt>
      <trkpt lat="47.41589" lon="6.7989">
        <ele>494.9</ele>
        <time>2017-10-01T08:15:06Z</time>
      </trkpt>
      <trkpt lat="47.41585" lon="6.79884">
        <ele>495.3</ele>
        <time>2017-10-01T08:15:07Z</time>
      </trkpt>
      <trkpt lat="47.41583" lon="6.79878">
        <ele>495.5</ele>
        <time>2017-10-01T08:15:08Z</time>
      </trkpt>
      <trkpt lat="47.4158" lon="6.79874">
        <ele>495.7</ele>
        <time>2017-10-01T08:15:09Z</time>
      </trkpt>
      <trkpt lat="47.41576" lon="6.79871">
        <ele>496</ele>
        <time>2017-10-01T08:15:10Z</time>
      </trkpt>
      <trkpt lat="47.41573" lon="6.7987">
        <ele>496.2</ele>
        <time>2017-10-01T08:15:11Z</time>
      </trkpt>
      <trkpt lat="47.41569" lon="6.79869">
        <ele>496.3</ele>
        <time>2017-10-01T08:15:12Z</time>
      </trkpt>
      <trkpt lat="47.41567" lon="6.79868">
        <ele>496.4</ele>
        <time>2017-10-01T08:15:13Z</time>
      </trkpt>
      <trkpt lat="47.41564" lon="6.79867">
        <ele>496.5</ele>
        <time>2017-10-01T08:15:14Z</time>
      </trkpt>
      <trkpt lat="47.4156" lon="6.79866">
        <ele>496.5</ele>
        <time>2017-10-01T08:15:15Z</time>
      </trkpt>
      <trkpt lat="47.41554" lon="6.79865">
        <ele>496.7</ele>
        <time>2017-10-01T08:15:16Z</time>
      </trkpt>
      <trkpt lat="47.41551" lon="6.79863">
        <ele>496.8</ele>
        <time>2017-10-01T08:15:17Z</time>
      </trkpt>
      <trkpt lat="47.41548" lon="6.79862">
        <ele>497</ele>
        <time>2017-10-01T08:15:18Z</time>
      </trkpt>
      <trkpt lat="47.41546" lon="6.79861">
        <ele>497</ele>
        <time>2017-10-01T08:15:19Z</time>
      </trkpt>
      <trkpt lat="47.41544" lon="6.7986">
        <ele>497</ele>
        <time>2017-10-01T08:15:20Z</time>
      </trkpt>
      <trkpt lat="47.41541" lon="6.79859">
        <ele>497</ele>
        <time>2017-10-01T08:15:21Z</time>
      </trkpt>
      <trkpt lat="47.41538" lon="6.79859">
        <ele>497.1</ele>
        <time>2017-10-01T08:15:22Z</time>
      </trkpt>
      <trkpt lat="47.41535" lon="6.79858">
        <ele>497.2</ele>
        <time>2017-10-01T08:15:23Z</time>
      </trkpt>
      <trkpt lat="47.41531" lon="6.79858">
        <ele>497.4</ele>
        <time>2017-10-01T08:15:24Z</time>
      </trkpt>
      <trkpt lat="47.41528" lon="6.79858">
        <ele>497.4</ele>
        <time>2017-10-01T08:15:25Z</time>
      </trkpt>
      <trkpt lat="47.41525" lon="6.79857">
        <ele>497.2</ele>
        <time>2017-10-01T08:15:26Z</time>
      </trkpt>
      <trkpt lat="47.41523" lon="6.79857">
        <ele>497.1</ele>
        <time>2017-10-01T08:15:27Z</time>
      </trkpt>
      <trkpt lat="47.41521" lon="6.79857">
        <ele>497</ele>
        <time>2017-10-01T08:15:28Z</time>
      </trkpt>
      <trkpt lat="47.41518" lon="6.79856">
        <ele>497.1</ele>
        <time>2017-10-01T08:15:29Z</time>
      </trkpt>
      <trkpt lat="47.41515" lon="6.79856">
        <ele>497.2</ele>
        <time>2017-10-01T08:15:30Z</time>
      </trkpt>
      <trkpt lat="47.41513" lon="6.79856">
        <ele>497.2</ele>
        <time>2017-10-01T08:15:31Z</time>
      </trkpt>
      <trkpt lat="47.41511" lon="6.79855">
        <ele>497.1</ele>
        <time>2017-10-01T08:15:32Z</time>
      </trkpt>
      <trkpt lat="47.41508" lon="6.79854">
        <ele>496.8</ele>
        <time>2017-10-01T08:15:33Z</time>
      </trkpt>
      <trkpt lat="47.41505" lon="6.79852">
        <ele>496.6</ele>
        <time>2017-10-01T08:15:34Z</time>
      </trkpt>
      <trkpt lat="47.41501" lon="6.79851">
        <ele>496.3</ele>
        <time>2017-10-01T08:15:36Z</time>
      </trkpt>
      <trkpt lat="47.41499" lon="6.7985">
        <ele>496.2</ele>
        <time>2017-10-01T08:15:37Z</time>
      </trkpt>
      <trkpt lat="47.41497" lon="6.79849">
        <ele>496.1</ele>
        <time>2017-10-01T08:15:38Z</time>
      </trkpt>
      <trkpt lat="47.41495" lon="6.79849">
        <ele>496</ele>
        <time>2017-10-01T08:15:39Z</time>
      </trkpt>
      <trkpt lat="47.41491" lon="6.79847">
        <ele>496.1</ele>
        <time>2017-10-01T08:15:41Z</time>
      </trkpt>
      <trkpt lat="47.41489" lon="6.79846">
        <ele>496.1</ele>
        <time>2017-10-01T08:15:42Z</time>
      </trkpt>
      <trkpt lat="47.41486" lon="6.79843">
        <ele>496.1</ele>
        <time>2017-10-01T08:15:43Z</time>
      </trkpt>
      <trkpt lat="47.41483" lon="6.79842">
        <ele>496.2</ele>
        <time>2017-10-01T08:15:44Z</time>
      </trkpt>
      <trkpt lat="47.41482" lon="6.7984">
        <ele>496.2</ele>
        <time>2017-10-01T08:15:45Z</time>
      </trkpt>
      <trkpt lat="47.4148" lon="6.79838">
        <ele>496.2</ele>
        <time>2017-10-01T08:15:46Z</time>
      </trkpt>
      <trkpt lat="47.41477" lon="6.79835">
        <ele>496.1</ele>
        <time>2017-10-01T08:15:47Z</time>
      </trkpt>
      <trkpt lat="47.41474" lon="6.79833">
        <ele>496</ele>
        <time>2017-10-01T08:15:48Z</time>
      </trkpt>
      <trkpt lat="47.41472" lon="6.79831">
        <ele>495.9</ele>
        <time>2017-10-01T08:15:49Z</time>
      </trkpt>
      <trkpt lat="47.41469" lon="6.79828">
        <ele>495.8</ele>
        <time>2017-10-01T08:15:50Z</time>
      </trkpt>
      <trkpt lat="47.41466" lon="6.79825">
        <ele>495.7</ele>
        <time>2017-10-01T08:15:51Z</time>
      </trkpt>
      <trkpt lat="47.41463" lon="6.79823">
        <ele>495.8</ele>
        <time>2017-10-01T08:15:52Z</time>
      </trkpt>
      <trkpt lat="47.41459" lon="6.7982">
        <ele>495.9</ele>
        <time>2017-10-01T08:15:53Z</time>
      </trkpt>
      <trkpt lat="47.41457" lon="6.79819">
        <ele>496</ele>
        <time>2017-10-01T08:15:54Z</time>
      </trkpt>
      <trkpt lat="47.41454" lon="6.79817">
        <ele>496.3</ele>
        <time>2017-10-01T08:15:55Z</time>
      </trkpt>
      <trkpt lat="47.41452" lon="6.79816">
        <ele>496.6</ele>
        <time>2017-10-01T08:15:56Z</time>
      </trkpt>
      <trkpt lat="47.41449" lon="6.79814">
        <ele>496.9</ele>
        <time>2017-10-01T08:15:57Z</time>
      </trkpt>
      <trkpt lat="47.41446" lon="6.79813">
        <ele>497.3</ele>
        <time>2017-10-01T08:15:58Z</time>
      </trkpt>
      <trkpt lat="47.41444" lon="6.79811">
        <ele>497.7</ele>
        <time>2017-10-01T08:15:59Z</time>
      </trkpt>
      <trkpt lat="47.41441" lon="6.7981">
        <ele>498.1</ele>
        <time>2017-10-01T08:16:00Z</time>
      </trkpt>
      <trkpt lat="47.41438" lon="6.79809">
        <ele>498.6</ele>
        <time>2017-10-01T08:16:01Z</time>
      </trkpt>
      <trkpt lat="47.41435" lon="6.79808">
        <ele>499</ele>
        <time>2017-10-01T08:16:02Z</time>
      </trkpt>
      <trkpt lat="47.41433" lon="6.79808">
        <ele>499.4</ele>
        <time>2017-10-01T08:16:03Z</time>
      </trkpt>
      <trkpt lat="47.41429" lon="6.79809">
        <ele>499.8</ele>
        <time>2017-10-01T08:16:05Z</time>
      </trkpt>
      <trkpt lat="47.41425" lon="6.79811">
        <ele>499.9</ele>
        <time>2017-10-01T08:16:09Z</time>
      </trkpt>
      <trkpt lat="47.41424" lon="6.79811">
        <ele>500</ele>
        <time>2017-10-01T08:16:10Z</time>
      </trkpt>
      <trkpt lat="47.4142" lon="6.7981">
        <ele>500.4</ele>
        <time>2017-10-01T08:16:12Z</time>
      </trkpt>
      <trkpt lat="47.41418" lon="6.7981">
        <ele>500.6</ele>
        <time>2017-10-01T08:16:13Z</time>
      </trkpt>
      <trkpt lat="47.41415" lon="6.79809">
        <ele>501.2</ele>
        <time>2017-10-01T08:16:15Z</time>
      </trkpt>
      <trkpt lat="47.41413" lon="6.79808">
        <ele>501.4</ele>
        <time>2017-10-01T08:16:16Z</time>
      </trkpt>
      <trkpt lat="47.41409" lon="6.79805">
        <ele>502.5</ele>
        <time>2017-10-01T08:16:19Z</time>
      </trkpt>
      <trkpt lat="47.41408" lon="6.79804">
        <ele>502.9</ele>
        <time>2017-10-01T08:16:20Z</time>
      </trkpt>
      <trkpt lat="47.41404" lon="6.79803">
        <ele>503.8</ele>
        <time>2017-10-01T08:16:22Z</time>
      </trkpt>
      <trkpt lat="47.41402" lon="6.79802">
        <ele>504.3</ele>
        <time>2017-10-01T08:16:23Z</time>
      </trkpt>
      <trkpt lat="47.41399" lon="6.798">
        <ele>505.2</ele>
        <time>2017-10-01T08:16:25Z</time>
      </trkpt>
      <trkpt lat="47.41397" lon="6.79799">
        <ele>505.7</ele>
        <time>2017-10-01T08:16:26Z</time>
      </trkpt>
      <trkpt lat="47.41395" lon="6.79797">
        <ele>506.4</ele>
        <time>2017-10-01T08:16:27Z</time>
      </trkpt>
      <trkpt lat="47.41393" lon="6.79795">
        <ele>507.4</ele>
        <time>2017-10-01T08:16:28Z</time>
      </trkpt>
      <trkpt lat="47.4139" lon="6.79792">
        <ele>508.7</ele>
        <time>2017-10-01T08:16:30Z</time>
      </trkpt>
      <trkpt lat="47.41389" lon="6.79791">
        <ele>509.1</ele>
        <time>2017-10-01T08:16:31Z</time>
      </trkpt>
      <trkpt lat="47.41386" lon="6.79788">
        <ele>508.9</ele>
        <time>2017-10-01T08:16:33Z</time>
      </trkpt>
      <trkpt lat="47.41385" lon="6.79787">
        <ele>508.8</ele>
        <time>2017-10-01T08:16:34Z</time>
      </trkpt>
      <trkpt lat="47.41381" lon="6.79785">
        <ele>508.7</ele>
        <time>2017-10-01T08:16:36Z</time>
      </trkpt>
      <trkpt lat="47.41379" lon="6.79784">
        <ele>508.9</ele>
        <time>2017-10-01T08:16:37Z</time>
      </trkpt>
      <trkpt lat="47.41375" lon="6.79782">
        <ele>509.1</ele>
        <time>2017-10-01T08:16:39Z</time>
      </trkpt>
      <trkpt lat="47.41374" lon="6.79782">
        <ele>509.1</ele>
        <time>2017-10-01T08:16:40Z</time>
      </trkpt>
      <trkpt lat="47.4137" lon="6.7978">
        <ele>508.7</ele>
        <time>2017-10-01T08:16:42Z</time>
      </trkpt>
      <trkpt lat="47.41369" lon="6.79779">
        <ele>508.5</ele>
        <time>2017-10-01T08:16:43Z</time>
      </trkpt>
      <trkpt lat="47.41367" lon="6.79777">
        <ele>508.2</ele>
        <time>2017-10-01T08:16:46Z</time>
      </trkpt>
      <trkpt lat="47.41365" lon="6.79775">
        <ele>508.2</ele>
        <time>2017-10-01T08:16:47Z</time>
      </trkpt>
      <trkpt lat="47.41362" lon="6.79772">
        <ele>508.2</ele>
        <time>2017-10-01T08:16:49Z</time>
      </trkpt>
      <trkpt lat="47.4136" lon="6.7977">
        <ele>508.2</ele>
        <time>2017-10-01T08:16:50Z</time>
      </trkpt>
      <trkpt lat="47.41358" lon="6.79768">
        <ele>507.9</ele>
        <time>2017-10-01T08:16:51Z</time>
      </trkpt>
      <trkpt lat="47.41355" lon="6.79768">
        <ele>507.5</ele>
        <time>2017-10-01T08:16:52Z</time>
      </trkpt>
      <trkpt lat="47.41352" lon="6.79765">
        <ele>507</ele>
        <time>2017-10-01T08:16:55Z</time>
      </trkpt>
      <trkpt lat="47.4135" lon="6.79764">
        <ele>506.8</ele>
        <time>2017-10-01T08:16:56Z</time>
      </trkpt>
      <trkpt lat="47.41347" lon="6.79761">
        <ele>506.5</ele>
        <time>2017-10-01T08:16:58Z</time>
      </trkpt>
      <trkpt lat="47.41345" lon="6.79759">
        <ele>506.2</ele>
        <time>2017-10-01T08:16:59Z</time>
      </trkpt>
      <trkpt lat="47.41343" lon="6.79757">
        <ele>505.9</ele>
        <time>2017-10-01T08:17:00Z</time>
      </trkpt>
      <trkpt lat="47.41341" lon="6.79755">
        <ele>505.7</ele>
        <time>2017-10-01T08:17:01Z</time>
      </trkpt>
      <trkpt lat="47.41339" lon="6.79753">
        <ele>505.5</ele>
        <time>2017-10-01T08:17:02Z</time>
      </trkpt>
      <trkpt lat="47.41337" lon="6.79751">
        <ele>504.6</ele>
        <time>2017-10-01T08:17:03Z</time>
      </trkpt>
      <trkpt lat="47.41334" lon="6.79749">
        <ele>503.7</ele>
        <time>2017-10-01T08:17:04Z</time>
      </trkpt>
      <trkpt lat="47.41333" lon="6.79746">
        <ele>502.7</ele>
        <time>2017-10-01T08:17:05Z</time>
      </trkpt>
      <trkpt lat="47.41331" lon="6.79743">
        <ele>501.8</ele>
        <time>2017-10-01T08:17:06Z</time>
      </trkpt>
      <trkpt lat="47.41328" lon="6.79741">
        <ele>500.8</ele>
        <time>2017-10-01T08:17:07Z</time>
      </trkpt>
      <trkpt lat="47.41325" lon="6.79739">
        <ele>499.9</ele>
        <time>2017-10-01T08:17:08Z</time>
      </trkpt>
      <trkpt lat="47.41324" lon="6.79738">
        <ele>499.8</ele>
        <time>2017-10-01T08:17:09Z</time>
      </trkpt>
      <trkpt lat="47.41321" lon="6.79736">
        <ele>499.6</ele>
        <time>2017-10-01T08:17:10Z</time>
      </trkpt>
      <trkpt lat="47.41318" lon="6.79733">
        <ele>499.3</ele>
        <time>2017-10-01T08:17:11Z</time>
      </trkpt>
      <trkpt lat="47.41316" lon="6.79731">
        <ele>499</ele>
        <time>2017-10-01T08:17:12Z</time>
      </trkpt>
      <trkpt lat="47.41313" lon="6.79729">
        <ele>498.6</ele>
        <time>2017-10-01T08:17:13Z</time>
      </trkpt>
      <trkpt lat="47.4131" lon="6.79727">
        <ele>498.7</ele>
        <time>2017-10-01T08:17:14Z</time>
      </trkpt>
      <trkpt lat="47.41307" lon="6.79725">
        <ele>498.9</ele>
        <time>2017-10-01T08:17:15Z</time>
      </trkpt>
      <trkpt lat="47.41303" lon="6.79723">
        <ele>499.1</ele>
        <time>2017-10-01T08:17:17Z</time>
      </trkpt>
      <trkpt lat="47.41301" lon="6.79724">
        <ele>499.2</ele>
        <time>2017-10-01T08:17:18Z</time>
      </trkpt>
      <trkpt lat="47.41298" lon="6.79724">
        <ele>499.8</ele>
        <time>2017-10-01T08:17:19Z</time>
      </trkpt>
      <trkpt lat="47.41295" lon="6.79725">
        <ele>500.8</ele>
        <time>2017-10-01T08:17:20Z</time>
      </trkpt>
      <trkpt lat="47.41291" lon="6.79727">
        <ele>501</ele>
        <time>2017-10-01T08:17:25Z</time>
      </trkpt>
      <trkpt lat="47.41289" lon="6.79727">
        <ele>501</ele>
        <time>2017-10-01T08:17:26Z</time>
      </trkpt>
      <trkpt lat="47.41286" lon="6.79726">
        <ele>501</ele>
        <time>2017-10-01T08:17:27Z</time>
      </trkpt>
      <trkpt lat="47.41283" lon="6.79726">
        <ele>501</ele>
        <time>2017-10-01T08:17:28Z</time>
      </trkpt>
      <trkpt lat="47.4128" lon="6.79726">
        <ele>501</ele>
        <time>2017-10-01T08:17:29Z</time>
      </trkpt>
      <trkpt lat="47.41277" lon="6.79726">
        <ele>501.2</ele>
        <time>2017-10-01T08:17:30Z</time>
      </trkpt>
      <trkpt lat="47.41274" lon="6.79726">
        <ele>501.5</ele>
        <time>2017-10-01T08:17:31Z</time>
      </trkpt>
      <trkpt lat="47.41271" lon="6.79726">
        <ele>501.6</ele>
        <time>2017-10-01T08:17:32Z</time>
      </trkpt>
      <trkpt lat="47.41268" lon="6.79726">
        <ele>501.8</ele>
        <time>2017-10-01T08:17:33Z</time>
      </trkpt>
      <trkpt lat="47.41266" lon="6.79727">
        <ele>502</ele>
        <time>2017-10-01T08:17:34Z</time>
      </trkpt>
      <trkpt lat="47.41263" lon="6.79729">
        <ele>502.2</ele>
        <time>2017-10-01T08:17:35Z</time>
      </trkpt>
      <trkpt lat="47.41261" lon="6.79731">
        <ele>502.3</ele>
        <time>2017-10-01T08:17:36Z</time>
      </trkpt>
      <trkpt lat="47.41257" lon="6.79732">
        <ele>502.5</ele>
        <time>2017-10-01T08:17:38Z</time>
      </trkpt>
      <trkpt lat="47.41255" lon="6.79731">
        <ele>502.7</ele>
        <time>2017-10-01T08:17:39Z</time>
      </trkpt>
      <trkpt lat="47.41251" lon="6.79733">
        <ele>502.9</ele>
        <time>2017-10-01T08:17:48Z</time>
      </trkpt>
      <trkpt lat="47.41248" lon="6.79735">
        <ele>503</ele>
        <time>2017-10-01T08:17:49Z</time>
      </trkpt>
      <trkpt lat="47.41245" lon="6.79737">
        <ele>503.2</ele>
        <time>2017-10-01T08:17:50Z</time>
      </trkpt>
      <trkpt lat="47.41243" lon="6.79739">
        <ele>503.3</ele>
        <time>2017-10-01T08:17:51Z</time>
      </trkpt>
      <trkpt lat="47.4124" lon="6.79741">
        <ele>503.5</ele>
        <time>2017-10-01T08:17:52Z</time>
      </trkpt>
      <trkpt lat="47.41235" lon="6.79743">
        <ele>503.8</ele>
        <time>2017-10-01T08:17:53Z</time>
      </trkpt>
      <trkpt lat="47.41233" lon="6.79746">
        <ele>503.9</ele>
        <time>2017-10-01T08:17:54Z</time>
      </trkpt>
      <trkpt lat="47.41229" lon="6.79748">
        <ele>504.2</ele>
        <time>2017-10-01T08:17:55Z</time>
      </trkpt>
      <trkpt lat="47.41225" lon="6.79747">
        <ele>504.5</ele>
        <time>2017-10-01T08:17:56Z</time>
      </trkpt>
      <trkpt lat="47.41222" lon="6.79747">
        <ele>504.7</ele>
        <time>2017-10-01T08:17:57Z</time>
      </trkpt>
      <trkpt lat="47.4122" lon="6.79748">
        <ele>504.9</ele>
        <time>2017-10-01T08:17:58Z</time>
      </trkpt>
      <trkpt lat="47.41217" lon="6.79751">
        <ele>505.1</ele>
        <time>2017-10-01T08:17:59Z</time>
      </trkpt>
      <trkpt lat="47.41213" lon="6.79753">
        <ele>505.4</ele>
        <time>2017-10-01T08:18:00Z</time>
      </trkpt>
      <trkpt lat="47.41211" lon="6.79755">
        <ele>505.7</ele>
        <time>2017-10-01T08:18:01Z</time>
      </trkpt>
      <trkpt lat="47.41208" lon="6.79756">
        <ele>505.9</ele>
        <time>2017-10-01T08:18:02Z</time>
      </trkpt>
      <trkpt lat="47.41206" lon="6.79757">
        <ele>506.2</ele>
        <time>2017-10-01T08:18:03Z</time>
      </trkpt>
      <trkpt lat="47.41204" lon="6.79759">
        <ele>506.4</ele>
        <time>2017-10-01T08:18:04Z</time>
      </trkpt>
      <trkpt lat="47.41201" lon="6.79761">
        <ele>506.7</ele>
        <time>2017-10-01T08:18:05Z</time>
      </trkpt>
      <trkpt lat="47.41198" lon="6.79765">
        <ele>507.1</ele>
        <time>2017-10-01T08:18:07Z</time>
      </trkpt>
      <trkpt lat="47.41197" lon="6.79768">
        <ele>507.3</ele>
        <time>2017-10-01T08:18:08Z</time>
      </trkpt>
      <trkpt lat="47.41194" lon="6.79773">
        <ele>507.8</ele>
        <time>2017-10-01T08:18:09Z</time>
      </trkpt>
      <trkpt lat="47.41192" lon="6.79776">
        <ele>508.1</ele>
        <time>2017-10-01T08:18:10Z</time>
      </trkpt>
      <trkpt lat="47.4119" lon="6.79778">
        <ele>508.3</ele>
        <time>2017-10-01T08:18:11Z</time>
      </trkpt>
      <trkpt lat="47.41186" lon="6.7978">
        <ele>508.8</ele>
        <time>2017-10-01T08:18:13Z</time>
      </trkpt>
      <trkpt lat="47.41185" lon="6.79781">
        <ele>509</ele>
        <time>2017-10-01T08:18:14Z</time>
      </trkpt>
      <trkpt lat="47.41183" lon="6.79779">
        <ele>509.3</ele>
        <time>2017-10-01T08:18:26Z</time>
      </trkpt>
      <trkpt lat="47.41181" lon="6.79775">
        <ele>509.8</ele>
        <time>2017-10-01T08:18:27Z</time>
      </trkpt>
      <trkpt lat="47.41178" lon="6.79772">
        <ele>510.2</ele>
        <time>2017-10-01T08:18:28Z</time>
      </trkpt>
      <trkpt lat="47.41176" lon="6.7977">
        <ele>510.7</ele>
        <time>2017-10-01T08:18:29Z</time>
      </trkpt>
      <trkpt lat="47.41172" lon="6.79766">
        <ele>511.8</ele>
        <time>2017-10-01T08:18:30Z</time>
      </trkpt>
      <trkpt lat="47.41169" lon="6.79765">
        <ele>511.5</ele>
        <time>2017-10-01T08:18:31Z</time>
      </trkpt>
      <trkpt lat="47.41166" lon="6.79762">
        <ele>511.2</ele>
        <time>2017-10-01T08:18:32Z</time>
      </trkpt>
      <trkpt lat="47.41162" lon="6.79761">
        <ele>509.5</ele>
        <time>2017-10-01T08:18:33Z</time>
      </trkpt>
      <trkpt lat="47.41158" lon="6.79758">
        <ele>509.4</ele>
        <time>2017-10-01T08:18:34Z</time>
      </trkpt>
      <trkpt lat="47.41156" lon="6.79755">
        <ele>508.3</ele>
        <time>2017-10-01T08:18:35Z</time>
      </trkpt>
      <trkpt lat="47.41153" lon="6.79751">
        <ele>507.4</ele>
        <time>2017-10-01T08:18:36Z</time>
      </trkpt>
      <trkpt lat="47.4115" lon="6.79748">
        <ele>506.7</ele>
        <time>2017-10-01T08:18:37Z</time>
      </trkpt>
      <trkpt lat="47.41148" lon="6.7974">
        <ele>504.2</ele>
        <time>2017-10-01T08:18:40Z</time>
      </trkpt>
      <trkpt lat="47.41149" lon="6.79737">
        <ele>504.2</ele>
        <time>2017-10-01T08:18:41Z</time>
      </trkpt>
      <trkpt lat="47.4115" lon="6.79734">
        <ele>502.8</ele>
        <time>2017-10-01T08:18:45Z</time>
      </trkpt>
      <trkpt lat="47.41151" lon="6.79731">
        <ele>501</ele>
        <time>2017-10-01T08:18:46Z</time>
      </trkpt>
      <trkpt lat="47.41154" lon="6.79728">
        <ele>500.6</ele>
        <time>2017-10-01T08:18:47Z</time>
      </trkpt>
      <trkpt lat="47.41157" lon="6.79723">
        <ele>498.1</ele>
        <time>2017-10-01T08:18:48Z</time>
      </trkpt>
      <trkpt lat="47.41159" lon="6.79718">
        <ele>497.1</ele>
        <time>2017-10-01T08:18:49Z</time>
      </trkpt>
      <trkpt lat="47.41157" lon="6.79709">
        <ele>495</ele>
        <time>2017-10-01T08:18:50Z</time>
      </trkpt>
      <trkpt lat="47.41157" lon="6.79702">
        <ele>494.1</ele>
        <time>2017-10-01T08:18:51Z</time>
      </trkpt>
      <trkpt lat="47.41157" lon="6.79696">
        <ele>492.3</ele>
        <time>2017-10-01T08:18:52Z</time>
      </trkpt>
      <trkpt lat="47.41158" lon="6.79687">
        <ele>490.5</ele>
        <time>2017-10-01T08:18:53Z</time>
      </trkpt>
      <trkpt lat="47.41157" lon="6.79678">
        <ele>488.2</ele>
        <time>2017-10-01T08:18:54Z</time>
      </trkpt>
      <trkpt lat="47.41159" lon="6.79672">
        <ele>487.2</ele>
        <time>2017-10-01T08:18:55Z</time>
      </trkpt>
      <trkpt lat="47.4116" lon="6.79665">
        <ele>485.3</ele>
        <time>2017-10-01T08:18:56Z</time>
      </trkpt>
      <trkpt lat="47.4116" lon="6.79658">
        <ele>483.7</ele>
        <time>2017-10-01T08:18:57Z</time>
      </trkpt>
      <trkpt lat="47.41158" lon="6.79651">
        <ele>483.5</ele>
        <time>2017-10-01T08:18:58Z</time>
      </trkpt>
      <trkpt lat="47.41158" lon="6.79644">
        <ele>482.3</ele>
        <time>2017-10-01T08:18:59Z</time>
      </trkpt>
      <trkpt lat="47.4116" lon="6.79639">
        <ele>481.3</ele>
        <time>2017-10-01T08:19:00Z</time>
      </trkpt>
      <trkpt lat="47.41162" lon="6.79634">
        <ele>480.9</ele>
        <time>2017-10-01T08:19:01Z</time>
      </trkpt>
      <trkpt lat="47.41163" lon="6.79628">
        <ele>479.2</ele>
        <time>2017-10-01T08:19:02Z</time>
      </trkpt>
      <trkpt lat="47.41165" lon="6.7962">
        <ele>477.9</ele>
        <time>2017-10-01T08:19:03Z</time>
      </trkpt>
      <trkpt lat="47.41166" lon="6.79614">
        <ele>476.8</ele>
        <time>2017-10-01T08:19:04Z</time>
      </trkpt>
      <trkpt lat="47.41171" lon="6.79607">
        <ele>474.5</ele>
        <time>2017-10-01T08:19:06Z</time>
      </trkpt>
      <trkpt lat="47.41173" lon="6.79603">
        <ele>473.7</ele>
        <time>2017-10-01T08:19:07Z</time>
      </trkpt>
      <trkpt lat="47.41175" lon="6.79598">
        <ele>472.3</ele>
        <time>2017-10-01T08:19:08Z</time>
      </trkpt>
      <trkpt lat="47.41177" lon="6.79591">
        <ele>470.9</ele>
        <time>2017-10-01T08:19:09Z</time>
      </trkpt>
      <trkpt lat="47.41181" lon="6.79582">
        <ele>469</ele>
        <time>2017-10-01T08:19:10Z</time>
      </trkpt>
      <trkpt lat="47.41188" lon="6.79574">
        <ele>467.1</ele>
        <time>2017-10-01T08:19:11Z</time>
      </trkpt>
      <trkpt lat="47.41189" lon="6.79566">
        <ele>465.2</ele>
        <time>2017-10-01T08:19:12Z</time>
      </trkpt>
      <trkpt lat="47.41192" lon="6.7956">
        <ele>464.1</ele>
        <time>2017-10-01T08:19:13Z</time>
      </trkpt>
      <trkpt lat="47.41194" lon="6.79553">
        <ele>462.3</ele>
        <time>2017-10-01T08:19:14Z</time>
      </trkpt>
      <trkpt lat="47.41197" lon="6.79549">
        <ele>461.2</ele>
        <time>2017-10-01T08:19:15Z</time>
      </trkpt>
      <trkpt lat="47.41197" lon="6.79544">
        <ele>460</ele>
        <time>2017-10-01T08:19:16Z</time>
      </trkpt>
      <trkpt lat="47.41197" lon="6.79539">
        <ele>458.8</ele>
        <time>2017-10-01T08:19:17Z</time>
      </trkpt>
      <trkpt lat="47.41196" lon="6.79526">
        <ele>455.8</ele>
        <time>2017-10-01T08:19:18Z</time>
      </trkpt>
      <trkpt lat="47.41199" lon="6.79518">
        <ele>454.3</ele>
        <time>2017-10-01T08:19:19Z</time>
      </trkpt>
      <trkpt lat="47.41202" lon="6.79509">
        <ele>453.1</ele>
        <time>2017-10-01T08:19:20Z</time>
      </trkpt>
      <trkpt lat="47.41202" lon="6.795">
        <ele>451.9</ele>
        <time>2017-10-01T08:19:21Z</time>
      </trkpt>
      <trkpt lat="47.41203" lon="6.79493">
        <ele>451.5</ele>
        <time>2017-10-01T08:19:23Z</time>
      </trkpt>
      <trkpt lat="47.41203" lon="6.79489">
        <ele>451.1</ele>
        <time>2017-10-01T08:19:24Z</time>
      </trkpt>
      <trkpt lat="47.41201" lon="6.79483">
        <ele>450.7</ele>
        <time>2017-10-01T08:19:26Z</time>
      </trkpt>
      <trkpt lat="47.412" lon="6.7948">
        <ele>450.3</ele>
        <time>2017-10-01T08:19:27Z</time>
      </trkpt>
      <trkpt lat="47.41198" lon="6.79475">
        <ele>450</ele>
        <time>2017-10-01T08:19:28Z</time>
      </trkpt>
      <trkpt lat="47.41197" lon="6.79465">
        <ele>449.1</ele>
        <time>2017-10-01T08:19:29Z</time>
      </trkpt>
      <trkpt lat="47.41197" lon="6.79456">
        <ele>447.9</ele>
        <time>2017-10-01T08:19:30Z</time>
      </trkpt>
      <trkpt lat="47.41199" lon="6.79451">
        <ele>447.4</ele>
        <time>2017-10-01T08:19:31Z</time>
      </trkpt>
      <trkpt lat="47.41199" lon="6.79447">
        <ele>446.9</ele>
        <time>2017-10-01T08:19:32Z</time>
      </trkpt>
      <trkpt lat="47.41199" lon="6.79444">
        <ele>446.5</ele>
        <time>2017-10-01T08:19:33Z</time>
      </trkpt>
      <trkpt lat="47.41201" lon="6.79435">
        <ele>445.2</ele>
        <time>2017-10-01T08:19:34Z</time>
      </trkpt>
      <trkpt lat="47.41202" lon="6.7943">
        <ele>444.6</ele>
        <time>2017-10-01T08:19:35Z</time>
      </trkpt>
      <trkpt lat="47.41202" lon="6.79424">
        <ele>443.9</ele>
        <time>2017-10-01T08:19:36Z</time>
      </trkpt>
      <trkpt lat="47.41201" lon="6.79416">
        <ele>442.5</ele>
        <time>2017-10-01T08:19:37Z</time>
      </trkpt>
      <trkpt lat="47.412" lon="6.79404">
        <ele>440.3</ele>
        <time>2017-10-01T08:19:38Z</time>
      </trkpt>
      <trkpt lat="47.41201" lon="6.79394">
        <ele>438.6</ele>
        <time>2017-10-01T08:19:39Z</time>
      </trkpt>
      <trkpt lat="47.41202" lon="6.79388">
        <ele>437.2</ele>
        <time>2017-10-01T08:19:40Z</time>
      </trkpt>
      <trkpt lat="47.41201" lon="6.7938">
        <ele>436.5</ele>
        <time>2017-10-01T08:19:41Z</time>
      </trkpt>
      <trkpt lat="47.41201" lon="6.79372">
        <ele>434.9</ele>
        <time>2017-10-01T08:19:42Z</time>
      </trkpt>
      <trkpt lat="47.41202" lon="6.79366">
        <ele>433.4</ele>
        <time>2017-10-01T08:19:43Z</time>
      </trkpt>
      <trkpt lat="47.41202" lon="6.79359">
        <ele>432.8</ele>
        <time>2017-10-01T08:19:44Z</time>
      </trkpt>
      <trkpt lat="47.41203" lon="6.79353">
        <ele>431.5</ele>
        <time>2017-10-01T08:19:45Z</time>
      </trkpt>
      <trkpt lat="47.41203" lon="6.79344">
        <ele>430.2</ele>
        <time>2017-10-01T08:19:46Z</time>
      </trkpt>
      <trkpt lat="47.41203" lon="6.79339">
        <ele>429.5</ele>
        <time>2017-10-01T08:19:47Z</time>
      </trkpt>
      <trkpt lat="47.412" lon="6.79331">
        <ele>428.6</ele>
        <time>2017-10-01T08:19:48Z</time>
      </trkpt>
      <trkpt lat="47.41199" lon="6.7932">
        <ele>427.8</ele>
        <time>2017-10-01T08:19:49Z</time>
      </trkpt>
      <trkpt lat="47.41199" lon="6.79312">
        <ele>426.7</ele>
        <time>2017-10-01T08:19:50Z</time>
      </trkpt>
      <trkpt lat="47.41201" lon="6.79305">
        <ele>425.2</ele>
        <time>2017-10-01T08:19:51Z</time>
      </trkpt>
      <trkpt lat="47.41201" lon="6.79298">
        <ele>423.6</ele>
        <time>2017-10-01T08:19:52Z</time>
      </trkpt>
      <trkpt lat="47.41202" lon="6.7929">
        <ele>422.7</ele>
        <time>2017-10-01T08:19:53Z</time>
      </trkpt>
      <trkpt lat="47.41204" lon="6.79284">
        <ele>420.2</ele>
        <time>2017-10-01T08:19:54Z</time>
      </trkpt>
      <trkpt lat="47.41207" lon="6.79277">
        <ele>418.1</ele>
        <time>2017-10-01T08:19:55Z</time>
      </trkpt>
      <trkpt lat="47.41208" lon="6.79271">
        <ele>417.3</ele>
        <time>2017-10-01T08:19:56Z</time>
      </trkpt>
      <trkpt lat="47.4121" lon="6.79267">
        <ele>416.2</ele>
        <time>2017-10-01T08:19:57Z</time>
      </trkpt>
      <trkpt lat="47.41211" lon="6.79259">
        <ele>414.6</ele>
        <time>2017-10-01T08:19:58Z</time>
      </trkpt>
      <trkpt lat="47.41212" lon="6.7925">
        <ele>413.1</ele>
        <time>2017-10-01T08:19:59Z</time>
      </trkpt>
      <trkpt lat="47.41214" lon="6.79242">
        <ele>411.8</ele>
        <time>2017-10-01T08:20:00Z</time>
      </trkpt>
      <trkpt lat="47.41215" lon="6.79234">
        <ele>410.1</ele>
        <time>2017-10-01T08:20:01Z</time>
      </trkpt>
      <trkpt lat="47.41217" lon="6.79227">
        <ele>409.6</ele>
        <time>2017-10-01T08:20:02Z</time>
      </trkpt>
      <trkpt lat="47.41218" lon="6.79217">
        <ele>408.4</ele>
        <time>2017-10-01T08:20:03Z</time>
      </trkpt>
      <trkpt lat="47.41216" lon="6.79205">
        <ele>407.5</ele>
        <time>2017-10-01T08:20:04Z</time>
      </trkpt>
      <trkpt lat="47.41218" lon="6.79184">
        <ele>406</ele>
        <time>2017-10-01T08:20:06Z</time>
      </trkpt>
      <trkpt lat="47.41216" lon="6.79175">
        <ele>405.5</ele>
        <time>2017-10-01T08:20:07Z</time>
      </trkpt>
      <trkpt lat="47.41215" lon="6.7917">
        <ele>404.8</ele>
        <time>2017-10-01T08:20:08Z</time>
      </trkpt>
      <trkpt lat="47.41214" lon="6.7916">
        <ele>404.4</ele>
        <time>2017-10-01T08:20:09Z</time>
      </trkpt>
      <trkpt lat="47.41216" lon="6.79152">
        <ele>403.1</ele>
        <time>2017-10-01T08:20:10Z</time>
      </trkpt>
      <trkpt lat="47.41219" lon="6.79147">
        <ele>402.5</ele>
        <time>2017-10-01T08:20:11Z</time>
      </trkpt>
      <trkpt lat="47.41219" lon="6.79143">
        <ele>402.1</ele>
        <time>2017-10-01T08:20:12Z</time>
      </trkpt>
      <trkpt lat="47.41218" lon="6.79138">
        <ele>401.7</ele>
        <time>2017-10-01T08:20:13Z</time>
      </trkpt>
      <trkpt lat="47.41219" lon="6.79133">
        <ele>401.3</ele>
        <time>2017-10-01T08:20:15Z</time>
      </trkpt>
      <trkpt lat="47.4122" lon="6.79131">
        <ele>401.3</ele>
        <time>2017-10-01T08:20:16Z</time>
      </trkpt>
      <trkpt lat="47.41222" lon="6.79125">
        <ele>400.2</ele>
        <time>2017-10-01T08:20:21Z</time>
      </trkpt>
      <trkpt lat="47.41224" lon="6.79121">
        <ele>399.5</ele>
        <time>2017-10-01T08:20:22Z</time>
      </trkpt>
      <trkpt lat="47.41227" lon="6.79118">
        <ele>398.7</ele>
        <time>2017-10-01T08:21:02Z</time>
      </trkpt>
      <trkpt lat="47.41227" lon="6.79115">
        <ele>398.7</ele>
        <time>2017-10-01T08:21:03Z</time>
      </trkpt>
      <trkpt lat="47.41229" lon="6.79109">
        <ele>397.4</ele>
        <time>2017-10-01T08:21:45Z</time>
      </trkpt>
      <trkpt lat="47.4123" lon="6.79106">
        <ele>397.5</ele>
        <time>2017-10-01T08:21:46Z</time>
      </trkpt>
      <trkpt lat="47.41232" lon="6.79104">
        <ele>397</ele>
        <time>2017-10-01T08:21:47Z</time>
      </trkpt>
      <trkpt lat="47.41234" lon="6.79101">
        <ele>396</ele>
        <time>2017-10-01T08:21:48Z</time>
      </trkpt>
      <trkpt lat="47.41236" lon="6.79098">
        <ele>395.6</ele>
        <time>2017-10-01T08:21:49Z</time>
      </trkpt>
      <trkpt lat="47.41238" lon="6.79091">
        <ele>394</ele>
        <time>2017-10-01T08:21:50Z</time>
      </trkpt>
      <trkpt lat="47.41239" lon="6.79082">
        <ele>392.9</ele>
        <time>2017-10-01T08:21:51Z</time>
      </trkpt>
      <trkpt lat="47.41241" lon="6.79074">
        <ele>391</ele>
        <time>2017-10-01T08:21:52Z</time>
      </trkpt>
      <trkpt lat="47.41244" lon="6.79062">
        <ele>388.3</ele>
        <time>2017-10-01T08:21:53Z</time>
      </trkpt>
      <trkpt lat="47.41249" lon="6.79046">
        <ele>386.3</ele>
        <time>2017-10-01T08:21:54Z</time>
      </trkpt>
      <trkpt lat="47.41248" lon="6.79031">
        <ele>384.6</ele>
        <time>2017-10-01T08:21:55Z</time>
      </trkpt>
      <trkpt lat="47.41246" lon="6.79017">
        <ele>383.8</ele>
        <time>2017-10-01T08:21:56Z</time>
      </trkpt>
      <trkpt lat="47.41241" lon="6.79002">
        <ele>382.6</ele>
        <time>2017-10-01T08:21:57Z</time>
      </trkpt>
      <trkpt lat="47.41237" lon="6.78988">
        <ele>383.2</ele>
        <time>2017-10-01T08:21:58Z</time>
      </trkpt>
      <trkpt lat="47.41234" lon="6.78975">
        <ele>382</ele>
        <time>2017-10-01T08:21:59Z</time>
      </trkpt>
      <trkpt lat="47.41229" lon="6.78959">
        <ele>380.6</ele>
        <time>2017-10-01T08:22:00Z</time>
      </trkpt>
      <trkpt lat="47.41223" lon="6.78947">
        <ele>380.1</ele>
        <time>2017-10-01T08:22:01Z</time>
      </trkpt>
      <trkpt lat="47.41216" lon="6.78932">
        <ele>376.5</ele>
        <time>2017-10-01T08:22:02Z</time>
      </trkpt>
      <trkpt lat="47.41209" lon="6.7892">
        <ele>373.6</ele>
        <time>2017-10-01T08:22:03Z</time>
      </trkpt>
      <trkpt lat="47.41203" lon="6.78911">
        <ele>372.8</ele>
        <time>2017-10-01T08:22:04Z</time>
      </trkpt>
      <trkpt lat="47.41191" lon="6.78897">
        <ele>372</ele>
        <time>2017-10-01T08:22:06Z</time>
      </trkpt>
      <trkpt lat="47.41186" lon="6.7889">
        <ele>370.7</ele>
        <time>2017-10-01T08:22:07Z</time>
      </trkpt>
      <trkpt lat="47.41179" lon="6.78882">
        <ele>371.6</ele>
        <time>2017-10-01T08:22:08Z</time>
      </trkpt>
      <trkpt lat="47.41173" lon="6.78875">
        <ele>372.3</ele>
        <time>2017-10-01T08:22:09Z</time>
      </trkpt>
      <trkpt lat="47.41169" lon="6.78869">
        <ele>370.9</ele>
        <time>2017-10-01T08:22:10Z</time>
      </trkpt>
      <trkpt lat="47.41164" lon="6.78865">
        <ele>372.4</ele>
        <time>2017-10-01T08:22:11Z</time>
      </trkpt>
      <trkpt lat="47.4116" lon="6.7886">
        <ele>371.1</ele>
        <time>2017-10-01T08:22:12Z</time>
      </trkpt>
      <trkpt lat="47.41154" lon="6.78854">
        <ele>371.8</ele>
        <time>2017-10-01T08:22:13Z</time>
      </trkpt>
      <trkpt lat="47.41149" lon="6.78848">
        <ele>372.3</ele>
        <time>2017-10-01T08:22:14Z</time>
      </trkpt>
      <trkpt lat="47.41146" lon="6.78841">
        <ele>370.3</ele>
        <time>2017-10-01T08:22:15Z</time>
      </trkpt>
      <trkpt lat="47.41142" lon="6.78831">
        <ele>368.4</ele>
        <time>2017-10-01T08:22:16Z</time>
      </trkpt>
      <trkpt lat="47.4114" lon="6.78821">
        <ele>364.7</ele>
        <time>2017-10-01T08:22:17Z</time>
      </trkpt>
      <trkpt lat="47.41143" lon="6.78813">
        <ele>361.3</ele>
        <time>2017-10-01T08:22:18Z</time>
      </trkpt>
      <trkpt lat="47.41146" lon="6.78804">
        <ele>358.6</ele>
        <time>2017-10-01T08:22:19Z</time>
      </trkpt>
      <trkpt lat="47.41149" lon="6.78793">
        <ele>356.1</ele>
        <time>2017-10-01T08:22:20Z</time>
      </trkpt>
      <trkpt lat="47.41151" lon="6.78781">
        <ele>353</ele>
        <time>2017-10-01T08:22:21Z</time>
      </trkpt>
      <trkpt lat="47.41153" lon="6.7877">
        <ele>350.7</ele>
        <time>2017-10-01T08:22:22Z</time>
      </trkpt>
      <trkpt lat="47.41156" lon="6.7876">
        <ele>348.8</ele>
        <time>2017-10-01T08:22:23Z</time>
      </trkpt>
      <trkpt lat="47.4116" lon="6.78758">
        <ele>348.6</ele>
        <time>2017-10-01T08:22:24Z</time>
      </trkpt>
      <trkpt lat="47.41161" lon="6.78757">
        <ele>348</ele>
        <time>2017-10-01T08:22:25Z</time>
      </trkpt>
      <trkpt lat="47.41164" lon="6.78755">
        <ele>348</ele>
        <time>2017-10-01T08:22:26Z</time>
      </trkpt>
      <trkpt lat="47.41169" lon="6.78754">
        <ele>348.1</ele>
        <time>2017-10-01T08:22:27Z</time>
      </trkpt>
      <trkpt lat="47.41176" lon="6.78755">
        <ele>348.3</ele>
        <time>2017-10-01T08:22:28Z</time>
      </trkpt>
      <trkpt lat="47.41179" lon="6.78753">
        <ele>348.1</ele>
        <time>2017-10-01T08:22:29Z</time>
      </trkpt>
      <trkpt lat="47.41181" lon="6.78751">
        <ele>348.1</ele>
        <time>2017-10-01T08:22:30Z</time>
      </trkpt>
      <trkpt lat="47.41183" lon="6.78744">
        <ele>347.7</ele>
        <time>2017-10-01T08:22:32Z</time>
      </trkpt>
      <trkpt lat="47.41183" lon="6.78741">
        <ele>347.8</ele>
        <time>2017-10-01T08:22:33Z</time>
      </trkpt>
      <trkpt lat="47.41183" lon="6.78738">
        <ele>347.6</ele>
        <time>2017-10-01T08:22:39Z</time>
      </trkpt>
      <trkpt lat="47.41183" lon="6.78735">
        <ele>347.5</ele>
        <time>2017-10-01T08:22:40Z</time>
      </trkpt>
      <trkpt lat="47.41182" lon="6.78729">
        <ele>347.4</ele>
        <time>2017-10-01T08:22:42Z</time>
      </trkpt>
      <trkpt lat="47.41181" lon="6.78727">
        <ele>347.3</ele>
        <time>2017-10-01T08:22:43Z</time>
      </trkpt>
      <trkpt lat="47.41179" lon="6.78718">
        <ele>346.9</ele>
        <time>2017-10-01T08:22:46Z</time>
      </trkpt>
      <trkpt lat="47.41178" lon="6.78715">
        <ele>346.6</ele>
        <time>2017-10-01T08:22:47Z</time>
      </trkpt>
      <trkpt lat="47.41177" lon="6.78711">
        <ele>346.6</ele>
        <time>2017-10-01T08:22:51Z</time>
      </trkpt>
      <trkpt lat="47.41176" lon="6.78708">
        <ele>346.2</ele>
        <time>2017-10-01T08:22:52Z</time>
      </trkpt>
      <trkpt lat="47.41175" lon="6.78705">
        <ele>345.8</ele>
        <time>2017-10-01T08:22:55Z</time>
      </trkpt>
      <trkpt lat="47.41174" lon="6.78702">
        <ele>345.8</ele>
        <time>2017-10-01T08:22:56Z</time>
      </trkpt>
      <trkpt lat="47.41173" lon="6.78699">
        <ele>345.4</ele>
        <time>2017-10-01T08:23:03Z</time>
      </trkpt>
      <trkpt lat="47.41172" lon="6.78696">
        <ele>345.1</ele>
        <time>2017-10-01T08:23:04Z</time>
      </trkpt>
      <trkpt lat="47.41168" lon="6.78683">
        <ele>344.4</ele>
        <time>2017-10-01T08:23:06Z</time>
      </trkpt>
      <trkpt lat="47.41168" lon="6.7868">
        <ele>344.1</ele>
        <time>2017-10-01T08:23:07Z</time>
      </trkpt>
      <trkpt lat="47.41168" lon="6.78676">
        <ele>344.1</ele>
        <time>2017-10-01T08:23:08Z</time>
      </trkpt>
      <trkpt lat="47.41167" lon="6.78673">
        <ele>344</ele>
        <time>2017-10-01T08:23:09Z</time>
      </trkpt>
      <trkpt lat="47.41165" lon="6.78667">
        <ele>344</ele>
        <time>2017-10-01T08:23:11Z</time>
      </trkpt>
      <trkpt lat="47.41163" lon="6.78662">
        <ele>343.9</ele>
        <time>2017-10-01T08:23:12Z</time>
      </trkpt>
      <trkpt lat="47.41163" lon="6.78657">
        <ele>343.9</ele>
        <time>2017-10-01T08:23:13Z</time>
      </trkpt>
      <trkpt lat="47.41162" lon="6.78654">
        <ele>343.9</ele>
        <time>2017-10-01T08:23:14Z</time>
      </trkpt>
      <trkpt lat="47.41162" lon="6.7865">
        <ele>343.9</ele>
        <time>2017-10-01T08:23:15Z</time>
      </trkpt>
      <trkpt lat="47.41161" lon="6.78647">
        <ele>343.9</ele>
        <time>2017-10-01T08:23:16Z</time>
      </trkpt>
      <trkpt lat="47.4116" lon="6.78643">
        <ele>344</ele>
        <time>2017-10-01T08:23:17Z</time>
      </trkpt>
      <trkpt lat="47.41159" lon="6.78639">
        <ele>343.9</ele>
        <time>2017-10-01T08:23:18Z</time>
      </trkpt>
      <trkpt lat="47.41158" lon="6.78633">
        <ele>344</ele>
        <time>2017-10-01T08:23:20Z</time>
      </trkpt>
      <trkpt lat="47.41158" lon="6.78629">
        <ele>344</ele>
        <time>2017-10-01T08:23:21Z</time>
      </trkpt>
      <trkpt lat="47.41157" lon="6.78625">
        <ele>343.9</ele>
        <time>2017-10-01T08:23:22Z</time>
      </trkpt>
      <trkpt lat="47.41157" lon="6.78622">
        <ele>343.8</ele>
        <time>2017-10-01T08:23:23Z</time>
      </trkpt>
      <trkpt lat="47.41156" lon="6.78618">
        <ele>343.7</ele>
        <time>2017-10-01T08:23:24Z</time>
      </trkpt>
      <trkpt lat="47.41156" lon="6.78614">
        <ele>343.6</ele>
        <time>2017-10-01T08:23:25Z</time>
      </trkpt>
      <trkpt lat="47.41155" lon="6.7861">
        <ele>343.5</ele>
        <time>2017-10-01T08:23:26Z</time>
      </trkpt>
      <trkpt lat="47.41154" lon="6.78606">
        <ele>343.3</ele>
        <time>2017-10-01T08:23:27Z</time>
      </trkpt>
      <trkpt lat="47.41153" lon="6.786">
        <ele>343.1</ele>
        <time>2017-10-01T08:23:28Z</time>
      </trkpt>
      <trkpt lat="47.41152" lon="6.78595">
        <ele>342.9</ele>
        <time>2017-10-01T08:23:29Z</time>
      </trkpt>
      <trkpt lat="47.41152" lon="6.7859">
        <ele>342.3</ele>
        <time>2017-10-01T08:23:30Z</time>
      </trkpt>
      <trkpt lat="47.41151" lon="6.78584">
        <ele>342.2</ele>
        <time>2017-10-01T08:23:31Z</time>
      </trkpt>
      <trkpt lat="47.4115" lon="6.78578">
        <ele>342</ele>
        <time>2017-10-01T08:23:32Z</time>
      </trkpt>
      <trkpt lat="47.41149" lon="6.78573">
        <ele>341.6</ele>
        <time>2017-10-01T08:23:33Z</time>
      </trkpt>
      <trkpt lat="47.41148" lon="6.78569">
        <ele>341.6</ele>
        <time>2017-10-01T08:23:34Z</time>
      </trkpt>
      <trkpt lat="47.41148" lon="6.78564">
        <ele>341.4</ele>
        <time>2017-10-01T08:23:35Z</time>
      </trkpt>
      <trkpt lat="47.41147" lon="6.78559">
        <ele>341.2</ele>
        <time>2017-10-01T08:23:36Z</time>
      </trkpt>
      <trkpt lat="47.41146" lon="6.78554">
        <ele>341.1</ele>
        <time>2017-10-01T08:23:37Z</time>
      </trkpt>
      <trkpt lat="47.41145" lon="6.78548">
        <ele>341</ele>
        <time>2017-10-01T08:23:38Z</time>
      </trkpt>
      <trkpt lat="47.41144" lon="6.78543">
        <ele>340.9</ele>
        <time>2017-10-01T08:23:39Z</time>
      </trkpt>
      <trkpt lat="47.41143" lon="6.7854">
        <ele>340.7</ele>
        <time>2017-10-01T08:23:40Z</time>
      </trkpt>
      <trkpt lat="47.41142" lon="6.78534">
        <ele>340.6</ele>
        <time>2017-10-01T08:23:41Z</time>
      </trkpt>
      <trkpt lat="47.41141" lon="6.78528">
        <ele>340.5</ele>
        <time>2017-10-01T08:23:42Z</time>
      </trkpt>
      <trkpt lat="47.4114" lon="6.78523">
        <ele>340.4</ele>
        <time>2017-10-01T08:23:43Z</time>
      </trkpt>
      <trkpt lat="47.41139" lon="6.78518">
        <ele>340.6</ele>
        <time>2017-10-01T08:23:44Z</time>
      </trkpt>
      <trkpt lat="47.41138" lon="6.78514">
        <ele>340.5</ele>
        <time>2017-10-01T08:23:45Z</time>
      </trkpt>
      <trkpt lat="47.41137" lon="6.78509">
        <ele>340.6</ele>
        <time>2017-10-01T08:23:46Z</time>
      </trkpt>
      <trkpt lat="47.41137" lon="6.78505">
        <ele>340.6</ele>
        <time>2017-10-01T08:23:47Z</time>
      </trkpt>
      <trkpt lat="47.41136" lon="6.78499">
        <ele>340.8</ele>
        <time>2017-10-01T08:23:48Z</time>
      </trkpt>
      <trkpt lat="47.41136" lon="6.78496">
        <ele>340.8</ele>
        <time>2017-10-01T08:23:49Z</time>
      </trkpt>
      <trkpt lat="47.41135" lon="6.78492">
        <ele>340.9</ele>
        <time>2017-10-01T08:23:50Z</time>
      </trkpt>
      <trkpt lat="47.41135" lon="6.78488">
        <ele>341</ele>
        <time>2017-10-01T08:23:51Z</time>
      </trkpt>
      <trkpt lat="47.41134" lon="6.78483">
        <ele>341.1</ele>
        <time>2017-10-01T08:23:52Z</time>
      </trkpt>
      <trkpt lat="47.41134" lon="6.78478">
        <ele>341.1</ele>
        <time>2017-10-01T08:23:53Z</time>
      </trkpt>
      <trkpt lat="47.41134" lon="6.78474">
        <ele>341.1</ele>
        <time>2017-10-01T08:23:54Z</time>
      </trkpt>
      <trkpt lat="47.41134" lon="6.78468">
        <ele>341</ele>
        <time>2017-10-01T08:23:55Z</time>
      </trkpt>
      <trkpt lat="47.41133" lon="6.78464">
        <ele>341.1</ele>
        <time>2017-10-01T08:23:56Z</time>
      </trkpt>
      <trkpt lat="47.41133" lon="6.7846">
        <ele>341</ele>
        <time>2017-10-01T08:23:57Z</time>
      </trkpt>
      <trkpt lat="47.41133" lon="6.78456">
        <ele>340.8</ele>
        <time>2017-10-01T08:23:58Z</time>
      </trkpt>
      <trkpt lat="47.41133" lon="6.78451">
        <ele>340.7</ele>
        <time>2017-10-01T08:23:59Z</time>
      </trkpt>
      <trkpt lat="47.41133" lon="6.78447">
        <ele>340.3</ele>
        <time>2017-10-01T08:24:00Z</time>
      </trkpt>
      <trkpt lat="47.41134" lon="6.78442">
        <ele>340.1</ele>
        <time>2017-10-01T08:24:01Z</time>
      </trkpt>
      <trkpt lat="47.41134" lon="6.78438">
        <ele>339.9</ele>
        <time>2017-10-01T08:24:02Z</time>
      </trkpt>
      <trkpt lat="47.41134" lon="6.78434">
        <ele>339.8</ele>
        <time>2017-10-01T08:24:03Z</time>
      </trkpt>
      <trkpt lat="47.41134" lon="6.78429">
        <ele>339.6</ele>
        <time>2017-10-01T08:24:04Z</time>
      </trkpt>
      <trkpt lat="47.41133" lon="6.78419">
        <ele>339.1</ele>
        <time>2017-10-01T08:24:06Z</time>
      </trkpt>
      <trkpt lat="47.41133" lon="6.78414">
        <ele>339</ele>
        <time>2017-10-01T08:24:07Z</time>
      </trkpt>
      <trkpt lat="47.41132" lon="6.78408">
        <ele>338.8</ele>
        <time>2017-10-01T08:24:08Z</time>
      </trkpt>
      <trkpt lat="47.41133" lon="6.78402">
        <ele>338.6</ele>
        <time>2017-10-01T08:24:09Z</time>
      </trkpt>
      <trkpt lat="47.41133" lon="6.78397">
        <ele>338.5</ele>
        <time>2017-10-01T08:24:10Z</time>
      </trkpt>
      <trkpt lat="47.41132" lon="6.78391">
        <ele>338.3</ele>
        <time>2017-10-01T08:24:11Z</time>
      </trkpt>
      <trkpt lat="47.41132" lon="6.78386">
        <ele>338.3</ele>
        <time>2017-10-01T08:24:12Z</time>
      </trkpt>
      <trkpt lat="47.41132" lon="6.7838">
        <ele>338.3</ele>
        <time>2017-10-01T08:24:13Z</time>
      </trkpt>
      <trkpt lat="47.41131" lon="6.78375">
        <ele>338.3</ele>
        <time>2017-10-01T08:24:14Z</time>
      </trkpt>
      <trkpt lat="47.41131" lon="6.7837">
        <ele>338.3</ele>
        <time>2017-10-01T08:24:15Z</time>
      </trkpt>
      <trkpt lat="47.41131" lon="6.78364">
        <ele>338.4</ele>
        <time>2017-10-01T08:24:16Z</time>
      </trkpt>
      <trkpt lat="47.4113" lon="6.78358">
        <ele>338.5</ele>
        <time>2017-10-01T08:24:17Z</time>
      </trkpt>
      <trkpt lat="47.4113" lon="6.78352">
        <ele>338.6</ele>
        <time>2017-10-01T08:24:18Z</time>
      </trkpt>
      <trkpt lat="47.4113" lon="6.78346">
        <ele>338.3</ele>
        <time>2017-10-01T08:24:19Z</time>
      </trkpt>
      <trkpt lat="47.4113" lon="6.78341">
        <ele>338.1</ele>
        <time>2017-10-01T08:24:20Z</time>
      </trkpt>
      <trkpt lat="47.41129" lon="6.78336">
        <ele>337.9</ele>
        <time>2017-10-01T08:24:21Z</time>
      </trkpt>
      <trkpt lat="47.41129" lon="6.78329">
        <ele>337.9</ele>
        <time>2017-10-01T08:24:22Z</time>
      </trkpt>
      <trkpt lat="47.41129" lon="6.78324">
        <ele>337.9</ele>
        <time>2017-10-01T08:24:23Z</time>
      </trkpt>
      <trkpt lat="47.41129" lon="6.78317">
        <ele>338</ele>
        <time>2017-10-01T08:24:24Z</time>
      </trkpt>
      <trkpt lat="47.4113" lon="6.78312">
        <ele>338.2</ele>
        <time>2017-10-01T08:24:25Z</time>
      </trkpt>
      <trkpt lat="47.4113" lon="6.78306">
        <ele>338.5</ele>
        <time>2017-10-01T08:24:26Z</time>
      </trkpt>
      <trkpt lat="47.41131" lon="6.78299">
        <ele>338.7</ele>
        <time>2017-10-01T08:24:27Z</time>
      </trkpt>
      <trkpt lat="47.41131" lon="6.78294">
        <ele>338.8</ele>
        <time>2017-10-01T08:24:28Z</time>
      </trkpt>
      <trkpt lat="47.41132" lon="6.78287">
        <ele>338.9</ele>
        <time>2017-10-01T08:24:29Z</time>
      </trkpt>
      <trkpt lat="47.41132" lon="6.78281">
        <ele>339</ele>
        <time>2017-10-01T08:24:30Z</time>
      </trkpt>
      <trkpt lat="47.41132" lon="6.78277">
        <ele>338.9</ele>
        <time>2017-10-01T08:24:31Z</time>
      </trkpt>
      <trkpt lat="47.41132" lon="6.78271">
        <ele>338.8</ele>
        <time>2017-10-01T08:24:32Z</time>
      </trkpt>
      <trkpt lat="47.41132" lon="6.78266">
        <ele>338.7</ele>
        <time>2017-10-01T08:24:33Z</time>
      </trkpt>
      <trkpt lat="47.41133" lon="6.78259">
        <ele>338.7</ele>
        <time>2017-10-01T08:24:34Z</time>
      </trkpt>
      <trkpt lat="47.41133" lon="6.78252">
        <ele>338.6</ele>
        <time>2017-10-01T08:24:35Z</time>
      </trkpt>
      <trkpt lat="47.41133" lon="6.78244">
        <ele>338.6</ele>
        <time>2017-10-01T08:24:36Z</time>
      </trkpt>
      <trkpt lat="47.41133" lon="6.78236">
        <ele>338.6</ele>
        <time>2017-10-01T08:24:37Z</time>
      </trkpt>
      <trkpt lat="47.41132" lon="6.7823">
        <ele>338.6</ele>
        <time>2017-10-01T08:24:38Z</time>
      </trkpt>
      <trkpt lat="47.41131" lon="6.78223">
        <ele>338.8</ele>
        <time>2017-10-01T08:24:39Z</time>
      </trkpt>
      <trkpt lat="47.41129" lon="6.78216">
        <ele>338.9</ele>
        <time>2017-10-01T08:24:40Z</time>
      </trkpt>
      <trkpt lat="47.41129" lon="6.7821">
        <ele>339</ele>
        <time>2017-10-01T08:24:41Z</time>
      </trkpt>
      <trkpt lat="47.41128" lon="6.78205">
        <ele>339.2</ele>
        <time>2017-10-01T08:24:42Z</time>
      </trkpt>
      <trkpt lat="47.41127" lon="6.78198">
        <ele>339.5</ele>
        <time>2017-10-01T08:24:43Z</time>
      </trkpt>
      <trkpt lat="47.41126" lon="6.78194">
        <ele>339.7</ele>
        <time>2017-10-01T08:24:44Z</time>
      </trkpt>
      <trkpt lat="47.41125" lon="6.78188">
        <ele>339.9</ele>
        <time>2017-10-01T08:24:45Z</time>
      </trkpt>
      <trkpt lat="47.41125" lon="6.78182">
        <ele>340.1</ele>
        <time>2017-10-01T08:24:46Z</time>
      </trkpt>
      <trkpt lat="47.41124" lon="6.78177">
        <ele>340.2</ele>
        <time>2017-10-01T08:24:47Z</time>
      </trkpt>
      <trkpt lat="47.41124" lon="6.78171">
        <ele>340.3</ele>
        <time>2017-10-01T08:24:48Z</time>
      </trkpt>
      <trkpt lat="47.41124" lon="6.78167">
        <ele>340.3</ele>
        <time>2017-10-01T08:24:49Z</time>
      </trkpt>
      <trkpt lat="47.41123" lon="6.78162">
        <ele>340.5</ele>
        <time>2017-10-01T08:24:50Z</time>
      </trkpt>
      <trkpt lat="47.41122" lon="6.78157">
        <ele>340.6</ele>
        <time>2017-10-01T08:24:51Z</time>
      </trkpt>
      <trkpt lat="47.41121" lon="6.7815">
        <ele>340.8</ele>
        <time>2017-10-01T08:24:52Z</time>
      </trkpt>
      <trkpt lat="47.4112" lon="6.78144">
        <ele>341</ele>
        <time>2017-10-01T08:24:53Z</time>
      </trkpt>
      <trkpt lat="47.41119" lon="6.78139">
        <ele>341.1</ele>
        <time>2017-10-01T08:24:54Z</time>
      </trkpt>
      <trkpt lat="47.41118" lon="6.78134">
        <ele>341.3</ele>
        <time>2017-10-01T08:24:55Z</time>
      </trkpt>
      <trkpt lat="47.41118" lon="6.78128">
        <ele>341.5</ele>
        <time>2017-10-01T08:24:56Z</time>
      </trkpt>
      <trkpt lat="47.41116" lon="6.7812">
        <ele>341.8</ele>
        <time>2017-10-01T08:24:57Z</time>
      </trkpt>
      <trkpt lat="47.41116" lon="6.78113">
        <ele>341.9</ele>
        <time>2017-10-01T08:24:58Z</time>
      </trkpt>
      <trkpt lat="47.41115" lon="6.78107">
        <ele>341.9</ele>
        <time>2017-10-01T08:24:59Z</time>
      </trkpt>
      <trkpt lat="47.41114" lon="6.78101">
        <ele>341.9</ele>
        <time>2017-10-01T08:25:00Z</time>
      </trkpt>
      <trkpt lat="47.41113" lon="6.78095">
        <ele>341.7</ele>
        <time>2017-10-01T08:25:01Z</time>
      </trkpt>
      <trkpt lat="47.41112" lon="6.78089">
        <ele>341.7</ele>
        <time>2017-10-01T08:25:02Z</time>
      </trkpt>
      <trkpt lat="47.41111" lon="6.78082">
        <ele>341.6</ele>
        <time>2017-10-01T08:25:03Z</time>
      </trkpt>
      <trkpt lat="47.4111" lon="6.78075">
        <ele>341.6</ele>
        <time>2017-10-01T08:25:04Z</time>
      </trkpt>
      <trkpt lat="47.41109" lon="6.7807">
        <ele>341.7</ele>
        <time>2017-10-01T08:25:05Z</time>
      </trkpt>
      <trkpt lat="47.41108" lon="6.78063">
        <ele>341.7</ele>
        <time>2017-10-01T08:25:06Z</time>
      </trkpt>
      <trkpt lat="47.41106" lon="6.78057">
        <ele>341.8</ele>
        <time>2017-10-01T08:25:07Z</time>
      </trkpt>
      <trkpt lat="47.41105" lon="6.78052">
        <ele>341.8</ele>
        <time>2017-10-01T08:25:08Z</time>
      </trkpt>
      <trkpt lat="47.41104" lon="6.78045">
        <ele>341.7</ele>
        <time>2017-10-01T08:25:09Z</time>
      </trkpt>
      <trkpt lat="47.41103" lon="6.7804">
        <ele>341.6</ele>
        <time>2017-10-01T08:25:10Z</time>
      </trkpt>
      <trkpt lat="47.41102" lon="6.78034">
        <ele>341.5</ele>
        <time>2017-10-01T08:25:11Z</time>
      </trkpt>
      <trkpt lat="47.411" lon="6.78027">
        <ele>341.4</ele>
        <time>2017-10-01T08:25:12Z</time>
      </trkpt>
      <trkpt lat="47.41099" lon="6.78021">
        <ele>341.4</ele>
        <time>2017-10-01T08:25:13Z</time>
      </trkpt>
      <trkpt lat="47.41097" lon="6.78015">
        <ele>341.3</ele>
        <time>2017-10-01T08:25:14Z</time>
      </trkpt>
      <trkpt lat="47.41096" lon="6.78008">
        <ele>341.3</ele>
        <time>2017-10-01T08:25:15Z</time>
      </trkpt>
      <trkpt lat="47.41095" lon="6.78002">
        <ele>341.2</ele>
        <time>2017-10-01T08:25:16Z</time>
      </trkpt>
      <trkpt lat="47.41095" lon="6.77997">
        <ele>341.1</ele>
        <time>2017-10-01T08:25:17Z</time>
      </trkpt>
      <trkpt lat="47.41094" lon="6.77993">
        <ele>340.9</ele>
        <time>2017-10-01T08:25:18Z</time>
      </trkpt>
      <trkpt lat="47.41092" lon="6.77987">
        <ele>340.7</ele>
        <time>2017-10-01T08:25:19Z</time>
      </trkpt>
      <trkpt lat="47.41091" lon="6.77981">
        <ele>340.4</ele>
        <time>2017-10-01T08:25:20Z</time>
      </trkpt>
      <trkpt lat="47.41089" lon="6.77974">
        <ele>340.2</ele>
        <time>2017-10-01T08:25:21Z</time>
      </trkpt>
      <trkpt lat="47.41088" lon="6.77969">
        <ele>340.2</ele>
        <time>2017-10-01T08:25:22Z</time>
      </trkpt>
      <trkpt lat="47.41085" lon="6.77963">
        <ele>340.2</ele>
        <time>2017-10-01T08:25:23Z</time>
      </trkpt>
      <trkpt lat="47.41083" lon="6.77956">
        <ele>340.2</ele>
        <time>2017-10-01T08:25:24Z</time>
      </trkpt>
      <trkpt lat="47.41081" lon="6.77949">
        <ele>340.2</ele>
        <time>2017-10-01T08:25:25Z</time>
      </trkpt>
      <trkpt lat="47.4108" lon="6.77943">
        <ele>340.1</ele>
        <time>2017-10-01T08:25:26Z</time>
      </trkpt>
      <trkpt lat="47.41078" lon="6.77938">
        <ele>339.9</ele>
        <time>2017-10-01T08:25:27Z</time>
      </trkpt>
      <trkpt lat="47.41077" lon="6.77932">
        <ele>339.8</ele>
        <time>2017-10-01T08:25:28Z</time>
      </trkpt>
      <trkpt lat="47.41075" lon="6.77926">
        <ele>339.7</ele>
        <time>2017-10-01T08:25:29Z</time>
      </trkpt>
      <trkpt lat="47.41073" lon="6.77921">
        <ele>339.7</ele>
        <time>2017-10-01T08:25:30Z</time>
      </trkpt>
      <trkpt lat="47.41071" lon="6.77916">
        <ele>339.7</ele>
        <time>2017-10-01T08:25:31Z</time>
      </trkpt>
      <trkpt lat="47.4107" lon="6.7791">
        <ele>339.7</ele>
        <time>2017-10-01T08:25:32Z</time>
      </trkpt>
      <trkpt lat="47.41068" lon="6.77904">
        <ele>339.7</ele>
        <time>2017-10-01T08:25:33Z</time>
      </trkpt>
      <trkpt lat="47.41065" lon="6.77898">
        <ele>339.7</ele>
        <time>2017-10-01T08:25:34Z</time>
      </trkpt>
      <trkpt lat="47.41062" lon="6.77892">
        <ele>339.7</ele>
        <time>2017-10-01T08:25:35Z</time>
      </trkpt>
      <trkpt lat="47.41059" lon="6.77885">
        <ele>339.8</ele>
        <time>2017-10-01T08:25:36Z</time>
      </trkpt>
      <trkpt lat="47.41057" lon="6.77879">
        <ele>339.9</ele>
        <time>2017-10-01T08:25:37Z</time>
      </trkpt>
      <trkpt lat="47.41054" lon="6.77872">
        <ele>340.1</ele>
        <time>2017-10-01T08:25:38Z</time>
      </trkpt>
      <trkpt lat="47.41051" lon="6.77866">
        <ele>340.2</ele>
        <time>2017-10-01T08:25:39Z</time>
      </trkpt>
      <trkpt lat="47.41049" lon="6.77861">
        <ele>340.3</ele>
        <time>2017-10-01T08:25:40Z</time>
      </trkpt>
      <trkpt lat="47.41046" lon="6.77857">
        <ele>340.5</ele>
        <time>2017-10-01T08:25:41Z</time>
      </trkpt>
      <trkpt lat="47.41044" lon="6.77853">
        <ele>340.6</ele>
        <time>2017-10-01T08:25:42Z</time>
      </trkpt>
      <trkpt lat="47.41042" lon="6.77849">
        <ele>340.7</ele>
        <time>2017-10-01T08:25:43Z</time>
      </trkpt>
      <trkpt lat="47.41039" lon="6.77845">
        <ele>340.9</ele>
        <time>2017-10-01T08:25:44Z</time>
      </trkpt>
      <trkpt lat="47.41036" lon="6.7784">
        <ele>341.1</ele>
        <time>2017-10-01T08:25:45Z</time>
      </trkpt>
      <trkpt lat="47.41033" lon="6.77836">
        <ele>341.3</ele>
        <time>2017-10-01T08:25:46Z</time>
      </trkpt>
      <trkpt lat="47.41031" lon="6.77832">
        <ele>341.5</ele>
        <time>2017-10-01T08:25:47Z</time>
      </trkpt>
      <trkpt lat="47.41028" lon="6.77828">
        <ele>341.7</ele>
        <time>2017-10-01T08:25:48Z</time>
      </trkpt>
      <trkpt lat="47.41025" lon="6.77825">
        <ele>341.8</ele>
        <time>2017-10-01T08:25:49Z</time>
      </trkpt>
      <trkpt lat="47.41022" lon="6.77821">
        <ele>342</ele>
        <time>2017-10-01T08:25:50Z</time>
      </trkpt>
      <trkpt lat="47.41019" lon="6.77817">
        <ele>342.1</ele>
        <time>2017-10-01T08:25:51Z</time>
      </trkpt>
      <trkpt lat="47.41016" lon="6.77814">
        <ele>342</ele>
        <time>2017-10-01T08:25:52Z</time>
      </trkpt>
      <trkpt lat="47.41013" lon="6.77809">
        <ele>341.9</ele>
        <time>2017-10-01T08:25:53Z</time>
      </trkpt>
      <trkpt lat="47.4101" lon="6.77805">
        <ele>341.7</ele>
        <time>2017-10-01T08:25:54Z</time>
      </trkpt>
      <trkpt lat="47.41007" lon="6.77801">
        <ele>341.5</ele>
        <time>2017-10-01T08:25:55Z</time>
      </trkpt>
      <trkpt lat="47.41005" lon="6.77796">
        <ele>341.2</ele>
        <time>2017-10-01T08:25:56Z</time>
      </trkpt>
      <trkpt lat="47.41002" lon="6.77792">
        <ele>341</ele>
        <time>2017-10-01T08:25:57Z</time>
      </trkpt>
      <trkpt lat="47.40999" lon="6.77787">
        <ele>341.3</ele>
        <time>2017-10-01T08:25:58Z</time>
      </trkpt>
      <trkpt lat="47.40997" lon="6.77782">
        <ele>341.5</ele>
        <time>2017-10-01T08:25:59Z</time>
      </trkpt>
      <trkpt lat="47.40996" lon="6.77776">
        <ele>341.8</ele>
        <time>2017-10-01T08:26:00Z</time>
      </trkpt>
      <trkpt lat="47.40997" lon="6.77768">
        <ele>342</ele>
        <time>2017-10-01T08:26:01Z</time>
      </trkpt>
      <trkpt lat="47.41" lon="6.77763">
        <ele>341.8</ele>
        <time>2017-10-01T08:26:02Z</time>
      </trkpt>
      <trkpt lat="47.41004" lon="6.77758">
        <ele>341.7</ele>
        <time>2017-10-01T08:26:03Z</time>
      </trkpt>
      <trkpt lat="47.41007" lon="6.77753">
        <ele>341.6</ele>
        <time>2017-10-01T08:26:04Z</time>
      </trkpt>
      <trkpt lat="47.41014" lon="6.77744">
        <ele>341.5</ele>
        <time>2017-10-01T08:26:06Z</time>
      </trkpt>
      <trkpt lat="47.41017" lon="6.7774">
        <ele>341.4</ele>
        <time>2017-10-01T08:26:07Z</time>
      </trkpt>
      <trkpt lat="47.4102" lon="6.77735">
        <ele>341.2</ele>
        <time>2017-10-01T08:26:08Z</time>
      </trkpt>
      <trkpt lat="47.41024" lon="6.7773">
        <ele>341.1</ele>
        <time>2017-10-01T08:26:09Z</time>
      </trkpt>
      <trkpt lat="47.41027" lon="6.77725">
        <ele>341</ele>
        <time>2017-10-01T08:26:10Z</time>
      </trkpt>
      <trkpt lat="47.41031" lon="6.7772">
        <ele>341</ele>
        <time>2017-10-01T08:26:11Z</time>
      </trkpt>
      <trkpt lat="47.41034" lon="6.77715">
        <ele>341</ele>
        <time>2017-10-01T08:26:12Z</time>
      </trkpt>
      <trkpt lat="47.41038" lon="6.77711">
        <ele>341</ele>
        <time>2017-10-01T08:26:13Z</time>
      </trkpt>
      <trkpt lat="47.41042" lon="6.77707">
        <ele>341</ele>
        <time>2017-10-01T08:26:14Z</time>
      </trkpt>
      <trkpt lat="47.41045" lon="6.77704">
        <ele>341</ele>
        <time>2017-10-01T08:26:15Z</time>
      </trkpt>
      <trkpt lat="47.41048" lon="6.77699">
        <ele>341.1</ele>
        <time>2017-10-01T08:26:16Z</time>
      </trkpt>
      <trkpt lat="47.41051" lon="6.77695">
        <ele>341.2</ele>
        <time>2017-10-01T08:26:17Z</time>
      </trkpt>
      <trkpt lat="47.41054" lon="6.77689">
        <ele>341.2</ele>
        <time>2017-10-01T08:26:18Z</time>
      </trkpt>
      <trkpt lat="47.41058" lon="6.77684">
        <ele>341.3</ele>
        <time>2017-10-01T08:26:19Z</time>
      </trkpt>
      <trkpt lat="47.41061" lon="6.7768">
        <ele>341.3</ele>
        <time>2017-10-01T08:26:20Z</time>
      </trkpt>
      <trkpt lat="47.41064" lon="6.77676">
        <ele>341.4</ele>
        <time>2017-10-01T08:26:21Z</time>
      </trkpt>
      <trkpt lat="47.41069" lon="6.7767">
        <ele>341.5</ele>
        <time>2017-10-01T08:26:22Z</time>
      </trkpt>
      <trkpt lat="47.41073" lon="6.77664">
        <ele>341.6</ele>
        <time>2017-10-01T08:26:23Z</time>
      </trkpt>
      <trkpt lat="47.41076" lon="6.7766">
        <ele>341.6</ele>
        <time>2017-10-01T08:26:24Z</time>
      </trkpt>
      <trkpt lat="47.41079" lon="6.77657">
        <ele>341.7</ele>
        <time>2017-10-01T08:26:25Z</time>
      </trkpt>
      <trkpt lat="47.41082" lon="6.77652">
        <ele>341.7</ele>
        <time>2017-10-01T08:26:26Z</time>
      </trkpt>
      <trkpt lat="47.41085" lon="6.77648">
        <ele>341.8</ele>
        <time>2017-10-01T08:26:27Z</time>
      </trkpt>
      <trkpt lat="47.41088" lon="6.77644">
        <ele>341.8</ele>
        <time>2017-10-01T08:26:28Z</time>
      </trkpt>
      <trkpt lat="47.41092" lon="6.7764">
        <ele>341.9</ele>
        <time>2017-10-01T08:26:29Z</time>
      </trkpt>
      <trkpt lat="47.41095" lon="6.77636">
        <ele>342</ele>
        <time>2017-10-01T08:26:30Z</time>
      </trkpt>
      <trkpt lat="47.41098" lon="6.77632">
        <ele>342.1</ele>
        <time>2017-10-01T08:26:31Z</time>
      </trkpt>
      <trkpt lat="47.41101" lon="6.77628">
        <ele>342.1</ele>
        <time>2017-10-01T08:26:32Z</time>
      </trkpt>
      <trkpt lat="47.41105" lon="6.77624">
        <ele>342.2</ele>
        <time>2017-10-01T08:26:33Z</time>
      </trkpt>
      <trkpt lat="47.41108" lon="6.7762">
        <ele>342.3</ele>
        <time>2017-10-01T08:26:34Z</time>
      </trkpt>
      <trkpt lat="47.41111" lon="6.77617">
        <ele>342.3</ele>
        <time>2017-10-01T08:26:35Z</time>
      </trkpt>
      <trkpt lat="47.41115" lon="6.77613">
        <ele>342.4</ele>
        <time>2017-10-01T08:26:36Z</time>
      </trkpt>
      <trkpt lat="47.41117" lon="6.77609">
        <ele>342.4</ele>
        <time>2017-10-01T08:26:37Z</time>
      </trkpt>
      <trkpt lat="47.4112" lon="6.77605">
        <ele>342.5</ele>
        <time>2017-10-01T08:26:38Z</time>
      </trkpt>
      <trkpt lat="47.41123" lon="6.77601">
        <ele>342.6</ele>
        <time>2017-10-01T08:26:39Z</time>
      </trkpt>
      <trkpt lat="47.41126" lon="6.77597">
        <ele>342.7</ele>
        <time>2017-10-01T08:26:40Z</time>
      </trkpt>
      <trkpt lat="47.41129" lon="6.77594">
        <ele>342.8</ele>
        <time>2017-10-01T08:26:41Z</time>
      </trkpt>
      <trkpt lat="47.41134" lon="6.77593">
        <ele>342.9</ele>
        <time>2017-10-01T08:26:42Z</time>
      </trkpt>
      <trkpt lat="47.41138" lon="6.77594">
        <ele>343</ele>
        <time>2017-10-01T08:26:43Z</time>
      </trkpt>
      <trkpt lat="47.41142" lon="6.77597">
        <ele>343</ele>
        <time>2017-10-01T08:26:44Z</time>
      </trkpt>
      <trkpt lat="47.41145" lon="6.77601">
        <ele>343</ele>
        <time>2017-10-01T08:26:45Z</time>
      </trkpt>
      <trkpt lat="47.41148" lon="6.77605">
        <ele>342.9</ele>
        <time>2017-10-01T08:26:46Z</time>
      </trkpt>
      <trkpt lat="47.41151" lon="6.77608">
        <ele>342.9</ele>
        <time>2017-10-01T08:26:47Z</time>
      </trkpt>
      <trkpt lat="47.41155" lon="6.77612">
        <ele>342.9</ele>
        <time>2017-10-01T08:26:48Z</time>
      </trkpt>
      <trkpt lat="47.41159" lon="6.77616">
        <ele>342.9</ele>
        <time>2017-10-01T08:26:49Z</time>
      </trkpt>
      <trkpt lat="47.41162" lon="6.77618">
        <ele>342.9</ele>
        <time>2017-10-01T08:26:50Z</time>
      </trkpt>
      <trkpt lat="47.41165" lon="6.77621">
        <ele>342.9</ele>
        <time>2017-10-01T08:26:51Z</time>
      </trkpt>
      <trkpt lat="47.41168" lon="6.77624">
        <ele>342.9</ele>
        <time>2017-10-01T08:26:52Z</time>
      </trkpt>
      <trkpt lat="47.41172" lon="6.77627">
        <ele>342.9</ele>
        <time>2017-10-01T08:26:53Z</time>
      </trkpt>
      <trkpt lat="47.41176" lon="6.7763">
        <ele>342.9</ele>
        <time>2017-10-01T08:26:54Z</time>
      </trkpt>
      <trkpt lat="47.4118" lon="6.77634">
        <ele>342.8</ele>
        <time>2017-10-01T08:26:55Z</time>
      </trkpt>
      <trkpt lat="47.41184" lon="6.77637">
        <ele>342.8</ele>
        <time>2017-10-01T08:26:56Z</time>
      </trkpt>
      <trkpt lat="47.41188" lon="6.7764">
        <ele>342.8</ele>
        <time>2017-10-01T08:26:57Z</time>
      </trkpt>
      <trkpt lat="47.41191" lon="6.77644">
        <ele>342.8</ele>
        <time>2017-10-01T08:26:58Z</time>
      </trkpt>
      <trkpt lat="47.41194" lon="6.77648">
        <ele>342.8</ele>
        <time>2017-10-01T08:26:59Z</time>
      </trkpt>
      <trkpt lat="47.41197" lon="6.77651">
        <ele>342.8</ele>
        <time>2017-10-01T08:27:00Z</time>
      </trkpt>
      <trkpt lat="47.41201" lon="6.77655">
        <ele>342.8</ele>
        <time>2017-10-01T08:27:01Z</time>
      </trkpt>
      <trkpt lat="47.41204" lon="6.77659">
        <ele>342.8</ele>
        <time>2017-10-01T08:27:02Z</time>
      </trkpt>
      <trkpt lat="47.41208" lon="6.77663">
        <ele>342.8</ele>
        <time>2017-10-01T08:27:03Z</time>
      </trkpt>
      <trkpt lat="47.41213" lon="6.77668">
        <ele>342.8</ele>
        <time>2017-10-01T08:27:04Z</time>
      </trkpt>
      <trkpt lat="47.4122" lon="6.77676">
        <ele>342.7</ele>
        <time>2017-10-01T08:27:06Z</time>
      </trkpt>
      <trkpt lat="47.41225" lon="6.7768">
        <ele>342.7</ele>
        <time>2017-10-01T08:27:07Z</time>
      </trkpt>
      <trkpt lat="47.41229" lon="6.77685">
        <ele>342.7</ele>
        <time>2017-10-01T08:27:08Z</time>
      </trkpt>
      <trkpt lat="47.41233" lon="6.77688">
        <ele>342.7</ele>
        <time>2017-10-01T08:27:09Z</time>
      </trkpt>
      <trkpt lat="47.41236" lon="6.77692">
        <ele>342.7</ele>
        <time>2017-10-01T08:27:10Z</time>
      </trkpt>
      <trkpt lat="47.41239" lon="6.77696">
        <ele>342.7</ele>
        <time>2017-10-01T08:27:11Z</time>
      </trkpt>
      <trkpt lat="47.41242" lon="6.777">
        <ele>342.7</ele>
        <time>2017-10-01T08:27:12Z</time>
      </trkpt>
      <trkpt lat="47.41246" lon="6.77704">
        <ele>342.7</ele>
        <time>2017-10-01T08:27:13Z</time>
      </trkpt>
      <trkpt lat="47.4125" lon="6.77709">
        <ele>342.6</ele>
        <time>2017-10-01T08:27:14Z</time>
      </trkpt>
      <trkpt lat="47.41254" lon="6.77714">
        <ele>342.6</ele>
        <time>2017-10-01T08:27:15Z</time>
      </trkpt>
      <trkpt lat="47.41257" lon="6.77718">
        <ele>342.6</ele>
        <time>2017-10-01T08:27:16Z</time>
      </trkpt>
      <trkpt lat="47.41261" lon="6.77722">
        <ele>342.6</ele>
        <time>2017-10-01T08:27:17Z</time>
      </trkpt>
      <trkpt lat="47.41264" lon="6.77727">
        <ele>342.6</ele>
        <time>2017-10-01T08:27:18Z</time>
      </trkpt>
      <trkpt lat="47.41268" lon="6.77732">
        <ele>342.6</ele>
        <time>2017-10-01T08:27:19Z</time>
      </trkpt>
      <trkpt lat="47.41272" lon="6.77736">
        <ele>342.6</ele>
        <time>2017-10-01T08:27:20Z</time>
      </trkpt>
      <trkpt lat="47.41275" lon="6.7774">
        <ele>342.6</ele>
        <time>2017-10-01T08:27:21Z</time>
      </trkpt>
      <trkpt lat="47.41278" lon="6.77745">
        <ele>342.6</ele>
        <time>2017-10-01T08:27:22Z</time>
      </trkpt>
      <trkpt lat="47.41281" lon="6.77749">
        <ele>342.5</ele>
        <time>2017-10-01T08:27:23Z</time>
      </trkpt>
      <trkpt lat="47.41285" lon="6.77754">
        <ele>342.5</ele>
        <time>2017-10-01T08:27:24Z</time>
      </trkpt>
      <trkpt lat="47.41288" lon="6.77759">
        <ele>342.5</ele>
        <time>2017-10-01T08:27:25Z</time>
      </trkpt>
      <trkpt lat="47.4129" lon="6.77765">
        <ele>342.5</ele>
        <time>2017-10-01T08:27:26Z</time>
      </trkpt>
      <trkpt lat="47.41293" lon="6.7777">
        <ele>342.5</ele>
        <time>2017-10-01T08:27:27Z</time>
      </trkpt>
      <trkpt lat="47.41295" lon="6.77776">
        <ele>342.4</ele>
        <time>2017-10-01T08:27:28Z</time>
      </trkpt>
      <trkpt lat="47.41298" lon="6.77781">
        <ele>342.4</ele>
        <time>2017-10-01T08:27:29Z</time>
      </trkpt>
      <trkpt lat="47.41301" lon="6.77786">
        <ele>342.4</ele>
        <time>2017-10-01T08:27:30Z</time>
      </trkpt>
      <trkpt lat="47.41303" lon="6.77792">
        <ele>342.4</ele>
        <time>2017-10-01T08:27:31Z</time>
      </trkpt>
      <trkpt lat="47.41305" lon="6.77798">
        <ele>342.4</ele>
        <time>2017-10-01T08:27:32Z</time>
      </trkpt>
      <trkpt lat="47.41307" lon="6.77804">
        <ele>342.4</ele>
        <time>2017-10-01T08:27:33Z</time>
      </trkpt>
      <trkpt lat="47.41309" lon="6.7781">
        <ele>342.4</ele>
        <time>2017-10-01T08:27:34Z</time>
      </trkpt>
      <trkpt lat="47.41311" lon="6.77815">
        <ele>342.3</ele>
        <time>2017-10-01T08:27:35Z</time>
      </trkpt>
      <trkpt lat="47.41313" lon="6.7782">
        <ele>342.3</ele>
        <time>2017-10-01T08:27:36Z</time>
      </trkpt>
      <trkpt lat="47.41315" lon="6.77826">
        <ele>342.3</ele>
        <time>2017-10-01T08:27:37Z</time>
      </trkpt>
      <trkpt lat="47.41317" lon="6.77833">
        <ele>342.3</ele>
        <time>2017-10-01T08:27:38Z</time>
      </trkpt>
      <trkpt lat="47.4132" lon="6.77838">
        <ele>342.3</ele>
        <time>2017-10-01T08:27:39Z</time>
      </trkpt>
      <trkpt lat="47.41322" lon="6.77844">
        <ele>342.3</ele>
        <time>2017-10-01T08:27:40Z</time>
      </trkpt>
      <trkpt lat="47.41324" lon="6.77849">
        <ele>342.3</ele>
        <time>2017-10-01T08:27:41Z</time>
      </trkpt>
      <trkpt lat="47.41326" lon="6.77854">
        <ele>342.2</ele>
        <time>2017-10-01T08:27:42Z</time>
      </trkpt>
      <trkpt lat="47.41328" lon="6.77859">
        <ele>342.2</ele>
        <time>2017-10-01T08:27:43Z</time>
      </trkpt>
      <trkpt lat="47.41331" lon="6.77864">
        <ele>342.2</ele>
        <time>2017-10-01T08:27:44Z</time>
      </trkpt>
      <trkpt lat="47.41333" lon="6.7787">
        <ele>342.2</ele>
        <time>2017-10-01T08:27:45Z</time>
      </trkpt>
      <trkpt lat="47.41334" lon="6.77876">
        <ele>342.2</ele>
        <time>2017-10-01T08:27:46Z</time>
      </trkpt>
      <trkpt lat="47.41336" lon="6.77882">
        <ele>342.2</ele>
        <time>2017-10-01T08:27:47Z</time>
      </trkpt>
      <trkpt lat="47.41338" lon="6.77888">
        <ele>342.1</ele>
        <time>2017-10-01T08:27:48Z</time>
      </trkpt>
      <trkpt lat="47.4134" lon="6.77893">
        <ele>342.1</ele>
        <time>2017-10-01T08:27:49Z</time>
      </trkpt>
      <trkpt lat="47.41342" lon="6.779">
        <ele>342.1</ele>
        <time>2017-10-01T08:27:50Z</time>
      </trkpt>
      <trkpt lat="47.41345" lon="6.77905">
        <ele>342.1</ele>
        <time>2017-10-01T08:27:51Z</time>
      </trkpt>
      <trkpt lat="47.41349" lon="6.7791">
        <ele>342</ele>
        <time>2017-10-01T08:27:52Z</time>
      </trkpt>
      <trkpt lat="47.41353" lon="6.7791">
        <ele>342.1</ele>
        <time>2017-10-01T08:27:53Z</time>
      </trkpt>
      <trkpt lat="47.41356" lon="6.77908">
        <ele>342.1</ele>
        <time>2017-10-01T08:27:54Z</time>
      </trkpt>
      <trkpt lat="47.4136" lon="6.77906">
        <ele>342.1</ele>
        <time>2017-10-01T08:27:55Z</time>
      </trkpt>
      <trkpt lat="47.41364" lon="6.77902">
        <ele>342.2</ele>
        <time>2017-10-01T08:27:56Z</time>
      </trkpt>
      <trkpt lat="47.41368" lon="6.77897">
        <ele>342.3</ele>
        <time>2017-10-01T08:27:57Z</time>
      </trkpt>
      <trkpt lat="47.41371" lon="6.77892">
        <ele>342.4</ele>
        <time>2017-10-01T08:27:58Z</time>
      </trkpt>
      <trkpt lat="47.41373" lon="6.77886">
        <ele>342.4</ele>
        <time>2017-10-01T08:27:59Z</time>
      </trkpt>
      <trkpt lat="47.41375" lon="6.7788">
        <ele>342.5</ele>
        <time>2017-10-01T08:28:00Z</time>
      </trkpt>
      <trkpt lat="47.41377" lon="6.77874">
        <ele>342.6</ele>
        <time>2017-10-01T08:28:01Z</time>
      </trkpt>
      <trkpt lat="47.41379" lon="6.77869">
        <ele>342.6</ele>
        <time>2017-10-01T08:28:02Z</time>
      </trkpt>
      <trkpt lat="47.41381" lon="6.77863">
        <ele>342.7</ele>
        <time>2017-10-01T08:28:03Z</time>
      </trkpt>
      <trkpt lat="47.41384" lon="6.77857">
        <ele>342.7</ele>
        <time>2017-10-01T08:28:04Z</time>
      </trkpt>
      <trkpt lat="47.41389" lon="6.77845">
        <ele>343</ele>
        <time>2017-10-01T08:28:06Z</time>
      </trkpt>
      <trkpt lat="47.41392" lon="6.77839">
        <ele>342.9</ele>
        <time>2017-10-01T08:28:07Z</time>
      </trkpt>
      <trkpt lat="47.41394" lon="6.77833">
        <ele>342.9</ele>
        <time>2017-10-01T08:28:08Z</time>
      </trkpt>
      <trkpt lat="47.41396" lon="6.77828">
        <ele>342.8</ele>
        <time>2017-10-01T08:28:09Z</time>
      </trkpt>
      <trkpt lat="47.41398" lon="6.77821">
        <ele>342.8</ele>
        <time>2017-10-01T08:28:10Z</time>
      </trkpt>
      <trkpt lat="47.41401" lon="6.77815">
        <ele>342.8</ele>
        <time>2017-10-01T08:28:11Z</time>
      </trkpt>
      <trkpt lat="47.41403" lon="6.77809">
        <ele>342.7</ele>
        <time>2017-10-01T08:28:12Z</time>
      </trkpt>
      <trkpt lat="47.41406" lon="6.77804">
        <ele>342.7</ele>
        <time>2017-10-01T08:28:13Z</time>
      </trkpt>
      <trkpt lat="47.41408" lon="6.77798">
        <ele>342.7</ele>
        <time>2017-10-01T08:28:14Z</time>
      </trkpt>
      <trkpt lat="47.4141" lon="6.77792">
        <ele>342.6</ele>
        <time>2017-10-01T08:28:15Z</time>
      </trkpt>
      <trkpt lat="47.41413" lon="6.77786">
        <ele>342.6</ele>
        <time>2017-10-01T08:28:16Z</time>
      </trkpt>
      <trkpt lat="47.41415" lon="6.77779">
        <ele>342.5</ele>
        <time>2017-10-01T08:28:17Z</time>
      </trkpt>
      <trkpt lat="47.41417" lon="6.77774">
        <ele>342.5</ele>
        <time>2017-10-01T08:28:18Z</time>
      </trkpt>
      <trkpt lat="47.41419" lon="6.77769">
        <ele>342.5</ele>
        <time>2017-10-01T08:28:19Z</time>
      </trkpt>
      <trkpt lat="47.41421" lon="6.77762">
        <ele>342.4</ele>
        <time>2017-10-01T08:28:20Z</time>
      </trkpt>
      <trkpt lat="47.41423" lon="6.77756">
        <ele>342.4</ele>
        <time>2017-10-01T08:28:21Z</time>
      </trkpt>
      <trkpt lat="47.41425" lon="6.77751">
        <ele>342.4</ele>
        <time>2017-10-01T08:28:22Z</time>
      </trkpt>
      <trkpt lat="47.41428" lon="6.77744">
        <ele>342.3</ele>
        <time>2017-10-01T08:28:23Z</time>
      </trkpt>
      <trkpt lat="47.4143" lon="6.77738">
        <ele>342.2</ele>
        <time>2017-10-01T08:28:24Z</time>
      </trkpt>
      <trkpt lat="47.41431" lon="6.77732">
        <ele>342.2</ele>
        <time>2017-10-01T08:28:25Z</time>
      </trkpt>
      <trkpt lat="47.41433" lon="6.77726">
        <ele>342.1</ele>
        <time>2017-10-01T08:28:26Z</time>
      </trkpt>
      <trkpt lat="47.41434" lon="6.77721">
        <ele>342.1</ele>
        <time>2017-10-01T08:28:27Z</time>
      </trkpt>
      <trkpt lat="47.41435" lon="6.7772">
        <ele>342.1</ele>
        <time>2017-10-01T08:28:28Z</time>
      </trkpt>
      <trkpt lat="47.41436" lon="6.77726">
        <ele>342</ele>
        <time>2017-10-01T08:28:40Z</time>
      </trkpt>
      <trkpt lat="47.41436" lon="6.77728">
        <ele>342.1</ele>
        <time>2017-10-01T08:28:41Z</time>
      </trkpt>
      <trkpt lat="47.41439" lon="6.77733">
        <ele>342.4</ele>
        <time>2017-10-01T08:28:52Z</time>
      </trkpt>
      <trkpt lat="47.4144" lon="6.77733">
        <ele>342.4</ele>
        <time>2017-10-01T08:28:53Z</time>
      </trkpt>
      <trkpt lat="47.41441" lon="6.7773">
        <ele>342.6</ele>
        <time>2017-10-01T08:28:56Z</time>
      </trkpt>
      <trkpt lat="47.41442" lon="6.77727">
        <ele>342.8</ele>
        <time>2017-10-01T08:28:57Z</time>
      </trkpt>
      <trkpt lat="47.41443" lon="6.77723">
        <ele>343</ele>
        <time>2017-10-01T08:28:58Z</time>
      </trkpt>
      <trkpt lat="47.41445" lon="6.77715">
        <ele>343.3</ele>
        <time>2017-10-01T08:28:59Z</time>
      </trkpt>
      <trkpt lat="47.41445" lon="6.7771">
        <ele>343.6</ele>
        <time>2017-10-01T08:29:00Z</time>
      </trkpt>
      <trkpt lat="47.41446" lon="6.77702">
        <ele>344</ele>
        <time>2017-10-01T08:29:01Z</time>
      </trkpt>
      <trkpt lat="47.41446" lon="6.77696">
        <ele>344.2</ele>
        <time>2017-10-01T08:29:02Z</time>
      </trkpt>
      <trkpt lat="47.41447" lon="6.77689">
        <ele>344.6</ele>
        <time>2017-10-01T08:29:03Z</time>
      </trkpt>
      <trkpt lat="47.41448" lon="6.77681">
        <ele>345.1</ele>
        <time>2017-10-01T08:29:04Z</time>
      </trkpt>
      <trkpt lat="47.4145" lon="6.77669">
        <ele>345.8</ele>
        <time>2017-10-01T08:29:06Z</time>
      </trkpt>
      <trkpt lat="47.41452" lon="6.77664">
        <ele>346.2</ele>
        <time>2017-10-01T08:29:07Z</time>
      </trkpt>
      <trkpt lat="47.41453" lon="6.77657">
        <ele>346.7</ele>
        <time>2017-10-01T08:29:08Z</time>
      </trkpt>
      <trkpt lat="47.41455" lon="6.77651">
        <ele>347.1</ele>
        <time>2017-10-01T08:29:09Z</time>
      </trkpt>
      <trkpt lat="47.41457" lon="6.77644">
        <ele>347.9</ele>
        <time>2017-10-01T08:29:10Z</time>
      </trkpt>
      <trkpt lat="47.41459" lon="6.77637">
        <ele>349</ele>
        <time>2017-10-01T08:29:11Z</time>
      </trkpt>
      <trkpt lat="47.41461" lon="6.77632">
        <ele>349.5</ele>
        <time>2017-10-01T08:29:12Z</time>
      </trkpt>
      <trkpt lat="47.41463" lon="6.77628">
        <ele>350.1</ele>
        <time>2017-10-01T08:29:13Z</time>
      </trkpt>
      <trkpt lat="47.41465" lon="6.77623">
        <ele>350.6</ele>
        <time>2017-10-01T08:29:14Z</time>
      </trkpt>
      <trkpt lat="47.41468" lon="6.77619">
        <ele>351.2</ele>
        <time>2017-10-01T08:29:15Z</time>
      </trkpt>
      <trkpt lat="47.41471" lon="6.77616">
        <ele>351.8</ele>
        <time>2017-10-01T08:29:16Z</time>
      </trkpt>
      <trkpt lat="47.41475" lon="6.77612">
        <ele>352</ele>
        <time>2017-10-01T08:29:17Z</time>
      </trkpt>
      <trkpt lat="47.41478" lon="6.77609">
        <ele>352.1</ele>
        <time>2017-10-01T08:29:18Z</time>
      </trkpt>
      <trkpt lat="47.41482" lon="6.77605">
        <ele>352.2</ele>
        <time>2017-10-01T08:29:19Z</time>
      </trkpt>
      <trkpt lat="47.41487" lon="6.77603">
        <ele>352.3</ele>
        <time>2017-10-01T08:29:20Z</time>
      </trkpt>
      <trkpt lat="47.41492" lon="6.77602">
        <ele>352.4</ele>
        <time>2017-10-01T08:29:21Z</time>
      </trkpt>
      <trkpt lat="47.41498" lon="6.776">
        <ele>352.5</ele>
        <time>2017-10-01T08:29:22Z</time>
      </trkpt>
      <trkpt lat="47.41503" lon="6.776">
        <ele>352.6</ele>
        <time>2017-10-01T08:29:23Z</time>
      </trkpt>
      <trkpt lat="47.41507" lon="6.77599">
        <ele>352.7</ele>
        <time>2017-10-01T08:29:24Z</time>
      </trkpt>
      <trkpt lat="47.41511" lon="6.77598">
        <ele>352.8</ele>
        <time>2017-10-01T08:29:25Z</time>
      </trkpt>
      <trkpt lat="47.41515" lon="6.77598">
        <ele>353</ele>
        <time>2017-10-01T08:29:26Z</time>
      </trkpt>
      <trkpt lat="47.4152" lon="6.77598">
        <ele>353.2</ele>
        <time>2017-10-01T08:29:27Z</time>
      </trkpt>
      <trkpt lat="47.41524" lon="6.77597">
        <ele>353.3</ele>
        <time>2017-10-01T08:29:28Z</time>
      </trkpt>
      <trkpt lat="47.41529" lon="6.77596">
        <ele>353.4</ele>
        <time>2017-10-01T08:29:29Z</time>
      </trkpt>
      <trkpt lat="47.41534" lon="6.77596">
        <ele>353.5</ele>
        <time>2017-10-01T08:29:30Z</time>
      </trkpt>
      <trkpt lat="47.41539" lon="6.77595">
        <ele>353.6</ele>
        <time>2017-10-01T08:29:31Z</time>
      </trkpt>
      <trkpt lat="47.41543" lon="6.77595">
        <ele>353.7</ele>
        <time>2017-10-01T08:29:32Z</time>
      </trkpt>
      <trkpt lat="47.41547" lon="6.77595">
        <ele>353.7</ele>
        <time>2017-10-01T08:29:33Z</time>
      </trkpt>
      <trkpt lat="47.41552" lon="6.77594">
        <ele>353.8</ele>
        <time>2017-10-01T08:29:34Z</time>
      </trkpt>
      <trkpt lat="47.41556" lon="6.77594">
        <ele>353.9</ele>
        <time>2017-10-01T08:29:35Z</time>
      </trkpt>
      <trkpt lat="47.41561" lon="6.77594">
        <ele>353.9</ele>
        <time>2017-10-01T08:29:36Z</time>
      </trkpt>
      <trkpt lat="47.41566" lon="6.77595">
        <ele>354</ele>
        <time>2017-10-01T08:29:37Z</time>
      </trkpt>
      <trkpt lat="47.4157" lon="6.77596">
        <ele>354.1</ele>
        <time>2017-10-01T08:29:38Z</time>
      </trkpt>
      <trkpt lat="47.41575" lon="6.77597">
        <ele>354.1</ele>
        <time>2017-10-01T08:29:39Z</time>
      </trkpt>
      <trkpt lat="47.4158" lon="6.77599">
        <ele>354.2</ele>
        <time>2017-10-01T08:29:40Z</time>
      </trkpt>
      <trkpt lat="47.41584" lon="6.776">
        <ele>354.3</ele>
        <time>2017-10-01T08:29:41Z</time>
      </trkpt>
      <trkpt lat="47.41588" lon="6.77601">
        <ele>354.3</ele>
        <time>2017-10-01T08:29:42Z</time>
      </trkpt>
      <trkpt lat="47.41592" lon="6.77603">
        <ele>354.4</ele>
        <time>2017-10-01T08:29:43Z</time>
      </trkpt>
      <trkpt lat="47.41597" lon="6.77605">
        <ele>354.4</ele>
        <time>2017-10-01T08:29:44Z</time>
      </trkpt>
      <trkpt lat="47.41601" lon="6.77607">
        <ele>354.5</ele>
        <time>2017-10-01T08:29:45Z</time>
      </trkpt>
      <trkpt lat="47.41605" lon="6.77609">
        <ele>354.6</ele>
        <time>2017-10-01T08:29:46Z</time>
      </trkpt>
      <trkpt lat="47.4161" lon="6.77612">
        <ele>354.6</ele>
        <time>2017-10-01T08:29:47Z</time>
      </trkpt>
      <trkpt lat="47.41615" lon="6.77614">
        <ele>354.7</ele>
        <time>2017-10-01T08:29:48Z</time>
      </trkpt>
      <trkpt lat="47.41619" lon="6.77618">
        <ele>354.8</ele>
        <time>2017-10-01T08:29:49Z</time>
      </trkpt>
      <trkpt lat="47.41624" lon="6.7762">
        <ele>354.8</ele>
        <time>2017-10-01T08:29:50Z</time>
      </trkpt>
      <trkpt lat="47.41628" lon="6.77623">
        <ele>354.9</ele>
        <time>2017-10-01T08:29:51Z</time>
      </trkpt>
      <trkpt lat="47.41632" lon="6.77626">
        <ele>355</ele>
        <time>2017-10-01T08:29:52Z</time>
      </trkpt>
      <trkpt lat="47.41636" lon="6.77629">
        <ele>355</ele>
        <time>2017-10-01T08:29:53Z</time>
      </trkpt>
      <trkpt lat="47.4164" lon="6.77632">
        <ele>355.1</ele>
        <time>2017-10-01T08:29:54Z</time>
      </trkpt>
      <trkpt lat="47.41643" lon="6.77636">
        <ele>355.2</ele>
        <time>2017-10-01T08:29:55Z</time>
      </trkpt>
      <trkpt lat="47.41646" lon="6.77639">
        <ele>355.3</ele>
        <time>2017-10-01T08:29:56Z</time>
      </trkpt>
      <trkpt lat="47.4165" lon="6.77642">
        <ele>355.4</ele>
        <time>2017-10-01T08:29:57Z</time>
      </trkpt>
      <trkpt lat="47.41654" lon="6.77645">
        <ele>355.4</ele>
        <time>2017-10-01T08:29:58Z</time>
      </trkpt>
      <trkpt lat="47.41657" lon="6.77648">
        <ele>355.5</ele>
        <time>2017-10-01T08:29:59Z</time>
      </trkpt>
      <trkpt lat="47.4166" lon="6.77651">
        <ele>355.6</ele>
        <time>2017-10-01T08:30:00Z</time>
      </trkpt>
      <trkpt lat="47.41663" lon="6.77654">
        <ele>355.8</ele>
        <time>2017-10-01T08:30:01Z</time>
      </trkpt>
      <trkpt lat="47.41667" lon="6.77657">
        <ele>355.9</ele>
        <time>2017-10-01T08:30:02Z</time>
      </trkpt>
      <trkpt lat="47.4167" lon="6.77661">
        <ele>356.1</ele>
        <time>2017-10-01T08:30:03Z</time>
      </trkpt>
      <trkpt lat="47.41673" lon="6.77663">
        <ele>356.3</ele>
        <time>2017-10-01T08:30:04Z</time>
      </trkpt>
      <trkpt lat="47.41677" lon="6.77665">
        <ele>356.7</ele>
        <time>2017-10-01T08:30:05Z</time>
      </trkpt>
      <trkpt lat="47.4168" lon="6.77667">
        <ele>357.1</ele>
        <time>2017-10-01T08:30:06Z</time>
      </trkpt>
      <trkpt lat="47.41683" lon="6.7767">
        <ele>357.5</ele>
        <time>2017-10-01T08:30:07Z</time>
      </trkpt>
      <trkpt lat="47.41687" lon="6.77671">
        <ele>357.9</ele>
        <time>2017-10-01T08:30:08Z</time>
      </trkpt>
      <trkpt lat="47.41691" lon="6.77671">
        <ele>358.2</ele>
        <time>2017-10-01T08:30:09Z</time>
      </trkpt>
      <trkpt lat="47.41694" lon="6.77671">
        <ele>358.3</ele>
        <time>2017-10-01T08:30:10Z</time>
      </trkpt>
      <trkpt lat="47.41698" lon="6.77671">
        <ele>358.5</ele>
        <time>2017-10-01T08:30:11Z</time>
      </trkpt>
      <trkpt lat="47.41701" lon="6.7767">
        <ele>358.6</ele>
        <time>2017-10-01T08:30:12Z</time>
      </trkpt>
      <trkpt lat="47.41704" lon="6.77669">
        <ele>358.8</ele>
        <time>2017-10-01T08:30:13Z</time>
      </trkpt>
      <trkpt lat="47.41708" lon="6.77668">
        <ele>358.9</ele>
        <time>2017-10-01T08:30:14Z</time>
      </trkpt>
      <trkpt lat="47.41712" lon="6.77667">
        <ele>359.1</ele>
        <time>2017-10-01T08:30:15Z</time>
      </trkpt>
      <trkpt lat="47.41715" lon="6.77665">
        <ele>359.2</ele>
        <time>2017-10-01T08:30:16Z</time>
      </trkpt>
      <trkpt lat="47.4172" lon="6.77663">
        <ele>359.4</ele>
        <time>2017-10-01T08:30:17Z</time>
      </trkpt>
      <trkpt lat="47.41723" lon="6.77662">
        <ele>359.6</ele>
        <time>2017-10-01T08:30:18Z</time>
      </trkpt>
      <trkpt lat="47.41727" lon="6.77661">
        <ele>359.8</ele>
        <time>2017-10-01T08:30:19Z</time>
      </trkpt>
      <trkpt lat="47.41729" lon="6.7766">
        <ele>360.1</ele>
        <time>2017-10-01T08:30:20Z</time>
      </trkpt>
      <trkpt lat="47.41732" lon="6.7766">
        <ele>360.4</ele>
        <time>2017-10-01T08:30:21Z</time>
      </trkpt>
      <trkpt lat="47.41734" lon="6.77659">
        <ele>360.7</ele>
        <time>2017-10-01T08:30:22Z</time>
      </trkpt>
      <trkpt lat="47.41737" lon="6.77658">
        <ele>361</ele>
        <time>2017-10-01T08:30:23Z</time>
      </trkpt>
      <trkpt lat="47.4174" lon="6.77657">
        <ele>361.3</ele>
        <time>2017-10-01T08:30:24Z</time>
      </trkpt>
      <trkpt lat="47.41743" lon="6.77655">
        <ele>361.6</ele>
        <time>2017-10-01T08:30:25Z</time>
      </trkpt>
      <trkpt lat="47.41746" lon="6.77653">
        <ele>361.7</ele>
        <time>2017-10-01T08:30:26Z</time>
      </trkpt>
      <trkpt lat="47.41749" lon="6.77652">
        <ele>361.9</ele>
        <time>2017-10-01T08:30:27Z</time>
      </trkpt>
      <trkpt lat="47.41752" lon="6.77651">
        <ele>362</ele>
        <time>2017-10-01T08:30:28Z</time>
      </trkpt>
      <trkpt lat="47.41755" lon="6.77649">
        <ele>362.2</ele>
        <time>2017-10-01T08:30:29Z</time>
      </trkpt>
      <trkpt lat="47.41757" lon="6.77647">
        <ele>362.3</ele>
        <time>2017-10-01T08:30:30Z</time>
      </trkpt>
      <trkpt lat="47.4176" lon="6.77646">
        <ele>362.4</ele>
        <time>2017-10-01T08:30:31Z</time>
      </trkpt>
      <trkpt lat="47.41763" lon="6.77645">
        <ele>362.6</ele>
        <time>2017-10-01T08:30:32Z</time>
      </trkpt>
      <trkpt lat="47.41765" lon="6.77644">
        <ele>362.7</ele>
        <time>2017-10-01T08:30:33Z</time>
      </trkpt>
      <trkpt lat="47.41768" lon="6.77643">
        <ele>362.8</ele>
        <time>2017-10-01T08:30:34Z</time>
      </trkpt>
      <trkpt lat="47.4177" lon="6.77642">
        <ele>362.9</ele>
        <time>2017-10-01T08:30:35Z</time>
      </trkpt>
      <trkpt lat="47.41774" lon="6.7764">
        <ele>363.1</ele>
        <time>2017-10-01T08:30:37Z</time>
      </trkpt>
      <trkpt lat="47.41776" lon="6.77639">
        <ele>363.2</ele>
        <time>2017-10-01T08:30:38Z</time>
      </trkpt>
      <trkpt lat="47.41779" lon="6.77637">
        <ele>363.3</ele>
        <time>2017-10-01T08:30:39Z</time>
      </trkpt>
      <trkpt lat="47.41782" lon="6.77636">
        <ele>363.5</ele>
        <time>2017-10-01T08:30:40Z</time>
      </trkpt>
      <trkpt lat="47.41785" lon="6.77634">
        <ele>363.6</ele>
        <time>2017-10-01T08:30:41Z</time>
      </trkpt>
      <trkpt lat="47.41787" lon="6.77633">
        <ele>363.7</ele>
        <time>2017-10-01T08:30:42Z</time>
      </trkpt>
      <trkpt lat="47.4179" lon="6.77632">
        <ele>363.8</ele>
        <time>2017-10-01T08:30:43Z</time>
      </trkpt>
      <trkpt lat="47.41793" lon="6.7763">
        <ele>364.1</ele>
        <time>2017-10-01T08:30:44Z</time>
      </trkpt>
      <trkpt lat="47.41797" lon="6.77628">
        <ele>364.4</ele>
        <time>2017-10-01T08:30:45Z</time>
      </trkpt>
      <trkpt lat="47.418" lon="6.77626">
        <ele>364.5</ele>
        <time>2017-10-01T08:30:46Z</time>
      </trkpt>
      <trkpt lat="47.41803" lon="6.77623">
        <ele>364.7</ele>
        <time>2017-10-01T08:30:47Z</time>
      </trkpt>
      <trkpt lat="47.41806" lon="6.77621">
        <ele>364.9</ele>
        <time>2017-10-01T08:30:48Z</time>
      </trkpt>
      <trkpt lat="47.41809" lon="6.77619">
        <ele>365</ele>
        <time>2017-10-01T08:30:49Z</time>
      </trkpt>
      <trkpt lat="47.41812" lon="6.77616">
        <ele>365.2</ele>
        <time>2017-10-01T08:30:50Z</time>
      </trkpt>
      <trkpt lat="47.41814" lon="6.77613">
        <ele>365.5</ele>
        <time>2017-10-01T08:30:51Z</time>
      </trkpt>
      <trkpt lat="47.41816" lon="6.77611">
        <ele>365.7</ele>
        <time>2017-10-01T08:30:52Z</time>
      </trkpt>
      <trkpt lat="47.41818" lon="6.77608">
        <ele>365.8</ele>
        <time>2017-10-01T08:30:53Z</time>
      </trkpt>
      <trkpt lat="47.4182" lon="6.77604">
        <ele>366.1</ele>
        <time>2017-10-01T08:30:54Z</time>
      </trkpt>
      <trkpt lat="47.41822" lon="6.776">
        <ele>366.3</ele>
        <time>2017-10-01T08:30:55Z</time>
      </trkpt>
      <trkpt lat="47.41824" lon="6.77597">
        <ele>366.6</ele>
        <time>2017-10-01T08:30:56Z</time>
      </trkpt>
      <trkpt lat="47.41825" lon="6.77592">
        <ele>366.8</ele>
        <time>2017-10-01T08:30:57Z</time>
      </trkpt>
      <trkpt lat="47.41827" lon="6.77588">
        <ele>367</ele>
        <time>2017-10-01T08:30:58Z</time>
      </trkpt>
      <trkpt lat="47.41828" lon="6.77585">
        <ele>367.1</ele>
        <time>2017-10-01T08:30:59Z</time>
      </trkpt>
      <trkpt lat="47.41829" lon="6.77581">
        <ele>367.3</ele>
        <time>2017-10-01T08:31:00Z</time>
      </trkpt>
      <trkpt lat="47.4183" lon="6.77577">
        <ele>367.4</ele>
        <time>2017-10-01T08:31:01Z</time>
      </trkpt>
      <trkpt lat="47.41831" lon="6.77573">
        <ele>367.6</ele>
        <time>2017-10-01T08:31:02Z</time>
      </trkpt>
      <trkpt lat="47.41832" lon="6.77568">
        <ele>367.7</ele>
        <time>2017-10-01T08:31:03Z</time>
      </trkpt>
      <trkpt lat="47.41833" lon="6.77563">
        <ele>367.9</ele>
        <time>2017-10-01T08:31:04Z</time>
      </trkpt>
      <trkpt lat="47.41835" lon="6.77556">
        <ele>368.2</ele>
        <time>2017-10-01T08:31:06Z</time>
      </trkpt>
      <trkpt lat="47.41836" lon="6.77552">
        <ele>368.4</ele>
        <time>2017-10-01T08:31:07Z</time>
      </trkpt>
      <trkpt lat="47.41838" lon="6.77549">
        <ele>368.5</ele>
        <time>2017-10-01T08:31:08Z</time>
      </trkpt>
      <trkpt lat="47.4184" lon="6.77545">
        <ele>368.7</ele>
        <time>2017-10-01T08:31:09Z</time>
      </trkpt>
      <trkpt lat="47.41842" lon="6.77541">
        <ele>369</ele>
        <time>2017-10-01T08:31:10Z</time>
      </trkpt>
      <trkpt lat="47.41843" lon="6.77537">
        <ele>369.2</ele>
        <time>2017-10-01T08:31:11Z</time>
      </trkpt>
      <trkpt lat="47.41845" lon="6.77533">
        <ele>369.4</ele>
        <time>2017-10-01T08:31:12Z</time>
      </trkpt>
      <trkpt lat="47.41846" lon="6.77528">
        <ele>369.6</ele>
        <time>2017-10-01T08:31:13Z</time>
      </trkpt>
      <trkpt lat="47.41847" lon="6.77524">
        <ele>369.8</ele>
        <time>2017-10-01T08:31:14Z</time>
      </trkpt>
      <trkpt lat="47.41849" lon="6.7752">
        <ele>369.9</ele>
        <time>2017-10-01T08:31:15Z</time>
      </trkpt>
      <trkpt lat="47.4185" lon="6.77516">
        <ele>370.1</ele>
        <time>2017-10-01T08:31:16Z</time>
      </trkpt>
      <trkpt lat="47.41851" lon="6.77513">
        <ele>370.2</ele>
        <time>2017-10-01T08:31:17Z</time>
      </trkpt>
      <trkpt lat="47.41853" lon="6.77509">
        <ele>370.3</ele>
        <time>2017-10-01T08:31:18Z</time>
      </trkpt>
      <trkpt lat="47.41854" lon="6.77506">
        <ele>370.4</ele>
        <time>2017-10-01T08:31:19Z</time>
      </trkpt>
      <trkpt lat="47.41856" lon="6.77502">
        <ele>370.5</ele>
        <time>2017-10-01T08:31:20Z</time>
      </trkpt>
      <trkpt lat="47.41857" lon="6.77498">
        <ele>370.6</ele>
        <time>2017-10-01T08:31:21Z</time>
      </trkpt>
      <trkpt lat="47.41859" lon="6.77493">
        <ele>370.7</ele>
        <time>2017-10-01T08:31:22Z</time>
      </trkpt>
      <trkpt lat="47.41861" lon="6.77489">
        <ele>370.8</ele>
        <time>2017-10-01T08:31:23Z</time>
      </trkpt>
      <trkpt lat="47.41863" lon="6.77486">
        <ele>370.9</ele>
        <time>2017-10-01T08:31:24Z</time>
      </trkpt>
      <trkpt lat="47.41866" lon="6.77485">
        <ele>370.5</ele>
        <time>2017-10-01T08:31:25Z</time>
      </trkpt>
      <trkpt lat="47.41869" lon="6.77487">
        <ele>369.8</ele>
        <time>2017-10-01T08:31:26Z</time>
      </trkpt>
      <trkpt lat="47.4187" lon="6.77492">
        <ele>369</ele>
        <time>2017-10-01T08:31:27Z</time>
      </trkpt>
      <trkpt lat="47.41871" lon="6.77496">
        <ele>368.3</ele>
        <time>2017-10-01T08:31:28Z</time>
      </trkpt>
      <trkpt lat="47.4187" lon="6.77501">
        <ele>367.5</ele>
        <time>2017-10-01T08:31:29Z</time>
      </trkpt>
      <trkpt lat="47.41871" lon="6.77507">
        <ele>366.4</ele>
        <time>2017-10-01T08:31:30Z</time>
      </trkpt>
      <trkpt lat="47.4187" lon="6.77511">
        <ele>365.7</ele>
        <time>2017-10-01T08:31:31Z</time>
      </trkpt>
      <trkpt lat="47.4187" lon="6.77516">
        <ele>364.9</ele>
        <time>2017-10-01T08:31:32Z</time>
      </trkpt>
      <trkpt lat="47.41869" lon="6.77519">
        <ele>364.3</ele>
        <time>2017-10-01T08:31:33Z</time>
      </trkpt>
      <trkpt lat="47.4187" lon="6.77523">
        <ele>363.7</ele>
        <time>2017-10-01T08:31:34Z</time>
      </trkpt>
      <trkpt lat="47.4187" lon="6.77526">
        <ele>363.1</ele>
        <time>2017-10-01T08:31:35Z</time>
      </trkpt>
      <trkpt lat="47.4187" lon="6.7753">
        <ele>363</ele>
        <time>2017-10-01T08:31:36Z</time>
      </trkpt>
      <trkpt lat="47.4187" lon="6.77535">
        <ele>362.9</ele>
        <time>2017-10-01T08:31:38Z</time>
      </trkpt>
      <trkpt lat="47.4187" lon="6.77539">
        <ele>362.8</ele>
        <time>2017-10-01T08:31:39Z</time>
      </trkpt>
      <trkpt lat="47.41869" lon="6.77542">
        <ele>362.8</ele>
        <time>2017-10-01T08:31:40Z</time>
      </trkpt>
      <trkpt lat="47.41869" lon="6.77546">
        <ele>362.7</ele>
        <time>2017-10-01T08:31:41Z</time>
      </trkpt>
      <trkpt lat="47.41869" lon="6.77551">
        <ele>362.7</ele>
        <time>2017-10-01T08:31:43Z</time>
      </trkpt>
      <trkpt lat="47.41869" lon="6.77555">
        <ele>362.4</ele>
        <time>2017-10-01T08:31:44Z</time>
      </trkpt>
      <trkpt lat="47.41869" lon="6.77558">
        <ele>362.2</ele>
        <time>2017-10-01T08:31:45Z</time>
      </trkpt>
      <trkpt lat="47.41869" lon="6.77562">
        <ele>361.9</ele>
        <time>2017-10-01T08:31:46Z</time>
      </trkpt>
      <trkpt lat="47.41868" lon="6.77565">
        <ele>361.7</ele>
        <time>2017-10-01T08:31:47Z</time>
      </trkpt>
      <trkpt lat="47.41868" lon="6.77569">
        <ele>361.6</ele>
        <time>2017-10-01T08:31:48Z</time>
      </trkpt>
      <trkpt lat="47.41867" lon="6.77574">
        <ele>361.4</ele>
        <time>2017-10-01T08:31:50Z</time>
      </trkpt>
      <trkpt lat="47.41867" lon="6.77577">
        <ele>361.3</ele>
        <time>2017-10-01T08:31:51Z</time>
      </trkpt>
      <trkpt lat="47.41867" lon="6.77584">
        <ele>361.2</ele>
        <time>2017-10-01T08:31:53Z</time>
      </trkpt>
      <trkpt lat="47.41868" lon="6.77585">
        <ele>361.2</ele>
        <time>2017-10-01T08:31:54Z</time>
      </trkpt>
      <trkpt lat="47.41867" lon="6.77591">
        <ele>361.1</ele>
        <time>2017-10-01T08:31:56Z</time>
      </trkpt>
      <trkpt lat="47.41867" lon="6.77594">
        <ele>360.9</ele>
        <time>2017-10-01T08:31:57Z</time>
      </trkpt>
      <trkpt lat="47.41866" lon="6.77597">
        <ele>360.7</ele>
        <time>2017-10-01T08:31:58Z</time>
      </trkpt>
      <trkpt lat="47.41865" lon="6.77601">
        <ele>360.5</ele>
        <time>2017-10-01T08:31:59Z</time>
      </trkpt>
      <trkpt lat="47.41864" lon="6.77607">
        <ele>360.3</ele>
        <time>2017-10-01T08:32:01Z</time>
      </trkpt>
      <trkpt lat="47.41864" lon="6.7761">
        <ele>360.3</ele>
        <time>2017-10-01T08:32:02Z</time>
      </trkpt>
      <trkpt lat="47.41865" lon="6.77614">
        <ele>360.2</ele>
        <time>2017-10-01T08:32:03Z</time>
      </trkpt>
      <trkpt lat="47.41865" lon="6.77617">
        <ele>360.2</ele>
        <time>2017-10-01T08:32:04Z</time>
      </trkpt>
      <trkpt lat="47.41866" lon="6.77623">
        <ele>360.3</ele>
        <time>2017-10-01T08:32:06Z</time>
      </trkpt>
      <trkpt lat="47.41867" lon="6.77626">
        <ele>360.3</ele>
        <time>2017-10-01T08:32:07Z</time>
      </trkpt>
      <trkpt lat="47.41868" lon="6.77629">
        <ele>360.2</ele>
        <time>2017-10-01T08:32:08Z</time>
      </trkpt>
      <trkpt lat="47.41869" lon="6.77632">
        <ele>360</ele>
        <time>2017-10-01T08:32:09Z</time>
      </trkpt>
      <trkpt lat="47.41871" lon="6.77636">
        <ele>360</ele>
        <time>2017-10-01T08:32:11Z</time>
      </trkpt>
      <trkpt lat="47.41872" lon="6.77638">
        <ele>360.4</ele>
        <time>2017-10-01T08:32:12Z</time>
      </trkpt>
      <trkpt lat="47.41876" lon="6.77642">
        <ele>360.9</ele>
        <time>2017-10-01T08:32:14Z</time>
      </trkpt>
      <trkpt lat="47.41878" lon="6.77644">
        <ele>361.1</ele>
        <time>2017-10-01T08:32:15Z</time>
      </trkpt>
      <trkpt lat="47.41882" lon="6.77643">
        <ele>361.6</ele>
        <time>2017-10-01T08:32:17Z</time>
      </trkpt>
      <trkpt lat="47.41884" lon="6.77642">
        <ele>361.9</ele>
        <time>2017-10-01T08:32:18Z</time>
      </trkpt>
      <trkpt lat="47.41887" lon="6.77643">
        <ele>362.4</ele>
        <time>2017-10-01T08:32:20Z</time>
      </trkpt>
      <trkpt lat="47.41889" lon="6.77643">
        <ele>362.7</ele>
        <time>2017-10-01T08:32:21Z</time>
      </trkpt>
      <trkpt lat="47.41892" lon="6.77643">
        <ele>363.1</ele>
        <time>2017-10-01T08:32:22Z</time>
      </trkpt>
      <trkpt lat="47.41894" lon="6.77642">
        <ele>363.4</ele>
        <time>2017-10-01T08:32:23Z</time>
      </trkpt>
      <trkpt lat="47.41896" lon="6.77641">
        <ele>363.6</ele>
        <time>2017-10-01T08:32:24Z</time>
      </trkpt>
      <trkpt lat="47.41898" lon="6.7764">
        <ele>363.9</ele>
        <time>2017-10-01T08:32:25Z</time>
      </trkpt>
      <trkpt lat="47.41901" lon="6.77639">
        <ele>364.3</ele>
        <time>2017-10-01T08:32:27Z</time>
      </trkpt>
      <trkpt lat="47.41903" lon="6.77638">
        <ele>364.6</ele>
        <time>2017-10-01T08:32:28Z</time>
      </trkpt>
      <trkpt lat="47.41906" lon="6.77634">
        <ele>365.3</ele>
        <time>2017-10-01T08:32:33Z</time>
      </trkpt>
      <trkpt lat="47.41907" lon="6.77632">
        <ele>365.5</ele>
        <time>2017-10-01T08:32:34Z</time>
      </trkpt>
      <trkpt lat="47.41909" lon="6.77628">
        <ele>365.9</ele>
        <time>2017-10-01T08:32:37Z</time>
      </trkpt>
      <trkpt lat="47.41909" lon="6.77626">
        <ele>366.1</ele>
        <time>2017-10-01T08:32:38Z</time>
      </trkpt>
      <trkpt lat="47.4191" lon="6.77621">
        <ele>366.4</ele>
        <time>2017-10-01T08:32:40Z</time>
      </trkpt>
      <trkpt lat="47.4191" lon="6.77619">
        <ele>366.6</ele>
        <time>2017-10-01T08:32:41Z</time>
      </trkpt>
      <trkpt lat="47.41912" lon="6.77613">
        <ele>367.1</ele>
        <time>2017-10-01T08:32:45Z</time>
      </trkpt>
      <trkpt lat="47.41913" lon="6.77611">
        <ele>367.3</ele>
        <time>2017-10-01T08:32:46Z</time>
      </trkpt>
      <trkpt lat="47.41913" lon="6.77605">
        <ele>367.5</ele>
        <time>2017-10-01T08:32:49Z</time>
      </trkpt>
      <trkpt lat="47.41913" lon="6.77602">
        <ele>367.7</ele>
        <time>2017-10-01T08:32:50Z</time>
      </trkpt>
      <trkpt lat="47.41914" lon="6.77597">
        <ele>367.9</ele>
        <time>2017-10-01T08:32:52Z</time>
      </trkpt>
      <trkpt lat="47.41914" lon="6.77594">
        <ele>368.2</ele>
        <time>2017-10-01T08:32:53Z</time>
      </trkpt>
      <trkpt lat="47.41914" lon="6.77588">
        <ele>368.3</ele>
        <time>2017-10-01T08:32:56Z</time>
      </trkpt>
      <trkpt lat="47.41914" lon="6.77586">
        <ele>368.4</ele>
        <time>2017-10-01T08:32:57Z</time>
      </trkpt>
      <trkpt lat="47.41915" lon="6.77581">
        <ele>368.9</ele>
        <time>2017-10-01T08:32:59Z</time>
      </trkpt>
      <trkpt lat="47.41915" lon="6.77578">
        <ele>369</ele>
        <time>2017-10-01T08:33:00Z</time>
      </trkpt>
      <trkpt lat="47.41916" lon="6.77573">
        <ele>369</ele>
        <time>2017-10-01T08:33:02Z</time>
      </trkpt>
      <trkpt lat="47.41917" lon="6.77571">
        <ele>369</ele>
        <time>2017-10-01T08:33:03Z</time>
      </trkpt>
      <trkpt lat="47.41919" lon="6.77566">
        <ele>369.5</ele>
        <time>2017-10-01T08:33:05Z</time>
      </trkpt>
      <trkpt lat="47.41919" lon="6.77564">
        <ele>369.5</ele>
        <time>2017-10-01T08:33:06Z</time>
      </trkpt>
      <trkpt lat="47.41921" lon="6.77558">
        <ele>370</ele>
        <time>2017-10-01T08:33:08Z</time>
      </trkpt>
      <trkpt lat="47.41921" lon="6.77555">
        <ele>370.2</ele>
        <time>2017-10-01T08:33:09Z</time>
      </trkpt>
      <trkpt lat="47.41922" lon="6.77549">
        <ele>370.3</ele>
        <time>2017-10-01T08:33:11Z</time>
      </trkpt>
      <trkpt lat="47.41922" lon="6.77547">
        <ele>370.6</ele>
        <time>2017-10-01T08:33:12Z</time>
      </trkpt>
      <trkpt lat="47.41921" lon="6.77541">
        <ele>370.8</ele>
        <time>2017-10-01T08:33:14Z</time>
      </trkpt>
      <trkpt lat="47.41921" lon="6.77538">
        <ele>371</ele>
        <time>2017-10-01T08:33:15Z</time>
      </trkpt>
      <trkpt lat="47.41922" lon="6.77535">
        <ele>371.1</ele>
        <time>2017-10-01T08:33:16Z</time>
      </trkpt>
      <trkpt lat="47.41922" lon="6.77531">
        <ele>371.3</ele>
        <time>2017-10-01T08:33:17Z</time>
      </trkpt>
      <trkpt lat="47.41923" lon="6.77526">
        <ele>371.4</ele>
        <time>2017-10-01T08:33:19Z</time>
      </trkpt>
      <trkpt lat="47.41924" lon="6.77523">
        <ele>371.8</ele>
        <time>2017-10-01T08:33:20Z</time>
      </trkpt>
      <trkpt lat="47.41924" lon="6.77518">
        <ele>371.8</ele>
        <time>2017-10-01T08:33:22Z</time>
      </trkpt>
      <trkpt lat="47.41925" lon="6.77515">
        <ele>371.8</ele>
        <time>2017-10-01T08:33:23Z</time>
      </trkpt>
      <trkpt lat="47.41925" lon="6.7751">
        <ele>371.7</ele>
        <time>2017-10-01T08:33:24Z</time>
      </trkpt>
      <trkpt lat="47.41926" lon="6.77506">
        <ele>371.7</ele>
        <time>2017-10-01T08:33:25Z</time>
      </trkpt>
      <trkpt lat="47.41926" lon="6.775">
        <ele>372.2</ele>
        <time>2017-10-01T08:33:27Z</time>
      </trkpt>
      <trkpt lat="47.41927" lon="6.77497">
        <ele>372.3</ele>
        <time>2017-10-01T08:33:28Z</time>
      </trkpt>
      <trkpt lat="47.41928" lon="6.77491">
        <ele>372.3</ele>
        <time>2017-10-01T08:33:30Z</time>
      </trkpt>
      <trkpt lat="47.41929" lon="6.77488">
        <ele>372.4</ele>
        <time>2017-10-01T08:33:31Z</time>
      </trkpt>
      <trkpt lat="47.41929" lon="6.77485">
        <ele>373.1</ele>
        <time>2017-10-01T08:33:32Z</time>
      </trkpt>
      <trkpt lat="47.4193" lon="6.77481">
        <ele>373.3</ele>
        <time>2017-10-01T08:33:33Z</time>
      </trkpt>
      <trkpt lat="47.4193" lon="6.77477">
        <ele>373.4</ele>
        <time>2017-10-01T08:33:34Z</time>
      </trkpt>
      <trkpt lat="47.41929" lon="6.77473">
        <ele>373.6</ele>
        <time>2017-10-01T08:33:35Z</time>
      </trkpt>
      <trkpt lat="47.4193" lon="6.7747">
        <ele>373.8</ele>
        <time>2017-10-01T08:33:36Z</time>
      </trkpt>
      <trkpt lat="47.4193" lon="6.77466">
        <ele>374</ele>
        <time>2017-10-01T08:33:37Z</time>
      </trkpt>
      <trkpt lat="47.4193" lon="6.77462">
        <ele>374.1</ele>
        <time>2017-10-01T08:33:38Z</time>
      </trkpt>
      <trkpt lat="47.41931" lon="6.77458">
        <ele>374.4</ele>
        <time>2017-10-01T08:33:39Z</time>
      </trkpt>
      <trkpt lat="47.41931" lon="6.77454">
        <ele>374.6</ele>
        <time>2017-10-01T08:33:40Z</time>
      </trkpt>
      <trkpt lat="47.41931" lon="6.7745">
        <ele>374.9</ele>
        <time>2017-10-01T08:33:41Z</time>
      </trkpt>
      <trkpt lat="47.41931" lon="6.77445">
        <ele>375.1</ele>
        <time>2017-10-01T08:33:42Z</time>
      </trkpt>
      <trkpt lat="47.41932" lon="6.77441">
        <ele>376.3</ele>
        <time>2017-10-01T08:33:43Z</time>
      </trkpt>
      <trkpt lat="47.41932" lon="6.77437">
        <ele>376.5</ele>
        <time>2017-10-01T08:33:44Z</time>
      </trkpt>
      <trkpt lat="47.41932" lon="6.77434">
        <ele>376.7</ele>
        <time>2017-10-01T08:33:45Z</time>
      </trkpt>
      <trkpt lat="47.41932" lon="6.77428">
        <ele>376</ele>
        <time>2017-10-01T08:33:47Z</time>
      </trkpt>
      <trkpt lat="47.41932" lon="6.77425">
        <ele>376.2</ele>
        <time>2017-10-01T08:33:48Z</time>
      </trkpt>
      <trkpt lat="47.41933" lon="6.77418">
        <ele>377.3</ele>
        <time>2017-10-01T08:33:50Z</time>
      </trkpt>
      <trkpt lat="47.41933" lon="6.77417">
        <ele>377.4</ele>
        <time>2017-10-01T08:33:51Z</time>
      </trkpt>
      <trkpt lat="47.41934" lon="6.77412">
        <ele>377.5</ele>
        <time>2017-10-01T08:33:53Z</time>
      </trkpt>
      <trkpt lat="47.41934" lon="6.77409">
        <ele>377.6</ele>
        <time>2017-10-01T08:33:54Z</time>
      </trkpt>
      <trkpt lat="47.41936" lon="6.77404">
        <ele>378.6</ele>
        <time>2017-10-01T08:33:56Z</time>
      </trkpt>
      <trkpt lat="47.41937" lon="6.77402">
        <ele>378.6</ele>
        <time>2017-10-01T08:33:57Z</time>
      </trkpt>
      <trkpt lat="47.4194" lon="6.77398">
        <ele>379.6</ele>
        <time>2017-10-01T08:33:59Z</time>
      </trkpt>
      <trkpt lat="47.41941" lon="6.77395">
        <ele>380.6</ele>
        <time>2017-10-01T08:34:00Z</time>
      </trkpt>
      <trkpt lat="47.41943" lon="6.77393">
        <ele>380.9</ele>
        <time>2017-10-01T08:34:01Z</time>
      </trkpt>
      <trkpt lat="47.41945" lon="6.7739">
        <ele>381.7</ele>
        <time>2017-10-01T08:34:02Z</time>
      </trkpt>
      <trkpt lat="47.41947" lon="6.77387">
        <ele>382.8</ele>
        <time>2017-10-01T08:34:03Z</time>
      </trkpt>
      <trkpt lat="47.41948" lon="6.77385">
        <ele>382.9</ele>
        <time>2017-10-01T08:34:04Z</time>
      </trkpt>
      <trkpt lat="47.41952" lon="6.77382">
        <ele>384.1</ele>
        <time>2017-10-01T08:34:06Z</time>
      </trkpt>
      <trkpt lat="47.41954" lon="6.7738">
        <ele>385.4</ele>
        <time>2017-10-01T08:34:07Z</time>
      </trkpt>
      <trkpt lat="47.41957" lon="6.77379">
        <ele>386.2</ele>
        <time>2017-10-01T08:34:08Z</time>
      </trkpt>
      <trkpt lat="47.41958" lon="6.77378">
        <ele>386.9</ele>
        <time>2017-10-01T08:34:09Z</time>
      </trkpt>
      <trkpt lat="47.41962" lon="6.77377">
        <ele>387.5</ele>
        <time>2017-10-01T08:34:11Z</time>
      </trkpt>
      <trkpt lat="47.41964" lon="6.77377">
        <ele>387.6</ele>
        <time>2017-10-01T08:34:12Z</time>
      </trkpt>
      <trkpt lat="47.41967" lon="6.77376">
        <ele>388.4</ele>
        <time>2017-10-01T08:34:14Z</time>
      </trkpt>
      <trkpt lat="47.4197" lon="6.77374">
        <ele>389</ele>
        <time>2017-10-01T08:34:15Z</time>
      </trkpt>
      <trkpt lat="47.41972" lon="6.77373">
        <ele>389.2</ele>
        <time>2017-10-01T08:34:16Z</time>
      </trkpt>
      <trkpt lat="47.41974" lon="6.77372">
        <ele>389.4</ele>
        <time>2017-10-01T08:34:17Z</time>
      </trkpt>
      <trkpt lat="47.41977" lon="6.77371">
        <ele>389.9</ele>
        <time>2017-10-01T08:34:18Z</time>
      </trkpt>
      <trkpt lat="47.41979" lon="6.7737">
        <ele>389.9</ele>
        <time>2017-10-01T08:34:19Z</time>
      </trkpt>
      <trkpt lat="47.41982" lon="6.77369">
        <ele>389.9</ele>
        <time>2017-10-01T08:34:20Z</time>
      </trkpt>
      <trkpt lat="47.41984" lon="6.77367">
        <ele>390.4</ele>
        <time>2017-10-01T08:34:21Z</time>
      </trkpt>
      <trkpt lat="47.41987" lon="6.77364">
        <ele>390</ele>
        <time>2017-10-01T08:34:23Z</time>
      </trkpt>
      <trkpt lat="47.41989" lon="6.77362">
        <ele>390.5</ele>
        <time>2017-10-01T08:34:24Z</time>
      </trkpt>
      <trkpt lat="47.41991" lon="6.77358">
        <ele>390.7</ele>
        <time>2017-10-01T08:34:26Z</time>
      </trkpt>
      <trkpt lat="47.41992" lon="6.77355">
        <ele>390.7</ele>
        <time>2017-10-01T08:34:27Z</time>
      </trkpt>
      <trkpt lat="47.41993" lon="6.77352">
        <ele>391.2</ele>
        <time>2017-10-01T08:34:28Z</time>
      </trkpt>
      <trkpt lat="47.41994" lon="6.77348">
        <ele>391.1</ele>
        <time>2017-10-01T08:34:29Z</time>
      </trkpt>
      <trkpt lat="47.41995" lon="6.77345">
        <ele>391.3</ele>
        <time>2017-10-01T08:34:30Z</time>
      </trkpt>
      <trkpt lat="47.41997" lon="6.77342">
        <ele>390.9</ele>
        <time>2017-10-01T08:34:31Z</time>
      </trkpt>
      <trkpt lat="47.41999" lon="6.77339">
        <ele>390.4</ele>
        <time>2017-10-01T08:34:32Z</time>
      </trkpt>
      <trkpt lat="47.42" lon="6.77336">
        <ele>390.2</ele>
        <time>2017-10-01T08:34:33Z</time>
      </trkpt>
      <trkpt lat="47.42001" lon="6.77331">
        <ele>389.9</ele>
        <time>2017-10-01T08:34:34Z</time>
      </trkpt>
      <trkpt lat="47.42003" lon="6.77326">
        <ele>388.9</ele>
        <time>2017-10-01T08:34:35Z</time>
      </trkpt>
      <trkpt lat="47.42005" lon="6.77321">
        <ele>388.1</ele>
        <time>2017-10-01T08:34:36Z</time>
      </trkpt>
      <trkpt lat="47.42008" lon="6.77317">
        <ele>387.4</ele>
        <time>2017-10-01T08:34:37Z</time>
      </trkpt>
      <trkpt lat="47.4201" lon="6.77312">
        <ele>387.2</ele>
        <time>2017-10-01T08:34:38Z</time>
      </trkpt>
      <trkpt lat="47.42011" lon="6.77308">
        <ele>386.9</ele>
        <time>2017-10-01T08:34:39Z</time>
      </trkpt>
      <trkpt lat="47.42013" lon="6.77304">
        <ele>387</ele>
        <time>2017-10-01T08:34:40Z</time>
      </trkpt>
      <trkpt lat="47.42014" lon="6.77301">
        <ele>387.1</ele>
        <time>2017-10-01T08:34:41Z</time>
      </trkpt>
      <trkpt lat="47.42016" lon="6.77296">
        <ele>387.3</ele>
        <time>2017-10-01T08:34:42Z</time>
      </trkpt>
      <trkpt lat="47.42018" lon="6.77291">
        <ele>387.7</ele>
        <time>2017-10-01T08:34:43Z</time>
      </trkpt>
      <trkpt lat="47.4202" lon="6.77287">
        <ele>388.1</ele>
        <time>2017-10-01T08:34:44Z</time>
      </trkpt>
      <trkpt lat="47.42022" lon="6.77284">
        <ele>388.4</ele>
        <time>2017-10-01T08:34:45Z</time>
      </trkpt>
      <trkpt lat="47.42024" lon="6.77281">
        <ele>388.9</ele>
        <time>2017-10-01T08:34:46Z</time>
      </trkpt>
      <trkpt lat="47.42026" lon="6.77279">
        <ele>388.8</ele>
        <time>2017-10-01T08:34:47Z</time>
      </trkpt>
      <trkpt lat="47.42028" lon="6.77277">
        <ele>388.7</ele>
        <time>2017-10-01T08:34:48Z</time>
      </trkpt>
      <trkpt lat="47.42031" lon="6.77275">
        <ele>389.2</ele>
        <time>2017-10-01T08:34:49Z</time>
      </trkpt>
      <trkpt lat="47.42034" lon="6.77271">
        <ele>389.6</ele>
        <time>2017-10-01T08:34:51Z</time>
      </trkpt>
      <trkpt lat="47.42036" lon="6.77269">
        <ele>389.7</ele>
        <time>2017-10-01T08:34:52Z</time>
      </trkpt>
      <trkpt lat="47.42038" lon="6.77268">
        <ele>390.4</ele>
        <time>2017-10-01T08:34:53Z</time>
      </trkpt>
      <trkpt lat="47.42041" lon="6.77266">
        <ele>390.4</ele>
        <time>2017-10-01T08:34:54Z</time>
      </trkpt>
      <trkpt lat="47.42043" lon="6.77265">
        <ele>390.4</ele>
        <time>2017-10-01T08:34:55Z</time>
      </trkpt>
      <trkpt lat="47.42045" lon="6.77264">
        <ele>391.3</ele>
        <time>2017-10-01T08:34:56Z</time>
      </trkpt>
      <trkpt lat="47.42049" lon="6.77262">
        <ele>391.2</ele>
        <time>2017-10-01T08:34:58Z</time>
      </trkpt>
      <trkpt lat="47.42051" lon="6.7726">
        <ele>391.2</ele>
        <time>2017-10-01T08:34:59Z</time>
      </trkpt>
      <trkpt lat="47.42053" lon="6.77259">
        <ele>392.1</ele>
        <time>2017-10-01T08:35:00Z</time>
      </trkpt>
      <trkpt lat="47.42056" lon="6.77257">
        <ele>392</ele>
        <time>2017-10-01T08:35:01Z</time>
      </trkpt>
      <trkpt lat="47.42059" lon="6.77254">
        <ele>392.8</ele>
        <time>2017-10-01T08:35:03Z</time>
      </trkpt>
      <trkpt lat="47.42061" lon="6.77252">
        <ele>392.6</ele>
        <time>2017-10-01T08:35:04Z</time>
      </trkpt>
      <trkpt lat="47.42065" lon="6.77249">
        <ele>393.3</ele>
        <time>2017-10-01T08:35:06Z</time>
      </trkpt>
      <trkpt lat="47.42067" lon="6.77247">
        <ele>393.1</ele>
        <time>2017-10-01T08:35:07Z</time>
      </trkpt>
      <trkpt lat="47.42071" lon="6.77245">
        <ele>393.8</ele>
        <time>2017-10-01T08:35:09Z</time>
      </trkpt>
      <trkpt lat="47.42072" lon="6.77244">
        <ele>393.6</ele>
        <time>2017-10-01T08:35:10Z</time>
      </trkpt>
      <trkpt lat="47.42076" lon="6.77242">
        <ele>394.4</ele>
        <time>2017-10-01T08:35:13Z</time>
      </trkpt>
      <trkpt lat="47.42078" lon="6.77239">
        <ele>394.2</ele>
        <time>2017-10-01T08:35:14Z</time>
      </trkpt>
      <trkpt lat="47.4208" lon="6.77236">
        <ele>395.4</ele>
        <time>2017-10-01T08:35:15Z</time>
      </trkpt>
      <trkpt lat="47.42081" lon="6.77232">
        <ele>396.4</ele>
        <time>2017-10-01T08:35:16Z</time>
      </trkpt>
      <trkpt lat="47.42082" lon="6.77229">
        <ele>397.7</ele>
        <time>2017-10-01T08:35:17Z</time>
      </trkpt>
      <trkpt lat="47.42082" lon="6.77226">
        <ele>397.8</ele>
        <time>2017-10-01T08:35:18Z</time>
      </trkpt>
      <trkpt lat="47.42085" lon="6.77222">
        <ele>398.8</ele>
        <time>2017-10-01T08:35:20Z</time>
      </trkpt>
      <trkpt lat="47.42086" lon="6.7722">
        <ele>400</ele>
        <time>2017-10-01T08:35:21Z</time>
      </trkpt>
      <trkpt lat="47.42087" lon="6.77215">
        <ele>401.2</ele>
        <time>2017-10-01T08:35:24Z</time>
      </trkpt>
      <trkpt lat="47.42089" lon="6.77212">
        <ele>402.5</ele>
        <time>2017-10-01T08:35:25Z</time>
      </trkpt>
      <trkpt lat="47.4209" lon="6.77209">
        <ele>402.3</ele>
        <time>2017-10-01T08:35:26Z</time>
      </trkpt>
      <trkpt lat="47.42091" lon="6.77206">
        <ele>403.6</ele>
        <time>2017-10-01T08:35:27Z</time>
      </trkpt>
      <trkpt lat="47.42092" lon="6.77201">
        <ele>404.6</ele>
        <time>2017-10-01T08:35:29Z</time>
      </trkpt>
      <trkpt lat="47.42093" lon="6.77199">
        <ele>405.6</ele>
        <time>2017-10-01T08:35:30Z</time>
      </trkpt>
      <trkpt lat="47.42096" lon="6.77195">
        <ele>406.1</ele>
        <time>2017-10-01T08:35:31Z</time>
      </trkpt>
      <trkpt lat="47.42098" lon="6.77191">
        <ele>405.8</ele>
        <time>2017-10-01T08:35:32Z</time>
      </trkpt>
      <trkpt lat="47.42102" lon="6.77187">
        <ele>406.3</ele>
        <time>2017-10-01T08:35:33Z</time>
      </trkpt>
      <trkpt lat="47.42105" lon="6.77184">
        <ele>406.9</ele>
        <time>2017-10-01T08:35:35Z</time>
      </trkpt>
      <trkpt lat="47.42107" lon="6.77182">
        <ele>407.5</ele>
        <time>2017-10-01T08:35:36Z</time>
      </trkpt>
      <trkpt lat="47.42109" lon="6.77179">
        <ele>407.2</ele>
        <time>2017-10-01T08:35:38Z</time>
      </trkpt>
      <trkpt lat="47.4211" lon="6.77178">
        <ele>408.2</ele>
        <time>2017-10-01T08:35:39Z</time>
      </trkpt>
      <trkpt lat="47.42114" lon="6.77174">
        <ele>407.8</ele>
        <time>2017-10-01T08:35:43Z</time>
      </trkpt>
      <trkpt lat="47.42114" lon="6.77174">
        <ele>408.8</ele>
        <time>2017-10-01T08:35:44Z</time>
      </trkpt>
      <trkpt lat="47.42116" lon="6.77171">
        <ele>408.4</ele>
        <time>2017-10-01T08:35:46Z</time>
      </trkpt>
      <trkpt lat="47.42118" lon="6.77167">
        <ele>408.6</ele>
        <time>2017-10-01T08:35:47Z</time>
      </trkpt>
      <trkpt lat="47.42121" lon="6.77162">
        <ele>408.8</ele>
        <time>2017-10-01T08:35:51Z</time>
      </trkpt>
      <trkpt lat="47.42121" lon="6.7716">
        <ele>409.7</ele>
        <time>2017-10-01T08:35:52Z</time>
      </trkpt>
      <trkpt lat="47.42124" lon="6.77155">
        <ele>410.1</ele>
        <time>2017-10-01T08:35:54Z</time>
      </trkpt>
      <trkpt lat="47.42125" lon="6.77154">
        <ele>410.1</ele>
        <time>2017-10-01T08:35:55Z</time>
      </trkpt>
      <trkpt lat="47.42128" lon="6.77151">
        <ele>410.6</ele>
        <time>2017-10-01T08:35:58Z</time>
      </trkpt>
      <trkpt lat="47.4213" lon="6.77149">
        <ele>410.1</ele>
        <time>2017-10-01T08:35:59Z</time>
      </trkpt>
      <trkpt lat="47.42133" lon="6.77147">
        <ele>410.7</ele>
        <time>2017-10-01T08:36:01Z</time>
      </trkpt>
      <trkpt lat="47.42135" lon="6.77146">
        <ele>410.2</ele>
        <time>2017-10-01T08:36:02Z</time>
      </trkpt>
      <trkpt lat="47.42139" lon="6.77143">
        <ele>410.9</ele>
        <time>2017-10-01T08:36:04Z</time>
      </trkpt>
      <trkpt lat="47.42139" lon="6.77142">
        <ele>410.9</ele>
        <time>2017-10-01T08:36:05Z</time>
      </trkpt>
      <trkpt lat="47.42142" lon="6.77139">
        <ele>411.5</ele>
        <time>2017-10-01T08:36:06Z</time>
      </trkpt>
      <trkpt lat="47.42145" lon="6.77136">
        <ele>411.2</ele>
        <time>2017-10-01T08:36:07Z</time>
      </trkpt>
      <trkpt lat="47.42148" lon="6.77133">
        <ele>411.8</ele>
        <time>2017-10-01T08:36:09Z</time>
      </trkpt>
      <trkpt lat="47.4215" lon="6.77132">
        <ele>411.5</ele>
        <time>2017-10-01T08:36:10Z</time>
      </trkpt>
      <trkpt lat="47.42153" lon="6.77129">
        <ele>412.3</ele>
        <time>2017-10-01T08:36:12Z</time>
      </trkpt>
      <trkpt lat="47.42155" lon="6.77128">
        <ele>412.4</ele>
        <time>2017-10-01T08:36:13Z</time>
      </trkpt>
      <trkpt lat="47.42157" lon="6.77124">
        <ele>413.2</ele>
        <time>2017-10-01T08:36:16Z</time>
      </trkpt>
      <trkpt lat="47.42158" lon="6.77123">
        <ele>413.2</ele>
        <time>2017-10-01T08:36:17Z</time>
      </trkpt>
      <trkpt lat="47.42161" lon="6.77119">
        <ele>414</ele>
        <time>2017-10-01T08:36:21Z</time>
      </trkpt>
      <trkpt lat="47.42161" lon="6.77118">
        <ele>414.7</ele>
        <time>2017-10-01T08:36:22Z</time>
      </trkpt>
      <trkpt lat="47.42164" lon="6.77113">
        <ele>415.5</ele>
        <time>2017-10-01T08:36:27Z</time>
      </trkpt>
      <trkpt lat="47.42164" lon="6.77112">
        <ele>415.6</ele>
        <time>2017-10-01T08:36:28Z</time>
      </trkpt>
      <trkpt lat="47.42165" lon="6.77107">
        <ele>416.1</ele>
        <time>2017-10-01T08:36:31Z</time>
      </trkpt>
      <trkpt lat="47.42166" lon="6.77105">
        <ele>416.9</ele>
        <time>2017-10-01T08:36:32Z</time>
      </trkpt>
      <trkpt lat="47.42168" lon="6.77101">
        <ele>417.7</ele>
        <time>2017-10-01T08:36:35Z</time>
      </trkpt>
      <trkpt lat="47.42169" lon="6.77099">
        <ele>417.8</ele>
        <time>2017-10-01T08:36:36Z</time>
      </trkpt>
      <trkpt lat="47.42172" lon="6.77096">
        <ele>418.8</ele>
        <time>2017-10-01T08:36:39Z</time>
      </trkpt>
      <trkpt lat="47.42173" lon="6.77095">
        <ele>418.8</ele>
        <time>2017-10-01T08:36:40Z</time>
      </trkpt>
      <trkpt lat="47.42175" lon="6.7709">
        <ele>420</ele>
        <time>2017-10-01T08:36:43Z</time>
      </trkpt>
      <trkpt lat="47.42176" lon="6.7709">
        <ele>420.2</ele>
        <time>2017-10-01T08:36:44Z</time>
      </trkpt>
      <trkpt lat="47.42179" lon="6.77088">
        <ele>420.4</ele>
        <time>2017-10-01T08:36:46Z</time>
      </trkpt>
      <trkpt lat="47.42181" lon="6.77088">
        <ele>421.6</ele>
        <time>2017-10-01T08:36:47Z</time>
      </trkpt>
      <trkpt lat="47.42184" lon="6.77084">
        <ele>423</ele>
        <time>2017-10-01T08:36:52Z</time>
      </trkpt>
      <trkpt lat="47.42185" lon="6.77084">
        <ele>423.4</ele>
        <time>2017-10-01T08:36:53Z</time>
      </trkpt>
      <trkpt lat="47.42186" lon="6.77081">
        <ele>423.4</ele>
        <time>2017-10-01T08:36:56Z</time>
      </trkpt>
      <trkpt lat="47.42189" lon="6.7708">
        <ele>423.8</ele>
        <time>2017-10-01T08:36:57Z</time>
      </trkpt>
      <trkpt lat="47.42192" lon="6.7708">
        <ele>425.4</ele>
        <time>2017-10-01T08:36:59Z</time>
      </trkpt>
      <trkpt lat="47.42194" lon="6.77078">
        <ele>425.8</ele>
        <time>2017-10-01T08:37:00Z</time>
      </trkpt>
      <trkpt lat="47.42196" lon="6.77074">
        <ele>427.4</ele>
        <time>2017-10-01T08:37:03Z</time>
      </trkpt>
      <trkpt lat="47.42197" lon="6.77073">
        <ele>427.5</ele>
        <time>2017-10-01T08:37:04Z</time>
      </trkpt>
      <trkpt lat="47.422" lon="6.77068">
        <ele>429.2</ele>
        <time>2017-10-01T08:37:08Z</time>
      </trkpt>
      <trkpt lat="47.422" lon="6.77066">
        <ele>430.5</ele>
        <time>2017-10-01T08:37:09Z</time>
      </trkpt>
      <trkpt lat="47.42201" lon="6.77061">
        <ele>431.8</ele>
        <time>2017-10-01T08:37:13Z</time>
      </trkpt>
      <trkpt lat="47.42201" lon="6.7706">
        <ele>431.8</ele>
        <time>2017-10-01T08:37:14Z</time>
      </trkpt>
      <trkpt lat="47.42201" lon="6.77054">
        <ele>433.9</ele>
        <time>2017-10-01T08:37:17Z</time>
      </trkpt>
      <trkpt lat="47.422" lon="6.77053">
        <ele>433.9</ele>
        <time>2017-10-01T08:37:18Z</time>
      </trkpt>
      <trkpt lat="47.422" lon="6.77048">
        <ele>435</ele>
        <time>2017-10-01T08:37:20Z</time>
      </trkpt>
      <trkpt lat="47.42199" lon="6.77046">
        <ele>435</ele>
        <time>2017-10-01T08:37:21Z</time>
      </trkpt>
      <trkpt lat="47.42198" lon="6.77041">
        <ele>436</ele>
        <time>2017-10-01T08:37:23Z</time>
      </trkpt>
      <trkpt lat="47.42197" lon="6.7704">
        <ele>437</ele>
        <time>2017-10-01T08:37:24Z</time>
      </trkpt>
      <trkpt lat="47.42195" lon="6.77034">
        <ele>437.9</ele>
        <time>2017-10-01T08:37:28Z</time>
      </trkpt>
      <trkpt lat="47.42194" lon="6.77031">
        <ele>438.7</ele>
        <time>2017-10-01T08:37:29Z</time>
      </trkpt>
      <trkpt lat="47.42193" lon="6.77027">
        <ele>439.4</ele>
        <time>2017-10-01T08:37:33Z</time>
      </trkpt>
      <trkpt lat="47.42193" lon="6.77025">
        <ele>439.5</ele>
        <time>2017-10-01T08:37:34Z</time>
      </trkpt>
      <trkpt lat="47.42192" lon="6.77018">
        <ele>440.8</ele>
        <time>2017-10-01T08:37:36Z</time>
      </trkpt>
      <trkpt lat="47.42192" lon="6.77018">
        <ele>440.8</ele>
        <time>2017-10-01T08:37:37Z</time>
      </trkpt>
      <trkpt lat="47.4219" lon="6.77013">
        <ele>441.4</ele>
        <time>2017-10-01T08:37:41Z</time>
      </trkpt>
      <trkpt lat="47.4219" lon="6.77011">
        <ele>441.8</ele>
        <time>2017-10-01T08:37:42Z</time>
      </trkpt>
      <trkpt lat="47.42188" lon="6.77005">
        <ele>442.7</ele>
        <time>2017-10-01T08:37:45Z</time>
      </trkpt>
      <trkpt lat="47.42188" lon="6.77004">
        <ele>442.8</ele>
        <time>2017-10-01T08:37:46Z</time>
      </trkpt>
      <trkpt lat="47.42187" lon="6.76998">
        <ele>443.5</ele>
        <time>2017-10-01T08:37:54Z</time>
      </trkpt>
      <trkpt lat="47.42187" lon="6.76997">
        <ele>443.8</ele>
        <time>2017-10-01T08:37:55Z</time>
      </trkpt>
      <trkpt lat="47.42184" lon="6.76992">
        <ele>444.6</ele>
        <time>2017-10-01T08:38:02Z</time>
      </trkpt>
      <trkpt lat="47.42184" lon="6.76991">
        <ele>444.7</ele>
        <time>2017-10-01T08:38:03Z</time>
      </trkpt>
      <trkpt lat="47.42185" lon="6.76986">
        <ele>444.7</ele>
        <time>2017-10-01T08:38:09Z</time>
      </trkpt>
      <trkpt lat="47.42185" lon="6.76985">
        <ele>445.1</ele>
        <time>2017-10-01T08:38:10Z</time>
      </trkpt>
      <trkpt lat="47.42184" lon="6.76979">
        <ele>445.8</ele>
        <time>2017-10-01T08:38:16Z</time>
      </trkpt>
      <trkpt lat="47.42184" lon="6.76978">
        <ele>445.8</ele>
        <time>2017-10-01T08:38:17Z</time>
      </trkpt>
      <trkpt lat="47.42182" lon="6.76972">
        <ele>446.2</ele>
        <time>2017-10-01T08:38:22Z</time>
      </trkpt>
      <trkpt lat="47.42182" lon="6.76971">
        <ele>446.2</ele>
        <time>2017-10-01T08:38:23Z</time>
      </trkpt>
      <trkpt lat="47.42181" lon="6.76965">
        <ele>446.7</ele>
        <time>2017-10-01T08:38:29Z</time>
      </trkpt>
      <trkpt lat="47.42181" lon="6.76964">
        <ele>446.8</ele>
        <time>2017-10-01T08:38:30Z</time>
      </trkpt>
      <trkpt lat="47.42179" lon="6.76958">
        <ele>447.1</ele>
        <time>2017-10-01T08:38:36Z</time>
      </trkpt>
      <trkpt lat="47.42179" lon="6.76958">
        <ele>447.4</ele>
        <time>2017-10-01T08:38:37Z</time>
      </trkpt>
      <trkpt lat="47.42178" lon="6.76951">
        <ele>447.5</ele>
        <time>2017-10-01T08:38:45Z</time>
      </trkpt>
      <trkpt lat="47.42178" lon="6.76951">
        <ele>447.6</ele>
        <time>2017-10-01T08:38:46Z</time>
      </trkpt>
      <trkpt lat="47.42177" lon="6.76945">
        <ele>447.7</ele>
        <time>2017-10-01T08:38:52Z</time>
      </trkpt>
      <trkpt lat="47.42177" lon="6.76944">
        <ele>447.7</ele>
        <time>2017-10-01T08:38:53Z</time>
      </trkpt>
      <trkpt lat="47.42175" lon="6.76938">
        <ele>448.1</ele>
        <time>2017-10-01T08:38:57Z</time>
      </trkpt>
      <trkpt lat="47.42175" lon="6.76936">
        <ele>448.1</ele>
        <time>2017-10-01T08:38:58Z</time>
      </trkpt>
      <trkpt lat="47.42172" lon="6.76932">
        <ele>448.5</ele>
        <time>2017-10-01T08:39:04Z</time>
      </trkpt>
      <trkpt lat="47.42172" lon="6.7693">
        <ele>448.6</ele>
        <time>2017-10-01T08:39:05Z</time>
      </trkpt>
      <trkpt lat="47.42171" lon="6.76924">
        <ele>449.1</ele>
        <time>2017-10-01T08:39:09Z</time>
      </trkpt>
      <trkpt lat="47.42171" lon="6.76923">
        <ele>449.1</ele>
        <time>2017-10-01T08:39:10Z</time>
      </trkpt>
      <trkpt lat="47.42168" lon="6.76919">
        <ele>449.6</ele>
        <time>2017-10-01T08:39:21Z</time>
      </trkpt>
      <trkpt lat="47.42168" lon="6.76918">
        <ele>449.6</ele>
        <time>2017-10-01T08:39:22Z</time>
      </trkpt>
      <trkpt lat="47.42168" lon="6.76912">
        <ele>450</ele>
        <time>2017-10-01T08:39:28Z</time>
      </trkpt>
      <trkpt lat="47.42168" lon="6.76911">
        <ele>450</ele>
        <time>2017-10-01T08:39:29Z</time>
      </trkpt>
      <trkpt lat="47.42167" lon="6.76905">
        <ele>450.6</ele>
        <time>2017-10-01T08:39:33Z</time>
      </trkpt>
      <trkpt lat="47.42167" lon="6.76904">
        <ele>450.6</ele>
        <time>2017-10-01T08:39:34Z</time>
      </trkpt>
      <trkpt lat="47.42168" lon="6.76899">
        <ele>451.1</ele>
        <time>2017-10-01T08:39:37Z</time>
      </trkpt>
      <trkpt lat="47.42169" lon="6.76897">
        <ele>451.1</ele>
        <time>2017-10-01T08:39:38Z</time>
      </trkpt>
      <trkpt lat="47.42169" lon="6.76894">
        <ele>451.6</ele>
        <time>2017-10-01T08:39:40Z</time>
      </trkpt>
      <trkpt lat="47.42173" lon="6.76892">
        <ele>451.6</ele>
        <time>2017-10-01T08:39:41Z</time>
      </trkpt>
      <trkpt lat="47.42173" lon="6.76886">
        <ele>453</ele>
        <time>2017-10-01T08:39:45Z</time>
      </trkpt>
      <trkpt lat="47.42173" lon="6.76885">
        <ele>453</ele>
        <time>2017-10-01T08:39:46Z</time>
      </trkpt>
      <trkpt lat="47.42176" lon="6.7688">
        <ele>453</ele>
        <time>2017-10-01T08:39:49Z</time>
      </trkpt>
      <trkpt lat="47.42177" lon="6.76879">
        <ele>453</ele>
        <time>2017-10-01T08:39:50Z</time>
      </trkpt>
      <trkpt lat="47.4218" lon="6.76876">
        <ele>453</ele>
        <time>2017-10-01T08:39:58Z</time>
      </trkpt>
      <trkpt lat="47.42181" lon="6.76876">
        <ele>453</ele>
        <time>2017-10-01T08:39:59Z</time>
      </trkpt>
      <trkpt lat="47.42182" lon="6.76872">
        <ele>454</ele>
        <time>2017-10-01T08:40:03Z</time>
      </trkpt>
      <trkpt lat="47.42185" lon="6.76869">
        <ele>455.3</ele>
        <time>2017-10-01T08:40:04Z</time>
      </trkpt>
      <trkpt lat="47.42188" lon="6.76865">
        <ele>456.7</ele>
        <time>2017-10-01T08:40:07Z</time>
      </trkpt>
      <trkpt lat="47.42188" lon="6.76865">
        <ele>457</ele>
        <time>2017-10-01T08:40:08Z</time>
      </trkpt>
      <trkpt lat="47.42191" lon="6.76863">
        <ele>458.1</ele>
        <time>2017-10-01T08:40:14Z</time>
      </trkpt>
      <trkpt lat="47.42193" lon="6.76858">
        <ele>459.4</ele>
        <time>2017-10-01T08:40:15Z</time>
      </trkpt>
      <trkpt lat="47.42197" lon="6.76855">
        <ele>460.8</ele>
        <time>2017-10-01T08:40:21Z</time>
      </trkpt>
      <trkpt lat="47.42199" lon="6.76856">
        <ele>461.4</ele>
        <time>2017-10-01T08:40:22Z</time>
      </trkpt>
      <trkpt lat="47.42203" lon="6.76856">
        <ele>462.8</ele>
        <time>2017-10-01T08:40:40Z</time>
      </trkpt>
      <trkpt lat="47.42204" lon="6.76856">
        <ele>463</ele>
        <time>2017-10-01T08:40:41Z</time>
      </trkpt>
      <trkpt lat="47.42206" lon="6.76853">
        <ele>464</ele>
        <time>2017-10-01T08:40:48Z</time>
      </trkpt>
      <trkpt lat="47.4221" lon="6.76851">
        <ele>465</ele>
        <time>2017-10-01T08:40:49Z</time>
      </trkpt>
      <trkpt lat="47.42213" lon="6.76853">
        <ele>466</ele>
        <time>2017-10-01T08:40:51Z</time>
      </trkpt>
      <trkpt lat="47.42214" lon="6.76853">
        <ele>466.2</ele>
        <time>2017-10-01T08:40:52Z</time>
      </trkpt>
      <trkpt lat="47.42218" lon="6.76854">
        <ele>467.1</ele>
        <time>2017-10-01T08:41:01Z</time>
      </trkpt>
      <trkpt lat="47.42219" lon="6.76855">
        <ele>467.3</ele>
        <time>2017-10-01T08:41:02Z</time>
      </trkpt>
      <trkpt lat="47.42222" lon="6.76855">
        <ele>467.9</ele>
        <time>2017-10-01T08:41:09Z</time>
      </trkpt>
      <trkpt lat="47.42223" lon="6.76855">
        <ele>468</ele>
        <time>2017-10-01T08:41:10Z</time>
      </trkpt>
      <trkpt lat="47.42227" lon="6.76854">
        <ele>468.3</ele>
        <time>2017-10-01T08:41:15Z</time>
      </trkpt>
      <trkpt lat="47.42228" lon="6.76854">
        <ele>468.4</ele>
        <time>2017-10-01T08:41:16Z</time>
      </trkpt>
      <trkpt lat="47.42232" lon="6.76855">
        <ele>468.8</ele>
        <time>2017-10-01T08:41:18Z</time>
      </trkpt>
      <trkpt lat="47.42234" lon="6.76856">
        <ele>469</ele>
        <time>2017-10-01T08:41:19Z</time>
      </trkpt>
      <trkpt lat="47.42237" lon="6.76858">
        <ele>469.5</ele>
        <time>2017-10-01T08:41:25Z</time>
      </trkpt>
      <trkpt lat="47.42238" lon="6.76859">
        <ele>469.7</ele>
        <time>2017-10-01T08:41:26Z</time>
      </trkpt>
      <trkpt lat="47.42242" lon="6.76862">
        <ele>470.3</ele>
        <time>2017-10-01T08:41:28Z</time>
      </trkpt>
      <trkpt lat="47.42244" lon="6.76863">
        <ele>470.6</ele>
        <time>2017-10-01T08:41:29Z</time>
      </trkpt>
      <trkpt lat="47.42248" lon="6.76865">
        <ele>471.2</ele>
        <time>2017-10-01T08:41:34Z</time>
      </trkpt>
      <trkpt lat="47.42249" lon="6.76866">
        <ele>471.5</ele>
        <time>2017-10-01T08:41:35Z</time>
      </trkpt>
      <trkpt lat="47.42252" lon="6.76866">
        <ele>471.9</ele>
        <time>2017-10-01T08:41:39Z</time>
      </trkpt>
      <trkpt lat="47.42254" lon="6.76867">
        <ele>472.4</ele>
        <time>2017-10-01T08:41:40Z</time>
      </trkpt>
      <trkpt lat="47.42257" lon="6.76867">
        <ele>472.9</ele>
        <time>2017-10-01T08:41:47Z</time>
      </trkpt>
      <trkpt lat="47.42259" lon="6.76867">
        <ele>473.3</ele>
        <time>2017-10-01T08:41:48Z</time>
      </trkpt>
      <trkpt lat="47.42262" lon="6.76865">
        <ele>474.1</ele>
        <time>2017-10-01T08:41:58Z</time>
      </trkpt>
      <trkpt lat="47.42264" lon="6.76863">
        <ele>474.8</ele>
        <time>2017-10-01T08:41:59Z</time>
      </trkpt>
      <trkpt lat="47.42267" lon="6.76858">
        <ele>476.1</ele>
        <time>2017-10-01T08:42:01Z</time>
      </trkpt>
      <trkpt lat="47.42267" lon="6.76857">
        <ele>476.3</ele>
        <time>2017-10-01T08:42:02Z</time>
      </trkpt>
      <trkpt lat="47.4227" lon="6.76854">
        <ele>477.1</ele>
        <time>2017-10-01T08:42:06Z</time>
      </trkpt>
      <trkpt lat="47.42271" lon="6.7685">
        <ele>478</ele>
        <time>2017-10-01T08:42:07Z</time>
      </trkpt>
      <trkpt lat="47.42274" lon="6.76847">
        <ele>478.7</ele>
        <time>2017-10-01T08:42:08Z</time>
      </trkpt>
      <trkpt lat="47.42275" lon="6.76847">
        <ele>478.9</ele>
        <time>2017-10-01T08:42:09Z</time>
      </trkpt>
      <trkpt lat="47.42278" lon="6.76845">
        <ele>479.5</ele>
        <time>2017-10-01T08:42:12Z</time>
      </trkpt>
      <trkpt lat="47.4228" lon="6.76841">
        <ele>480.9</ele>
        <time>2017-10-01T08:42:13Z</time>
      </trkpt>
      <trkpt lat="47.42283" lon="6.7684">
        <ele>481.9</ele>
        <time>2017-10-01T08:42:15Z</time>
      </trkpt>
      <trkpt lat="47.42286" lon="6.76839">
        <ele>482.9</ele>
        <time>2017-10-01T08:42:16Z</time>
      </trkpt>
      <trkpt lat="47.4229" lon="6.76836">
        <ele>483.8</ele>
        <time>2017-10-01T08:42:22Z</time>
      </trkpt>
      <trkpt lat="47.4229" lon="6.76835">
        <ele>484.1</ele>
        <time>2017-10-01T08:42:23Z</time>
      </trkpt>
      <trkpt lat="47.42291" lon="6.76832">
        <ele>484.6</ele>
        <time>2017-10-01T08:42:28Z</time>
      </trkpt>
      <trkpt lat="47.42291" lon="6.76827">
        <ele>485.5</ele>
        <time>2017-10-01T08:42:29Z</time>
      </trkpt>
      <trkpt lat="47.42292" lon="6.76822">
        <ele>486.6</ele>
        <time>2017-10-01T08:42:32Z</time>
      </trkpt>
      <trkpt lat="47.42291" lon="6.7682">
        <ele>486.8</ele>
        <time>2017-10-01T08:42:33Z</time>
      </trkpt>
      <trkpt lat="47.42291" lon="6.76815">
        <ele>487.4</ele>
        <time>2017-10-01T08:42:38Z</time>
      </trkpt>
      <trkpt lat="47.4229" lon="6.76813">
        <ele>487.7</ele>
        <time>2017-10-01T08:42:39Z</time>
      </trkpt>
      <trkpt lat="47.42287" lon="6.76808">
        <ele>488.3</ele>
        <time>2017-10-01T08:42:40Z</time>
      </trkpt>
      <trkpt lat="47.42286" lon="6.76803">
        <ele>488.8</ele>
        <time>2017-10-01T08:42:41Z</time>
      </trkpt>
      <trkpt lat="47.42283" lon="6.76798">
        <ele>489.4</ele>
        <time>2017-10-01T08:42:46Z</time>
      </trkpt>
      <trkpt lat="47.42284" lon="6.76796">
        <ele>489.5</ele>
        <time>2017-10-01T08:42:47Z</time>
      </trkpt>
      <trkpt lat="47.42283" lon="6.7679">
        <ele>490.1</ele>
        <time>2017-10-01T08:42:57Z</time>
      </trkpt>
      <trkpt lat="47.42283" lon="6.76789">
        <ele>490.3</ele>
        <time>2017-10-01T08:42:58Z</time>
      </trkpt>
      <trkpt lat="47.42281" lon="6.76787">
        <ele>490.6</ele>
        <time>2017-10-01T08:42:59Z</time>
      </trkpt>
      <trkpt lat="47.42279" lon="6.76783">
        <ele>491.2</ele>
        <time>2017-10-01T08:43:00Z</time>
      </trkpt>
      <trkpt lat="47.42278" lon="6.76778">
        <ele>492.2</ele>
        <time>2017-10-01T08:43:10Z</time>
      </trkpt>
      <trkpt lat="47.42277" lon="6.76777">
        <ele>492.5</ele>
        <time>2017-10-01T08:43:11Z</time>
      </trkpt>
      <trkpt lat="47.42277" lon="6.76775">
        <ele>492.9</ele>
        <time>2017-10-01T08:43:12Z</time>
      </trkpt>
      <trkpt lat="47.42276" lon="6.76769">
        <ele>494</ele>
        <time>2017-10-01T08:43:13Z</time>
      </trkpt>
      <trkpt lat="47.42275" lon="6.76765">
        <ele>494.8</ele>
        <time>2017-10-01T08:43:17Z</time>
      </trkpt>
      <trkpt lat="47.42274" lon="6.7676">
        <ele>496.2</ele>
        <time>2017-10-01T08:43:18Z</time>
      </trkpt>
      <trkpt lat="47.42272" lon="6.76755">
        <ele>497.3</ele>
        <time>2017-10-01T08:43:19Z</time>
      </trkpt>
      <trkpt lat="47.42271" lon="6.7675">
        <ele>497.9</ele>
        <time>2017-10-01T08:43:20Z</time>
      </trkpt>
      <trkpt lat="47.4227" lon="6.76744">
        <ele>498.5</ele>
        <time>2017-10-01T08:43:23Z</time>
      </trkpt>
      <trkpt lat="47.4227" lon="6.76742">
        <ele>498.7</ele>
        <time>2017-10-01T08:43:24Z</time>
      </trkpt>
      <trkpt lat="47.42271" lon="6.76736">
        <ele>500</ele>
        <time>2017-10-01T08:43:27Z</time>
      </trkpt>
      <trkpt lat="47.42271" lon="6.76734">
        <ele>500.5</ele>
        <time>2017-10-01T08:43:28Z</time>
      </trkpt>
      <trkpt lat="47.4227" lon="6.76731">
        <ele>500.9</ele>
        <time>2017-10-01T08:43:33Z</time>
      </trkpt>
      <trkpt lat="47.4227" lon="6.76725">
        <ele>501.5</ele>
        <time>2017-10-01T08:43:34Z</time>
      </trkpt>
      <trkpt lat="47.42268" lon="6.7672">
        <ele>502.2</ele>
        <time>2017-10-01T08:43:39Z</time>
      </trkpt>
      <trkpt lat="47.42268" lon="6.76719">
        <ele>502.4</ele>
        <time>2017-10-01T08:43:40Z</time>
      </trkpt>
      <trkpt lat="47.42269" lon="6.76715">
        <ele>502.9</ele>
        <time>2017-10-01T08:43:46Z</time>
      </trkpt>
      <trkpt lat="47.42269" lon="6.76709">
        <ele>503.6</ele>
        <time>2017-10-01T08:43:47Z</time>
      </trkpt>
      <trkpt lat="47.42269" lon="6.76704">
        <ele>504.4</ele>
        <time>2017-10-01T08:43:48Z</time>
      </trkpt>
      <trkpt lat="47.42268" lon="6.76699">
        <ele>505.3</ele>
        <time>2017-10-01T08:43:49Z</time>
      </trkpt>
      <trkpt lat="47.42265" lon="6.76695">
        <ele>506.3</ele>
        <time>2017-10-01T08:43:55Z</time>
      </trkpt>
      <trkpt lat="47.42265" lon="6.76694">
        <ele>506.4</ele>
        <time>2017-10-01T08:43:56Z</time>
      </trkpt>
      <trkpt lat="47.42264" lon="6.76691">
        <ele>507</ele>
        <time>2017-10-01T08:44:02Z</time>
      </trkpt>
      <trkpt lat="47.42263" lon="6.76686">
        <ele>507.8</ele>
        <time>2017-10-01T08:44:03Z</time>
      </trkpt>
      <trkpt lat="47.42262" lon="6.76683">
        <ele>508.1</ele>
        <time>2017-10-01T08:44:07Z</time>
      </trkpt>
      <trkpt lat="47.42261" lon="6.76679">
        <ele>508.6</ele>
        <time>2017-10-01T08:44:08Z</time>
      </trkpt>
      <trkpt lat="47.42259" lon="6.76675">
        <ele>509.1</ele>
        <time>2017-10-01T08:44:11Z</time>
      </trkpt>
      <trkpt lat="47.42256" lon="6.76671">
        <ele>509.7</ele>
        <time>2017-10-01T08:44:12Z</time>
      </trkpt>
      <trkpt lat="47.42254" lon="6.76668">
        <ele>510.3</ele>
        <time>2017-10-01T08:44:16Z</time>
      </trkpt>
      <trkpt lat="47.42252" lon="6.76667">
        <ele>510.5</ele>
        <time>2017-10-01T08:44:17Z</time>
      </trkpt>
      <trkpt lat="47.42249" lon="6.76664">
        <ele>510.5</ele>
        <time>2017-10-01T08:44:23Z</time>
      </trkpt>
      <trkpt lat="47.42248" lon="6.76664">
        <ele>510.4</ele>
        <time>2017-10-01T08:44:24Z</time>
      </trkpt>
      <trkpt lat="47.42244" lon="6.76662">
        <ele>510</ele>
        <time>2017-10-01T08:44:31Z</time>
      </trkpt>
      <trkpt lat="47.42242" lon="6.76662">
        <ele>509.8</ele>
        <time>2017-10-01T08:44:32Z</time>
      </trkpt>
      <trkpt lat="47.42239" lon="6.7666">
        <ele>509.1</ele>
        <time>2017-10-01T08:44:46Z</time>
      </trkpt>
      <trkpt lat="47.42238" lon="6.7666">
        <ele>508.7</ele>
        <time>2017-10-01T08:44:47Z</time>
      </trkpt>
      <trkpt lat="47.42234" lon="6.76658">
        <ele>508</ele>
        <time>2017-10-01T08:44:57Z</time>
      </trkpt>
      <trkpt lat="47.42233" lon="6.76656">
        <ele>508</ele>
        <time>2017-10-01T08:44:58Z</time>
      </trkpt>
      <trkpt lat="47.4223" lon="6.76651">
        <ele>508.1</ele>
        <time>2017-10-01T08:45:12Z</time>
      </trkpt>
      <trkpt lat="47.4223" lon="6.7665">
        <ele>508.1</ele>
        <time>2017-10-01T08:45:13Z</time>
      </trkpt>
      <trkpt lat="47.42229" lon="6.76645">
        <ele>508.4</ele>
        <time>2017-10-01T08:45:18Z</time>
      </trkpt>
      <trkpt lat="47.42229" lon="6.76643">
        <ele>508.5</ele>
        <time>2017-10-01T08:45:19Z</time>
      </trkpt>
      <trkpt lat="47.42228" lon="6.76637">
        <ele>509.4</ele>
        <time>2017-10-01T08:45:26Z</time>
      </trkpt>
      <trkpt lat="47.42228" lon="6.76636">
        <ele>509.7</ele>
        <time>2017-10-01T08:45:27Z</time>
      </trkpt>
      <trkpt lat="47.42229" lon="6.7663">
        <ele>511.2</ele>
        <time>2017-10-01T08:45:43Z</time>
      </trkpt>
      <trkpt lat="47.42229" lon="6.76629">
        <ele>511.5</ele>
        <time>2017-10-01T08:45:44Z</time>
      </trkpt>
      <trkpt lat="47.4223" lon="6.76623">
        <ele>512.6</ele>
        <time>2017-10-01T08:45:49Z</time>
      </trkpt>
      <trkpt lat="47.4223" lon="6.76622">
        <ele>512.8</ele>
        <time>2017-10-01T08:45:50Z</time>
      </trkpt>
      <trkpt lat="47.42231" lon="6.76619">
        <ele>513.4</ele>
        <time>2017-10-01T08:45:54Z</time>
      </trkpt>
      <trkpt lat="47.42231" lon="6.76614">
        <ele>514.6</ele>
        <time>2017-10-01T08:45:55Z</time>
      </trkpt>
      <trkpt lat="47.4223" lon="6.76608">
        <ele>516.3</ele>
        <time>2017-10-01T08:46:02Z</time>
      </trkpt>
      <trkpt lat="47.4223" lon="6.76607">
        <ele>516.5</ele>
        <time>2017-10-01T08:46:03Z</time>
      </trkpt>
      <trkpt lat="47.42231" lon="6.76601">
        <ele>517.7</ele>
        <time>2017-10-01T08:46:09Z</time>
      </trkpt>
      <trkpt lat="47.42231" lon="6.766">
        <ele>518</ele>
        <time>2017-10-01T08:46:10Z</time>
      </trkpt>
      <trkpt lat="47.42234" lon="6.76595">
        <ele>519</ele>
        <time>2017-10-01T08:46:21Z</time>
      </trkpt>
      <trkpt lat="47.42234" lon="6.76595">
        <ele>519.2</ele>
        <time>2017-10-01T08:46:22Z</time>
      </trkpt>
      <trkpt lat="47.42239" lon="6.76595">
        <ele>520.6</ele>
        <time>2017-10-01T08:46:26Z</time>
      </trkpt>
      <trkpt lat="47.42239" lon="6.76596">
        <ele>520.9</ele>
        <time>2017-10-01T08:46:27Z</time>
      </trkpt>
      <trkpt lat="47.42237" lon="6.76591">
        <ele>522.5</ele>
        <time>2017-10-01T08:46:36Z</time>
      </trkpt>
      <trkpt lat="47.42236" lon="6.7659">
        <ele>522.7</ele>
        <time>2017-10-01T08:46:37Z</time>
      </trkpt>
      <trkpt lat="47.42234" lon="6.76586">
        <ele>523.9</ele>
        <time>2017-10-01T08:46:42Z</time>
      </trkpt>
      <trkpt lat="47.42233" lon="6.76585">
        <ele>524.2</ele>
        <time>2017-10-01T08:46:43Z</time>
      </trkpt>
      <trkpt lat="47.42232" lon="6.76579">
        <ele>525.5</ele>
        <time>2017-10-01T08:46:48Z</time>
      </trkpt>
      <trkpt lat="47.42232" lon="6.76578">
        <ele>525.6</ele>
        <time>2017-10-01T08:46:49Z</time>
      </trkpt>
      <trkpt lat="47.42231" lon="6.76572">
        <ele>526.6</ele>
        <time>2017-10-01T08:46:56Z</time>
      </trkpt>
      <trkpt lat="47.42231" lon="6.76571">
        <ele>526.8</ele>
        <time>2017-10-01T08:46:57Z</time>
      </trkpt>
      <trkpt lat="47.42233" lon="6.76565">
        <ele>527.6</ele>
        <time>2017-10-01T08:47:03Z</time>
      </trkpt>
      <trkpt lat="47.42233" lon="6.76565">
        <ele>527.6</ele>
        <time>2017-10-01T08:47:04Z</time>
      </trkpt>
      <trkpt lat="47.42231" lon="6.76569">
        <ele>527</ele>
        <time>2017-10-01T08:47:29Z</time>
      </trkpt>
      <trkpt lat="47.42231" lon="6.76571">
        <ele>526.9</ele>
        <time>2017-10-01T08:47:30Z</time>
      </trkpt>
      <trkpt lat="47.4223" lon="6.76577">
        <ele>526.5</ele>
        <time>2017-10-01T08:47:33Z</time>
      </trkpt>
      <trkpt lat="47.4223" lon="6.76579">
        <ele>526.3</ele>
        <time>2017-10-01T08:47:34Z</time>
      </trkpt>
      <trkpt lat="47.42231" lon="6.76585">
        <ele>525.9</ele>
        <time>2017-10-01T08:47:36Z</time>
      </trkpt>
      <trkpt lat="47.42231" lon="6.76587">
        <ele>525.8</ele>
        <time>2017-10-01T08:47:37Z</time>
      </trkpt>
      <trkpt lat="47.4223" lon="6.76593">
        <ele>525.5</ele>
        <time>2017-10-01T08:47:41Z</time>
      </trkpt>
      <trkpt lat="47.4223" lon="6.76594">
        <ele>525.4</ele>
        <time>2017-10-01T08:47:42Z</time>
      </trkpt>
      <trkpt lat="47.4223" lon="6.76588">
        <ele>524.9</ele>
        <time>2017-10-01T08:48:04Z</time>
      </trkpt>
      <trkpt lat="47.4223" lon="6.76587">
        <ele>524.7</ele>
        <time>2017-10-01T08:48:05Z</time>
      </trkpt>
      <trkpt lat="47.42228" lon="6.76582">
        <ele>524.1</ele>
        <time>2017-10-01T08:49:21Z</time>
      </trkpt>
      <trkpt lat="47.42227" lon="6.76582">
        <ele>524</ele>
        <time>2017-10-01T08:49:22Z</time>
      </trkpt>
      <trkpt lat="47.42223" lon="6.76585">
        <ele>523.5</ele>
        <time>2017-10-01T08:49:24Z</time>
      </trkpt>
      <trkpt lat="47.4222" lon="6.76586">
        <ele>523</ele>
        <time>2017-10-01T08:49:25Z</time>
      </trkpt>
      <trkpt lat="47.42217" lon="6.76581">
        <ele>523.6</ele>
        <time>2017-10-01T08:49:29Z</time>
      </trkpt>
      <trkpt lat="47.42216" lon="6.76581">
        <ele>522.9</ele>
        <time>2017-10-01T08:49:30Z</time>
      </trkpt>
      <trkpt lat="47.42214" lon="6.76577">
        <ele>524</ele>
        <time>2017-10-01T08:49:34Z</time>
      </trkpt>
      <trkpt lat="47.42214" lon="6.76575">
        <ele>523.1</ele>
        <time>2017-10-01T08:49:35Z</time>
      </trkpt>
      <trkpt lat="47.42213" lon="6.76573">
        <ele>524.2</ele>
        <time>2017-10-01T08:49:36Z</time>
      </trkpt>
      <trkpt lat="47.42212" lon="6.76568">
        <ele>525.2</ele>
        <time>2017-10-01T08:49:37Z</time>
      </trkpt>
      <trkpt lat="47.42211" lon="6.76563">
        <ele>526</ele>
        <time>2017-10-01T08:49:38Z</time>
      </trkpt>
      <trkpt lat="47.4221" lon="6.76561">
        <ele>525</ele>
        <time>2017-10-01T08:49:39Z</time>
      </trkpt>
      <trkpt lat="47.42209" lon="6.76556">
        <ele>526</ele>
        <time>2017-10-01T08:49:43Z</time>
      </trkpt>
      <trkpt lat="47.42208" lon="6.76553">
        <ele>526</ele>
        <time>2017-10-01T08:49:44Z</time>
      </trkpt>
      <trkpt lat="47.42208" lon="6.76551">
        <ele>525.4</ele>
        <time>2017-10-01T08:49:45Z</time>
      </trkpt>
      <trkpt lat="47.42207" lon="6.76545">
        <ele>525.8</ele>
        <time>2017-10-01T08:49:46Z</time>
      </trkpt>
      <trkpt lat="47.42206" lon="6.76539">
        <ele>526.2</ele>
        <time>2017-10-01T08:49:47Z</time>
      </trkpt>
      <trkpt lat="47.42205" lon="6.76536">
        <ele>525.5</ele>
        <time>2017-10-01T08:49:48Z</time>
      </trkpt>
      <trkpt lat="47.42203" lon="6.7653">
        <ele>525.9</ele>
        <time>2017-10-01T08:49:49Z</time>
      </trkpt>
      <trkpt lat="47.422" lon="6.76524">
        <ele>525.4</ele>
        <time>2017-10-01T08:49:50Z</time>
      </trkpt>
      <trkpt lat="47.42198" lon="6.76519">
        <ele>525</ele>
        <time>2017-10-01T08:49:53Z</time>
      </trkpt>
      <trkpt lat="47.42197" lon="6.76517">
        <ele>525.3</ele>
        <time>2017-10-01T08:49:54Z</time>
      </trkpt>
      <trkpt lat="47.42196" lon="6.76512">
        <ele>524.8</ele>
        <time>2017-10-01T08:49:57Z</time>
      </trkpt>
      <trkpt lat="47.42195" lon="6.7651">
        <ele>524.8</ele>
        <time>2017-10-01T08:49:58Z</time>
      </trkpt>
      <trkpt lat="47.42195" lon="6.76504">
        <ele>525.2</ele>
        <time>2017-10-01T08:49:59Z</time>
      </trkpt>
      <trkpt lat="47.42195" lon="6.76503">
        <ele>525.2</ele>
        <time>2017-10-01T08:50:00Z</time>
      </trkpt>
      <trkpt lat="47.42193" lon="6.76499">
        <ele>524.5</ele>
        <time>2017-10-01T08:50:02Z</time>
      </trkpt>
      <trkpt lat="47.42192" lon="6.76495">
        <ele>524.6</ele>
        <time>2017-10-01T08:50:03Z</time>
      </trkpt>
      <trkpt lat="47.4219" lon="6.7649">
        <ele>523.8</ele>
        <time>2017-10-01T08:50:05Z</time>
      </trkpt>
      <trkpt lat="47.4219" lon="6.76488">
        <ele>523.8</ele>
        <time>2017-10-01T08:50:06Z</time>
      </trkpt>
      <trkpt lat="47.42189" lon="6.76482">
        <ele>524.2</ele>
        <time>2017-10-01T08:50:08Z</time>
      </trkpt>
      <trkpt lat="47.42188" lon="6.76479">
        <ele>524.2</ele>
        <time>2017-10-01T08:50:09Z</time>
      </trkpt>
      <trkpt lat="47.42188" lon="6.76474">
        <ele>524.6</ele>
        <time>2017-10-01T08:50:11Z</time>
      </trkpt>
      <trkpt lat="47.42188" lon="6.76471">
        <ele>524.6</ele>
        <time>2017-10-01T08:50:12Z</time>
      </trkpt>
      <trkpt lat="47.42187" lon="6.76466">
        <ele>523.9</ele>
        <time>2017-10-01T08:50:14Z</time>
      </trkpt>
      <trkpt lat="47.42187" lon="6.76464">
        <ele>524.3</ele>
        <time>2017-10-01T08:50:15Z</time>
      </trkpt>
      <trkpt lat="47.42185" lon="6.76458">
        <ele>524.8</ele>
        <time>2017-10-01T08:50:18Z</time>
      </trkpt>
      <trkpt lat="47.42185" lon="6.76457">
        <ele>525.3</ele>
        <time>2017-10-01T08:50:19Z</time>
      </trkpt>
      <trkpt lat="47.42183" lon="6.76451">
        <ele>524.9</ele>
        <time>2017-10-01T08:50:22Z</time>
      </trkpt>
      <trkpt lat="47.42183" lon="6.76449">
        <ele>525.3</ele>
        <time>2017-10-01T08:50:23Z</time>
      </trkpt>
      <trkpt lat="47.42182" lon="6.76444">
        <ele>525.6</ele>
        <time>2017-10-01T08:50:26Z</time>
      </trkpt>
      <trkpt lat="47.42181" lon="6.76442">
        <ele>524.7</ele>
        <time>2017-10-01T08:50:27Z</time>
      </trkpt>
      <trkpt lat="47.42181" lon="6.76436">
        <ele>525.3</ele>
        <time>2017-10-01T08:50:30Z</time>
      </trkpt>
      <trkpt lat="47.4218" lon="6.76432">
        <ele>525.3</ele>
        <time>2017-10-01T08:50:31Z</time>
      </trkpt>
      <trkpt lat="47.42179" lon="6.76427">
        <ele>525.8</ele>
        <time>2017-10-01T08:50:33Z</time>
      </trkpt>
      <trkpt lat="47.42178" lon="6.76425">
        <ele>525</ele>
        <time>2017-10-01T08:50:34Z</time>
      </trkpt>
      <trkpt lat="47.42177" lon="6.7642">
        <ele>525.3</ele>
        <time>2017-10-01T08:50:36Z</time>
      </trkpt>
      <trkpt lat="47.42176" lon="6.76418">
        <ele>525.5</ele>
        <time>2017-10-01T08:50:37Z</time>
      </trkpt>
      <trkpt lat="47.42176" lon="6.76412">
        <ele>525.9</ele>
        <time>2017-10-01T08:50:41Z</time>
      </trkpt>
      <trkpt lat="47.42176" lon="6.76411">
        <ele>525.9</ele>
        <time>2017-10-01T08:50:42Z</time>
      </trkpt>
      <trkpt lat="47.42176" lon="6.76404">
        <ele>526.9</ele>
        <time>2017-10-01T08:50:45Z</time>
      </trkpt>
      <trkpt lat="47.42176" lon="6.76402">
        <ele>526.9</ele>
        <time>2017-10-01T08:50:46Z</time>
      </trkpt>
      <trkpt lat="47.42176" lon="6.76398">
        <ele>527</ele>
        <time>2017-10-01T08:50:48Z</time>
      </trkpt>
      <trkpt lat="47.42175" lon="6.76395">
        <ele>527.8</ele>
        <time>2017-10-01T08:50:49Z</time>
      </trkpt>
      <trkpt lat="47.42174" lon="6.76389">
        <ele>528.5</ele>
        <time>2017-10-01T08:50:52Z</time>
      </trkpt>
      <trkpt lat="47.42174" lon="6.76387">
        <ele>529.3</ele>
        <time>2017-10-01T08:50:53Z</time>
      </trkpt>
      <trkpt lat="47.42174" lon="6.76381">
        <ele>530.2</ele>
        <time>2017-10-01T08:50:56Z</time>
      </trkpt>
      <trkpt lat="47.42174" lon="6.76379">
        <ele>531.1</ele>
        <time>2017-10-01T08:50:57Z</time>
      </trkpt>
      <trkpt lat="47.42175" lon="6.76374">
        <ele>532.1</ele>
        <time>2017-10-01T08:51:01Z</time>
      </trkpt>
      <trkpt lat="47.42174" lon="6.76371">
        <ele>533.2</ele>
        <time>2017-10-01T08:51:02Z</time>
      </trkpt>
      <trkpt lat="47.42173" lon="6.76368">
        <ele>533.2</ele>
        <time>2017-10-01T08:51:03Z</time>
      </trkpt>
      <trkpt lat="47.42172" lon="6.76364">
        <ele>533.4</ele>
        <time>2017-10-01T08:51:04Z</time>
      </trkpt>
      <trkpt lat="47.42172" lon="6.76361">
        <ele>534.3</ele>
        <time>2017-10-01T08:51:05Z</time>
      </trkpt>
      <trkpt lat="47.4217" lon="6.76357">
        <ele>534.6</ele>
        <time>2017-10-01T08:51:06Z</time>
      </trkpt>
      <trkpt lat="47.42168" lon="6.76353">
        <ele>535.6</ele>
        <time>2017-10-01T08:51:07Z</time>
      </trkpt>
      <trkpt lat="47.42168" lon="6.7635">
        <ele>536.6</ele>
        <time>2017-10-01T08:51:08Z</time>
      </trkpt>
      <trkpt lat="47.42167" lon="6.76347">
        <ele>536</ele>
        <time>2017-10-01T08:51:09Z</time>
      </trkpt>
      <trkpt lat="47.42165" lon="6.76342">
        <ele>537</ele>
        <time>2017-10-01T08:51:10Z</time>
      </trkpt>
      <trkpt lat="47.42163" lon="6.76338">
        <ele>537.2</ele>
        <time>2017-10-01T08:51:12Z</time>
      </trkpt>
      <trkpt lat="47.42162" lon="6.76336">
        <ele>537.9</ele>
        <time>2017-10-01T08:51:13Z</time>
      </trkpt>
      <trkpt lat="47.42161" lon="6.76333">
        <ele>537.6</ele>
        <time>2017-10-01T08:51:14Z</time>
      </trkpt>
      <trkpt lat="47.4216" lon="6.76329">
        <ele>537.6</ele>
        <time>2017-10-01T08:51:15Z</time>
      </trkpt>
      <trkpt lat="47.42159" lon="6.76323">
        <ele>538.6</ele>
        <time>2017-10-01T08:51:17Z</time>
      </trkpt>
      <trkpt lat="47.42159" lon="6.76319">
        <ele>538.9</ele>
        <time>2017-10-01T08:51:18Z</time>
      </trkpt>
      <trkpt lat="47.42157" lon="6.76314">
        <ele>538.4</ele>
        <time>2017-10-01T08:51:19Z</time>
      </trkpt>
      <trkpt lat="47.42156" lon="6.76309">
        <ele>538.6</ele>
        <time>2017-10-01T08:51:20Z</time>
      </trkpt>
      <trkpt lat="47.42154" lon="6.76304">
        <ele>538</ele>
        <time>2017-10-01T08:51:21Z</time>
      </trkpt>
      <trkpt lat="47.42153" lon="6.76301">
        <ele>538.3</ele>
        <time>2017-10-01T08:51:22Z</time>
      </trkpt>
      <trkpt lat="47.42153" lon="6.76299">
        <ele>537.9</ele>
        <time>2017-10-01T08:51:23Z</time>
      </trkpt>
      <trkpt lat="47.42151" lon="6.76295">
        <ele>537.9</ele>
        <time>2017-10-01T08:51:24Z</time>
      </trkpt>
      <trkpt lat="47.4215" lon="6.76291">
        <ele>538.3</ele>
        <time>2017-10-01T08:51:25Z</time>
      </trkpt>
      <trkpt lat="47.42147" lon="6.76286">
        <ele>537.9</ele>
        <time>2017-10-01T08:51:26Z</time>
      </trkpt>
      <trkpt lat="47.42146" lon="6.76282">
        <ele>537.4</ele>
        <time>2017-10-01T08:51:27Z</time>
      </trkpt>
      <trkpt lat="47.42145" lon="6.76278">
        <ele>537.6</ele>
        <time>2017-10-01T08:51:28Z</time>
      </trkpt>
      <trkpt lat="47.42143" lon="6.76274">
        <ele>536.9</ele>
        <time>2017-10-01T08:51:29Z</time>
      </trkpt>
      <trkpt lat="47.42141" lon="6.7627">
        <ele>536.4</ele>
        <time>2017-10-01T08:51:30Z</time>
      </trkpt>
      <trkpt lat="47.42139" lon="6.76265">
        <ele>536.6</ele>
        <time>2017-10-01T08:51:31Z</time>
      </trkpt>
      <trkpt lat="47.42137" lon="6.76261">
        <ele>536.1</ele>
        <time>2017-10-01T08:51:32Z</time>
      </trkpt>
      <trkpt lat="47.42136" lon="6.76254">
        <ele>536.5</ele>
        <time>2017-10-01T08:51:33Z</time>
      </trkpt>
      <trkpt lat="47.42135" lon="6.76252">
        <ele>535.8</ele>
        <time>2017-10-01T08:51:34Z</time>
      </trkpt>
      <trkpt lat="47.42133" lon="6.76248">
        <ele>535.9</ele>
        <time>2017-10-01T08:51:35Z</time>
      </trkpt>
      <trkpt lat="47.42132" lon="6.76245">
        <ele>535.3</ele>
        <time>2017-10-01T08:51:36Z</time>
      </trkpt>
      <trkpt lat="47.42131" lon="6.76242">
        <ele>535.6</ele>
        <time>2017-10-01T08:51:37Z</time>
      </trkpt>
      <trkpt lat="47.42129" lon="6.76238">
        <ele>535.1</ele>
        <time>2017-10-01T08:51:38Z</time>
      </trkpt>
      <trkpt lat="47.42127" lon="6.76235">
        <ele>535.1</ele>
        <time>2017-10-01T08:51:39Z</time>
      </trkpt>
      <trkpt lat="47.42125" lon="6.76231">
        <ele>534.6</ele>
        <time>2017-10-01T08:51:41Z</time>
      </trkpt>
      <trkpt lat="47.42123" lon="6.76229">
        <ele>534</ele>
        <time>2017-10-01T08:51:42Z</time>
      </trkpt>
      <trkpt lat="47.42122" lon="6.76224">
        <ele>534.3</ele>
        <time>2017-10-01T08:51:44Z</time>
      </trkpt>
      <trkpt lat="47.42122" lon="6.76219">
        <ele>534.5</ele>
        <time>2017-10-01T08:51:45Z</time>
      </trkpt>
      <trkpt lat="47.42121" lon="6.76215">
        <ele>534.7</ele>
        <time>2017-10-01T08:51:46Z</time>
      </trkpt>
      <trkpt lat="47.4212" lon="6.76211">
        <ele>533.9</ele>
        <time>2017-10-01T08:51:47Z</time>
      </trkpt>
      <trkpt lat="47.4212" lon="6.76208">
        <ele>534</ele>
        <time>2017-10-01T08:51:48Z</time>
      </trkpt>
      <trkpt lat="47.42119" lon="6.76204">
        <ele>534.1</ele>
        <time>2017-10-01T08:51:49Z</time>
      </trkpt>
      <trkpt lat="47.42118" lon="6.76198">
        <ele>532.9</ele>
        <time>2017-10-01T08:51:51Z</time>
      </trkpt>
      <trkpt lat="47.42116" lon="6.76195">
        <ele>532.9</ele>
        <time>2017-10-01T08:51:52Z</time>
      </trkpt>
      <trkpt lat="47.42115" lon="6.76191">
        <ele>532.9</ele>
        <time>2017-10-01T08:51:53Z</time>
      </trkpt>
      <trkpt lat="47.42115" lon="6.76188">
        <ele>532.9</ele>
        <time>2017-10-01T08:51:54Z</time>
      </trkpt>
      <trkpt lat="47.42116" lon="6.76183">
        <ele>532.9</ele>
        <time>2017-10-01T08:51:56Z</time>
      </trkpt>
      <trkpt lat="47.42116" lon="6.7618">
        <ele>532.9</ele>
        <time>2017-10-01T08:51:57Z</time>
      </trkpt>
      <trkpt lat="47.42115" lon="6.76176">
        <ele>533</ele>
        <time>2017-10-01T08:51:58Z</time>
      </trkpt>
      <trkpt lat="47.42114" lon="6.76171">
        <ele>532.2</ele>
        <time>2017-10-01T08:51:59Z</time>
      </trkpt>
      <trkpt lat="47.42114" lon="6.76167">
        <ele>532.4</ele>
        <time>2017-10-01T08:52:00Z</time>
      </trkpt>
      <trkpt lat="47.42113" lon="6.76162">
        <ele>532.6</ele>
        <time>2017-10-01T08:52:01Z</time>
      </trkpt>
      <trkpt lat="47.42112" lon="6.76157">
        <ele>532.4</ele>
        <time>2017-10-01T08:52:02Z</time>
      </trkpt>
      <trkpt lat="47.4211" lon="6.7615">
        <ele>532.7</ele>
        <time>2017-10-01T08:52:03Z</time>
      </trkpt>
      <trkpt lat="47.42109" lon="6.76145">
        <ele>532.3</ele>
        <time>2017-10-01T08:52:04Z</time>
      </trkpt>
      <trkpt lat="47.42107" lon="6.7614">
        <ele>533</ele>
        <time>2017-10-01T08:52:05Z</time>
      </trkpt>
      <trkpt lat="47.42105" lon="6.76135">
        <ele>532.5</ele>
        <time>2017-10-01T08:52:06Z</time>
      </trkpt>
      <trkpt lat="47.42105" lon="6.7613">
        <ele>532.9</ele>
        <time>2017-10-01T08:52:07Z</time>
      </trkpt>
      <trkpt lat="47.42104" lon="6.76126">
        <ele>533.3</ele>
        <time>2017-10-01T08:52:08Z</time>
      </trkpt>
      <trkpt lat="47.42103" lon="6.76122">
        <ele>533.7</ele>
        <time>2017-10-01T08:52:09Z</time>
      </trkpt>
      <trkpt lat="47.42102" lon="6.76118">
        <ele>533.2</ele>
        <time>2017-10-01T08:52:10Z</time>
      </trkpt>
      <trkpt lat="47.42101" lon="6.76113">
        <ele>533.5</ele>
        <time>2017-10-01T08:52:11Z</time>
      </trkpt>
      <trkpt lat="47.421" lon="6.76108">
        <ele>532.8</ele>
        <time>2017-10-01T08:52:12Z</time>
      </trkpt>
      <trkpt lat="47.42099" lon="6.76104">
        <ele>533</ele>
        <time>2017-10-01T08:52:13Z</time>
      </trkpt>
      <trkpt lat="47.42098" lon="6.76101">
        <ele>533.2</ele>
        <time>2017-10-01T08:52:15Z</time>
      </trkpt>
      <trkpt lat="47.42096" lon="6.76094">
        <ele>532.3</ele>
        <time>2017-10-01T08:52:16Z</time>
      </trkpt>
      <trkpt lat="47.42094" lon="6.76086">
        <ele>531.3</ele>
        <time>2017-10-01T08:52:17Z</time>
      </trkpt>
      <trkpt lat="47.42092" lon="6.76077">
        <ele>531.3</ele>
        <time>2017-10-01T08:52:18Z</time>
      </trkpt>
      <trkpt lat="47.42092" lon="6.76073">
        <ele>531.3</ele>
        <time>2017-10-01T08:52:19Z</time>
      </trkpt>
      <trkpt lat="47.42092" lon="6.76068">
        <ele>531.4</ele>
        <time>2017-10-01T08:52:20Z</time>
      </trkpt>
      <trkpt lat="47.42091" lon="6.76063">
        <ele>530.5</ele>
        <time>2017-10-01T08:52:21Z</time>
      </trkpt>
      <trkpt lat="47.4209" lon="6.76059">
        <ele>530.7</ele>
        <time>2017-10-01T08:52:22Z</time>
      </trkpt>
      <trkpt lat="47.42089" lon="6.76055">
        <ele>530.9</ele>
        <time>2017-10-01T08:52:23Z</time>
      </trkpt>
      <trkpt lat="47.42088" lon="6.76052">
        <ele>530.1</ele>
        <time>2017-10-01T08:52:24Z</time>
      </trkpt>
      <trkpt lat="47.42087" lon="6.76046">
        <ele>530.4</ele>
        <time>2017-10-01T08:52:26Z</time>
      </trkpt>
      <trkpt lat="47.42087" lon="6.76042">
        <ele>530.8</ele>
        <time>2017-10-01T08:52:27Z</time>
      </trkpt>
      <trkpt lat="47.42086" lon="6.76037">
        <ele>531.3</ele>
        <time>2017-10-01T08:52:28Z</time>
      </trkpt>
      <trkpt lat="47.42086" lon="6.76033">
        <ele>531</ele>
        <time>2017-10-01T08:52:29Z</time>
      </trkpt>
      <trkpt lat="47.42085" lon="6.76029">
        <ele>531.6</ele>
        <time>2017-10-01T08:52:30Z</time>
      </trkpt>
      <trkpt lat="47.42084" lon="6.76024">
        <ele>532.1</ele>
        <time>2017-10-01T08:52:31Z</time>
      </trkpt>
      <trkpt lat="47.42083" lon="6.76018">
        <ele>533.4</ele>
        <time>2017-10-01T08:52:32Z</time>
      </trkpt>
      <trkpt lat="47.42082" lon="6.76013">
        <ele>533.4</ele>
        <time>2017-10-01T08:52:33Z</time>
      </trkpt>
      <trkpt lat="47.4208" lon="6.76">
        <ele>534.5</ele>
        <time>2017-10-01T08:52:34Z</time>
      </trkpt>
      <trkpt lat="47.42079" lon="6.75991">
        <ele>535.3</ele>
        <time>2017-10-01T08:52:35Z</time>
      </trkpt>
      <trkpt lat="47.42078" lon="6.7598">
        <ele>536.2</ele>
        <time>2017-10-01T08:52:36Z</time>
      </trkpt>
      <trkpt lat="47.42076" lon="6.75971">
        <ele>535.8</ele>
        <time>2017-10-01T08:52:37Z</time>
      </trkpt>
      <trkpt lat="47.42074" lon="6.75966">
        <ele>536</ele>
        <time>2017-10-01T08:52:38Z</time>
      </trkpt>
      <trkpt lat="47.42073" lon="6.75961">
        <ele>535.3</ele>
        <time>2017-10-01T08:52:39Z</time>
      </trkpt>
      <trkpt lat="47.42072" lon="6.75956">
        <ele>535.6</ele>
        <time>2017-10-01T08:52:40Z</time>
      </trkpt>
      <trkpt lat="47.42071" lon="6.75951">
        <ele>535.9</ele>
        <time>2017-10-01T08:52:41Z</time>
      </trkpt>
      <trkpt lat="47.42071" lon="6.75945">
        <ele>535.9</ele>
        <time>2017-10-01T08:52:44Z</time>
      </trkpt>
      <trkpt lat="47.42072" lon="6.75943">
        <ele>535.9</ele>
        <time>2017-10-01T08:52:45Z</time>
      </trkpt>
      <trkpt lat="47.42072" lon="6.7594">
        <ele>535.9</ele>
        <time>2017-10-01T08:52:51Z</time>
      </trkpt>
      <trkpt lat="47.42072" lon="6.75934">
        <ele>535.8</ele>
        <time>2017-10-01T08:52:52Z</time>
      </trkpt>
      <trkpt lat="47.4207" lon="6.7593">
        <ele>534.9</ele>
        <time>2017-10-01T08:52:53Z</time>
      </trkpt>
      <trkpt lat="47.42065" lon="6.75928">
        <ele>532.9</ele>
        <time>2017-10-01T08:52:54Z</time>
      </trkpt>
      <trkpt lat="47.42062" lon="6.75924">
        <ele>532.1</ele>
        <time>2017-10-01T08:52:55Z</time>
      </trkpt>
      <trkpt lat="47.4206" lon="6.75923">
        <ele>532.1</ele>
        <time>2017-10-01T08:52:56Z</time>
      </trkpt>
      <trkpt lat="47.42059" lon="6.75922">
        <ele>531.1</ele>
        <time>2017-10-01T08:52:57Z</time>
      </trkpt>
      <trkpt lat="47.42056" lon="6.7592">
        <ele>530.4</ele>
        <time>2017-10-01T08:52:58Z</time>
      </trkpt>
      <trkpt lat="47.42054" lon="6.75915">
        <ele>529.7</ele>
        <time>2017-10-01T08:52:59Z</time>
      </trkpt>
      <trkpt lat="47.42052" lon="6.7591">
        <ele>529.9</ele>
        <time>2017-10-01T08:53:00Z</time>
      </trkpt>
      <trkpt lat="47.42051" lon="6.75907">
        <ele>529.1</ele>
        <time>2017-10-01T08:53:01Z</time>
      </trkpt>
      <trkpt lat="47.4205" lon="6.75901">
        <ele>529.5</ele>
        <time>2017-10-01T08:53:02Z</time>
      </trkpt>
      <trkpt lat="47.42046" lon="6.75894">
        <ele>529.1</ele>
        <time>2017-10-01T08:53:03Z</time>
      </trkpt>
      <trkpt lat="47.42042" lon="6.75886">
        <ele>528.8</ele>
        <time>2017-10-01T08:53:04Z</time>
      </trkpt>
      <trkpt lat="47.42039" lon="6.75878">
        <ele>528.7</ele>
        <time>2017-10-01T08:53:05Z</time>
      </trkpt>
      <trkpt lat="47.42037" lon="6.75871">
        <ele>528.1</ele>
        <time>2017-10-01T08:53:06Z</time>
      </trkpt>
      <trkpt lat="47.42036" lon="6.75866">
        <ele>527.5</ele>
        <time>2017-10-01T08:53:07Z</time>
      </trkpt>
      <trkpt lat="47.42034" lon="6.75859">
        <ele>528.1</ele>
        <time>2017-10-01T08:53:08Z</time>
      </trkpt>
      <trkpt lat="47.42032" lon="6.75855">
        <ele>527.4</ele>
        <time>2017-10-01T08:53:09Z</time>
      </trkpt>
      <trkpt lat="47.42031" lon="6.7585">
        <ele>527.7</ele>
        <time>2017-10-01T08:53:10Z</time>
      </trkpt>
      <trkpt lat="47.4203" lon="6.75847">
        <ele>527.1</ele>
        <time>2017-10-01T08:53:11Z</time>
      </trkpt>
      <trkpt lat="47.42029" lon="6.75844">
        <ele>527</ele>
        <time>2017-10-01T08:53:12Z</time>
      </trkpt>
      <trkpt lat="47.42025" lon="6.7584">
        <ele>526.5</ele>
        <time>2017-10-01T08:53:13Z</time>
      </trkpt>
      <trkpt lat="47.42023" lon="6.75833">
        <ele>526.2</ele>
        <time>2017-10-01T08:53:14Z</time>
      </trkpt>
      <trkpt lat="47.42023" lon="6.7583">
        <ele>526.5</ele>
        <time>2017-10-01T08:53:15Z</time>
      </trkpt>
      <trkpt lat="47.42021" lon="6.75826">
        <ele>526</ele>
        <time>2017-10-01T08:53:16Z</time>
      </trkpt>
      <trkpt lat="47.42019" lon="6.75821">
        <ele>526.4</ele>
        <time>2017-10-01T08:53:17Z</time>
      </trkpt>
      <trkpt lat="47.42017" lon="6.75817">
        <ele>525.8</ele>
        <time>2017-10-01T08:53:18Z</time>
      </trkpt>
      <trkpt lat="47.42015" lon="6.75812">
        <ele>525.1</ele>
        <time>2017-10-01T08:53:19Z</time>
      </trkpt>
      <trkpt lat="47.42014" lon="6.75807">
        <ele>525.5</ele>
        <time>2017-10-01T08:53:20Z</time>
      </trkpt>
      <trkpt lat="47.4201" lon="6.75799">
        <ele>523.5</ele>
        <time>2017-10-01T08:53:21Z</time>
      </trkpt>
      <trkpt lat="47.42006" lon="6.75791">
        <ele>522.9</ele>
        <time>2017-10-01T08:53:22Z</time>
      </trkpt>
      <trkpt lat="47.42003" lon="6.75782">
        <ele>522.4</ele>
        <time>2017-10-01T08:53:23Z</time>
      </trkpt>
      <trkpt lat="47.42001" lon="6.75776">
        <ele>521.6</ele>
        <time>2017-10-01T08:53:24Z</time>
      </trkpt>
      <trkpt lat="47.41997" lon="6.75767">
        <ele>521.3</ele>
        <time>2017-10-01T08:53:25Z</time>
      </trkpt>
      <trkpt lat="47.41994" lon="6.75762">
        <ele>520.6</ele>
        <time>2017-10-01T08:53:26Z</time>
      </trkpt>
      <trkpt lat="47.41991" lon="6.75756">
        <ele>520.4</ele>
        <time>2017-10-01T08:53:27Z</time>
      </trkpt>
      <trkpt lat="47.41989" lon="6.75749">
        <ele>520.1</ele>
        <time>2017-10-01T08:53:28Z</time>
      </trkpt>
      <trkpt lat="47.41988" lon="6.75745">
        <ele>520.1</ele>
        <time>2017-10-01T08:53:29Z</time>
      </trkpt>
      <trkpt lat="47.41986" lon="6.75739">
        <ele>519.9</ele>
        <time>2017-10-01T08:53:30Z</time>
      </trkpt>
      <trkpt lat="47.41985" lon="6.75734">
        <ele>520.8</ele>
        <time>2017-10-01T08:53:31Z</time>
      </trkpt>
      <trkpt lat="47.41984" lon="6.7573">
        <ele>521.7</ele>
        <time>2017-10-01T08:53:32Z</time>
      </trkpt>
      <trkpt lat="47.41982" lon="6.75726">
        <ele>520.8</ele>
        <time>2017-10-01T08:53:33Z</time>
      </trkpt>
      <trkpt lat="47.41981" lon="6.75721">
        <ele>520</ele>
        <time>2017-10-01T08:53:34Z</time>
      </trkpt>
      <trkpt lat="47.4198" lon="6.75716">
        <ele>520.8</ele>
        <time>2017-10-01T08:53:35Z</time>
      </trkpt>
      <trkpt lat="47.41979" lon="6.75712">
        <ele>521.7</ele>
        <time>2017-10-01T08:53:36Z</time>
      </trkpt>
      <trkpt lat="47.41976" lon="6.75707">
        <ele>521.3</ele>
        <time>2017-10-01T08:53:37Z</time>
      </trkpt>
      <trkpt lat="47.41974" lon="6.75701">
        <ele>522</ele>
        <time>2017-10-01T08:53:38Z</time>
      </trkpt>
      <trkpt lat="47.41972" lon="6.75695">
        <ele>521.7</ele>
        <time>2017-10-01T08:53:39Z</time>
      </trkpt>
      <trkpt lat="47.4197" lon="6.7569">
        <ele>522.6</ele>
        <time>2017-10-01T08:53:40Z</time>
      </trkpt>
      <trkpt lat="47.41969" lon="6.75685">
        <ele>523.4</ele>
        <time>2017-10-01T08:53:41Z</time>
      </trkpt>
      <trkpt lat="47.41968" lon="6.75681">
        <ele>523.4</ele>
        <time>2017-10-01T08:53:42Z</time>
      </trkpt>
      <trkpt lat="47.41966" lon="6.75678">
        <ele>523.3</ele>
        <time>2017-10-01T08:53:43Z</time>
      </trkpt>
      <trkpt lat="47.41965" lon="6.75674">
        <ele>524.3</ele>
        <time>2017-10-01T08:53:44Z</time>
      </trkpt>
      <trkpt lat="47.41963" lon="6.7567">
        <ele>524.1</ele>
        <time>2017-10-01T08:53:45Z</time>
      </trkpt>
      <trkpt lat="47.41961" lon="6.75667">
        <ele>525</ele>
        <time>2017-10-01T08:53:46Z</time>
      </trkpt>
      <trkpt lat="47.4196" lon="6.75662">
        <ele>524.8</ele>
        <time>2017-10-01T08:53:47Z</time>
      </trkpt>
      <trkpt lat="47.41958" lon="6.75657">
        <ele>525.8</ele>
        <time>2017-10-01T08:53:48Z</time>
      </trkpt>
      <trkpt lat="47.41956" lon="6.75652">
        <ele>525.8</ele>
        <time>2017-10-01T08:53:49Z</time>
      </trkpt>
      <trkpt lat="47.41954" lon="6.75647">
        <ele>525.8</ele>
        <time>2017-10-01T08:53:50Z</time>
      </trkpt>
      <trkpt lat="47.41952" lon="6.75643">
        <ele>525.7</ele>
        <time>2017-10-01T08:53:51Z</time>
      </trkpt>
      <trkpt lat="47.4195" lon="6.7564">
        <ele>526.4</ele>
        <time>2017-10-01T08:53:52Z</time>
      </trkpt>
      <trkpt lat="47.41948" lon="6.75637">
        <ele>525.9</ele>
        <time>2017-10-01T08:53:53Z</time>
      </trkpt>
      <trkpt lat="47.41946" lon="6.75631">
        <ele>525.4</ele>
        <time>2017-10-01T08:53:55Z</time>
      </trkpt>
      <trkpt lat="47.41944" lon="6.75627">
        <ele>525.9</ele>
        <time>2017-10-01T08:53:56Z</time>
      </trkpt>
      <trkpt lat="47.41942" lon="6.75622">
        <ele>525.3</ele>
        <time>2017-10-01T08:53:57Z</time>
      </trkpt>
      <trkpt lat="47.4194" lon="6.75616">
        <ele>524.4</ele>
        <time>2017-10-01T08:53:58Z</time>
      </trkpt>
      <trkpt lat="47.41937" lon="6.75608">
        <ele>524.2</ele>
        <time>2017-10-01T08:53:59Z</time>
      </trkpt>
      <trkpt lat="47.41936" lon="6.75604">
        <ele>524.2</ele>
        <time>2017-10-01T08:54:00Z</time>
      </trkpt>
      <trkpt lat="47.41933" lon="6.75598">
        <ele>523.8</ele>
        <time>2017-10-01T08:54:01Z</time>
      </trkpt>
      <trkpt lat="47.41931" lon="6.75594">
        <ele>522.9</ele>
        <time>2017-10-01T08:54:02Z</time>
      </trkpt>
      <trkpt lat="47.4193" lon="6.7559">
        <ele>523.5</ele>
        <time>2017-10-01T08:54:03Z</time>
      </trkpt>
      <trkpt lat="47.41929" lon="6.75585">
        <ele>522.6</ele>
        <time>2017-10-01T08:54:05Z</time>
      </trkpt>
      <trkpt lat="47.41928" lon="6.75583">
        <ele>522.6</ele>
        <time>2017-10-01T08:54:06Z</time>
      </trkpt>
      <trkpt lat="47.41926" lon="6.75576">
        <ele>523.8</ele>
        <time>2017-10-01T08:54:07Z</time>
      </trkpt>
      <trkpt lat="47.41925" lon="6.75573">
        <ele>523.2</ele>
        <time>2017-10-01T08:54:08Z</time>
      </trkpt>
      <trkpt lat="47.41924" lon="6.7557">
        <ele>523.2</ele>
        <time>2017-10-01T08:54:09Z</time>
      </trkpt>
      <trkpt lat="47.41923" lon="6.75567">
        <ele>522.9</ele>
        <time>2017-10-01T08:54:10Z</time>
      </trkpt>
      <trkpt lat="47.41921" lon="6.75565">
        <ele>522.9</ele>
        <time>2017-10-01T08:54:11Z</time>
      </trkpt>
      <trkpt lat="47.41916" lon="6.75561">
        <ele>521.7</ele>
        <time>2017-10-01T08:54:12Z</time>
      </trkpt>
      <trkpt lat="47.41911" lon="6.75552">
        <ele>521.4</ele>
        <time>2017-10-01T08:54:13Z</time>
      </trkpt>
      <trkpt lat="47.41907" lon="6.75548">
        <ele>521.2</ele>
        <time>2017-10-01T08:54:14Z</time>
      </trkpt>
      <trkpt lat="47.41901" lon="6.75543">
        <ele>521</ele>
        <time>2017-10-01T08:54:15Z</time>
      </trkpt>
      <trkpt lat="47.41895" lon="6.75535">
        <ele>520.1</ele>
        <time>2017-10-01T08:54:16Z</time>
      </trkpt>
      <trkpt lat="47.41893" lon="6.7553">
        <ele>521.1</ele>
        <time>2017-10-01T08:54:17Z</time>
      </trkpt>
      <trkpt lat="47.41891" lon="6.75524">
        <ele>521.2</ele>
        <time>2017-10-01T08:54:18Z</time>
      </trkpt>
      <trkpt lat="47.41888" lon="6.7552">
        <ele>521.5</ele>
        <time>2017-10-01T08:54:19Z</time>
      </trkpt>
      <trkpt lat="47.41886" lon="6.75517">
        <ele>522.5</ele>
        <time>2017-10-01T08:54:20Z</time>
      </trkpt>
      <trkpt lat="47.41884" lon="6.75515">
        <ele>521.7</ele>
        <time>2017-10-01T08:54:21Z</time>
      </trkpt>
      <trkpt lat="47.4188" lon="6.7551">
        <ele>521.9</ele>
        <time>2017-10-01T08:54:22Z</time>
      </trkpt>
      <trkpt lat="47.41875" lon="6.75504">
        <ele>521.9</ele>
        <time>2017-10-01T08:54:23Z</time>
      </trkpt>
      <trkpt lat="47.41872" lon="6.75501">
        <ele>521</ele>
        <time>2017-10-01T08:54:24Z</time>
      </trkpt>
      <trkpt lat="47.4187" lon="6.75499">
        <ele>520.9</ele>
        <time>2017-10-01T08:54:25Z</time>
      </trkpt>
      <trkpt lat="47.41869" lon="6.75496">
        <ele>521.9</ele>
        <time>2017-10-01T08:54:26Z</time>
      </trkpt>
      <trkpt lat="47.41865" lon="6.75493">
        <ele>521.1</ele>
        <time>2017-10-01T08:54:27Z</time>
      </trkpt>
      <trkpt lat="47.41863" lon="6.7549">
        <ele>521.5</ele>
        <time>2017-10-01T08:54:28Z</time>
      </trkpt>
      <trkpt lat="47.4186" lon="6.75486">
        <ele>522.1</ele>
        <time>2017-10-01T08:54:29Z</time>
      </trkpt>
      <trkpt lat="47.41857" lon="6.75483">
        <ele>521.5</ele>
        <time>2017-10-01T08:54:30Z</time>
      </trkpt>
      <trkpt lat="47.41855" lon="6.75481">
        <ele>522.1</ele>
        <time>2017-10-01T08:54:31Z</time>
      </trkpt>
      <trkpt lat="47.41854" lon="6.75478">
        <ele>523.2</ele>
        <time>2017-10-01T08:54:32Z</time>
      </trkpt>
      <trkpt lat="47.41851" lon="6.75472">
        <ele>522.9</ele>
        <time>2017-10-01T08:54:33Z</time>
      </trkpt>
      <trkpt lat="47.41847" lon="6.75468">
        <ele>523.1</ele>
        <time>2017-10-01T08:54:34Z</time>
      </trkpt>
      <trkpt lat="47.41844" lon="6.75464">
        <ele>523.5</ele>
        <time>2017-10-01T08:54:35Z</time>
      </trkpt>
      <trkpt lat="47.41841" lon="6.7546">
        <ele>523.9</ele>
        <time>2017-10-01T08:54:36Z</time>
      </trkpt>
      <trkpt lat="47.41841" lon="6.75459">
        <ele>523.9</ele>
        <time>2017-10-01T08:54:37Z</time>
      </trkpt>
      <trkpt lat="47.41838" lon="6.75455">
        <ele>524.4</ele>
        <time>2017-10-01T08:54:38Z</time>
      </trkpt>
      <trkpt lat="47.41836" lon="6.75453">
        <ele>525.4</ele>
        <time>2017-10-01T08:54:39Z</time>
      </trkpt>
      <trkpt lat="47.41833" lon="6.7545">
        <ele>524.9</ele>
        <time>2017-10-01T08:54:42Z</time>
      </trkpt>
      <trkpt lat="47.41831" lon="6.75449">
        <ele>525.4</ele>
        <time>2017-10-01T08:54:43Z</time>
      </trkpt>
      <trkpt lat="47.41828" lon="6.75445">
        <ele>525</ele>
        <time>2017-10-01T08:54:45Z</time>
      </trkpt>
      <trkpt lat="47.41825" lon="6.75442">
        <ele>525.3</ele>
        <time>2017-10-01T08:54:46Z</time>
      </trkpt>
      <trkpt lat="47.41823" lon="6.75441">
        <ele>524.7</ele>
        <time>2017-10-01T08:54:47Z</time>
      </trkpt>
      <trkpt lat="47.4182" lon="6.75439">
        <ele>525.1</ele>
        <time>2017-10-01T08:54:48Z</time>
      </trkpt>
      <trkpt lat="47.41815" lon="6.75439">
        <ele>523.8</ele>
        <time>2017-10-01T08:54:49Z</time>
      </trkpt>
      <trkpt lat="47.41811" lon="6.75438">
        <ele>523.1</ele>
        <time>2017-10-01T08:54:50Z</time>
      </trkpt>
      <trkpt lat="47.41809" lon="6.75439">
        <ele>522.4</ele>
        <time>2017-10-01T08:54:51Z</time>
      </trkpt>
      <trkpt lat="47.41805" lon="6.75438">
        <ele>521.8</ele>
        <time>2017-10-01T08:54:53Z</time>
      </trkpt>
      <trkpt lat="47.41803" lon="6.75438">
        <ele>521.1</ele>
        <time>2017-10-01T08:54:54Z</time>
      </trkpt>
      <trkpt lat="47.418" lon="6.75438">
        <ele>520.4</ele>
        <time>2017-10-01T08:54:55Z</time>
      </trkpt>
      <trkpt lat="47.41798" lon="6.75438">
        <ele>519.7</ele>
        <time>2017-10-01T08:54:56Z</time>
      </trkpt>
      <trkpt lat="47.41795" lon="6.75437">
        <ele>519</ele>
        <time>2017-10-01T08:54:57Z</time>
      </trkpt>
      <trkpt lat="47.41793" lon="6.75435">
        <ele>520.4</ele>
        <time>2017-10-01T08:54:58Z</time>
      </trkpt>
      <trkpt lat="47.4179" lon="6.75434">
        <ele>519.7</ele>
        <time>2017-10-01T08:54:59Z</time>
      </trkpt>
      <trkpt lat="47.41787" lon="6.75433">
        <ele>519.1</ele>
        <time>2017-10-01T08:55:00Z</time>
      </trkpt>
      <trkpt lat="47.41783" lon="6.75432">
        <ele>518.3</ele>
        <time>2017-10-01T08:55:01Z</time>
      </trkpt>
      <trkpt lat="47.4178" lon="6.75431">
        <ele>519.5</ele>
        <time>2017-10-01T08:55:02Z</time>
      </trkpt>
      <trkpt lat="47.41778" lon="6.75431">
        <ele>519.3</ele>
        <time>2017-10-01T08:55:03Z</time>
      </trkpt>
      <trkpt lat="47.41775" lon="6.7543">
        <ele>519.2</ele>
        <time>2017-10-01T08:55:04Z</time>
      </trkpt>
      <trkpt lat="47.41773" lon="6.75428">
        <ele>519.2</ele>
        <time>2017-10-01T08:55:05Z</time>
      </trkpt>
      <trkpt lat="47.4177" lon="6.75427">
        <ele>520.3</ele>
        <time>2017-10-01T08:55:06Z</time>
      </trkpt>
      <trkpt lat="47.41767" lon="6.75426">
        <ele>520.2</ele>
        <time>2017-10-01T08:55:07Z</time>
      </trkpt>
      <trkpt lat="47.41765" lon="6.75425">
        <ele>520.1</ele>
        <time>2017-10-01T08:55:08Z</time>
      </trkpt>
      <trkpt lat="47.41761" lon="6.75423">
        <ele>520.9</ele>
        <time>2017-10-01T08:55:10Z</time>
      </trkpt>
      <trkpt lat="47.41758" lon="6.75423">
        <ele>520.8</ele>
        <time>2017-10-01T08:55:11Z</time>
      </trkpt>
      <trkpt lat="47.41754" lon="6.75421">
        <ele>520.5</ele>
        <time>2017-10-01T08:55:13Z</time>
      </trkpt>
      <trkpt lat="47.41752" lon="6.75421">
        <ele>520.3</ele>
        <time>2017-10-01T08:55:14Z</time>
      </trkpt>
      <trkpt lat="47.41747" lon="6.7542">
        <ele>520.2</ele>
        <time>2017-10-01T08:55:15Z</time>
      </trkpt>
      <trkpt lat="47.41745" lon="6.75419">
        <ele>520.6</ele>
        <time>2017-10-01T08:55:16Z</time>
      </trkpt>
      <trkpt lat="47.41742" lon="6.75414">
        <ele>521.3</ele>
        <time>2017-10-01T08:55:17Z</time>
      </trkpt>
      <trkpt lat="47.41737" lon="6.75412">
        <ele>520.8</ele>
        <time>2017-10-01T08:55:20Z</time>
      </trkpt>
      <trkpt lat="47.41734" lon="6.75409">
        <ele>521.8</ele>
        <time>2017-10-01T08:55:21Z</time>
      </trkpt>
      <trkpt lat="47.4173" lon="6.75407">
        <ele>521.7</ele>
        <time>2017-10-01T08:55:24Z</time>
      </trkpt>
      <trkpt lat="47.41728" lon="6.75405">
        <ele>523.1</ele>
        <time>2017-10-01T08:55:25Z</time>
      </trkpt>
      <trkpt lat="47.41726" lon="6.75404">
        <ele>523.1</ele>
        <time>2017-10-01T08:55:26Z</time>
      </trkpt>
      <trkpt lat="47.41724" lon="6.75402">
        <ele>523.1</ele>
        <time>2017-10-01T08:55:27Z</time>
      </trkpt>
      <trkpt lat="47.4172" lon="6.754">
        <ele>524.9</ele>
        <time>2017-10-01T08:55:29Z</time>
      </trkpt>
      <trkpt lat="47.41718" lon="6.75398">
        <ele>524.9</ele>
        <time>2017-10-01T08:55:30Z</time>
      </trkpt>
      <trkpt lat="47.41714" lon="6.75396">
        <ele>526.9</ele>
        <time>2017-10-01T08:55:31Z</time>
      </trkpt>
      <trkpt lat="47.41712" lon="6.75395">
        <ele>526.9</ele>
        <time>2017-10-01T08:55:32Z</time>
      </trkpt>
      <trkpt lat="47.4171" lon="6.75394">
        <ele>526.9</ele>
        <time>2017-10-01T08:55:33Z</time>
      </trkpt>
      <trkpt lat="47.41707" lon="6.75393">
        <ele>528.6</ele>
        <time>2017-10-01T08:55:34Z</time>
      </trkpt>
      <trkpt lat="47.41705" lon="6.75392">
        <ele>528.6</ele>
        <time>2017-10-01T08:55:35Z</time>
      </trkpt>
      <trkpt lat="47.41703" lon="6.75391">
        <ele>528.6</ele>
        <time>2017-10-01T08:55:36Z</time>
      </trkpt>
      <trkpt lat="47.41699" lon="6.75389">
        <ele>528.4</ele>
        <time>2017-10-01T08:55:38Z</time>
      </trkpt>
      <trkpt lat="47.41697" lon="6.75388">
        <ele>529.9</ele>
        <time>2017-10-01T08:55:39Z</time>
      </trkpt>
      <trkpt lat="47.41693" lon="6.75384">
        <ele>531</ele>
        <time>2017-10-01T08:55:40Z</time>
      </trkpt>
      <trkpt lat="47.4169" lon="6.75382">
        <ele>530.6</ele>
        <time>2017-10-01T08:55:42Z</time>
      </trkpt>
      <trkpt lat="47.41688" lon="6.75381">
        <ele>530.6</ele>
        <time>2017-10-01T08:55:43Z</time>
      </trkpt>
      <trkpt lat="47.41687" lon="6.75379">
        <ele>531.8</ele>
        <time>2017-10-01T08:55:44Z</time>
      </trkpt>
      <trkpt lat="47.41683" lon="6.75377">
        <ele>531.3</ele>
        <time>2017-10-01T08:55:45Z</time>
      </trkpt>
      <trkpt lat="47.41681" lon="6.75374">
        <ele>532.3</ele>
        <time>2017-10-01T08:55:46Z</time>
      </trkpt>
      <trkpt lat="47.41679" lon="6.75372">
        <ele>531.8</ele>
        <time>2017-10-01T08:55:47Z</time>
      </trkpt>
      <trkpt lat="47.41676" lon="6.7537">
        <ele>532.8</ele>
        <time>2017-10-01T08:55:49Z</time>
      </trkpt>
      <trkpt lat="47.41674" lon="6.75369">
        <ele>532.8</ele>
        <time>2017-10-01T08:55:50Z</time>
      </trkpt>
      <trkpt lat="47.41673" lon="6.75366">
        <ele>533.6</ele>
        <time>2017-10-01T08:55:51Z</time>
      </trkpt>
      <trkpt lat="47.41671" lon="6.75363">
        <ele>534.2</ele>
        <time>2017-10-01T08:55:52Z</time>
      </trkpt>
      <trkpt lat="47.41668" lon="6.7536">
        <ele>534.2</ele>
        <time>2017-10-01T08:55:53Z</time>
      </trkpt>
      <trkpt lat="47.41666" lon="6.75359">
        <ele>533.8</ele>
        <time>2017-10-01T08:55:54Z</time>
      </trkpt>
      <trkpt lat="47.41663" lon="6.75358">
        <ele>534.6</ele>
        <time>2017-10-01T08:55:56Z</time>
      </trkpt>
      <trkpt lat="47.41661" lon="6.75356">
        <ele>534.2</ele>
        <time>2017-10-01T08:55:57Z</time>
      </trkpt>
      <trkpt lat="47.41659" lon="6.75354">
        <ele>535.1</ele>
        <time>2017-10-01T08:55:58Z</time>
      </trkpt>
      <trkpt lat="47.41656" lon="6.75353">
        <ele>535.1</ele>
        <time>2017-10-01T08:55:59Z</time>
      </trkpt>
      <trkpt lat="47.41655" lon="6.75352">
        <ele>534.7</ele>
        <time>2017-10-01T08:56:00Z</time>
      </trkpt>
      <trkpt lat="47.41652" lon="6.75351">
        <ele>534.3</ele>
        <time>2017-10-01T08:56:01Z</time>
      </trkpt>
      <trkpt lat="47.41649" lon="6.75349">
        <ele>535.1</ele>
        <time>2017-10-01T08:56:02Z</time>
      </trkpt>
      <trkpt lat="47.41646" lon="6.75347">
        <ele>534.8</ele>
        <time>2017-10-01T08:56:03Z</time>
      </trkpt>
      <trkpt lat="47.41642" lon="6.75346">
        <ele>534.4</ele>
        <time>2017-10-01T08:56:05Z</time>
      </trkpt>
      <trkpt lat="47.41641" lon="6.75345">
        <ele>535.1</ele>
        <time>2017-10-01T08:56:06Z</time>
      </trkpt>
      <trkpt lat="47.41638" lon="6.75343">
        <ele>534.8</ele>
        <time>2017-10-01T08:56:08Z</time>
      </trkpt>
      <trkpt lat="47.41635" lon="6.75342">
        <ele>534.5</ele>
        <time>2017-10-01T08:56:09Z</time>
      </trkpt>
      <trkpt lat="47.41632" lon="6.75342">
        <ele>534.2</ele>
        <time>2017-10-01T08:56:10Z</time>
      </trkpt>
      <trkpt lat="47.41629" lon="6.7534">
        <ele>534.9</ele>
        <time>2017-10-01T08:56:11Z</time>
      </trkpt>
      <trkpt lat="47.41626" lon="6.75339">
        <ele>534.7</ele>
        <time>2017-10-01T08:56:13Z</time>
      </trkpt>
      <trkpt lat="47.41625" lon="6.75338">
        <ele>534.7</ele>
        <time>2017-10-01T08:56:14Z</time>
      </trkpt>
      <trkpt lat="47.41622" lon="6.75337">
        <ele>535.2</ele>
        <time>2017-10-01T08:56:15Z</time>
      </trkpt>
      <trkpt lat="47.4162" lon="6.75335">
        <ele>535</ele>
        <time>2017-10-01T08:56:16Z</time>
      </trkpt>
      <trkpt lat="47.41617" lon="6.75333">
        <ele>534.9</ele>
        <time>2017-10-01T08:56:17Z</time>
      </trkpt>
      <trkpt lat="47.41615" lon="6.75333">
        <ele>535.2</ele>
        <time>2017-10-01T08:56:18Z</time>
      </trkpt>
      <trkpt lat="47.41612" lon="6.75333">
        <ele>535</ele>
        <time>2017-10-01T08:56:19Z</time>
      </trkpt>
      <trkpt lat="47.4161" lon="6.75333">
        <ele>535</ele>
        <time>2017-10-01T08:56:20Z</time>
      </trkpt>
      <trkpt lat="47.41607" lon="6.75333">
        <ele>534.9</ele>
        <time>2017-10-01T08:56:21Z</time>
      </trkpt>
      <trkpt lat="47.41604" lon="6.75332">
        <ele>534.7</ele>
        <time>2017-10-01T08:56:22Z</time>
      </trkpt>
      <trkpt lat="47.41601" lon="6.75331">
        <ele>534.5</ele>
        <time>2017-10-01T08:56:23Z</time>
      </trkpt>
      <trkpt lat="47.41599" lon="6.7533">
        <ele>534.3</ele>
        <time>2017-10-01T08:56:24Z</time>
      </trkpt>
      <trkpt lat="47.41596" lon="6.75329">
        <ele>534.2</ele>
        <time>2017-10-01T08:56:25Z</time>
      </trkpt>
      <trkpt lat="47.41593" lon="6.75328">
        <ele>534.6</ele>
        <time>2017-10-01T08:56:26Z</time>
      </trkpt>
      <trkpt lat="47.41589" lon="6.75326">
        <ele>534.5</ele>
        <time>2017-10-01T08:56:28Z</time>
      </trkpt>
      <trkpt lat="47.41585" lon="6.75326">
        <ele>534.6</ele>
        <time>2017-10-01T08:56:29Z</time>
      </trkpt>
      <trkpt lat="47.41583" lon="6.75325">
        <ele>534.6</ele>
        <time>2017-10-01T08:56:30Z</time>
      </trkpt>
      <trkpt lat="47.4158" lon="6.75323">
        <ele>535.3</ele>
        <time>2017-10-01T08:56:31Z</time>
      </trkpt>
      <trkpt lat="47.41578" lon="6.75321">
        <ele>535.3</ele>
        <time>2017-10-01T08:56:32Z</time>
      </trkpt>
      <trkpt lat="47.41575" lon="6.7532">
        <ele>536.2</ele>
        <time>2017-10-01T08:56:33Z</time>
      </trkpt>
      <trkpt lat="47.41571" lon="6.75319">
        <ele>536.6</ele>
        <time>2017-10-01T08:56:35Z</time>
      </trkpt>
      <trkpt lat="47.41569" lon="6.75318">
        <ele>536.8</ele>
        <time>2017-10-01T08:56:36Z</time>
      </trkpt>
      <trkpt lat="47.41565" lon="6.75315">
        <ele>537.7</ele>
        <time>2017-10-01T08:56:38Z</time>
      </trkpt>
      <trkpt lat="47.41563" lon="6.75314">
        <ele>537.7</ele>
        <time>2017-10-01T08:56:39Z</time>
      </trkpt>
      <trkpt lat="47.4156" lon="6.75309">
        <ele>538.5</ele>
        <time>2017-10-01T08:56:44Z</time>
      </trkpt>
      <trkpt lat="47.4156" lon="6.75308">
        <ele>538.5</ele>
        <time>2017-10-01T08:56:45Z</time>
      </trkpt>
      <trkpt lat="47.41559" lon="6.75304">
        <ele>539.3</ele>
        <time>2017-10-01T08:56:49Z</time>
      </trkpt>
      <trkpt lat="47.41558" lon="6.75298">
        <ele>540.4</ele>
        <time>2017-10-01T08:56:50Z</time>
      </trkpt>
      <trkpt lat="47.41557" lon="6.75292">
        <ele>541.2</ele>
        <time>2017-10-01T08:56:52Z</time>
      </trkpt>
      <trkpt lat="47.41556" lon="6.75291">
        <ele>541.2</ele>
        <time>2017-10-01T08:56:53Z</time>
      </trkpt>
      <trkpt lat="47.41554" lon="6.75285">
        <ele>542.5</ele>
        <time>2017-10-01T08:56:57Z</time>
      </trkpt>
      <trkpt lat="47.41554" lon="6.75284">
        <ele>542.5</ele>
        <time>2017-10-01T08:56:58Z</time>
      </trkpt>
      <trkpt lat="47.41552" lon="6.75281">
        <ele>542.8</ele>
        <time>2017-10-01T08:57:03Z</time>
      </trkpt>
      <trkpt lat="47.4155" lon="6.7528">
        <ele>543.2</ele>
        <time>2017-10-01T08:57:04Z</time>
      </trkpt>
      <trkpt lat="47.41548" lon="6.75279">
        <ele>543.6</ele>
        <time>2017-10-01T08:57:05Z</time>
      </trkpt>
      <trkpt lat="47.41544" lon="6.75279">
        <ele>544</ele>
        <time>2017-10-01T08:57:06Z</time>
      </trkpt>
      <trkpt lat="47.41541" lon="6.75277">
        <ele>544.7</ele>
        <time>2017-10-01T08:57:07Z</time>
      </trkpt>
      <trkpt lat="47.41539" lon="6.75275">
        <ele>545.2</ele>
        <time>2017-10-01T08:57:08Z</time>
      </trkpt>
      <trkpt lat="47.41537" lon="6.7527">
        <ele>545.9</ele>
        <time>2017-10-01T08:57:12Z</time>
      </trkpt>
      <trkpt lat="47.41536" lon="6.75268">
        <ele>546.3</ele>
        <time>2017-10-01T08:57:13Z</time>
      </trkpt>
      <trkpt lat="47.41535" lon="6.75263">
        <ele>546.6</ele>
        <time>2017-10-01T08:57:18Z</time>
      </trkpt>
      <trkpt lat="47.41536" lon="6.75261">
        <ele>546.6</ele>
        <time>2017-10-01T08:57:19Z</time>
      </trkpt>
      <trkpt lat="47.41538" lon="6.75257">
        <ele>546.3</ele>
        <time>2017-10-01T08:57:23Z</time>
      </trkpt>
      <trkpt lat="47.41539" lon="6.75256">
        <ele>546.5</ele>
        <time>2017-10-01T08:57:24Z</time>
      </trkpt>
      <trkpt lat="47.41538" lon="6.75249">
        <ele>546.7</ele>
        <time>2017-10-01T08:57:28Z</time>
      </trkpt>
      <trkpt lat="47.41539" lon="6.75248">
        <ele>546.7</ele>
        <time>2017-10-01T08:57:29Z</time>
      </trkpt>
      <trkpt lat="47.4154" lon="6.75243">
        <ele>546.8</ele>
        <time>2017-10-01T08:57:33Z</time>
      </trkpt>
      <trkpt lat="47.41539" lon="6.75241">
        <ele>547</ele>
        <time>2017-10-01T08:57:34Z</time>
      </trkpt>
      <trkpt lat="47.41537" lon="6.75235">
        <ele>547.1</ele>
        <time>2017-10-01T08:57:37Z</time>
      </trkpt>
      <trkpt lat="47.41537" lon="6.75233">
        <ele>547.6</ele>
        <time>2017-10-01T08:57:38Z</time>
      </trkpt>
      <trkpt lat="47.41535" lon="6.75229">
        <ele>547.6</ele>
        <time>2017-10-01T08:57:41Z</time>
      </trkpt>
      <trkpt lat="47.41535" lon="6.75227">
        <ele>547.6</ele>
        <time>2017-10-01T08:57:42Z</time>
      </trkpt>
      <trkpt lat="47.41535" lon="6.75221">
        <ele>547.4</ele>
        <time>2017-10-01T08:57:45Z</time>
      </trkpt>
      <trkpt lat="47.41535" lon="6.75219">
        <ele>547.4</ele>
        <time>2017-10-01T08:57:46Z</time>
      </trkpt>
      <trkpt lat="47.41535" lon="6.75212">
        <ele>547.2</ele>
        <time>2017-10-01T08:57:50Z</time>
      </trkpt>
      <trkpt lat="47.41535" lon="6.75211">
        <ele>547.2</ele>
        <time>2017-10-01T08:57:51Z</time>
      </trkpt>
      <trkpt lat="47.41534" lon="6.75205">
        <ele>547</ele>
        <time>2017-10-01T08:57:54Z</time>
      </trkpt>
      <trkpt lat="47.41535" lon="6.75202">
        <ele>546.8</ele>
        <time>2017-10-01T08:57:55Z</time>
      </trkpt>
      <trkpt lat="47.41536" lon="6.75199">
        <ele>546.5</ele>
        <time>2017-10-01T08:57:56Z</time>
      </trkpt>
      <trkpt lat="47.41536" lon="6.75196">
        <ele>546.2</ele>
        <time>2017-10-01T08:57:57Z</time>
      </trkpt>
      <trkpt lat="47.41535" lon="6.7519">
        <ele>545.9</ele>
        <time>2017-10-01T08:57:59Z</time>
      </trkpt>
      <trkpt lat="47.41535" lon="6.75188">
        <ele>545.9</ele>
        <time>2017-10-01T08:58:00Z</time>
      </trkpt>
      <trkpt lat="47.41533" lon="6.75183">
        <ele>546</ele>
        <time>2017-10-01T08:58:03Z</time>
      </trkpt>
      <trkpt lat="47.41533" lon="6.75182">
        <ele>545.6</ele>
        <time>2017-10-01T08:58:04Z</time>
      </trkpt>
      <trkpt lat="47.41531" lon="6.75176">
        <ele>545.9</ele>
        <time>2017-10-01T08:58:07Z</time>
      </trkpt>
      <trkpt lat="47.4153" lon="6.75174">
        <ele>546</ele>
        <time>2017-10-01T08:58:08Z</time>
      </trkpt>
      <trkpt lat="47.41527" lon="6.75171">
        <ele>546.3</ele>
        <time>2017-10-01T08:58:11Z</time>
      </trkpt>
      <trkpt lat="47.41524" lon="6.7517">
        <ele>546.4</ele>
        <time>2017-10-01T08:58:12Z</time>
      </trkpt>
      <trkpt lat="47.4152" lon="6.75171">
        <ele>546.7</ele>
        <time>2017-10-01T08:58:14Z</time>
      </trkpt>
      <trkpt lat="47.41518" lon="6.75171">
        <ele>546.9</ele>
        <time>2017-10-01T08:58:15Z</time>
      </trkpt>
      <trkpt lat="47.41516" lon="6.7517">
        <ele>547.1</ele>
        <time>2017-10-01T08:58:16Z</time>
      </trkpt>
      <trkpt lat="47.41513" lon="6.75169">
        <ele>547.3</ele>
        <time>2017-10-01T08:58:17Z</time>
      </trkpt>
      <trkpt lat="47.4151" lon="6.75168">
        <ele>547.6</ele>
        <time>2017-10-01T08:58:19Z</time>
      </trkpt>
      <trkpt lat="47.41508" lon="6.75168">
        <ele>547.7</ele>
        <time>2017-10-01T08:58:20Z</time>
      </trkpt>
      <trkpt lat="47.41504" lon="6.75167">
        <ele>548</ele>
        <time>2017-10-01T08:58:22Z</time>
      </trkpt>
      <trkpt lat="47.41502" lon="6.75167">
        <ele>548.2</ele>
        <time>2017-10-01T08:58:23Z</time>
      </trkpt>
      <trkpt lat="47.41499" lon="6.75166">
        <ele>548.4</ele>
        <time>2017-10-01T08:58:24Z</time>
      </trkpt>
      <trkpt lat="47.41497" lon="6.75166">
        <ele>548.5</ele>
        <time>2017-10-01T08:58:25Z</time>
      </trkpt>
      <trkpt lat="47.41494" lon="6.75165">
        <ele>548.7</ele>
        <time>2017-10-01T08:58:27Z</time>
      </trkpt>
      <trkpt lat="47.41492" lon="6.75165">
        <ele>548.9</ele>
        <time>2017-10-01T08:58:28Z</time>
      </trkpt>
      <trkpt lat="47.41489" lon="6.75164">
        <ele>549.1</ele>
        <time>2017-10-01T08:58:30Z</time>
      </trkpt>
      <trkpt lat="47.41487" lon="6.75164">
        <ele>549.3</ele>
        <time>2017-10-01T08:58:31Z</time>
      </trkpt>
      <trkpt lat="47.41483" lon="6.75164">
        <ele>549.6</ele>
        <time>2017-10-01T08:58:33Z</time>
      </trkpt>
      <trkpt lat="47.41481" lon="6.75164">
        <ele>549.7</ele>
        <time>2017-10-01T08:58:34Z</time>
      </trkpt>
      <trkpt lat="47.41478" lon="6.75165">
        <ele>549.9</ele>
        <time>2017-10-01T08:58:36Z</time>
      </trkpt>
      <trkpt lat="47.41476" lon="6.75165">
        <ele>550.1</ele>
        <time>2017-10-01T08:58:37Z</time>
      </trkpt>
      <trkpt lat="47.41473" lon="6.75165">
        <ele>550.3</ele>
        <time>2017-10-01T08:58:39Z</time>
      </trkpt>
      <trkpt lat="47.41471" lon="6.75165">
        <ele>550.4</ele>
        <time>2017-10-01T08:58:40Z</time>
      </trkpt>
      <trkpt lat="47.41468" lon="6.75165">
        <ele>550.7</ele>
        <time>2017-10-01T08:58:42Z</time>
      </trkpt>
      <trkpt lat="47.41466" lon="6.75166">
        <ele>550.8</ele>
        <time>2017-10-01T08:58:43Z</time>
      </trkpt>
      <trkpt lat="47.41463" lon="6.75166">
        <ele>551.1</ele>
        <time>2017-10-01T08:58:45Z</time>
      </trkpt>
      <trkpt lat="47.41461" lon="6.75167">
        <ele>551.2</ele>
        <time>2017-10-01T08:58:46Z</time>
      </trkpt>
      <trkpt lat="47.41458" lon="6.75169">
        <ele>551.5</ele>
        <time>2017-10-01T08:58:48Z</time>
      </trkpt>
      <trkpt lat="47.41456" lon="6.75169">
        <ele>551.6</ele>
        <time>2017-10-01T08:58:49Z</time>
      </trkpt>
      <trkpt lat="47.41453" lon="6.75169">
        <ele>551.8</ele>
        <time>2017-10-01T08:58:50Z</time>
      </trkpt>
      <trkpt lat="47.41451" lon="6.75169">
        <ele>552</ele>
        <time>2017-10-01T08:58:51Z</time>
      </trkpt>
      <trkpt lat="47.41447" lon="6.75169">
        <ele>552.3</ele>
        <time>2017-10-01T08:58:53Z</time>
      </trkpt>
      <trkpt lat="47.41444" lon="6.7517">
        <ele>552.5</ele>
        <time>2017-10-01T08:58:54Z</time>
      </trkpt>
      <trkpt lat="47.4144" lon="6.75169">
        <ele>552.8</ele>
        <time>2017-10-01T08:58:56Z</time>
      </trkpt>
      <trkpt lat="47.41438" lon="6.75169">
        <ele>553</ele>
        <time>2017-10-01T08:58:57Z</time>
      </trkpt>
      <trkpt lat="47.41434" lon="6.75169">
        <ele>553.2</ele>
        <time>2017-10-01T08:58:59Z</time>
      </trkpt>
      <trkpt lat="47.41432" lon="6.75169">
        <ele>553.4</ele>
        <time>2017-10-01T08:59:00Z</time>
      </trkpt>
      <trkpt lat="47.41428" lon="6.75169">
        <ele>553.6</ele>
        <time>2017-10-01T08:59:02Z</time>
      </trkpt>
      <trkpt lat="47.41426" lon="6.75169">
        <ele>553.8</ele>
        <time>2017-10-01T08:59:03Z</time>
      </trkpt>
      <trkpt lat="47.41422" lon="6.7517">
        <ele>554.1</ele>
        <time>2017-10-01T08:59:05Z</time>
      </trkpt>
      <trkpt lat="47.4142" lon="6.7517">
        <ele>554.2</ele>
        <time>2017-10-01T08:59:06Z</time>
      </trkpt>
      <trkpt lat="47.41416" lon="6.7517">
        <ele>554.5</ele>
        <time>2017-10-01T08:59:08Z</time>
      </trkpt>
      <trkpt lat="47.41414" lon="6.7517">
        <ele>554.6</ele>
        <time>2017-10-01T08:59:09Z</time>
      </trkpt>
      <trkpt lat="47.41411" lon="6.75171">
        <ele>554.9</ele>
        <time>2017-10-01T08:59:11Z</time>
      </trkpt>
      <trkpt lat="47.41409" lon="6.75171">
        <ele>555</ele>
        <time>2017-10-01T08:59:12Z</time>
      </trkpt>
      <trkpt lat="47.41407" lon="6.75171">
        <ele>555.1</ele>
        <time>2017-10-01T08:59:13Z</time>
      </trkpt>
      <trkpt lat="47.41405" lon="6.75171">
        <ele>555.3</ele>
        <time>2017-10-01T08:59:14Z</time>
      </trkpt>
      <trkpt lat="47.41402" lon="6.75171">
        <ele>555.5</ele>
        <time>2017-10-01T08:59:15Z</time>
      </trkpt>
      <trkpt lat="47.414" lon="6.75171">
        <ele>555.6</ele>
        <time>2017-10-01T08:59:16Z</time>
      </trkpt>
      <trkpt lat="47.41396" lon="6.75171">
        <ele>555.9</ele>
        <time>2017-10-01T08:59:19Z</time>
      </trkpt>
      <trkpt lat="47.41394" lon="6.7517">
        <ele>556</ele>
        <time>2017-10-01T08:59:20Z</time>
      </trkpt>
      <trkpt lat="47.41389" lon="6.7517">
        <ele>556.3</ele>
        <time>2017-10-01T08:59:22Z</time>
      </trkpt>
      <trkpt lat="47.41388" lon="6.7517">
        <ele>556.4</ele>
        <time>2017-10-01T08:59:23Z</time>
      </trkpt>
      <trkpt lat="47.41384" lon="6.75172">
        <ele>556.7</ele>
        <time>2017-10-01T08:59:25Z</time>
      </trkpt>
      <trkpt lat="47.41383" lon="6.75172">
        <ele>556.8</ele>
        <time>2017-10-01T08:59:26Z</time>
      </trkpt>
      <trkpt lat="47.41379" lon="6.75173">
        <ele>557.1</ele>
        <time>2017-10-01T08:59:28Z</time>
      </trkpt>
      <trkpt lat="47.41377" lon="6.75173">
        <ele>557.2</ele>
        <time>2017-10-01T08:59:29Z</time>
      </trkpt>
      <trkpt lat="47.41373" lon="6.75174">
        <ele>557.4</ele>
        <time>2017-10-01T08:59:31Z</time>
      </trkpt>
      <trkpt lat="47.41371" lon="6.75175">
        <ele>557.5</ele>
        <time>2017-10-01T08:59:32Z</time>
      </trkpt>
      <trkpt lat="47.41368" lon="6.75178">
        <ele>557.8</ele>
        <time>2017-10-01T08:59:34Z</time>
      </trkpt>
      <trkpt lat="47.41366" lon="6.75178">
        <ele>557.9</ele>
        <time>2017-10-01T08:59:35Z</time>
      </trkpt>
      <trkpt lat="47.41362" lon="6.75178">
        <ele>558.1</ele>
        <time>2017-10-01T08:59:37Z</time>
      </trkpt>
      <trkpt lat="47.4136" lon="6.75178">
        <ele>558.3</ele>
        <time>2017-10-01T08:59:38Z</time>
      </trkpt>
      <trkpt lat="47.41356" lon="6.75178">
        <ele>558.5</ele>
        <time>2017-10-01T08:59:40Z</time>
      </trkpt>
      <trkpt lat="47.41354" lon="6.75179">
        <ele>558.6</ele>
        <time>2017-10-01T08:59:41Z</time>
      </trkpt>
      <trkpt lat="47.4135" lon="6.7518">
        <ele>558.8</ele>
        <time>2017-10-01T08:59:43Z</time>
      </trkpt>
      <trkpt lat="47.41349" lon="6.75179">
        <ele>558.9</ele>
        <time>2017-10-01T08:59:44Z</time>
      </trkpt>
      <trkpt lat="47.41345" lon="6.7518">
        <ele>559.1</ele>
        <time>2017-10-01T08:59:46Z</time>
      </trkpt>
      <trkpt lat="47.41343" lon="6.7518">
        <ele>559.3</ele>
        <time>2017-10-01T08:59:47Z</time>
      </trkpt>
      <trkpt lat="47.41339" lon="6.75179">
        <ele>559.5</ele>
        <time>2017-10-01T08:59:50Z</time>
      </trkpt>
      <trkpt lat="47.41337" lon="6.75179">
        <ele>559.6</ele>
        <time>2017-10-01T08:59:51Z</time>
      </trkpt>
      <trkpt lat="47.41334" lon="6.75179">
        <ele>559.8</ele>
        <time>2017-10-01T08:59:53Z</time>
      </trkpt>
      <trkpt lat="47.41332" lon="6.75178">
        <ele>559.9</ele>
        <time>2017-10-01T08:59:54Z</time>
      </trkpt>
      <trkpt lat="47.41328" lon="6.75178">
        <ele>560.2</ele>
        <time>2017-10-01T08:59:57Z</time>
      </trkpt>
      <trkpt lat="47.41327" lon="6.75178">
        <ele>560.3</ele>
        <time>2017-10-01T08:59:58Z</time>
      </trkpt>
      <trkpt lat="47.41323" lon="6.75176">
        <ele>560.5</ele>
        <time>2017-10-01T09:00:00Z</time>
      </trkpt>
      <trkpt lat="47.41322" lon="6.75177">
        <ele>560.6</ele>
        <time>2017-10-01T09:00:01Z</time>
      </trkpt>
      <trkpt lat="47.4132" lon="6.75178">
        <ele>560.7</ele>
        <time>2017-10-01T09:00:02Z</time>
      </trkpt>
      <trkpt lat="47.41317" lon="6.75179">
        <ele>560.9</ele>
        <time>2017-10-01T09:00:03Z</time>
      </trkpt>
      <trkpt lat="47.41314" lon="6.75181">
        <ele>561.1</ele>
        <time>2017-10-01T09:00:05Z</time>
      </trkpt>
      <trkpt lat="47.41312" lon="6.75181">
        <ele>561.2</ele>
        <time>2017-10-01T09:00:06Z</time>
      </trkpt>
      <trkpt lat="47.41309" lon="6.75181">
        <ele>561.4</ele>
        <time>2017-10-01T09:00:08Z</time>
      </trkpt>
      <trkpt lat="47.41307" lon="6.75181">
        <ele>561.5</ele>
        <time>2017-10-01T09:00:09Z</time>
      </trkpt>
      <trkpt lat="47.41303" lon="6.75182">
        <ele>561.7</ele>
        <time>2017-10-01T09:00:11Z</time>
      </trkpt>
      <trkpt lat="47.41301" lon="6.75182">
        <ele>561.8</ele>
        <time>2017-10-01T09:00:12Z</time>
      </trkpt>
      <trkpt lat="47.41298" lon="6.75183">
        <ele>561.9</ele>
        <time>2017-10-01T09:00:13Z</time>
      </trkpt>
      <trkpt lat="47.41295" lon="6.75184">
        <ele>562.1</ele>
        <time>2017-10-01T09:00:14Z</time>
      </trkpt>
      <trkpt lat="47.41293" lon="6.75185">
        <ele>562.1</ele>
        <time>2017-10-01T09:00:15Z</time>
      </trkpt>
      <trkpt lat="47.41291" lon="6.75185">
        <ele>562.2</ele>
        <time>2017-10-01T09:00:16Z</time>
      </trkpt>
      <trkpt lat="47.41289" lon="6.75186">
        <ele>562.3</ele>
        <time>2017-10-01T09:00:17Z</time>
      </trkpt>
      <trkpt lat="47.41286" lon="6.75187">
        <ele>562.3</ele>
        <time>2017-10-01T09:00:18Z</time>
      </trkpt>
      <trkpt lat="47.41282" lon="6.7519">
        <ele>562.4</ele>
        <time>2017-10-01T09:00:20Z</time>
      </trkpt>
      <trkpt lat="47.41281" lon="6.75191">
        <ele>562.5</ele>
        <time>2017-10-01T09:00:21Z</time>
      </trkpt>
      <trkpt lat="47.41278" lon="6.75193">
        <ele>562.5</ele>
        <time>2017-10-01T09:00:23Z</time>
      </trkpt>
      <trkpt lat="47.41276" lon="6.75192">
        <ele>562.6</ele>
        <time>2017-10-01T09:00:24Z</time>
      </trkpt>
      <trkpt lat="47.41272" lon="6.75189">
        <ele>562.7</ele>
        <time>2017-10-01T09:00:27Z</time>
      </trkpt>
      <trkpt lat="47.41271" lon="6.75188">
        <ele>562.7</ele>
        <time>2017-10-01T09:00:28Z</time>
      </trkpt>
      <trkpt lat="47.41269" lon="6.75182">
        <ele>562.6</ele>
        <time>2017-10-01T09:00:31Z</time>
      </trkpt>
      <trkpt lat="47.4127" lon="6.75179">
        <ele>562.5</ele>
        <time>2017-10-01T09:00:32Z</time>
      </trkpt>
      <trkpt lat="47.4127" lon="6.75174">
        <ele>562.5</ele>
        <time>2017-10-01T09:00:35Z</time>
      </trkpt>
      <trkpt lat="47.4127" lon="6.7517">
        <ele>562.4</ele>
        <time>2017-10-01T09:00:36Z</time>
      </trkpt>
      <trkpt lat="47.4127" lon="6.75165">
        <ele>562.3</ele>
        <time>2017-10-01T09:00:38Z</time>
      </trkpt>
      <trkpt lat="47.41271" lon="6.75162">
        <ele>562.3</ele>
        <time>2017-10-01T09:00:39Z</time>
      </trkpt>
      <trkpt lat="47.41272" lon="6.75158">
        <ele>562.1</ele>
        <time>2017-10-01T09:00:40Z</time>
      </trkpt>
      <trkpt lat="47.41272" lon="6.75155">
        <ele>562.1</ele>
        <time>2017-10-01T09:00:41Z</time>
      </trkpt>
      <trkpt lat="47.41273" lon="6.75151">
        <ele>562</ele>
        <time>2017-10-01T09:00:42Z</time>
      </trkpt>
      <trkpt lat="47.41273" lon="6.75147">
        <ele>562</ele>
        <time>2017-10-01T09:00:43Z</time>
      </trkpt>
      <trkpt lat="47.41273" lon="6.75142">
        <ele>561.9</ele>
        <time>2017-10-01T09:00:44Z</time>
      </trkpt>
      <trkpt lat="47.41273" lon="6.75136">
        <ele>561.8</ele>
        <time>2017-10-01T09:00:45Z</time>
      </trkpt>
      <trkpt lat="47.41272" lon="6.75131">
        <ele>561.8</ele>
        <time>2017-10-01T09:00:46Z</time>
      </trkpt>
      <trkpt lat="47.41272" lon="6.75126">
        <ele>561.7</ele>
        <time>2017-10-01T09:00:47Z</time>
      </trkpt>
      <trkpt lat="47.41271" lon="6.7512">
        <ele>561.7</ele>
        <time>2017-10-01T09:00:48Z</time>
      </trkpt>
      <trkpt lat="47.4127" lon="6.75113">
        <ele>561.4</ele>
        <time>2017-10-01T09:00:49Z</time>
      </trkpt>
      <trkpt lat="47.41269" lon="6.75107">
        <ele>561.1</ele>
        <time>2017-10-01T09:00:50Z</time>
      </trkpt>
      <trkpt lat="47.41267" lon="6.751">
        <ele>560.8</ele>
        <time>2017-10-01T09:00:51Z</time>
      </trkpt>
      <trkpt lat="47.41266" lon="6.75094">
        <ele>560.5</ele>
        <time>2017-10-01T09:00:52Z</time>
      </trkpt>
      <trkpt lat="47.41265" lon="6.75089">
        <ele>560.3</ele>
        <time>2017-10-01T09:00:53Z</time>
      </trkpt>
      <trkpt lat="47.41265" lon="6.75084">
        <ele>560.1</ele>
        <time>2017-10-01T09:00:54Z</time>
      </trkpt>
      <trkpt lat="47.41264" lon="6.75078">
        <ele>560</ele>
        <time>2017-10-01T09:00:55Z</time>
      </trkpt>
      <trkpt lat="47.41263" lon="6.75071">
        <ele>559.9</ele>
        <time>2017-10-01T09:00:56Z</time>
      </trkpt>
      <trkpt lat="47.41262" lon="6.75064">
        <ele>559.8</ele>
        <time>2017-10-01T09:00:57Z</time>
      </trkpt>
      <trkpt lat="47.41261" lon="6.75058">
        <ele>559.8</ele>
        <time>2017-10-01T09:00:58Z</time>
      </trkpt>
      <trkpt lat="47.4126" lon="6.75051">
        <ele>559.7</ele>
        <time>2017-10-01T09:00:59Z</time>
      </trkpt>
      <trkpt lat="47.41258" lon="6.75044">
        <ele>559.6</ele>
        <time>2017-10-01T09:01:00Z</time>
      </trkpt>
      <trkpt lat="47.41257" lon="6.75038">
        <ele>559.6</ele>
        <time>2017-10-01T09:01:01Z</time>
      </trkpt>
      <trkpt lat="47.41255" lon="6.75031">
        <ele>559.5</ele>
        <time>2017-10-01T09:01:02Z</time>
      </trkpt>
      <trkpt lat="47.41254" lon="6.75025">
        <ele>559.5</ele>
        <time>2017-10-01T09:01:03Z</time>
      </trkpt>
      <trkpt lat="47.41254" lon="6.75021">
        <ele>559.5</ele>
        <time>2017-10-01T09:01:04Z</time>
      </trkpt>
      <trkpt lat="47.41253" lon="6.75016">
        <ele>559.4</ele>
        <time>2017-10-01T09:01:05Z</time>
      </trkpt>
      <trkpt lat="47.41253" lon="6.75011">
        <ele>559.4</ele>
        <time>2017-10-01T09:01:06Z</time>
      </trkpt>
      <trkpt lat="47.41252" lon="6.75007">
        <ele>559.3</ele>
        <time>2017-10-01T09:01:07Z</time>
      </trkpt>
      <trkpt lat="47.41252" lon="6.75003">
        <ele>559.3</ele>
        <time>2017-10-01T09:01:08Z</time>
      </trkpt>
      <trkpt lat="47.41251" lon="6.74999">
        <ele>559.3</ele>
        <time>2017-10-01T09:01:09Z</time>
      </trkpt>
      <trkpt lat="47.4125" lon="6.74994">
        <ele>559.2</ele>
        <time>2017-10-01T09:01:10Z</time>
      </trkpt>
      <trkpt lat="47.41249" lon="6.74988">
        <ele>559.2</ele>
        <time>2017-10-01T09:01:11Z</time>
      </trkpt>
      <trkpt lat="47.41247" lon="6.74983">
        <ele>559.1</ele>
        <time>2017-10-01T09:01:12Z</time>
      </trkpt>
      <trkpt lat="47.41245" lon="6.74977">
        <ele>559</ele>
        <time>2017-10-01T09:01:13Z</time>
      </trkpt>
      <trkpt lat="47.41243" lon="6.74971">
        <ele>558.9</ele>
        <time>2017-10-01T09:01:14Z</time>
      </trkpt>
      <trkpt lat="47.4124" lon="6.74964">
        <ele>558.7</ele>
        <time>2017-10-01T09:01:15Z</time>
      </trkpt>
      <trkpt lat="47.41239" lon="6.74958">
        <ele>558.5</ele>
        <time>2017-10-01T09:01:16Z</time>
      </trkpt>
      <trkpt lat="47.41237" lon="6.74951">
        <ele>558.2</ele>
        <time>2017-10-01T09:01:17Z</time>
      </trkpt>
      <trkpt lat="47.41235" lon="6.74945">
        <ele>557.9</ele>
        <time>2017-10-01T09:01:18Z</time>
      </trkpt>
      <trkpt lat="47.41233" lon="6.74938">
        <ele>557.6</ele>
        <time>2017-10-01T09:01:19Z</time>
      </trkpt>
      <trkpt lat="47.41231" lon="6.74931">
        <ele>557.4</ele>
        <time>2017-10-01T09:01:20Z</time>
      </trkpt>
      <trkpt lat="47.4123" lon="6.74925">
        <ele>557.3</ele>
        <time>2017-10-01T09:01:21Z</time>
      </trkpt>
      <trkpt lat="47.41228" lon="6.74918">
        <ele>557.2</ele>
        <time>2017-10-01T09:01:22Z</time>
      </trkpt>
      <trkpt lat="47.41226" lon="6.74911">
        <ele>557.1</ele>
        <time>2017-10-01T09:01:23Z</time>
      </trkpt>
      <trkpt lat="47.41224" lon="6.74905">
        <ele>557</ele>
        <time>2017-10-01T09:01:24Z</time>
      </trkpt>
      <trkpt lat="47.41221" lon="6.749">
        <ele>557</ele>
        <time>2017-10-01T09:01:25Z</time>
      </trkpt>
      <trkpt lat="47.4122" lon="6.74894">
        <ele>556.9</ele>
        <time>2017-10-01T09:01:26Z</time>
      </trkpt>
      <trkpt lat="47.41217" lon="6.74887">
        <ele>556.8</ele>
        <time>2017-10-01T09:01:27Z</time>
      </trkpt>
      <trkpt lat="47.41216" lon="6.74881">
        <ele>556.8</ele>
        <time>2017-10-01T09:01:28Z</time>
      </trkpt>
      <trkpt lat="47.41215" lon="6.74876">
        <ele>556.7</ele>
        <time>2017-10-01T09:01:29Z</time>
      </trkpt>
      <trkpt lat="47.41213" lon="6.7487">
        <ele>556.7</ele>
        <time>2017-10-01T09:01:30Z</time>
      </trkpt>
      <trkpt lat="47.41211" lon="6.74864">
        <ele>556.6</ele>
        <time>2017-10-01T09:01:31Z</time>
      </trkpt>
      <trkpt lat="47.41208" lon="6.74858">
        <ele>556.5</ele>
        <time>2017-10-01T09:01:32Z</time>
      </trkpt>
      <trkpt lat="47.41205" lon="6.74852">
        <ele>556.5</ele>
        <time>2017-10-01T09:01:33Z</time>
      </trkpt>
      <trkpt lat="47.41203" lon="6.74847">
        <ele>556.4</ele>
        <time>2017-10-01T09:01:34Z</time>
      </trkpt>
      <trkpt lat="47.41201" lon="6.74842">
        <ele>556.4</ele>
        <time>2017-10-01T09:01:35Z</time>
      </trkpt>
      <trkpt lat="47.41198" lon="6.74837">
        <ele>556.3</ele>
        <time>2017-10-01T09:01:36Z</time>
      </trkpt>
      <trkpt lat="47.41196" lon="6.74832">
        <ele>556.2</ele>
        <time>2017-10-01T09:01:37Z</time>
      </trkpt>
      <trkpt lat="47.41194" lon="6.74827">
        <ele>556.1</ele>
        <time>2017-10-01T09:01:38Z</time>
      </trkpt>
      <trkpt lat="47.41191" lon="6.74823">
        <ele>556</ele>
        <time>2017-10-01T09:01:39Z</time>
      </trkpt>
      <trkpt lat="47.41189" lon="6.74819">
        <ele>556</ele>
        <time>2017-10-01T09:01:40Z</time>
      </trkpt>
      <trkpt lat="47.41186" lon="6.74815">
        <ele>555.7</ele>
        <time>2017-10-01T09:01:41Z</time>
      </trkpt>
      <trkpt lat="47.41184" lon="6.74809">
        <ele>555.4</ele>
        <time>2017-10-01T09:01:42Z</time>
      </trkpt>
      <trkpt lat="47.41181" lon="6.74804">
        <ele>555</ele>
        <time>2017-10-01T09:01:43Z</time>
      </trkpt>
      <trkpt lat="47.41178" lon="6.74798">
        <ele>554.6</ele>
        <time>2017-10-01T09:01:44Z</time>
      </trkpt>
      <trkpt lat="47.41174" lon="6.74792">
        <ele>554.5</ele>
        <time>2017-10-01T09:01:45Z</time>
      </trkpt>
      <trkpt lat="47.41171" lon="6.74787">
        <ele>554.3</ele>
        <time>2017-10-01T09:01:46Z</time>
      </trkpt>
      <trkpt lat="47.41167" lon="6.74779">
        <ele>554</ele>
        <time>2017-10-01T09:01:47Z</time>
      </trkpt>
      <trkpt lat="47.41162" lon="6.74771">
        <ele>553.7</ele>
        <time>2017-10-01T09:01:48Z</time>
      </trkpt>
      <trkpt lat="47.41159" lon="6.74765">
        <ele>553.2</ele>
        <time>2017-10-01T09:01:49Z</time>
      </trkpt>
      <trkpt lat="47.41157" lon="6.74759">
        <ele>552.7</ele>
        <time>2017-10-01T09:01:50Z</time>
      </trkpt>
      <trkpt lat="47.41154" lon="6.74752">
        <ele>552.1</ele>
        <time>2017-10-01T09:01:51Z</time>
      </trkpt>
      <trkpt lat="47.41151" lon="6.74743">
        <ele>551.4</ele>
        <time>2017-10-01T09:01:52Z</time>
      </trkpt>
      <trkpt lat="47.41149" lon="6.74734">
        <ele>550.7</ele>
        <time>2017-10-01T09:01:53Z</time>
      </trkpt>
      <trkpt lat="47.41148" lon="6.74724">
        <ele>550.2</ele>
        <time>2017-10-01T09:01:54Z</time>
      </trkpt>
      <trkpt lat="47.41148" lon="6.74715">
        <ele>549.8</ele>
        <time>2017-10-01T09:01:55Z</time>
      </trkpt>
      <trkpt lat="47.41148" lon="6.74709">
        <ele>549.7</ele>
        <time>2017-10-01T09:01:56Z</time>
      </trkpt>
      <trkpt lat="47.41151" lon="6.74705">
        <ele>549.6</ele>
        <time>2017-10-01T09:01:57Z</time>
      </trkpt>
      <trkpt lat="47.41154" lon="6.74703">
        <ele>549.5</ele>
        <time>2017-10-01T09:01:58Z</time>
      </trkpt>
      <trkpt lat="47.41158" lon="6.74701">
        <ele>549.4</ele>
        <time>2017-10-01T09:01:59Z</time>
      </trkpt>
      <trkpt lat="47.41161" lon="6.747">
        <ele>549.2</ele>
        <time>2017-10-01T09:02:00Z</time>
      </trkpt>
      <trkpt lat="47.41165" lon="6.747">
        <ele>549.1</ele>
        <time>2017-10-01T09:02:01Z</time>
      </trkpt>
      <trkpt lat="47.4117" lon="6.747">
        <ele>549</ele>
        <time>2017-10-01T09:02:02Z</time>
      </trkpt>
      <trkpt lat="47.41177" lon="6.747">
        <ele>548.8</ele>
        <time>2017-10-01T09:02:03Z</time>
      </trkpt>
      <trkpt lat="47.41183" lon="6.74701">
        <ele>546.7</ele>
        <time>2017-10-01T09:02:04Z</time>
      </trkpt>
      <trkpt lat="47.41189" lon="6.74702">
        <ele>544.9</ele>
        <time>2017-10-01T09:02:05Z</time>
      </trkpt>
      <trkpt lat="47.41194" lon="6.74704">
        <ele>543.7</ele>
        <time>2017-10-01T09:02:06Z</time>
      </trkpt>
      <trkpt lat="47.41201" lon="6.74705">
        <ele>541.8</ele>
        <time>2017-10-01T09:02:07Z</time>
      </trkpt>
      <trkpt lat="47.41206" lon="6.74705">
        <ele>540.7</ele>
        <time>2017-10-01T09:02:08Z</time>
      </trkpt>
      <trkpt lat="47.41212" lon="6.74702">
        <ele>539.7</ele>
        <time>2017-10-01T09:02:09Z</time>
      </trkpt>
      <trkpt lat="47.41221" lon="6.74698">
        <ele>538.5</ele>
        <time>2017-10-01T09:02:10Z</time>
      </trkpt>
      <trkpt lat="47.41228" lon="6.74694">
        <ele>538</ele>
        <time>2017-10-01T09:02:11Z</time>
      </trkpt>
      <trkpt lat="47.41234" lon="6.74691">
        <ele>537.1</ele>
        <time>2017-10-01T09:02:12Z</time>
      </trkpt>
      <trkpt lat="47.41241" lon="6.74687">
        <ele>536.1</ele>
        <time>2017-10-01T09:02:13Z</time>
      </trkpt>
      <trkpt lat="47.41247" lon="6.74682">
        <ele>535.2</ele>
        <time>2017-10-01T09:02:14Z</time>
      </trkpt>
      <trkpt lat="47.41255" lon="6.74676">
        <ele>534.5</ele>
        <time>2017-10-01T09:02:15Z</time>
      </trkpt>
      <trkpt lat="47.41263" lon="6.7467">
        <ele>533.7</ele>
        <time>2017-10-01T09:02:16Z</time>
      </trkpt>
      <trkpt lat="47.41272" lon="6.74667">
        <ele>532.8</ele>
        <time>2017-10-01T09:02:17Z</time>
      </trkpt>
      <trkpt lat="47.41279" lon="6.74665">
        <ele>532.2</ele>
        <time>2017-10-01T09:02:18Z</time>
      </trkpt>
      <trkpt lat="47.41284" lon="6.74664">
        <ele>532</ele>
        <time>2017-10-01T09:02:19Z</time>
      </trkpt>
      <trkpt lat="47.4129" lon="6.74663">
        <ele>531.4</ele>
        <time>2017-10-01T09:02:20Z</time>
      </trkpt>
      <trkpt lat="47.41296" lon="6.74661">
        <ele>530.3</ele>
        <time>2017-10-01T09:02:21Z</time>
      </trkpt>
      <trkpt lat="47.41303" lon="6.74658">
        <ele>529.9</ele>
        <time>2017-10-01T09:02:22Z</time>
      </trkpt>
      <trkpt lat="47.41311" lon="6.74657">
        <ele>529.1</ele>
        <time>2017-10-01T09:02:23Z</time>
      </trkpt>
      <trkpt lat="47.41317" lon="6.74656">
        <ele>528.5</ele>
        <time>2017-10-01T09:02:24Z</time>
      </trkpt>
      <trkpt lat="47.41322" lon="6.74653">
        <ele>527.9</ele>
        <time>2017-10-01T09:02:25Z</time>
      </trkpt>
      <trkpt lat="47.41326" lon="6.74651">
        <ele>527.5</ele>
        <time>2017-10-01T09:02:26Z</time>
      </trkpt>
      <trkpt lat="47.41329" lon="6.74649">
        <ele>527.3</ele>
        <time>2017-10-01T09:02:27Z</time>
      </trkpt>
      <trkpt lat="47.41333" lon="6.74647">
        <ele>526.8</ele>
        <time>2017-10-01T09:02:28Z</time>
      </trkpt>
      <trkpt lat="47.41338" lon="6.74644">
        <ele>526.1</ele>
        <time>2017-10-01T09:02:29Z</time>
      </trkpt>
      <trkpt lat="47.41342" lon="6.7464">
        <ele>525.9</ele>
        <time>2017-10-01T09:02:30Z</time>
      </trkpt>
      <trkpt lat="47.41347" lon="6.74637">
        <ele>525.2</ele>
        <time>2017-10-01T09:02:31Z</time>
      </trkpt>
      <trkpt lat="47.41353" lon="6.74635">
        <ele>524.1</ele>
        <time>2017-10-01T09:02:32Z</time>
      </trkpt>
      <trkpt lat="47.41361" lon="6.74633">
        <ele>523.2</ele>
        <time>2017-10-01T09:02:33Z</time>
      </trkpt>
      <trkpt lat="47.41369" lon="6.74632">
        <ele>522.1</ele>
        <time>2017-10-01T09:02:34Z</time>
      </trkpt>
      <trkpt lat="47.41378" lon="6.74631">
        <ele>521.2</ele>
        <time>2017-10-01T09:02:35Z</time>
      </trkpt>
      <trkpt lat="47.41388" lon="6.7463">
        <ele>520.7</ele>
        <time>2017-10-01T09:02:36Z</time>
      </trkpt>
      <trkpt lat="47.41399" lon="6.74629">
        <ele>520.5</ele>
        <time>2017-10-01T09:02:37Z</time>
      </trkpt>
      <trkpt lat="47.41412" lon="6.74628">
        <ele>520</ele>
        <time>2017-10-01T09:02:38Z</time>
      </trkpt>
      <trkpt lat="47.41425" lon="6.74627">
        <ele>519</ele>
        <time>2017-10-01T09:02:39Z</time>
      </trkpt>
      <trkpt lat="47.41439" lon="6.74626">
        <ele>517</ele>
        <time>2017-10-01T09:02:40Z</time>
      </trkpt>
      <trkpt lat="47.41452" lon="6.74625">
        <ele>515.2</ele>
        <time>2017-10-01T09:02:41Z</time>
      </trkpt>
      <trkpt lat="47.41462" lon="6.74625">
        <ele>513</ele>
        <time>2017-10-01T09:02:42Z</time>
      </trkpt>
      <trkpt lat="47.4147" lon="6.74625">
        <ele>511.9</ele>
        <time>2017-10-01T09:02:43Z</time>
      </trkpt>
      <trkpt lat="47.41477" lon="6.74624">
        <ele>510.2</ele>
        <time>2017-10-01T09:02:44Z</time>
      </trkpt>
      <trkpt lat="47.41483" lon="6.74622">
        <ele>508.9</ele>
        <time>2017-10-01T09:02:45Z</time>
      </trkpt>
      <trkpt lat="47.41489" lon="6.74618">
        <ele>507.7</ele>
        <time>2017-10-01T09:02:46Z</time>
      </trkpt>
      <trkpt lat="47.41498" lon="6.74613">
        <ele>505.8</ele>
        <time>2017-10-01T09:02:47Z</time>
      </trkpt>
      <trkpt lat="47.41507" lon="6.74608">
        <ele>503.9</ele>
        <time>2017-10-01T09:02:48Z</time>
      </trkpt>
      <trkpt lat="47.41515" lon="6.74605">
        <ele>501.9</ele>
        <time>2017-10-01T09:02:49Z</time>
      </trkpt>
      <trkpt lat="47.41522" lon="6.74599">
        <ele>500.9</ele>
        <time>2017-10-01T09:02:50Z</time>
      </trkpt>
      <trkpt lat="47.4153" lon="6.74594">
        <ele>499.4</ele>
        <time>2017-10-01T09:02:51Z</time>
      </trkpt>
      <trkpt lat="47.41536" lon="6.74589">
        <ele>498.7</ele>
        <time>2017-10-01T09:02:52Z</time>
      </trkpt>
      <trkpt lat="47.41541" lon="6.74586">
        <ele>497.9</ele>
        <time>2017-10-01T09:02:53Z</time>
      </trkpt>
      <trkpt lat="47.41546" lon="6.74584">
        <ele>497.6</ele>
        <time>2017-10-01T09:02:54Z</time>
      </trkpt>
      <trkpt lat="47.41553" lon="6.74581">
        <ele>497.4</ele>
        <time>2017-10-01T09:02:55Z</time>
      </trkpt>
      <trkpt lat="47.41559" lon="6.74575">
        <ele>497.4</ele>
        <time>2017-10-01T09:02:56Z</time>
      </trkpt>
      <trkpt lat="47.41563" lon="6.74566">
        <ele>497.3</ele>
        <time>2017-10-01T09:02:57Z</time>
      </trkpt>
      <trkpt lat="47.41566" lon="6.74554">
        <ele>497.3</ele>
        <time>2017-10-01T09:02:58Z</time>
      </trkpt>
      <trkpt lat="47.41567" lon="6.74545">
        <ele>497.5</ele>
        <time>2017-10-01T09:02:59Z</time>
      </trkpt>
      <trkpt lat="47.41569" lon="6.74536">
        <ele>497.4</ele>
        <time>2017-10-01T09:03:00Z</time>
      </trkpt>
      <trkpt lat="47.4157" lon="6.74527">
        <ele>497.4</ele>
        <time>2017-10-01T09:03:01Z</time>
      </trkpt>
      <trkpt lat="47.41571" lon="6.74517">
        <ele>496.6</ele>
        <time>2017-10-01T09:03:02Z</time>
      </trkpt>
      <trkpt lat="47.41572" lon="6.74509">
        <ele>496</ele>
        <time>2017-10-01T09:03:03Z</time>
      </trkpt>
      <trkpt lat="47.41572" lon="6.74499">
        <ele>495.5</ele>
        <time>2017-10-01T09:03:04Z</time>
      </trkpt>
      <trkpt lat="47.41571" lon="6.74489">
        <ele>495.1</ele>
        <time>2017-10-01T09:03:05Z</time>
      </trkpt>
      <trkpt lat="47.4157" lon="6.74483">
        <ele>494.8</ele>
        <time>2017-10-01T09:03:06Z</time>
      </trkpt>
      <trkpt lat="47.41568" lon="6.74475">
        <ele>494.7</ele>
        <time>2017-10-01T09:03:07Z</time>
      </trkpt>
      <trkpt lat="47.41568" lon="6.74466">
        <ele>494.2</ele>
        <time>2017-10-01T09:03:08Z</time>
      </trkpt>
      <trkpt lat="47.41567" lon="6.74459">
        <ele>493.4</ele>
        <time>2017-10-01T09:03:09Z</time>
      </trkpt>
      <trkpt lat="47.41567" lon="6.74453">
        <ele>492.6</ele>
        <time>2017-10-01T09:03:10Z</time>
      </trkpt>
      <trkpt lat="47.41566" lon="6.74446">
        <ele>492.1</ele>
        <time>2017-10-01T09:03:11Z</time>
      </trkpt>
      <trkpt lat="47.41563" lon="6.74438">
        <ele>491.6</ele>
        <time>2017-10-01T09:03:12Z</time>
      </trkpt>
      <trkpt lat="47.41561" lon="6.74433">
        <ele>491.4</ele>
        <time>2017-10-01T09:03:13Z</time>
      </trkpt>
      <trkpt lat="47.41561" lon="6.74429">
        <ele>491.3</ele>
        <time>2017-10-01T09:03:14Z</time>
      </trkpt>
      <trkpt lat="47.41561" lon="6.74418">
        <ele>490.9</ele>
        <time>2017-10-01T09:03:28Z</time>
      </trkpt>
      <trkpt lat="47.41562" lon="6.7441">
        <ele>490.3</ele>
        <time>2017-10-01T09:03:29Z</time>
      </trkpt>
      <trkpt lat="47.41564" lon="6.74395">
        <ele>489.2</ele>
        <time>2017-10-01T09:03:30Z</time>
      </trkpt>
      <trkpt lat="47.41562" lon="6.74381">
        <ele>488</ele>
        <time>2017-10-01T09:03:31Z</time>
      </trkpt>
      <trkpt lat="47.41561" lon="6.74371">
        <ele>487.2</ele>
        <time>2017-10-01T09:03:32Z</time>
      </trkpt>
      <trkpt lat="47.41558" lon="6.7436">
        <ele>486.5</ele>
        <time>2017-10-01T09:03:33Z</time>
      </trkpt>
      <trkpt lat="47.41556" lon="6.7435">
        <ele>485.5</ele>
        <time>2017-10-01T09:03:34Z</time>
      </trkpt>
      <trkpt lat="47.41554" lon="6.7434">
        <ele>484.6</ele>
        <time>2017-10-01T09:03:35Z</time>
      </trkpt>
      <trkpt lat="47.41552" lon="6.74333">
        <ele>484.1</ele>
        <time>2017-10-01T09:03:36Z</time>
      </trkpt>
      <trkpt lat="47.4155" lon="6.74323">
        <ele>483.4</ele>
        <time>2017-10-01T09:03:37Z</time>
      </trkpt>
      <trkpt lat="47.41547" lon="6.74314">
        <ele>482.6</ele>
        <time>2017-10-01T09:03:38Z</time>
      </trkpt>
      <trkpt lat="47.41545" lon="6.74305">
        <ele>481.9</ele>
        <time>2017-10-01T09:03:39Z</time>
      </trkpt>
      <trkpt lat="47.41544" lon="6.74294">
        <ele>480.5</ele>
        <time>2017-10-01T09:03:40Z</time>
      </trkpt>
      <trkpt lat="47.41543" lon="6.74286">
        <ele>479.5</ele>
        <time>2017-10-01T09:03:41Z</time>
      </trkpt>
      <trkpt lat="47.41542" lon="6.74277">
        <ele>479</ele>
        <time>2017-10-01T09:03:42Z</time>
      </trkpt>
      <trkpt lat="47.41542" lon="6.74269">
        <ele>478.6</ele>
        <time>2017-10-01T09:03:43Z</time>
      </trkpt>
      <trkpt lat="47.41541" lon="6.74261">
        <ele>477.9</ele>
        <time>2017-10-01T09:03:44Z</time>
      </trkpt>
      <trkpt lat="47.41541" lon="6.74251">
        <ele>477.6</ele>
        <time>2017-10-01T09:03:45Z</time>
      </trkpt>
      <trkpt lat="47.41542" lon="6.74243">
        <ele>477.7</ele>
        <time>2017-10-01T09:03:46Z</time>
      </trkpt>
      <trkpt lat="47.41546" lon="6.74234">
        <ele>477.8</ele>
        <time>2017-10-01T09:03:47Z</time>
      </trkpt>
      <trkpt lat="47.41548" lon="6.74226">
        <ele>477.9</ele>
        <time>2017-10-01T09:03:48Z</time>
      </trkpt>
      <trkpt lat="47.4155" lon="6.74216">
        <ele>478.1</ele>
        <time>2017-10-01T09:03:49Z</time>
      </trkpt>
      <trkpt lat="47.41552" lon="6.74207">
        <ele>478.2</ele>
        <time>2017-10-01T09:03:50Z</time>
      </trkpt>
      <trkpt lat="47.41554" lon="6.74196">
        <ele>478.3</ele>
        <time>2017-10-01T09:03:51Z</time>
      </trkpt>
      <trkpt lat="47.41555" lon="6.74188">
        <ele>478.5</ele>
        <time>2017-10-01T09:03:52Z</time>
      </trkpt>
      <trkpt lat="47.41557" lon="6.74179">
        <ele>478.8</ele>
        <time>2017-10-01T09:03:53Z</time>
      </trkpt>
      <trkpt lat="47.41558" lon="6.74169">
        <ele>479.3</ele>
        <time>2017-10-01T09:03:54Z</time>
      </trkpt>
      <trkpt lat="47.41558" lon="6.74159">
        <ele>479.6</ele>
        <time>2017-10-01T09:03:55Z</time>
      </trkpt>
      <trkpt lat="47.41558" lon="6.74148">
        <ele>480.5</ele>
        <time>2017-10-01T09:03:56Z</time>
      </trkpt>
      <trkpt lat="47.41559" lon="6.7414">
        <ele>481.1</ele>
        <time>2017-10-01T09:03:57Z</time>
      </trkpt>
      <trkpt lat="47.4156" lon="6.74134">
        <ele>481.5</ele>
        <time>2017-10-01T09:03:58Z</time>
      </trkpt>
      <trkpt lat="47.4156" lon="6.74129">
        <ele>481.5</ele>
        <time>2017-10-01T09:03:59Z</time>
      </trkpt>
      <trkpt lat="47.41563" lon="6.7413">
        <ele>481.5</ele>
        <time>2017-10-01T09:04:27Z</time>
      </trkpt>
      <trkpt lat="47.41565" lon="6.74131">
        <ele>480.8</ele>
        <time>2017-10-01T09:04:28Z</time>
      </trkpt>
      <trkpt lat="47.41574" lon="6.74136">
        <ele>480.1</ele>
        <time>2017-10-01T09:04:30Z</time>
      </trkpt>
      <trkpt lat="47.4158" lon="6.7413">
        <ele>479.9</ele>
        <time>2017-10-01T09:04:31Z</time>
      </trkpt>
      <trkpt lat="47.41586" lon="6.74123">
        <ele>479.7</ele>
        <time>2017-10-01T09:04:32Z</time>
      </trkpt>
      <trkpt lat="47.4159" lon="6.74114">
        <ele>479.2</ele>
        <time>2017-10-01T09:04:33Z</time>
      </trkpt>
      <trkpt lat="47.41594" lon="6.74104">
        <ele>479.2</ele>
        <time>2017-10-01T09:04:34Z</time>
      </trkpt>
      <trkpt lat="47.41599" lon="6.74093">
        <ele>479.5</ele>
        <time>2017-10-01T09:04:35Z</time>
      </trkpt>
      <trkpt lat="47.41604" lon="6.74085">
        <ele>479.6</ele>
        <time>2017-10-01T09:04:36Z</time>
      </trkpt>
      <trkpt lat="47.41609" lon="6.7408">
        <ele>479.5</ele>
        <time>2017-10-01T09:04:37Z</time>
      </trkpt>
      <trkpt lat="47.41614" lon="6.74076">
        <ele>479.3</ele>
        <time>2017-10-01T09:04:38Z</time>
      </trkpt>
      <trkpt lat="47.4162" lon="6.7407">
        <ele>478.9</ele>
        <time>2017-10-01T09:04:39Z</time>
      </trkpt>
      <trkpt lat="47.41625" lon="6.74064">
        <ele>478.6</ele>
        <time>2017-10-01T09:04:40Z</time>
      </trkpt>
      <trkpt lat="47.41627" lon="6.74057">
        <ele>478.2</ele>
        <time>2017-10-01T09:04:41Z</time>
      </trkpt>
      <trkpt lat="47.41631" lon="6.74051">
        <ele>477.9</ele>
        <time>2017-10-01T09:04:42Z</time>
      </trkpt>
      <trkpt lat="47.41634" lon="6.74046">
        <ele>477.5</ele>
        <time>2017-10-01T09:04:43Z</time>
      </trkpt>
      <trkpt lat="47.41637" lon="6.74042">
        <ele>477</ele>
        <time>2017-10-01T09:04:44Z</time>
      </trkpt>
      <trkpt lat="47.41639" lon="6.74038">
        <ele>476.6</ele>
        <time>2017-10-01T09:04:45Z</time>
      </trkpt>
      <trkpt lat="47.41642" lon="6.74034">
        <ele>476.2</ele>
        <time>2017-10-01T09:04:46Z</time>
      </trkpt>
      <trkpt lat="47.41645" lon="6.74028">
        <ele>476</ele>
        <time>2017-10-01T09:04:47Z</time>
      </trkpt>
      <trkpt lat="47.41647" lon="6.74022">
        <ele>475.3</ele>
        <time>2017-10-01T09:04:48Z</time>
      </trkpt>
      <trkpt lat="47.41649" lon="6.74016">
        <ele>475.3</ele>
        <time>2017-10-01T09:04:49Z</time>
      </trkpt>
      <trkpt lat="47.41651" lon="6.74009">
        <ele>475</ele>
        <time>2017-10-01T09:04:50Z</time>
      </trkpt>
      <trkpt lat="47.41653" lon="6.74002">
        <ele>474.8</ele>
        <time>2017-10-01T09:04:51Z</time>
      </trkpt>
      <trkpt lat="47.41657" lon="6.73995">
        <ele>474.9</ele>
        <time>2017-10-01T09:04:52Z</time>
      </trkpt>
      <trkpt lat="47.4166" lon="6.73986">
        <ele>474.6</ele>
        <time>2017-10-01T09:04:53Z</time>
      </trkpt>
      <trkpt lat="47.41661" lon="6.73978">
        <ele>474</ele>
        <time>2017-10-01T09:04:54Z</time>
      </trkpt>
      <trkpt lat="47.41663" lon="6.73971">
        <ele>474</ele>
        <time>2017-10-01T09:04:55Z</time>
      </trkpt>
      <trkpt lat="47.41662" lon="6.73964">
        <ele>473.5</ele>
        <time>2017-10-01T09:04:56Z</time>
      </trkpt>
      <trkpt lat="47.41661" lon="6.73957">
        <ele>473.4</ele>
        <time>2017-10-01T09:04:57Z</time>
      </trkpt>
      <trkpt lat="47.41662" lon="6.7395">
        <ele>473.3</ele>
        <time>2017-10-01T09:04:58Z</time>
      </trkpt>
      <trkpt lat="47.41663" lon="6.73942">
        <ele>473.2</ele>
        <time>2017-10-01T09:04:59Z</time>
      </trkpt>
      <trkpt lat="47.41665" lon="6.73936">
        <ele>473.1</ele>
        <time>2017-10-01T09:05:00Z</time>
      </trkpt>
      <trkpt lat="47.41665" lon="6.7393">
        <ele>472.9</ele>
        <time>2017-10-01T09:05:01Z</time>
      </trkpt>
      <trkpt lat="47.41664" lon="6.73923">
        <ele>472.5</ele>
        <time>2017-10-01T09:05:02Z</time>
      </trkpt>
      <trkpt lat="47.41665" lon="6.73916">
        <ele>472.3</ele>
        <time>2017-10-01T09:05:03Z</time>
      </trkpt>
      <trkpt lat="47.41666" lon="6.73909">
        <ele>472.2</ele>
        <time>2017-10-01T09:05:04Z</time>
      </trkpt>
      <trkpt lat="47.41667" lon="6.73902">
        <ele>471.9</ele>
        <time>2017-10-01T09:05:05Z</time>
      </trkpt>
      <trkpt lat="47.41668" lon="6.73894">
        <ele>471.6</ele>
        <time>2017-10-01T09:05:06Z</time>
      </trkpt>
      <trkpt lat="47.41669" lon="6.73885">
        <ele>471.2</ele>
        <time>2017-10-01T09:05:07Z</time>
      </trkpt>
      <trkpt lat="47.41671" lon="6.73875">
        <ele>470.7</ele>
        <time>2017-10-01T09:05:08Z</time>
      </trkpt>
      <trkpt lat="47.41673" lon="6.73864">
        <ele>470.3</ele>
        <time>2017-10-01T09:05:09Z</time>
      </trkpt>
      <trkpt lat="47.41674" lon="6.73852">
        <ele>470.2</ele>
        <time>2017-10-01T09:05:10Z</time>
      </trkpt>
      <trkpt lat="47.41676" lon="6.73842">
        <ele>470.1</ele>
        <time>2017-10-01T09:05:11Z</time>
      </trkpt>
      <trkpt lat="47.41677" lon="6.73832">
        <ele>470</ele>
        <time>2017-10-01T09:05:12Z</time>
      </trkpt>
      <trkpt lat="47.41679" lon="6.73824">
        <ele>469.8</ele>
        <time>2017-10-01T09:05:13Z</time>
      </trkpt>
      <trkpt lat="47.41682" lon="6.73817">
        <ele>469.5</ele>
        <time>2017-10-01T09:05:14Z</time>
      </trkpt>
      <trkpt lat="47.41686" lon="6.73808">
        <ele>469.2</ele>
        <time>2017-10-01T09:05:15Z</time>
      </trkpt>
      <trkpt lat="47.41689" lon="6.73801">
        <ele>468.9</ele>
        <time>2017-10-01T09:05:16Z</time>
      </trkpt>
      <trkpt lat="47.41692" lon="6.73793">
        <ele>468.8</ele>
        <time>2017-10-01T09:05:17Z</time>
      </trkpt>
      <trkpt lat="47.41695" lon="6.73789">
        <ele>468.8</ele>
        <time>2017-10-01T09:05:18Z</time>
      </trkpt>
      <trkpt lat="47.41696" lon="6.73784">
        <ele>468.6</ele>
        <time>2017-10-01T09:05:19Z</time>
      </trkpt>
      <trkpt lat="47.41699" lon="6.73777">
        <ele>468.5</ele>
        <time>2017-10-01T09:05:20Z</time>
      </trkpt>
      <trkpt lat="47.41701" lon="6.73766">
        <ele>468.3</ele>
        <time>2017-10-01T09:05:21Z</time>
      </trkpt>
      <trkpt lat="47.41703" lon="6.73758">
        <ele>468</ele>
        <time>2017-10-01T09:05:22Z</time>
      </trkpt>
      <trkpt lat="47.41705" lon="6.73751">
        <ele>467.9</ele>
        <time>2017-10-01T09:05:23Z</time>
      </trkpt>
      <trkpt lat="47.41707" lon="6.73744">
        <ele>467.6</ele>
        <time>2017-10-01T09:05:24Z</time>
      </trkpt>
      <trkpt lat="47.41709" lon="6.73737">
        <ele>467.4</ele>
        <time>2017-10-01T09:05:25Z</time>
      </trkpt>
      <trkpt lat="47.41712" lon="6.73729">
        <ele>467.1</ele>
        <time>2017-10-01T09:05:26Z</time>
      </trkpt>
      <trkpt lat="47.41715" lon="6.73724">
        <ele>466.8</ele>
        <time>2017-10-01T09:05:27Z</time>
      </trkpt>
      <trkpt lat="47.41719" lon="6.73718">
        <ele>466.3</ele>
        <time>2017-10-01T09:05:28Z</time>
      </trkpt>
      <trkpt lat="47.41721" lon="6.73713">
        <ele>465.9</ele>
        <time>2017-10-01T09:05:29Z</time>
      </trkpt>
      <trkpt lat="47.41723" lon="6.7371">
        <ele>465.5</ele>
        <time>2017-10-01T09:05:30Z</time>
      </trkpt>
      <trkpt lat="47.41725" lon="6.73706">
        <ele>465.3</ele>
        <time>2017-10-01T09:05:31Z</time>
      </trkpt>
      <trkpt lat="47.41727" lon="6.73703">
        <ele>465.2</ele>
        <time>2017-10-01T09:05:32Z</time>
      </trkpt>
      <trkpt lat="47.4173" lon="6.73701">
        <ele>464.9</ele>
        <time>2017-10-01T09:05:33Z</time>
      </trkpt>
      <trkpt lat="47.41732" lon="6.73699">
        <ele>464.8</ele>
        <time>2017-10-01T09:05:34Z</time>
      </trkpt>
      <trkpt lat="47.41735" lon="6.73696">
        <ele>464.6</ele>
        <time>2017-10-01T09:05:44Z</time>
      </trkpt>
      <trkpt lat="47.41739" lon="6.73693">
        <ele>464.4</ele>
        <time>2017-10-01T09:05:45Z</time>
      </trkpt>
      <trkpt lat="47.41746" lon="6.73686">
        <ele>464.2</ele>
        <time>2017-10-01T09:05:46Z</time>
      </trkpt>
      <trkpt lat="47.41749" lon="6.73683">
        <ele>464.2</ele>
        <time>2017-10-01T09:05:47Z</time>
      </trkpt>
      <trkpt lat="47.41751" lon="6.73682">
        <ele>464.2</ele>
        <time>2017-10-01T09:05:48Z</time>
      </trkpt>
      <trkpt lat="47.41753" lon="6.73681">
        <ele>464</ele>
        <time>2017-10-01T09:05:49Z</time>
      </trkpt>
      <trkpt lat="47.41755" lon="6.73679">
        <ele>463.8</ele>
        <time>2017-10-01T09:05:50Z</time>
      </trkpt>
      <trkpt lat="47.41757" lon="6.73677">
        <ele>463.8</ele>
        <time>2017-10-01T09:05:51Z</time>
      </trkpt>
      <trkpt lat="47.4176" lon="6.73674">
        <ele>463.6</ele>
        <time>2017-10-01T09:05:52Z</time>
      </trkpt>
      <trkpt lat="47.41762" lon="6.73671">
        <ele>463.4</ele>
        <time>2017-10-01T09:05:53Z</time>
      </trkpt>
      <trkpt lat="47.41766" lon="6.73668">
        <ele>462.9</ele>
        <time>2017-10-01T09:05:55Z</time>
      </trkpt>
      <trkpt lat="47.41767" lon="6.73667">
        <ele>462.6</ele>
        <time>2017-10-01T09:05:56Z</time>
      </trkpt>
      <trkpt lat="47.41771" lon="6.73663">
        <ele>462.5</ele>
        <time>2017-10-01T09:08:04Z</time>
      </trkpt>
      <trkpt lat="47.41775" lon="6.73659">
        <ele>461.7</ele>
        <time>2017-10-01T09:08:05Z</time>
      </trkpt>
      <trkpt lat="47.41779" lon="6.73656">
        <ele>461.8</ele>
        <time>2017-10-01T09:09:46Z</time>
      </trkpt>
      <trkpt lat="47.41783" lon="6.73652">
        <ele>462.1</ele>
        <time>2017-10-01T09:09:47Z</time>
      </trkpt>
      <trkpt lat="47.41787" lon="6.73648">
        <ele>461.8</ele>
        <time>2017-10-01T09:09:48Z</time>
      </trkpt>
      <trkpt lat="47.41792" lon="6.73649">
        <ele>461.4</ele>
        <time>2017-10-01T09:09:49Z</time>
      </trkpt>
      <trkpt lat="47.41797" lon="6.73647">
        <ele>460.5</ele>
        <time>2017-10-01T09:09:50Z</time>
      </trkpt>
      <trkpt lat="47.41799" lon="6.73645">
        <ele>460.5</ele>
        <time>2017-10-01T09:09:51Z</time>
      </trkpt>
      <trkpt lat="47.41803" lon="6.73642">
        <ele>460.2</ele>
        <time>2017-10-01T09:09:52Z</time>
      </trkpt>
      <trkpt lat="47.41804" lon="6.7364">
        <ele>460.6</ele>
        <time>2017-10-01T09:09:53Z</time>
      </trkpt>
      <trkpt lat="47.41809" lon="6.73638">
        <ele>460.1</ele>
        <time>2017-10-01T09:09:54Z</time>
      </trkpt>
      <trkpt lat="47.41814" lon="6.73637">
        <ele>460.1</ele>
        <time>2017-10-01T09:09:55Z</time>
      </trkpt>
      <trkpt lat="47.41819" lon="6.73635">
        <ele>459.8</ele>
        <time>2017-10-01T09:09:56Z</time>
      </trkpt>
      <trkpt lat="47.41824" lon="6.73632">
        <ele>460.1</ele>
        <time>2017-10-01T09:09:57Z</time>
      </trkpt>
      <trkpt lat="47.41829" lon="6.73629">
        <ele>460.5</ele>
        <time>2017-10-01T09:09:58Z</time>
      </trkpt>
      <trkpt lat="47.4183" lon="6.73625">
        <ele>460.5</ele>
        <time>2017-10-01T09:10:02Z</time>
      </trkpt>
      <trkpt lat="47.41832" lon="6.73625">
        <ele>460.9</ele>
        <time>2017-10-01T09:10:03Z</time>
      </trkpt>
      <trkpt lat="47.41834" lon="6.73624">
        <ele>460.8</ele>
        <time>2017-10-01T09:10:04Z</time>
      </trkpt>
      <trkpt lat="47.4184" lon="6.73623">
        <ele>460.5</ele>
        <time>2017-10-01T09:10:05Z</time>
      </trkpt>
      <trkpt lat="47.41845" lon="6.73624">
        <ele>459.9</ele>
        <time>2017-10-01T09:10:06Z</time>
      </trkpt>
      <trkpt lat="47.41851" lon="6.73624">
        <ele>459.6</ele>
        <time>2017-10-01T09:10:07Z</time>
      </trkpt>
      <trkpt lat="47.41854" lon="6.73621">
        <ele>459</ele>
        <time>2017-10-01T09:10:08Z</time>
      </trkpt>
      <trkpt lat="47.41857" lon="6.73619">
        <ele>459</ele>
        <time>2017-10-01T09:10:09Z</time>
      </trkpt>
      <trkpt lat="47.4186" lon="6.73617">
        <ele>458.7</ele>
        <time>2017-10-01T09:10:10Z</time>
      </trkpt>
      <trkpt lat="47.41863" lon="6.73615">
        <ele>458.8</ele>
        <time>2017-10-01T09:10:11Z</time>
      </trkpt>
      <trkpt lat="47.41867" lon="6.73612">
        <ele>458.5</ele>
        <time>2017-10-01T09:10:12Z</time>
      </trkpt>
      <trkpt lat="47.41871" lon="6.7361">
        <ele>458.6</ele>
        <time>2017-10-01T09:10:13Z</time>
      </trkpt>
      <trkpt lat="47.41874" lon="6.73608">
        <ele>458.2</ele>
        <time>2017-10-01T09:10:14Z</time>
      </trkpt>
      <trkpt lat="47.41877" lon="6.73607">
        <ele>458</ele>
        <time>2017-10-01T09:10:15Z</time>
      </trkpt>
      <trkpt lat="47.41881" lon="6.73607">
        <ele>457.6</ele>
        <time>2017-10-01T09:10:16Z</time>
      </trkpt>
      <trkpt lat="47.41884" lon="6.73606">
        <ele>457.3</ele>
        <time>2017-10-01T09:10:17Z</time>
      </trkpt>
      <trkpt lat="47.41888" lon="6.73606">
        <ele>457</ele>
        <time>2017-10-01T09:10:18Z</time>
      </trkpt>
      <trkpt lat="47.41891" lon="6.73605">
        <ele>456.8</ele>
        <time>2017-10-01T09:10:19Z</time>
      </trkpt>
      <trkpt lat="47.41894" lon="6.73604">
        <ele>456.7</ele>
        <time>2017-10-01T09:10:20Z</time>
      </trkpt>
      <trkpt lat="47.41898" lon="6.73603">
        <ele>456.9</ele>
        <time>2017-10-01T09:10:21Z</time>
      </trkpt>
      <trkpt lat="47.41902" lon="6.73602">
        <ele>456.7</ele>
        <time>2017-10-01T09:10:22Z</time>
      </trkpt>
      <trkpt lat="47.41905" lon="6.736">
        <ele>456.7</ele>
        <time>2017-10-01T09:10:23Z</time>
      </trkpt>
      <trkpt lat="47.41908" lon="6.73599">
        <ele>457.2</ele>
        <time>2017-10-01T09:10:24Z</time>
      </trkpt>
      <trkpt lat="47.41912" lon="6.73596">
        <ele>457.2</ele>
        <time>2017-10-01T09:10:25Z</time>
      </trkpt>
      <trkpt lat="47.41916" lon="6.73595">
        <ele>457.2</ele>
        <time>2017-10-01T09:10:26Z</time>
      </trkpt>
      <trkpt lat="47.4192" lon="6.73595">
        <ele>458</ele>
        <time>2017-10-01T09:10:27Z</time>
      </trkpt>
      <trkpt lat="47.41926" lon="6.73594">
        <ele>457.9</ele>
        <time>2017-10-01T09:10:28Z</time>
      </trkpt>
      <trkpt lat="47.41929" lon="6.73594">
        <ele>457.9</ele>
        <time>2017-10-01T09:10:29Z</time>
      </trkpt>
      <trkpt lat="47.41934" lon="6.73596">
        <ele>457</ele>
        <time>2017-10-01T09:10:30Z</time>
      </trkpt>
      <trkpt lat="47.41939" lon="6.73598">
        <ele>456.9</ele>
        <time>2017-10-01T09:10:31Z</time>
      </trkpt>
      <trkpt lat="47.41944" lon="6.736">
        <ele>455.9</ele>
        <time>2017-10-01T09:10:32Z</time>
      </trkpt>
      <trkpt lat="47.41949" lon="6.73602">
        <ele>455.8</ele>
        <time>2017-10-01T09:10:33Z</time>
      </trkpt>
      <trkpt lat="47.41953" lon="6.73603">
        <ele>455.5</ele>
        <time>2017-10-01T09:10:34Z</time>
      </trkpt>
      <trkpt lat="47.41959" lon="6.73603">
        <ele>455.1</ele>
        <time>2017-10-01T09:10:35Z</time>
      </trkpt>
      <trkpt lat="47.41963" lon="6.73603">
        <ele>454.9</ele>
        <time>2017-10-01T09:10:36Z</time>
      </trkpt>
      <trkpt lat="47.41969" lon="6.73602">
        <ele>454.4</ele>
        <time>2017-10-01T09:10:37Z</time>
      </trkpt>
      <trkpt lat="47.41974" lon="6.73603">
        <ele>453.9</ele>
        <time>2017-10-01T09:10:38Z</time>
      </trkpt>
      <trkpt lat="47.4198" lon="6.73604">
        <ele>452.5</ele>
        <time>2017-10-01T09:10:39Z</time>
      </trkpt>
      <trkpt lat="47.41986" lon="6.73606">
        <ele>451.9</ele>
        <time>2017-10-01T09:10:40Z</time>
      </trkpt>
      <trkpt lat="47.41991" lon="6.73606">
        <ele>451.3</ele>
        <time>2017-10-01T09:10:41Z</time>
      </trkpt>
      <trkpt lat="47.41997" lon="6.73607">
        <ele>450.8</ele>
        <time>2017-10-01T09:10:42Z</time>
      </trkpt>
      <trkpt lat="47.42002" lon="6.73607">
        <ele>450.2</ele>
        <time>2017-10-01T09:10:43Z</time>
      </trkpt>
      <trkpt lat="47.42006" lon="6.73607">
        <ele>449.9</ele>
        <time>2017-10-01T09:10:44Z</time>
      </trkpt>
      <trkpt lat="47.4201" lon="6.73608">
        <ele>448.6</ele>
        <time>2017-10-01T09:10:45Z</time>
      </trkpt>
      <trkpt lat="47.42016" lon="6.73609">
        <ele>448.4</ele>
        <time>2017-10-01T09:10:46Z</time>
      </trkpt>
      <trkpt lat="47.42022" lon="6.73609">
        <ele>448.4</ele>
        <time>2017-10-01T09:10:47Z</time>
      </trkpt>
      <trkpt lat="47.42027" lon="6.73612">
        <ele>448.5</ele>
        <time>2017-10-01T09:10:48Z</time>
      </trkpt>
      <trkpt lat="47.42032" lon="6.73613">
        <ele>448.2</ele>
        <time>2017-10-01T09:10:49Z</time>
      </trkpt>
      <trkpt lat="47.42038" lon="6.73615">
        <ele>448.9</ele>
        <time>2017-10-01T09:10:50Z</time>
      </trkpt>
      <trkpt lat="47.42046" lon="6.73618">
        <ele>449.4</ele>
        <time>2017-10-01T09:10:51Z</time>
      </trkpt>
      <trkpt lat="47.4205" lon="6.73621">
        <ele>449.1</ele>
        <time>2017-10-01T09:10:52Z</time>
      </trkpt>
      <trkpt lat="47.42054" lon="6.73629">
        <ele>448.7</ele>
        <time>2017-10-01T09:10:53Z</time>
      </trkpt>
      <trkpt lat="47.42057" lon="6.73632">
        <ele>448.6</ele>
        <time>2017-10-01T09:10:54Z</time>
      </trkpt>
      <trkpt lat="47.42062" lon="6.73635">
        <ele>448.2</ele>
        <time>2017-10-01T09:10:55Z</time>
      </trkpt>
      <trkpt lat="47.42067" lon="6.73638">
        <ele>448.6</ele>
        <time>2017-10-01T09:10:56Z</time>
      </trkpt>
      <trkpt lat="47.42073" lon="6.73642">
        <ele>447.7</ele>
        <time>2017-10-01T09:10:57Z</time>
      </trkpt>
      <trkpt lat="47.42076" lon="6.73644">
        <ele>447.9</ele>
        <time>2017-10-01T09:10:58Z</time>
      </trkpt>
      <trkpt lat="47.42081" lon="6.73648">
        <ele>447.4</ele>
        <time>2017-10-01T09:10:59Z</time>
      </trkpt>
      <trkpt lat="47.42086" lon="6.73652">
        <ele>446.8</ele>
        <time>2017-10-01T09:11:00Z</time>
      </trkpt>
      <trkpt lat="47.42092" lon="6.73652">
        <ele>447</ele>
        <time>2017-10-01T09:11:01Z</time>
      </trkpt>
      <trkpt lat="47.42095" lon="6.73656">
        <ele>446.4</ele>
        <time>2017-10-01T09:11:02Z</time>
      </trkpt>
      <trkpt lat="47.42097" lon="6.73658">
        <ele>446.4</ele>
        <time>2017-10-01T09:11:03Z</time>
      </trkpt>
      <trkpt lat="47.421" lon="6.7366">
        <ele>445.8</ele>
        <time>2017-10-01T09:11:04Z</time>
      </trkpt>
      <trkpt lat="47.42103" lon="6.73661">
        <ele>446</ele>
        <time>2017-10-01T09:11:05Z</time>
      </trkpt>
      <trkpt lat="47.42106" lon="6.73662">
        <ele>446.1</ele>
        <time>2017-10-01T09:11:06Z</time>
      </trkpt>
      <trkpt lat="47.42108" lon="6.73663">
        <ele>446.2</ele>
        <time>2017-10-01T09:11:07Z</time>
      </trkpt>
      <trkpt lat="47.42111" lon="6.73665">
        <ele>445.5</ele>
        <time>2017-10-01T09:11:08Z</time>
      </trkpt>
      <trkpt lat="47.42115" lon="6.73666">
        <ele>445.5</ele>
        <time>2017-10-01T09:11:09Z</time>
      </trkpt>
      <trkpt lat="47.42117" lon="6.73666">
        <ele>445.5</ele>
        <time>2017-10-01T09:11:10Z</time>
      </trkpt>
      <trkpt lat="47.42121" lon="6.73666">
        <ele>445.5</ele>
        <time>2017-10-01T09:11:11Z</time>
      </trkpt>
      <trkpt lat="47.42125" lon="6.73667">
        <ele>445.2</ele>
        <time>2017-10-01T09:11:12Z</time>
      </trkpt>
      <trkpt lat="47.42132" lon="6.73668">
        <ele>444.3</ele>
        <time>2017-10-01T09:11:13Z</time>
      </trkpt>
      <trkpt lat="47.42136" lon="6.73666">
        <ele>444.7</ele>
        <time>2017-10-01T09:11:14Z</time>
      </trkpt>
      <trkpt lat="47.4214" lon="6.73661">
        <ele>445.4</ele>
        <time>2017-10-01T09:11:15Z</time>
      </trkpt>
      <trkpt lat="47.42143" lon="6.73659">
        <ele>446.3</ele>
        <time>2017-10-01T09:11:16Z</time>
      </trkpt>
      <trkpt lat="47.42148" lon="6.73654">
        <ele>447.2</ele>
        <time>2017-10-01T09:11:17Z</time>
      </trkpt>
      <trkpt lat="47.42152" lon="6.73652">
        <ele>447</ele>
        <time>2017-10-01T09:11:18Z</time>
      </trkpt>
      <trkpt lat="47.42155" lon="6.73649">
        <ele>447.9</ele>
        <time>2017-10-01T09:11:19Z</time>
      </trkpt>
      <trkpt lat="47.4216" lon="6.73646">
        <ele>448.3</ele>
        <time>2017-10-01T09:11:20Z</time>
      </trkpt>
      <trkpt lat="47.42164" lon="6.73641">
        <ele>448.7</ele>
        <time>2017-10-01T09:11:21Z</time>
      </trkpt>
      <trkpt lat="47.42171" lon="6.73634">
        <ele>448.3</ele>
        <time>2017-10-01T09:11:22Z</time>
      </trkpt>
      <trkpt lat="47.42177" lon="6.7363">
        <ele>448.5</ele>
        <time>2017-10-01T09:11:23Z</time>
      </trkpt>
      <trkpt lat="47.42183" lon="6.73626">
        <ele>448.9</ele>
        <time>2017-10-01T09:11:24Z</time>
      </trkpt>
      <trkpt lat="47.42186" lon="6.73623">
        <ele>449.6</ele>
        <time>2017-10-01T09:11:25Z</time>
      </trkpt>
      <trkpt lat="47.42189" lon="6.73621">
        <ele>449.6</ele>
        <time>2017-10-01T09:11:26Z</time>
      </trkpt>
      <trkpt lat="47.42194" lon="6.73619">
        <ele>450.3</ele>
        <time>2017-10-01T09:11:27Z</time>
      </trkpt>
      <trkpt lat="47.42197" lon="6.73622">
        <ele>449.6</ele>
        <time>2017-10-01T09:11:28Z</time>
      </trkpt>
      <trkpt lat="47.42198" lon="6.73627">
        <ele>449</ele>
        <time>2017-10-01T09:11:29Z</time>
      </trkpt>
      <trkpt lat="47.42197" lon="6.73632">
        <ele>448.4</ele>
        <time>2017-10-01T09:11:30Z</time>
      </trkpt>
      <trkpt lat="47.42196" lon="6.73638">
        <ele>447.7</ele>
        <time>2017-10-01T09:11:31Z</time>
      </trkpt>
      <trkpt lat="47.42196" lon="6.73644">
        <ele>447</ele>
        <time>2017-10-01T09:11:32Z</time>
      </trkpt>
      <trkpt lat="47.42195" lon="6.73649">
        <ele>446.8</ele>
        <time>2017-10-01T09:11:33Z</time>
      </trkpt>
      <trkpt lat="47.42195" lon="6.73654">
        <ele>446.6</ele>
        <time>2017-10-01T09:11:34Z</time>
      </trkpt>
      <trkpt lat="47.42195" lon="6.7366">
        <ele>446.4</ele>
        <time>2017-10-01T09:11:35Z</time>
      </trkpt>
      <trkpt lat="47.42195" lon="6.73666">
        <ele>446.4</ele>
        <time>2017-10-01T09:11:36Z</time>
      </trkpt>
      <trkpt lat="47.42194" lon="6.7367">
        <ele>446.4</ele>
        <time>2017-10-01T09:11:37Z</time>
      </trkpt>
      <trkpt lat="47.42194" lon="6.73675">
        <ele>446.3</ele>
        <time>2017-10-01T09:11:38Z</time>
      </trkpt>
      <trkpt lat="47.42193" lon="6.7368">
        <ele>446.2</ele>
        <time>2017-10-01T09:11:39Z</time>
      </trkpt>
      <trkpt lat="47.42193" lon="6.7369">
        <ele>445</ele>
        <time>2017-10-01T09:11:40Z</time>
      </trkpt>
      <trkpt lat="47.4219" lon="6.73697">
        <ele>444.1</ele>
        <time>2017-10-01T09:11:41Z</time>
      </trkpt>
      <trkpt lat="47.42188" lon="6.73704">
        <ele>443.5</ele>
        <time>2017-10-01T09:11:42Z</time>
      </trkpt>
      <trkpt lat="47.42186" lon="6.73712">
        <ele>442.3</ele>
        <time>2017-10-01T09:11:43Z</time>
      </trkpt>
      <trkpt lat="47.42185" lon="6.73719">
        <ele>442.1</ele>
        <time>2017-10-01T09:11:44Z</time>
      </trkpt>
      <trkpt lat="47.42186" lon="6.73723">
        <ele>442</ele>
        <time>2017-10-01T09:11:45Z</time>
      </trkpt>
      <trkpt lat="47.42186" lon="6.73728">
        <ele>441.9</ele>
        <time>2017-10-01T09:11:46Z</time>
      </trkpt>
      <trkpt lat="47.42186" lon="6.73731">
        <ele>441.8</ele>
        <time>2017-10-01T09:11:47Z</time>
      </trkpt>
      <trkpt lat="47.42188" lon="6.73734">
        <ele>442</ele>
        <time>2017-10-01T09:11:48Z</time>
      </trkpt>
      <trkpt lat="47.42191" lon="6.73739">
        <ele>442.3</ele>
        <time>2017-10-01T09:11:52Z</time>
      </trkpt>
      <trkpt lat="47.42192" lon="6.7374">
        <ele>442.3</ele>
        <time>2017-10-01T09:11:53Z</time>
      </trkpt>
      <trkpt lat="47.42193" lon="6.73741">
        <ele>442.2</ele>
        <time>2017-10-01T09:11:54Z</time>
      </trkpt>
      <trkpt lat="47.42195" lon="6.73746">
        <ele>442.5</ele>
        <time>2017-10-01T09:11:55Z</time>
      </trkpt>
      <trkpt lat="47.42199" lon="6.7375">
        <ele>442.9</ele>
        <time>2017-10-01T09:11:56Z</time>
      </trkpt>
      <trkpt lat="47.42201" lon="6.73753">
        <ele>443.4</ele>
        <time>2017-10-01T09:12:00Z</time>
      </trkpt>
      <trkpt lat="47.42202" lon="6.73755">
        <ele>443.9</ele>
        <time>2017-10-01T09:12:01Z</time>
      </trkpt>
      <trkpt lat="47.42204" lon="6.73757">
        <ele>443.9</ele>
        <time>2017-10-01T09:12:02Z</time>
      </trkpt>
      <trkpt lat="47.42205" lon="6.73763">
        <ele>443.9</ele>
        <time>2017-10-01T09:12:03Z</time>
      </trkpt>
      <trkpt lat="47.42207" lon="6.73768">
        <ele>443.5</ele>
        <time>2017-10-01T09:12:06Z</time>
      </trkpt>
      <trkpt lat="47.42207" lon="6.7377">
        <ele>443.5</ele>
        <time>2017-10-01T09:12:07Z</time>
      </trkpt>
      <trkpt lat="47.42209" lon="6.73775">
        <ele>443.8</ele>
        <time>2017-10-01T09:12:12Z</time>
      </trkpt>
      <trkpt lat="47.42209" lon="6.73776">
        <ele>443.4</ele>
        <time>2017-10-01T09:12:13Z</time>
      </trkpt>
      <trkpt lat="47.42211" lon="6.73781">
        <ele>443.7</ele>
        <time>2017-10-01T09:12:18Z</time>
      </trkpt>
      <trkpt lat="47.42212" lon="6.73782">
        <ele>443.7</ele>
        <time>2017-10-01T09:12:19Z</time>
      </trkpt>
      <trkpt lat="47.42216" lon="6.73785">
        <ele>444</ele>
        <time>2017-10-01T09:12:24Z</time>
      </trkpt>
      <trkpt lat="47.42218" lon="6.73789">
        <ele>444.2</ele>
        <time>2017-10-01T09:12:25Z</time>
      </trkpt>
      <trkpt lat="47.42221" lon="6.73792">
        <ele>444.9</ele>
        <time>2017-10-01T09:12:28Z</time>
      </trkpt>
      <trkpt lat="47.42222" lon="6.73793">
        <ele>444.4</ele>
        <time>2017-10-01T09:12:29Z</time>
      </trkpt>
      <trkpt lat="47.42223" lon="6.73794">
        <ele>445.2</ele>
        <time>2017-10-01T09:12:30Z</time>
      </trkpt>
      <trkpt lat="47.42226" lon="6.73795">
        <ele>445.9</ele>
        <time>2017-10-01T09:12:31Z</time>
      </trkpt>
      <trkpt lat="47.42229" lon="6.73798">
        <ele>446.3</ele>
        <time>2017-10-01T09:12:36Z</time>
      </trkpt>
      <trkpt lat="47.4223" lon="6.73799">
        <ele>446.3</ele>
        <time>2017-10-01T09:12:37Z</time>
      </trkpt>
      <trkpt lat="47.42233" lon="6.73802">
        <ele>446.7</ele>
        <time>2017-10-01T09:12:42Z</time>
      </trkpt>
      <trkpt lat="47.42234" lon="6.73803">
        <ele>446.7</ele>
        <time>2017-10-01T09:12:43Z</time>
      </trkpt>
      <trkpt lat="47.42236" lon="6.73807">
        <ele>447.1</ele>
        <time>2017-10-01T09:12:46Z</time>
      </trkpt>
      <trkpt lat="47.42237" lon="6.73808">
        <ele>448</ele>
        <time>2017-10-01T09:12:47Z</time>
      </trkpt>
      <trkpt lat="47.4224" lon="6.73811">
        <ele>448.3</ele>
        <time>2017-10-01T09:12:51Z</time>
      </trkpt>
      <trkpt lat="47.42241" lon="6.73813">
        <ele>448.3</ele>
        <time>2017-10-01T09:12:52Z</time>
      </trkpt>
      <trkpt lat="47.42244" lon="6.73816">
        <ele>448.5</ele>
        <time>2017-10-01T09:12:56Z</time>
      </trkpt>
      <trkpt lat="47.42245" lon="6.73818">
        <ele>448.5</ele>
        <time>2017-10-01T09:12:57Z</time>
      </trkpt>
      <trkpt lat="47.42247" lon="6.73823">
        <ele>447.6</ele>
        <time>2017-10-01T09:13:00Z</time>
      </trkpt>
      <trkpt lat="47.42248" lon="6.73826">
        <ele>447.6</ele>
        <time>2017-10-01T09:13:01Z</time>
      </trkpt>
      <trkpt lat="47.42248" lon="6.7383">
        <ele>446.9</ele>
        <time>2017-10-01T09:13:02Z</time>
      </trkpt>
      <trkpt lat="47.42248" lon="6.73835">
        <ele>446.2</ele>
        <time>2017-10-01T09:13:03Z</time>
      </trkpt>
      <trkpt lat="47.42248" lon="6.7384">
        <ele>445.9</ele>
        <time>2017-10-01T09:13:04Z</time>
      </trkpt>
      <trkpt lat="47.4225" lon="6.73846">
        <ele>445.4</ele>
        <time>2017-10-01T09:13:05Z</time>
      </trkpt>
      <trkpt lat="47.42252" lon="6.73852">
        <ele>445.5</ele>
        <time>2017-10-01T09:13:06Z</time>
      </trkpt>
      <trkpt lat="47.42253" lon="6.7386">
        <ele>444.8</ele>
        <time>2017-10-01T09:13:07Z</time>
      </trkpt>
      <trkpt lat="47.42254" lon="6.73868">
        <ele>444.6</ele>
        <time>2017-10-01T09:13:08Z</time>
      </trkpt>
      <trkpt lat="47.42256" lon="6.73877">
        <ele>443.6</ele>
        <time>2017-10-01T09:13:09Z</time>
      </trkpt>
      <trkpt lat="47.42257" lon="6.73886">
        <ele>443.3</ele>
        <time>2017-10-01T09:13:10Z</time>
      </trkpt>
      <trkpt lat="47.42259" lon="6.73895">
        <ele>442.8</ele>
        <time>2017-10-01T09:13:11Z</time>
      </trkpt>
      <trkpt lat="47.42262" lon="6.73904">
        <ele>442.5</ele>
        <time>2017-10-01T09:13:12Z</time>
      </trkpt>
      <trkpt lat="47.42265" lon="6.73915">
        <ele>442.5</ele>
        <time>2017-10-01T09:13:13Z</time>
      </trkpt>
      <trkpt lat="47.42268" lon="6.73927">
        <ele>441.8</ele>
        <time>2017-10-01T09:13:14Z</time>
      </trkpt>
      <trkpt lat="47.42272" lon="6.7394">
        <ele>441.3</ele>
        <time>2017-10-01T09:13:15Z</time>
      </trkpt>
      <trkpt lat="47.42275" lon="6.7395">
        <ele>441</ele>
        <time>2017-10-01T09:13:16Z</time>
      </trkpt>
      <trkpt lat="47.42277" lon="6.7396">
        <ele>440.3</ele>
        <time>2017-10-01T09:13:17Z</time>
      </trkpt>
      <trkpt lat="47.4228" lon="6.73967">
        <ele>439.6</ele>
        <time>2017-10-01T09:13:18Z</time>
      </trkpt>
      <trkpt lat="47.42283" lon="6.73973">
        <ele>438.8</ele>
        <time>2017-10-01T09:13:19Z</time>
      </trkpt>
      <trkpt lat="47.42288" lon="6.73979">
        <ele>438.3</ele>
        <time>2017-10-01T09:13:20Z</time>
      </trkpt>
      <trkpt lat="47.42292" lon="6.73983">
        <ele>437.8</ele>
        <time>2017-10-01T09:13:21Z</time>
      </trkpt>
      <trkpt lat="47.42297" lon="6.73987">
        <ele>437</ele>
        <time>2017-10-01T09:13:22Z</time>
      </trkpt>
      <trkpt lat="47.42302" lon="6.73991">
        <ele>436.4</ele>
        <time>2017-10-01T09:13:23Z</time>
      </trkpt>
      <trkpt lat="47.42305" lon="6.73996">
        <ele>435.7</ele>
        <time>2017-10-01T09:13:24Z</time>
      </trkpt>
      <trkpt lat="47.42306" lon="6.74">
        <ele>434.8</ele>
        <time>2017-10-01T09:13:25Z</time>
      </trkpt>
      <trkpt lat="47.42307" lon="6.74006">
        <ele>434.2</ele>
        <time>2017-10-01T09:13:26Z</time>
      </trkpt>
      <trkpt lat="47.42308" lon="6.7401">
        <ele>433.3</ele>
        <time>2017-10-01T09:13:27Z</time>
      </trkpt>
      <trkpt lat="47.42309" lon="6.74014">
        <ele>432.6</ele>
        <time>2017-10-01T09:13:28Z</time>
      </trkpt>
      <trkpt lat="47.42309" lon="6.74019">
        <ele>431.8</ele>
        <time>2017-10-01T09:13:30Z</time>
      </trkpt>
      <trkpt lat="47.42308" lon="6.74022">
        <ele>431.1</ele>
        <time>2017-10-01T09:13:31Z</time>
      </trkpt>
      <trkpt lat="47.42308" lon="6.74026">
        <ele>430.6</ele>
        <time>2017-10-01T09:13:32Z</time>
      </trkpt>
      <trkpt lat="47.42307" lon="6.7403">
        <ele>430.2</ele>
        <time>2017-10-01T09:13:33Z</time>
      </trkpt>
      <trkpt lat="47.42306" lon="6.74034">
        <ele>429.5</ele>
        <time>2017-10-01T09:13:34Z</time>
      </trkpt>
      <trkpt lat="47.42305" lon="6.74038">
        <ele>429.1</ele>
        <time>2017-10-01T09:13:35Z</time>
      </trkpt>
      <trkpt lat="47.42304" lon="6.74042">
        <ele>428.9</ele>
        <time>2017-10-01T09:13:36Z</time>
      </trkpt>
      <trkpt lat="47.42303" lon="6.74049">
        <ele>428.4</ele>
        <time>2017-10-01T09:13:37Z</time>
      </trkpt>
      <trkpt lat="47.42304" lon="6.74054">
        <ele>428.4</ele>
        <time>2017-10-01T09:13:38Z</time>
      </trkpt>
      <trkpt lat="47.42305" lon="6.74062">
        <ele>428.3</ele>
        <time>2017-10-01T09:13:39Z</time>
      </trkpt>
      <trkpt lat="47.42306" lon="6.7407">
        <ele>428.1</ele>
        <time>2017-10-01T09:13:40Z</time>
      </trkpt>
      <trkpt lat="47.42306" lon="6.74078">
        <ele>427.7</ele>
        <time>2017-10-01T09:13:41Z</time>
      </trkpt>
      <trkpt lat="47.42306" lon="6.74089">
        <ele>427.4</ele>
        <time>2017-10-01T09:13:42Z</time>
      </trkpt>
      <trkpt lat="47.42307" lon="6.74095">
        <ele>427.6</ele>
        <time>2017-10-01T09:13:43Z</time>
      </trkpt>
      <trkpt lat="47.42308" lon="6.74101">
        <ele>427.5</ele>
        <time>2017-10-01T09:13:44Z</time>
      </trkpt>
      <trkpt lat="47.4231" lon="6.74104">
        <ele>427.8</ele>
        <time>2017-10-01T09:13:45Z</time>
      </trkpt>
      <trkpt lat="47.42313" lon="6.7411">
        <ele>427.6</ele>
        <time>2017-10-01T09:13:46Z</time>
      </trkpt>
      <trkpt lat="47.42315" lon="6.74115">
        <ele>427.4</ele>
        <time>2017-10-01T09:13:47Z</time>
      </trkpt>
      <trkpt lat="47.42317" lon="6.74118">
        <ele>427.8</ele>
        <time>2017-10-01T09:13:48Z</time>
      </trkpt>
      <trkpt lat="47.4232" lon="6.74123">
        <ele>428.1</ele>
        <time>2017-10-01T09:13:49Z</time>
      </trkpt>
      <trkpt lat="47.42322" lon="6.74127">
        <ele>428.5</ele>
        <time>2017-10-01T09:13:50Z</time>
      </trkpt>
      <trkpt lat="47.42325" lon="6.74133">
        <ele>429.3</ele>
        <time>2017-10-01T09:13:51Z</time>
      </trkpt>
      <trkpt lat="47.42328" lon="6.74138">
        <ele>430.1</ele>
        <time>2017-10-01T09:13:52Z</time>
      </trkpt>
      <trkpt lat="47.4233" lon="6.74142">
        <ele>430.9</ele>
        <time>2017-10-01T09:13:53Z</time>
      </trkpt>
      <trkpt lat="47.42331" lon="6.74145">
        <ele>431.1</ele>
        <time>2017-10-01T09:13:54Z</time>
      </trkpt>
      <trkpt lat="47.42333" lon="6.74151">
        <ele>432</ele>
        <time>2017-10-01T09:13:55Z</time>
      </trkpt>
      <trkpt lat="47.42335" lon="6.74159">
        <ele>432.7</ele>
        <time>2017-10-01T09:13:56Z</time>
      </trkpt>
      <trkpt lat="47.42335" lon="6.74165">
        <ele>433.1</ele>
        <time>2017-10-01T09:13:57Z</time>
      </trkpt>
      <trkpt lat="47.42334" lon="6.74169">
        <ele>433.6</ele>
        <time>2017-10-01T09:13:58Z</time>
      </trkpt>
      <trkpt lat="47.42333" lon="6.74177">
        <ele>434.7</ele>
        <time>2017-10-01T09:13:59Z</time>
      </trkpt>
      <trkpt lat="47.42334" lon="6.74183">
        <ele>435.4</ele>
        <time>2017-10-01T09:14:00Z</time>
      </trkpt>
      <trkpt lat="47.42334" lon="6.74188">
        <ele>436.7</ele>
        <time>2017-10-01T09:14:01Z</time>
      </trkpt>
      <trkpt lat="47.42335" lon="6.74193">
        <ele>437.5</ele>
        <time>2017-10-01T09:14:02Z</time>
      </trkpt>
      <trkpt lat="47.42335" lon="6.74197">
        <ele>438.2</ele>
        <time>2017-10-01T09:14:03Z</time>
      </trkpt>
      <trkpt lat="47.42336" lon="6.74201">
        <ele>439</ele>
        <time>2017-10-01T09:14:04Z</time>
      </trkpt>
      <trkpt lat="47.42337" lon="6.74205">
        <ele>439.7</ele>
        <time>2017-10-01T09:14:05Z</time>
      </trkpt>
      <trkpt lat="47.42339" lon="6.74208">
        <ele>439.7</ele>
        <time>2017-10-01T09:14:06Z</time>
      </trkpt>
      <trkpt lat="47.42343" lon="6.74212">
        <ele>440.1</ele>
        <time>2017-10-01T09:14:07Z</time>
      </trkpt>
      <trkpt lat="47.42345" lon="6.74215">
        <ele>440.4</ele>
        <time>2017-10-01T09:14:08Z</time>
      </trkpt>
      <trkpt lat="47.42347" lon="6.74218">
        <ele>440.4</ele>
        <time>2017-10-01T09:14:09Z</time>
      </trkpt>
      <trkpt lat="47.4235" lon="6.74221">
        <ele>440</ele>
        <time>2017-10-01T09:14:10Z</time>
      </trkpt>
      <trkpt lat="47.42353" lon="6.74224">
        <ele>439.8</ele>
        <time>2017-10-01T09:14:11Z</time>
      </trkpt>
      <trkpt lat="47.42355" lon="6.74227">
        <ele>439.9</ele>
        <time>2017-10-01T09:14:12Z</time>
      </trkpt>
      <trkpt lat="47.42357" lon="6.74231">
        <ele>439.6</ele>
        <time>2017-10-01T09:14:13Z</time>
      </trkpt>
      <trkpt lat="47.4236" lon="6.7424">
        <ele>439.2</ele>
        <time>2017-10-01T09:14:18Z</time>
      </trkpt>
      <trkpt lat="47.42362" lon="6.74245">
        <ele>439.3</ele>
        <time>2017-10-01T09:14:19Z</time>
      </trkpt>
      <trkpt lat="47.42363" lon="6.7425">
        <ele>439</ele>
        <time>2017-10-01T09:14:21Z</time>
      </trkpt>
      <trkpt lat="47.42364" lon="6.74252">
        <ele>439.1</ele>
        <time>2017-10-01T09:14:22Z</time>
      </trkpt>
      <trkpt lat="47.42364" lon="6.74253">
        <ele>439.1</ele>
        <time>2017-10-01T09:14:49Z</time>
      </trkpt>
      <trkpt lat="47.42366" lon="6.74255">
        <ele>438.9</ele>
        <time>2017-10-01T09:14:50Z</time>
      </trkpt>
      <trkpt lat="47.42376" lon="6.74263">
        <ele>438.4</ele>
        <time>2017-10-01T09:14:55Z</time>
      </trkpt>
      <trkpt lat="47.42383" lon="6.74264">
        <ele>437.8</ele>
        <time>2017-10-01T09:14:56Z</time>
      </trkpt>
      <trkpt lat="47.42391" lon="6.74266">
        <ele>438.5</ele>
        <time>2017-10-01T09:14:57Z</time>
      </trkpt>
      <trkpt lat="47.42394" lon="6.74266">
        <ele>438.5</ele>
        <time>2017-10-01T09:14:58Z</time>
      </trkpt>
      <trkpt lat="47.42399" lon="6.74265">
        <ele>438.6</ele>
        <time>2017-10-01T09:15:00Z</time>
      </trkpt>
      <trkpt lat="47.42402" lon="6.74265">
        <ele>438.6</ele>
        <time>2017-10-01T09:15:01Z</time>
      </trkpt>
      <trkpt lat="47.42406" lon="6.74265">
        <ele>438.8</ele>
        <time>2017-10-01T09:15:02Z</time>
      </trkpt>
      <trkpt lat="47.4241" lon="6.74265">
        <ele>438.9</ele>
        <time>2017-10-01T09:15:03Z</time>
      </trkpt>
      <trkpt lat="47.42413" lon="6.74265">
        <ele>439.2</ele>
        <time>2017-10-01T09:15:04Z</time>
      </trkpt>
      <trkpt lat="47.42417" lon="6.74265">
        <ele>439.5</ele>
        <time>2017-10-01T09:15:05Z</time>
      </trkpt>
      <trkpt lat="47.42421" lon="6.74265">
        <ele>439.9</ele>
        <time>2017-10-01T09:15:06Z</time>
      </trkpt>
      <trkpt lat="47.42424" lon="6.74265">
        <ele>440.1</ele>
        <time>2017-10-01T09:15:07Z</time>
      </trkpt>
      <trkpt lat="47.42429" lon="6.74266">
        <ele>440.5</ele>
        <time>2017-10-01T09:15:08Z</time>
      </trkpt>
      <trkpt lat="47.42435" lon="6.74267">
        <ele>440.8</ele>
        <time>2017-10-01T09:15:09Z</time>
      </trkpt>
      <trkpt lat="47.4244" lon="6.74268">
        <ele>440.8</ele>
        <time>2017-10-01T09:15:10Z</time>
      </trkpt>
      <trkpt lat="47.42444" lon="6.74269">
        <ele>440.8</ele>
        <time>2017-10-01T09:15:11Z</time>
      </trkpt>
      <trkpt lat="47.42449" lon="6.74269">
        <ele>441.4</ele>
        <time>2017-10-01T09:15:12Z</time>
      </trkpt>
      <trkpt lat="47.42454" lon="6.74267">
        <ele>440.4</ele>
        <time>2017-10-01T09:15:13Z</time>
      </trkpt>
      <trkpt lat="47.4246" lon="6.74266">
        <ele>439.8</ele>
        <time>2017-10-01T09:15:14Z</time>
      </trkpt>
      <trkpt lat="47.42467" lon="6.74266">
        <ele>438.7</ele>
        <time>2017-10-01T09:15:15Z</time>
      </trkpt>
      <trkpt lat="47.42473" lon="6.74265">
        <ele>437.9</ele>
        <time>2017-10-01T09:15:16Z</time>
      </trkpt>
      <trkpt lat="47.4248" lon="6.74265">
        <ele>437.1</ele>
        <time>2017-10-01T09:15:17Z</time>
      </trkpt>
      <trkpt lat="47.42487" lon="6.74266">
        <ele>436</ele>
        <time>2017-10-01T09:15:18Z</time>
      </trkpt>
      <trkpt lat="47.42493" lon="6.74267">
        <ele>435.4</ele>
        <time>2017-10-01T09:15:19Z</time>
      </trkpt>
      <trkpt lat="47.42497" lon="6.74266">
        <ele>435.2</ele>
        <time>2017-10-01T09:15:20Z</time>
      </trkpt>
      <trkpt lat="47.42501" lon="6.74266">
        <ele>434.9</ele>
        <time>2017-10-01T09:15:21Z</time>
      </trkpt>
      <trkpt lat="47.42506" lon="6.74266">
        <ele>434.8</ele>
        <time>2017-10-01T09:15:22Z</time>
      </trkpt>
      <trkpt lat="47.42511" lon="6.74266">
        <ele>434.7</ele>
        <time>2017-10-01T09:15:23Z</time>
      </trkpt>
      <trkpt lat="47.42516" lon="6.74265">
        <ele>434.7</ele>
        <time>2017-10-01T09:15:24Z</time>
      </trkpt>
      <trkpt lat="47.42523" lon="6.74265">
        <ele>434.7</ele>
        <time>2017-10-01T09:15:25Z</time>
      </trkpt>
      <trkpt lat="47.42528" lon="6.74266">
        <ele>434.8</ele>
        <time>2017-10-01T09:15:26Z</time>
      </trkpt>
      <trkpt lat="47.42533" lon="6.74266">
        <ele>434.7</ele>
        <time>2017-10-01T09:15:27Z</time>
      </trkpt>
      <trkpt lat="47.4254" lon="6.74265">
        <ele>434.4</ele>
        <time>2017-10-01T09:15:28Z</time>
      </trkpt>
      <trkpt lat="47.42546" lon="6.74267">
        <ele>434</ele>
        <time>2017-10-01T09:15:29Z</time>
      </trkpt>
      <trkpt lat="47.4255" lon="6.74268">
        <ele>433.8</ele>
        <time>2017-10-01T09:15:30Z</time>
      </trkpt>
      <trkpt lat="47.42555" lon="6.74269">
        <ele>434</ele>
        <time>2017-10-01T09:15:31Z</time>
      </trkpt>
      <trkpt lat="47.42559" lon="6.74271">
        <ele>433.6</ele>
        <time>2017-10-01T09:15:32Z</time>
      </trkpt>
      <trkpt lat="47.42564" lon="6.74272">
        <ele>433.3</ele>
        <time>2017-10-01T09:15:33Z</time>
      </trkpt>
      <trkpt lat="47.42567" lon="6.7427">
        <ele>433</ele>
        <time>2017-10-01T09:15:34Z</time>
      </trkpt>
      <trkpt lat="47.42571" lon="6.7427">
        <ele>432.5</ele>
        <time>2017-10-01T09:15:35Z</time>
      </trkpt>
      <trkpt lat="47.42574" lon="6.74269">
        <ele>431.6</ele>
        <time>2017-10-01T09:15:36Z</time>
      </trkpt>
      <trkpt lat="47.42579" lon="6.74268">
        <ele>431.4</ele>
        <time>2017-10-01T09:15:37Z</time>
      </trkpt>
      <trkpt lat="47.42583" lon="6.74269">
        <ele>431.2</ele>
        <time>2017-10-01T09:15:38Z</time>
      </trkpt>
      <trkpt lat="47.42587" lon="6.7427">
        <ele>431.8</ele>
        <time>2017-10-01T09:15:39Z</time>
      </trkpt>
      <trkpt lat="47.4259" lon="6.7427">
        <ele>431.8</ele>
        <time>2017-10-01T09:15:40Z</time>
      </trkpt>
      <trkpt lat="47.42594" lon="6.7427">
        <ele>431.8</ele>
        <time>2017-10-01T09:15:41Z</time>
      </trkpt>
      <trkpt lat="47.42599" lon="6.74269">
        <ele>431.8</ele>
        <time>2017-10-01T09:15:42Z</time>
      </trkpt>
      <trkpt lat="47.42606" lon="6.74267">
        <ele>431</ele>
        <time>2017-10-01T09:15:43Z</time>
      </trkpt>
      <trkpt lat="47.42611" lon="6.74267">
        <ele>430.9</ele>
        <time>2017-10-01T09:15:44Z</time>
      </trkpt>
      <trkpt lat="47.42615" lon="6.74267">
        <ele>430.6</ele>
        <time>2017-10-01T09:15:45Z</time>
      </trkpt>
      <trkpt lat="47.42619" lon="6.74266">
        <ele>430.4</ele>
        <time>2017-10-01T09:15:46Z</time>
      </trkpt>
      <trkpt lat="47.42623" lon="6.74263">
        <ele>428.8</ele>
        <time>2017-10-01T09:15:47Z</time>
      </trkpt>
      <trkpt lat="47.42629" lon="6.74259">
        <ele>426.9</ele>
        <time>2017-10-01T09:15:48Z</time>
      </trkpt>
      <trkpt lat="47.42634" lon="6.74259">
        <ele>426.5</ele>
        <time>2017-10-01T09:15:49Z</time>
      </trkpt>
      <trkpt lat="47.42639" lon="6.74258">
        <ele>425.6</ele>
        <time>2017-10-01T09:15:50Z</time>
      </trkpt>
      <trkpt lat="47.42643" lon="6.74257">
        <ele>425.2</ele>
        <time>2017-10-01T09:15:51Z</time>
      </trkpt>
      <trkpt lat="47.42648" lon="6.74256">
        <ele>423.6</ele>
        <time>2017-10-01T09:15:52Z</time>
      </trkpt>
      <trkpt lat="47.42653" lon="6.74256">
        <ele>424.2</ele>
        <time>2017-10-01T09:15:53Z</time>
      </trkpt>
      <trkpt lat="47.42659" lon="6.74256">
        <ele>423.9</ele>
        <time>2017-10-01T09:15:54Z</time>
      </trkpt>
      <trkpt lat="47.42667" lon="6.74254">
        <ele>422.8</ele>
        <time>2017-10-01T09:15:55Z</time>
      </trkpt>
      <trkpt lat="47.42672" lon="6.74252">
        <ele>422.8</ele>
        <time>2017-10-01T09:15:56Z</time>
      </trkpt>
      <trkpt lat="47.42678" lon="6.74252">
        <ele>422.8</ele>
        <time>2017-10-01T09:15:57Z</time>
      </trkpt>
      <trkpt lat="47.42684" lon="6.74251">
        <ele>422.3</ele>
        <time>2017-10-01T09:15:58Z</time>
      </trkpt>
      <trkpt lat="47.42689" lon="6.7425">
        <ele>422.5</ele>
        <time>2017-10-01T09:15:59Z</time>
      </trkpt>
      <trkpt lat="47.42694" lon="6.74251">
        <ele>422.9</ele>
        <time>2017-10-01T09:16:00Z</time>
      </trkpt>
      <trkpt lat="47.427" lon="6.74251">
        <ele>423.3</ele>
        <time>2017-10-01T09:16:01Z</time>
      </trkpt>
      <trkpt lat="47.42705" lon="6.7425">
        <ele>423.7</ele>
        <time>2017-10-01T09:16:02Z</time>
      </trkpt>
      <trkpt lat="47.4271" lon="6.7425">
        <ele>423.9</ele>
        <time>2017-10-01T09:16:03Z</time>
      </trkpt>
      <trkpt lat="47.42716" lon="6.74252">
        <ele>424.9</ele>
        <time>2017-10-01T09:16:04Z</time>
      </trkpt>
      <trkpt lat="47.42722" lon="6.74253">
        <ele>425.5</ele>
        <time>2017-10-01T09:16:05Z</time>
      </trkpt>
      <trkpt lat="47.42727" lon="6.74254">
        <ele>425.8</ele>
        <time>2017-10-01T09:16:06Z</time>
      </trkpt>
      <trkpt lat="47.42731" lon="6.74255">
        <ele>426.2</ele>
        <time>2017-10-01T09:16:07Z</time>
      </trkpt>
      <trkpt lat="47.42736" lon="6.74256">
        <ele>426.9</ele>
        <time>2017-10-01T09:16:08Z</time>
      </trkpt>
      <trkpt lat="47.42743" lon="6.74257">
        <ele>427.1</ele>
        <time>2017-10-01T09:16:09Z</time>
      </trkpt>
      <trkpt lat="47.42749" lon="6.74258">
        <ele>427</ele>
        <time>2017-10-01T09:16:10Z</time>
      </trkpt>
      <trkpt lat="47.42753" lon="6.74258">
        <ele>426.8</ele>
        <time>2017-10-01T09:16:11Z</time>
      </trkpt>
      <trkpt lat="47.42757" lon="6.74259">
        <ele>426.3</ele>
        <time>2017-10-01T09:16:12Z</time>
      </trkpt>
      <trkpt lat="47.42761" lon="6.7426">
        <ele>425.9</ele>
        <time>2017-10-01T09:16:13Z</time>
      </trkpt>
      <trkpt lat="47.42765" lon="6.74261">
        <ele>425.8</ele>
        <time>2017-10-01T09:16:14Z</time>
      </trkpt>
      <trkpt lat="47.42769" lon="6.74262">
        <ele>425.3</ele>
        <time>2017-10-01T09:16:15Z</time>
      </trkpt>
      <trkpt lat="47.42774" lon="6.74264">
        <ele>424.9</ele>
        <time>2017-10-01T09:16:16Z</time>
      </trkpt>
      <trkpt lat="47.42778" lon="6.74268">
        <ele>424.9</ele>
        <time>2017-10-01T09:16:17Z</time>
      </trkpt>
      <trkpt lat="47.42782" lon="6.7427">
        <ele>425.3</ele>
        <time>2017-10-01T09:16:18Z</time>
      </trkpt>
      <trkpt lat="47.42786" lon="6.74272">
        <ele>424.5</ele>
        <time>2017-10-01T09:16:19Z</time>
      </trkpt>
      <trkpt lat="47.4279" lon="6.74275">
        <ele>424.6</ele>
        <time>2017-10-01T09:16:20Z</time>
      </trkpt>
      <trkpt lat="47.42794" lon="6.74277">
        <ele>423.6</ele>
        <time>2017-10-01T09:16:21Z</time>
      </trkpt>
      <trkpt lat="47.42799" lon="6.74281">
        <ele>423.5</ele>
        <time>2017-10-01T09:16:22Z</time>
      </trkpt>
      <trkpt lat="47.42803" lon="6.74283">
        <ele>423.3</ele>
        <time>2017-10-01T09:16:23Z</time>
      </trkpt>
      <trkpt lat="47.42805" lon="6.74286">
        <ele>422.7</ele>
        <time>2017-10-01T09:16:24Z</time>
      </trkpt>
      <trkpt lat="47.42807" lon="6.7429">
        <ele>422.5</ele>
        <time>2017-10-01T09:16:25Z</time>
      </trkpt>
      <trkpt lat="47.42808" lon="6.74294">
        <ele>423.1</ele>
        <time>2017-10-01T09:16:26Z</time>
      </trkpt>
      <trkpt lat="47.4281" lon="6.74296">
        <ele>423.3</ele>
        <time>2017-10-01T09:16:27Z</time>
      </trkpt>
      <trkpt lat="47.42813" lon="6.74301">
        <ele>423.6</ele>
        <time>2017-10-01T09:16:28Z</time>
      </trkpt>
      <trkpt lat="47.42816" lon="6.74305">
        <ele>424</ele>
        <time>2017-10-01T09:16:29Z</time>
      </trkpt>
      <trkpt lat="47.4282" lon="6.74309">
        <ele>424.5</ele>
        <time>2017-10-01T09:16:30Z</time>
      </trkpt>
      <trkpt lat="47.42825" lon="6.74311">
        <ele>423.7</ele>
        <time>2017-10-01T09:16:31Z</time>
      </trkpt>
      <trkpt lat="47.42829" lon="6.74313">
        <ele>424.1</ele>
        <time>2017-10-01T09:16:32Z</time>
      </trkpt>
      <trkpt lat="47.42833" lon="6.74315">
        <ele>423.8</ele>
        <time>2017-10-01T09:16:33Z</time>
      </trkpt>
      <trkpt lat="47.42836" lon="6.74317">
        <ele>424.4</ele>
        <time>2017-10-01T09:16:34Z</time>
      </trkpt>
      <trkpt lat="47.4284" lon="6.7432">
        <ele>424.1</ele>
        <time>2017-10-01T09:16:35Z</time>
      </trkpt>
      <trkpt lat="47.42843" lon="6.74321">
        <ele>424.6</ele>
        <time>2017-10-01T09:16:36Z</time>
      </trkpt>
      <trkpt lat="47.42845" lon="6.74324">
        <ele>424.1</ele>
        <time>2017-10-01T09:16:37Z</time>
      </trkpt>
      <trkpt lat="47.42848" lon="6.74326">
        <ele>424.5</ele>
        <time>2017-10-01T09:16:38Z</time>
      </trkpt>
      <trkpt lat="47.42851" lon="6.74329">
        <ele>424.9</ele>
        <time>2017-10-01T09:16:39Z</time>
      </trkpt>
      <trkpt lat="47.42853" lon="6.74331">
        <ele>424.5</ele>
        <time>2017-10-01T09:16:40Z</time>
      </trkpt>
      <trkpt lat="47.42857" lon="6.74335">
        <ele>424.8</ele>
        <time>2017-10-01T09:16:41Z</time>
      </trkpt>
      <trkpt lat="47.42861" lon="6.74339">
        <ele>424.9</ele>
        <time>2017-10-01T09:16:42Z</time>
      </trkpt>
      <trkpt lat="47.42866" lon="6.74344">
        <ele>425.4</ele>
        <time>2017-10-01T09:16:43Z</time>
      </trkpt>
      <trkpt lat="47.42869" lon="6.74348">
        <ele>425.9</ele>
        <time>2017-10-01T09:16:44Z</time>
      </trkpt>
      <trkpt lat="47.42874" lon="6.74354">
        <ele>425.8</ele>
        <time>2017-10-01T09:16:45Z</time>
      </trkpt>
      <trkpt lat="47.42879" lon="6.74359">
        <ele>425.7</ele>
        <time>2017-10-01T09:16:46Z</time>
      </trkpt>
      <trkpt lat="47.42884" lon="6.74363">
        <ele>426.5</ele>
        <time>2017-10-01T09:16:47Z</time>
      </trkpt>
      <trkpt lat="47.42888" lon="6.74367">
        <ele>425.6</ele>
        <time>2017-10-01T09:16:48Z</time>
      </trkpt>
      <trkpt lat="47.42892" lon="6.7437">
        <ele>425.7</ele>
        <time>2017-10-01T09:16:49Z</time>
      </trkpt>
      <trkpt lat="47.42896" lon="6.74373">
        <ele>425</ele>
        <time>2017-10-01T09:16:50Z</time>
      </trkpt>
      <trkpt lat="47.42901" lon="6.74377">
        <ele>424.8</ele>
        <time>2017-10-01T09:16:51Z</time>
      </trkpt>
      <trkpt lat="47.42905" lon="6.74382">
        <ele>423.8</ele>
        <time>2017-10-01T09:16:52Z</time>
      </trkpt>
      <trkpt lat="47.42909" lon="6.74386">
        <ele>423.4</ele>
        <time>2017-10-01T09:16:53Z</time>
      </trkpt>
      <trkpt lat="47.42913" lon="6.74389">
        <ele>423</ele>
        <time>2017-10-01T09:16:54Z</time>
      </trkpt>
      <trkpt lat="47.42916" lon="6.74392">
        <ele>422.5</ele>
        <time>2017-10-01T09:16:55Z</time>
      </trkpt>
      <trkpt lat="47.42919" lon="6.74396">
        <ele>421.7</ele>
        <time>2017-10-01T09:16:56Z</time>
      </trkpt>
      <trkpt lat="47.42923" lon="6.744">
        <ele>421.5</ele>
        <time>2017-10-01T09:16:57Z</time>
      </trkpt>
      <trkpt lat="47.42928" lon="6.74404">
        <ele>421.3</ele>
        <time>2017-10-01T09:16:58Z</time>
      </trkpt>
      <trkpt lat="47.42932" lon="6.74407">
        <ele>420.7</ele>
        <time>2017-10-01T09:16:59Z</time>
      </trkpt>
      <trkpt lat="47.42936" lon="6.74409">
        <ele>420.4</ele>
        <time>2017-10-01T09:17:00Z</time>
      </trkpt>
      <trkpt lat="47.42939" lon="6.74411">
        <ele>420.3</ele>
        <time>2017-10-01T09:17:01Z</time>
      </trkpt>
      <trkpt lat="47.42942" lon="6.74411">
        <ele>420.2</ele>
        <time>2017-10-01T09:17:02Z</time>
      </trkpt>
      <trkpt lat="47.42945" lon="6.74408">
        <ele>419.9</ele>
        <time>2017-10-01T09:17:03Z</time>
      </trkpt>
      <trkpt lat="47.4295" lon="6.74404">
        <ele>419.4</ele>
        <time>2017-10-01T09:17:04Z</time>
      </trkpt>
      <trkpt lat="47.42955" lon="6.74403">
        <ele>419</ele>
        <time>2017-10-01T09:17:05Z</time>
      </trkpt>
      <trkpt lat="47.42961" lon="6.74401">
        <ele>418.2</ele>
        <time>2017-10-01T09:17:06Z</time>
      </trkpt>
      <trkpt lat="47.42965" lon="6.74398">
        <ele>417.9</ele>
        <time>2017-10-01T09:17:07Z</time>
      </trkpt>
      <trkpt lat="47.4297" lon="6.74396">
        <ele>417</ele>
        <time>2017-10-01T09:17:08Z</time>
      </trkpt>
      <trkpt lat="47.42976" lon="6.74395">
        <ele>416.4</ele>
        <time>2017-10-01T09:17:09Z</time>
      </trkpt>
      <trkpt lat="47.42982" lon="6.74393">
        <ele>415.8</ele>
        <time>2017-10-01T09:17:10Z</time>
      </trkpt>
      <trkpt lat="47.42986" lon="6.74391">
        <ele>414.7</ele>
        <time>2017-10-01T09:17:11Z</time>
      </trkpt>
      <trkpt lat="47.4299" lon="6.74388">
        <ele>414.1</ele>
        <time>2017-10-01T09:17:12Z</time>
      </trkpt>
      <trkpt lat="47.42993" lon="6.74385">
        <ele>413.9</ele>
        <time>2017-10-01T09:17:13Z</time>
      </trkpt>
      <trkpt lat="47.42998" lon="6.74381">
        <ele>413.4</ele>
        <time>2017-10-01T09:17:16Z</time>
      </trkpt>
      <trkpt lat="47.43003" lon="6.74378">
        <ele>413.1</ele>
        <time>2017-10-01T09:17:17Z</time>
      </trkpt>
      <trkpt lat="47.43013" lon="6.74372">
        <ele>413.3</ele>
        <time>2017-10-01T09:17:18Z</time>
      </trkpt>
      <trkpt lat="47.43018" lon="6.7437">
        <ele>413.6</ele>
        <time>2017-10-01T09:17:19Z</time>
      </trkpt>
      <trkpt lat="47.43021" lon="6.74369">
        <ele>414.2</ele>
        <time>2017-10-01T09:17:20Z</time>
      </trkpt>
      <trkpt lat="47.43024" lon="6.74368">
        <ele>414.5</ele>
        <time>2017-10-01T09:17:21Z</time>
      </trkpt>
      <trkpt lat="47.43027" lon="6.74367">
        <ele>414.4</ele>
        <time>2017-10-01T09:17:22Z</time>
      </trkpt>
      <trkpt lat="47.43029" lon="6.74366">
        <ele>414.7</ele>
        <time>2017-10-01T09:17:23Z</time>
      </trkpt>
      <trkpt lat="47.43032" lon="6.74367">
        <ele>414.7</ele>
        <time>2017-10-01T09:17:24Z</time>
      </trkpt>
      <trkpt lat="47.43034" lon="6.74366">
        <ele>414.9</ele>
        <time>2017-10-01T09:17:25Z</time>
      </trkpt>
      <trkpt lat="47.43037" lon="6.74364">
        <ele>415.1</ele>
        <time>2017-10-01T09:17:26Z</time>
      </trkpt>
      <trkpt lat="47.4304" lon="6.74363">
        <ele>414.7</ele>
        <time>2017-10-01T09:17:27Z</time>
      </trkpt>
      <trkpt lat="47.43044" lon="6.74361">
        <ele>414.8</ele>
        <time>2017-10-01T09:17:28Z</time>
      </trkpt>
      <trkpt lat="47.43048" lon="6.74358">
        <ele>414.4</ele>
        <time>2017-10-01T09:17:29Z</time>
      </trkpt>
      <trkpt lat="47.43053" lon="6.74355">
        <ele>414.3</ele>
        <time>2017-10-01T09:17:30Z</time>
      </trkpt>
      <trkpt lat="47.43057" lon="6.74353">
        <ele>413.6</ele>
        <time>2017-10-01T09:17:31Z</time>
      </trkpt>
      <trkpt lat="47.43062" lon="6.7435">
        <ele>412.8</ele>
        <time>2017-10-01T09:17:32Z</time>
      </trkpt>
      <trkpt lat="47.43069" lon="6.74346">
        <ele>412.4</ele>
        <time>2017-10-01T09:17:33Z</time>
      </trkpt>
      <trkpt lat="47.43075" lon="6.74343">
        <ele>411.4</ele>
        <time>2017-10-01T09:17:34Z</time>
      </trkpt>
      <trkpt lat="47.43081" lon="6.7434">
        <ele>410.6</ele>
        <time>2017-10-01T09:17:35Z</time>
      </trkpt>
      <trkpt lat="47.43087" lon="6.74338">
        <ele>410.2</ele>
        <time>2017-10-01T09:17:36Z</time>
      </trkpt>
      <trkpt lat="47.43095" lon="6.74337">
        <ele>409.2</ele>
        <time>2017-10-01T09:17:37Z</time>
      </trkpt>
      <trkpt lat="47.43104" lon="6.74336">
        <ele>408.6</ele>
        <time>2017-10-01T09:17:38Z</time>
      </trkpt>
      <trkpt lat="47.43112" lon="6.74335">
        <ele>408.1</ele>
        <time>2017-10-01T09:17:39Z</time>
      </trkpt>
      <trkpt lat="47.43121" lon="6.74333">
        <ele>407.7</ele>
        <time>2017-10-01T09:17:40Z</time>
      </trkpt>
      <trkpt lat="47.43129" lon="6.74329">
        <ele>406.9</ele>
        <time>2017-10-01T09:17:41Z</time>
      </trkpt>
      <trkpt lat="47.43138" lon="6.74325">
        <ele>406.2</ele>
        <time>2017-10-01T09:17:42Z</time>
      </trkpt>
      <trkpt lat="47.43144" lon="6.74322">
        <ele>406.2</ele>
        <time>2017-10-01T09:17:43Z</time>
      </trkpt>
      <trkpt lat="47.43149" lon="6.7432">
        <ele>406.2</ele>
        <time>2017-10-01T09:17:44Z</time>
      </trkpt>
      <trkpt lat="47.43155" lon="6.74319">
        <ele>406.4</ele>
        <time>2017-10-01T09:17:45Z</time>
      </trkpt>
      <trkpt lat="47.4316" lon="6.74319">
        <ele>406.5</ele>
        <time>2017-10-01T09:17:46Z</time>
      </trkpt>
      <trkpt lat="47.43165" lon="6.7432">
        <ele>406.7</ele>
        <time>2017-10-01T09:17:47Z</time>
      </trkpt>
      <trkpt lat="47.43169" lon="6.74322">
        <ele>406.8</ele>
        <time>2017-10-01T09:17:48Z</time>
      </trkpt>
      <trkpt lat="47.43176" lon="6.74324">
        <ele>407</ele>
        <time>2017-10-01T09:17:49Z</time>
      </trkpt>
      <trkpt lat="47.43182" lon="6.74326">
        <ele>406.7</ele>
        <time>2017-10-01T09:17:50Z</time>
      </trkpt>
      <trkpt lat="47.43187" lon="6.74328">
        <ele>406.7</ele>
        <time>2017-10-01T09:17:51Z</time>
      </trkpt>
      <trkpt lat="47.43193" lon="6.74329">
        <ele>406.2</ele>
        <time>2017-10-01T09:17:52Z</time>
      </trkpt>
      <trkpt lat="47.43198" lon="6.74332">
        <ele>406.1</ele>
        <time>2017-10-01T09:17:53Z</time>
      </trkpt>
      <trkpt lat="47.43203" lon="6.74334">
        <ele>405.7</ele>
        <time>2017-10-01T09:17:54Z</time>
      </trkpt>
      <trkpt lat="47.43208" lon="6.74336">
        <ele>405.6</ele>
        <time>2017-10-01T09:17:55Z</time>
      </trkpt>
      <trkpt lat="47.43213" lon="6.74338">
        <ele>405.1</ele>
        <time>2017-10-01T09:17:56Z</time>
      </trkpt>
      <trkpt lat="47.43219" lon="6.7434">
        <ele>405</ele>
        <time>2017-10-01T09:17:57Z</time>
      </trkpt>
      <trkpt lat="47.43224" lon="6.74343">
        <ele>404.3</ele>
        <time>2017-10-01T09:17:58Z</time>
      </trkpt>
      <trkpt lat="47.43229" lon="6.74344">
        <ele>404.3</ele>
        <time>2017-10-01T09:17:59Z</time>
      </trkpt>
      <trkpt lat="47.43234" lon="6.74346">
        <ele>404.3</ele>
        <time>2017-10-01T09:18:00Z</time>
      </trkpt>
      <trkpt lat="47.43238" lon="6.74347">
        <ele>403.4</ele>
        <time>2017-10-01T09:18:01Z</time>
      </trkpt>
      <trkpt lat="47.43242" lon="6.74348">
        <ele>403.2</ele>
        <time>2017-10-01T09:18:02Z</time>
      </trkpt>
      <trkpt lat="47.43247" lon="6.74349">
        <ele>403.1</ele>
        <time>2017-10-01T09:18:03Z</time>
      </trkpt>
      <trkpt lat="47.43251" lon="6.7435">
        <ele>402.8</ele>
        <time>2017-10-01T09:18:04Z</time>
      </trkpt>
      <trkpt lat="47.43256" lon="6.74352">
        <ele>401.5</ele>
        <time>2017-10-01T09:18:05Z</time>
      </trkpt>
      <trkpt lat="47.43261" lon="6.74353">
        <ele>401.1</ele>
        <time>2017-10-01T09:18:06Z</time>
      </trkpt>
      <trkpt lat="47.43266" lon="6.74354">
        <ele>400.4</ele>
        <time>2017-10-01T09:18:07Z</time>
      </trkpt>
      <trkpt lat="47.4327" lon="6.74355">
        <ele>399.5</ele>
        <time>2017-10-01T09:18:08Z</time>
      </trkpt>
      <trkpt lat="47.43274" lon="6.74355">
        <ele>398.8</ele>
        <time>2017-10-01T09:18:09Z</time>
      </trkpt>
      <trkpt lat="47.43279" lon="6.74356">
        <ele>398.5</ele>
        <time>2017-10-01T09:18:10Z</time>
      </trkpt>
      <trkpt lat="47.43283" lon="6.74356">
        <ele>397.9</ele>
        <time>2017-10-01T09:18:11Z</time>
      </trkpt>
      <trkpt lat="47.43287" lon="6.74357">
        <ele>397.7</ele>
        <time>2017-10-01T09:18:12Z</time>
      </trkpt>
      <trkpt lat="47.43292" lon="6.74358">
        <ele>397.4</ele>
        <time>2017-10-01T09:18:13Z</time>
      </trkpt>
      <trkpt lat="47.43296" lon="6.74359">
        <ele>397.3</ele>
        <time>2017-10-01T09:18:14Z</time>
      </trkpt>
      <trkpt lat="47.43301" lon="6.7436">
        <ele>396.9</ele>
        <time>2017-10-01T09:18:15Z</time>
      </trkpt>
      <trkpt lat="47.43306" lon="6.74361">
        <ele>397.1</ele>
        <time>2017-10-01T09:18:16Z</time>
      </trkpt>
      <trkpt lat="47.4331" lon="6.74365">
        <ele>396.8</ele>
        <time>2017-10-01T09:18:17Z</time>
      </trkpt>
      <trkpt lat="47.43314" lon="6.74368">
        <ele>396.9</ele>
        <time>2017-10-01T09:18:18Z</time>
      </trkpt>
      <trkpt lat="47.43318" lon="6.74371">
        <ele>397.3</ele>
        <time>2017-10-01T09:18:19Z</time>
      </trkpt>
      <trkpt lat="47.43323" lon="6.74375">
        <ele>397.2</ele>
        <time>2017-10-01T09:18:20Z</time>
      </trkpt>
      <trkpt lat="47.43327" lon="6.74377">
        <ele>397.4</ele>
        <time>2017-10-01T09:18:21Z</time>
      </trkpt>
      <trkpt lat="47.43332" lon="6.74378">
        <ele>398</ele>
        <time>2017-10-01T09:18:22Z</time>
      </trkpt>
      <trkpt lat="47.43337" lon="6.7438">
        <ele>397.8</ele>
        <time>2017-10-01T09:18:23Z</time>
      </trkpt>
      <trkpt lat="47.43341" lon="6.74383">
        <ele>398.4</ele>
        <time>2017-10-01T09:18:24Z</time>
      </trkpt>
      <trkpt lat="47.43345" lon="6.74386">
        <ele>398.1</ele>
        <time>2017-10-01T09:18:25Z</time>
      </trkpt>
      <trkpt lat="47.43348" lon="6.74388">
        <ele>398.5</ele>
        <time>2017-10-01T09:18:26Z</time>
      </trkpt>
      <trkpt lat="47.43352" lon="6.74391">
        <ele>398.7</ele>
        <time>2017-10-01T09:18:27Z</time>
      </trkpt>
      <trkpt lat="47.43356" lon="6.74393">
        <ele>398.5</ele>
        <time>2017-10-01T09:18:28Z</time>
      </trkpt>
      <trkpt lat="47.43359" lon="6.74395">
        <ele>398.9</ele>
        <time>2017-10-01T09:18:29Z</time>
      </trkpt>
      <trkpt lat="47.43363" lon="6.74398">
        <ele>398.6</ele>
        <time>2017-10-01T09:18:30Z</time>
      </trkpt>
      <trkpt lat="47.43367" lon="6.744">
        <ele>399.2</ele>
        <time>2017-10-01T09:18:31Z</time>
      </trkpt>
      <trkpt lat="47.4337" lon="6.74402">
        <ele>399</ele>
        <time>2017-10-01T09:18:32Z</time>
      </trkpt>
      <trkpt lat="47.43374" lon="6.74404">
        <ele>399.4</ele>
        <time>2017-10-01T09:18:33Z</time>
      </trkpt>
      <trkpt lat="47.43378" lon="6.74406">
        <ele>399.5</ele>
        <time>2017-10-01T09:18:34Z</time>
      </trkpt>
      <trkpt lat="47.43382" lon="6.74408">
        <ele>399.9</ele>
        <time>2017-10-01T09:18:35Z</time>
      </trkpt>
      <trkpt lat="47.43385" lon="6.7441">
        <ele>400.3</ele>
        <time>2017-10-01T09:18:36Z</time>
      </trkpt>
      <trkpt lat="47.43388" lon="6.74412">
        <ele>400.2</ele>
        <time>2017-10-01T09:18:37Z</time>
      </trkpt>
      <trkpt lat="47.4339" lon="6.74413">
        <ele>400.7</ele>
        <time>2017-10-01T09:18:38Z</time>
      </trkpt>
      <trkpt lat="47.43394" lon="6.74415">
        <ele>400.8</ele>
        <time>2017-10-01T09:18:39Z</time>
      </trkpt>
      <trkpt lat="47.43397" lon="6.74417">
        <ele>401.3</ele>
        <time>2017-10-01T09:18:40Z</time>
      </trkpt>
      <trkpt lat="47.434" lon="6.74418">
        <ele>401.8</ele>
        <time>2017-10-01T09:18:41Z</time>
      </trkpt>
      <trkpt lat="47.43403" lon="6.7442">
        <ele>402</ele>
        <time>2017-10-01T09:18:42Z</time>
      </trkpt>
      <trkpt lat="47.43406" lon="6.74422">
        <ele>402.5</ele>
        <time>2017-10-01T09:18:43Z</time>
      </trkpt>
      <trkpt lat="47.4341" lon="6.74424">
        <ele>402.9</ele>
        <time>2017-10-01T09:18:44Z</time>
      </trkpt>
      <trkpt lat="47.43414" lon="6.74425">
        <ele>403.4</ele>
        <time>2017-10-01T09:18:45Z</time>
      </trkpt>
      <trkpt lat="47.43418" lon="6.74427">
        <ele>403.8</ele>
        <time>2017-10-01T09:18:46Z</time>
      </trkpt>
      <trkpt lat="47.43421" lon="6.74427">
        <ele>404.2</ele>
        <time>2017-10-01T09:18:47Z</time>
      </trkpt>
      <trkpt lat="47.43425" lon="6.74429">
        <ele>404</ele>
        <time>2017-10-01T09:18:48Z</time>
      </trkpt>
      <trkpt lat="47.43429" lon="6.74431">
        <ele>404.3</ele>
        <time>2017-10-01T09:18:49Z</time>
      </trkpt>
      <trkpt lat="47.43433" lon="6.74433">
        <ele>403.6</ele>
        <time>2017-10-01T09:18:50Z</time>
      </trkpt>
      <trkpt lat="47.43437" lon="6.74435">
        <ele>403.6</ele>
        <time>2017-10-01T09:18:51Z</time>
      </trkpt>
      <trkpt lat="47.4344" lon="6.74438">
        <ele>402.6</ele>
        <time>2017-10-01T09:18:52Z</time>
      </trkpt>
      <trkpt lat="47.43443" lon="6.74439">
        <ele>402.4</ele>
        <time>2017-10-01T09:18:53Z</time>
      </trkpt>
      <trkpt lat="47.43446" lon="6.74441">
        <ele>401.2</ele>
        <time>2017-10-01T09:18:54Z</time>
      </trkpt>
      <trkpt lat="47.4345" lon="6.74442">
        <ele>400.9</ele>
        <time>2017-10-01T09:18:55Z</time>
      </trkpt>
      <trkpt lat="47.43453" lon="6.74444">
        <ele>400.3</ele>
        <time>2017-10-01T09:18:56Z</time>
      </trkpt>
      <trkpt lat="47.43457" lon="6.74445">
        <ele>400</ele>
        <time>2017-10-01T09:18:57Z</time>
      </trkpt>
      <trkpt lat="47.4346" lon="6.74445">
        <ele>398.8</ele>
        <time>2017-10-01T09:18:58Z</time>
      </trkpt>
      <trkpt lat="47.43462" lon="6.74446">
        <ele>398.5</ele>
        <time>2017-10-01T09:18:59Z</time>
      </trkpt>
      <trkpt lat="47.43466" lon="6.74447">
        <ele>398.1</ele>
        <time>2017-10-01T09:19:00Z</time>
      </trkpt>
      <trkpt lat="47.4347" lon="6.74447">
        <ele>397.8</ele>
        <time>2017-10-01T09:19:01Z</time>
      </trkpt>
      <trkpt lat="47.43474" lon="6.74446">
        <ele>397.3</ele>
        <time>2017-10-01T09:19:02Z</time>
      </trkpt>
      <trkpt lat="47.43479" lon="6.74447">
        <ele>397.1</ele>
        <time>2017-10-01T09:19:03Z</time>
      </trkpt>
      <trkpt lat="47.43483" lon="6.74447">
        <ele>397</ele>
        <time>2017-10-01T09:19:04Z</time>
      </trkpt>
      <trkpt lat="47.43488" lon="6.74448">
        <ele>397</ele>
        <time>2017-10-01T09:19:05Z</time>
      </trkpt>
      <trkpt lat="47.43492" lon="6.74448">
        <ele>397.1</ele>
        <time>2017-10-01T09:19:06Z</time>
      </trkpt>
      <trkpt lat="47.43496" lon="6.74448">
        <ele>397.3</ele>
        <time>2017-10-01T09:19:07Z</time>
      </trkpt>
      <trkpt lat="47.43501" lon="6.74448">
        <ele>397.6</ele>
        <time>2017-10-01T09:19:08Z</time>
      </trkpt>
      <trkpt lat="47.43505" lon="6.74448">
        <ele>397.8</ele>
        <time>2017-10-01T09:19:09Z</time>
      </trkpt>
      <trkpt lat="47.43509" lon="6.7445">
        <ele>397.5</ele>
        <time>2017-10-01T09:19:10Z</time>
      </trkpt>
      <trkpt lat="47.43514" lon="6.74452">
        <ele>397.8</ele>
        <time>2017-10-01T09:19:11Z</time>
      </trkpt>
      <trkpt lat="47.43518" lon="6.74454">
        <ele>397.9</ele>
        <time>2017-10-01T09:19:12Z</time>
      </trkpt>
      <trkpt lat="47.43522" lon="6.74456">
        <ele>398.4</ele>
        <time>2017-10-01T09:19:13Z</time>
      </trkpt>
      <trkpt lat="47.43526" lon="6.74457">
        <ele>399.3</ele>
        <time>2017-10-01T09:19:14Z</time>
      </trkpt>
      <trkpt lat="47.4353" lon="6.74458">
        <ele>399.2</ele>
        <time>2017-10-01T09:19:15Z</time>
      </trkpt>
      <trkpt lat="47.43533" lon="6.74459">
        <ele>399.7</ele>
        <time>2017-10-01T09:19:16Z</time>
      </trkpt>
      <trkpt lat="47.43535" lon="6.7446">
        <ele>400.2</ele>
        <time>2017-10-01T09:19:17Z</time>
      </trkpt>
      <trkpt lat="47.43538" lon="6.74461">
        <ele>400.7</ele>
        <time>2017-10-01T09:19:18Z</time>
      </trkpt>
      <trkpt lat="47.43542" lon="6.74462">
        <ele>400.4</ele>
        <time>2017-10-01T09:19:19Z</time>
      </trkpt>
      <trkpt lat="47.43545" lon="6.74464">
        <ele>400.9</ele>
        <time>2017-10-01T09:19:20Z</time>
      </trkpt>
      <trkpt lat="47.43549" lon="6.74465">
        <ele>401.3</ele>
        <time>2017-10-01T09:19:21Z</time>
      </trkpt>
      <trkpt lat="47.43552" lon="6.74467">
        <ele>401.4</ele>
        <time>2017-10-01T09:19:22Z</time>
      </trkpt>
      <trkpt lat="47.43556" lon="6.74469">
        <ele>401.8</ele>
        <time>2017-10-01T09:19:23Z</time>
      </trkpt>
      <trkpt lat="47.4356" lon="6.7447">
        <ele>402.1</ele>
        <time>2017-10-01T09:19:24Z</time>
      </trkpt>
      <trkpt lat="47.43563" lon="6.74472">
        <ele>401.9</ele>
        <time>2017-10-01T09:19:25Z</time>
      </trkpt>
      <trkpt lat="47.43566" lon="6.74474">
        <ele>402.3</ele>
        <time>2017-10-01T09:19:26Z</time>
      </trkpt>
      <trkpt lat="47.43569" lon="6.74476">
        <ele>402.1</ele>
        <time>2017-10-01T09:19:27Z</time>
      </trkpt>
      <trkpt lat="47.43573" lon="6.74478">
        <ele>402.8</ele>
        <time>2017-10-01T09:19:28Z</time>
      </trkpt>
      <trkpt lat="47.43576" lon="6.74479">
        <ele>403.1</ele>
        <time>2017-10-01T09:19:29Z</time>
      </trkpt>
      <trkpt lat="47.43579" lon="6.74479">
        <ele>403.3</ele>
        <time>2017-10-01T09:19:30Z</time>
      </trkpt>
      <trkpt lat="47.43583" lon="6.74479">
        <ele>402.7</ele>
        <time>2017-10-01T09:19:31Z</time>
      </trkpt>
      <trkpt lat="47.43587" lon="6.74483">
        <ele>402.7</ele>
        <time>2017-10-01T09:19:32Z</time>
      </trkpt>
      <trkpt lat="47.4359" lon="6.74485">
        <ele>401.9</ele>
        <time>2017-10-01T09:19:33Z</time>
      </trkpt>
      <trkpt lat="47.43593" lon="6.74488">
        <ele>401</ele>
        <time>2017-10-01T09:19:34Z</time>
      </trkpt>
      <trkpt lat="47.43597" lon="6.74492">
        <ele>401</ele>
        <time>2017-10-01T09:19:35Z</time>
      </trkpt>
      <trkpt lat="47.436" lon="6.74495">
        <ele>400.5</ele>
        <time>2017-10-01T09:19:36Z</time>
      </trkpt>
      <trkpt lat="47.43603" lon="6.74498">
        <ele>400.1</ele>
        <time>2017-10-01T09:19:37Z</time>
      </trkpt>
      <trkpt lat="47.43606" lon="6.74501">
        <ele>399.7</ele>
        <time>2017-10-01T09:19:38Z</time>
      </trkpt>
      <trkpt lat="47.4361" lon="6.74505">
        <ele>399.2</ele>
        <time>2017-10-01T09:19:39Z</time>
      </trkpt>
      <trkpt lat="47.43613" lon="6.7451">
        <ele>398.7</ele>
        <time>2017-10-01T09:19:40Z</time>
      </trkpt>
      <trkpt lat="47.43616" lon="6.74516">
        <ele>398.1</ele>
        <time>2017-10-01T09:19:41Z</time>
      </trkpt>
      <trkpt lat="47.43619" lon="6.74521">
        <ele>397.6</ele>
        <time>2017-10-01T09:19:42Z</time>
      </trkpt>
      <trkpt lat="47.43623" lon="6.74526">
        <ele>397.1</ele>
        <time>2017-10-01T09:19:43Z</time>
      </trkpt>
      <trkpt lat="47.43627" lon="6.74531">
        <ele>396.6</ele>
        <time>2017-10-01T09:19:44Z</time>
      </trkpt>
      <trkpt lat="47.43632" lon="6.74536">
        <ele>396</ele>
        <time>2017-10-01T09:19:45Z</time>
      </trkpt>
      <trkpt lat="47.43637" lon="6.74542">
        <ele>395.4</ele>
        <time>2017-10-01T09:19:46Z</time>
      </trkpt>
      <trkpt lat="47.43642" lon="6.74547">
        <ele>394.8</ele>
        <time>2017-10-01T09:19:47Z</time>
      </trkpt>
      <trkpt lat="47.43648" lon="6.74554">
        <ele>394.2</ele>
        <time>2017-10-01T09:19:48Z</time>
      </trkpt>
      <trkpt lat="47.43654" lon="6.7456">
        <ele>393.7</ele>
        <time>2017-10-01T09:19:49Z</time>
      </trkpt>
      <trkpt lat="47.43659" lon="6.74566">
        <ele>393.1</ele>
        <time>2017-10-01T09:19:50Z</time>
      </trkpt>
      <trkpt lat="47.43665" lon="6.74572">
        <ele>392.6</ele>
        <time>2017-10-01T09:19:51Z</time>
      </trkpt>
      <trkpt lat="47.43671" lon="6.74578">
        <ele>392</ele>
        <time>2017-10-01T09:19:52Z</time>
      </trkpt>
      <trkpt lat="47.43677" lon="6.74585">
        <ele>391.5</ele>
        <time>2017-10-01T09:19:53Z</time>
      </trkpt>
      <trkpt lat="47.43684" lon="6.74593">
        <ele>390.8</ele>
        <time>2017-10-01T09:19:54Z</time>
      </trkpt>
      <trkpt lat="47.4369" lon="6.746">
        <ele>390.2</ele>
        <time>2017-10-01T09:19:55Z</time>
      </trkpt>
      <trkpt lat="47.43697" lon="6.74607">
        <ele>389.5</ele>
        <time>2017-10-01T09:19:56Z</time>
      </trkpt>
      <trkpt lat="47.43705" lon="6.74616">
        <ele>388.8</ele>
        <time>2017-10-01T09:19:57Z</time>
      </trkpt>
      <trkpt lat="47.43712" lon="6.74623">
        <ele>388.1</ele>
        <time>2017-10-01T09:19:58Z</time>
      </trkpt>
      <trkpt lat="47.4372" lon="6.7463">
        <ele>387.4</ele>
        <time>2017-10-01T09:19:59Z</time>
      </trkpt>
      <trkpt lat="47.43728" lon="6.74638">
        <ele>386.8</ele>
        <time>2017-10-01T09:20:00Z</time>
      </trkpt>
      <trkpt lat="47.43736" lon="6.74645">
        <ele>386.2</ele>
        <time>2017-10-01T09:20:01Z</time>
      </trkpt>
      <trkpt lat="47.43743" lon="6.74652">
        <ele>385.5</ele>
        <time>2017-10-01T09:20:02Z</time>
      </trkpt>
      <trkpt lat="47.4375" lon="6.74658">
        <ele>385</ele>
        <time>2017-10-01T09:20:03Z</time>
      </trkpt>
      <trkpt lat="47.43758" lon="6.74665">
        <ele>384.4</ele>
        <time>2017-10-01T09:20:04Z</time>
      </trkpt>
      <trkpt lat="47.43766" lon="6.74672">
        <ele>383.7</ele>
        <time>2017-10-01T09:20:05Z</time>
      </trkpt>
      <trkpt lat="47.43774" lon="6.74679">
        <ele>383.1</ele>
        <time>2017-10-01T09:20:06Z</time>
      </trkpt>
      <trkpt lat="47.43781" lon="6.74686">
        <ele>382.5</ele>
        <time>2017-10-01T09:20:07Z</time>
      </trkpt>
      <trkpt lat="47.43789" lon="6.74693">
        <ele>381.9</ele>
        <time>2017-10-01T09:20:08Z</time>
      </trkpt>
      <trkpt lat="47.43796" lon="6.747">
        <ele>381.3</ele>
        <time>2017-10-01T09:20:09Z</time>
      </trkpt>
      <trkpt lat="47.43803" lon="6.74707">
        <ele>380.8</ele>
        <time>2017-10-01T09:20:10Z</time>
      </trkpt>
      <trkpt lat="47.4381" lon="6.74714">
        <ele>380.2</ele>
        <time>2017-10-01T09:20:11Z</time>
      </trkpt>
      <trkpt lat="47.43817" lon="6.74721">
        <ele>379.7</ele>
        <time>2017-10-01T09:20:12Z</time>
      </trkpt>
      <trkpt lat="47.43823" lon="6.74729">
        <ele>379.2</ele>
        <time>2017-10-01T09:20:13Z</time>
      </trkpt>
      <trkpt lat="47.43829" lon="6.74736">
        <ele>378.8</ele>
        <time>2017-10-01T09:20:14Z</time>
      </trkpt>
      <trkpt lat="47.43835" lon="6.74743">
        <ele>378.4</ele>
        <time>2017-10-01T09:20:15Z</time>
      </trkpt>
      <trkpt lat="47.4384" lon="6.7475">
        <ele>378</ele>
        <time>2017-10-01T09:20:16Z</time>
      </trkpt>
      <trkpt lat="47.43846" lon="6.74757">
        <ele>377.6</ele>
        <time>2017-10-01T09:20:17Z</time>
      </trkpt>
      <trkpt lat="47.43851" lon="6.74764">
        <ele>377.3</ele>
        <time>2017-10-01T09:20:18Z</time>
      </trkpt>
      <trkpt lat="47.43856" lon="6.74771">
        <ele>377</ele>
        <time>2017-10-01T09:20:19Z</time>
      </trkpt>
      <trkpt lat="47.43861" lon="6.74777">
        <ele>376.8</ele>
        <time>2017-10-01T09:20:20Z</time>
      </trkpt>
      <trkpt lat="47.43866" lon="6.74783">
        <ele>376.5</ele>
        <time>2017-10-01T09:20:21Z</time>
      </trkpt>
      <trkpt lat="47.4387" lon="6.74787">
        <ele>376.4</ele>
        <time>2017-10-01T09:20:22Z</time>
      </trkpt>
      <trkpt lat="47.43876" lon="6.74792">
        <ele>376.3</ele>
        <time>2017-10-01T09:20:23Z</time>
      </trkpt>
      <trkpt lat="47.43882" lon="6.74795">
        <ele>376.2</ele>
        <time>2017-10-01T09:20:24Z</time>
      </trkpt>
      <trkpt lat="47.43888" lon="6.74797">
        <ele>376.1</ele>
        <time>2017-10-01T09:20:25Z</time>
      </trkpt>
      <trkpt lat="47.43894" lon="6.748">
        <ele>376</ele>
        <time>2017-10-01T09:20:26Z</time>
      </trkpt>
      <trkpt lat="47.43901" lon="6.74802">
        <ele>375.9</ele>
        <time>2017-10-01T09:20:27Z</time>
      </trkpt>
      <trkpt lat="47.43907" lon="6.74804">
        <ele>375.8</ele>
        <time>2017-10-01T09:20:28Z</time>
      </trkpt>
      <trkpt lat="47.43914" lon="6.74806">
        <ele>375.6</ele>
        <time>2017-10-01T09:20:29Z</time>
      </trkpt>
      <trkpt lat="47.43921" lon="6.74808">
        <ele>375.5</ele>
        <time>2017-10-01T09:20:30Z</time>
      </trkpt>
      <trkpt lat="47.43927" lon="6.7481">
        <ele>375.3</ele>
        <time>2017-10-01T09:20:31Z</time>
      </trkpt>
      <trkpt lat="47.43933" lon="6.74812">
        <ele>375.1</ele>
        <time>2017-10-01T09:20:32Z</time>
      </trkpt>
      <trkpt lat="47.43939" lon="6.74815">
        <ele>374.9</ele>
        <time>2017-10-01T09:20:33Z</time>
      </trkpt>
      <trkpt lat="47.43944" lon="6.74817">
        <ele>374.7</ele>
        <time>2017-10-01T09:20:34Z</time>
      </trkpt>
      <trkpt lat="47.4395" lon="6.7482">
        <ele>374.6</ele>
        <time>2017-10-01T09:20:35Z</time>
      </trkpt>
      <trkpt lat="47.43956" lon="6.74824">
        <ele>374.5</ele>
        <time>2017-10-01T09:20:36Z</time>
      </trkpt>
      <trkpt lat="47.43961" lon="6.74828">
        <ele>374.4</ele>
        <time>2017-10-01T09:20:37Z</time>
      </trkpt>
      <trkpt lat="47.43966" lon="6.74832">
        <ele>374.4</ele>
        <time>2017-10-01T09:20:38Z</time>
      </trkpt>
      <trkpt lat="47.43972" lon="6.74836">
        <ele>374.3</ele>
        <time>2017-10-01T09:20:39Z</time>
      </trkpt>
      <trkpt lat="47.43978" lon="6.74841">
        <ele>374.3</ele>
        <time>2017-10-01T09:20:40Z</time>
      </trkpt>
      <trkpt lat="47.43984" lon="6.74846">
        <ele>374.2</ele>
        <time>2017-10-01T09:20:41Z</time>
      </trkpt>
      <trkpt lat="47.43989" lon="6.74851">
        <ele>374.2</ele>
        <time>2017-10-01T09:20:42Z</time>
      </trkpt>
      <trkpt lat="47.43995" lon="6.74858">
        <ele>374.2</ele>
        <time>2017-10-01T09:20:43Z</time>
      </trkpt>
      <trkpt lat="47.44" lon="6.74866">
        <ele>374.1</ele>
        <time>2017-10-01T09:20:44Z</time>
      </trkpt>
      <trkpt lat="47.44004" lon="6.74871">
        <ele>374.1</ele>
        <time>2017-10-01T09:20:45Z</time>
      </trkpt>
      <trkpt lat="47.44008" lon="6.74878">
        <ele>374.1</ele>
        <time>2017-10-01T09:20:46Z</time>
      </trkpt>
      <trkpt lat="47.44012" lon="6.74885">
        <ele>374.1</ele>
        <time>2017-10-01T09:20:47Z</time>
      </trkpt>
      <trkpt lat="47.44017" lon="6.74893">
        <ele>374</ele>
        <time>2017-10-01T09:20:48Z</time>
      </trkpt>
      <trkpt lat="47.44022" lon="6.749">
        <ele>373.9</ele>
        <time>2017-10-01T09:20:49Z</time>
      </trkpt>
      <trkpt lat="47.44026" lon="6.74907">
        <ele>373.8</ele>
        <time>2017-10-01T09:20:50Z</time>
      </trkpt>
      <trkpt lat="47.44031" lon="6.74914">
        <ele>373.7</ele>
        <time>2017-10-01T09:20:51Z</time>
      </trkpt>
      <trkpt lat="47.44037" lon="6.74919">
        <ele>373.5</ele>
        <time>2017-10-01T09:20:52Z</time>
      </trkpt>
      <trkpt lat="47.4404" lon="6.74929">
        <ele>373.3</ele>
        <time>2017-10-01T09:20:53Z</time>
      </trkpt>
      <trkpt lat="47.44043" lon="6.74937">
        <ele>373.1</ele>
        <time>2017-10-01T09:20:54Z</time>
      </trkpt>
      <trkpt lat="47.44046" lon="6.74945">
        <ele>372.9</ele>
        <time>2017-10-01T09:20:55Z</time>
      </trkpt>
      <trkpt lat="47.44049" lon="6.74953">
        <ele>372.7</ele>
        <time>2017-10-01T09:20:56Z</time>
      </trkpt>
      <trkpt lat="47.44053" lon="6.74961">
        <ele>372.5</ele>
        <time>2017-10-01T09:20:57Z</time>
      </trkpt>
      <trkpt lat="47.44056" lon="6.74969">
        <ele>372.5</ele>
        <time>2017-10-01T09:20:58Z</time>
      </trkpt>
      <trkpt lat="47.4406" lon="6.74977">
        <ele>372.4</ele>
        <time>2017-10-01T09:20:59Z</time>
      </trkpt>
      <trkpt lat="47.44065" lon="6.74984">
        <ele>372.3</ele>
        <time>2017-10-01T09:21:00Z</time>
      </trkpt>
      <trkpt lat="47.44069" lon="6.74992">
        <ele>372.2</ele>
        <time>2017-10-01T09:21:01Z</time>
      </trkpt>
      <trkpt lat="47.44073" lon="6.75">
        <ele>372.2</ele>
        <time>2017-10-01T09:21:02Z</time>
      </trkpt>
      <trkpt lat="47.44076" lon="6.75007">
        <ele>372.1</ele>
        <time>2017-10-01T09:21:03Z</time>
      </trkpt>
      <trkpt lat="47.44079" lon="6.75015">
        <ele>372</ele>
        <time>2017-10-01T09:21:04Z</time>
      </trkpt>
      <trkpt lat="47.44083" lon="6.75024">
        <ele>371.9</ele>
        <time>2017-10-01T09:21:05Z</time>
      </trkpt>
      <trkpt lat="47.44085" lon="6.75035">
        <ele>371.8</ele>
        <time>2017-10-01T09:21:06Z</time>
      </trkpt>
      <trkpt lat="47.44088" lon="6.75044">
        <ele>371.6</ele>
        <time>2017-10-01T09:21:07Z</time>
      </trkpt>
      <trkpt lat="47.44092" lon="6.75053">
        <ele>371.3</ele>
        <time>2017-10-01T09:21:08Z</time>
      </trkpt>
      <trkpt lat="47.44097" lon="6.75062">
        <ele>371</ele>
        <time>2017-10-01T09:21:09Z</time>
      </trkpt>
      <trkpt lat="47.44101" lon="6.7507">
        <ele>370.7</ele>
        <time>2017-10-01T09:21:10Z</time>
      </trkpt>
      <trkpt lat="47.44105" lon="6.75079">
        <ele>370.5</ele>
        <time>2017-10-01T09:21:11Z</time>
      </trkpt>
      <trkpt lat="47.44109" lon="6.75086">
        <ele>370.4</ele>
        <time>2017-10-01T09:21:12Z</time>
      </trkpt>
      <trkpt lat="47.44112" lon="6.75093">
        <ele>370.4</ele>
        <time>2017-10-01T09:21:13Z</time>
      </trkpt>
      <trkpt lat="47.44116" lon="6.751">
        <ele>370.3</ele>
        <time>2017-10-01T09:21:14Z</time>
      </trkpt>
      <trkpt lat="47.4412" lon="6.75107">
        <ele>370.2</ele>
        <time>2017-10-01T09:21:15Z</time>
      </trkpt>
      <trkpt lat="47.44124" lon="6.75114">
        <ele>370.2</ele>
        <time>2017-10-01T09:21:16Z</time>
      </trkpt>
      <trkpt lat="47.44128" lon="6.75121">
        <ele>370.2</ele>
        <time>2017-10-01T09:21:17Z</time>
      </trkpt>
      <trkpt lat="47.44131" lon="6.75127">
        <ele>370.2</ele>
        <time>2017-10-01T09:21:18Z</time>
      </trkpt>
      <trkpt lat="47.44135" lon="6.75133">
        <ele>370.1</ele>
        <time>2017-10-01T09:21:19Z</time>
      </trkpt>
      <trkpt lat="47.44139" lon="6.75139">
        <ele>370.1</ele>
        <time>2017-10-01T09:21:20Z</time>
      </trkpt>
      <trkpt lat="47.44144" lon="6.75145">
        <ele>370.1</ele>
        <time>2017-10-01T09:21:21Z</time>
      </trkpt>
      <trkpt lat="47.44147" lon="6.7515">
        <ele>370.1</ele>
        <time>2017-10-01T09:21:22Z</time>
      </trkpt>
      <trkpt lat="47.44151" lon="6.75156">
        <ele>370.1</ele>
        <time>2017-10-01T09:21:23Z</time>
      </trkpt>
      <trkpt lat="47.44155" lon="6.75161">
        <ele>370</ele>
        <time>2017-10-01T09:21:24Z</time>
      </trkpt>
      <trkpt lat="47.44159" lon="6.75166">
        <ele>370</ele>
        <time>2017-10-01T09:21:25Z</time>
      </trkpt>
      <trkpt lat="47.44162" lon="6.75171">
        <ele>370</ele>
        <time>2017-10-01T09:21:26Z</time>
      </trkpt>
      <trkpt lat="47.44166" lon="6.75176">
        <ele>370</ele>
        <time>2017-10-01T09:21:27Z</time>
      </trkpt>
      <trkpt lat="47.44169" lon="6.75181">
        <ele>370</ele>
        <time>2017-10-01T09:21:28Z</time>
      </trkpt>
      <trkpt lat="47.44173" lon="6.75186">
        <ele>369.9</ele>
        <time>2017-10-01T09:21:29Z</time>
      </trkpt>
      <trkpt lat="47.44176" lon="6.7519">
        <ele>369.9</ele>
        <time>2017-10-01T09:21:30Z</time>
      </trkpt>
      <trkpt lat="47.4418" lon="6.75195">
        <ele>369.9</ele>
        <time>2017-10-01T09:21:31Z</time>
      </trkpt>
      <trkpt lat="47.44184" lon="6.752">
        <ele>369.9</ele>
        <time>2017-10-01T09:21:32Z</time>
      </trkpt>
      <trkpt lat="47.44188" lon="6.75205">
        <ele>369.9</ele>
        <time>2017-10-01T09:21:33Z</time>
      </trkpt>
      <trkpt lat="47.44192" lon="6.7521">
        <ele>369.8</ele>
        <time>2017-10-01T09:21:34Z</time>
      </trkpt>
      <trkpt lat="47.44196" lon="6.75214">
        <ele>369.8</ele>
        <time>2017-10-01T09:21:35Z</time>
      </trkpt>
      <trkpt lat="47.442" lon="6.75219">
        <ele>369.8</ele>
        <time>2017-10-01T09:21:36Z</time>
      </trkpt>
      <trkpt lat="47.44204" lon="6.75224">
        <ele>369.7</ele>
        <time>2017-10-01T09:21:37Z</time>
      </trkpt>
      <trkpt lat="47.44208" lon="6.75228">
        <ele>369.7</ele>
        <time>2017-10-01T09:21:38Z</time>
      </trkpt>
      <trkpt lat="47.44213" lon="6.75233">
        <ele>369.6</ele>
        <time>2017-10-01T09:21:39Z</time>
      </trkpt>
      <trkpt lat="47.44217" lon="6.75237">
        <ele>369.5</ele>
        <time>2017-10-01T09:21:40Z</time>
      </trkpt>
      <trkpt lat="47.44221" lon="6.75241">
        <ele>369.4</ele>
        <time>2017-10-01T09:21:41Z</time>
      </trkpt>
      <trkpt lat="47.44226" lon="6.75245">
        <ele>369.3</ele>
        <time>2017-10-01T09:21:42Z</time>
      </trkpt>
      <trkpt lat="47.4423" lon="6.7525">
        <ele>369.1</ele>
        <time>2017-10-01T09:21:43Z</time>
      </trkpt>
      <trkpt lat="47.44235" lon="6.75254">
        <ele>368.8</ele>
        <time>2017-10-01T09:21:44Z</time>
      </trkpt>
      <trkpt lat="47.44241" lon="6.75258">
        <ele>368.6</ele>
        <time>2017-10-01T09:21:45Z</time>
      </trkpt>
      <trkpt lat="47.44246" lon="6.75262">
        <ele>368.4</ele>
        <time>2017-10-01T09:21:46Z</time>
      </trkpt>
      <trkpt lat="47.44251" lon="6.75266">
        <ele>368.2</ele>
        <time>2017-10-01T09:21:47Z</time>
      </trkpt>
      <trkpt lat="47.44256" lon="6.75269">
        <ele>368.1</ele>
        <time>2017-10-01T09:21:48Z</time>
      </trkpt>
      <trkpt lat="47.44262" lon="6.75273">
        <ele>368</ele>
        <time>2017-10-01T09:21:49Z</time>
      </trkpt>
      <trkpt lat="47.44267" lon="6.75277">
        <ele>367.9</ele>
        <time>2017-10-01T09:21:50Z</time>
      </trkpt>
      <trkpt lat="47.44273" lon="6.75282">
        <ele>367.8</ele>
        <time>2017-10-01T09:21:51Z</time>
      </trkpt>
      <trkpt lat="47.4428" lon="6.75287">
        <ele>367.6</ele>
        <time>2017-10-01T09:21:52Z</time>
      </trkpt>
      <trkpt lat="47.44286" lon="6.75292">
        <ele>367.5</ele>
        <time>2017-10-01T09:21:53Z</time>
      </trkpt>
      <trkpt lat="47.44292" lon="6.75296">
        <ele>367.4</ele>
        <time>2017-10-01T09:21:54Z</time>
      </trkpt>
      <trkpt lat="47.44299" lon="6.753">
        <ele>367.2</ele>
        <time>2017-10-01T09:21:55Z</time>
      </trkpt>
      <trkpt lat="47.44305" lon="6.75304">
        <ele>366.9</ele>
        <time>2017-10-01T09:21:56Z</time>
      </trkpt>
      <trkpt lat="47.44312" lon="6.75308">
        <ele>366.6</ele>
        <time>2017-10-01T09:21:57Z</time>
      </trkpt>
      <trkpt lat="47.44318" lon="6.75311">
        <ele>366.3</ele>
        <time>2017-10-01T09:21:58Z</time>
      </trkpt>
      <trkpt lat="47.44325" lon="6.75314">
        <ele>365.9</ele>
        <time>2017-10-01T09:21:59Z</time>
      </trkpt>
      <trkpt lat="47.44332" lon="6.75316">
        <ele>365.6</ele>
        <time>2017-10-01T09:22:00Z</time>
      </trkpt>
      <trkpt lat="47.44339" lon="6.75318">
        <ele>365.3</ele>
        <time>2017-10-01T09:22:01Z</time>
      </trkpt>
      <trkpt lat="47.44345" lon="6.7532">
        <ele>365</ele>
        <time>2017-10-01T09:22:02Z</time>
      </trkpt>
      <trkpt lat="47.44352" lon="6.75323">
        <ele>364.7</ele>
        <time>2017-10-01T09:22:03Z</time>
      </trkpt>
      <trkpt lat="47.44358" lon="6.75325">
        <ele>364.5</ele>
        <time>2017-10-01T09:22:04Z</time>
      </trkpt>
      <trkpt lat="47.44364" lon="6.75328">
        <ele>364.3</ele>
        <time>2017-10-01T09:22:05Z</time>
      </trkpt>
      <trkpt lat="47.4437" lon="6.7533">
        <ele>364.1</ele>
        <time>2017-10-01T09:22:06Z</time>
      </trkpt>
      <trkpt lat="47.44375" lon="6.75334">
        <ele>364</ele>
        <time>2017-10-01T09:22:07Z</time>
      </trkpt>
      <trkpt lat="47.44381" lon="6.75337">
        <ele>364</ele>
        <time>2017-10-01T09:22:08Z</time>
      </trkpt>
      <trkpt lat="47.44386" lon="6.75341">
        <ele>363.9</ele>
        <time>2017-10-01T09:22:09Z</time>
      </trkpt>
      <trkpt lat="47.4439" lon="6.75345">
        <ele>363.8</ele>
        <time>2017-10-01T09:22:10Z</time>
      </trkpt>
      <trkpt lat="47.44395" lon="6.75349">
        <ele>363.8</ele>
        <time>2017-10-01T09:22:11Z</time>
      </trkpt>
      <trkpt lat="47.444" lon="6.75354">
        <ele>363.8</ele>
        <time>2017-10-01T09:22:12Z</time>
      </trkpt>
      <trkpt lat="47.44405" lon="6.75359">
        <ele>363.7</ele>
        <time>2017-10-01T09:22:13Z</time>
      </trkpt>
      <trkpt lat="47.44411" lon="6.75364">
        <ele>363.7</ele>
        <time>2017-10-01T09:22:14Z</time>
      </trkpt>
      <trkpt lat="47.44417" lon="6.7537">
        <ele>363.6</ele>
        <time>2017-10-01T09:22:15Z</time>
      </trkpt>
      <trkpt lat="47.44423" lon="6.75375">
        <ele>363.6</ele>
        <time>2017-10-01T09:22:16Z</time>
      </trkpt>
      <trkpt lat="47.44428" lon="6.7538">
        <ele>363.6</ele>
        <time>2017-10-01T09:22:17Z</time>
      </trkpt>
      <trkpt lat="47.44433" lon="6.75384">
        <ele>363.5</ele>
        <time>2017-10-01T09:22:18Z</time>
      </trkpt>
      <trkpt lat="47.44437" lon="6.75389">
        <ele>363.5</ele>
        <time>2017-10-01T09:22:19Z</time>
      </trkpt>
      <trkpt lat="47.44442" lon="6.75394">
        <ele>363.4</ele>
        <time>2017-10-01T09:22:20Z</time>
      </trkpt>
      <trkpt lat="47.44447" lon="6.75399">
        <ele>363.4</ele>
        <time>2017-10-01T09:22:21Z</time>
      </trkpt>
      <trkpt lat="47.44452" lon="6.75403">
        <ele>363.3</ele>
        <time>2017-10-01T09:22:22Z</time>
      </trkpt>
      <trkpt lat="47.44456" lon="6.75408">
        <ele>363.2</ele>
        <time>2017-10-01T09:22:23Z</time>
      </trkpt>
      <trkpt lat="47.44462" lon="6.75413">
        <ele>363.2</ele>
        <time>2017-10-01T09:22:24Z</time>
      </trkpt>
      <trkpt lat="47.44468" lon="6.75419">
        <ele>363</ele>
        <time>2017-10-01T09:22:25Z</time>
      </trkpt>
      <trkpt lat="47.44473" lon="6.75424">
        <ele>362.8</ele>
        <time>2017-10-01T09:22:26Z</time>
      </trkpt>
      <trkpt lat="47.44478" lon="6.75428">
        <ele>362.6</ele>
        <time>2017-10-01T09:22:27Z</time>
      </trkpt>
      <trkpt lat="47.44483" lon="6.75432">
        <ele>362.3</ele>
        <time>2017-10-01T09:22:28Z</time>
      </trkpt>
      <trkpt lat="47.44488" lon="6.75436">
        <ele>362.2</ele>
        <time>2017-10-01T09:22:29Z</time>
      </trkpt>
      <trkpt lat="47.44492" lon="6.75439">
        <ele>362.1</ele>
        <time>2017-10-01T09:22:30Z</time>
      </trkpt>
      <trkpt lat="47.44497" lon="6.75442">
        <ele>362</ele>
        <time>2017-10-01T09:22:31Z</time>
      </trkpt>
      <trkpt lat="47.44502" lon="6.75445">
        <ele>362</ele>
        <time>2017-10-01T09:22:32Z</time>
      </trkpt>
      <trkpt lat="47.44505" lon="6.75448">
        <ele>362</ele>
        <time>2017-10-01T09:22:33Z</time>
      </trkpt>
      <trkpt lat="47.4451" lon="6.7545">
        <ele>361.9</ele>
        <time>2017-10-01T09:22:34Z</time>
      </trkpt>
      <trkpt lat="47.44514" lon="6.75452">
        <ele>361.9</ele>
        <time>2017-10-01T09:22:35Z</time>
      </trkpt>
      <trkpt lat="47.4452" lon="6.75455">
        <ele>361.8</ele>
        <time>2017-10-01T09:22:36Z</time>
      </trkpt>
      <trkpt lat="47.44525" lon="6.75457">
        <ele>361.8</ele>
        <time>2017-10-01T09:22:37Z</time>
      </trkpt>
      <trkpt lat="47.4453" lon="6.75457">
        <ele>361.8</ele>
        <time>2017-10-01T09:22:38Z</time>
      </trkpt>
      <trkpt lat="47.44535" lon="6.75458">
        <ele>361.8</ele>
        <time>2017-10-01T09:22:39Z</time>
      </trkpt>
      <trkpt lat="47.4454" lon="6.75458">
        <ele>361.8</ele>
        <time>2017-10-01T09:22:40Z</time>
      </trkpt>
      <trkpt lat="47.44546" lon="6.75458">
        <ele>361.8</ele>
        <time>2017-10-01T09:22:41Z</time>
      </trkpt>
      <trkpt lat="47.44552" lon="6.75459">
        <ele>361.8</ele>
        <time>2017-10-01T09:22:42Z</time>
      </trkpt>
      <trkpt lat="47.44558" lon="6.75458">
        <ele>361.8</ele>
        <time>2017-10-01T09:22:43Z</time>
      </trkpt>
      <trkpt lat="47.44563" lon="6.75458">
        <ele>361.8</ele>
        <time>2017-10-01T09:22:44Z</time>
      </trkpt>
      <trkpt lat="47.44569" lon="6.75457">
        <ele>361.8</ele>
        <time>2017-10-01T09:22:45Z</time>
      </trkpt>
      <trkpt lat="47.44575" lon="6.75456">
        <ele>361.8</ele>
        <time>2017-10-01T09:22:46Z</time>
      </trkpt>
      <trkpt lat="47.44581" lon="6.75456">
        <ele>361.8</ele>
        <time>2017-10-01T09:22:47Z</time>
      </trkpt>
      <trkpt lat="47.44587" lon="6.75455">
        <ele>361.8</ele>
        <time>2017-10-01T09:22:48Z</time>
      </trkpt>
      <trkpt lat="47.44593" lon="6.75454">
        <ele>361.8</ele>
        <time>2017-10-01T09:22:49Z</time>
      </trkpt>
      <trkpt lat="47.44599" lon="6.75453">
        <ele>361.8</ele>
        <time>2017-10-01T09:22:50Z</time>
      </trkpt>
      <trkpt lat="47.44604" lon="6.75452">
        <ele>361.8</ele>
        <time>2017-10-01T09:22:51Z</time>
      </trkpt>
      <trkpt lat="47.44609" lon="6.75451">
        <ele>361.8</ele>
        <time>2017-10-01T09:22:52Z</time>
      </trkpt>
      <trkpt lat="47.44615" lon="6.7545">
        <ele>361.8</ele>
        <time>2017-10-01T09:22:53Z</time>
      </trkpt>
      <trkpt lat="47.44621" lon="6.7545">
        <ele>361.8</ele>
        <time>2017-10-01T09:22:54Z</time>
      </trkpt>
      <trkpt lat="47.44626" lon="6.75449">
        <ele>361.8</ele>
        <time>2017-10-01T09:22:55Z</time>
      </trkpt>
      <trkpt lat="47.44631" lon="6.75449">
        <ele>361.8</ele>
        <time>2017-10-01T09:22:56Z</time>
      </trkpt>
      <trkpt lat="47.44636" lon="6.75449">
        <ele>361.8</ele>
        <time>2017-10-01T09:22:57Z</time>
      </trkpt>
      <trkpt lat="47.44641" lon="6.75449">
        <ele>361.8</ele>
        <time>2017-10-01T09:22:58Z</time>
      </trkpt>
      <trkpt lat="47.44646" lon="6.75449">
        <ele>361.8</ele>
        <time>2017-10-01T09:22:59Z</time>
      </trkpt>
      <trkpt lat="47.44651" lon="6.7545">
        <ele>361.7</ele>
        <time>2017-10-01T09:23:00Z</time>
      </trkpt>
      <trkpt lat="47.44657" lon="6.7545">
        <ele>361.7</ele>
        <time>2017-10-01T09:23:01Z</time>
      </trkpt>
      <trkpt lat="47.44662" lon="6.75451">
        <ele>361.7</ele>
        <time>2017-10-01T09:23:02Z</time>
      </trkpt>
      <trkpt lat="47.44667" lon="6.75451">
        <ele>361.6</ele>
        <time>2017-10-01T09:23:03Z</time>
      </trkpt>
      <trkpt lat="47.44673" lon="6.75451">
        <ele>361.6</ele>
        <time>2017-10-01T09:23:04Z</time>
      </trkpt>
      <trkpt lat="47.44679" lon="6.75452">
        <ele>361.6</ele>
        <time>2017-10-01T09:23:05Z</time>
      </trkpt>
      <trkpt lat="47.44686" lon="6.75452">
        <ele>361.5</ele>
        <time>2017-10-01T09:23:06Z</time>
      </trkpt>
      <trkpt lat="47.44692" lon="6.75452">
        <ele>361.4</ele>
        <time>2017-10-01T09:23:07Z</time>
      </trkpt>
      <trkpt lat="47.44699" lon="6.75453">
        <ele>361.3</ele>
        <time>2017-10-01T09:23:08Z</time>
      </trkpt>
      <trkpt lat="47.44705" lon="6.75453">
        <ele>361.1</ele>
        <time>2017-10-01T09:23:09Z</time>
      </trkpt>
      <trkpt lat="47.44711" lon="6.75452">
        <ele>360.8</ele>
        <time>2017-10-01T09:23:10Z</time>
      </trkpt>
      <trkpt lat="47.44718" lon="6.75452">
        <ele>360.5</ele>
        <time>2017-10-01T09:23:11Z</time>
      </trkpt>
      <trkpt lat="47.44724" lon="6.75451">
        <ele>360.3</ele>
        <time>2017-10-01T09:23:12Z</time>
      </trkpt>
      <trkpt lat="47.44731" lon="6.7545">
        <ele>360</ele>
        <time>2017-10-01T09:23:13Z</time>
      </trkpt>
      <trkpt lat="47.44736" lon="6.75449">
        <ele>359.8</ele>
        <time>2017-10-01T09:23:14Z</time>
      </trkpt>
      <trkpt lat="47.44742" lon="6.75448">
        <ele>359.7</ele>
        <time>2017-10-01T09:23:15Z</time>
      </trkpt>
      <trkpt lat="47.44749" lon="6.75447">
        <ele>359.6</ele>
        <time>2017-10-01T09:23:16Z</time>
      </trkpt>
      <trkpt lat="47.44755" lon="6.75446">
        <ele>359.5</ele>
        <time>2017-10-01T09:23:17Z</time>
      </trkpt>
      <trkpt lat="47.44761" lon="6.75445">
        <ele>359.4</ele>
        <time>2017-10-01T09:23:18Z</time>
      </trkpt>
      <trkpt lat="47.44768" lon="6.75444">
        <ele>359.2</ele>
        <time>2017-10-01T09:23:19Z</time>
      </trkpt>
      <trkpt lat="47.44773" lon="6.75443">
        <ele>358.9</ele>
        <time>2017-10-01T09:23:20Z</time>
      </trkpt>
      <trkpt lat="47.44778" lon="6.75442">
        <ele>358.7</ele>
        <time>2017-10-01T09:23:21Z</time>
      </trkpt>
      <trkpt lat="47.44784" lon="6.75441">
        <ele>358.5</ele>
        <time>2017-10-01T09:23:22Z</time>
      </trkpt>
      <trkpt lat="47.4479" lon="6.7544">
        <ele>358.3</ele>
        <time>2017-10-01T09:23:23Z</time>
      </trkpt>
      <trkpt lat="47.44796" lon="6.75439">
        <ele>358.1</ele>
        <time>2017-10-01T09:23:24Z</time>
      </trkpt>
      <trkpt lat="47.44801" lon="6.75438">
        <ele>358.1</ele>
        <time>2017-10-01T09:23:25Z</time>
      </trkpt>
      <trkpt lat="47.44807" lon="6.75437">
        <ele>358</ele>
        <time>2017-10-01T09:23:26Z</time>
      </trkpt>
      <trkpt lat="47.44813" lon="6.75436">
        <ele>358</ele>
        <time>2017-10-01T09:23:27Z</time>
      </trkpt>
      <trkpt lat="47.44819" lon="6.75435">
        <ele>357.9</ele>
        <time>2017-10-01T09:23:28Z</time>
      </trkpt>
      <trkpt lat="47.44825" lon="6.75434">
        <ele>357.9</ele>
        <time>2017-10-01T09:23:29Z</time>
      </trkpt>
      <trkpt lat="47.44831" lon="6.75433">
        <ele>357.9</ele>
        <time>2017-10-01T09:23:30Z</time>
      </trkpt>
      <trkpt lat="47.44836" lon="6.75432">
        <ele>357.9</ele>
        <time>2017-10-01T09:23:31Z</time>
      </trkpt>
      <trkpt lat="47.44842" lon="6.75432">
        <ele>357.9</ele>
        <time>2017-10-01T09:23:32Z</time>
      </trkpt>
      <trkpt lat="47.44846" lon="6.75431">
        <ele>357.8</ele>
        <time>2017-10-01T09:23:33Z</time>
      </trkpt>
      <trkpt lat="47.44851" lon="6.75431">
        <ele>357.8</ele>
        <time>2017-10-01T09:23:34Z</time>
      </trkpt>
      <trkpt lat="47.44857" lon="6.7543">
        <ele>357.8</ele>
        <time>2017-10-01T09:23:35Z</time>
      </trkpt>
      <trkpt lat="47.44863" lon="6.75429">
        <ele>357.8</ele>
        <time>2017-10-01T09:23:36Z</time>
      </trkpt>
      <trkpt lat="47.44869" lon="6.75428">
        <ele>357.8</ele>
        <time>2017-10-01T09:23:37Z</time>
      </trkpt>
      <trkpt lat="47.44875" lon="6.75428">
        <ele>357.8</ele>
        <time>2017-10-01T09:23:38Z</time>
      </trkpt>
      <trkpt lat="47.44881" lon="6.75428">
        <ele>357.8</ele>
        <time>2017-10-01T09:23:39Z</time>
      </trkpt>
      <trkpt lat="47.44887" lon="6.75428">
        <ele>357.7</ele>
        <time>2017-10-01T09:23:40Z</time>
      </trkpt>
      <trkpt lat="47.44892" lon="6.75428">
        <ele>357.7</ele>
        <time>2017-10-01T09:23:41Z</time>
      </trkpt>
      <trkpt lat="47.44897" lon="6.75428">
        <ele>357.7</ele>
        <time>2017-10-01T09:23:42Z</time>
      </trkpt>
      <trkpt lat="47.44902" lon="6.75429">
        <ele>357.7</ele>
        <time>2017-10-01T09:23:43Z</time>
      </trkpt>
      <trkpt lat="47.44907" lon="6.75429">
        <ele>357.6</ele>
        <time>2017-10-01T09:23:44Z</time>
      </trkpt>
      <trkpt lat="47.44912" lon="6.75429">
        <ele>357.6</ele>
        <time>2017-10-01T09:23:45Z</time>
      </trkpt>
      <trkpt lat="47.44918" lon="6.75429">
        <ele>357.6</ele>
        <time>2017-10-01T09:23:46Z</time>
      </trkpt>
      <trkpt lat="47.44923" lon="6.75429">
        <ele>357.5</ele>
        <time>2017-10-01T09:23:47Z</time>
      </trkpt>
      <trkpt lat="47.44929" lon="6.7543">
        <ele>357.5</ele>
        <time>2017-10-01T09:23:48Z</time>
      </trkpt>
      <trkpt lat="47.44934" lon="6.7543">
        <ele>357.4</ele>
        <time>2017-10-01T09:23:49Z</time>
      </trkpt>
      <trkpt lat="47.4494" lon="6.75431">
        <ele>357.3</ele>
        <time>2017-10-01T09:23:50Z</time>
      </trkpt>
      <trkpt lat="47.44946" lon="6.75432">
        <ele>357.1</ele>
        <time>2017-10-01T09:23:51Z</time>
      </trkpt>
      <trkpt lat="47.44952" lon="6.75433">
        <ele>356.8</ele>
        <time>2017-10-01T09:23:52Z</time>
      </trkpt>
      <trkpt lat="47.44958" lon="6.75434">
        <ele>356.6</ele>
        <time>2017-10-01T09:23:53Z</time>
      </trkpt>
      <trkpt lat="47.44964" lon="6.75435">
        <ele>356.4</ele>
        <time>2017-10-01T09:23:54Z</time>
      </trkpt>
      <trkpt lat="47.4497" lon="6.75436">
        <ele>356.2</ele>
        <time>2017-10-01T09:23:55Z</time>
      </trkpt>
      <trkpt lat="47.44975" lon="6.75437">
        <ele>356.1</ele>
        <time>2017-10-01T09:23:56Z</time>
      </trkpt>
      <trkpt lat="47.44981" lon="6.75438">
        <ele>355.9</ele>
        <time>2017-10-01T09:23:57Z</time>
      </trkpt>
      <trkpt lat="47.44987" lon="6.75439">
        <ele>355.8</ele>
        <time>2017-10-01T09:23:58Z</time>
      </trkpt>
      <trkpt lat="47.44994" lon="6.7544">
        <ele>355.7</ele>
        <time>2017-10-01T09:23:59Z</time>
      </trkpt>
      <trkpt lat="47.44999" lon="6.75441">
        <ele>355.6</ele>
        <time>2017-10-01T09:24:00Z</time>
      </trkpt>
      <trkpt lat="47.45005" lon="6.75442">
        <ele>355.6</ele>
        <time>2017-10-01T09:24:01Z</time>
      </trkpt>
      <trkpt lat="47.45012" lon="6.75443">
        <ele>355.5</ele>
        <time>2017-10-01T09:24:02Z</time>
      </trkpt>
      <trkpt lat="47.45017" lon="6.75444">
        <ele>355.4</ele>
        <time>2017-10-01T09:24:03Z</time>
      </trkpt>
      <trkpt lat="47.45023" lon="6.75444">
        <ele>355.2</ele>
        <time>2017-10-01T09:24:04Z</time>
      </trkpt>
      <trkpt lat="47.45028" lon="6.75444">
        <ele>355</ele>
        <time>2017-10-01T09:24:05Z</time>
      </trkpt>
      <trkpt lat="47.45033" lon="6.75445">
        <ele>354.8</ele>
        <time>2017-10-01T09:24:06Z</time>
      </trkpt>
      <trkpt lat="47.45038" lon="6.75445">
        <ele>354.6</ele>
        <time>2017-10-01T09:24:07Z</time>
      </trkpt>
      <trkpt lat="47.45049" lon="6.75446">
        <ele>354.3</ele>
        <time>2017-10-01T09:24:09Z</time>
      </trkpt>
      <trkpt lat="47.45056" lon="6.75445">
        <ele>354.2</ele>
        <time>2017-10-01T09:24:10Z</time>
      </trkpt>
      <trkpt lat="47.45061" lon="6.75445">
        <ele>354.2</ele>
        <time>2017-10-01T09:24:11Z</time>
      </trkpt>
      <trkpt lat="47.45066" lon="6.75444">
        <ele>354.1</ele>
        <time>2017-10-01T09:24:12Z</time>
      </trkpt>
      <trkpt lat="47.4507" lon="6.75443">
        <ele>354.1</ele>
        <time>2017-10-01T09:24:13Z</time>
      </trkpt>
      <trkpt lat="47.45075" lon="6.75441">
        <ele>354</ele>
        <time>2017-10-01T09:24:14Z</time>
      </trkpt>
      <trkpt lat="47.4508" lon="6.7544">
        <ele>354</ele>
        <time>2017-10-01T09:24:15Z</time>
      </trkpt>
      <trkpt lat="47.45086" lon="6.75439">
        <ele>354</ele>
        <time>2017-10-01T09:24:16Z</time>
      </trkpt>
      <trkpt lat="47.45091" lon="6.75437">
        <ele>354</ele>
        <time>2017-10-01T09:24:17Z</time>
      </trkpt>
      <trkpt lat="47.45096" lon="6.75436">
        <ele>354</ele>
        <time>2017-10-01T09:24:18Z</time>
      </trkpt>
      <trkpt lat="47.45102" lon="6.75435">
        <ele>353.9</ele>
        <time>2017-10-01T09:24:19Z</time>
      </trkpt>
      <trkpt lat="47.45108" lon="6.75433">
        <ele>353.9</ele>
        <time>2017-10-01T09:24:20Z</time>
      </trkpt>
      <trkpt lat="47.45113" lon="6.75432">
        <ele>353.9</ele>
        <time>2017-10-01T09:24:21Z</time>
      </trkpt>
      <trkpt lat="47.45119" lon="6.75431">
        <ele>353.9</ele>
        <time>2017-10-01T09:24:22Z</time>
      </trkpt>
      <trkpt lat="47.45124" lon="6.7543">
        <ele>353.9</ele>
        <time>2017-10-01T09:24:23Z</time>
      </trkpt>
      <trkpt lat="47.4513" lon="6.75429">
        <ele>353.8</ele>
        <time>2017-10-01T09:24:24Z</time>
      </trkpt>
      <trkpt lat="47.45136" lon="6.75428">
        <ele>353.8</ele>
        <time>2017-10-01T09:24:25Z</time>
      </trkpt>
      <trkpt lat="47.45141" lon="6.75427">
        <ele>353.7</ele>
        <time>2017-10-01T09:24:26Z</time>
      </trkpt>
      <trkpt lat="47.45147" lon="6.75425">
        <ele>353.7</ele>
        <time>2017-10-01T09:24:27Z</time>
      </trkpt>
      <trkpt lat="47.45153" lon="6.75424">
        <ele>353.6</ele>
        <time>2017-10-01T09:24:28Z</time>
      </trkpt>
      <trkpt lat="47.45158" lon="6.75422">
        <ele>353.5</ele>
        <time>2017-10-01T09:24:29Z</time>
      </trkpt>
      <trkpt lat="47.45165" lon="6.75421">
        <ele>353.5</ele>
        <time>2017-10-01T09:24:30Z</time>
      </trkpt>
      <trkpt lat="47.45171" lon="6.75418">
        <ele>353.4</ele>
        <time>2017-10-01T09:24:31Z</time>
      </trkpt>
      <trkpt lat="47.45176" lon="6.75416">
        <ele>353.2</ele>
        <time>2017-10-01T09:24:32Z</time>
      </trkpt>
      <trkpt lat="47.45182" lon="6.75414">
        <ele>353.1</ele>
        <time>2017-10-01T09:24:33Z</time>
      </trkpt>
      <trkpt lat="47.45187" lon="6.75411">
        <ele>352.9</ele>
        <time>2017-10-01T09:24:34Z</time>
      </trkpt>
      <trkpt lat="47.45192" lon="6.75408">
        <ele>352.7</ele>
        <time>2017-10-01T09:24:35Z</time>
      </trkpt>
      <trkpt lat="47.45197" lon="6.75404">
        <ele>352.5</ele>
        <time>2017-10-01T09:24:36Z</time>
      </trkpt>
      <trkpt lat="47.45202" lon="6.75402">
        <ele>352.4</ele>
        <time>2017-10-01T09:24:37Z</time>
      </trkpt>
      <trkpt lat="47.45206" lon="6.75398">
        <ele>352.3</ele>
        <time>2017-10-01T09:24:38Z</time>
      </trkpt>
      <trkpt lat="47.45212" lon="6.75395">
        <ele>352.3</ele>
        <time>2017-10-01T09:24:39Z</time>
      </trkpt>
      <trkpt lat="47.45216" lon="6.75392">
        <ele>352.2</ele>
        <time>2017-10-01T09:24:40Z</time>
      </trkpt>
      <trkpt lat="47.45221" lon="6.75389">
        <ele>352.2</ele>
        <time>2017-10-01T09:24:41Z</time>
      </trkpt>
      <trkpt lat="47.45226" lon="6.75386">
        <ele>352.1</ele>
        <time>2017-10-01T09:24:42Z</time>
      </trkpt>
      <trkpt lat="47.45232" lon="6.75383">
        <ele>352.1</ele>
        <time>2017-10-01T09:24:43Z</time>
      </trkpt>
      <trkpt lat="47.45238" lon="6.75379">
        <ele>352.1</ele>
        <time>2017-10-01T09:24:44Z</time>
      </trkpt>
      <trkpt lat="47.45243" lon="6.75376">
        <ele>352.1</ele>
        <time>2017-10-01T09:24:45Z</time>
      </trkpt>
      <trkpt lat="47.45248" lon="6.75374">
        <ele>352</ele>
        <time>2017-10-01T09:24:46Z</time>
      </trkpt>
      <trkpt lat="47.45253" lon="6.75371">
        <ele>352</ele>
        <time>2017-10-01T09:24:47Z</time>
      </trkpt>
      <trkpt lat="47.45258" lon="6.75368">
        <ele>352</ele>
        <time>2017-10-01T09:24:48Z</time>
      </trkpt>
      <trkpt lat="47.45262" lon="6.75366">
        <ele>352</ele>
        <time>2017-10-01T09:24:49Z</time>
      </trkpt>
      <trkpt lat="47.45267" lon="6.75363">
        <ele>352</ele>
        <time>2017-10-01T09:24:50Z</time>
      </trkpt>
      <trkpt lat="47.45273" lon="6.7536">
        <ele>352</ele>
        <time>2017-10-01T09:24:51Z</time>
      </trkpt>
      <trkpt lat="47.45278" lon="6.75357">
        <ele>352</ele>
        <time>2017-10-01T09:24:52Z</time>
      </trkpt>
      <trkpt lat="47.45283" lon="6.75354">
        <ele>352</ele>
        <time>2017-10-01T09:24:53Z</time>
      </trkpt>
      <trkpt lat="47.45289" lon="6.75351">
        <ele>352</ele>
        <time>2017-10-01T09:24:54Z</time>
      </trkpt>
      <trkpt lat="47.45294" lon="6.75348">
        <ele>352</ele>
        <time>2017-10-01T09:24:55Z</time>
      </trkpt>
      <trkpt lat="47.45299" lon="6.75345">
        <ele>352</ele>
        <time>2017-10-01T09:24:56Z</time>
      </trkpt>
      <trkpt lat="47.45303" lon="6.75342">
        <ele>352</ele>
        <time>2017-10-01T09:24:57Z</time>
      </trkpt>
      <trkpt lat="47.45308" lon="6.75339">
        <ele>352</ele>
        <time>2017-10-01T09:24:58Z</time>
      </trkpt>
      <trkpt lat="47.45313" lon="6.75336">
        <ele>352</ele>
        <time>2017-10-01T09:24:59Z</time>
      </trkpt>
      <trkpt lat="47.45318" lon="6.75334">
        <ele>351.9</ele>
        <time>2017-10-01T09:25:00Z</time>
      </trkpt>
      <trkpt lat="47.45323" lon="6.75331">
        <ele>351.9</ele>
        <time>2017-10-01T09:25:01Z</time>
      </trkpt>
      <trkpt lat="47.45328" lon="6.75329">
        <ele>351.9</ele>
        <time>2017-10-01T09:25:02Z</time>
      </trkpt>
      <trkpt lat="47.45333" lon="6.75326">
        <ele>351.9</ele>
        <time>2017-10-01T09:25:03Z</time>
      </trkpt>
      <trkpt lat="47.45338" lon="6.75323">
        <ele>351.9</ele>
        <time>2017-10-01T09:25:04Z</time>
      </trkpt>
      <trkpt lat="47.45343" lon="6.75323">
        <ele>351.9</ele>
        <time>2017-10-01T09:25:05Z</time>
      </trkpt>
      <trkpt lat="47.45349" lon="6.7532">
        <ele>351.8</ele>
        <time>2017-10-01T09:25:06Z</time>
      </trkpt>
      <trkpt lat="47.45354" lon="6.75318">
        <ele>351.8</ele>
        <time>2017-10-01T09:25:07Z</time>
      </trkpt>
      <trkpt lat="47.45359" lon="6.75315">
        <ele>351.8</ele>
        <time>2017-10-01T09:25:08Z</time>
      </trkpt>
      <trkpt lat="47.45366" lon="6.75311">
        <ele>351.7</ele>
        <time>2017-10-01T09:25:09Z</time>
      </trkpt>
      <trkpt lat="47.45372" lon="6.75307">
        <ele>351.7</ele>
        <time>2017-10-01T09:25:10Z</time>
      </trkpt>
      <trkpt lat="47.45379" lon="6.75303">
        <ele>351.6</ele>
        <time>2017-10-01T09:25:11Z</time>
      </trkpt>
      <trkpt lat="47.45386" lon="6.753">
        <ele>351.5</ele>
        <time>2017-10-01T09:25:12Z</time>
      </trkpt>
      <trkpt lat="47.45393" lon="6.75297">
        <ele>351.3</ele>
        <time>2017-10-01T09:25:13Z</time>
      </trkpt>
      <trkpt lat="47.454" lon="6.75297">
        <ele>351.1</ele>
        <time>2017-10-01T09:25:14Z</time>
      </trkpt>
      <trkpt lat="47.45407" lon="6.75297">
        <ele>351</ele>
        <time>2017-10-01T09:25:15Z</time>
      </trkpt>
      <trkpt lat="47.45414" lon="6.75297">
        <ele>350.7</ele>
        <time>2017-10-01T09:25:16Z</time>
      </trkpt>
      <trkpt lat="47.45421" lon="6.75298">
        <ele>350.3</ele>
        <time>2017-10-01T09:25:17Z</time>
      </trkpt>
      <trkpt lat="47.45428" lon="6.753">
        <ele>349.9</ele>
        <time>2017-10-01T09:25:18Z</time>
      </trkpt>
      <trkpt lat="47.45435" lon="6.75301">
        <ele>349.5</ele>
        <time>2017-10-01T09:25:19Z</time>
      </trkpt>
      <trkpt lat="47.4544" lon="6.75303">
        <ele>349.2</ele>
        <time>2017-10-01T09:25:20Z</time>
      </trkpt>
      <trkpt lat="47.45445" lon="6.75304">
        <ele>349</ele>
        <time>2017-10-01T09:25:21Z</time>
      </trkpt>
      <trkpt lat="47.4545" lon="6.75306">
        <ele>348.8</ele>
        <time>2017-10-01T09:25:22Z</time>
      </trkpt>
      <trkpt lat="47.45456" lon="6.75308">
        <ele>348.5</ele>
        <time>2017-10-01T09:25:23Z</time>
      </trkpt>
      <trkpt lat="47.45462" lon="6.7531">
        <ele>348.2</ele>
        <time>2017-10-01T09:25:24Z</time>
      </trkpt>
      <trkpt lat="47.45468" lon="6.75312">
        <ele>347.9</ele>
        <time>2017-10-01T09:25:25Z</time>
      </trkpt>
      <trkpt lat="47.45474" lon="6.75314">
        <ele>347.7</ele>
        <time>2017-10-01T09:25:26Z</time>
      </trkpt>
      <trkpt lat="47.4548" lon="6.75316">
        <ele>347.4</ele>
        <time>2017-10-01T09:25:27Z</time>
      </trkpt>
      <trkpt lat="47.45486" lon="6.75318">
        <ele>347.3</ele>
        <time>2017-10-01T09:25:28Z</time>
      </trkpt>
      <trkpt lat="47.45492" lon="6.7532">
        <ele>347.1</ele>
        <time>2017-10-01T09:25:29Z</time>
      </trkpt>
      <trkpt lat="47.45497" lon="6.75322">
        <ele>347.1</ele>
        <time>2017-10-01T09:25:30Z</time>
      </trkpt>
      <trkpt lat="47.45504" lon="6.75324">
        <ele>347</ele>
        <time>2017-10-01T09:25:31Z</time>
      </trkpt>
      <trkpt lat="47.45511" lon="6.75327">
        <ele>347</ele>
        <time>2017-10-01T09:25:32Z</time>
      </trkpt>
      <trkpt lat="47.45517" lon="6.75329">
        <ele>346.9</ele>
        <time>2017-10-01T09:25:33Z</time>
      </trkpt>
      <trkpt lat="47.45522" lon="6.75332">
        <ele>346.9</ele>
        <time>2017-10-01T09:25:34Z</time>
      </trkpt>
      <trkpt lat="47.45528" lon="6.75335">
        <ele>346.8</ele>
        <time>2017-10-01T09:25:35Z</time>
      </trkpt>
      <trkpt lat="47.45535" lon="6.75338">
        <ele>346.8</ele>
        <time>2017-10-01T09:25:36Z</time>
      </trkpt>
      <trkpt lat="47.45541" lon="6.75341">
        <ele>346.7</ele>
        <time>2017-10-01T09:25:37Z</time>
      </trkpt>
      <trkpt lat="47.45547" lon="6.75344">
        <ele>346.7</ele>
        <time>2017-10-01T09:25:38Z</time>
      </trkpt>
      <trkpt lat="47.45552" lon="6.75347">
        <ele>346.7</ele>
        <time>2017-10-01T09:25:39Z</time>
      </trkpt>
      <trkpt lat="47.45558" lon="6.7535">
        <ele>346.7</ele>
        <time>2017-10-01T09:25:40Z</time>
      </trkpt>
      <trkpt lat="47.45563" lon="6.75353">
        <ele>346.6</ele>
        <time>2017-10-01T09:25:41Z</time>
      </trkpt>
      <trkpt lat="47.45568" lon="6.75356">
        <ele>346.6</ele>
        <time>2017-10-01T09:25:42Z</time>
      </trkpt>
      <trkpt lat="47.45573" lon="6.7536">
        <ele>346.6</ele>
        <time>2017-10-01T09:25:43Z</time>
      </trkpt>
      <trkpt lat="47.45578" lon="6.75362">
        <ele>346.6</ele>
        <time>2017-10-01T09:25:44Z</time>
      </trkpt>
      <trkpt lat="47.45583" lon="6.75366">
        <ele>346.6</ele>
        <time>2017-10-01T09:25:45Z</time>
      </trkpt>
      <trkpt lat="47.45589" lon="6.75369">
        <ele>346.5</ele>
        <time>2017-10-01T09:25:46Z</time>
      </trkpt>
      <trkpt lat="47.45595" lon="6.75372">
        <ele>346.5</ele>
        <time>2017-10-01T09:25:47Z</time>
      </trkpt>
      <trkpt lat="47.45601" lon="6.75375">
        <ele>346.5</ele>
        <time>2017-10-01T09:25:48Z</time>
      </trkpt>
      <trkpt lat="47.45606" lon="6.75378">
        <ele>346.5</ele>
        <time>2017-10-01T09:25:49Z</time>
      </trkpt>
      <trkpt lat="47.45611" lon="6.75381">
        <ele>346.5</ele>
        <time>2017-10-01T09:25:50Z</time>
      </trkpt>
      <trkpt lat="47.45616" lon="6.75384">
        <ele>346.5</ele>
        <time>2017-10-01T09:25:51Z</time>
      </trkpt>
      <trkpt lat="47.45622" lon="6.75387">
        <ele>346.4</ele>
        <time>2017-10-01T09:25:52Z</time>
      </trkpt>
      <trkpt lat="47.45628" lon="6.75391">
        <ele>346.4</ele>
        <time>2017-10-01T09:25:53Z</time>
      </trkpt>
      <trkpt lat="47.45634" lon="6.75395">
        <ele>346.4</ele>
        <time>2017-10-01T09:25:54Z</time>
      </trkpt>
      <trkpt lat="47.45639" lon="6.75399">
        <ele>346.4</ele>
        <time>2017-10-01T09:25:55Z</time>
      </trkpt>
      <trkpt lat="47.45645" lon="6.75404">
        <ele>346.4</ele>
        <time>2017-10-01T09:25:56Z</time>
      </trkpt>
      <trkpt lat="47.4565" lon="6.75408">
        <ele>346.4</ele>
        <time>2017-10-01T09:25:57Z</time>
      </trkpt>
      <trkpt lat="47.45655" lon="6.75413">
        <ele>346.4</ele>
        <time>2017-10-01T09:25:58Z</time>
      </trkpt>
      <trkpt lat="47.4566" lon="6.75419">
        <ele>346.3</ele>
        <time>2017-10-01T09:25:59Z</time>
      </trkpt>
      <trkpt lat="47.45665" lon="6.75424">
        <ele>346.3</ele>
        <time>2017-10-01T09:26:00Z</time>
      </trkpt>
      <trkpt lat="47.4567" lon="6.75429">
        <ele>346.3</ele>
        <time>2017-10-01T09:26:01Z</time>
      </trkpt>
      <trkpt lat="47.45675" lon="6.75434">
        <ele>346.3</ele>
        <time>2017-10-01T09:26:02Z</time>
      </trkpt>
      <trkpt lat="47.45679" lon="6.75439">
        <ele>346.3</ele>
        <time>2017-10-01T09:26:03Z</time>
      </trkpt>
      <trkpt lat="47.45684" lon="6.75445">
        <ele>346.3</ele>
        <time>2017-10-01T09:26:04Z</time>
      </trkpt>
      <trkpt lat="47.45688" lon="6.7545">
        <ele>346.2</ele>
        <time>2017-10-01T09:26:05Z</time>
      </trkpt>
      <trkpt lat="47.45693" lon="6.75456">
        <ele>346.2</ele>
        <time>2017-10-01T09:26:06Z</time>
      </trkpt>
      <trkpt lat="47.45697" lon="6.75461">
        <ele>346.2</ele>
        <time>2017-10-01T09:26:07Z</time>
      </trkpt>
      <trkpt lat="47.45705" lon="6.75472">
        <ele>346.1</ele>
        <time>2017-10-01T09:26:09Z</time>
      </trkpt>
      <trkpt lat="47.4571" lon="6.75479">
        <ele>346.1</ele>
        <time>2017-10-01T09:26:10Z</time>
      </trkpt>
      <trkpt lat="47.45714" lon="6.75484">
        <ele>346.1</ele>
        <time>2017-10-01T09:26:11Z</time>
      </trkpt>
      <trkpt lat="47.45718" lon="6.7549">
        <ele>346</ele>
        <time>2017-10-01T09:26:12Z</time>
      </trkpt>
      <trkpt lat="47.45722" lon="6.75497">
        <ele>346</ele>
        <time>2017-10-01T09:26:13Z</time>
      </trkpt>
      <trkpt lat="47.45727" lon="6.75504">
        <ele>346</ele>
        <time>2017-10-01T09:26:14Z</time>
      </trkpt>
      <trkpt lat="47.45732" lon="6.75513">
        <ele>345.9</ele>
        <time>2017-10-01T09:26:15Z</time>
      </trkpt>
      <trkpt lat="47.45736" lon="6.75521">
        <ele>345.8</ele>
        <time>2017-10-01T09:26:16Z</time>
      </trkpt>
      <trkpt lat="47.45741" lon="6.7553">
        <ele>345.7</ele>
        <time>2017-10-01T09:26:17Z</time>
      </trkpt>
      <trkpt lat="47.45745" lon="6.75537">
        <ele>345.6</ele>
        <time>2017-10-01T09:26:18Z</time>
      </trkpt>
      <trkpt lat="47.45748" lon="6.75545">
        <ele>345.5</ele>
        <time>2017-10-01T09:26:19Z</time>
      </trkpt>
      <trkpt lat="47.45752" lon="6.75552">
        <ele>345.3</ele>
        <time>2017-10-01T09:26:20Z</time>
      </trkpt>
      <trkpt lat="47.45756" lon="6.75559">
        <ele>345.1</ele>
        <time>2017-10-01T09:26:21Z</time>
      </trkpt>
      <trkpt lat="47.45761" lon="6.75568">
        <ele>344.7</ele>
        <time>2017-10-01T09:26:22Z</time>
      </trkpt>
      <trkpt lat="47.45766" lon="6.75577">
        <ele>344.4</ele>
        <time>2017-10-01T09:26:23Z</time>
      </trkpt>
      <trkpt lat="47.4577" lon="6.75584">
        <ele>344.1</ele>
        <time>2017-10-01T09:26:24Z</time>
      </trkpt>
      <trkpt lat="47.45775" lon="6.75592">
        <ele>343.9</ele>
        <time>2017-10-01T09:26:25Z</time>
      </trkpt>
      <trkpt lat="47.45779" lon="6.756">
        <ele>343.7</ele>
        <time>2017-10-01T09:26:26Z</time>
      </trkpt>
      <trkpt lat="47.45784" lon="6.75608">
        <ele>343.5</ele>
        <time>2017-10-01T09:26:27Z</time>
      </trkpt>
      <trkpt lat="47.45789" lon="6.75615">
        <ele>343.4</ele>
        <time>2017-10-01T09:26:28Z</time>
      </trkpt>
      <trkpt lat="47.45794" lon="6.75622">
        <ele>343.1</ele>
        <time>2017-10-01T09:26:29Z</time>
      </trkpt>
      <trkpt lat="47.45799" lon="6.75628">
        <ele>342.8</ele>
        <time>2017-10-01T09:26:30Z</time>
      </trkpt>
      <trkpt lat="47.45804" lon="6.75633">
        <ele>342.5</ele>
        <time>2017-10-01T09:26:31Z</time>
      </trkpt>
      <trkpt lat="47.4581" lon="6.75639">
        <ele>342.2</ele>
        <time>2017-10-01T09:26:32Z</time>
      </trkpt>
      <trkpt lat="47.45816" lon="6.75644">
        <ele>342</ele>
        <time>2017-10-01T09:26:33Z</time>
      </trkpt>
      <trkpt lat="47.45821" lon="6.75649">
        <ele>341.9</ele>
        <time>2017-10-01T09:26:34Z</time>
      </trkpt>
      <trkpt lat="47.45827" lon="6.75654">
        <ele>341.9</ele>
        <time>2017-10-01T09:26:35Z</time>
      </trkpt>
      <trkpt lat="47.45831" lon="6.75659">
        <ele>341.8</ele>
        <time>2017-10-01T09:26:36Z</time>
      </trkpt>
      <trkpt lat="47.45836" lon="6.75664">
        <ele>341.7</ele>
        <time>2017-10-01T09:26:37Z</time>
      </trkpt>
      <trkpt lat="47.45841" lon="6.75668">
        <ele>341.7</ele>
        <time>2017-10-01T09:26:38Z</time>
      </trkpt>
      <trkpt lat="47.45845" lon="6.75672">
        <ele>341.6</ele>
        <time>2017-10-01T09:26:39Z</time>
      </trkpt>
      <trkpt lat="47.4585" lon="6.75676">
        <ele>341.6</ele>
        <time>2017-10-01T09:26:40Z</time>
      </trkpt>
      <trkpt lat="47.45856" lon="6.75681">
        <ele>341.5</ele>
        <time>2017-10-01T09:26:41Z</time>
      </trkpt>
      <trkpt lat="47.45861" lon="6.75685">
        <ele>341.5</ele>
        <time>2017-10-01T09:26:42Z</time>
      </trkpt>
      <trkpt lat="47.45866" lon="6.75689">
        <ele>341.5</ele>
        <time>2017-10-01T09:26:43Z</time>
      </trkpt>
      <trkpt lat="47.45872" lon="6.75694">
        <ele>341.4</ele>
        <time>2017-10-01T09:26:44Z</time>
      </trkpt>
      <trkpt lat="47.45878" lon="6.75698">
        <ele>341.4</ele>
        <time>2017-10-01T09:26:45Z</time>
      </trkpt>
      <trkpt lat="47.45884" lon="6.75702">
        <ele>341.4</ele>
        <time>2017-10-01T09:26:46Z</time>
      </trkpt>
      <trkpt lat="47.4589" lon="6.75706">
        <ele>341.3</ele>
        <time>2017-10-01T09:26:47Z</time>
      </trkpt>
      <trkpt lat="47.45895" lon="6.7571">
        <ele>341.3</ele>
        <time>2017-10-01T09:26:48Z</time>
      </trkpt>
      <trkpt lat="47.459" lon="6.75714">
        <ele>341.3</ele>
        <time>2017-10-01T09:26:49Z</time>
      </trkpt>
      <trkpt lat="47.45906" lon="6.75718">
        <ele>341.3</ele>
        <time>2017-10-01T09:26:50Z</time>
      </trkpt>
      <trkpt lat="47.45912" lon="6.75723">
        <ele>341.3</ele>
        <time>2017-10-01T09:26:51Z</time>
      </trkpt>
      <trkpt lat="47.45916" lon="6.75726">
        <ele>341.2</ele>
        <time>2017-10-01T09:26:52Z</time>
      </trkpt>
      <trkpt lat="47.45921" lon="6.7573">
        <ele>341.2</ele>
        <time>2017-10-01T09:26:53Z</time>
      </trkpt>
      <trkpt lat="47.45925" lon="6.75733">
        <ele>341.2</ele>
        <time>2017-10-01T09:26:54Z</time>
      </trkpt>
      <trkpt lat="47.45929" lon="6.75736">
        <ele>341.2</ele>
        <time>2017-10-01T09:26:55Z</time>
      </trkpt>
      <trkpt lat="47.45933" lon="6.7574">
        <ele>341.2</ele>
        <time>2017-10-01T09:26:56Z</time>
      </trkpt>
      <trkpt lat="47.45938" lon="6.75744">
        <ele>341.2</ele>
        <time>2017-10-01T09:26:57Z</time>
      </trkpt>
      <trkpt lat="47.45943" lon="6.75749">
        <ele>341.2</ele>
        <time>2017-10-01T09:26:58Z</time>
      </trkpt>
      <trkpt lat="47.45947" lon="6.75753">
        <ele>341.1</ele>
        <time>2017-10-01T09:26:59Z</time>
      </trkpt>
      <trkpt lat="47.45951" lon="6.75757">
        <ele>341.1</ele>
        <time>2017-10-01T09:27:00Z</time>
      </trkpt>
      <trkpt lat="47.45954" lon="6.7576">
        <ele>341.1</ele>
        <time>2017-10-01T09:27:01Z</time>
      </trkpt>
      <trkpt lat="47.45958" lon="6.75764">
        <ele>341.1</ele>
        <time>2017-10-01T09:27:02Z</time>
      </trkpt>
      <trkpt lat="47.45962" lon="6.75768">
        <ele>341.1</ele>
        <time>2017-10-01T09:27:03Z</time>
      </trkpt>
      <trkpt lat="47.45967" lon="6.75772">
        <ele>341.1</ele>
        <time>2017-10-01T09:27:04Z</time>
      </trkpt>
      <trkpt lat="47.45971" lon="6.75776">
        <ele>341.1</ele>
        <time>2017-10-01T09:27:05Z</time>
      </trkpt>
      <trkpt lat="47.45975" lon="6.75779">
        <ele>341.1</ele>
        <time>2017-10-01T09:27:06Z</time>
      </trkpt>
      <trkpt lat="47.45979" lon="6.75783">
        <ele>341.1</ele>
        <time>2017-10-01T09:27:07Z</time>
      </trkpt>
      <trkpt lat="47.45983" lon="6.75787">
        <ele>341.1</ele>
        <time>2017-10-01T09:27:08Z</time>
      </trkpt>
      <trkpt lat="47.45988" lon="6.7579">
        <ele>341.1</ele>
        <time>2017-10-01T09:27:09Z</time>
      </trkpt>
      <trkpt lat="47.45992" lon="6.75793">
        <ele>341.1</ele>
        <time>2017-10-01T09:27:10Z</time>
      </trkpt>
      <trkpt lat="47.45996" lon="6.75796">
        <ele>341</ele>
        <time>2017-10-01T09:27:11Z</time>
      </trkpt>
      <trkpt lat="47.46" lon="6.75799">
        <ele>341</ele>
        <time>2017-10-01T09:27:12Z</time>
      </trkpt>
      <trkpt lat="47.46003" lon="6.75802">
        <ele>341</ele>
        <time>2017-10-01T09:27:13Z</time>
      </trkpt>
      <trkpt lat="47.46005" lon="6.75806">
        <ele>341</ele>
        <time>2017-10-01T09:27:14Z</time>
      </trkpt>
      <trkpt lat="47.46007" lon="6.75809">
        <ele>341</ele>
        <time>2017-10-01T09:27:15Z</time>
      </trkpt>
      <trkpt lat="47.4601" lon="6.75811">
        <ele>341</ele>
        <time>2017-10-01T09:27:16Z</time>
      </trkpt>
      <trkpt lat="47.46013" lon="6.75814">
        <ele>341</ele>
        <time>2017-10-01T09:27:17Z</time>
      </trkpt>
      <trkpt lat="47.46015" lon="6.75815">
        <ele>341</ele>
        <time>2017-10-01T09:27:18Z</time>
      </trkpt>
      <trkpt lat="47.46017" lon="6.75817">
        <ele>341</ele>
        <time>2017-10-01T09:27:19Z</time>
      </trkpt>
      <trkpt lat="47.46021" lon="6.75821">
        <ele>340.9</ele>
        <time>2017-10-01T09:27:21Z</time>
      </trkpt>
      <trkpt lat="47.46022" lon="6.75823">
        <ele>340.9</ele>
        <time>2017-10-01T09:27:22Z</time>
      </trkpt>
      <trkpt lat="47.46025" lon="6.75831">
        <ele>340.9</ele>
        <time>2017-10-01T09:27:25Z</time>
      </trkpt>
      <trkpt lat="47.46025" lon="6.75833">
        <ele>340.9</ele>
        <time>2017-10-01T09:27:26Z</time>
      </trkpt>
      <trkpt lat="47.46026" lon="6.75835">
        <ele>340.9</ele>
        <time>2017-10-01T09:27:54Z</time>
      </trkpt>
      <trkpt lat="47.46027" lon="6.75837">
        <ele>340.8</ele>
        <time>2017-10-01T09:27:55Z</time>
      </trkpt>
      <trkpt lat="47.46034" lon="6.75851">
        <ele>340.7</ele>
        <time>2017-10-01T09:27:57Z</time>
      </trkpt>
      <trkpt lat="47.46036" lon="6.75853">
        <ele>340.7</ele>
        <time>2017-10-01T09:27:58Z</time>
      </trkpt>
      <trkpt lat="47.4604" lon="6.75856">
        <ele>340.6</ele>
        <time>2017-10-01T09:28:00Z</time>
      </trkpt>
      <trkpt lat="47.4604" lon="6.75859">
        <ele>340.6</ele>
        <time>2017-10-01T09:28:01Z</time>
      </trkpt>
      <trkpt lat="47.46042" lon="6.75864">
        <ele>340.5</ele>
        <time>2017-10-01T09:28:06Z</time>
      </trkpt>
      <trkpt lat="47.46045" lon="6.75865">
        <ele>340.5</ele>
        <time>2017-10-01T09:28:07Z</time>
      </trkpt>
      <trkpt lat="47.46048" lon="6.7587">
        <ele>340.4</ele>
        <time>2017-10-01T09:28:09Z</time>
      </trkpt>
      <trkpt lat="47.46049" lon="6.75871">
        <ele>340.4</ele>
        <time>2017-10-01T09:28:10Z</time>
      </trkpt>
      <trkpt lat="47.4605" lon="6.75874">
        <ele>340.3</ele>
        <time>2017-10-01T09:28:11Z</time>
      </trkpt>
      <trkpt lat="47.46052" lon="6.75878">
        <ele>340.2</ele>
        <time>2017-10-01T09:28:12Z</time>
      </trkpt>
      <trkpt lat="47.46054" lon="6.75882">
        <ele>340.1</ele>
        <time>2017-10-01T09:28:13Z</time>
      </trkpt>
      <trkpt lat="47.46055" lon="6.75887">
        <ele>340</ele>
        <time>2017-10-01T09:28:14Z</time>
      </trkpt>
      <trkpt lat="47.46058" lon="6.75892">
        <ele>339.8</ele>
        <time>2017-10-01T09:28:15Z</time>
      </trkpt>
      <trkpt lat="47.46059" lon="6.75897">
        <ele>339.7</ele>
        <time>2017-10-01T09:28:16Z</time>
      </trkpt>
      <trkpt lat="47.46061" lon="6.75902">
        <ele>339.5</ele>
        <time>2017-10-01T09:28:17Z</time>
      </trkpt>
      <trkpt lat="47.46063" lon="6.75906">
        <ele>339.4</ele>
        <time>2017-10-01T09:28:18Z</time>
      </trkpt>
      <trkpt lat="47.46065" lon="6.7591">
        <ele>339.2</ele>
        <time>2017-10-01T09:28:19Z</time>
      </trkpt>
      <trkpt lat="47.46068" lon="6.75915">
        <ele>339</ele>
        <time>2017-10-01T09:28:20Z</time>
      </trkpt>
      <trkpt lat="47.46071" lon="6.75921">
        <ele>338.9</ele>
        <time>2017-10-01T09:28:21Z</time>
      </trkpt>
      <trkpt lat="47.46074" lon="6.75927">
        <ele>338.7</ele>
        <time>2017-10-01T09:28:22Z</time>
      </trkpt>
      <trkpt lat="47.46076" lon="6.75931">
        <ele>338.6</ele>
        <time>2017-10-01T09:28:23Z</time>
      </trkpt>
      <trkpt lat="47.46078" lon="6.75935">
        <ele>338.5</ele>
        <time>2017-10-01T09:28:24Z</time>
      </trkpt>
      <trkpt lat="47.46081" lon="6.7594">
        <ele>338.4</ele>
        <time>2017-10-01T09:28:25Z</time>
      </trkpt>
      <trkpt lat="47.46083" lon="6.75946">
        <ele>338.2</ele>
        <time>2017-10-01T09:28:26Z</time>
      </trkpt>
      <trkpt lat="47.46085" lon="6.75951">
        <ele>338</ele>
        <time>2017-10-01T09:28:27Z</time>
      </trkpt>
      <trkpt lat="47.46087" lon="6.75956">
        <ele>337.8</ele>
        <time>2017-10-01T09:28:28Z</time>
      </trkpt>
      <trkpt lat="47.46089" lon="6.75961">
        <ele>337.7</ele>
        <time>2017-10-01T09:28:29Z</time>
      </trkpt>
      <trkpt lat="47.46091" lon="6.75966">
        <ele>337.6</ele>
        <time>2017-10-01T09:28:30Z</time>
      </trkpt>
      <trkpt lat="47.46093" lon="6.75971">
        <ele>337.4</ele>
        <time>2017-10-01T09:28:31Z</time>
      </trkpt>
      <trkpt lat="47.46094" lon="6.75976">
        <ele>337.3</ele>
        <time>2017-10-01T09:28:32Z</time>
      </trkpt>
      <trkpt lat="47.46097" lon="6.75981">
        <ele>337.2</ele>
        <time>2017-10-01T09:28:33Z</time>
      </trkpt>
      <trkpt lat="47.46099" lon="6.75986">
        <ele>337.1</ele>
        <time>2017-10-01T09:28:34Z</time>
      </trkpt>
      <trkpt lat="47.46102" lon="6.75991">
        <ele>337.1</ele>
        <time>2017-10-01T09:28:35Z</time>
      </trkpt>
      <trkpt lat="47.46105" lon="6.75998">
        <ele>337</ele>
        <time>2017-10-01T09:28:36Z</time>
      </trkpt>
      <trkpt lat="47.46107" lon="6.76003">
        <ele>336.9</ele>
        <time>2017-10-01T09:28:37Z</time>
      </trkpt>
      <trkpt lat="47.4611" lon="6.76007">
        <ele>336.9</ele>
        <time>2017-10-01T09:28:38Z</time>
      </trkpt>
      <trkpt lat="47.46113" lon="6.76012">
        <ele>336.8</ele>
        <time>2017-10-01T09:28:39Z</time>
      </trkpt>
      <trkpt lat="47.46115" lon="6.76018">
        <ele>336.8</ele>
        <time>2017-10-01T09:28:40Z</time>
      </trkpt>
      <trkpt lat="47.46117" lon="6.76023">
        <ele>336.7</ele>
        <time>2017-10-01T09:28:41Z</time>
      </trkpt>
      <trkpt lat="47.46119" lon="6.76029">
        <ele>336.7</ele>
        <time>2017-10-01T09:28:42Z</time>
      </trkpt>
      <trkpt lat="47.46121" lon="6.76035">
        <ele>336.6</ele>
        <time>2017-10-01T09:28:43Z</time>
      </trkpt>
      <trkpt lat="47.46123" lon="6.76042">
        <ele>336.5</ele>
        <time>2017-10-01T09:28:44Z</time>
      </trkpt>
      <trkpt lat="47.46125" lon="6.76048">
        <ele>336.4</ele>
        <time>2017-10-01T09:28:45Z</time>
      </trkpt>
      <trkpt lat="47.46128" lon="6.76054">
        <ele>336.3</ele>
        <time>2017-10-01T09:28:46Z</time>
      </trkpt>
      <trkpt lat="47.4613" lon="6.7606">
        <ele>336.3</ele>
        <time>2017-10-01T09:28:47Z</time>
      </trkpt>
      <trkpt lat="47.46132" lon="6.76066">
        <ele>336.2</ele>
        <time>2017-10-01T09:28:48Z</time>
      </trkpt>
      <trkpt lat="47.46135" lon="6.76073">
        <ele>336.1</ele>
        <time>2017-10-01T09:28:49Z</time>
      </trkpt>
      <trkpt lat="47.46138" lon="6.7608">
        <ele>336</ele>
        <time>2017-10-01T09:28:50Z</time>
      </trkpt>
      <trkpt lat="47.46142" lon="6.76085">
        <ele>335.8</ele>
        <time>2017-10-01T09:28:51Z</time>
      </trkpt>
      <trkpt lat="47.46146" lon="6.7609">
        <ele>335.6</ele>
        <time>2017-10-01T09:28:52Z</time>
      </trkpt>
      <trkpt lat="47.46151" lon="6.76096">
        <ele>335.4</ele>
        <time>2017-10-01T09:28:53Z</time>
      </trkpt>
      <trkpt lat="47.46154" lon="6.76101">
        <ele>335.2</ele>
        <time>2017-10-01T09:28:54Z</time>
      </trkpt>
      <trkpt lat="47.46157" lon="6.76108">
        <ele>335</ele>
        <time>2017-10-01T09:28:55Z</time>
      </trkpt>
      <trkpt lat="47.4616" lon="6.76116">
        <ele>334.8</ele>
        <time>2017-10-01T09:28:56Z</time>
      </trkpt>
      <trkpt lat="47.46162" lon="6.76122">
        <ele>334.7</ele>
        <time>2017-10-01T09:28:57Z</time>
      </trkpt>
      <trkpt lat="47.46167" lon="6.76129">
        <ele>334.6</ele>
        <time>2017-10-01T09:28:58Z</time>
      </trkpt>
      <trkpt lat="47.46171" lon="6.76136">
        <ele>334.4</ele>
        <time>2017-10-01T09:28:59Z</time>
      </trkpt>
      <trkpt lat="47.46176" lon="6.76142">
        <ele>334.3</ele>
        <time>2017-10-01T09:29:00Z</time>
      </trkpt>
      <trkpt lat="47.46181" lon="6.76148">
        <ele>334.2</ele>
        <time>2017-10-01T09:29:01Z</time>
      </trkpt>
      <trkpt lat="47.46187" lon="6.76155">
        <ele>334</ele>
        <time>2017-10-01T09:29:02Z</time>
      </trkpt>
      <trkpt lat="47.46191" lon="6.7616">
        <ele>333.8</ele>
        <time>2017-10-01T09:29:03Z</time>
      </trkpt>
      <trkpt lat="47.46196" lon="6.76166">
        <ele>333.6</ele>
        <time>2017-10-01T09:29:04Z</time>
      </trkpt>
      <trkpt lat="47.46201" lon="6.76172">
        <ele>333.4</ele>
        <time>2017-10-01T09:29:05Z</time>
      </trkpt>
      <trkpt lat="47.46205" lon="6.76176">
        <ele>333.2</ele>
        <time>2017-10-01T09:29:06Z</time>
      </trkpt>
      <trkpt lat="47.46209" lon="6.7618">
        <ele>333</ele>
        <time>2017-10-01T09:29:07Z</time>
      </trkpt>
      <trkpt lat="47.46218" lon="6.76189">
        <ele>332.6</ele>
        <time>2017-10-01T09:29:09Z</time>
      </trkpt>
      <trkpt lat="47.46222" lon="6.76193">
        <ele>332.5</ele>
        <time>2017-10-01T09:29:10Z</time>
      </trkpt>
      <trkpt lat="47.46226" lon="6.76197">
        <ele>332.4</ele>
        <time>2017-10-01T09:29:11Z</time>
      </trkpt>
      <trkpt lat="47.4623" lon="6.76201">
        <ele>332.4</ele>
        <time>2017-10-01T09:29:12Z</time>
      </trkpt>
      <trkpt lat="47.46235" lon="6.76206">
        <ele>332.3</ele>
        <time>2017-10-01T09:29:13Z</time>
      </trkpt>
      <trkpt lat="47.46239" lon="6.7621">
        <ele>332.2</ele>
        <time>2017-10-01T09:29:14Z</time>
      </trkpt>
      <trkpt lat="47.46243" lon="6.76214">
        <ele>332.2</ele>
        <time>2017-10-01T09:29:15Z</time>
      </trkpt>
      <trkpt lat="47.46247" lon="6.76219">
        <ele>332.1</ele>
        <time>2017-10-01T09:29:16Z</time>
      </trkpt>
      <trkpt lat="47.46251" lon="6.76223">
        <ele>332</ele>
        <time>2017-10-01T09:29:17Z</time>
      </trkpt>
      <trkpt lat="47.46255" lon="6.76227">
        <ele>331.9</ele>
        <time>2017-10-01T09:29:18Z</time>
      </trkpt>
      <trkpt lat="47.46259" lon="6.76231">
        <ele>331.8</ele>
        <time>2017-10-01T09:29:19Z</time>
      </trkpt>
      <trkpt lat="47.46262" lon="6.76234">
        <ele>331.7</ele>
        <time>2017-10-01T09:29:20Z</time>
      </trkpt>
      <trkpt lat="47.46266" lon="6.76236">
        <ele>331.7</ele>
        <time>2017-10-01T09:29:21Z</time>
      </trkpt>
      <trkpt lat="47.4627" lon="6.76235">
        <ele>331.5</ele>
        <time>2017-10-01T09:29:22Z</time>
      </trkpt>
      <trkpt lat="47.46274" lon="6.76237">
        <ele>331.4</ele>
        <time>2017-10-01T09:29:23Z</time>
      </trkpt>
      <trkpt lat="47.46275" lon="6.76239">
        <ele>331.3</ele>
        <time>2017-10-01T09:29:24Z</time>
      </trkpt>
      <trkpt lat="47.46278" lon="6.76241">
        <ele>331.2</ele>
        <time>2017-10-01T09:29:25Z</time>
      </trkpt>
      <trkpt lat="47.46281" lon="6.76242">
        <ele>331.1</ele>
        <time>2017-10-01T09:29:26Z</time>
      </trkpt>
      <trkpt lat="47.46285" lon="6.76243">
        <ele>330.9</ele>
        <time>2017-10-01T09:29:27Z</time>
      </trkpt>
      <trkpt lat="47.46289" lon="6.76244">
        <ele>331.7</ele>
        <time>2017-10-01T09:29:28Z</time>
      </trkpt>
      <trkpt lat="47.46293" lon="6.76246">
        <ele>332.1</ele>
        <time>2017-10-01T09:29:29Z</time>
      </trkpt>
      <trkpt lat="47.46297" lon="6.76247">
        <ele>332.2</ele>
        <time>2017-10-01T09:29:30Z</time>
      </trkpt>
      <trkpt lat="47.463" lon="6.76249">
        <ele>332.5</ele>
        <time>2017-10-01T09:29:31Z</time>
      </trkpt>
      <trkpt lat="47.46303" lon="6.7625">
        <ele>332.7</ele>
        <time>2017-10-01T09:29:32Z</time>
      </trkpt>
      <trkpt lat="47.46305" lon="6.76251">
        <ele>332.9</ele>
        <time>2017-10-01T09:29:33Z</time>
      </trkpt>
      <trkpt lat="47.46308" lon="6.76253">
        <ele>332.8</ele>
        <time>2017-10-01T09:29:34Z</time>
      </trkpt>
      <trkpt lat="47.46311" lon="6.76255">
        <ele>333</ele>
        <time>2017-10-01T09:29:35Z</time>
      </trkpt>
      <trkpt lat="47.46315" lon="6.76257">
        <ele>332.8</ele>
        <time>2017-10-01T09:29:36Z</time>
      </trkpt>
      <trkpt lat="47.46318" lon="6.76259">
        <ele>333.1</ele>
        <time>2017-10-01T09:29:37Z</time>
      </trkpt>
      <trkpt lat="47.46321" lon="6.76261">
        <ele>332.7</ele>
        <time>2017-10-01T09:29:38Z</time>
      </trkpt>
      <trkpt lat="47.46325" lon="6.76262">
        <ele>332.8</ele>
        <time>2017-10-01T09:29:39Z</time>
      </trkpt>
      <trkpt lat="47.46328" lon="6.76263">
        <ele>332.9</ele>
        <time>2017-10-01T09:29:40Z</time>
      </trkpt>
      <trkpt lat="47.46331" lon="6.76265">
        <ele>332.4</ele>
        <time>2017-10-01T09:29:41Z</time>
      </trkpt>
      <trkpt lat="47.46334" lon="6.76268">
        <ele>332.4</ele>
        <time>2017-10-01T09:29:42Z</time>
      </trkpt>
      <trkpt lat="47.46338" lon="6.7627">
        <ele>331.9</ele>
        <time>2017-10-01T09:29:43Z</time>
      </trkpt>
      <trkpt lat="47.46343" lon="6.76269">
        <ele>331.9</ele>
        <time>2017-10-01T09:29:44Z</time>
      </trkpt>
      <trkpt lat="47.46347" lon="6.76268">
        <ele>332.4</ele>
        <time>2017-10-01T09:29:45Z</time>
      </trkpt>
      <trkpt lat="47.46351" lon="6.76267">
        <ele>332.5</ele>
        <time>2017-10-01T09:29:46Z</time>
      </trkpt>
      <trkpt lat="47.46356" lon="6.76267">
        <ele>332.6</ele>
        <time>2017-10-01T09:29:47Z</time>
      </trkpt>
      <trkpt lat="47.4636" lon="6.76267">
        <ele>332.6</ele>
        <time>2017-10-01T09:29:48Z</time>
      </trkpt>
      <trkpt lat="47.46365" lon="6.76268">
        <ele>332.8</ele>
        <time>2017-10-01T09:29:49Z</time>
      </trkpt>
      <trkpt lat="47.4637" lon="6.76268">
        <ele>332.9</ele>
        <time>2017-10-01T09:29:50Z</time>
      </trkpt>
      <trkpt lat="47.46376" lon="6.76266">
        <ele>333.1</ele>
        <time>2017-10-01T09:29:51Z</time>
      </trkpt>
      <trkpt lat="47.46382" lon="6.76266">
        <ele>333.4</ele>
        <time>2017-10-01T09:29:52Z</time>
      </trkpt>
      <trkpt lat="47.46389" lon="6.76266">
        <ele>333.6</ele>
        <time>2017-10-01T09:29:53Z</time>
      </trkpt>
      <trkpt lat="47.46394" lon="6.76267">
        <ele>333.9</ele>
        <time>2017-10-01T09:29:54Z</time>
      </trkpt>
      <trkpt lat="47.46399" lon="6.76268">
        <ele>334</ele>
        <time>2017-10-01T09:29:55Z</time>
      </trkpt>
      <trkpt lat="47.46403" lon="6.76269">
        <ele>334.2</ele>
        <time>2017-10-01T09:29:56Z</time>
      </trkpt>
      <trkpt lat="47.46409" lon="6.76269">
        <ele>334</ele>
        <time>2017-10-01T09:29:57Z</time>
      </trkpt>
      <trkpt lat="47.46413" lon="6.76269">
        <ele>334.1</ele>
        <time>2017-10-01T09:29:58Z</time>
      </trkpt>
      <trkpt lat="47.46418" lon="6.76273">
        <ele>333.8</ele>
        <time>2017-10-01T09:29:59Z</time>
      </trkpt>
      <trkpt lat="47.46421" lon="6.76276">
        <ele>333.9</ele>
        <time>2017-10-01T09:30:00Z</time>
      </trkpt>
      <trkpt lat="47.46429" lon="6.76277">
        <ele>334.1</ele>
        <time>2017-10-01T09:30:01Z</time>
      </trkpt>
      <trkpt lat="47.46435" lon="6.76277">
        <ele>333.6</ele>
        <time>2017-10-01T09:30:02Z</time>
      </trkpt>
      <trkpt lat="47.46439" lon="6.76278">
        <ele>333.6</ele>
        <time>2017-10-01T09:30:03Z</time>
      </trkpt>
      <trkpt lat="47.46445" lon="6.76278">
        <ele>333.5</ele>
        <time>2017-10-01T09:30:04Z</time>
      </trkpt>
      <trkpt lat="47.4645" lon="6.76278">
        <ele>333.3</ele>
        <time>2017-10-01T09:30:05Z</time>
      </trkpt>
      <trkpt lat="47.46455" lon="6.76277">
        <ele>333.6</ele>
        <time>2017-10-01T09:30:06Z</time>
      </trkpt>
      <trkpt lat="47.46457" lon="6.76276">
        <ele>333.5</ele>
        <time>2017-10-01T09:30:07Z</time>
      </trkpt>
      <trkpt lat="47.46459" lon="6.76276">
        <ele>333.5</ele>
        <time>2017-10-01T09:30:08Z</time>
      </trkpt>
      <trkpt lat="47.46463" lon="6.76279">
        <ele>332.9</ele>
        <time>2017-10-01T09:30:09Z</time>
      </trkpt>
      <trkpt lat="47.46468" lon="6.7628">
        <ele>332.8</ele>
        <time>2017-10-01T09:30:10Z</time>
      </trkpt>
      <trkpt lat="47.46474" lon="6.7628">
        <ele>332.6</ele>
        <time>2017-10-01T09:30:11Z</time>
      </trkpt>
      <trkpt lat="47.4648" lon="6.76282">
        <ele>332.2</ele>
        <time>2017-10-01T09:30:12Z</time>
      </trkpt>
      <trkpt lat="47.46486" lon="6.76282">
        <ele>332.2</ele>
        <time>2017-10-01T09:30:13Z</time>
      </trkpt>
      <trkpt lat="47.46492" lon="6.76283">
        <ele>332.3</ele>
        <time>2017-10-01T09:30:14Z</time>
      </trkpt>
      <trkpt lat="47.46498" lon="6.76282">
        <ele>332.4</ele>
        <time>2017-10-01T09:30:15Z</time>
      </trkpt>
      <trkpt lat="47.46503" lon="6.76282">
        <ele>332.5</ele>
        <time>2017-10-01T09:30:16Z</time>
      </trkpt>
      <trkpt lat="47.46508" lon="6.76282">
        <ele>332.6</ele>
        <time>2017-10-01T09:30:17Z</time>
      </trkpt>
      <trkpt lat="47.46512" lon="6.76282">
        <ele>332.6</ele>
        <time>2017-10-01T09:30:18Z</time>
      </trkpt>
      <trkpt lat="47.46517" lon="6.76282">
        <ele>332.8</ele>
        <time>2017-10-01T09:30:19Z</time>
      </trkpt>
      <trkpt lat="47.46522" lon="6.7628">
        <ele>333.5</ele>
        <time>2017-10-01T09:30:20Z</time>
      </trkpt>
      <trkpt lat="47.46529" lon="6.76279">
        <ele>333.8</ele>
        <time>2017-10-01T09:30:21Z</time>
      </trkpt>
      <trkpt lat="47.46536" lon="6.7628">
        <ele>334.5</ele>
        <time>2017-10-01T09:30:22Z</time>
      </trkpt>
      <trkpt lat="47.46543" lon="6.76283">
        <ele>334.1</ele>
        <time>2017-10-01T09:30:23Z</time>
      </trkpt>
      <trkpt lat="47.46549" lon="6.76284">
        <ele>334.3</ele>
        <time>2017-10-01T09:30:24Z</time>
      </trkpt>
      <trkpt lat="47.46556" lon="6.76287">
        <ele>333.3</ele>
        <time>2017-10-01T09:30:25Z</time>
      </trkpt>
      <trkpt lat="47.46562" lon="6.7629">
        <ele>332</ele>
        <time>2017-10-01T09:30:26Z</time>
      </trkpt>
      <trkpt lat="47.46569" lon="6.76293">
        <ele>331.4</ele>
        <time>2017-10-01T09:30:27Z</time>
      </trkpt>
      <trkpt lat="47.46577" lon="6.76297">
        <ele>329.2</ele>
        <time>2017-10-01T09:30:28Z</time>
      </trkpt>
      <trkpt lat="47.46583" lon="6.76299">
        <ele>327.7</ele>
        <time>2017-10-01T09:30:29Z</time>
      </trkpt>
      <trkpt lat="47.46591" lon="6.76301">
        <ele>326.5</ele>
        <time>2017-10-01T09:30:30Z</time>
      </trkpt>
      <trkpt lat="47.46599" lon="6.76303">
        <ele>325.5</ele>
        <time>2017-10-01T09:30:31Z</time>
      </trkpt>
      <trkpt lat="47.46607" lon="6.76306">
        <ele>324.6</ele>
        <time>2017-10-01T09:30:32Z</time>
      </trkpt>
      <trkpt lat="47.46615" lon="6.76308">
        <ele>324</ele>
        <time>2017-10-01T09:30:33Z</time>
      </trkpt>
      <trkpt lat="47.46624" lon="6.76309">
        <ele>323.7</ele>
        <time>2017-10-01T09:30:34Z</time>
      </trkpt>
      <trkpt lat="47.46632" lon="6.7631">
        <ele>323.5</ele>
        <time>2017-10-01T09:30:35Z</time>
      </trkpt>
      <trkpt lat="47.4664" lon="6.76311">
        <ele>323.5</ele>
        <time>2017-10-01T09:30:36Z</time>
      </trkpt>
      <trkpt lat="47.46647" lon="6.76311">
        <ele>323.6</ele>
        <time>2017-10-01T09:30:37Z</time>
      </trkpt>
      <trkpt lat="47.46653" lon="6.76311">
        <ele>323.6</ele>
        <time>2017-10-01T09:30:38Z</time>
      </trkpt>
      <trkpt lat="47.46658" lon="6.76311">
        <ele>323.7</ele>
        <time>2017-10-01T09:30:39Z</time>
      </trkpt>
      <trkpt lat="47.46665" lon="6.76311">
        <ele>323.7</ele>
        <time>2017-10-01T09:30:40Z</time>
      </trkpt>
      <trkpt lat="47.4667" lon="6.76311">
        <ele>323.7</ele>
        <time>2017-10-01T09:30:41Z</time>
      </trkpt>
      <trkpt lat="47.46675" lon="6.76311">
        <ele>323.6</ele>
        <time>2017-10-01T09:30:42Z</time>
      </trkpt>
      <trkpt lat="47.46681" lon="6.7631">
        <ele>323.6</ele>
        <time>2017-10-01T09:30:43Z</time>
      </trkpt>
      <trkpt lat="47.46687" lon="6.76309">
        <ele>323.7</ele>
        <time>2017-10-01T09:30:44Z</time>
      </trkpt>
      <trkpt lat="47.46694" lon="6.76308">
        <ele>323.8</ele>
        <time>2017-10-01T09:30:45Z</time>
      </trkpt>
      <trkpt lat="47.467" lon="6.76306">
        <ele>323.8</ele>
        <time>2017-10-01T09:30:46Z</time>
      </trkpt>
      <trkpt lat="47.46705" lon="6.76305">
        <ele>324.2</ele>
        <time>2017-10-01T09:30:47Z</time>
      </trkpt>
      <trkpt lat="47.46711" lon="6.76304">
        <ele>324.7</ele>
        <time>2017-10-01T09:30:48Z</time>
      </trkpt>
      <trkpt lat="47.46717" lon="6.76303">
        <ele>325</ele>
        <time>2017-10-01T09:30:49Z</time>
      </trkpt>
      <trkpt lat="47.46722" lon="6.76301">
        <ele>325.5</ele>
        <time>2017-10-01T09:30:50Z</time>
      </trkpt>
      <trkpt lat="47.46727" lon="6.763">
        <ele>325.9</ele>
        <time>2017-10-01T09:30:51Z</time>
      </trkpt>
      <trkpt lat="47.46733" lon="6.76299">
        <ele>326.2</ele>
        <time>2017-10-01T09:30:52Z</time>
      </trkpt>
      <trkpt lat="47.46739" lon="6.76297">
        <ele>326.4</ele>
        <time>2017-10-01T09:30:53Z</time>
      </trkpt>
      <trkpt lat="47.46743" lon="6.76296">
        <ele>326.4</ele>
        <time>2017-10-01T09:30:54Z</time>
      </trkpt>
      <trkpt lat="47.46748" lon="6.76295">
        <ele>326.6</ele>
        <time>2017-10-01T09:30:55Z</time>
      </trkpt>
      <trkpt lat="47.46752" lon="6.76294">
        <ele>326.6</ele>
        <time>2017-10-01T09:30:56Z</time>
      </trkpt>
      <trkpt lat="47.46757" lon="6.76294">
        <ele>326.7</ele>
        <time>2017-10-01T09:30:57Z</time>
      </trkpt>
      <trkpt lat="47.46762" lon="6.76293">
        <ele>326.8</ele>
        <time>2017-10-01T09:30:58Z</time>
      </trkpt>
      <trkpt lat="47.46767" lon="6.76292">
        <ele>326.7</ele>
        <time>2017-10-01T09:30:59Z</time>
      </trkpt>
      <trkpt lat="47.46772" lon="6.76291">
        <ele>326.5</ele>
        <time>2017-10-01T09:31:00Z</time>
      </trkpt>
      <trkpt lat="47.46778" lon="6.76291">
        <ele>326</ele>
        <time>2017-10-01T09:31:01Z</time>
      </trkpt>
      <trkpt lat="47.46782" lon="6.76291">
        <ele>325.7</ele>
        <time>2017-10-01T09:31:02Z</time>
      </trkpt>
      <trkpt lat="47.46786" lon="6.76293">
        <ele>325.5</ele>
        <time>2017-10-01T09:31:03Z</time>
      </trkpt>
      <trkpt lat="47.46791" lon="6.76295">
        <ele>325.1</ele>
        <time>2017-10-01T09:31:04Z</time>
      </trkpt>
      <trkpt lat="47.46797" lon="6.76298">
        <ele>324.7</ele>
        <time>2017-10-01T09:31:05Z</time>
      </trkpt>
      <trkpt lat="47.46802" lon="6.763">
        <ele>324.4</ele>
        <time>2017-10-01T09:31:06Z</time>
      </trkpt>
      <trkpt lat="47.46807" lon="6.76304">
        <ele>324.1</ele>
        <time>2017-10-01T09:31:07Z</time>
      </trkpt>
      <trkpt lat="47.46813" lon="6.76307">
        <ele>323.9</ele>
        <time>2017-10-01T09:31:08Z</time>
      </trkpt>
      <trkpt lat="47.46817" lon="6.7631">
        <ele>323.7</ele>
        <time>2017-10-01T09:31:09Z</time>
      </trkpt>
      <trkpt lat="47.46822" lon="6.76312">
        <ele>323.5</ele>
        <time>2017-10-01T09:31:10Z</time>
      </trkpt>
      <trkpt lat="47.46826" lon="6.76314">
        <ele>323.3</ele>
        <time>2017-10-01T09:31:11Z</time>
      </trkpt>
      <trkpt lat="47.46831" lon="6.76317">
        <ele>323.1</ele>
        <time>2017-10-01T09:31:12Z</time>
      </trkpt>
      <trkpt lat="47.46836" lon="6.7632">
        <ele>322.9</ele>
        <time>2017-10-01T09:31:13Z</time>
      </trkpt>
      <trkpt lat="47.46841" lon="6.76323">
        <ele>322.7</ele>
        <time>2017-10-01T09:31:14Z</time>
      </trkpt>
      <trkpt lat="47.46846" lon="6.76326">
        <ele>322.5</ele>
        <time>2017-10-01T09:31:15Z</time>
      </trkpt>
      <trkpt lat="47.46851" lon="6.76329">
        <ele>322.2</ele>
        <time>2017-10-01T09:31:16Z</time>
      </trkpt>
      <trkpt lat="47.46856" lon="6.76331">
        <ele>322.1</ele>
        <time>2017-10-01T09:31:17Z</time>
      </trkpt>
      <trkpt lat="47.4686" lon="6.76333">
        <ele>321.9</ele>
        <time>2017-10-01T09:31:18Z</time>
      </trkpt>
      <trkpt lat="47.46865" lon="6.76335">
        <ele>321.7</ele>
        <time>2017-10-01T09:31:19Z</time>
      </trkpt>
      <trkpt lat="47.4687" lon="6.76335">
        <ele>321.6</ele>
        <time>2017-10-01T09:31:20Z</time>
      </trkpt>
      <trkpt lat="47.46875" lon="6.76336">
        <ele>321.5</ele>
        <time>2017-10-01T09:31:21Z</time>
      </trkpt>
      <trkpt lat="47.46881" lon="6.76336">
        <ele>321.4</ele>
        <time>2017-10-01T09:31:22Z</time>
      </trkpt>
      <trkpt lat="47.46886" lon="6.76335">
        <ele>321.3</ele>
        <time>2017-10-01T09:31:23Z</time>
      </trkpt>
      <trkpt lat="47.46892" lon="6.76334">
        <ele>321.2</ele>
        <time>2017-10-01T09:31:24Z</time>
      </trkpt>
      <trkpt lat="47.46898" lon="6.76332">
        <ele>321.1</ele>
        <time>2017-10-01T09:31:25Z</time>
      </trkpt>
      <trkpt lat="47.46904" lon="6.76331">
        <ele>321</ele>
        <time>2017-10-01T09:31:26Z</time>
      </trkpt>
      <trkpt lat="47.4691" lon="6.7633">
        <ele>321</ele>
        <time>2017-10-01T09:31:27Z</time>
      </trkpt>
      <trkpt lat="47.46916" lon="6.76329">
        <ele>320.9</ele>
        <time>2017-10-01T09:31:28Z</time>
      </trkpt>
      <trkpt lat="47.46921" lon="6.76329">
        <ele>320.8</ele>
        <time>2017-10-01T09:31:29Z</time>
      </trkpt>
      <trkpt lat="47.46926" lon="6.76329">
        <ele>320.8</ele>
        <time>2017-10-01T09:31:30Z</time>
      </trkpt>
      <trkpt lat="47.46932" lon="6.7633">
        <ele>320.7</ele>
        <time>2017-10-01T09:31:31Z</time>
      </trkpt>
      <trkpt lat="47.46938" lon="6.7633">
        <ele>320.6</ele>
        <time>2017-10-01T09:31:32Z</time>
      </trkpt>
      <trkpt lat="47.46944" lon="6.7633">
        <ele>320.6</ele>
        <time>2017-10-01T09:31:33Z</time>
      </trkpt>
      <trkpt lat="47.46949" lon="6.76331">
        <ele>320.5</ele>
        <time>2017-10-01T09:31:34Z</time>
      </trkpt>
      <trkpt lat="47.46954" lon="6.76331">
        <ele>320.4</ele>
        <time>2017-10-01T09:31:35Z</time>
      </trkpt>
      <trkpt lat="47.4696" lon="6.76332">
        <ele>320.4</ele>
        <time>2017-10-01T09:31:36Z</time>
      </trkpt>
      <trkpt lat="47.46965" lon="6.76333">
        <ele>320.3</ele>
        <time>2017-10-01T09:31:37Z</time>
      </trkpt>
      <trkpt lat="47.46971" lon="6.76334">
        <ele>320.2</ele>
        <time>2017-10-01T09:31:38Z</time>
      </trkpt>
      <trkpt lat="47.46977" lon="6.76335">
        <ele>320.2</ele>
        <time>2017-10-01T09:31:39Z</time>
      </trkpt>
      <trkpt lat="47.46983" lon="6.76336">
        <ele>320</ele>
        <time>2017-10-01T09:31:40Z</time>
      </trkpt>
      <trkpt lat="47.46989" lon="6.76338">
        <ele>319.9</ele>
        <time>2017-10-01T09:31:41Z</time>
      </trkpt>
      <trkpt lat="47.46995" lon="6.7634">
        <ele>319.8</ele>
        <time>2017-10-01T09:31:42Z</time>
      </trkpt>
      <trkpt lat="47.47" lon="6.76341">
        <ele>319.7</ele>
        <time>2017-10-01T09:31:43Z</time>
      </trkpt>
      <trkpt lat="47.47005" lon="6.76343">
        <ele>319.4</ele>
        <time>2017-10-01T09:31:44Z</time>
      </trkpt>
      <trkpt lat="47.47011" lon="6.76345">
        <ele>318.8</ele>
        <time>2017-10-01T09:31:45Z</time>
      </trkpt>
      <trkpt lat="47.47017" lon="6.76346">
        <ele>318.1</ele>
        <time>2017-10-01T09:31:46Z</time>
      </trkpt>
      <trkpt lat="47.47022" lon="6.76348">
        <ele>317.7</ele>
        <time>2017-10-01T09:31:47Z</time>
      </trkpt>
      <trkpt lat="47.47027" lon="6.76349">
        <ele>317.4</ele>
        <time>2017-10-01T09:31:48Z</time>
      </trkpt>
      <trkpt lat="47.47032" lon="6.7635">
        <ele>317.2</ele>
        <time>2017-10-01T09:31:49Z</time>
      </trkpt>
      <trkpt lat="47.47036" lon="6.76351">
        <ele>317.1</ele>
        <time>2017-10-01T09:31:50Z</time>
      </trkpt>
      <trkpt lat="47.47042" lon="6.76353">
        <ele>316.9</ele>
        <time>2017-10-01T09:31:51Z</time>
      </trkpt>
      <trkpt lat="47.47048" lon="6.76354">
        <ele>316.8</ele>
        <time>2017-10-01T09:31:52Z</time>
      </trkpt>
      <trkpt lat="47.47053" lon="6.76356">
        <ele>316.7</ele>
        <time>2017-10-01T09:31:53Z</time>
      </trkpt>
      <trkpt lat="47.47058" lon="6.76357">
        <ele>316.6</ele>
        <time>2017-10-01T09:31:54Z</time>
      </trkpt>
      <trkpt lat="47.47063" lon="6.76359">
        <ele>316.5</ele>
        <time>2017-10-01T09:31:55Z</time>
      </trkpt>
      <trkpt lat="47.47068" lon="6.7636">
        <ele>316.4</ele>
        <time>2017-10-01T09:31:56Z</time>
      </trkpt>
      <trkpt lat="47.47073" lon="6.76361">
        <ele>316.4</ele>
        <time>2017-10-01T09:31:57Z</time>
      </trkpt>
      <trkpt lat="47.47078" lon="6.76362">
        <ele>316.3</ele>
        <time>2017-10-01T09:31:58Z</time>
      </trkpt>
      <trkpt lat="47.47085" lon="6.76363">
        <ele>316.2</ele>
        <time>2017-10-01T09:31:59Z</time>
      </trkpt>
      <trkpt lat="47.47089" lon="6.76364">
        <ele>316.1</ele>
        <time>2017-10-01T09:32:00Z</time>
      </trkpt>
      <trkpt lat="47.47094" lon="6.76366">
        <ele>316.1</ele>
        <time>2017-10-01T09:32:01Z</time>
      </trkpt>
      <trkpt lat="47.47099" lon="6.76367">
        <ele>316</ele>
        <time>2017-10-01T09:32:02Z</time>
      </trkpt>
      <trkpt lat="47.47105" lon="6.76368">
        <ele>316</ele>
        <time>2017-10-01T09:32:03Z</time>
      </trkpt>
      <trkpt lat="47.47111" lon="6.76369">
        <ele>316</ele>
        <time>2017-10-01T09:32:04Z</time>
      </trkpt>
      <trkpt lat="47.47117" lon="6.7637">
        <ele>316.1</ele>
        <time>2017-10-01T09:32:05Z</time>
      </trkpt>
      <trkpt lat="47.47123" lon="6.76372">
        <ele>316.1</ele>
        <time>2017-10-01T09:32:06Z</time>
      </trkpt>
      <trkpt lat="47.47129" lon="6.76373">
        <ele>316</ele>
        <time>2017-10-01T09:32:07Z</time>
      </trkpt>
      <trkpt lat="47.4714" lon="6.76375">
        <ele>316</ele>
        <time>2017-10-01T09:32:09Z</time>
      </trkpt>
      <trkpt lat="47.47145" lon="6.76376">
        <ele>316</ele>
        <time>2017-10-01T09:32:10Z</time>
      </trkpt>
      <trkpt lat="47.4715" lon="6.76378">
        <ele>316</ele>
        <time>2017-10-01T09:32:11Z</time>
      </trkpt>
      <trkpt lat="47.47156" lon="6.76379">
        <ele>316</ele>
        <time>2017-10-01T09:32:12Z</time>
      </trkpt>
      <trkpt lat="47.47161" lon="6.7638">
        <ele>315.9</ele>
        <time>2017-10-01T09:32:13Z</time>
      </trkpt>
      <trkpt lat="47.47167" lon="6.76382">
        <ele>315.8</ele>
        <time>2017-10-01T09:32:14Z</time>
      </trkpt>
      <trkpt lat="47.47173" lon="6.76384">
        <ele>315.6</ele>
        <time>2017-10-01T09:32:15Z</time>
      </trkpt>
      <trkpt lat="47.47178" lon="6.76385">
        <ele>315.5</ele>
        <time>2017-10-01T09:32:16Z</time>
      </trkpt>
      <trkpt lat="47.47184" lon="6.76387">
        <ele>315.3</ele>
        <time>2017-10-01T09:32:17Z</time>
      </trkpt>
      <trkpt lat="47.47189" lon="6.76389">
        <ele>315</ele>
        <time>2017-10-01T09:32:18Z</time>
      </trkpt>
      <trkpt lat="47.47194" lon="6.7639">
        <ele>314.7</ele>
        <time>2017-10-01T09:32:19Z</time>
      </trkpt>
      <trkpt lat="47.472" lon="6.76392">
        <ele>314.4</ele>
        <time>2017-10-01T09:32:20Z</time>
      </trkpt>
      <trkpt lat="47.47205" lon="6.76394">
        <ele>314.2</ele>
        <time>2017-10-01T09:32:21Z</time>
      </trkpt>
      <trkpt lat="47.47211" lon="6.76395">
        <ele>313.9</ele>
        <time>2017-10-01T09:32:22Z</time>
      </trkpt>
      <trkpt lat="47.47217" lon="6.76397">
        <ele>313.7</ele>
        <time>2017-10-01T09:32:23Z</time>
      </trkpt>
      <trkpt lat="47.47222" lon="6.76398">
        <ele>313.5</ele>
        <time>2017-10-01T09:32:24Z</time>
      </trkpt>
      <trkpt lat="47.47227" lon="6.76399">
        <ele>313.5</ele>
        <time>2017-10-01T09:32:25Z</time>
      </trkpt>
      <trkpt lat="47.47232" lon="6.76399">
        <ele>313.5</ele>
        <time>2017-10-01T09:32:26Z</time>
      </trkpt>
      <trkpt lat="47.47236" lon="6.76399">
        <ele>313.4</ele>
        <time>2017-10-01T09:32:27Z</time>
      </trkpt>
      <trkpt lat="47.47241" lon="6.76399">
        <ele>313.4</ele>
        <time>2017-10-01T09:32:28Z</time>
      </trkpt>
      <trkpt lat="47.47247" lon="6.76398">
        <ele>313.4</ele>
        <time>2017-10-01T09:32:29Z</time>
      </trkpt>
      <trkpt lat="47.47253" lon="6.76397">
        <ele>313.3</ele>
        <time>2017-10-01T09:32:30Z</time>
      </trkpt>
      <trkpt lat="47.47259" lon="6.76395">
        <ele>313.3</ele>
        <time>2017-10-01T09:32:31Z</time>
      </trkpt>
      <trkpt lat="47.47264" lon="6.76394">
        <ele>313.3</ele>
        <time>2017-10-01T09:32:32Z</time>
      </trkpt>
      <trkpt lat="47.47269" lon="6.76392">
        <ele>313.3</ele>
        <time>2017-10-01T09:32:33Z</time>
      </trkpt>
      <trkpt lat="47.47274" lon="6.76391">
        <ele>313.3</ele>
        <time>2017-10-01T09:32:34Z</time>
      </trkpt>
      <trkpt lat="47.47279" lon="6.7639">
        <ele>313.2</ele>
        <time>2017-10-01T09:32:35Z</time>
      </trkpt>
      <trkpt lat="47.47284" lon="6.76389">
        <ele>313.2</ele>
        <time>2017-10-01T09:32:36Z</time>
      </trkpt>
      <trkpt lat="47.4729" lon="6.76387">
        <ele>313.2</ele>
        <time>2017-10-01T09:32:37Z</time>
      </trkpt>
      <trkpt lat="47.47295" lon="6.76386">
        <ele>313.2</ele>
        <time>2017-10-01T09:32:38Z</time>
      </trkpt>
      <trkpt lat="47.47301" lon="6.76385">
        <ele>313.2</ele>
        <time>2017-10-01T09:32:39Z</time>
      </trkpt>
      <trkpt lat="47.47306" lon="6.76384">
        <ele>313.2</ele>
        <time>2017-10-01T09:32:40Z</time>
      </trkpt>
      <trkpt lat="47.47311" lon="6.76384">
        <ele>313.2</ele>
        <time>2017-10-01T09:32:41Z</time>
      </trkpt>
      <trkpt lat="47.47315" lon="6.76385">
        <ele>313.2</ele>
        <time>2017-10-01T09:32:42Z</time>
      </trkpt>
      <trkpt lat="47.4732" lon="6.76387">
        <ele>313.2</ele>
        <time>2017-10-01T09:32:43Z</time>
      </trkpt>
      <trkpt lat="47.47325" lon="6.76388">
        <ele>313.2</ele>
        <time>2017-10-01T09:32:44Z</time>
      </trkpt>
      <trkpt lat="47.47331" lon="6.7639">
        <ele>313.2</ele>
        <time>2017-10-01T09:32:45Z</time>
      </trkpt>
      <trkpt lat="47.47336" lon="6.76393">
        <ele>313.2</ele>
        <time>2017-10-01T09:32:46Z</time>
      </trkpt>
      <trkpt lat="47.47342" lon="6.76395">
        <ele>313.2</ele>
        <time>2017-10-01T09:32:47Z</time>
      </trkpt>
      <trkpt lat="47.47346" lon="6.76398">
        <ele>313.1</ele>
        <time>2017-10-01T09:32:48Z</time>
      </trkpt>
      <trkpt lat="47.47351" lon="6.76401">
        <ele>313.1</ele>
        <time>2017-10-01T09:32:49Z</time>
      </trkpt>
      <trkpt lat="47.47357" lon="6.76404">
        <ele>313.1</ele>
        <time>2017-10-01T09:32:50Z</time>
      </trkpt>
      <trkpt lat="47.47362" lon="6.76407">
        <ele>313.1</ele>
        <time>2017-10-01T09:32:51Z</time>
      </trkpt>
      <trkpt lat="47.47367" lon="6.7641">
        <ele>313.1</ele>
        <time>2017-10-01T09:32:52Z</time>
      </trkpt>
      <trkpt lat="47.47371" lon="6.76413">
        <ele>313.1</ele>
        <time>2017-10-01T09:32:53Z</time>
      </trkpt>
      <trkpt lat="47.47376" lon="6.76417">
        <ele>313.1</ele>
        <time>2017-10-01T09:32:54Z</time>
      </trkpt>
      <trkpt lat="47.4738" lon="6.7642">
        <ele>313.1</ele>
        <time>2017-10-01T09:32:55Z</time>
      </trkpt>
      <trkpt lat="47.47384" lon="6.76422">
        <ele>313.1</ele>
        <time>2017-10-01T09:32:56Z</time>
      </trkpt>
      <trkpt lat="47.47388" lon="6.76425">
        <ele>313.1</ele>
        <time>2017-10-01T09:32:57Z</time>
      </trkpt>
      <trkpt lat="47.47392" lon="6.76428">
        <ele>313.1</ele>
        <time>2017-10-01T09:32:58Z</time>
      </trkpt>
      <trkpt lat="47.47401" lon="6.76436">
        <ele>313.1</ele>
        <time>2017-10-01T09:33:00Z</time>
      </trkpt>
      <trkpt lat="47.47406" lon="6.76441">
        <ele>313.1</ele>
        <time>2017-10-01T09:33:01Z</time>
      </trkpt>
      <trkpt lat="47.47409" lon="6.76444">
        <ele>313.1</ele>
        <time>2017-10-01T09:33:02Z</time>
      </trkpt>
      <trkpt lat="47.47413" lon="6.76449">
        <ele>313.1</ele>
        <time>2017-10-01T09:33:03Z</time>
      </trkpt>
      <trkpt lat="47.47417" lon="6.76453">
        <ele>313.1</ele>
        <time>2017-10-01T09:33:04Z</time>
      </trkpt>
      <trkpt lat="47.47421" lon="6.76457">
        <ele>313</ele>
        <time>2017-10-01T09:33:05Z</time>
      </trkpt>
      <trkpt lat="47.47424" lon="6.7646">
        <ele>313</ele>
        <time>2017-10-01T09:33:06Z</time>
      </trkpt>
      <trkpt lat="47.47426" lon="6.76461">
        <ele>313</ele>
        <time>2017-10-01T09:33:07Z</time>
      </trkpt>
      <trkpt lat="47.47428" lon="6.76461">
        <ele>313</ele>
        <time>2017-10-01T09:33:08Z</time>
      </trkpt>
      <trkpt lat="47.47431" lon="6.76462">
        <ele>313</ele>
        <time>2017-10-01T09:33:09Z</time>
      </trkpt>
      <trkpt lat="47.47434" lon="6.76463">
        <ele>313</ele>
        <time>2017-10-01T09:33:10Z</time>
      </trkpt>
      <trkpt lat="47.47437" lon="6.76462">
        <ele>313</ele>
        <time>2017-10-01T09:33:11Z</time>
      </trkpt>
      <trkpt lat="47.4744" lon="6.76461">
        <ele>313</ele>
        <time>2017-10-01T09:33:12Z</time>
      </trkpt>
      <trkpt lat="47.47442" lon="6.76457">
        <ele>313</ele>
        <time>2017-10-01T09:33:13Z</time>
      </trkpt>
      <trkpt lat="47.47446" lon="6.76451">
        <ele>313</ele>
        <time>2017-10-01T09:33:14Z</time>
      </trkpt>
      <trkpt lat="47.47447" lon="6.76447">
        <ele>313</ele>
        <time>2017-10-01T09:33:15Z</time>
      </trkpt>
      <trkpt lat="47.47451" lon="6.76444">
        <ele>312.9</ele>
        <time>2017-10-01T09:33:16Z</time>
      </trkpt>
      <trkpt lat="47.4746" lon="6.76441">
        <ele>312.9</ele>
        <time>2017-10-01T09:33:18Z</time>
      </trkpt>
      <trkpt lat="47.47464" lon="6.76439">
        <ele>312.9</ele>
        <time>2017-10-01T09:33:19Z</time>
      </trkpt>
      <trkpt lat="47.47468" lon="6.76433">
        <ele>312.9</ele>
        <time>2017-10-01T09:33:20Z</time>
      </trkpt>
      <trkpt lat="47.47471" lon="6.76427">
        <ele>312.9</ele>
        <time>2017-10-01T09:33:21Z</time>
      </trkpt>
      <trkpt lat="47.47473" lon="6.7642">
        <ele>313</ele>
        <time>2017-10-01T09:33:22Z</time>
      </trkpt>
      <trkpt lat="47.47474" lon="6.76411">
        <ele>312.8</ele>
        <time>2017-10-01T09:33:24Z</time>
      </trkpt>
      <trkpt lat="47.47475" lon="6.76408">
        <ele>312.7</ele>
        <time>2017-10-01T09:33:25Z</time>
      </trkpt>
      <trkpt lat="47.47478" lon="6.76406">
        <ele>312.6</ele>
        <time>2017-10-01T09:33:26Z</time>
      </trkpt>
      <trkpt lat="47.47481" lon="6.76406">
        <ele>312.6</ele>
        <time>2017-10-01T09:33:27Z</time>
      </trkpt>
      <trkpt lat="47.47497" lon="6.76404">
        <ele>312.8</ele>
        <time>2017-10-01T09:33:31Z</time>
      </trkpt>
      <trkpt lat="47.47505" lon="6.76406">
        <ele>312.9</ele>
        <time>2017-10-01T09:33:33Z</time>
      </trkpt>
      <trkpt lat="47.47507" lon="6.76411">
        <ele>312.8</ele>
        <time>2017-10-01T09:33:34Z</time>
      </trkpt>
      <trkpt lat="47.47511" lon="6.76415">
        <ele>312.7</ele>
        <time>2017-10-01T09:33:35Z</time>
      </trkpt>
      <trkpt lat="47.47516" lon="6.76417">
        <ele>312.7</ele>
        <time>2017-10-01T09:33:36Z</time>
      </trkpt>
      <trkpt lat="47.47523" lon="6.76415">
        <ele>312.5</ele>
        <time>2017-10-01T09:33:38Z</time>
      </trkpt>
      <trkpt lat="47.47527" lon="6.76414">
        <ele>312.5</ele>
        <time>2017-10-01T09:33:39Z</time>
      </trkpt>
      <trkpt lat="47.47536" lon="6.76406">
        <ele>312.4</ele>
        <time>2017-10-01T09:33:42Z</time>
      </trkpt>
      <trkpt lat="47.47538" lon="6.76401">
        <ele>312.3</ele>
        <time>2017-10-01T09:33:43Z</time>
      </trkpt>
      <trkpt lat="47.4754" lon="6.76397">
        <ele>312.3</ele>
        <time>2017-10-01T09:33:44Z</time>
      </trkpt>
      <trkpt lat="47.47542" lon="6.76393">
        <ele>312.3</ele>
        <time>2017-10-01T09:33:45Z</time>
      </trkpt>
      <trkpt lat="47.47543" lon="6.76388">
        <ele>312.2</ele>
        <time>2017-10-01T09:33:46Z</time>
      </trkpt>
      <trkpt lat="47.47544" lon="6.76381">
        <ele>312.2</ele>
        <time>2017-10-01T09:33:47Z</time>
      </trkpt>
      <trkpt lat="47.47546" lon="6.76376">
        <ele>312.2</ele>
        <time>2017-10-01T09:33:48Z</time>
      </trkpt>
      <trkpt lat="47.47547" lon="6.76371">
        <ele>312.2</ele>
        <time>2017-10-01T09:33:49Z</time>
      </trkpt>
      <trkpt lat="47.47548" lon="6.76366">
        <ele>312.1</ele>
        <time>2017-10-01T09:33:50Z</time>
      </trkpt>
      <trkpt lat="47.47551" lon="6.76361">
        <ele>312.1</ele>
        <time>2017-10-01T09:33:51Z</time>
      </trkpt>
      <trkpt lat="47.47554" lon="6.76357">
        <ele>312.1</ele>
        <time>2017-10-01T09:33:52Z</time>
      </trkpt>
      <trkpt lat="47.47557" lon="6.76353">
        <ele>312.1</ele>
        <time>2017-10-01T09:33:53Z</time>
      </trkpt>
      <trkpt lat="47.4756" lon="6.76348">
        <ele>312</ele>
        <time>2017-10-01T09:33:54Z</time>
      </trkpt>
      <trkpt lat="47.47563" lon="6.76343">
        <ele>312</ele>
        <time>2017-10-01T09:33:55Z</time>
      </trkpt>
      <trkpt lat="47.47565" lon="6.76338">
        <ele>311.9</ele>
        <time>2017-10-01T09:33:56Z</time>
      </trkpt>
      <trkpt lat="47.47568" lon="6.76331">
        <ele>311.9</ele>
        <time>2017-10-01T09:33:57Z</time>
      </trkpt>
      <trkpt lat="47.4757" lon="6.76327">
        <ele>311.9</ele>
        <time>2017-10-01T09:33:58Z</time>
      </trkpt>
      <trkpt lat="47.47573" lon="6.76324">
        <ele>311.9</ele>
        <time>2017-10-01T09:33:59Z</time>
      </trkpt>
      <trkpt lat="47.47576" lon="6.7632">
        <ele>311.9</ele>
        <time>2017-10-01T09:34:00Z</time>
      </trkpt>
      <trkpt lat="47.47579" lon="6.76315">
        <ele>311.8</ele>
        <time>2017-10-01T09:34:01Z</time>
      </trkpt>
      <trkpt lat="47.47582" lon="6.7631">
        <ele>311.8</ele>
        <time>2017-10-01T09:34:02Z</time>
      </trkpt>
      <trkpt lat="47.47586" lon="6.76304">
        <ele>311.8</ele>
        <time>2017-10-01T09:34:03Z</time>
      </trkpt>
      <trkpt lat="47.47589" lon="6.76299">
        <ele>311.8</ele>
        <time>2017-10-01T09:34:04Z</time>
      </trkpt>
      <trkpt lat="47.47591" lon="6.76295">
        <ele>311.8</ele>
        <time>2017-10-01T09:34:05Z</time>
      </trkpt>
      <trkpt lat="47.47592" lon="6.76292">
        <ele>311.8</ele>
        <time>2017-10-01T09:34:06Z</time>
      </trkpt>
      <trkpt lat="47.47595" lon="6.76288">
        <ele>311.8</ele>
        <time>2017-10-01T09:34:07Z</time>
      </trkpt>
      <trkpt lat="47.47597" lon="6.76284">
        <ele>311.7</ele>
        <time>2017-10-01T09:34:08Z</time>
      </trkpt>
      <trkpt lat="47.47599" lon="6.7628">
        <ele>311.7</ele>
        <time>2017-10-01T09:34:09Z</time>
      </trkpt>
      <trkpt lat="47.47602" lon="6.76276">
        <ele>311.7</ele>
        <time>2017-10-01T09:34:10Z</time>
      </trkpt>
      <trkpt lat="47.47604" lon="6.76272">
        <ele>311.7</ele>
        <time>2017-10-01T09:34:11Z</time>
      </trkpt>
      <trkpt lat="47.47607" lon="6.76268">
        <ele>311.7</ele>
        <time>2017-10-01T09:34:12Z</time>
      </trkpt>
      <trkpt lat="47.4761" lon="6.76264">
        <ele>311.7</ele>
        <time>2017-10-01T09:34:13Z</time>
      </trkpt>
      <trkpt lat="47.47612" lon="6.76258">
        <ele>311.7</ele>
        <time>2017-10-01T09:34:14Z</time>
      </trkpt>
      <trkpt lat="47.47615" lon="6.76252">
        <ele>311.7</ele>
        <time>2017-10-01T09:34:15Z</time>
      </trkpt>
      <trkpt lat="47.47619" lon="6.76246">
        <ele>311.7</ele>
        <time>2017-10-01T09:34:16Z</time>
      </trkpt>
      <trkpt lat="47.47622" lon="6.76241">
        <ele>311.7</ele>
        <time>2017-10-01T09:34:17Z</time>
      </trkpt>
      <trkpt lat="47.47626" lon="6.76236">
        <ele>311.7</ele>
        <time>2017-10-01T09:34:18Z</time>
      </trkpt>
      <trkpt lat="47.47629" lon="6.76231">
        <ele>311.7</ele>
        <time>2017-10-01T09:34:19Z</time>
      </trkpt>
      <trkpt lat="47.47632" lon="6.76226">
        <ele>311.7</ele>
        <time>2017-10-01T09:34:20Z</time>
      </trkpt>
      <trkpt lat="47.47634" lon="6.76222">
        <ele>311.7</ele>
        <time>2017-10-01T09:34:21Z</time>
      </trkpt>
      <trkpt lat="47.47637" lon="6.76217">
        <ele>311.8</ele>
        <time>2017-10-01T09:34:22Z</time>
      </trkpt>
      <trkpt lat="47.4764" lon="6.76211">
        <ele>311.8</ele>
        <time>2017-10-01T09:34:23Z</time>
      </trkpt>
      <trkpt lat="47.47643" lon="6.76205">
        <ele>311.9</ele>
        <time>2017-10-01T09:34:24Z</time>
      </trkpt>
      <trkpt lat="47.47646" lon="6.76198">
        <ele>312</ele>
        <time>2017-10-01T09:34:25Z</time>
      </trkpt>
      <trkpt lat="47.47648" lon="6.76192">
        <ele>312.1</ele>
        <time>2017-10-01T09:34:26Z</time>
      </trkpt>
      <trkpt lat="47.4765" lon="6.76186">
        <ele>312.1</ele>
        <time>2017-10-01T09:34:27Z</time>
      </trkpt>
      <trkpt lat="47.47655" lon="6.76175">
        <ele>312.2</ele>
        <time>2017-10-01T09:34:29Z</time>
      </trkpt>
      <trkpt lat="47.47657" lon="6.7617">
        <ele>312.2</ele>
        <time>2017-10-01T09:34:30Z</time>
      </trkpt>
      <trkpt lat="47.47659" lon="6.76164">
        <ele>312.2</ele>
        <time>2017-10-01T09:34:31Z</time>
      </trkpt>
      <trkpt lat="47.47662" lon="6.76157">
        <ele>312.2</ele>
        <time>2017-10-01T09:34:32Z</time>
      </trkpt>
      <trkpt lat="47.47665" lon="6.76151">
        <ele>312.2</ele>
        <time>2017-10-01T09:34:33Z</time>
      </trkpt>
      <trkpt lat="47.47667" lon="6.76146">
        <ele>312.2</ele>
        <time>2017-10-01T09:34:34Z</time>
      </trkpt>
      <trkpt lat="47.47669" lon="6.7614">
        <ele>312.2</ele>
        <time>2017-10-01T09:34:35Z</time>
      </trkpt>
      <trkpt lat="47.47672" lon="6.76134">
        <ele>312.2</ele>
        <time>2017-10-01T09:34:36Z</time>
      </trkpt>
      <trkpt lat="47.47674" lon="6.76128">
        <ele>312.2</ele>
        <time>2017-10-01T09:34:37Z</time>
      </trkpt>
      <trkpt lat="47.47677" lon="6.76122">
        <ele>312.1</ele>
        <time>2017-10-01T09:34:38Z</time>
      </trkpt>
      <trkpt lat="47.47678" lon="6.76115">
        <ele>312.1</ele>
        <time>2017-10-01T09:34:39Z</time>
      </trkpt>
      <trkpt lat="47.47679" lon="6.76107">
        <ele>312.1</ele>
        <time>2017-10-01T09:34:40Z</time>
      </trkpt>
      <trkpt lat="47.47679" lon="6.76102">
        <ele>312.1</ele>
        <time>2017-10-01T09:34:41Z</time>
      </trkpt>
      <trkpt lat="47.47681" lon="6.76098">
        <ele>312.1</ele>
        <time>2017-10-01T09:34:42Z</time>
      </trkpt>
      <trkpt lat="47.47683" lon="6.76094">
        <ele>311.7</ele>
        <time>2017-10-01T09:34:46Z</time>
      </trkpt>
      <trkpt lat="47.47687" lon="6.76099">
        <ele>311.6</ele>
        <time>2017-10-01T09:34:48Z</time>
      </trkpt>
      <trkpt lat="47.47697" lon="6.76111">
        <ele>311.3</ele>
        <time>2017-10-01T09:34:51Z</time>
      </trkpt>
      <trkpt lat="47.47699" lon="6.76115">
        <ele>311.2</ele>
        <time>2017-10-01T09:34:52Z</time>
      </trkpt>
      <trkpt lat="47.47702" lon="6.7612">
        <ele>311</ele>
        <time>2017-10-01T09:34:53Z</time>
      </trkpt>
      <trkpt lat="47.47705" lon="6.76125">
        <ele>310.9</ele>
        <time>2017-10-01T09:34:54Z</time>
      </trkpt>
      <trkpt lat="47.47708" lon="6.76129">
        <ele>310.6</ele>
        <time>2017-10-01T09:34:55Z</time>
      </trkpt>
      <trkpt lat="47.47711" lon="6.76134">
        <ele>310.4</ele>
        <time>2017-10-01T09:34:56Z</time>
      </trkpt>
      <trkpt lat="47.47713" lon="6.76138">
        <ele>310.2</ele>
        <time>2017-10-01T09:34:57Z</time>
      </trkpt>
      <trkpt lat="47.47716" lon="6.76142">
        <ele>310</ele>
        <time>2017-10-01T09:34:58Z</time>
      </trkpt>
      <trkpt lat="47.47719" lon="6.76148">
        <ele>309.7</ele>
        <time>2017-10-01T09:34:59Z</time>
      </trkpt>
      <trkpt lat="47.47722" lon="6.76153">
        <ele>309.5</ele>
        <time>2017-10-01T09:35:00Z</time>
      </trkpt>
      <trkpt lat="47.47724" lon="6.76157">
        <ele>309.4</ele>
        <time>2017-10-01T09:35:01Z</time>
      </trkpt>
      <trkpt lat="47.47727" lon="6.76161">
        <ele>309.2</ele>
        <time>2017-10-01T09:35:02Z</time>
      </trkpt>
      <trkpt lat="47.4773" lon="6.76166">
        <ele>309</ele>
        <time>2017-10-01T09:35:03Z</time>
      </trkpt>
      <trkpt lat="47.47733" lon="6.7617">
        <ele>308.8</ele>
        <time>2017-10-01T09:35:04Z</time>
      </trkpt>
      <trkpt lat="47.47736" lon="6.76176">
        <ele>308.6</ele>
        <time>2017-10-01T09:35:05Z</time>
      </trkpt>
      <trkpt lat="47.47739" lon="6.76181">
        <ele>308.4</ele>
        <time>2017-10-01T09:35:06Z</time>
      </trkpt>
      <trkpt lat="47.47742" lon="6.76185">
        <ele>308.2</ele>
        <time>2017-10-01T09:35:07Z</time>
      </trkpt>
      <trkpt lat="47.47745" lon="6.7619">
        <ele>308</ele>
        <time>2017-10-01T09:35:08Z</time>
      </trkpt>
      <trkpt lat="47.47748" lon="6.76195">
        <ele>307.8</ele>
        <time>2017-10-01T09:35:09Z</time>
      </trkpt>
      <trkpt lat="47.47751" lon="6.762">
        <ele>307.5</ele>
        <time>2017-10-01T09:35:10Z</time>
      </trkpt>
      <trkpt lat="47.47755" lon="6.76206">
        <ele>307.3</ele>
        <time>2017-10-01T09:35:11Z</time>
      </trkpt>
      <trkpt lat="47.47758" lon="6.76211">
        <ele>307.1</ele>
        <time>2017-10-01T09:35:12Z</time>
      </trkpt>
      <trkpt lat="47.47761" lon="6.76216">
        <ele>307</ele>
        <time>2017-10-01T09:35:13Z</time>
      </trkpt>
      <trkpt lat="47.47764" lon="6.76222">
        <ele>307</ele>
        <time>2017-10-01T09:35:14Z</time>
      </trkpt>
      <trkpt lat="47.4777" lon="6.76232">
        <ele>307</ele>
        <time>2017-10-01T09:35:16Z</time>
      </trkpt>
      <trkpt lat="47.47774" lon="6.76237">
        <ele>307.1</ele>
        <time>2017-10-01T09:35:17Z</time>
      </trkpt>
      <trkpt lat="47.47778" lon="6.76242">
        <ele>307.1</ele>
        <time>2017-10-01T09:35:18Z</time>
      </trkpt>
      <trkpt lat="47.47782" lon="6.76247">
        <ele>307.1</ele>
        <time>2017-10-01T09:35:19Z</time>
      </trkpt>
      <trkpt lat="47.47787" lon="6.7625">
        <ele>307.1</ele>
        <time>2017-10-01T09:35:20Z</time>
      </trkpt>
      <trkpt lat="47.47792" lon="6.76252">
        <ele>307.1</ele>
        <time>2017-10-01T09:35:21Z</time>
      </trkpt>
      <trkpt lat="47.478" lon="6.76258">
        <ele>307.2</ele>
        <time>2017-10-01T09:35:23Z</time>
      </trkpt>
      <trkpt lat="47.47805" lon="6.76261">
        <ele>307.2</ele>
        <time>2017-10-01T09:35:24Z</time>
      </trkpt>
      <trkpt lat="47.47809" lon="6.76265">
        <ele>307.2</ele>
        <time>2017-10-01T09:35:25Z</time>
      </trkpt>
      <trkpt lat="47.47814" lon="6.76268">
        <ele>307.2</ele>
        <time>2017-10-01T09:35:26Z</time>
      </trkpt>
      <trkpt lat="47.47819" lon="6.76271">
        <ele>307.2</ele>
        <time>2017-10-01T09:35:27Z</time>
      </trkpt>
      <trkpt lat="47.47823" lon="6.76274">
        <ele>307.3</ele>
        <time>2017-10-01T09:35:28Z</time>
      </trkpt>
      <trkpt lat="47.47827" lon="6.76276">
        <ele>307.3</ele>
        <time>2017-10-01T09:35:29Z</time>
      </trkpt>
      <trkpt lat="47.47832" lon="6.76279">
        <ele>307.3</ele>
        <time>2017-10-01T09:35:30Z</time>
      </trkpt>
      <trkpt lat="47.47836" lon="6.76284">
        <ele>307.3</ele>
        <time>2017-10-01T09:35:31Z</time>
      </trkpt>
      <trkpt lat="47.4784" lon="6.76288">
        <ele>307.3</ele>
        <time>2017-10-01T09:35:32Z</time>
      </trkpt>
      <trkpt lat="47.47844" lon="6.76293">
        <ele>307.4</ele>
        <time>2017-10-01T09:35:33Z</time>
      </trkpt>
      <trkpt lat="47.47847" lon="6.76298">
        <ele>307.4</ele>
        <time>2017-10-01T09:35:34Z</time>
      </trkpt>
      <trkpt lat="47.4785" lon="6.76303">
        <ele>307.5</ele>
        <time>2017-10-01T09:35:35Z</time>
      </trkpt>
      <trkpt lat="47.47854" lon="6.76309">
        <ele>307.6</ele>
        <time>2017-10-01T09:35:36Z</time>
      </trkpt>
      <trkpt lat="47.47858" lon="6.76315">
        <ele>307.7</ele>
        <time>2017-10-01T09:35:37Z</time>
      </trkpt>
      <trkpt lat="47.47861" lon="6.76321">
        <ele>307.7</ele>
        <time>2017-10-01T09:35:38Z</time>
      </trkpt>
      <trkpt lat="47.47864" lon="6.76327">
        <ele>307.8</ele>
        <time>2017-10-01T09:35:39Z</time>
      </trkpt>
      <trkpt lat="47.47867" lon="6.76333">
        <ele>307.9</ele>
        <time>2017-10-01T09:35:40Z</time>
      </trkpt>
      <trkpt lat="47.4787" lon="6.7634">
        <ele>308</ele>
        <time>2017-10-01T09:35:41Z</time>
      </trkpt>
      <trkpt lat="47.47873" lon="6.76345">
        <ele>308.1</ele>
        <time>2017-10-01T09:35:42Z</time>
      </trkpt>
      <trkpt lat="47.47876" lon="6.76352">
        <ele>308.2</ele>
        <time>2017-10-01T09:35:43Z</time>
      </trkpt>
      <trkpt lat="47.4788" lon="6.76358">
        <ele>308.6</ele>
        <time>2017-10-01T09:35:44Z</time>
      </trkpt>
      <trkpt lat="47.47883" lon="6.76364">
        <ele>308.9</ele>
        <time>2017-10-01T09:35:45Z</time>
      </trkpt>
      <trkpt lat="47.47886" lon="6.7637">
        <ele>309.2</ele>
        <time>2017-10-01T09:35:46Z</time>
      </trkpt>
      <trkpt lat="47.47889" lon="6.76376">
        <ele>309.4</ele>
        <time>2017-10-01T09:35:47Z</time>
      </trkpt>
      <trkpt lat="47.47891" lon="6.76381">
        <ele>309.4</ele>
        <time>2017-10-01T09:35:48Z</time>
      </trkpt>
      <trkpt lat="47.47894" lon="6.76387">
        <ele>309.5</ele>
        <time>2017-10-01T09:35:49Z</time>
      </trkpt>
      <trkpt lat="47.47897" lon="6.76394">
        <ele>309.6</ele>
        <time>2017-10-01T09:35:50Z</time>
      </trkpt>
      <trkpt lat="47.47899" lon="6.764">
        <ele>309.7</ele>
        <time>2017-10-01T09:35:51Z</time>
      </trkpt>
      <trkpt lat="47.47902" lon="6.76406">
        <ele>309.7</ele>
        <time>2017-10-01T09:35:52Z</time>
      </trkpt>
      <trkpt lat="47.47905" lon="6.76413">
        <ele>309.8</ele>
        <time>2017-10-01T09:35:53Z</time>
      </trkpt>
      <trkpt lat="47.47908" lon="6.76419">
        <ele>309.8</ele>
        <time>2017-10-01T09:35:54Z</time>
      </trkpt>
      <trkpt lat="47.4791" lon="6.76425">
        <ele>309.8</ele>
        <time>2017-10-01T09:35:55Z</time>
      </trkpt>
      <trkpt lat="47.47913" lon="6.76431">
        <ele>309.9</ele>
        <time>2017-10-01T09:35:56Z</time>
      </trkpt>
      <trkpt lat="47.47914" lon="6.76438">
        <ele>309.9</ele>
        <time>2017-10-01T09:35:57Z</time>
      </trkpt>
      <trkpt lat="47.47915" lon="6.76444">
        <ele>309.9</ele>
        <time>2017-10-01T09:35:58Z</time>
      </trkpt>
      <trkpt lat="47.47916" lon="6.7645">
        <ele>310</ele>
        <time>2017-10-01T09:35:59Z</time>
      </trkpt>
      <trkpt lat="47.47918" lon="6.76458">
        <ele>310</ele>
        <time>2017-10-01T09:36:00Z</time>
      </trkpt>
      <trkpt lat="47.4792" lon="6.76466">
        <ele>310</ele>
        <time>2017-10-01T09:36:01Z</time>
      </trkpt>
      <trkpt lat="47.47922" lon="6.76473">
        <ele>309.9</ele>
        <time>2017-10-01T09:36:02Z</time>
      </trkpt>
      <trkpt lat="47.47924" lon="6.7648">
        <ele>309.9</ele>
        <time>2017-10-01T09:36:03Z</time>
      </trkpt>
      <trkpt lat="47.47927" lon="6.76487">
        <ele>309.9</ele>
        <time>2017-10-01T09:36:04Z</time>
      </trkpt>
      <trkpt lat="47.47929" lon="6.76495">
        <ele>310</ele>
        <time>2017-10-01T09:36:05Z</time>
      </trkpt>
      <trkpt lat="47.4793" lon="6.76503">
        <ele>310</ele>
        <time>2017-10-01T09:36:06Z</time>
      </trkpt>
      <trkpt lat="47.47932" lon="6.7651">
        <ele>310</ele>
        <time>2017-10-01T09:36:07Z</time>
      </trkpt>
      <trkpt lat="47.47934" lon="6.76518">
        <ele>310</ele>
        <time>2017-10-01T09:36:08Z</time>
      </trkpt>
      <trkpt lat="47.47935" lon="6.76526">
        <ele>310.1</ele>
        <time>2017-10-01T09:36:09Z</time>
      </trkpt>
      <trkpt lat="47.47937" lon="6.76534">
        <ele>310.2</ele>
        <time>2017-10-01T09:36:10Z</time>
      </trkpt>
      <trkpt lat="47.47939" lon="6.76541">
        <ele>310.2</ele>
        <time>2017-10-01T09:36:11Z</time>
      </trkpt>
      <trkpt lat="47.4794" lon="6.76548">
        <ele>310.3</ele>
        <time>2017-10-01T09:36:12Z</time>
      </trkpt>
      <trkpt lat="47.47942" lon="6.76555">
        <ele>310.2</ele>
        <time>2017-10-01T09:36:13Z</time>
      </trkpt>
      <trkpt lat="47.47944" lon="6.76563">
        <ele>310.2</ele>
        <time>2017-10-01T09:36:14Z</time>
      </trkpt>
      <trkpt lat="47.47946" lon="6.76571">
        <ele>310.2</ele>
        <time>2017-10-01T09:36:15Z</time>
      </trkpt>
      <trkpt lat="47.47947" lon="6.76579">
        <ele>310.1</ele>
        <time>2017-10-01T09:36:16Z</time>
      </trkpt>
      <trkpt lat="47.47948" lon="6.76585">
        <ele>310</ele>
        <time>2017-10-01T09:36:17Z</time>
      </trkpt>
      <trkpt lat="47.47949" lon="6.7659">
        <ele>310</ele>
        <time>2017-10-01T09:36:18Z</time>
      </trkpt>
      <trkpt lat="47.47951" lon="6.76596">
        <ele>310</ele>
        <time>2017-10-01T09:36:19Z</time>
      </trkpt>
      <trkpt lat="47.47952" lon="6.76603">
        <ele>310</ele>
        <time>2017-10-01T09:36:20Z</time>
      </trkpt>
      <trkpt lat="47.47953" lon="6.76608">
        <ele>310</ele>
        <time>2017-10-01T09:36:21Z</time>
      </trkpt>
      <trkpt lat="47.47954" lon="6.76611">
        <ele>310</ele>
        <time>2017-10-01T09:36:22Z</time>
      </trkpt>
      <trkpt lat="47.47956" lon="6.76615">
        <ele>310</ele>
        <time>2017-10-01T09:36:26Z</time>
      </trkpt>
      <trkpt lat="47.47957" lon="6.76617">
        <ele>310</ele>
        <time>2017-10-01T09:36:27Z</time>
      </trkpt>
      <trkpt lat="47.47959" lon="6.76618">
        <ele>310</ele>
        <time>2017-10-01T09:36:28Z</time>
      </trkpt>
      <trkpt lat="47.47962" lon="6.76619">
        <ele>310</ele>
        <time>2017-10-01T09:36:29Z</time>
      </trkpt>
      <trkpt lat="47.47966" lon="6.76622">
        <ele>310</ele>
        <time>2017-10-01T09:36:30Z</time>
      </trkpt>
      <trkpt lat="47.47969" lon="6.76621">
        <ele>310</ele>
        <time>2017-10-01T09:36:31Z</time>
      </trkpt>
      <trkpt lat="47.47971" lon="6.76619">
        <ele>310</ele>
        <time>2017-10-01T09:36:32Z</time>
      </trkpt>
      <trkpt lat="47.47974" lon="6.76616">
        <ele>310</ele>
        <time>2017-10-01T09:36:33Z</time>
      </trkpt>
      <trkpt lat="47.47977" lon="6.76613">
        <ele>310</ele>
        <time>2017-10-01T09:36:34Z</time>
      </trkpt>
      <trkpt lat="47.47981" lon="6.7661">
        <ele>310</ele>
        <time>2017-10-01T09:36:35Z</time>
      </trkpt>
      <trkpt lat="47.47985" lon="6.76607">
        <ele>310.1</ele>
        <time>2017-10-01T09:36:36Z</time>
      </trkpt>
      <trkpt lat="47.47989" lon="6.76604">
        <ele>310.2</ele>
        <time>2017-10-01T09:36:37Z</time>
      </trkpt>
      <trkpt lat="47.47993" lon="6.76601">
        <ele>310.3</ele>
        <time>2017-10-01T09:36:38Z</time>
      </trkpt>
      <trkpt lat="47.47997" lon="6.76598">
        <ele>310.5</ele>
        <time>2017-10-01T09:36:39Z</time>
      </trkpt>
      <trkpt lat="47.48002" lon="6.76595">
        <ele>310.6</ele>
        <time>2017-10-01T09:36:40Z</time>
      </trkpt>
      <trkpt lat="47.48006" lon="6.76592">
        <ele>310.7</ele>
        <time>2017-10-01T09:36:41Z</time>
      </trkpt>
      <trkpt lat="47.48009" lon="6.7659">
        <ele>310.8</ele>
        <time>2017-10-01T09:36:42Z</time>
      </trkpt>
      <trkpt lat="47.48013" lon="6.76587">
        <ele>310.9</ele>
        <time>2017-10-01T09:36:43Z</time>
      </trkpt>
      <trkpt lat="47.48018" lon="6.76584">
        <ele>311</ele>
        <time>2017-10-01T09:36:44Z</time>
      </trkpt>
      <trkpt lat="47.48022" lon="6.76581">
        <ele>311.1</ele>
        <time>2017-10-01T09:36:45Z</time>
      </trkpt>
      <trkpt lat="47.48026" lon="6.76578">
        <ele>311.3</ele>
        <time>2017-10-01T09:36:46Z</time>
      </trkpt>
      <trkpt lat="47.4803" lon="6.76575">
        <ele>311.4</ele>
        <time>2017-10-01T09:36:47Z</time>
      </trkpt>
      <trkpt lat="47.48034" lon="6.76571">
        <ele>311.5</ele>
        <time>2017-10-01T09:36:48Z</time>
      </trkpt>
      <trkpt lat="47.48038" lon="6.76568">
        <ele>311.6</ele>
        <time>2017-10-01T09:36:49Z</time>
      </trkpt>
      <trkpt lat="47.48042" lon="6.76565">
        <ele>311.7</ele>
        <time>2017-10-01T09:36:50Z</time>
      </trkpt>
      <trkpt lat="47.48046" lon="6.76561">
        <ele>311.8</ele>
        <time>2017-10-01T09:36:51Z</time>
      </trkpt>
      <trkpt lat="47.4805" lon="6.76557">
        <ele>312</ele>
        <time>2017-10-01T09:36:52Z</time>
      </trkpt>
      <trkpt lat="47.48054" lon="6.76553">
        <ele>312</ele>
        <time>2017-10-01T09:36:53Z</time>
      </trkpt>
      <trkpt lat="47.48058" lon="6.76549">
        <ele>312.1</ele>
        <time>2017-10-01T09:36:54Z</time>
      </trkpt>
      <trkpt lat="47.48062" lon="6.76545">
        <ele>312.1</ele>
        <time>2017-10-01T09:36:55Z</time>
      </trkpt>
      <trkpt lat="47.48066" lon="6.76541">
        <ele>312.2</ele>
        <time>2017-10-01T09:36:56Z</time>
      </trkpt>
      <trkpt lat="47.4807" lon="6.76538">
        <ele>312.2</ele>
        <time>2017-10-01T09:36:57Z</time>
      </trkpt>
      <trkpt lat="47.48074" lon="6.76534">
        <ele>312.2</ele>
        <time>2017-10-01T09:36:58Z</time>
      </trkpt>
      <trkpt lat="47.48078" lon="6.7653">
        <ele>312.3</ele>
        <time>2017-10-01T09:36:59Z</time>
      </trkpt>
      <trkpt lat="47.48083" lon="6.76526">
        <ele>312.4</ele>
        <time>2017-10-01T09:37:00Z</time>
      </trkpt>
      <trkpt lat="47.48088" lon="6.76522">
        <ele>312.5</ele>
        <time>2017-10-01T09:37:01Z</time>
      </trkpt>
      <trkpt lat="47.48092" lon="6.76519">
        <ele>312.6</ele>
        <time>2017-10-01T09:37:02Z</time>
      </trkpt>
      <trkpt lat="47.48096" lon="6.76515">
        <ele>312.7</ele>
        <time>2017-10-01T09:37:03Z</time>
      </trkpt>
      <trkpt lat="47.48101" lon="6.76512">
        <ele>312.9</ele>
        <time>2017-10-01T09:37:04Z</time>
      </trkpt>
      <trkpt lat="47.48106" lon="6.76512">
        <ele>313</ele>
        <time>2017-10-01T09:37:05Z</time>
      </trkpt>
      <trkpt lat="47.4811" lon="6.76515">
        <ele>313.1</ele>
        <time>2017-10-01T09:37:06Z</time>
      </trkpt>
      <trkpt lat="47.48113" lon="6.76519">
        <ele>313.1</ele>
        <time>2017-10-01T09:37:07Z</time>
      </trkpt>
      <trkpt lat="47.48115" lon="6.76524">
        <ele>313.1</ele>
        <time>2017-10-01T09:37:08Z</time>
      </trkpt>
      <trkpt lat="47.48117" lon="6.76529">
        <ele>313.2</ele>
        <time>2017-10-01T09:37:09Z</time>
      </trkpt>
      <trkpt lat="47.4812" lon="6.76534">
        <ele>313.2</ele>
        <time>2017-10-01T09:37:10Z</time>
      </trkpt>
      <trkpt lat="47.48121" lon="6.7654">
        <ele>313.3</ele>
        <time>2017-10-01T09:37:11Z</time>
      </trkpt>
      <trkpt lat="47.4812" lon="6.76546">
        <ele>313.3</ele>
        <time>2017-10-01T09:37:12Z</time>
      </trkpt>
      <trkpt lat="47.48118" lon="6.7655">
        <ele>313.3</ele>
        <time>2017-10-01T09:37:13Z</time>
      </trkpt>
      <trkpt lat="47.48116" lon="6.76556">
        <ele>313.4</ele>
        <time>2017-10-01T09:37:14Z</time>
      </trkpt>
      <trkpt lat="47.48113" lon="6.76563">
        <ele>313.4</ele>
        <time>2017-10-01T09:37:15Z</time>
      </trkpt>
      <trkpt lat="47.48109" lon="6.76571">
        <ele>313.5</ele>
        <time>2017-10-01T09:37:16Z</time>
      </trkpt>
      <trkpt lat="47.48106" lon="6.76579">
        <ele>313.6</ele>
        <time>2017-10-01T09:37:17Z</time>
      </trkpt>
      <trkpt lat="47.48103" lon="6.76587">
        <ele>313.6</ele>
        <time>2017-10-01T09:37:18Z</time>
      </trkpt>
      <trkpt lat="47.48102" lon="6.76595">
        <ele>313.6</ele>
        <time>2017-10-01T09:37:19Z</time>
      </trkpt>
      <trkpt lat="47.481" lon="6.76602">
        <ele>313.7</ele>
        <time>2017-10-01T09:37:20Z</time>
      </trkpt>
      <trkpt lat="47.481" lon="6.76611">
        <ele>313.7</ele>
        <time>2017-10-01T09:37:21Z</time>
      </trkpt>
      <trkpt lat="47.481" lon="6.76619">
        <ele>313.7</ele>
        <time>2017-10-01T09:37:22Z</time>
      </trkpt>
      <trkpt lat="47.48102" lon="6.76626">
        <ele>313.8</ele>
        <time>2017-10-01T09:37:23Z</time>
      </trkpt>
      <trkpt lat="47.48104" lon="6.76632">
        <ele>313.8</ele>
        <time>2017-10-01T09:37:24Z</time>
      </trkpt>
      <trkpt lat="47.48106" lon="6.76639">
        <ele>313.8</ele>
        <time>2017-10-01T09:37:25Z</time>
      </trkpt>
      <trkpt lat="47.48109" lon="6.76645">
        <ele>313.9</ele>
        <time>2017-10-01T09:37:26Z</time>
      </trkpt>
      <trkpt lat="47.48111" lon="6.76651">
        <ele>313.9</ele>
        <time>2017-10-01T09:37:27Z</time>
      </trkpt>
      <trkpt lat="47.48114" lon="6.76656">
        <ele>313.9</ele>
        <time>2017-10-01T09:37:28Z</time>
      </trkpt>
      <trkpt lat="47.48116" lon="6.76661">
        <ele>313.9</ele>
        <time>2017-10-01T09:37:29Z</time>
      </trkpt>
      <trkpt lat="47.4812" lon="6.76667">
        <ele>313.9</ele>
        <time>2017-10-01T09:37:30Z</time>
      </trkpt>
      <trkpt lat="47.48123" lon="6.76673">
        <ele>313.9</ele>
        <time>2017-10-01T09:37:31Z</time>
      </trkpt>
      <trkpt lat="47.48127" lon="6.76679">
        <ele>314</ele>
        <time>2017-10-01T09:37:32Z</time>
      </trkpt>
      <trkpt lat="47.48131" lon="6.76686">
        <ele>314</ele>
        <time>2017-10-01T09:37:33Z</time>
      </trkpt>
      <trkpt lat="47.48134" lon="6.76692">
        <ele>314</ele>
        <time>2017-10-01T09:37:34Z</time>
      </trkpt>
      <trkpt lat="47.48138" lon="6.767">
        <ele>314</ele>
        <time>2017-10-01T09:37:35Z</time>
      </trkpt>
      <trkpt lat="47.48142" lon="6.76706">
        <ele>314</ele>
        <time>2017-10-01T09:37:36Z</time>
      </trkpt>
      <trkpt lat="47.48146" lon="6.76713">
        <ele>314</ele>
        <time>2017-10-01T09:37:37Z</time>
      </trkpt>
      <trkpt lat="47.48149" lon="6.7672">
        <ele>314.1</ele>
        <time>2017-10-01T09:37:38Z</time>
      </trkpt>
      <trkpt lat="47.48153" lon="6.76727">
        <ele>314.1</ele>
        <time>2017-10-01T09:37:39Z</time>
      </trkpt>
      <trkpt lat="47.48156" lon="6.76733">
        <ele>314.1</ele>
        <time>2017-10-01T09:37:40Z</time>
      </trkpt>
      <trkpt lat="47.4816" lon="6.76739">
        <ele>314.1</ele>
        <time>2017-10-01T09:37:41Z</time>
      </trkpt>
      <trkpt lat="47.48163" lon="6.76744">
        <ele>314.2</ele>
        <time>2017-10-01T09:37:42Z</time>
      </trkpt>
      <trkpt lat="47.48166" lon="6.7675">
        <ele>314.2</ele>
        <time>2017-10-01T09:37:43Z</time>
      </trkpt>
      <trkpt lat="47.48169" lon="6.76755">
        <ele>314.2</ele>
        <time>2017-10-01T09:37:44Z</time>
      </trkpt>
      <trkpt lat="47.48173" lon="6.76759">
        <ele>314.2</ele>
        <time>2017-10-01T09:37:45Z</time>
      </trkpt>
      <trkpt lat="47.48177" lon="6.76764">
        <ele>314.2</ele>
        <time>2017-10-01T09:37:46Z</time>
      </trkpt>
      <trkpt lat="47.4818" lon="6.76769">
        <ele>314.2</ele>
        <time>2017-10-01T09:37:47Z</time>
      </trkpt>
      <trkpt lat="47.48185" lon="6.76773">
        <ele>314.3</ele>
        <time>2017-10-01T09:37:48Z</time>
      </trkpt>
      <trkpt lat="47.48188" lon="6.76776">
        <ele>314.3</ele>
        <time>2017-10-01T09:37:49Z</time>
      </trkpt>
      <trkpt lat="47.48193" lon="6.76779">
        <ele>314.3</ele>
        <time>2017-10-01T09:37:50Z</time>
      </trkpt>
      <trkpt lat="47.48198" lon="6.76782">
        <ele>314.3</ele>
        <time>2017-10-01T09:37:51Z</time>
      </trkpt>
      <trkpt lat="47.48203" lon="6.76785">
        <ele>314.4</ele>
        <time>2017-10-01T09:37:52Z</time>
      </trkpt>
      <trkpt lat="47.48208" lon="6.76787">
        <ele>314.4</ele>
        <time>2017-10-01T09:37:53Z</time>
      </trkpt>
      <trkpt lat="47.48213" lon="6.7679">
        <ele>314.4</ele>
        <time>2017-10-01T09:37:54Z</time>
      </trkpt>
      <trkpt lat="47.48217" lon="6.76792">
        <ele>314.4</ele>
        <time>2017-10-01T09:37:55Z</time>
      </trkpt>
      <trkpt lat="47.48222" lon="6.76794">
        <ele>314.4</ele>
        <time>2017-10-01T09:37:56Z</time>
      </trkpt>
      <trkpt lat="47.48226" lon="6.76796">
        <ele>314.5</ele>
        <time>2017-10-01T09:37:57Z</time>
      </trkpt>
      <trkpt lat="47.4823" lon="6.76798">
        <ele>314.5</ele>
        <time>2017-10-01T09:37:58Z</time>
      </trkpt>
      <trkpt lat="47.48234" lon="6.768">
        <ele>314.5</ele>
        <time>2017-10-01T09:37:59Z</time>
      </trkpt>
      <trkpt lat="47.48238" lon="6.76803">
        <ele>314.5</ele>
        <time>2017-10-01T09:38:00Z</time>
      </trkpt>
      <trkpt lat="47.48242" lon="6.76806">
        <ele>314.6</ele>
        <time>2017-10-01T09:38:01Z</time>
      </trkpt>
      <trkpt lat="47.48247" lon="6.7681">
        <ele>314.6</ele>
        <time>2017-10-01T09:38:02Z</time>
      </trkpt>
      <trkpt lat="47.48251" lon="6.76813">
        <ele>314.6</ele>
        <time>2017-10-01T09:38:03Z</time>
      </trkpt>
      <trkpt lat="47.48254" lon="6.76817">
        <ele>314.6</ele>
        <time>2017-10-01T09:38:04Z</time>
      </trkpt>
      <trkpt lat="47.48258" lon="6.76822">
        <ele>314.7</ele>
        <time>2017-10-01T09:38:05Z</time>
      </trkpt>
      <trkpt lat="47.48262" lon="6.76826">
        <ele>314.7</ele>
        <time>2017-10-01T09:38:06Z</time>
      </trkpt>
      <trkpt lat="47.48266" lon="6.76832">
        <ele>314.7</ele>
        <time>2017-10-01T09:38:07Z</time>
      </trkpt>
      <trkpt lat="47.48269" lon="6.76837">
        <ele>314.7</ele>
        <time>2017-10-01T09:38:08Z</time>
      </trkpt>
      <trkpt lat="47.48273" lon="6.76843">
        <ele>314.7</ele>
        <time>2017-10-01T09:38:09Z</time>
      </trkpt>
      <trkpt lat="47.48277" lon="6.76848">
        <ele>314.8</ele>
        <time>2017-10-01T09:38:10Z</time>
      </trkpt>
      <trkpt lat="47.4828" lon="6.76853">
        <ele>314.8</ele>
        <time>2017-10-01T09:38:11Z</time>
      </trkpt>
      <trkpt lat="47.48284" lon="6.76859">
        <ele>314.8</ele>
        <time>2017-10-01T09:38:12Z</time>
      </trkpt>
      <trkpt lat="47.48288" lon="6.76863">
        <ele>314.8</ele>
        <time>2017-10-01T09:38:13Z</time>
      </trkpt>
      <trkpt lat="47.48291" lon="6.76868">
        <ele>314.8</ele>
        <time>2017-10-01T09:38:14Z</time>
      </trkpt>
      <trkpt lat="47.48296" lon="6.76873">
        <ele>314.9</ele>
        <time>2017-10-01T09:38:15Z</time>
      </trkpt>
      <trkpt lat="47.48301" lon="6.76878">
        <ele>314.9</ele>
        <time>2017-10-01T09:38:16Z</time>
      </trkpt>
      <trkpt lat="47.48305" lon="6.76883">
        <ele>314.9</ele>
        <time>2017-10-01T09:38:17Z</time>
      </trkpt>
      <trkpt lat="47.48309" lon="6.76886">
        <ele>314.9</ele>
        <time>2017-10-01T09:38:18Z</time>
      </trkpt>
      <trkpt lat="47.48314" lon="6.76889">
        <ele>314.9</ele>
        <time>2017-10-01T09:38:19Z</time>
      </trkpt>
      <trkpt lat="47.48317" lon="6.76892">
        <ele>314.9</ele>
        <time>2017-10-01T09:38:20Z</time>
      </trkpt>
      <trkpt lat="47.48321" lon="6.76896">
        <ele>314.9</ele>
        <time>2017-10-01T09:38:21Z</time>
      </trkpt>
      <trkpt lat="47.48325" lon="6.76899">
        <ele>315</ele>
        <time>2017-10-01T09:38:22Z</time>
      </trkpt>
      <trkpt lat="47.4833" lon="6.76903">
        <ele>315</ele>
        <time>2017-10-01T09:38:23Z</time>
      </trkpt>
      <trkpt lat="47.48334" lon="6.76907">
        <ele>315</ele>
        <time>2017-10-01T09:38:24Z</time>
      </trkpt>
      <trkpt lat="47.48339" lon="6.7691">
        <ele>315</ele>
        <time>2017-10-01T09:38:25Z</time>
      </trkpt>
      <trkpt lat="47.48344" lon="6.76914">
        <ele>315</ele>
        <time>2017-10-01T09:38:26Z</time>
      </trkpt>
      <trkpt lat="47.48349" lon="6.76918">
        <ele>315</ele>
        <time>2017-10-01T09:38:27Z</time>
      </trkpt>
      <trkpt lat="47.48355" lon="6.76921">
        <ele>315</ele>
        <time>2017-10-01T09:38:28Z</time>
      </trkpt>
      <trkpt lat="47.48359" lon="6.76923">
        <ele>315</ele>
        <time>2017-10-01T09:38:29Z</time>
      </trkpt>
      <trkpt lat="47.48364" lon="6.76927">
        <ele>315.1</ele>
        <time>2017-10-01T09:38:30Z</time>
      </trkpt>
      <trkpt lat="47.48368" lon="6.76929">
        <ele>315.1</ele>
        <time>2017-10-01T09:38:31Z</time>
      </trkpt>
      <trkpt lat="47.48373" lon="6.76932">
        <ele>315.1</ele>
        <time>2017-10-01T09:38:32Z</time>
      </trkpt>
      <trkpt lat="47.48378" lon="6.76935">
        <ele>315.1</ele>
        <time>2017-10-01T09:38:33Z</time>
      </trkpt>
      <trkpt lat="47.48383" lon="6.76938">
        <ele>315.1</ele>
        <time>2017-10-01T09:38:34Z</time>
      </trkpt>
      <trkpt lat="47.48388" lon="6.76941">
        <ele>315.1</ele>
        <time>2017-10-01T09:38:35Z</time>
      </trkpt>
      <trkpt lat="47.48393" lon="6.76944">
        <ele>315.1</ele>
        <time>2017-10-01T09:38:36Z</time>
      </trkpt>
      <trkpt lat="47.48397" lon="6.76947">
        <ele>315.1</ele>
        <time>2017-10-01T09:38:37Z</time>
      </trkpt>
      <trkpt lat="47.48402" lon="6.7695">
        <ele>315.1</ele>
        <time>2017-10-01T09:38:38Z</time>
      </trkpt>
      <trkpt lat="47.48407" lon="6.76953">
        <ele>315.2</ele>
        <time>2017-10-01T09:38:39Z</time>
      </trkpt>
      <trkpt lat="47.48412" lon="6.76956">
        <ele>315.2</ele>
        <time>2017-10-01T09:38:40Z</time>
      </trkpt>
      <trkpt lat="47.48417" lon="6.76958">
        <ele>315.2</ele>
        <time>2017-10-01T09:38:41Z</time>
      </trkpt>
      <trkpt lat="47.48422" lon="6.76961">
        <ele>315.2</ele>
        <time>2017-10-01T09:38:42Z</time>
      </trkpt>
      <trkpt lat="47.48427" lon="6.76963">
        <ele>315.2</ele>
        <time>2017-10-01T09:38:43Z</time>
      </trkpt>
      <trkpt lat="47.48431" lon="6.76965">
        <ele>315.2</ele>
        <time>2017-10-01T09:38:44Z</time>
      </trkpt>
      <trkpt lat="47.48435" lon="6.76967">
        <ele>315.3</ele>
        <time>2017-10-01T09:38:45Z</time>
      </trkpt>
      <trkpt lat="47.4844" lon="6.7697">
        <ele>315.3</ele>
        <time>2017-10-01T09:38:46Z</time>
      </trkpt>
      <trkpt lat="47.48445" lon="6.76973">
        <ele>315.3</ele>
        <time>2017-10-01T09:38:47Z</time>
      </trkpt>
      <trkpt lat="47.48449" lon="6.76975">
        <ele>315.3</ele>
        <time>2017-10-01T09:38:48Z</time>
      </trkpt>
      <trkpt lat="47.48453" lon="6.76978">
        <ele>315.3</ele>
        <time>2017-10-01T09:38:49Z</time>
      </trkpt>
      <trkpt lat="47.48457" lon="6.76981">
        <ele>315.3</ele>
        <time>2017-10-01T09:38:50Z</time>
      </trkpt>
      <trkpt lat="47.48462" lon="6.76984">
        <ele>315.3</ele>
        <time>2017-10-01T09:38:51Z</time>
      </trkpt>
      <trkpt lat="47.48466" lon="6.76987">
        <ele>315.4</ele>
        <time>2017-10-01T09:38:52Z</time>
      </trkpt>
      <trkpt lat="47.48471" lon="6.7699">
        <ele>315.4</ele>
        <time>2017-10-01T09:38:53Z</time>
      </trkpt>
      <trkpt lat="47.48476" lon="6.76994">
        <ele>315.4</ele>
        <time>2017-10-01T09:38:54Z</time>
      </trkpt>
      <trkpt lat="47.48482" lon="6.76997">
        <ele>315.4</ele>
        <time>2017-10-01T09:38:55Z</time>
      </trkpt>
      <trkpt lat="47.48486" lon="6.76999">
        <ele>315.4</ele>
        <time>2017-10-01T09:38:56Z</time>
      </trkpt>
      <trkpt lat="47.48491" lon="6.77001">
        <ele>315.4</ele>
        <time>2017-10-01T09:38:57Z</time>
      </trkpt>
      <trkpt lat="47.48495" lon="6.77004">
        <ele>315.4</ele>
        <time>2017-10-01T09:38:58Z</time>
      </trkpt>
      <trkpt lat="47.48501" lon="6.77007">
        <ele>315.5</ele>
        <time>2017-10-01T09:38:59Z</time>
      </trkpt>
      <trkpt lat="47.48506" lon="6.7701">
        <ele>315.5</ele>
        <time>2017-10-01T09:39:00Z</time>
      </trkpt>
      <trkpt lat="47.4851" lon="6.77014">
        <ele>315.5</ele>
        <time>2017-10-01T09:39:01Z</time>
      </trkpt>
      <trkpt lat="47.48515" lon="6.77017">
        <ele>315.5</ele>
        <time>2017-10-01T09:39:02Z</time>
      </trkpt>
      <trkpt lat="47.48518" lon="6.7702">
        <ele>315.5</ele>
        <time>2017-10-01T09:39:03Z</time>
      </trkpt>
      <trkpt lat="47.48523" lon="6.77023">
        <ele>315.5</ele>
        <time>2017-10-01T09:39:04Z</time>
      </trkpt>
      <trkpt lat="47.48527" lon="6.77026">
        <ele>315.5</ele>
        <time>2017-10-01T09:39:05Z</time>
      </trkpt>
      <trkpt lat="47.48531" lon="6.7703">
        <ele>315.5</ele>
        <time>2017-10-01T09:39:06Z</time>
      </trkpt>
      <trkpt lat="47.48536" lon="6.77033">
        <ele>315.6</ele>
        <time>2017-10-01T09:39:07Z</time>
      </trkpt>
      <trkpt lat="47.48541" lon="6.77037">
        <ele>315.6</ele>
        <time>2017-10-01T09:39:08Z</time>
      </trkpt>
      <trkpt lat="47.48545" lon="6.77041">
        <ele>315.6</ele>
        <time>2017-10-01T09:39:09Z</time>
      </trkpt>
      <trkpt lat="47.4855" lon="6.77044">
        <ele>315.7</ele>
        <time>2017-10-01T09:39:10Z</time>
      </trkpt>
      <trkpt lat="47.48554" lon="6.77046">
        <ele>315.7</ele>
        <time>2017-10-01T09:39:11Z</time>
      </trkpt>
      <trkpt lat="47.48558" lon="6.77047">
        <ele>315.7</ele>
        <time>2017-10-01T09:39:12Z</time>
      </trkpt>
      <trkpt lat="47.48562" lon="6.77048">
        <ele>315.7</ele>
        <time>2017-10-01T09:39:13Z</time>
      </trkpt>
      <trkpt lat="47.48565" lon="6.7705">
        <ele>315.7</ele>
        <time>2017-10-01T09:39:14Z</time>
      </trkpt>
      <trkpt lat="47.48568" lon="6.77052">
        <ele>315.8</ele>
        <time>2017-10-01T09:39:15Z</time>
      </trkpt>
      <trkpt lat="47.48573" lon="6.77054">
        <ele>315.8</ele>
        <time>2017-10-01T09:39:16Z</time>
      </trkpt>
      <trkpt lat="47.48577" lon="6.77056">
        <ele>315.8</ele>
        <time>2017-10-01T09:39:17Z</time>
      </trkpt>
      <trkpt lat="47.48581" lon="6.77059">
        <ele>315.8</ele>
        <time>2017-10-01T09:39:18Z</time>
      </trkpt>
      <trkpt lat="47.48586" lon="6.77061">
        <ele>315.9</ele>
        <time>2017-10-01T09:39:19Z</time>
      </trkpt>
      <trkpt lat="47.48591" lon="6.77063">
        <ele>315.9</ele>
        <time>2017-10-01T09:39:20Z</time>
      </trkpt>
      <trkpt lat="47.48596" lon="6.77065">
        <ele>315.9</ele>
        <time>2017-10-01T09:39:21Z</time>
      </trkpt>
      <trkpt lat="47.486" lon="6.77067">
        <ele>315.9</ele>
        <time>2017-10-01T09:39:22Z</time>
      </trkpt>
      <trkpt lat="47.48605" lon="6.7707">
        <ele>315.9</ele>
        <time>2017-10-01T09:39:23Z</time>
      </trkpt>
      <trkpt lat="47.48609" lon="6.77074">
        <ele>316</ele>
        <time>2017-10-01T09:39:24Z</time>
      </trkpt>
      <trkpt lat="47.48612" lon="6.77077">
        <ele>316</ele>
        <time>2017-10-01T09:39:25Z</time>
      </trkpt>
      <trkpt lat="47.48616" lon="6.7708">
        <ele>316</ele>
        <time>2017-10-01T09:39:26Z</time>
      </trkpt>
      <trkpt lat="47.4862" lon="6.77082">
        <ele>316</ele>
        <time>2017-10-01T09:39:27Z</time>
      </trkpt>
      <trkpt lat="47.48624" lon="6.77084">
        <ele>316</ele>
        <time>2017-10-01T09:39:28Z</time>
      </trkpt>
      <trkpt lat="47.48629" lon="6.77087">
        <ele>315.9</ele>
        <time>2017-10-01T09:39:29Z</time>
      </trkpt>
      <trkpt lat="47.48633" lon="6.77091">
        <ele>315.9</ele>
        <time>2017-10-01T09:39:30Z</time>
      </trkpt>
      <trkpt lat="47.48638" lon="6.77095">
        <ele>315.8</ele>
        <time>2017-10-01T09:39:31Z</time>
      </trkpt>
      <trkpt lat="47.48642" lon="6.77099">
        <ele>315.8</ele>
        <time>2017-10-01T09:39:32Z</time>
      </trkpt>
      <trkpt lat="47.48646" lon="6.77104">
        <ele>315.7</ele>
        <time>2017-10-01T09:39:33Z</time>
      </trkpt>
      <trkpt lat="47.4865" lon="6.77109">
        <ele>315.7</ele>
        <time>2017-10-01T09:39:34Z</time>
      </trkpt>
      <trkpt lat="47.48654" lon="6.77114">
        <ele>315.6</ele>
        <time>2017-10-01T09:39:35Z</time>
      </trkpt>
      <trkpt lat="47.48658" lon="6.77119">
        <ele>315.6</ele>
        <time>2017-10-01T09:39:36Z</time>
      </trkpt>
      <trkpt lat="47.48662" lon="6.77124">
        <ele>315.5</ele>
        <time>2017-10-01T09:39:37Z</time>
      </trkpt>
      <trkpt lat="47.48666" lon="6.77128">
        <ele>315.5</ele>
        <time>2017-10-01T09:39:38Z</time>
      </trkpt>
      <trkpt lat="47.48671" lon="6.77133">
        <ele>315.4</ele>
        <time>2017-10-01T09:39:39Z</time>
      </trkpt>
      <trkpt lat="47.48676" lon="6.77138">
        <ele>315.3</ele>
        <time>2017-10-01T09:39:40Z</time>
      </trkpt>
      <trkpt lat="47.4868" lon="6.77143">
        <ele>315.3</ele>
        <time>2017-10-01T09:39:41Z</time>
      </trkpt>
      <trkpt lat="47.48684" lon="6.77147">
        <ele>315.2</ele>
        <time>2017-10-01T09:39:42Z</time>
      </trkpt>
      <trkpt lat="47.48688" lon="6.77151">
        <ele>315.1</ele>
        <time>2017-10-01T09:39:43Z</time>
      </trkpt>
      <trkpt lat="47.48693" lon="6.77156">
        <ele>315.1</ele>
        <time>2017-10-01T09:39:44Z</time>
      </trkpt>
      <trkpt lat="47.48697" lon="6.7716">
        <ele>315</ele>
        <time>2017-10-01T09:39:45Z</time>
      </trkpt>
      <trkpt lat="47.48701" lon="6.77164">
        <ele>315</ele>
        <time>2017-10-01T09:39:46Z</time>
      </trkpt>
      <trkpt lat="47.48706" lon="6.77168">
        <ele>314.9</ele>
        <time>2017-10-01T09:39:47Z</time>
      </trkpt>
      <trkpt lat="47.48711" lon="6.77171">
        <ele>314.9</ele>
        <time>2017-10-01T09:39:48Z</time>
      </trkpt>
      <trkpt lat="47.48716" lon="6.77174">
        <ele>314.9</ele>
        <time>2017-10-01T09:39:49Z</time>
      </trkpt>
      <trkpt lat="47.48721" lon="6.77178">
        <ele>314.8</ele>
        <time>2017-10-01T09:39:50Z</time>
      </trkpt>
      <trkpt lat="47.48726" lon="6.77182">
        <ele>314.8</ele>
        <time>2017-10-01T09:39:51Z</time>
      </trkpt>
      <trkpt lat="47.48731" lon="6.77186">
        <ele>314.7</ele>
        <time>2017-10-01T09:39:52Z</time>
      </trkpt>
      <trkpt lat="47.48735" lon="6.77189">
        <ele>314.7</ele>
        <time>2017-10-01T09:39:53Z</time>
      </trkpt>
      <trkpt lat="47.48739" lon="6.77192">
        <ele>314.7</ele>
        <time>2017-10-01T09:39:54Z</time>
      </trkpt>
      <trkpt lat="47.48743" lon="6.77196">
        <ele>314.7</ele>
        <time>2017-10-01T09:39:55Z</time>
      </trkpt>
      <trkpt lat="47.48748" lon="6.77199">
        <ele>314.6</ele>
        <time>2017-10-01T09:39:56Z</time>
      </trkpt>
      <trkpt lat="47.48752" lon="6.77202">
        <ele>314.6</ele>
        <time>2017-10-01T09:39:57Z</time>
      </trkpt>
      <trkpt lat="47.48756" lon="6.77205">
        <ele>314.6</ele>
        <time>2017-10-01T09:39:58Z</time>
      </trkpt>
      <trkpt lat="47.48761" lon="6.77209">
        <ele>314.5</ele>
        <time>2017-10-01T09:39:59Z</time>
      </trkpt>
      <trkpt lat="47.48765" lon="6.77213">
        <ele>314.5</ele>
        <time>2017-10-01T09:40:00Z</time>
      </trkpt>
      <trkpt lat="47.4877" lon="6.77216">
        <ele>314.5</ele>
        <time>2017-10-01T09:40:01Z</time>
      </trkpt>
      <trkpt lat="47.48774" lon="6.7722">
        <ele>314.4</ele>
        <time>2017-10-01T09:40:02Z</time>
      </trkpt>
      <trkpt lat="47.48779" lon="6.77223">
        <ele>314.4</ele>
        <time>2017-10-01T09:40:03Z</time>
      </trkpt>
      <trkpt lat="47.48783" lon="6.77227">
        <ele>314.4</ele>
        <time>2017-10-01T09:40:04Z</time>
      </trkpt>
      <trkpt lat="47.48787" lon="6.7723">
        <ele>314.4</ele>
        <time>2017-10-01T09:40:05Z</time>
      </trkpt>
      <trkpt lat="47.48792" lon="6.77234">
        <ele>314.3</ele>
        <time>2017-10-01T09:40:06Z</time>
      </trkpt>
      <trkpt lat="47.48797" lon="6.77238">
        <ele>314.3</ele>
        <time>2017-10-01T09:40:07Z</time>
      </trkpt>
      <trkpt lat="47.48802" lon="6.77241">
        <ele>314.3</ele>
        <time>2017-10-01T09:40:08Z</time>
      </trkpt>
      <trkpt lat="47.48806" lon="6.77245">
        <ele>314.2</ele>
        <time>2017-10-01T09:40:09Z</time>
      </trkpt>
      <trkpt lat="47.4881" lon="6.77248">
        <ele>314.2</ele>
        <time>2017-10-01T09:40:10Z</time>
      </trkpt>
      <trkpt lat="47.48815" lon="6.77252">
        <ele>314.2</ele>
        <time>2017-10-01T09:40:11Z</time>
      </trkpt>
      <trkpt lat="47.4882" lon="6.77255">
        <ele>314.1</ele>
        <time>2017-10-01T09:40:12Z</time>
      </trkpt>
      <trkpt lat="47.48824" lon="6.77259">
        <ele>314</ele>
        <time>2017-10-01T09:40:13Z</time>
      </trkpt>
      <trkpt lat="47.48828" lon="6.77262">
        <ele>314</ele>
        <time>2017-10-01T09:40:14Z</time>
      </trkpt>
      <trkpt lat="47.48832" lon="6.77265">
        <ele>314</ele>
        <time>2017-10-01T09:40:15Z</time>
      </trkpt>
      <trkpt lat="47.48836" lon="6.77268">
        <ele>313.9</ele>
        <time>2017-10-01T09:40:16Z</time>
      </trkpt>
      <trkpt lat="47.4884" lon="6.77271">
        <ele>313.9</ele>
        <time>2017-10-01T09:40:17Z</time>
      </trkpt>
      <trkpt lat="47.48845" lon="6.77274">
        <ele>313.8</ele>
        <time>2017-10-01T09:40:18Z</time>
      </trkpt>
      <trkpt lat="47.4885" lon="6.77277">
        <ele>313.7</ele>
        <time>2017-10-01T09:40:19Z</time>
      </trkpt>
      <trkpt lat="47.48855" lon="6.7728">
        <ele>313.6</ele>
        <time>2017-10-01T09:40:20Z</time>
      </trkpt>
      <trkpt lat="47.4886" lon="6.77282">
        <ele>313.6</ele>
        <time>2017-10-01T09:40:21Z</time>
      </trkpt>
      <trkpt lat="47.48866" lon="6.77285">
        <ele>313.5</ele>
        <time>2017-10-01T09:40:22Z</time>
      </trkpt>
      <trkpt lat="47.48871" lon="6.77288">
        <ele>313.5</ele>
        <time>2017-10-01T09:40:23Z</time>
      </trkpt>
      <trkpt lat="47.48876" lon="6.7729">
        <ele>313.5</ele>
        <time>2017-10-01T09:40:24Z</time>
      </trkpt>
      <trkpt lat="47.48882" lon="6.77291">
        <ele>313.4</ele>
        <time>2017-10-01T09:40:25Z</time>
      </trkpt>
      <trkpt lat="47.48887" lon="6.77293">
        <ele>313.4</ele>
        <time>2017-10-01T09:40:26Z</time>
      </trkpt>
      <trkpt lat="47.48892" lon="6.77294">
        <ele>313.4</ele>
        <time>2017-10-01T09:40:27Z</time>
      </trkpt>
      <trkpt lat="47.48898" lon="6.77296">
        <ele>313.3</ele>
        <time>2017-10-01T09:40:28Z</time>
      </trkpt>
      <trkpt lat="47.48903" lon="6.77297">
        <ele>313.3</ele>
        <time>2017-10-01T09:40:29Z</time>
      </trkpt>
      <trkpt lat="47.48909" lon="6.77298">
        <ele>313.3</ele>
        <time>2017-10-01T09:40:30Z</time>
      </trkpt>
      <trkpt lat="47.48914" lon="6.77299">
        <ele>313.2</ele>
        <time>2017-10-01T09:40:31Z</time>
      </trkpt>
      <trkpt lat="47.48919" lon="6.77301">
        <ele>313.2</ele>
        <time>2017-10-01T09:40:32Z</time>
      </trkpt>
      <trkpt lat="47.48924" lon="6.77303">
        <ele>313.2</ele>
        <time>2017-10-01T09:40:33Z</time>
      </trkpt>
      <trkpt lat="47.48929" lon="6.77304">
        <ele>313.2</ele>
        <time>2017-10-01T09:40:34Z</time>
      </trkpt>
      <trkpt lat="47.48934" lon="6.77306">
        <ele>313.1</ele>
        <time>2017-10-01T09:40:35Z</time>
      </trkpt>
      <trkpt lat="47.48939" lon="6.77308">
        <ele>313.1</ele>
        <time>2017-10-01T09:40:36Z</time>
      </trkpt>
      <trkpt lat="47.48944" lon="6.7731">
        <ele>313.1</ele>
        <time>2017-10-01T09:40:37Z</time>
      </trkpt>
      <trkpt lat="47.48949" lon="6.77312">
        <ele>313</ele>
        <time>2017-10-01T09:40:38Z</time>
      </trkpt>
      <trkpt lat="47.48954" lon="6.77314">
        <ele>313</ele>
        <time>2017-10-01T09:40:39Z</time>
      </trkpt>
      <trkpt lat="47.48959" lon="6.77315">
        <ele>313</ele>
        <time>2017-10-01T09:40:40Z</time>
      </trkpt>
      <trkpt lat="47.48964" lon="6.77317">
        <ele>312.9</ele>
        <time>2017-10-01T09:40:41Z</time>
      </trkpt>
      <trkpt lat="47.48969" lon="6.77318">
        <ele>312.9</ele>
        <time>2017-10-01T09:40:42Z</time>
      </trkpt>
      <trkpt lat="47.48974" lon="6.77319">
        <ele>312.9</ele>
        <time>2017-10-01T09:40:43Z</time>
      </trkpt>
      <trkpt lat="47.48979" lon="6.77319">
        <ele>312.9</ele>
        <time>2017-10-01T09:40:44Z</time>
      </trkpt>
      <trkpt lat="47.48984" lon="6.7732">
        <ele>312.8</ele>
        <time>2017-10-01T09:40:45Z</time>
      </trkpt>
      <trkpt lat="47.48989" lon="6.7732">
        <ele>312.8</ele>
        <time>2017-10-01T09:40:46Z</time>
      </trkpt>
      <trkpt lat="47.48995" lon="6.77321">
        <ele>312.8</ele>
        <time>2017-10-01T09:40:47Z</time>
      </trkpt>
      <trkpt lat="47.49" lon="6.77321">
        <ele>312.8</ele>
        <time>2017-10-01T09:40:48Z</time>
      </trkpt>
      <trkpt lat="47.49005" lon="6.77321">
        <ele>312.7</ele>
        <time>2017-10-01T09:40:49Z</time>
      </trkpt>
      <trkpt lat="47.4901" lon="6.77322">
        <ele>312.7</ele>
        <time>2017-10-01T09:40:50Z</time>
      </trkpt>
      <trkpt lat="47.49015" lon="6.77323">
        <ele>312.7</ele>
        <time>2017-10-01T09:40:51Z</time>
      </trkpt>
      <trkpt lat="47.4902" lon="6.77323">
        <ele>312.7</ele>
        <time>2017-10-01T09:40:52Z</time>
      </trkpt>
      <trkpt lat="47.49025" lon="6.77323">
        <ele>312.6</ele>
        <time>2017-10-01T09:40:53Z</time>
      </trkpt>
      <trkpt lat="47.4903" lon="6.77324">
        <ele>312.6</ele>
        <time>2017-10-01T09:40:54Z</time>
      </trkpt>
      <trkpt lat="47.49034" lon="6.77324">
        <ele>312.6</ele>
        <time>2017-10-01T09:40:55Z</time>
      </trkpt>
      <trkpt lat="47.49039" lon="6.77325">
        <ele>312.6</ele>
        <time>2017-10-01T09:40:56Z</time>
      </trkpt>
      <trkpt lat="47.49043" lon="6.77326">
        <ele>312.5</ele>
        <time>2017-10-01T09:40:57Z</time>
      </trkpt>
      <trkpt lat="47.49048" lon="6.77326">
        <ele>312.5</ele>
        <time>2017-10-01T09:40:58Z</time>
      </trkpt>
      <trkpt lat="47.49053" lon="6.77326">
        <ele>312.5</ele>
        <time>2017-10-01T09:40:59Z</time>
      </trkpt>
      <trkpt lat="47.49057" lon="6.77326">
        <ele>312.5</ele>
        <time>2017-10-01T09:41:00Z</time>
      </trkpt>
      <trkpt lat="47.49061" lon="6.77326">
        <ele>312.4</ele>
        <time>2017-10-01T09:41:01Z</time>
      </trkpt>
      <trkpt lat="47.49066" lon="6.77327">
        <ele>312.4</ele>
        <time>2017-10-01T09:41:02Z</time>
      </trkpt>
      <trkpt lat="47.49071" lon="6.77327">
        <ele>312.4</ele>
        <time>2017-10-01T09:41:03Z</time>
      </trkpt>
      <trkpt lat="47.49075" lon="6.77328">
        <ele>312.4</ele>
        <time>2017-10-01T09:41:04Z</time>
      </trkpt>
      <trkpt lat="47.4908" lon="6.77328">
        <ele>312.3</ele>
        <time>2017-10-01T09:41:05Z</time>
      </trkpt>
      <trkpt lat="47.49084" lon="6.77329">
        <ele>312.3</ele>
        <time>2017-10-01T09:41:06Z</time>
      </trkpt>
      <trkpt lat="47.49089" lon="6.77329">
        <ele>312.3</ele>
        <time>2017-10-01T09:41:07Z</time>
      </trkpt>
      <trkpt lat="47.49094" lon="6.7733">
        <ele>312.3</ele>
        <time>2017-10-01T09:41:08Z</time>
      </trkpt>
      <trkpt lat="47.49099" lon="6.77331">
        <ele>312.2</ele>
        <time>2017-10-01T09:41:09Z</time>
      </trkpt>
      <trkpt lat="47.49104" lon="6.77331">
        <ele>312.2</ele>
        <time>2017-10-01T09:41:10Z</time>
      </trkpt>
      <trkpt lat="47.49109" lon="6.77332">
        <ele>312.2</ele>
        <time>2017-10-01T09:41:11Z</time>
      </trkpt>
      <trkpt lat="47.49114" lon="6.77332">
        <ele>312.2</ele>
        <time>2017-10-01T09:41:12Z</time>
      </trkpt>
      <trkpt lat="47.49119" lon="6.77332">
        <ele>312.1</ele>
        <time>2017-10-01T09:41:13Z</time>
      </trkpt>
      <trkpt lat="47.49124" lon="6.77332">
        <ele>312.1</ele>
        <time>2017-10-01T09:41:14Z</time>
      </trkpt>
      <trkpt lat="47.49129" lon="6.77332">
        <ele>312.1</ele>
        <time>2017-10-01T09:41:15Z</time>
      </trkpt>
      <trkpt lat="47.49134" lon="6.77333">
        <ele>312</ele>
        <time>2017-10-01T09:41:16Z</time>
      </trkpt>
      <trkpt lat="47.49139" lon="6.77332">
        <ele>312</ele>
        <time>2017-10-01T09:41:17Z</time>
      </trkpt>
      <trkpt lat="47.49144" lon="6.77333">
        <ele>312</ele>
        <time>2017-10-01T09:41:18Z</time>
      </trkpt>
      <trkpt lat="47.49149" lon="6.77333">
        <ele>312</ele>
        <time>2017-10-01T09:41:19Z</time>
      </trkpt>
      <trkpt lat="47.49154" lon="6.77333">
        <ele>312</ele>
        <time>2017-10-01T09:41:20Z</time>
      </trkpt>
      <trkpt lat="47.49159" lon="6.77334">
        <ele>311.9</ele>
        <time>2017-10-01T09:41:21Z</time>
      </trkpt>
      <trkpt lat="47.49164" lon="6.77334">
        <ele>311.7</ele>
        <time>2017-10-01T09:41:22Z</time>
      </trkpt>
      <trkpt lat="47.49169" lon="6.77334">
        <ele>311.5</ele>
        <time>2017-10-01T09:41:23Z</time>
      </trkpt>
      <trkpt lat="47.49174" lon="6.77334">
        <ele>311.3</ele>
        <time>2017-10-01T09:41:24Z</time>
      </trkpt>
      <trkpt lat="47.49179" lon="6.77334">
        <ele>311.1</ele>
        <time>2017-10-01T09:41:25Z</time>
      </trkpt>
      <trkpt lat="47.49183" lon="6.77334">
        <ele>310.9</ele>
        <time>2017-10-01T09:41:26Z</time>
      </trkpt>
      <trkpt lat="47.49188" lon="6.77334">
        <ele>310.8</ele>
        <time>2017-10-01T09:41:27Z</time>
      </trkpt>
      <trkpt lat="47.49192" lon="6.77334">
        <ele>310.6</ele>
        <time>2017-10-01T09:41:28Z</time>
      </trkpt>
      <trkpt lat="47.49198" lon="6.77335">
        <ele>310.4</ele>
        <time>2017-10-01T09:41:29Z</time>
      </trkpt>
      <trkpt lat="47.49203" lon="6.77337">
        <ele>310.2</ele>
        <time>2017-10-01T09:41:30Z</time>
      </trkpt>
      <trkpt lat="47.49198" lon="6.77338">
        <ele>310</ele>
        <time>2017-10-01T09:41:38Z</time>
      </trkpt>
      <trkpt lat="47.49197" lon="6.77337">
        <ele>310.2</ele>
        <time>2017-10-01T09:41:39Z</time>
      </trkpt>
      <trkpt lat="47.49201" lon="6.77334">
        <ele>310.4</ele>
        <time>2017-10-01T09:42:02Z</time>
      </trkpt>
      <trkpt lat="47.49203" lon="6.77334">
        <ele>310.4</ele>
        <time>2017-10-01T09:42:03Z</time>
      </trkpt>
      <trkpt lat="47.49205" lon="6.77335">
        <ele>310.5</ele>
        <time>2017-10-01T09:42:04Z</time>
      </trkpt>
      <trkpt lat="47.49208" lon="6.77335">
        <ele>310.5</ele>
        <time>2017-10-01T09:42:05Z</time>
      </trkpt>
      <trkpt lat="47.4921" lon="6.77336">
        <ele>310.6</ele>
        <time>2017-10-01T09:42:06Z</time>
      </trkpt>
      <trkpt lat="47.49214" lon="6.77336">
        <ele>310.6</ele>
        <time>2017-10-01T09:42:07Z</time>
      </trkpt>
      <trkpt lat="47.49217" lon="6.77336">
        <ele>310.6</ele>
        <time>2017-10-01T09:42:08Z</time>
      </trkpt>
      <trkpt lat="47.49221" lon="6.77336">
        <ele>310.6</ele>
        <time>2017-10-01T09:42:09Z</time>
      </trkpt>
      <trkpt lat="47.49225" lon="6.77337">
        <ele>310.5</ele>
        <time>2017-10-01T09:42:10Z</time>
      </trkpt>
      <trkpt lat="47.49229" lon="6.77338">
        <ele>310.4</ele>
        <time>2017-10-01T09:42:11Z</time>
      </trkpt>
      <trkpt lat="47.49235" lon="6.77339">
        <ele>310.2</ele>
        <time>2017-10-01T09:42:12Z</time>
      </trkpt>
      <trkpt lat="47.4924" lon="6.77339">
        <ele>310.1</ele>
        <time>2017-10-01T09:42:13Z</time>
      </trkpt>
      <trkpt lat="47.49244" lon="6.77338">
        <ele>310.1</ele>
        <time>2017-10-01T09:42:14Z</time>
      </trkpt>
      <trkpt lat="47.49249" lon="6.77336">
        <ele>310.2</ele>
        <time>2017-10-01T09:42:15Z</time>
      </trkpt>
      <trkpt lat="47.49253" lon="6.77333">
        <ele>310.3</ele>
        <time>2017-10-01T09:42:16Z</time>
      </trkpt>
      <trkpt lat="47.49258" lon="6.7733">
        <ele>310.4</ele>
        <time>2017-10-01T09:42:17Z</time>
      </trkpt>
      <trkpt lat="47.49264" lon="6.77329">
        <ele>310.6</ele>
        <time>2017-10-01T09:42:18Z</time>
      </trkpt>
      <trkpt lat="47.4927" lon="6.77328">
        <ele>310.7</ele>
        <time>2017-10-01T09:42:19Z</time>
      </trkpt>
      <trkpt lat="47.49276" lon="6.77326">
        <ele>310.8</ele>
        <time>2017-10-01T09:42:20Z</time>
      </trkpt>
      <trkpt lat="47.49283" lon="6.77325">
        <ele>311</ele>
        <time>2017-10-01T09:42:21Z</time>
      </trkpt>
      <trkpt lat="47.4929" lon="6.77325">
        <ele>310.9</ele>
        <time>2017-10-01T09:42:22Z</time>
      </trkpt>
      <trkpt lat="47.49297" lon="6.77326">
        <ele>310.8</ele>
        <time>2017-10-01T09:42:23Z</time>
      </trkpt>
      <trkpt lat="47.49303" lon="6.77326">
        <ele>310.7</ele>
        <time>2017-10-01T09:42:24Z</time>
      </trkpt>
      <trkpt lat="47.49308" lon="6.77327">
        <ele>310.6</ele>
        <time>2017-10-01T09:42:25Z</time>
      </trkpt>
      <trkpt lat="47.49314" lon="6.77328">
        <ele>310.5</ele>
        <time>2017-10-01T09:42:26Z</time>
      </trkpt>
      <trkpt lat="47.49319" lon="6.77328">
        <ele>310.3</ele>
        <time>2017-10-01T09:42:27Z</time>
      </trkpt>
      <trkpt lat="47.49323" lon="6.77328">
        <ele>310.3</ele>
        <time>2017-10-01T09:42:28Z</time>
      </trkpt>
      <trkpt lat="47.49327" lon="6.77329">
        <ele>310.2</ele>
        <time>2017-10-01T09:42:29Z</time>
      </trkpt>
      <trkpt lat="47.4933" lon="6.77332">
        <ele>310.1</ele>
        <time>2017-10-01T09:42:30Z</time>
      </trkpt>
      <trkpt lat="47.49334" lon="6.77335">
        <ele>310</ele>
        <time>2017-10-01T09:42:31Z</time>
      </trkpt>
      <trkpt lat="47.49337" lon="6.77338">
        <ele>310.2</ele>
        <time>2017-10-01T09:42:32Z</time>
      </trkpt>
      <trkpt lat="47.49339" lon="6.77341">
        <ele>310.3</ele>
        <time>2017-10-01T09:42:33Z</time>
      </trkpt>
      <trkpt lat="47.49343" lon="6.77345">
        <ele>310.5</ele>
        <time>2017-10-01T09:42:34Z</time>
      </trkpt>
      <trkpt lat="47.49347" lon="6.77345">
        <ele>310.6</ele>
        <time>2017-10-01T09:42:35Z</time>
      </trkpt>
      <trkpt lat="47.4935" lon="6.77345">
        <ele>310.8</ele>
        <time>2017-10-01T09:42:36Z</time>
      </trkpt>
      <trkpt lat="47.49355" lon="6.77346">
        <ele>311</ele>
        <time>2017-10-01T09:42:37Z</time>
      </trkpt>
      <trkpt lat="47.49358" lon="6.77346">
        <ele>311.1</ele>
        <time>2017-10-01T09:42:38Z</time>
      </trkpt>
      <trkpt lat="47.49362" lon="6.77346">
        <ele>311.3</ele>
        <time>2017-10-01T09:42:39Z</time>
      </trkpt>
      <trkpt lat="47.49367" lon="6.77346">
        <ele>311.5</ele>
        <time>2017-10-01T09:42:40Z</time>
      </trkpt>
      <trkpt lat="47.49372" lon="6.77347">
        <ele>311.7</ele>
        <time>2017-10-01T09:42:41Z</time>
      </trkpt>
      <trkpt lat="47.49377" lon="6.77347">
        <ele>311.9</ele>
        <time>2017-10-01T09:42:42Z</time>
      </trkpt>
      <trkpt lat="47.49383" lon="6.77347">
        <ele>312.1</ele>
        <time>2017-10-01T09:42:43Z</time>
      </trkpt>
      <trkpt lat="47.49388" lon="6.77348">
        <ele>312.4</ele>
        <time>2017-10-01T09:42:44Z</time>
      </trkpt>
      <trkpt lat="47.49394" lon="6.77348">
        <ele>312.8</ele>
        <time>2017-10-01T09:42:45Z</time>
      </trkpt>
      <trkpt lat="47.49399" lon="6.77348">
        <ele>313.1</ele>
        <time>2017-10-01T09:42:46Z</time>
      </trkpt>
      <trkpt lat="47.49403" lon="6.77349">
        <ele>313.4</ele>
        <time>2017-10-01T09:42:47Z</time>
      </trkpt>
      <trkpt lat="47.49408" lon="6.77349">
        <ele>313.6</ele>
        <time>2017-10-01T09:42:48Z</time>
      </trkpt>
      <trkpt lat="47.49412" lon="6.77349">
        <ele>313.9</ele>
        <time>2017-10-01T09:42:49Z</time>
      </trkpt>
      <trkpt lat="47.49417" lon="6.77349">
        <ele>314.1</ele>
        <time>2017-10-01T09:42:50Z</time>
      </trkpt>
      <trkpt lat="47.49421" lon="6.7735">
        <ele>314.3</ele>
        <time>2017-10-01T09:42:51Z</time>
      </trkpt>
      <trkpt lat="47.49425" lon="6.7735">
        <ele>314.5</ele>
        <time>2017-10-01T09:42:52Z</time>
      </trkpt>
      <trkpt lat="47.4943" lon="6.77351">
        <ele>314.7</ele>
        <time>2017-10-01T09:42:53Z</time>
      </trkpt>
      <trkpt lat="47.49434" lon="6.77351">
        <ele>314.9</ele>
        <time>2017-10-01T09:42:54Z</time>
      </trkpt>
      <trkpt lat="47.49439" lon="6.77352">
        <ele>315</ele>
        <time>2017-10-01T09:42:55Z</time>
      </trkpt>
      <trkpt lat="47.49444" lon="6.77353">
        <ele>315.2</ele>
        <time>2017-10-01T09:42:56Z</time>
      </trkpt>
      <trkpt lat="47.49448" lon="6.77353">
        <ele>315.3</ele>
        <time>2017-10-01T09:42:57Z</time>
      </trkpt>
      <trkpt lat="47.49454" lon="6.77354">
        <ele>315.5</ele>
        <time>2017-10-01T09:42:58Z</time>
      </trkpt>
      <trkpt lat="47.49459" lon="6.77354">
        <ele>315.6</ele>
        <time>2017-10-01T09:42:59Z</time>
      </trkpt>
      <trkpt lat="47.49464" lon="6.77354">
        <ele>315.8</ele>
        <time>2017-10-01T09:43:00Z</time>
      </trkpt>
      <trkpt lat="47.49469" lon="6.77355">
        <ele>315.9</ele>
        <time>2017-10-01T09:43:01Z</time>
      </trkpt>
      <trkpt lat="47.49474" lon="6.77356">
        <ele>316.1</ele>
        <time>2017-10-01T09:43:02Z</time>
      </trkpt>
      <trkpt lat="47.49478" lon="6.77357">
        <ele>316.2</ele>
        <time>2017-10-01T09:43:03Z</time>
      </trkpt>
      <trkpt lat="47.49483" lon="6.77358">
        <ele>316.4</ele>
        <time>2017-10-01T09:43:04Z</time>
      </trkpt>
      <trkpt lat="47.49488" lon="6.77358">
        <ele>316.6</ele>
        <time>2017-10-01T09:43:05Z</time>
      </trkpt>
      <trkpt lat="47.49493" lon="6.77359">
        <ele>317</ele>
        <time>2017-10-01T09:43:06Z</time>
      </trkpt>
      <trkpt lat="47.49499" lon="6.77359">
        <ele>317.3</ele>
        <time>2017-10-01T09:43:07Z</time>
      </trkpt>
      <trkpt lat="47.49504" lon="6.7736">
        <ele>317.4</ele>
        <time>2017-10-01T09:43:08Z</time>
      </trkpt>
      <trkpt lat="47.49509" lon="6.7736">
        <ele>317.6</ele>
        <time>2017-10-01T09:43:09Z</time>
      </trkpt>
      <trkpt lat="47.49514" lon="6.7736">
        <ele>317.8</ele>
        <time>2017-10-01T09:43:10Z</time>
      </trkpt>
      <trkpt lat="47.49519" lon="6.7736">
        <ele>318</ele>
        <time>2017-10-01T09:43:11Z</time>
      </trkpt>
      <trkpt lat="47.49523" lon="6.77361">
        <ele>318.2</ele>
        <time>2017-10-01T09:43:12Z</time>
      </trkpt>
      <trkpt lat="47.49529" lon="6.77361">
        <ele>318.3</ele>
        <time>2017-10-01T09:43:13Z</time>
      </trkpt>
      <trkpt lat="47.49533" lon="6.77361">
        <ele>318.5</ele>
        <time>2017-10-01T09:43:14Z</time>
      </trkpt>
      <trkpt lat="47.49538" lon="6.77361">
        <ele>318.7</ele>
        <time>2017-10-01T09:43:15Z</time>
      </trkpt>
      <trkpt lat="47.49543" lon="6.77361">
        <ele>318.8</ele>
        <time>2017-10-01T09:43:16Z</time>
      </trkpt>
      <trkpt lat="47.49548" lon="6.77361">
        <ele>319</ele>
        <time>2017-10-01T09:43:17Z</time>
      </trkpt>
      <trkpt lat="47.49553" lon="6.77361">
        <ele>319.2</ele>
        <time>2017-10-01T09:43:18Z</time>
      </trkpt>
      <trkpt lat="47.49558" lon="6.7736">
        <ele>319.3</ele>
        <time>2017-10-01T09:43:19Z</time>
      </trkpt>
      <trkpt lat="47.49564" lon="6.77361">
        <ele>319.5</ele>
        <time>2017-10-01T09:43:20Z</time>
      </trkpt>
      <trkpt lat="47.49569" lon="6.77361">
        <ele>319.7</ele>
        <time>2017-10-01T09:43:21Z</time>
      </trkpt>
      <trkpt lat="47.49574" lon="6.77362">
        <ele>319.8</ele>
        <time>2017-10-01T09:43:22Z</time>
      </trkpt>
      <trkpt lat="47.49579" lon="6.77363">
        <ele>320</ele>
        <time>2017-10-01T09:43:23Z</time>
      </trkpt>
      <trkpt lat="47.49584" lon="6.77363">
        <ele>320.2</ele>
        <time>2017-10-01T09:43:24Z</time>
      </trkpt>
      <trkpt lat="47.49589" lon="6.77362">
        <ele>320.4</ele>
        <time>2017-10-01T09:43:25Z</time>
      </trkpt>
      <trkpt lat="47.49595" lon="6.77362">
        <ele>320.5</ele>
        <time>2017-10-01T09:43:26Z</time>
      </trkpt>
      <trkpt lat="47.49599" lon="6.77362">
        <ele>320.7</ele>
        <time>2017-10-01T09:43:27Z</time>
      </trkpt>
      <trkpt lat="47.49604" lon="6.77361">
        <ele>320.9</ele>
        <time>2017-10-01T09:43:28Z</time>
      </trkpt>
      <trkpt lat="47.49608" lon="6.7736">
        <ele>321</ele>
        <time>2017-10-01T09:43:29Z</time>
      </trkpt>
      <trkpt lat="47.49613" lon="6.7736">
        <ele>321.2</ele>
        <time>2017-10-01T09:43:30Z</time>
      </trkpt>
      <trkpt lat="47.49618" lon="6.77359">
        <ele>321.4</ele>
        <time>2017-10-01T09:43:31Z</time>
      </trkpt>
      <trkpt lat="47.49623" lon="6.77357">
        <ele>321.6</ele>
        <time>2017-10-01T09:43:32Z</time>
      </trkpt>
      <trkpt lat="47.49627" lon="6.77356">
        <ele>321.9</ele>
        <time>2017-10-01T09:43:33Z</time>
      </trkpt>
      <trkpt lat="47.49632" lon="6.77355">
        <ele>322.2</ele>
        <time>2017-10-01T09:43:34Z</time>
      </trkpt>
      <trkpt lat="47.49636" lon="6.77354">
        <ele>322.4</ele>
        <time>2017-10-01T09:43:35Z</time>
      </trkpt>
      <trkpt lat="47.49641" lon="6.77353">
        <ele>322.7</ele>
        <time>2017-10-01T09:43:36Z</time>
      </trkpt>
      <trkpt lat="47.49646" lon="6.77352">
        <ele>322.9</ele>
        <time>2017-10-01T09:43:37Z</time>
      </trkpt>
      <trkpt lat="47.4965" lon="6.7735">
        <ele>323.1</ele>
        <time>2017-10-01T09:43:38Z</time>
      </trkpt>
      <trkpt lat="47.49655" lon="6.77348">
        <ele>323.4</ele>
        <time>2017-10-01T09:43:39Z</time>
      </trkpt>
      <trkpt lat="47.4966" lon="6.77347">
        <ele>323.6</ele>
        <time>2017-10-01T09:43:40Z</time>
      </trkpt>
      <trkpt lat="47.49665" lon="6.77346">
        <ele>323.9</ele>
        <time>2017-10-01T09:43:41Z</time>
      </trkpt>
      <trkpt lat="47.49669" lon="6.77345">
        <ele>324.5</ele>
        <time>2017-10-01T09:43:42Z</time>
      </trkpt>
      <trkpt lat="47.49674" lon="6.77344">
        <ele>324.8</ele>
        <time>2017-10-01T09:43:43Z</time>
      </trkpt>
      <trkpt lat="47.49678" lon="6.77343">
        <ele>325.1</ele>
        <time>2017-10-01T09:43:44Z</time>
      </trkpt>
      <trkpt lat="47.49683" lon="6.77341">
        <ele>325.4</ele>
        <time>2017-10-01T09:43:45Z</time>
      </trkpt>
      <trkpt lat="47.49688" lon="6.7734">
        <ele>325.7</ele>
        <time>2017-10-01T09:43:46Z</time>
      </trkpt>
      <trkpt lat="47.49692" lon="6.77339">
        <ele>326</ele>
        <time>2017-10-01T09:43:47Z</time>
      </trkpt>
      <trkpt lat="47.49696" lon="6.77338">
        <ele>326.3</ele>
        <time>2017-10-01T09:43:48Z</time>
      </trkpt>
      <trkpt lat="47.497" lon="6.77337">
        <ele>326.7</ele>
        <time>2017-10-01T09:43:49Z</time>
      </trkpt>
      <trkpt lat="47.49704" lon="6.77336">
        <ele>327</ele>
        <time>2017-10-01T09:43:50Z</time>
      </trkpt>
      <trkpt lat="47.49707" lon="6.77334">
        <ele>327.5</ele>
        <time>2017-10-01T09:43:51Z</time>
      </trkpt>
      <trkpt lat="47.49711" lon="6.77333">
        <ele>328</ele>
        <time>2017-10-01T09:43:52Z</time>
      </trkpt>
      <trkpt lat="47.49715" lon="6.77333">
        <ele>328.2</ele>
        <time>2017-10-01T09:43:53Z</time>
      </trkpt>
      <trkpt lat="47.49718" lon="6.77332">
        <ele>328.3</ele>
        <time>2017-10-01T09:43:54Z</time>
      </trkpt>
      <trkpt lat="47.49721" lon="6.77332">
        <ele>328.5</ele>
        <time>2017-10-01T09:43:55Z</time>
      </trkpt>
      <trkpt lat="47.49725" lon="6.77331">
        <ele>328.7</ele>
        <time>2017-10-01T09:43:56Z</time>
      </trkpt>
      <trkpt lat="47.49728" lon="6.77329">
        <ele>328.9</ele>
        <time>2017-10-01T09:43:57Z</time>
      </trkpt>
      <trkpt lat="47.4973" lon="6.77328">
        <ele>329</ele>
        <time>2017-10-01T09:43:58Z</time>
      </trkpt>
      <trkpt lat="47.49734" lon="6.77324">
        <ele>329.2</ele>
        <time>2017-10-01T09:44:59Z</time>
      </trkpt>
      <trkpt lat="47.49737" lon="6.77323">
        <ele>329.4</ele>
        <time>2017-10-01T09:45:00Z</time>
      </trkpt>
      <trkpt lat="47.49746" lon="6.77319">
        <ele>330</ele>
        <time>2017-10-01T09:45:02Z</time>
      </trkpt>
      <trkpt lat="47.49749" lon="6.77318">
        <ele>330.1</ele>
        <time>2017-10-01T09:45:03Z</time>
      </trkpt>
      <trkpt lat="47.49752" lon="6.77316">
        <ele>330.3</ele>
        <time>2017-10-01T09:45:04Z</time>
      </trkpt>
      <trkpt lat="47.49754" lon="6.77315">
        <ele>330.5</ele>
        <time>2017-10-01T09:45:05Z</time>
      </trkpt>
      <trkpt lat="47.49757" lon="6.77314">
        <ele>330.7</ele>
        <time>2017-10-01T09:45:06Z</time>
      </trkpt>
      <trkpt lat="47.4976" lon="6.77314">
        <ele>330.8</ele>
        <time>2017-10-01T09:45:07Z</time>
      </trkpt>
      <trkpt lat="47.49763" lon="6.77313">
        <ele>331</ele>
        <time>2017-10-01T09:45:08Z</time>
      </trkpt>
      <trkpt lat="47.49767" lon="6.77313">
        <ele>331.2</ele>
        <time>2017-10-01T09:45:09Z</time>
      </trkpt>
      <trkpt lat="47.4977" lon="6.77312">
        <ele>331.4</ele>
        <time>2017-10-01T09:45:10Z</time>
      </trkpt>
      <trkpt lat="47.49775" lon="6.77312">
        <ele>331.7</ele>
        <time>2017-10-01T09:45:11Z</time>
      </trkpt>
      <trkpt lat="47.4978" lon="6.77312">
        <ele>331.9</ele>
        <time>2017-10-01T09:45:12Z</time>
      </trkpt>
      <trkpt lat="47.49782" lon="6.77311">
        <ele>332</ele>
        <time>2017-10-01T09:45:13Z</time>
      </trkpt>
      <trkpt lat="47.49786" lon="6.7731">
        <ele>332.2</ele>
        <time>2017-10-01T09:45:14Z</time>
      </trkpt>
      <trkpt lat="47.49789" lon="6.7731">
        <ele>332.3</ele>
        <time>2017-10-01T09:45:15Z</time>
      </trkpt>
      <trkpt lat="47.49793" lon="6.77311">
        <ele>332.4</ele>
        <time>2017-10-01T09:45:16Z</time>
      </trkpt>
      <trkpt lat="47.49797" lon="6.77312">
        <ele>332.6</ele>
        <time>2017-10-01T09:45:17Z</time>
      </trkpt>
      <trkpt lat="47.49803" lon="6.7731">
        <ele>332.8</ele>
        <time>2017-10-01T09:45:18Z</time>
      </trkpt>
      <trkpt lat="47.49808" lon="6.77309">
        <ele>333</ele>
        <time>2017-10-01T09:45:19Z</time>
      </trkpt>
      <trkpt lat="47.49813" lon="6.77309">
        <ele>333.2</ele>
        <time>2017-10-01T09:45:20Z</time>
      </trkpt>
      <trkpt lat="47.49817" lon="6.77308">
        <ele>333.4</ele>
        <time>2017-10-01T09:45:21Z</time>
      </trkpt>
      <trkpt lat="47.49822" lon="6.77307">
        <ele>333.5</ele>
        <time>2017-10-01T09:45:22Z</time>
      </trkpt>
      <trkpt lat="47.49826" lon="6.77305">
        <ele>333.7</ele>
        <time>2017-10-01T09:45:23Z</time>
      </trkpt>
      <trkpt lat="47.4983" lon="6.77303">
        <ele>333.8</ele>
        <time>2017-10-01T09:45:24Z</time>
      </trkpt>
      <trkpt lat="47.49834" lon="6.77301">
        <ele>334</ele>
        <time>2017-10-01T09:45:25Z</time>
      </trkpt>
      <trkpt lat="47.49839" lon="6.773">
        <ele>334.1</ele>
        <time>2017-10-01T09:45:26Z</time>
      </trkpt>
      <trkpt lat="47.49844" lon="6.77299">
        <ele>334.3</ele>
        <time>2017-10-01T09:45:27Z</time>
      </trkpt>
      <trkpt lat="47.49849" lon="6.77298">
        <ele>334.5</ele>
        <time>2017-10-01T09:45:28Z</time>
      </trkpt>
      <trkpt lat="47.49853" lon="6.77298">
        <ele>334.6</ele>
        <time>2017-10-01T09:45:29Z</time>
      </trkpt>
      <trkpt lat="47.49858" lon="6.77297">
        <ele>334.8</ele>
        <time>2017-10-01T09:45:30Z</time>
      </trkpt>
      <trkpt lat="47.49862" lon="6.77296">
        <ele>334.9</ele>
        <time>2017-10-01T09:45:31Z</time>
      </trkpt>
      <trkpt lat="47.49866" lon="6.77296">
        <ele>335.1</ele>
        <time>2017-10-01T09:45:32Z</time>
      </trkpt>
      <trkpt lat="47.49869" lon="6.77296">
        <ele>335.2</ele>
        <time>2017-10-01T09:45:33Z</time>
      </trkpt>
      <trkpt lat="47.4987" lon="6.77295">
        <ele>335.3</ele>
        <time>2017-10-01T09:47:27Z</time>
      </trkpt>
      <trkpt lat="47.49872" lon="6.77291">
        <ele>335.4</ele>
        <time>2017-10-01T09:47:28Z</time>
      </trkpt>
      <trkpt lat="47.49875" lon="6.7729">
        <ele>335.6</ele>
        <time>2017-10-01T09:50:18Z</time>
      </trkpt>
      <trkpt lat="47.49877" lon="6.77291">
        <ele>335.7</ele>
        <time>2017-10-01T09:50:19Z</time>
      </trkpt>
      <trkpt lat="47.49879" lon="6.77291">
        <ele>335.8</ele>
        <time>2017-10-01T09:50:20Z</time>
      </trkpt>
      <trkpt lat="47.49881" lon="6.77291">
        <ele>335.9</ele>
        <time>2017-10-01T09:50:21Z</time>
      </trkpt>
      <trkpt lat="47.49884" lon="6.7729">
        <ele>336</ele>
        <time>2017-10-01T09:50:22Z</time>
      </trkpt>
      <trkpt lat="47.49887" lon="6.77289">
        <ele>336.2</ele>
        <time>2017-10-01T09:50:23Z</time>
      </trkpt>
      <trkpt lat="47.4989" lon="6.77287">
        <ele>336.3</ele>
        <time>2017-10-01T09:50:24Z</time>
      </trkpt>
      <trkpt lat="47.49893" lon="6.77287">
        <ele>336.5</ele>
        <time>2017-10-01T09:50:25Z</time>
      </trkpt>
      <trkpt lat="47.49896" lon="6.77287">
        <ele>336.6</ele>
        <time>2017-10-01T09:50:26Z</time>
      </trkpt>
      <trkpt lat="47.499" lon="6.77285">
        <ele>336.8</ele>
        <time>2017-10-01T09:50:27Z</time>
      </trkpt>
      <trkpt lat="47.49903" lon="6.77284">
        <ele>336.9</ele>
        <time>2017-10-01T09:50:28Z</time>
      </trkpt>
      <trkpt lat="47.49906" lon="6.77282">
        <ele>337.4</ele>
        <time>2017-10-01T09:50:29Z</time>
      </trkpt>
      <trkpt lat="47.49909" lon="6.77281">
        <ele>337.9</ele>
        <time>2017-10-01T09:50:30Z</time>
      </trkpt>
      <trkpt lat="47.49912" lon="6.7728">
        <ele>338.6</ele>
        <time>2017-10-01T09:50:31Z</time>
      </trkpt>
      <trkpt lat="47.49916" lon="6.7728">
        <ele>339.4</ele>
        <time>2017-10-01T09:50:32Z</time>
      </trkpt>
      <trkpt lat="47.4992" lon="6.77278">
        <ele>340.3</ele>
        <time>2017-10-01T09:50:33Z</time>
      </trkpt>
      <trkpt lat="47.49924" lon="6.77276">
        <ele>341.2</ele>
        <time>2017-10-01T09:50:34Z</time>
      </trkpt>
      <trkpt lat="47.49928" lon="6.77274">
        <ele>341.9</ele>
        <time>2017-10-01T09:50:35Z</time>
      </trkpt>
      <trkpt lat="47.49931" lon="6.77272">
        <ele>342.5</ele>
        <time>2017-10-01T09:50:36Z</time>
      </trkpt>
      <trkpt lat="47.49935" lon="6.77272">
        <ele>343</ele>
        <time>2017-10-01T09:50:37Z</time>
      </trkpt>
      <trkpt lat="47.49939" lon="6.77268">
        <ele>343.8</ele>
        <time>2017-10-01T09:50:38Z</time>
      </trkpt>
      <trkpt lat="47.49943" lon="6.77264">
        <ele>344.4</ele>
        <time>2017-10-01T09:50:39Z</time>
      </trkpt>
      <trkpt lat="47.49947" lon="6.77261">
        <ele>344.7</ele>
        <time>2017-10-01T09:50:40Z</time>
      </trkpt>
      <trkpt lat="47.49951" lon="6.77258">
        <ele>345</ele>
        <time>2017-10-01T09:50:41Z</time>
      </trkpt>
      <trkpt lat="47.49956" lon="6.77255">
        <ele>345.2</ele>
        <time>2017-10-01T09:50:42Z</time>
      </trkpt>
      <trkpt lat="47.49959" lon="6.77253">
        <ele>345.5</ele>
        <time>2017-10-01T09:50:43Z</time>
      </trkpt>
      <trkpt lat="47.49963" lon="6.77251">
        <ele>345.7</ele>
        <time>2017-10-01T09:50:44Z</time>
      </trkpt>
      <trkpt lat="47.49968" lon="6.77248">
        <ele>346</ele>
        <time>2017-10-01T09:50:45Z</time>
      </trkpt>
      <trkpt lat="47.49972" lon="6.77245">
        <ele>346.3</ele>
        <time>2017-10-01T09:50:46Z</time>
      </trkpt>
      <trkpt lat="47.49976" lon="6.77243">
        <ele>346.5</ele>
        <time>2017-10-01T09:50:47Z</time>
      </trkpt>
      <trkpt lat="47.4998" lon="6.77241">
        <ele>346.8</ele>
        <time>2017-10-01T09:50:48Z</time>
      </trkpt>
      <trkpt lat="47.49984" lon="6.77238">
        <ele>347.1</ele>
        <time>2017-10-01T09:50:49Z</time>
      </trkpt>
      <trkpt lat="47.49987" lon="6.77236">
        <ele>347.3</ele>
        <time>2017-10-01T09:50:50Z</time>
      </trkpt>
      <trkpt lat="47.49991" lon="6.77234">
        <ele>347.5</ele>
        <time>2017-10-01T09:50:51Z</time>
      </trkpt>
      <trkpt lat="47.49995" lon="6.77232">
        <ele>347.8</ele>
        <time>2017-10-01T09:50:52Z</time>
      </trkpt>
      <trkpt lat="47.49998" lon="6.77232">
        <ele>348</ele>
        <time>2017-10-01T09:50:53Z</time>
      </trkpt>
      <trkpt lat="47.50001" lon="6.77231">
        <ele>348.4</ele>
        <time>2017-10-01T09:50:54Z</time>
      </trkpt>
      <trkpt lat="47.50004" lon="6.77229">
        <ele>348.9</ele>
        <time>2017-10-01T09:50:55Z</time>
      </trkpt>
      <trkpt lat="47.50007" lon="6.77228">
        <ele>349.2</ele>
        <time>2017-10-01T09:50:56Z</time>
      </trkpt>
      <trkpt lat="47.5001" lon="6.77227">
        <ele>349.6</ele>
        <time>2017-10-01T09:50:57Z</time>
      </trkpt>
      <trkpt lat="47.50014" lon="6.77225">
        <ele>350</ele>
        <time>2017-10-01T09:50:58Z</time>
      </trkpt>
      <trkpt lat="47.50018" lon="6.77223">
        <ele>350</ele>
        <time>2017-10-01T09:50:59Z</time>
      </trkpt>
      <trkpt lat="47.50022" lon="6.77221">
        <ele>348.7</ele>
        <time>2017-10-01T09:51:00Z</time>
      </trkpt>
      <trkpt lat="47.50026" lon="6.77219">
        <ele>347</ele>
        <time>2017-10-01T09:51:01Z</time>
      </trkpt>
      <trkpt lat="47.5003" lon="6.77217">
        <ele>345.7</ele>
        <time>2017-10-01T09:51:02Z</time>
      </trkpt>
      <trkpt lat="47.50034" lon="6.77216">
        <ele>344.6</ele>
        <time>2017-10-01T09:51:03Z</time>
      </trkpt>
      <trkpt lat="47.50037" lon="6.77215">
        <ele>343.9</ele>
        <time>2017-10-01T09:51:04Z</time>
      </trkpt>
      <trkpt lat="47.50041" lon="6.77214">
        <ele>343.3</ele>
        <time>2017-10-01T09:51:05Z</time>
      </trkpt>
      <trkpt lat="47.50045" lon="6.77213">
        <ele>342.7</ele>
        <time>2017-10-01T09:51:06Z</time>
      </trkpt>
      <trkpt lat="47.50048" lon="6.77213">
        <ele>342.1</ele>
        <time>2017-10-01T09:51:07Z</time>
      </trkpt>
      <trkpt lat="47.50052" lon="6.77211">
        <ele>341.6</ele>
        <time>2017-10-01T09:51:08Z</time>
      </trkpt>
      <trkpt lat="47.50056" lon="6.77209">
        <ele>341.1</ele>
        <time>2017-10-01T09:51:09Z</time>
      </trkpt>
      <trkpt lat="47.5006" lon="6.77208">
        <ele>340.5</ele>
        <time>2017-10-01T09:51:10Z</time>
      </trkpt>
      <trkpt lat="47.50064" lon="6.77207">
        <ele>340</ele>
        <time>2017-10-01T09:51:11Z</time>
      </trkpt>
      <trkpt lat="47.50069" lon="6.77207">
        <ele>339.4</ele>
        <time>2017-10-01T09:51:12Z</time>
      </trkpt>
      <trkpt lat="47.50073" lon="6.77207">
        <ele>338.4</ele>
        <time>2017-10-01T09:51:13Z</time>
      </trkpt>
      <trkpt lat="47.50077" lon="6.77206">
        <ele>337.4</ele>
        <time>2017-10-01T09:51:14Z</time>
      </trkpt>
      <trkpt lat="47.5008" lon="6.77204">
        <ele>336.5</ele>
        <time>2017-10-01T09:51:15Z</time>
      </trkpt>
      <trkpt lat="47.50084" lon="6.77202">
        <ele>335.6</ele>
        <time>2017-10-01T09:51:16Z</time>
      </trkpt>
      <trkpt lat="47.50089" lon="6.77201">
        <ele>334</ele>
        <time>2017-10-01T09:51:17Z</time>
      </trkpt>
      <trkpt lat="47.50093" lon="6.77199">
        <ele>332.4</ele>
        <time>2017-10-01T09:51:18Z</time>
      </trkpt>
      <trkpt lat="47.50097" lon="6.77197">
        <ele>331</ele>
        <time>2017-10-01T09:51:19Z</time>
      </trkpt>
      <trkpt lat="47.50101" lon="6.77197">
        <ele>329.8</ele>
        <time>2017-10-01T09:51:20Z</time>
      </trkpt>
      <trkpt lat="47.50105" lon="6.77196">
        <ele>328.8</ele>
        <time>2017-10-01T09:51:21Z</time>
      </trkpt>
      <trkpt lat="47.5011" lon="6.77197">
        <ele>328.2</ele>
        <time>2017-10-01T09:51:22Z</time>
      </trkpt>
      <trkpt lat="47.50116" lon="6.77198">
        <ele>327.4</ele>
        <time>2017-10-01T09:51:23Z</time>
      </trkpt>
      <trkpt lat="47.50121" lon="6.77199">
        <ele>326.7</ele>
        <time>2017-10-01T09:51:24Z</time>
      </trkpt>
      <trkpt lat="47.50127" lon="6.77201">
        <ele>325.9</ele>
        <time>2017-10-01T09:51:25Z</time>
      </trkpt>
      <trkpt lat="47.50133" lon="6.77202">
        <ele>324.9</ele>
        <time>2017-10-01T09:51:26Z</time>
      </trkpt>
      <trkpt lat="47.5014" lon="6.77203">
        <ele>324.5</ele>
        <time>2017-10-01T09:51:27Z</time>
      </trkpt>
      <trkpt lat="47.50145" lon="6.77204">
        <ele>324.1</ele>
        <time>2017-10-01T09:51:28Z</time>
      </trkpt>
      <trkpt lat="47.50151" lon="6.77207">
        <ele>323.7</ele>
        <time>2017-10-01T09:51:29Z</time>
      </trkpt>
      <trkpt lat="47.50155" lon="6.7721">
        <ele>323.4</ele>
        <time>2017-10-01T09:51:30Z</time>
      </trkpt>
      <trkpt lat="47.5016" lon="6.77213">
        <ele>323.1</ele>
        <time>2017-10-01T09:51:31Z</time>
      </trkpt>
      <trkpt lat="47.50164" lon="6.77217">
        <ele>322.8</ele>
        <time>2017-10-01T09:51:32Z</time>
      </trkpt>
      <trkpt lat="47.50168" lon="6.7722">
        <ele>322.5</ele>
        <time>2017-10-01T09:51:33Z</time>
      </trkpt>
      <trkpt lat="47.50172" lon="6.77224">
        <ele>322.3</ele>
        <time>2017-10-01T09:51:34Z</time>
      </trkpt>
      <trkpt lat="47.50176" lon="6.77228">
        <ele>322.1</ele>
        <time>2017-10-01T09:51:35Z</time>
      </trkpt>
      <trkpt lat="47.50179" lon="6.77231">
        <ele>321.9</ele>
        <time>2017-10-01T09:51:36Z</time>
      </trkpt>
      <trkpt lat="47.50182" lon="6.77235">
        <ele>321.7</ele>
        <time>2017-10-01T09:51:37Z</time>
      </trkpt>
      <trkpt lat="47.50186" lon="6.77238">
        <ele>321.5</ele>
        <time>2017-10-01T09:51:38Z</time>
      </trkpt>
      <trkpt lat="47.50189" lon="6.77241">
        <ele>321.3</ele>
        <time>2017-10-01T09:51:39Z</time>
      </trkpt>
      <trkpt lat="47.50192" lon="6.77245">
        <ele>321.1</ele>
        <time>2017-10-01T09:51:40Z</time>
      </trkpt>
      <trkpt lat="47.50195" lon="6.77248">
        <ele>320.9</ele>
        <time>2017-10-01T09:51:41Z</time>
      </trkpt>
      <trkpt lat="47.50198" lon="6.77251">
        <ele>320.7</ele>
        <time>2017-10-01T09:51:42Z</time>
      </trkpt>
      <trkpt lat="47.50202" lon="6.77254">
        <ele>320.5</ele>
        <time>2017-10-01T09:51:43Z</time>
      </trkpt>
      <trkpt lat="47.50205" lon="6.77257">
        <ele>320.3</ele>
        <time>2017-10-01T09:51:44Z</time>
      </trkpt>
      <trkpt lat="47.50208" lon="6.77259">
        <ele>320.2</ele>
        <time>2017-10-01T09:51:45Z</time>
      </trkpt>
      <trkpt lat="47.50212" lon="6.77262">
        <ele>320</ele>
        <time>2017-10-01T09:51:46Z</time>
      </trkpt>
      <trkpt lat="47.50217" lon="6.77265">
        <ele>319.7</ele>
        <time>2017-10-01T09:51:47Z</time>
      </trkpt>
      <trkpt lat="47.50221" lon="6.77268">
        <ele>319.5</ele>
        <time>2017-10-01T09:51:48Z</time>
      </trkpt>
      <trkpt lat="47.50225" lon="6.77271">
        <ele>319.3</ele>
        <time>2017-10-01T09:51:49Z</time>
      </trkpt>
      <trkpt lat="47.50228" lon="6.77273">
        <ele>319.1</ele>
        <time>2017-10-01T09:51:50Z</time>
      </trkpt>
      <trkpt lat="47.50232" lon="6.77276">
        <ele>318.9</ele>
        <time>2017-10-01T09:51:51Z</time>
      </trkpt>
      <trkpt lat="47.50236" lon="6.77278">
        <ele>318.7</ele>
        <time>2017-10-01T09:51:52Z</time>
      </trkpt>
      <trkpt lat="47.5024" lon="6.77281">
        <ele>318.5</ele>
        <time>2017-10-01T09:51:53Z</time>
      </trkpt>
      <trkpt lat="47.50244" lon="6.77284">
        <ele>318.2</ele>
        <time>2017-10-01T09:51:54Z</time>
      </trkpt>
      <trkpt lat="47.50248" lon="6.77287">
        <ele>317.9</ele>
        <time>2017-10-01T09:51:55Z</time>
      </trkpt>
      <trkpt lat="47.50251" lon="6.7729">
        <ele>317.7</ele>
        <time>2017-10-01T09:51:56Z</time>
      </trkpt>
      <trkpt lat="47.50255" lon="6.77293">
        <ele>317.4</ele>
        <time>2017-10-01T09:51:57Z</time>
      </trkpt>
      <trkpt lat="47.5026" lon="6.77296">
        <ele>317.1</ele>
        <time>2017-10-01T09:51:58Z</time>
      </trkpt>
      <trkpt lat="47.50264" lon="6.77299">
        <ele>316.8</ele>
        <time>2017-10-01T09:51:59Z</time>
      </trkpt>
      <trkpt lat="47.50269" lon="6.77301">
        <ele>316.3</ele>
        <time>2017-10-01T09:52:00Z</time>
      </trkpt>
      <trkpt lat="47.50273" lon="6.77303">
        <ele>315.9</ele>
        <time>2017-10-01T09:52:01Z</time>
      </trkpt>
      <trkpt lat="47.50277" lon="6.77306">
        <ele>315.5</ele>
        <time>2017-10-01T09:52:02Z</time>
      </trkpt>
      <trkpt lat="47.50281" lon="6.77308">
        <ele>315.1</ele>
        <time>2017-10-01T09:52:03Z</time>
      </trkpt>
      <trkpt lat="47.50285" lon="6.77312">
        <ele>314.7</ele>
        <time>2017-10-01T09:52:04Z</time>
      </trkpt>
      <trkpt lat="47.50289" lon="6.77315">
        <ele>314.4</ele>
        <time>2017-10-01T09:52:05Z</time>
      </trkpt>
      <trkpt lat="47.50293" lon="6.77317">
        <ele>314.1</ele>
        <time>2017-10-01T09:52:06Z</time>
      </trkpt>
      <trkpt lat="47.50297" lon="6.77321">
        <ele>313.8</ele>
        <time>2017-10-01T09:52:07Z</time>
      </trkpt>
      <trkpt lat="47.50301" lon="6.77324">
        <ele>313.4</ele>
        <time>2017-10-01T09:52:08Z</time>
      </trkpt>
      <trkpt lat="47.50305" lon="6.77327">
        <ele>313.1</ele>
        <time>2017-10-01T09:52:09Z</time>
      </trkpt>
      <trkpt lat="47.50309" lon="6.7733">
        <ele>312.8</ele>
        <time>2017-10-01T09:52:10Z</time>
      </trkpt>
      <trkpt lat="47.50313" lon="6.77334">
        <ele>312.4</ele>
        <time>2017-10-01T09:52:11Z</time>
      </trkpt>
      <trkpt lat="47.50317" lon="6.77338">
        <ele>312.1</ele>
        <time>2017-10-01T09:52:12Z</time>
      </trkpt>
      <trkpt lat="47.50321" lon="6.77341">
        <ele>312</ele>
        <time>2017-10-01T09:52:13Z</time>
      </trkpt>
      <trkpt lat="47.50325" lon="6.77344">
        <ele>312</ele>
        <time>2017-10-01T09:52:14Z</time>
      </trkpt>
      <trkpt lat="47.50329" lon="6.77346">
        <ele>312</ele>
        <time>2017-10-01T09:52:15Z</time>
      </trkpt>
      <trkpt lat="47.50333" lon="6.77349">
        <ele>312</ele>
        <time>2017-10-01T09:52:16Z</time>
      </trkpt>
      <trkpt lat="47.50337" lon="6.77352">
        <ele>312</ele>
        <time>2017-10-01T09:52:17Z</time>
      </trkpt>
      <trkpt lat="47.50341" lon="6.77355">
        <ele>312.1</ele>
        <time>2017-10-01T09:52:18Z</time>
      </trkpt>
      <trkpt lat="47.50345" lon="6.77357">
        <ele>312.1</ele>
        <time>2017-10-01T09:52:19Z</time>
      </trkpt>
      <trkpt lat="47.50348" lon="6.7736">
        <ele>312.1</ele>
        <time>2017-10-01T09:52:20Z</time>
      </trkpt>
      <trkpt lat="47.50353" lon="6.77363">
        <ele>312.1</ele>
        <time>2017-10-01T09:52:21Z</time>
      </trkpt>
      <trkpt lat="47.50357" lon="6.77366">
        <ele>312.1</ele>
        <time>2017-10-01T09:52:22Z</time>
      </trkpt>
      <trkpt lat="47.50361" lon="6.77369">
        <ele>312.1</ele>
        <time>2017-10-01T09:52:23Z</time>
      </trkpt>
      <trkpt lat="47.50365" lon="6.77372">
        <ele>312.1</ele>
        <time>2017-10-01T09:52:24Z</time>
      </trkpt>
      <trkpt lat="47.5037" lon="6.77375">
        <ele>312.1</ele>
        <time>2017-10-01T09:52:25Z</time>
      </trkpt>
      <trkpt lat="47.50374" lon="6.77378">
        <ele>312.1</ele>
        <time>2017-10-01T09:52:26Z</time>
      </trkpt>
      <trkpt lat="47.50378" lon="6.77381">
        <ele>312.1</ele>
        <time>2017-10-01T09:52:27Z</time>
      </trkpt>
      <trkpt lat="47.50381" lon="6.77384">
        <ele>312.1</ele>
        <time>2017-10-01T09:52:28Z</time>
      </trkpt>
      <trkpt lat="47.50385" lon="6.77387">
        <ele>312.2</ele>
        <time>2017-10-01T09:52:29Z</time>
      </trkpt>
      <trkpt lat="47.50389" lon="6.77391">
        <ele>312.2</ele>
        <time>2017-10-01T09:52:30Z</time>
      </trkpt>
      <trkpt lat="47.50393" lon="6.77394">
        <ele>312.2</ele>
        <time>2017-10-01T09:52:31Z</time>
      </trkpt>
      <trkpt lat="47.50396" lon="6.77397">
        <ele>312.2</ele>
        <time>2017-10-01T09:52:32Z</time>
      </trkpt>
      <trkpt lat="47.504" lon="6.77401">
        <ele>312.2</ele>
        <time>2017-10-01T09:52:33Z</time>
      </trkpt>
      <trkpt lat="47.50405" lon="6.77405">
        <ele>312.2</ele>
        <time>2017-10-01T09:52:34Z</time>
      </trkpt>
      <trkpt lat="47.50409" lon="6.77409">
        <ele>312.2</ele>
        <time>2017-10-01T09:52:35Z</time>
      </trkpt>
      <trkpt lat="47.50413" lon="6.77414">
        <ele>312.2</ele>
        <time>2017-10-01T09:52:36Z</time>
      </trkpt>
      <trkpt lat="47.50417" lon="6.77417">
        <ele>312.2</ele>
        <time>2017-10-01T09:52:37Z</time>
      </trkpt>
      <trkpt lat="47.50422" lon="6.7742">
        <ele>312.3</ele>
        <time>2017-10-01T09:52:38Z</time>
      </trkpt>
      <trkpt lat="47.50426" lon="6.77424">
        <ele>312.3</ele>
        <time>2017-10-01T09:52:39Z</time>
      </trkpt>
      <trkpt lat="47.5043" lon="6.77427">
        <ele>312.3</ele>
        <time>2017-10-01T09:52:40Z</time>
      </trkpt>
      <trkpt lat="47.50434" lon="6.77431">
        <ele>312.3</ele>
        <time>2017-10-01T09:52:41Z</time>
      </trkpt>
      <trkpt lat="47.50438" lon="6.77434">
        <ele>312.3</ele>
        <time>2017-10-01T09:52:42Z</time>
      </trkpt>
      <trkpt lat="47.50442" lon="6.77438">
        <ele>312.3</ele>
        <time>2017-10-01T09:52:43Z</time>
      </trkpt>
      <trkpt lat="47.50446" lon="6.77442">
        <ele>312.3</ele>
        <time>2017-10-01T09:52:44Z</time>
      </trkpt>
      <trkpt lat="47.5045" lon="6.77446">
        <ele>312.3</ele>
        <time>2017-10-01T09:52:45Z</time>
      </trkpt>
      <trkpt lat="47.50454" lon="6.7745">
        <ele>312.3</ele>
        <time>2017-10-01T09:52:46Z</time>
      </trkpt>
      <trkpt lat="47.50459" lon="6.77454">
        <ele>312.4</ele>
        <time>2017-10-01T09:52:47Z</time>
      </trkpt>
      <trkpt lat="47.50463" lon="6.77458">
        <ele>312.4</ele>
        <time>2017-10-01T09:52:48Z</time>
      </trkpt>
      <trkpt lat="47.50467" lon="6.77462">
        <ele>312.4</ele>
        <time>2017-10-01T09:52:49Z</time>
      </trkpt>
      <trkpt lat="47.50471" lon="6.77465">
        <ele>312.4</ele>
        <time>2017-10-01T09:52:50Z</time>
      </trkpt>
      <trkpt lat="47.50475" lon="6.77469">
        <ele>312.4</ele>
        <time>2017-10-01T09:52:51Z</time>
      </trkpt>
      <trkpt lat="47.50479" lon="6.77472">
        <ele>312.4</ele>
        <time>2017-10-01T09:52:52Z</time>
      </trkpt>
      <trkpt lat="47.50482" lon="6.77475">
        <ele>312.5</ele>
        <time>2017-10-01T09:52:53Z</time>
      </trkpt>
      <trkpt lat="47.50486" lon="6.77478">
        <ele>312.5</ele>
        <time>2017-10-01T09:52:54Z</time>
      </trkpt>
      <trkpt lat="47.5049" lon="6.77481">
        <ele>312.5</ele>
        <time>2017-10-01T09:52:55Z</time>
      </trkpt>
      <trkpt lat="47.50493" lon="6.77484">
        <ele>312.5</ele>
        <time>2017-10-01T09:52:56Z</time>
      </trkpt>
      <trkpt lat="47.50497" lon="6.77487">
        <ele>312.5</ele>
        <time>2017-10-01T09:52:57Z</time>
      </trkpt>
      <trkpt lat="47.50501" lon="6.77491">
        <ele>312.5</ele>
        <time>2017-10-01T09:52:58Z</time>
      </trkpt>
      <trkpt lat="47.50505" lon="6.77494">
        <ele>312.6</ele>
        <time>2017-10-01T09:52:59Z</time>
      </trkpt>
      <trkpt lat="47.50509" lon="6.77497">
        <ele>312.6</ele>
        <time>2017-10-01T09:53:00Z</time>
      </trkpt>
      <trkpt lat="47.50513" lon="6.775">
        <ele>312.6</ele>
        <time>2017-10-01T09:53:01Z</time>
      </trkpt>
      <trkpt lat="47.50518" lon="6.77502">
        <ele>312.6</ele>
        <time>2017-10-01T09:53:02Z</time>
      </trkpt>
      <trkpt lat="47.50522" lon="6.77505">
        <ele>312.6</ele>
        <time>2017-10-01T09:53:03Z</time>
      </trkpt>
      <trkpt lat="47.50526" lon="6.77508">
        <ele>312.6</ele>
        <time>2017-10-01T09:53:04Z</time>
      </trkpt>
      <trkpt lat="47.5053" lon="6.7751">
        <ele>312.7</ele>
        <time>2017-10-01T09:53:05Z</time>
      </trkpt>
      <trkpt lat="47.50533" lon="6.77513">
        <ele>312.7</ele>
        <time>2017-10-01T09:53:06Z</time>
      </trkpt>
      <trkpt lat="47.50537" lon="6.77516">
        <ele>312.7</ele>
        <time>2017-10-01T09:53:07Z</time>
      </trkpt>
      <trkpt lat="47.50541" lon="6.77519">
        <ele>312.7</ele>
        <time>2017-10-01T09:53:08Z</time>
      </trkpt>
      <trkpt lat="47.50545" lon="6.77524">
        <ele>312.7</ele>
        <time>2017-10-01T09:53:09Z</time>
      </trkpt>
      <trkpt lat="47.50548" lon="6.77529">
        <ele>312.8</ele>
        <time>2017-10-01T09:53:10Z</time>
      </trkpt>
      <trkpt lat="47.50551" lon="6.77536">
        <ele>312.8</ele>
        <time>2017-10-01T09:53:11Z</time>
      </trkpt>
      <trkpt lat="47.50554" lon="6.77542">
        <ele>312.8</ele>
        <time>2017-10-01T09:53:12Z</time>
      </trkpt>
      <trkpt lat="47.50557" lon="6.77547">
        <ele>312.9</ele>
        <time>2017-10-01T09:53:13Z</time>
      </trkpt>
      <trkpt lat="47.5056" lon="6.77552">
        <ele>312.9</ele>
        <time>2017-10-01T09:53:14Z</time>
      </trkpt>
      <trkpt lat="47.50565" lon="6.77553">
        <ele>312.9</ele>
        <time>2017-10-01T09:53:15Z</time>
      </trkpt>
      <trkpt lat="47.5057" lon="6.77553">
        <ele>313</ele>
        <time>2017-10-01T09:53:16Z</time>
      </trkpt>
      <trkpt lat="47.50575" lon="6.77552">
        <ele>313</ele>
        <time>2017-10-01T09:53:17Z</time>
      </trkpt>
      <trkpt lat="47.50578" lon="6.77548">
        <ele>313.1</ele>
        <time>2017-10-01T09:53:18Z</time>
      </trkpt>
      <trkpt lat="47.50579" lon="6.77543">
        <ele>313.1</ele>
        <time>2017-10-01T09:53:19Z</time>
      </trkpt>
      <trkpt lat="47.5058" lon="6.77536">
        <ele>313.2</ele>
        <time>2017-10-01T09:53:20Z</time>
      </trkpt>
      <trkpt lat="47.50583" lon="6.77532">
        <ele>313.2</ele>
        <time>2017-10-01T09:53:21Z</time>
      </trkpt>
      <trkpt lat="47.50587" lon="6.77531">
        <ele>313.2</ele>
        <time>2017-10-01T09:53:22Z</time>
      </trkpt>
      <trkpt lat="47.50592" lon="6.77531">
        <ele>313.2</ele>
        <time>2017-10-01T09:53:23Z</time>
      </trkpt>
      <trkpt lat="47.50596" lon="6.77531">
        <ele>313.3</ele>
        <time>2017-10-01T09:53:24Z</time>
      </trkpt>
      <trkpt lat="47.506" lon="6.77531">
        <ele>313.3</ele>
        <time>2017-10-01T09:53:25Z</time>
      </trkpt>
      <trkpt lat="47.50605" lon="6.77532">
        <ele>313.3</ele>
        <time>2017-10-01T09:53:26Z</time>
      </trkpt>
      <trkpt lat="47.50609" lon="6.77532">
        <ele>313.4</ele>
        <time>2017-10-01T09:53:27Z</time>
      </trkpt>
      <trkpt lat="47.50612" lon="6.77533">
        <ele>313.4</ele>
        <time>2017-10-01T09:53:28Z</time>
      </trkpt>
      <trkpt lat="47.50615" lon="6.77534">
        <ele>313.4</ele>
        <time>2017-10-01T09:53:29Z</time>
      </trkpt>
      <trkpt lat="47.50619" lon="6.77534">
        <ele>313.5</ele>
        <time>2017-10-01T09:53:30Z</time>
      </trkpt>
      <trkpt lat="47.50624" lon="6.77532">
        <ele>313.5</ele>
        <time>2017-10-01T09:53:31Z</time>
      </trkpt>
      <trkpt lat="47.50628" lon="6.77531">
        <ele>313.5</ele>
        <time>2017-10-01T09:53:32Z</time>
      </trkpt>
      <trkpt lat="47.50633" lon="6.77531">
        <ele>313.6</ele>
        <time>2017-10-01T09:53:33Z</time>
      </trkpt>
      <trkpt lat="47.50637" lon="6.77532">
        <ele>313.6</ele>
        <time>2017-10-01T09:53:34Z</time>
      </trkpt>
      <trkpt lat="47.50642" lon="6.77534">
        <ele>313.6</ele>
        <time>2017-10-01T09:53:35Z</time>
      </trkpt>
      <trkpt lat="47.50647" lon="6.77536">
        <ele>313.7</ele>
        <time>2017-10-01T09:53:36Z</time>
      </trkpt>
      <trkpt lat="47.50651" lon="6.77537">
        <ele>313.7</ele>
        <time>2017-10-01T09:53:37Z</time>
      </trkpt>
      <trkpt lat="47.50654" lon="6.77537">
        <ele>313.7</ele>
        <time>2017-10-01T09:53:38Z</time>
      </trkpt>
      <trkpt lat="47.50659" lon="6.77537">
        <ele>313.7</ele>
        <time>2017-10-01T09:53:39Z</time>
      </trkpt>
      <trkpt lat="47.50664" lon="6.77537">
        <ele>313.8</ele>
        <time>2017-10-01T09:53:40Z</time>
      </trkpt>
      <trkpt lat="47.50668" lon="6.77536">
        <ele>313.8</ele>
        <time>2017-10-01T09:53:41Z</time>
      </trkpt>
      <trkpt lat="47.50673" lon="6.77535">
        <ele>313.8</ele>
        <time>2017-10-01T09:53:42Z</time>
      </trkpt>
      <trkpt lat="47.50678" lon="6.77534">
        <ele>313.8</ele>
        <time>2017-10-01T09:53:43Z</time>
      </trkpt>
      <trkpt lat="47.50684" lon="6.77534">
        <ele>313.8</ele>
        <time>2017-10-01T09:53:44Z</time>
      </trkpt>
      <trkpt lat="47.50689" lon="6.77534">
        <ele>313.8</ele>
        <time>2017-10-01T09:53:45Z</time>
      </trkpt>
      <trkpt lat="47.50694" lon="6.77535">
        <ele>313.9</ele>
        <time>2017-10-01T09:53:46Z</time>
      </trkpt>
      <trkpt lat="47.50699" lon="6.77534">
        <ele>313.9</ele>
        <time>2017-10-01T09:53:47Z</time>
      </trkpt>
      <trkpt lat="47.50703" lon="6.77533">
        <ele>313.9</ele>
        <time>2017-10-01T09:53:48Z</time>
      </trkpt>
      <trkpt lat="47.50708" lon="6.77534">
        <ele>313.9</ele>
        <time>2017-10-01T09:53:49Z</time>
      </trkpt>
      <trkpt lat="47.50712" lon="6.77535">
        <ele>313.9</ele>
        <time>2017-10-01T09:53:50Z</time>
      </trkpt>
      <trkpt lat="47.50717" lon="6.77537">
        <ele>313.9</ele>
        <time>2017-10-01T09:53:51Z</time>
      </trkpt>
      <trkpt lat="47.50723" lon="6.7754">
        <ele>313.9</ele>
        <time>2017-10-01T09:53:52Z</time>
      </trkpt>
      <trkpt lat="47.50728" lon="6.77543">
        <ele>314</ele>
        <time>2017-10-01T09:53:53Z</time>
      </trkpt>
      <trkpt lat="47.50733" lon="6.77547">
        <ele>314</ele>
        <time>2017-10-01T09:53:54Z</time>
      </trkpt>
      <trkpt lat="47.50738" lon="6.7755">
        <ele>314</ele>
        <time>2017-10-01T09:53:55Z</time>
      </trkpt>
      <trkpt lat="47.50742" lon="6.77553">
        <ele>314</ele>
        <time>2017-10-01T09:53:56Z</time>
      </trkpt>
      <trkpt lat="47.50746" lon="6.77556">
        <ele>314</ele>
        <time>2017-10-01T09:53:57Z</time>
      </trkpt>
      <trkpt lat="47.5075" lon="6.77559">
        <ele>314</ele>
        <time>2017-10-01T09:53:58Z</time>
      </trkpt>
      <trkpt lat="47.50755" lon="6.77562">
        <ele>314</ele>
        <time>2017-10-01T09:53:59Z</time>
      </trkpt>
      <trkpt lat="47.50759" lon="6.77565">
        <ele>314</ele>
        <time>2017-10-01T09:54:00Z</time>
      </trkpt>
      <trkpt lat="47.50763" lon="6.77567">
        <ele>314.1</ele>
        <time>2017-10-01T09:54:01Z</time>
      </trkpt>
      <trkpt lat="47.50766" lon="6.7757">
        <ele>314.1</ele>
        <time>2017-10-01T09:54:02Z</time>
      </trkpt>
      <trkpt lat="47.50769" lon="6.77573">
        <ele>314.1</ele>
        <time>2017-10-01T09:54:03Z</time>
      </trkpt>
      <trkpt lat="47.50773" lon="6.77576">
        <ele>314.1</ele>
        <time>2017-10-01T09:54:04Z</time>
      </trkpt>
      <trkpt lat="47.50777" lon="6.77579">
        <ele>314.1</ele>
        <time>2017-10-01T09:54:05Z</time>
      </trkpt>
      <trkpt lat="47.50782" lon="6.77582">
        <ele>314.1</ele>
        <time>2017-10-01T09:54:06Z</time>
      </trkpt>
      <trkpt lat="47.50786" lon="6.77585">
        <ele>314.1</ele>
        <time>2017-10-01T09:54:07Z</time>
      </trkpt>
      <trkpt lat="47.5079" lon="6.77587">
        <ele>314.2</ele>
        <time>2017-10-01T09:54:08Z</time>
      </trkpt>
      <trkpt lat="47.50794" lon="6.77591">
        <ele>314.2</ele>
        <time>2017-10-01T09:54:09Z</time>
      </trkpt>
      <trkpt lat="47.50798" lon="6.77594">
        <ele>314.2</ele>
        <time>2017-10-01T09:54:10Z</time>
      </trkpt>
      <trkpt lat="47.50802" lon="6.77597">
        <ele>314.2</ele>
        <time>2017-10-01T09:54:11Z</time>
      </trkpt>
      <trkpt lat="47.50806" lon="6.77601">
        <ele>314.2</ele>
        <time>2017-10-01T09:54:12Z</time>
      </trkpt>
      <trkpt lat="47.50811" lon="6.77604">
        <ele>314.2</ele>
        <time>2017-10-01T09:54:13Z</time>
      </trkpt>
      <trkpt lat="47.50814" lon="6.77607">
        <ele>314.2</ele>
        <time>2017-10-01T09:54:14Z</time>
      </trkpt>
      <trkpt lat="47.50818" lon="6.77611">
        <ele>314.3</ele>
        <time>2017-10-01T09:54:15Z</time>
      </trkpt>
      <trkpt lat="47.50822" lon="6.77615">
        <ele>314.3</ele>
        <time>2017-10-01T09:54:16Z</time>
      </trkpt>
      <trkpt lat="47.50827" lon="6.77619">
        <ele>314.3</ele>
        <time>2017-10-01T09:54:17Z</time>
      </trkpt>
      <trkpt lat="47.50831" lon="6.77623">
        <ele>314.3</ele>
        <time>2017-10-01T09:54:18Z</time>
      </trkpt>
      <trkpt lat="47.50835" lon="6.77627">
        <ele>314.3</ele>
        <time>2017-10-01T09:54:19Z</time>
      </trkpt>
      <trkpt lat="47.50838" lon="6.77631">
        <ele>314.4</ele>
        <time>2017-10-01T09:54:20Z</time>
      </trkpt>
      <trkpt lat="47.50842" lon="6.77635">
        <ele>314.4</ele>
        <time>2017-10-01T09:54:21Z</time>
      </trkpt>
      <trkpt lat="47.50846" lon="6.7764">
        <ele>314.4</ele>
        <time>2017-10-01T09:54:22Z</time>
      </trkpt>
      <trkpt lat="47.50849" lon="6.77645">
        <ele>314.4</ele>
        <time>2017-10-01T09:54:23Z</time>
      </trkpt>
      <trkpt lat="47.50853" lon="6.7765">
        <ele>314.4</ele>
        <time>2017-10-01T09:54:24Z</time>
      </trkpt>
      <trkpt lat="47.50856" lon="6.77655">
        <ele>314.4</ele>
        <time>2017-10-01T09:54:25Z</time>
      </trkpt>
      <trkpt lat="47.50859" lon="6.77661">
        <ele>314.4</ele>
        <time>2017-10-01T09:54:26Z</time>
      </trkpt>
      <trkpt lat="47.50863" lon="6.77666">
        <ele>314.5</ele>
        <time>2017-10-01T09:54:27Z</time>
      </trkpt>
      <trkpt lat="47.50865" lon="6.77671">
        <ele>314.5</ele>
        <time>2017-10-01T09:54:28Z</time>
      </trkpt>
      <trkpt lat="47.50867" lon="6.77674">
        <ele>314.5</ele>
        <time>2017-10-01T09:54:29Z</time>
      </trkpt>
      <trkpt lat="47.5087" lon="6.77679">
        <ele>314.5</ele>
        <time>2017-10-01T09:54:30Z</time>
      </trkpt>
      <trkpt lat="47.50874" lon="6.77684">
        <ele>314.5</ele>
        <time>2017-10-01T09:54:31Z</time>
      </trkpt>
      <trkpt lat="47.50876" lon="6.7769">
        <ele>314.5</ele>
        <time>2017-10-01T09:54:32Z</time>
      </trkpt>
      <trkpt lat="47.50878" lon="6.77694">
        <ele>314.6</ele>
        <time>2017-10-01T09:54:33Z</time>
      </trkpt>
      <trkpt lat="47.50881" lon="6.77697">
        <ele>314.6</ele>
        <time>2017-10-01T09:54:34Z</time>
      </trkpt>
      <trkpt lat="47.50885" lon="6.77697">
        <ele>316</ele>
        <time>2017-10-01T09:54:35Z</time>
      </trkpt>
      <trkpt lat="47.50889" lon="6.77697">
        <ele>317</ele>
        <time>2017-10-01T09:54:36Z</time>
      </trkpt>
      <trkpt lat="47.50892" lon="6.77697">
        <ele>316.9</ele>
        <time>2017-10-01T09:54:37Z</time>
      </trkpt>
      <trkpt lat="47.50896" lon="6.77697">
        <ele>316.7</ele>
        <time>2017-10-01T09:54:38Z</time>
      </trkpt>
      <trkpt lat="47.509" lon="6.77696">
        <ele>316.5</ele>
        <time>2017-10-01T09:54:39Z</time>
      </trkpt>
      <trkpt lat="47.50905" lon="6.77696">
        <ele>316.2</ele>
        <time>2017-10-01T09:54:40Z</time>
      </trkpt>
      <trkpt lat="47.50909" lon="6.77695">
        <ele>316</ele>
        <time>2017-10-01T09:54:41Z</time>
      </trkpt>
      <trkpt lat="47.50913" lon="6.77695">
        <ele>315.7</ele>
        <time>2017-10-01T09:54:42Z</time>
      </trkpt>
      <trkpt lat="47.50917" lon="6.77697">
        <ele>315.5</ele>
        <time>2017-10-01T09:54:43Z</time>
      </trkpt>
      <trkpt lat="47.50921" lon="6.77698">
        <ele>315.3</ele>
        <time>2017-10-01T09:54:44Z</time>
      </trkpt>
      <trkpt lat="47.50924" lon="6.77697">
        <ele>315.1</ele>
        <time>2017-10-01T09:54:45Z</time>
      </trkpt>
      <trkpt lat="47.50927" lon="6.77697">
        <ele>315</ele>
        <time>2017-10-01T09:54:46Z</time>
      </trkpt>
      <trkpt lat="47.5093" lon="6.77697">
        <ele>315</ele>
        <time>2017-10-01T09:54:47Z</time>
      </trkpt>
      <trkpt lat="47.50935" lon="6.77699">
        <ele>314.9</ele>
        <time>2017-10-01T09:54:48Z</time>
      </trkpt>
      <trkpt lat="47.50939" lon="6.777">
        <ele>314.9</ele>
        <time>2017-10-01T09:54:53Z</time>
      </trkpt>
      <trkpt lat="47.50939" lon="6.777">
        <ele>314.9</ele>
        <time>2017-10-01T09:54:54Z</time>
      </trkpt>
      <trkpt lat="47.50943" lon="6.77699">
        <ele>315</ele>
        <time>2017-10-01T09:54:56Z</time>
      </trkpt>
      <trkpt lat="47.50945" lon="6.77698">
        <ele>315</ele>
        <time>2017-10-01T09:54:57Z</time>
      </trkpt>
      <trkpt lat="47.50948" lon="6.77698">
        <ele>315.1</ele>
        <time>2017-10-01T09:54:58Z</time>
      </trkpt>
      <trkpt lat="47.50952" lon="6.77697">
        <ele>315.2</ele>
        <time>2017-10-01T09:54:59Z</time>
      </trkpt>
      <trkpt lat="47.50954" lon="6.77696">
        <ele>315.4</ele>
        <time>2017-10-01T09:55:00Z</time>
      </trkpt>
      <trkpt lat="47.50957" lon="6.77695">
        <ele>315.6</ele>
        <time>2017-10-01T09:55:01Z</time>
      </trkpt>
      <trkpt lat="47.5096" lon="6.77694">
        <ele>315.8</ele>
        <time>2017-10-01T09:55:02Z</time>
      </trkpt>
      <trkpt lat="47.50965" lon="6.77694">
        <ele>316</ele>
        <time>2017-10-01T09:55:03Z</time>
      </trkpt>
      <trkpt lat="47.50968" lon="6.77697">
        <ele>315.8</ele>
        <time>2017-10-01T09:55:04Z</time>
      </trkpt>
      <trkpt lat="47.5097" lon="6.777">
        <ele>315.8</ele>
        <time>2017-10-01T09:55:05Z</time>
      </trkpt>
      <trkpt lat="47.50973" lon="6.77701">
        <ele>315.6</ele>
        <time>2017-10-01T09:55:06Z</time>
      </trkpt>
      <trkpt lat="47.50975" lon="6.77702">
        <ele>315.5</ele>
        <time>2017-10-01T09:55:07Z</time>
      </trkpt>
      <trkpt lat="47.50977" lon="6.77704">
        <ele>315.4</ele>
        <time>2017-10-01T09:55:08Z</time>
      </trkpt>
      <trkpt lat="47.5098" lon="6.77705">
        <ele>315.3</ele>
        <time>2017-10-01T09:55:09Z</time>
      </trkpt>
      <trkpt lat="47.50984" lon="6.77707">
        <ele>315.3</ele>
        <time>2017-10-01T09:55:10Z</time>
      </trkpt>
      <trkpt lat="47.50986" lon="6.77708">
        <ele>315.2</ele>
        <time>2017-10-01T09:55:11Z</time>
      </trkpt>
      <trkpt lat="47.50989" lon="6.77711">
        <ele>315.1</ele>
        <time>2017-10-01T09:55:12Z</time>
      </trkpt>
      <trkpt lat="47.50992" lon="6.77713">
        <ele>315</ele>
        <time>2017-10-01T09:55:13Z</time>
      </trkpt>
      <trkpt lat="47.50995" lon="6.77716">
        <ele>315</ele>
        <time>2017-10-01T09:55:14Z</time>
      </trkpt>
      <trkpt lat="47.50998" lon="6.77719">
        <ele>315</ele>
        <time>2017-10-01T09:55:15Z</time>
      </trkpt>
      <trkpt lat="47.51001" lon="6.77722">
        <ele>315</ele>
        <time>2017-10-01T09:55:16Z</time>
      </trkpt>
      <trkpt lat="47.51004" lon="6.77725">
        <ele>315</ele>
        <time>2017-10-01T09:55:17Z</time>
      </trkpt>
      <trkpt lat="47.51007" lon="6.77728">
        <ele>315.2</ele>
        <time>2017-10-01T09:55:18Z</time>
      </trkpt>
      <trkpt lat="47.51011" lon="6.77731">
        <ele>315.2</ele>
        <time>2017-10-01T09:55:19Z</time>
      </trkpt>
      <trkpt lat="47.51017" lon="6.77733">
        <ele>315.4</ele>
        <time>2017-10-01T09:55:20Z</time>
      </trkpt>
      <trkpt lat="47.5102" lon="6.77736">
        <ele>315.4</ele>
        <time>2017-10-01T09:55:21Z</time>
      </trkpt>
      <trkpt lat="47.51023" lon="6.77738">
        <ele>315.5</ele>
        <time>2017-10-01T09:55:22Z</time>
      </trkpt>
      <trkpt lat="47.51026" lon="6.7774">
        <ele>315.5</ele>
        <time>2017-10-01T09:55:23Z</time>
      </trkpt>
      <trkpt lat="47.51029" lon="6.77742">
        <ele>315.6</ele>
        <time>2017-10-01T09:55:24Z</time>
      </trkpt>
      <trkpt lat="47.51032" lon="6.77744">
        <ele>315.6</ele>
        <time>2017-10-01T09:55:25Z</time>
      </trkpt>
      <trkpt lat="47.51034" lon="6.77746">
        <ele>315.7</ele>
        <time>2017-10-01T09:55:26Z</time>
      </trkpt>
      <trkpt lat="47.51036" lon="6.77747">
        <ele>315.7</ele>
        <time>2017-10-01T09:55:27Z</time>
      </trkpt>
      <trkpt lat="47.51038" lon="6.77749">
        <ele>315.6</ele>
        <time>2017-10-01T09:55:28Z</time>
      </trkpt>
      <trkpt lat="47.51041" lon="6.77751">
        <ele>315.6</ele>
        <time>2017-10-01T09:55:29Z</time>
      </trkpt>
      <trkpt lat="47.51043" lon="6.77753">
        <ele>315.6</ele>
        <time>2017-10-01T09:55:30Z</time>
      </trkpt>
      <trkpt lat="47.51046" lon="6.77756">
        <ele>315.7</ele>
        <time>2017-10-01T09:55:32Z</time>
      </trkpt>
      <trkpt lat="47.51049" lon="6.77757">
        <ele>316</ele>
        <time>2017-10-01T09:55:33Z</time>
      </trkpt>
      <trkpt lat="47.51052" lon="6.77761">
        <ele>316</ele>
        <time>2017-10-01T09:55:35Z</time>
      </trkpt>
      <trkpt lat="47.51054" lon="6.77763">
        <ele>316</ele>
        <time>2017-10-01T09:55:36Z</time>
      </trkpt>
      <trkpt lat="47.51057" lon="6.77767">
        <ele>316.1</ele>
        <time>2017-10-01T09:55:38Z</time>
      </trkpt>
      <trkpt lat="47.51059" lon="6.77768">
        <ele>316.1</ele>
        <time>2017-10-01T09:55:39Z</time>
      </trkpt>
      <trkpt lat="47.51062" lon="6.77769">
        <ele>316.1</ele>
        <time>2017-10-01T09:55:41Z</time>
      </trkpt>
      <trkpt lat="47.51065" lon="6.7777">
        <ele>316.1</ele>
        <time>2017-10-01T09:55:42Z</time>
      </trkpt>
      <trkpt lat="47.51067" lon="6.77772">
        <ele>316.1</ele>
        <time>2017-10-01T09:55:44Z</time>
      </trkpt>
      <trkpt lat="47.5107" lon="6.77773">
        <ele>316.1</ele>
        <time>2017-10-01T09:55:45Z</time>
      </trkpt>
      <trkpt lat="47.51074" lon="6.77774">
        <ele>316.2</ele>
        <time>2017-10-01T09:55:46Z</time>
      </trkpt>
      <trkpt lat="47.51078" lon="6.77775">
        <ele>316.3</ele>
        <time>2017-10-01T09:55:47Z</time>
      </trkpt>
      <trkpt lat="47.51082" lon="6.77775">
        <ele>316.3</ele>
        <time>2017-10-01T09:55:48Z</time>
      </trkpt>
      <trkpt lat="47.51084" lon="6.77776">
        <ele>316.4</ele>
        <time>2017-10-01T09:55:49Z</time>
      </trkpt>
      <trkpt lat="47.51087" lon="6.77776">
        <ele>316.4</ele>
        <time>2017-10-01T09:55:50Z</time>
      </trkpt>
      <trkpt lat="47.51091" lon="6.77776">
        <ele>316.5</ele>
        <time>2017-10-01T09:55:51Z</time>
      </trkpt>
      <trkpt lat="47.51093" lon="6.77778">
        <ele>316.6</ele>
        <time>2017-10-01T09:55:52Z</time>
      </trkpt>
      <trkpt lat="47.51096" lon="6.7778">
        <ele>316.7</ele>
        <time>2017-10-01T09:55:53Z</time>
      </trkpt>
      <trkpt lat="47.51098" lon="6.77781">
        <ele>316.8</ele>
        <time>2017-10-01T09:55:54Z</time>
      </trkpt>
      <trkpt lat="47.511" lon="6.77781">
        <ele>316.9</ele>
        <time>2017-10-01T09:55:55Z</time>
      </trkpt>
      <trkpt lat="47.51104" lon="6.77781">
        <ele>317.1</ele>
        <time>2017-10-01T09:55:57Z</time>
      </trkpt>
      <trkpt lat="47.51106" lon="6.7778">
        <ele>317.2</ele>
        <time>2017-10-01T09:55:58Z</time>
      </trkpt>
      <trkpt lat="47.51109" lon="6.7778">
        <ele>317.4</ele>
        <time>2017-10-01T09:56:00Z</time>
      </trkpt>
      <trkpt lat="47.51111" lon="6.77781">
        <ele>317.5</ele>
        <time>2017-10-01T09:56:01Z</time>
      </trkpt>
      <trkpt lat="47.51113" lon="6.77781">
        <ele>317.6</ele>
        <time>2017-10-01T09:56:02Z</time>
      </trkpt>
      <trkpt lat="47.51116" lon="6.77781">
        <ele>317.7</ele>
        <time>2017-10-01T09:56:03Z</time>
      </trkpt>
      <trkpt lat="47.51118" lon="6.77783">
        <ele>317.7</ele>
        <time>2017-10-01T09:56:04Z</time>
      </trkpt>
      <trkpt lat="47.5112" lon="6.77783">
        <ele>317.8</ele>
        <time>2017-10-01T09:56:05Z</time>
      </trkpt>
      <trkpt lat="47.51123" lon="6.77784">
        <ele>317.8</ele>
        <time>2017-10-01T09:56:06Z</time>
      </trkpt>
      <trkpt lat="47.51125" lon="6.77785">
        <ele>317.9</ele>
        <time>2017-10-01T09:56:07Z</time>
      </trkpt>
      <trkpt lat="47.51129" lon="6.77784">
        <ele>318</ele>
        <time>2017-10-01T09:56:09Z</time>
      </trkpt>
      <trkpt lat="47.5113" lon="6.77783">
        <ele>318</ele>
        <time>2017-10-01T09:56:10Z</time>
      </trkpt>
      <trkpt lat="47.51133" lon="6.77782">
        <ele>318.1</ele>
        <time>2017-10-01T09:56:11Z</time>
      </trkpt>
      <trkpt lat="47.51135" lon="6.77781">
        <ele>318.1</ele>
        <time>2017-10-01T09:56:12Z</time>
      </trkpt>
      <trkpt lat="47.51139" lon="6.7778">
        <ele>318.3</ele>
        <time>2017-10-01T09:56:14Z</time>
      </trkpt>
      <trkpt lat="47.51141" lon="6.7778">
        <ele>318.3</ele>
        <time>2017-10-01T09:56:15Z</time>
      </trkpt>
      <trkpt lat="47.51144" lon="6.7778">
        <ele>318.4</ele>
        <time>2017-10-01T09:56:16Z</time>
      </trkpt>
      <trkpt lat="47.51146" lon="6.77781">
        <ele>318.5</ele>
        <time>2017-10-01T09:56:17Z</time>
      </trkpt>
      <trkpt lat="47.51148" lon="6.77783">
        <ele>318.6</ele>
        <time>2017-10-01T09:56:18Z</time>
      </trkpt>
      <trkpt lat="47.51151" lon="6.77784">
        <ele>318.8</ele>
        <time>2017-10-01T09:56:19Z</time>
      </trkpt>
      <trkpt lat="47.51154" lon="6.77784">
        <ele>319</ele>
        <time>2017-10-01T09:56:20Z</time>
      </trkpt>
      <trkpt lat="47.51157" lon="6.77784">
        <ele>319.2</ele>
        <time>2017-10-01T09:56:21Z</time>
      </trkpt>
      <trkpt lat="47.51161" lon="6.77784">
        <ele>319.5</ele>
        <time>2017-10-01T09:56:23Z</time>
      </trkpt>
      <trkpt lat="47.51163" lon="6.77784">
        <ele>319.6</ele>
        <time>2017-10-01T09:56:24Z</time>
      </trkpt>
      <trkpt lat="47.51167" lon="6.77784">
        <ele>319.7</ele>
        <time>2017-10-01T09:56:25Z</time>
      </trkpt>
      <trkpt lat="47.5117" lon="6.77786">
        <ele>319.8</ele>
        <time>2017-10-01T09:56:26Z</time>
      </trkpt>
      <trkpt lat="47.51173" lon="6.77786">
        <ele>319.9</ele>
        <time>2017-10-01T09:56:27Z</time>
      </trkpt>
      <trkpt lat="47.51175" lon="6.77786">
        <ele>320</ele>
        <time>2017-10-01T09:56:28Z</time>
      </trkpt>
      <trkpt lat="47.51178" lon="6.77786">
        <ele>320</ele>
        <time>2017-10-01T09:56:29Z</time>
      </trkpt>
      <trkpt lat="47.5118" lon="6.77786">
        <ele>320.1</ele>
        <time>2017-10-01T09:56:30Z</time>
      </trkpt>
      <trkpt lat="47.51182" lon="6.77786">
        <ele>320.1</ele>
        <time>2017-10-01T09:56:31Z</time>
      </trkpt>
      <trkpt lat="47.51185" lon="6.77786">
        <ele>320.2</ele>
        <time>2017-10-01T09:56:32Z</time>
      </trkpt>
      <trkpt lat="47.51187" lon="6.77785">
        <ele>320.3</ele>
        <time>2017-10-01T09:56:33Z</time>
      </trkpt>
      <trkpt lat="47.51189" lon="6.77785">
        <ele>320.5</ele>
        <time>2017-10-01T09:56:34Z</time>
      </trkpt>
      <trkpt lat="47.51193" lon="6.77785">
        <ele>320.7</ele>
        <time>2017-10-01T09:56:36Z</time>
      </trkpt>
      <trkpt lat="47.51196" lon="6.77785">
        <ele>320.9</ele>
        <time>2017-10-01T09:56:37Z</time>
      </trkpt>
      <trkpt lat="47.51199" lon="6.77785">
        <ele>321.2</ele>
        <time>2017-10-01T09:56:39Z</time>
      </trkpt>
      <trkpt lat="47.51201" lon="6.77785">
        <ele>321.3</ele>
        <time>2017-10-01T09:56:40Z</time>
      </trkpt>
      <trkpt lat="47.51205" lon="6.77784">
        <ele>321.7</ele>
        <time>2017-10-01T09:56:43Z</time>
      </trkpt>
      <trkpt lat="47.51207" lon="6.77784">
        <ele>321.8</ele>
        <time>2017-10-01T09:56:44Z</time>
      </trkpt>
      <trkpt lat="47.51211" lon="6.77784">
        <ele>322</ele>
        <time>2017-10-01T09:56:46Z</time>
      </trkpt>
      <trkpt lat="47.51212" lon="6.77784">
        <ele>322.1</ele>
        <time>2017-10-01T09:56:47Z</time>
      </trkpt>
      <trkpt lat="47.51214" lon="6.77783">
        <ele>322.3</ele>
        <time>2017-10-01T09:56:48Z</time>
      </trkpt>
      <trkpt lat="47.51217" lon="6.77783">
        <ele>322.4</ele>
        <time>2017-10-01T09:56:49Z</time>
      </trkpt>
      <trkpt lat="47.51221" lon="6.77782">
        <ele>322.6</ele>
        <time>2017-10-01T09:56:51Z</time>
      </trkpt>
      <trkpt lat="47.51223" lon="6.77783">
        <ele>322.7</ele>
        <time>2017-10-01T09:56:52Z</time>
      </trkpt>
      <trkpt lat="47.51227" lon="6.77783">
        <ele>323.1</ele>
        <time>2017-10-01T09:56:54Z</time>
      </trkpt>
      <trkpt lat="47.51229" lon="6.77783">
        <ele>323.3</ele>
        <time>2017-10-01T09:56:55Z</time>
      </trkpt>
      <trkpt lat="47.51234" lon="6.77783">
        <ele>323.8</ele>
        <time>2017-10-01T09:56:57Z</time>
      </trkpt>
      <trkpt lat="47.51236" lon="6.77784">
        <ele>324</ele>
        <time>2017-10-01T09:56:58Z</time>
      </trkpt>
      <trkpt lat="47.51239" lon="6.77784">
        <ele>324</ele>
        <time>2017-10-01T09:57:00Z</time>
      </trkpt>
      <trkpt lat="47.51241" lon="6.77784">
        <ele>324</ele>
        <time>2017-10-01T09:57:01Z</time>
      </trkpt>
      <trkpt lat="47.51244" lon="6.77784">
        <ele>324</ele>
        <time>2017-10-01T09:57:03Z</time>
      </trkpt>
      <trkpt lat="47.51247" lon="6.77783">
        <ele>324.2</ele>
        <time>2017-10-01T09:57:04Z</time>
      </trkpt>
      <trkpt lat="47.51249" lon="6.77783">
        <ele>324.3</ele>
        <time>2017-10-01T09:57:05Z</time>
      </trkpt>
      <trkpt lat="47.51252" lon="6.77782">
        <ele>324.5</ele>
        <time>2017-10-01T09:57:06Z</time>
      </trkpt>
      <trkpt lat="47.51255" lon="6.77781">
        <ele>324.7</ele>
        <time>2017-10-01T09:57:08Z</time>
      </trkpt>
      <trkpt lat="47.51257" lon="6.77781">
        <ele>324.8</ele>
        <time>2017-10-01T09:57:09Z</time>
      </trkpt>
      <trkpt lat="47.51261" lon="6.7778">
        <ele>325.1</ele>
        <time>2017-10-01T09:57:11Z</time>
      </trkpt>
      <trkpt lat="47.51263" lon="6.7778">
        <ele>325.2</ele>
        <time>2017-10-01T09:57:12Z</time>
      </trkpt>
      <trkpt lat="47.51267" lon="6.77779">
        <ele>325.5</ele>
        <time>2017-10-01T09:57:14Z</time>
      </trkpt>
      <trkpt lat="47.51269" lon="6.77779">
        <ele>325.6</ele>
        <time>2017-10-01T09:57:15Z</time>
      </trkpt>
      <trkpt lat="47.51274" lon="6.77779">
        <ele>325.9</ele>
        <time>2017-10-01T09:57:17Z</time>
      </trkpt>
      <trkpt lat="47.51276" lon="6.77779">
        <ele>326</ele>
        <time>2017-10-01T09:57:18Z</time>
      </trkpt>
      <trkpt lat="47.51279" lon="6.7778">
        <ele>326.2</ele>
        <time>2017-10-01T09:57:20Z</time>
      </trkpt>
      <trkpt lat="47.51281" lon="6.77781">
        <ele>326.3</ele>
        <time>2017-10-01T09:57:21Z</time>
      </trkpt>
      <trkpt lat="47.51284" lon="6.77781">
        <ele>326.5</ele>
        <time>2017-10-01T09:57:23Z</time>
      </trkpt>
      <trkpt lat="47.51286" lon="6.77781">
        <ele>326.6</ele>
        <time>2017-10-01T09:57:24Z</time>
      </trkpt>
      <trkpt lat="47.51289" lon="6.7778">
        <ele>326.8</ele>
        <time>2017-10-01T09:57:26Z</time>
      </trkpt>
      <trkpt lat="47.51291" lon="6.77779">
        <ele>326.9</ele>
        <time>2017-10-01T09:57:27Z</time>
      </trkpt>
      <trkpt lat="47.51294" lon="6.77779">
        <ele>327.1</ele>
        <time>2017-10-01T09:57:29Z</time>
      </trkpt>
      <trkpt lat="47.51295" lon="6.7778">
        <ele>327.2</ele>
        <time>2017-10-01T09:57:30Z</time>
      </trkpt>
      <trkpt lat="47.51299" lon="6.77779">
        <ele>327.4</ele>
        <time>2017-10-01T09:57:32Z</time>
      </trkpt>
      <trkpt lat="47.51301" lon="6.77779">
        <ele>327.5</ele>
        <time>2017-10-01T09:57:33Z</time>
      </trkpt>
      <trkpt lat="47.51304" lon="6.77779">
        <ele>327.6</ele>
        <time>2017-10-01T09:57:35Z</time>
      </trkpt>
      <trkpt lat="47.51305" lon="6.77778">
        <ele>327.7</ele>
        <time>2017-10-01T09:57:36Z</time>
      </trkpt>
      <trkpt lat="47.51309" lon="6.77777">
        <ele>327.9</ele>
        <time>2017-10-01T09:57:38Z</time>
      </trkpt>
      <trkpt lat="47.51311" lon="6.77777">
        <ele>328</ele>
        <time>2017-10-01T09:57:39Z</time>
      </trkpt>
      <trkpt lat="47.51315" lon="6.77777">
        <ele>328.2</ele>
        <time>2017-10-01T09:57:41Z</time>
      </trkpt>
      <trkpt lat="47.51316" lon="6.77776">
        <ele>328.2</ele>
        <time>2017-10-01T09:57:42Z</time>
      </trkpt>
      <trkpt lat="47.5132" lon="6.77775">
        <ele>328.4</ele>
        <time>2017-10-01T09:57:45Z</time>
      </trkpt>
      <trkpt lat="47.51321" lon="6.77774">
        <ele>328.5</ele>
        <time>2017-10-01T09:57:46Z</time>
      </trkpt>
      <trkpt lat="47.51325" lon="6.77775">
        <ele>328.7</ele>
        <time>2017-10-01T09:57:49Z</time>
      </trkpt>
      <trkpt lat="47.51326" lon="6.77776">
        <ele>328.7</ele>
        <time>2017-10-01T09:57:50Z</time>
      </trkpt>
      <trkpt lat="47.5133" lon="6.77778">
        <ele>328.9</ele>
        <time>2017-10-01T09:57:53Z</time>
      </trkpt>
      <trkpt lat="47.51331" lon="6.7778">
        <ele>329</ele>
        <time>2017-10-01T09:57:54Z</time>
      </trkpt>
      <trkpt lat="47.51335" lon="6.77782">
        <ele>330</ele>
        <time>2017-10-01T09:57:56Z</time>
      </trkpt>
      <trkpt lat="47.51337" lon="6.77782">
        <ele>330.4</ele>
        <time>2017-10-01T09:57:57Z</time>
      </trkpt>
      <trkpt lat="47.5134" lon="6.77779">
        <ele>331.4</ele>
        <time>2017-10-01T09:58:00Z</time>
      </trkpt>
      <trkpt lat="47.51342" lon="6.77778">
        <ele>331.7</ele>
        <time>2017-10-01T09:58:01Z</time>
      </trkpt>
      <trkpt lat="47.51345" lon="6.77776">
        <ele>332.6</ele>
        <time>2017-10-01T09:58:03Z</time>
      </trkpt>
      <trkpt lat="47.51346" lon="6.77775">
        <ele>332.9</ele>
        <time>2017-10-01T09:58:04Z</time>
      </trkpt>
      <trkpt lat="47.5135" lon="6.77775">
        <ele>333.6</ele>
        <time>2017-10-01T09:58:06Z</time>
      </trkpt>
      <trkpt lat="47.51351" lon="6.77774">
        <ele>334</ele>
        <time>2017-10-01T09:58:07Z</time>
      </trkpt>
      <trkpt lat="47.51355" lon="6.77772">
        <ele>334.7</ele>
        <time>2017-10-01T09:58:09Z</time>
      </trkpt>
      <trkpt lat="47.51356" lon="6.77771">
        <ele>335.1</ele>
        <time>2017-10-01T09:58:10Z</time>
      </trkpt>
      <trkpt lat="47.51359" lon="6.77769">
        <ele>335.7</ele>
        <time>2017-10-01T09:58:12Z</time>
      </trkpt>
      <trkpt lat="47.51361" lon="6.77768">
        <ele>336.1</ele>
        <time>2017-10-01T09:58:13Z</time>
      </trkpt>
      <trkpt lat="47.51364" lon="6.77767">
        <ele>336.7</ele>
        <time>2017-10-01T09:58:15Z</time>
      </trkpt>
      <trkpt lat="47.51365" lon="6.77765">
        <ele>337</ele>
        <time>2017-10-01T09:58:16Z</time>
      </trkpt>
      <trkpt lat="47.51368" lon="6.77761">
        <ele>337.7</ele>
        <time>2017-10-01T09:58:18Z</time>
      </trkpt>
      <trkpt lat="47.51369" lon="6.7776">
        <ele>338</ele>
        <time>2017-10-01T09:58:19Z</time>
      </trkpt>
      <trkpt lat="47.51372" lon="6.77758">
        <ele>338.7</ele>
        <time>2017-10-01T09:58:22Z</time>
      </trkpt>
      <trkpt lat="47.51373" lon="6.77757">
        <ele>338.9</ele>
        <time>2017-10-01T09:58:23Z</time>
      </trkpt>
      <trkpt lat="47.51377" lon="6.77756">
        <ele>339.6</ele>
        <time>2017-10-01T09:58:26Z</time>
      </trkpt>
      <trkpt lat="47.51379" lon="6.77756">
        <ele>339.9</ele>
        <time>2017-10-01T09:58:27Z</time>
      </trkpt>
      <trkpt lat="47.51382" lon="6.77754">
        <ele>340.5</ele>
        <time>2017-10-01T09:58:29Z</time>
      </trkpt>
      <trkpt lat="47.51383" lon="6.77753">
        <ele>340.8</ele>
        <time>2017-10-01T09:58:30Z</time>
      </trkpt>
      <trkpt lat="47.51386" lon="6.77753">
        <ele>341.4</ele>
        <time>2017-10-01T09:58:32Z</time>
      </trkpt>
      <trkpt lat="47.51388" lon="6.77752">
        <ele>341.7</ele>
        <time>2017-10-01T09:58:33Z</time>
      </trkpt>
      <trkpt lat="47.51391" lon="6.77751">
        <ele>342.3</ele>
        <time>2017-10-01T09:58:36Z</time>
      </trkpt>
      <trkpt lat="47.51393" lon="6.77749">
        <ele>342.7</ele>
        <time>2017-10-01T09:58:37Z</time>
      </trkpt>
      <trkpt lat="47.51396" lon="6.77749">
        <ele>343.3</ele>
        <time>2017-10-01T09:58:40Z</time>
      </trkpt>
      <trkpt lat="47.51398" lon="6.77748">
        <ele>343.6</ele>
        <time>2017-10-01T09:58:41Z</time>
      </trkpt>
      <trkpt lat="47.514" lon="6.77747">
        <ele>344.1</ele>
        <time>2017-10-01T09:58:43Z</time>
      </trkpt>
      <trkpt lat="47.51402" lon="6.77747">
        <ele>344.4</ele>
        <time>2017-10-01T09:58:44Z</time>
      </trkpt>
      <trkpt lat="47.51405" lon="6.77746">
        <ele>344.9</ele>
        <time>2017-10-01T09:58:45Z</time>
      </trkpt>
      <trkpt lat="47.51406" lon="6.77745">
        <ele>345.3</ele>
        <time>2017-10-01T09:58:46Z</time>
      </trkpt>
      <trkpt lat="47.51409" lon="6.77743">
        <ele>345.8</ele>
        <time>2017-10-01T09:58:48Z</time>
      </trkpt>
      <trkpt lat="47.5141" lon="6.77742">
        <ele>346.1</ele>
        <time>2017-10-01T09:58:49Z</time>
      </trkpt>
      <trkpt lat="47.51413" lon="6.7774">
        <ele>346.7</ele>
        <time>2017-10-01T09:58:52Z</time>
      </trkpt>
      <trkpt lat="47.51415" lon="6.77739">
        <ele>347.1</ele>
        <time>2017-10-01T09:58:53Z</time>
      </trkpt>
      <trkpt lat="47.51419" lon="6.77737">
        <ele>347.8</ele>
        <time>2017-10-01T09:58:55Z</time>
      </trkpt>
      <trkpt lat="47.51421" lon="6.77736">
        <ele>348.2</ele>
        <time>2017-10-01T09:58:56Z</time>
      </trkpt>
      <trkpt lat="47.51424" lon="6.77735">
        <ele>348.8</ele>
        <time>2017-10-01T09:58:59Z</time>
      </trkpt>
      <trkpt lat="47.51426" lon="6.77734">
        <ele>349.1</ele>
        <time>2017-10-01T09:59:00Z</time>
      </trkpt>
      <trkpt lat="47.5143" lon="6.77732">
        <ele>350</ele>
        <time>2017-10-01T09:59:03Z</time>
      </trkpt>
      <trkpt lat="47.51431" lon="6.77732">
        <ele>350.2</ele>
        <time>2017-10-01T09:59:04Z</time>
      </trkpt>
      <trkpt lat="47.51433" lon="6.77731">
        <ele>350.6</ele>
        <time>2017-10-01T09:59:06Z</time>
      </trkpt>
      <trkpt lat="47.51435" lon="6.7773">
        <ele>351.1</ele>
        <time>2017-10-01T09:59:07Z</time>
      </trkpt>
      <trkpt lat="47.5144" lon="6.77729">
        <ele>352</ele>
        <time>2017-10-01T09:59:09Z</time>
      </trkpt>
      <trkpt lat="47.51442" lon="6.77729">
        <ele>352.5</ele>
        <time>2017-10-01T09:59:10Z</time>
      </trkpt>
      <trkpt lat="47.51445" lon="6.77727">
        <ele>353.2</ele>
        <time>2017-10-01T09:59:12Z</time>
      </trkpt>
      <trkpt lat="47.51448" lon="6.77726">
        <ele>353.7</ele>
        <time>2017-10-01T09:59:13Z</time>
      </trkpt>
      <trkpt lat="47.51451" lon="6.77725">
        <ele>354.5</ele>
        <time>2017-10-01T09:59:15Z</time>
      </trkpt>
      <trkpt lat="47.51452" lon="6.77725">
        <ele>354.6</ele>
        <time>2017-10-01T09:59:16Z</time>
      </trkpt>
      <trkpt lat="47.51456" lon="6.77724">
        <ele>355.5</ele>
        <time>2017-10-01T09:59:19Z</time>
      </trkpt>
      <trkpt lat="47.51458" lon="6.77724">
        <ele>355.9</ele>
        <time>2017-10-01T09:59:20Z</time>
      </trkpt>
      <trkpt lat="47.51462" lon="6.77723">
        <ele>356.7</ele>
        <time>2017-10-01T09:59:23Z</time>
      </trkpt>
      <trkpt lat="47.51462" lon="6.77723">
        <ele>356.9</ele>
        <time>2017-10-01T09:59:24Z</time>
      </trkpt>
      <trkpt lat="47.51465" lon="6.77722">
        <ele>357.4</ele>
        <time>2017-10-01T09:59:27Z</time>
      </trkpt>
      <trkpt lat="47.51467" lon="6.77722">
        <ele>357.9</ele>
        <time>2017-10-01T09:59:28Z</time>
      </trkpt>
      <trkpt lat="47.5147" lon="6.7772">
        <ele>358.4</ele>
        <time>2017-10-01T09:59:29Z</time>
      </trkpt>
      <trkpt lat="47.51471" lon="6.77718">
        <ele>358.8</ele>
        <time>2017-10-01T09:59:30Z</time>
      </trkpt>
      <trkpt lat="47.51475" lon="6.77718">
        <ele>359.5</ele>
        <time>2017-10-01T09:59:33Z</time>
      </trkpt>
      <trkpt lat="47.51477" lon="6.77719">
        <ele>359.9</ele>
        <time>2017-10-01T09:59:34Z</time>
      </trkpt>
      <trkpt lat="47.51481" lon="6.7772">
        <ele>360.7</ele>
        <time>2017-10-01T09:59:38Z</time>
      </trkpt>
      <trkpt lat="47.51483" lon="6.7772">
        <ele>361</ele>
        <time>2017-10-01T09:59:39Z</time>
      </trkpt>
      <trkpt lat="47.51487" lon="6.7772">
        <ele>361.8</ele>
        <time>2017-10-01T09:59:41Z</time>
      </trkpt>
      <trkpt lat="47.51488" lon="6.77719">
        <ele>362</ele>
        <time>2017-10-01T09:59:42Z</time>
      </trkpt>
      <trkpt lat="47.51492" lon="6.77718">
        <ele>362.7</ele>
        <time>2017-10-01T09:59:45Z</time>
      </trkpt>
      <trkpt lat="47.51493" lon="6.77718">
        <ele>362.9</ele>
        <time>2017-10-01T09:59:46Z</time>
      </trkpt>
      <trkpt lat="47.51496" lon="6.77717">
        <ele>363.3</ele>
        <time>2017-10-01T09:59:49Z</time>
      </trkpt>
      <trkpt lat="47.51498" lon="6.77716">
        <ele>363.7</ele>
        <time>2017-10-01T09:59:50Z</time>
      </trkpt>
      <trkpt lat="47.51502" lon="6.77713">
        <ele>364.4</ele>
        <time>2017-10-01T09:59:53Z</time>
      </trkpt>
      <trkpt lat="47.51504" lon="6.77712">
        <ele>364.8</ele>
        <time>2017-10-01T09:59:54Z</time>
      </trkpt>
      <trkpt lat="47.51508" lon="6.77713">
        <ele>365.4</ele>
        <time>2017-10-01T09:59:55Z</time>
      </trkpt>
      <trkpt lat="47.51511" lon="6.77713">
        <ele>366</ele>
        <time>2017-10-01T09:59:56Z</time>
      </trkpt>
      <trkpt lat="47.51514" lon="6.77714">
        <ele>366.5</ele>
        <time>2017-10-01T09:59:58Z</time>
      </trkpt>
      <trkpt lat="47.51516" lon="6.77714">
        <ele>366.8</ele>
        <time>2017-10-01T09:59:59Z</time>
      </trkpt>
      <trkpt lat="47.5152" lon="6.77713">
        <ele>367.3</ele>
        <time>2017-10-01T10:00:02Z</time>
      </trkpt>
      <trkpt lat="47.51521" lon="6.77713">
        <ele>367.5</ele>
        <time>2017-10-01T10:00:03Z</time>
      </trkpt>
      <trkpt lat="47.51525" lon="6.77712">
        <ele>368.2</ele>
        <time>2017-10-01T10:00:08Z</time>
      </trkpt>
      <trkpt lat="47.51526" lon="6.77712">
        <ele>368.3</ele>
        <time>2017-10-01T10:00:09Z</time>
      </trkpt>
      <trkpt lat="47.51529" lon="6.77714">
        <ele>368.8</ele>
        <time>2017-10-01T10:00:11Z</time>
      </trkpt>
      <trkpt lat="47.5153" lon="6.77714">
        <ele>369</ele>
        <time>2017-10-01T10:00:12Z</time>
      </trkpt>
      <trkpt lat="47.51534" lon="6.77717">
        <ele>369.7</ele>
        <time>2017-10-01T10:00:16Z</time>
      </trkpt>
      <trkpt lat="47.51536" lon="6.77716">
        <ele>370</ele>
        <time>2017-10-01T10:00:17Z</time>
      </trkpt>
      <trkpt lat="47.51538" lon="6.77717">
        <ele>370.2</ele>
        <time>2017-10-01T10:00:18Z</time>
      </trkpt>
      <trkpt lat="47.51541" lon="6.77717">
        <ele>370.7</ele>
        <time>2017-10-01T10:00:19Z</time>
      </trkpt>
      <trkpt lat="47.51543" lon="6.77718">
        <ele>371.1</ele>
        <time>2017-10-01T10:00:21Z</time>
      </trkpt>
      <trkpt lat="47.51546" lon="6.77718">
        <ele>371.5</ele>
        <time>2017-10-01T10:00:22Z</time>
      </trkpt>
      <trkpt lat="47.51548" lon="6.7772">
        <ele>371.9</ele>
        <time>2017-10-01T10:00:24Z</time>
      </trkpt>
      <trkpt lat="47.5155" lon="6.77719">
        <ele>372.3</ele>
        <time>2017-10-01T10:00:25Z</time>
      </trkpt>
      <trkpt lat="47.51554" lon="6.7772">
        <ele>372.9</ele>
        <time>2017-10-01T10:00:28Z</time>
      </trkpt>
      <trkpt lat="47.51556" lon="6.77721">
        <ele>373.2</ele>
        <time>2017-10-01T10:00:29Z</time>
      </trkpt>
      <trkpt lat="47.51559" lon="6.77722">
        <ele>373.8</ele>
        <time>2017-10-01T10:00:31Z</time>
      </trkpt>
      <trkpt lat="47.5156" lon="6.77723">
        <ele>374</ele>
        <time>2017-10-01T10:00:32Z</time>
      </trkpt>
      <trkpt lat="47.51564" lon="6.77724">
        <ele>374.7</ele>
        <time>2017-10-01T10:00:36Z</time>
      </trkpt>
      <trkpt lat="47.51565" lon="6.77725">
        <ele>375</ele>
        <time>2017-10-01T10:00:37Z</time>
      </trkpt>
      <trkpt lat="47.51569" lon="6.77728">
        <ele>375.7</ele>
        <time>2017-10-01T10:00:41Z</time>
      </trkpt>
      <trkpt lat="47.5157" lon="6.77727">
        <ele>375.9</ele>
        <time>2017-10-01T10:00:42Z</time>
      </trkpt>
      <trkpt lat="47.51574" lon="6.77726">
        <ele>376.8</ele>
        <time>2017-10-01T10:00:45Z</time>
      </trkpt>
      <trkpt lat="47.51575" lon="6.77727">
        <ele>377.1</ele>
        <time>2017-10-01T10:00:46Z</time>
      </trkpt>
      <trkpt lat="47.5158" lon="6.77727">
        <ele>378.1</ele>
        <time>2017-10-01T10:00:49Z</time>
      </trkpt>
      <trkpt lat="47.51581" lon="6.77727">
        <ele>378.5</ele>
        <time>2017-10-01T10:00:50Z</time>
      </trkpt>
      <trkpt lat="47.51585" lon="6.77726">
        <ele>379.4</ele>
        <time>2017-10-01T10:00:53Z</time>
      </trkpt>
      <trkpt lat="47.51586" lon="6.77725">
        <ele>379.8</ele>
        <time>2017-10-01T10:00:54Z</time>
      </trkpt>
      <trkpt lat="47.5159" lon="6.77725">
        <ele>380.9</ele>
        <time>2017-10-01T10:00:57Z</time>
      </trkpt>
      <trkpt lat="47.51592" lon="6.77727">
        <ele>381</ele>
        <time>2017-10-01T10:00:58Z</time>
      </trkpt>
      <trkpt lat="47.51593" lon="6.7773">
        <ele>381</ele>
        <time>2017-10-01T10:00:59Z</time>
      </trkpt>
      <trkpt lat="47.51595" lon="6.77733">
        <ele>381</ele>
        <time>2017-10-01T10:01:00Z</time>
      </trkpt>
      <trkpt lat="47.51598" lon="6.77738">
        <ele>381.4</ele>
        <time>2017-10-01T10:01:03Z</time>
      </trkpt>
      <trkpt lat="47.51599" lon="6.7774">
        <ele>381.4</ele>
        <time>2017-10-01T10:01:04Z</time>
      </trkpt>
      <trkpt lat="47.51603" lon="6.7774">
        <ele>381.6</ele>
        <time>2017-10-01T10:01:07Z</time>
      </trkpt>
      <trkpt lat="47.51604" lon="6.77741">
        <ele>381.6</ele>
        <time>2017-10-01T10:01:08Z</time>
      </trkpt>
      <trkpt lat="47.51608" lon="6.77741">
        <ele>381.7</ele>
        <time>2017-10-01T10:01:10Z</time>
      </trkpt>
      <trkpt lat="47.51609" lon="6.77742">
        <ele>381.8</ele>
        <time>2017-10-01T10:01:11Z</time>
      </trkpt>
      <trkpt lat="47.51612" lon="6.77742">
        <ele>381.9</ele>
        <time>2017-10-01T10:01:14Z</time>
      </trkpt>
      <trkpt lat="47.51614" lon="6.77743">
        <ele>381.9</ele>
        <time>2017-10-01T10:01:15Z</time>
      </trkpt>
      <trkpt lat="47.51618" lon="6.77745">
        <ele>382.1</ele>
        <time>2017-10-01T10:01:18Z</time>
      </trkpt>
      <trkpt lat="47.51619" lon="6.77745">
        <ele>382.1</ele>
        <time>2017-10-01T10:01:19Z</time>
      </trkpt>
      <trkpt lat="47.51623" lon="6.77745">
        <ele>382.2</ele>
        <time>2017-10-01T10:01:22Z</time>
      </trkpt>
      <trkpt lat="47.51624" lon="6.77745">
        <ele>382.2</ele>
        <time>2017-10-01T10:01:23Z</time>
      </trkpt>
      <trkpt lat="47.51628" lon="6.77745">
        <ele>382.3</ele>
        <time>2017-10-01T10:01:26Z</time>
      </trkpt>
      <trkpt lat="47.51629" lon="6.77745">
        <ele>382.4</ele>
        <time>2017-10-01T10:01:27Z</time>
      </trkpt>
      <trkpt lat="47.51633" lon="6.77746">
        <ele>382.5</ele>
        <time>2017-10-01T10:01:29Z</time>
      </trkpt>
      <trkpt lat="47.51634" lon="6.77745">
        <ele>382.5</ele>
        <time>2017-10-01T10:01:30Z</time>
      </trkpt>
      <trkpt lat="47.51636" lon="6.77744">
        <ele>382.6</ele>
        <time>2017-10-01T10:01:31Z</time>
      </trkpt>
      <trkpt lat="47.51641" lon="6.77743">
        <ele>382.7</ele>
        <time>2017-10-01T10:01:32Z</time>
      </trkpt>
      <trkpt lat="47.51645" lon="6.77747">
        <ele>382.8</ele>
        <time>2017-10-01T10:01:33Z</time>
      </trkpt>
      <trkpt lat="47.51646" lon="6.77748">
        <ele>382.8</ele>
        <time>2017-10-01T10:01:34Z</time>
      </trkpt>
      <trkpt lat="47.5165" lon="6.7775">
        <ele>382.9</ele>
        <time>2017-10-01T10:01:35Z</time>
      </trkpt>
      <trkpt lat="47.51652" lon="6.7775">
        <ele>382.9</ele>
        <time>2017-10-01T10:01:36Z</time>
      </trkpt>
      <trkpt lat="47.51654" lon="6.7775">
        <ele>382.9</ele>
        <time>2017-10-01T10:01:37Z</time>
      </trkpt>
      <trkpt lat="47.51658" lon="6.77752">
        <ele>383</ele>
        <time>2017-10-01T10:01:38Z</time>
      </trkpt>
      <trkpt lat="47.51661" lon="6.77753">
        <ele>383</ele>
        <time>2017-10-01T10:01:41Z</time>
      </trkpt>
      <trkpt lat="47.51663" lon="6.77753">
        <ele>383</ele>
        <time>2017-10-01T10:01:42Z</time>
      </trkpt>
      <trkpt lat="47.51667" lon="6.77755">
        <ele>383.1</ele>
        <time>2017-10-01T10:01:44Z</time>
      </trkpt>
      <trkpt lat="47.51668" lon="6.77755">
        <ele>383.1</ele>
        <time>2017-10-01T10:01:45Z</time>
      </trkpt>
      <trkpt lat="47.51671" lon="6.77756">
        <ele>383.1</ele>
        <time>2017-10-01T10:01:47Z</time>
      </trkpt>
      <trkpt lat="47.51673" lon="6.77756">
        <ele>383.1</ele>
        <time>2017-10-01T10:01:48Z</time>
      </trkpt>
      <trkpt lat="47.51675" lon="6.77757">
        <ele>383.1</ele>
        <time>2017-10-01T10:01:49Z</time>
      </trkpt>
      <trkpt lat="47.51678" lon="6.77757">
        <ele>383.1</ele>
        <time>2017-10-01T10:01:50Z</time>
      </trkpt>
      <trkpt lat="47.51681" lon="6.77757">
        <ele>383.1</ele>
        <time>2017-10-01T10:01:51Z</time>
      </trkpt>
      <trkpt lat="47.51684" lon="6.77757">
        <ele>383.1</ele>
        <time>2017-10-01T10:01:52Z</time>
      </trkpt>
      <trkpt lat="47.51689" lon="6.77758">
        <ele>383.1</ele>
        <time>2017-10-01T10:01:54Z</time>
      </trkpt>
      <trkpt lat="47.5169" lon="6.7776">
        <ele>383.1</ele>
        <time>2017-10-01T10:01:55Z</time>
      </trkpt>
      <trkpt lat="47.51695" lon="6.7776">
        <ele>383.1</ele>
        <time>2017-10-01T10:01:58Z</time>
      </trkpt>
      <trkpt lat="47.51696" lon="6.77759">
        <ele>383.1</ele>
        <time>2017-10-01T10:01:59Z</time>
      </trkpt>
      <trkpt lat="47.517" lon="6.77756">
        <ele>383</ele>
        <time>2017-10-01T10:02:02Z</time>
      </trkpt>
      <trkpt lat="47.51701" lon="6.77754">
        <ele>383</ele>
        <time>2017-10-01T10:02:03Z</time>
      </trkpt>
      <trkpt lat="47.51704" lon="6.77749">
        <ele>383.5</ele>
        <time>2017-10-01T10:02:05Z</time>
      </trkpt>
      <trkpt lat="47.51704" lon="6.77747">
        <ele>383.6</ele>
        <time>2017-10-01T10:02:06Z</time>
      </trkpt>
      <trkpt lat="47.51705" lon="6.77741">
        <ele>384</ele>
        <time>2017-10-01T10:02:08Z</time>
      </trkpt>
      <trkpt lat="47.51706" lon="6.77737">
        <ele>384.1</ele>
        <time>2017-10-01T10:02:09Z</time>
      </trkpt>
      <trkpt lat="47.51707" lon="6.77731">
        <ele>384.4</ele>
        <time>2017-10-01T10:02:11Z</time>
      </trkpt>
      <trkpt lat="47.51707" lon="6.77728">
        <ele>384.6</ele>
        <time>2017-10-01T10:02:12Z</time>
      </trkpt>
      <trkpt lat="47.51707" lon="6.77723">
        <ele>384.9</ele>
        <time>2017-10-01T10:02:14Z</time>
      </trkpt>
      <trkpt lat="47.51707" lon="6.7772">
        <ele>385</ele>
        <time>2017-10-01T10:02:15Z</time>
      </trkpt>
      <trkpt lat="47.51708" lon="6.77715">
        <ele>385.2</ele>
        <time>2017-10-01T10:02:17Z</time>
      </trkpt>
      <trkpt lat="47.51708" lon="6.77713">
        <ele>385.3</ele>
        <time>2017-10-01T10:02:18Z</time>
      </trkpt>
      <trkpt lat="47.51708" lon="6.77707">
        <ele>385.6</ele>
        <time>2017-10-01T10:02:21Z</time>
      </trkpt>
      <trkpt lat="47.51708" lon="6.77705">
        <ele>385.7</ele>
        <time>2017-10-01T10:02:22Z</time>
      </trkpt>
      <trkpt lat="47.5171" lon="6.77699">
        <ele>386</ele>
        <time>2017-10-01T10:02:25Z</time>
      </trkpt>
      <trkpt lat="47.51711" lon="6.77697">
        <ele>386.1</ele>
        <time>2017-10-01T10:02:26Z</time>
      </trkpt>
      <trkpt lat="47.51712" lon="6.77693">
        <ele>386.3</ele>
        <time>2017-10-01T10:02:28Z</time>
      </trkpt>
      <trkpt lat="47.51712" lon="6.77691">
        <ele>386.4</ele>
        <time>2017-10-01T10:02:29Z</time>
      </trkpt>
      <trkpt lat="47.51712" lon="6.77686">
        <ele>386.6</ele>
        <time>2017-10-01T10:02:31Z</time>
      </trkpt>
      <trkpt lat="47.51712" lon="6.77683">
        <ele>386.7</ele>
        <time>2017-10-01T10:02:32Z</time>
      </trkpt>
      <trkpt lat="47.51711" lon="6.77679">
        <ele>386.9</ele>
        <time>2017-10-01T10:02:34Z</time>
      </trkpt>
      <trkpt lat="47.5171" lon="6.77676">
        <ele>387</ele>
        <time>2017-10-01T10:02:35Z</time>
      </trkpt>
      <trkpt lat="47.5171" lon="6.77672">
        <ele>387.2</ele>
        <time>2017-10-01T10:02:37Z</time>
      </trkpt>
      <trkpt lat="47.5171" lon="6.77669">
        <ele>387.3</ele>
        <time>2017-10-01T10:02:38Z</time>
      </trkpt>
      <trkpt lat="47.51711" lon="6.77662">
        <ele>387.6</ele>
        <time>2017-10-01T10:02:40Z</time>
      </trkpt>
      <trkpt lat="47.51711" lon="6.7766">
        <ele>387.7</ele>
        <time>2017-10-01T10:02:41Z</time>
      </trkpt>
      <trkpt lat="47.51711" lon="6.77655">
        <ele>387.9</ele>
        <time>2017-10-01T10:02:43Z</time>
      </trkpt>
      <trkpt lat="47.51711" lon="6.7765">
        <ele>388.1</ele>
        <time>2017-10-01T10:02:44Z</time>
      </trkpt>
      <trkpt lat="47.51711" lon="6.77646">
        <ele>388.3</ele>
        <time>2017-10-01T10:02:46Z</time>
      </trkpt>
      <trkpt lat="47.51711" lon="6.77643">
        <ele>388.4</ele>
        <time>2017-10-01T10:02:47Z</time>
      </trkpt>
      <trkpt lat="47.51711" lon="6.77637">
        <ele>388.6</ele>
        <time>2017-10-01T10:02:49Z</time>
      </trkpt>
      <trkpt lat="47.51711" lon="6.77635">
        <ele>388.7</ele>
        <time>2017-10-01T10:02:50Z</time>
      </trkpt>
      <trkpt lat="47.5171" lon="6.7763">
        <ele>388.9</ele>
        <time>2017-10-01T10:02:52Z</time>
      </trkpt>
      <trkpt lat="47.5171" lon="6.77627">
        <ele>389</ele>
        <time>2017-10-01T10:02:53Z</time>
      </trkpt>
      <trkpt lat="47.5171" lon="6.77622">
        <ele>389.1</ele>
        <time>2017-10-01T10:02:55Z</time>
      </trkpt>
      <trkpt lat="47.51711" lon="6.77619">
        <ele>389.2</ele>
        <time>2017-10-01T10:02:56Z</time>
      </trkpt>
      <trkpt lat="47.51711" lon="6.77614">
        <ele>389.2</ele>
        <time>2017-10-01T10:02:58Z</time>
      </trkpt>
      <trkpt lat="47.51711" lon="6.7761">
        <ele>389.3</ele>
        <time>2017-10-01T10:02:59Z</time>
      </trkpt>
      <trkpt lat="47.51711" lon="6.77604">
        <ele>389.4</ele>
        <time>2017-10-01T10:03:01Z</time>
      </trkpt>
      <trkpt lat="47.51711" lon="6.77601">
        <ele>389.4</ele>
        <time>2017-10-01T10:03:02Z</time>
      </trkpt>
      <trkpt lat="47.51712" lon="6.77597">
        <ele>389.4</ele>
        <time>2017-10-01T10:03:03Z</time>
      </trkpt>
      <trkpt lat="47.51713" lon="6.77593">
        <ele>389.4</ele>
        <time>2017-10-01T10:03:04Z</time>
      </trkpt>
      <trkpt lat="47.51715" lon="6.77588">
        <ele>389.4</ele>
        <time>2017-10-01T10:03:07Z</time>
      </trkpt>
      <trkpt lat="47.51716" lon="6.77587">
        <ele>389.4</ele>
        <time>2017-10-01T10:03:08Z</time>
      </trkpt>
      <trkpt lat="47.51719" lon="6.77585">
        <ele>389.3</ele>
        <time>2017-10-01T10:03:10Z</time>
      </trkpt>
      <trkpt lat="47.5172" lon="6.77583">
        <ele>389.3</ele>
        <time>2017-10-01T10:03:11Z</time>
      </trkpt>
      <trkpt lat="47.51719" lon="6.77577">
        <ele>389.2</ele>
        <time>2017-10-01T10:03:13Z</time>
      </trkpt>
      <trkpt lat="47.51718" lon="6.77574">
        <ele>389.2</ele>
        <time>2017-10-01T10:03:14Z</time>
      </trkpt>
      <trkpt lat="47.51717" lon="6.77571">
        <ele>389</ele>
        <time>2017-10-01T10:03:15Z</time>
      </trkpt>
      <trkpt lat="47.51717" lon="6.77567">
        <ele>389</ele>
        <time>2017-10-01T10:03:16Z</time>
      </trkpt>
      <trkpt lat="47.51717" lon="6.77561">
        <ele>389</ele>
        <time>2017-10-01T10:03:17Z</time>
      </trkpt>
      <trkpt lat="47.51718" lon="6.77555">
        <ele>388.9</ele>
        <time>2017-10-01T10:03:18Z</time>
      </trkpt>
      <trkpt lat="47.51718" lon="6.77549">
        <ele>388.7</ele>
        <time>2017-10-01T10:03:19Z</time>
      </trkpt>
      <trkpt lat="47.51719" lon="6.77544">
        <ele>388.5</ele>
        <time>2017-10-01T10:03:20Z</time>
      </trkpt>
      <trkpt lat="47.5172" lon="6.77541">
        <ele>388.3</ele>
        <time>2017-10-01T10:03:21Z</time>
      </trkpt>
      <trkpt lat="47.51721" lon="6.77537">
        <ele>388.2</ele>
        <time>2017-10-01T10:03:22Z</time>
      </trkpt>
      <trkpt lat="47.51722" lon="6.77534">
        <ele>388.1</ele>
        <time>2017-10-01T10:03:23Z</time>
      </trkpt>
      <trkpt lat="47.51723" lon="6.77529">
        <ele>387.9</ele>
        <time>2017-10-01T10:03:24Z</time>
      </trkpt>
      <trkpt lat="47.51723" lon="6.77525">
        <ele>387.8</ele>
        <time>2017-10-01T10:03:25Z</time>
      </trkpt>
      <trkpt lat="47.51724" lon="6.77519">
        <ele>387.7</ele>
        <time>2017-10-01T10:03:26Z</time>
      </trkpt>
      <trkpt lat="47.51725" lon="6.77514">
        <ele>387.6</ele>
        <time>2017-10-01T10:03:27Z</time>
      </trkpt>
      <trkpt lat="47.51726" lon="6.7751">
        <ele>387.5</ele>
        <time>2017-10-01T10:03:28Z</time>
      </trkpt>
      <trkpt lat="47.51726" lon="6.77505">
        <ele>387.5</ele>
        <time>2017-10-01T10:03:29Z</time>
      </trkpt>
      <trkpt lat="47.51727" lon="6.77498">
        <ele>387.3</ele>
        <time>2017-10-01T10:03:30Z</time>
      </trkpt>
      <trkpt lat="47.51728" lon="6.77491">
        <ele>387</ele>
        <time>2017-10-01T10:03:31Z</time>
      </trkpt>
      <trkpt lat="47.51728" lon="6.77485">
        <ele>386.6</ele>
        <time>2017-10-01T10:03:32Z</time>
      </trkpt>
      <trkpt lat="47.51729" lon="6.7748">
        <ele>386.3</ele>
        <time>2017-10-01T10:03:33Z</time>
      </trkpt>
      <trkpt lat="47.51732" lon="6.77476">
        <ele>386</ele>
        <time>2017-10-01T10:03:34Z</time>
      </trkpt>
      <trkpt lat="47.51735" lon="6.77475">
        <ele>385.9</ele>
        <time>2017-10-01T10:03:35Z</time>
      </trkpt>
      <trkpt lat="47.51738" lon="6.77476">
        <ele>385.8</ele>
        <time>2017-10-01T10:03:36Z</time>
      </trkpt>
      <trkpt lat="47.51741" lon="6.77478">
        <ele>385.7</ele>
        <time>2017-10-01T10:03:37Z</time>
      </trkpt>
      <trkpt lat="47.51743" lon="6.77479">
        <ele>385.6</ele>
        <time>2017-10-01T10:03:38Z</time>
      </trkpt>
      <trkpt lat="47.51746" lon="6.7748">
        <ele>385.6</ele>
        <time>2017-10-01T10:03:39Z</time>
      </trkpt>
      <trkpt lat="47.51749" lon="6.77481">
        <ele>385.4</ele>
        <time>2017-10-01T10:03:40Z</time>
      </trkpt>
      <trkpt lat="47.51753" lon="6.77482">
        <ele>385.3</ele>
        <time>2017-10-01T10:03:41Z</time>
      </trkpt>
      <trkpt lat="47.51757" lon="6.77483">
        <ele>385.1</ele>
        <time>2017-10-01T10:03:42Z</time>
      </trkpt>
      <trkpt lat="47.5176" lon="6.77484">
        <ele>384.9</ele>
        <time>2017-10-01T10:03:43Z</time>
      </trkpt>
      <trkpt lat="47.51763" lon="6.77484">
        <ele>384.8</ele>
        <time>2017-10-01T10:03:44Z</time>
      </trkpt>
      <trkpt lat="47.51766" lon="6.77484">
        <ele>384.6</ele>
        <time>2017-10-01T10:03:45Z</time>
      </trkpt>
      <trkpt lat="47.51769" lon="6.77485">
        <ele>384.4</ele>
        <time>2017-10-01T10:03:46Z</time>
      </trkpt>
      <trkpt lat="47.51774" lon="6.77485">
        <ele>384.2</ele>
        <time>2017-10-01T10:03:47Z</time>
      </trkpt>
      <trkpt lat="47.51777" lon="6.77485">
        <ele>384.1</ele>
        <time>2017-10-01T10:03:48Z</time>
      </trkpt>
      <trkpt lat="47.51781" lon="6.77487">
        <ele>384</ele>
        <time>2017-10-01T10:03:49Z</time>
      </trkpt>
      <trkpt lat="47.51784" lon="6.77489">
        <ele>383.9</ele>
        <time>2017-10-01T10:03:50Z</time>
      </trkpt>
      <trkpt lat="47.51787" lon="6.77492">
        <ele>383.7</ele>
        <time>2017-10-01T10:03:51Z</time>
      </trkpt>
      <trkpt lat="47.51791" lon="6.77494">
        <ele>383.5</ele>
        <time>2017-10-01T10:03:52Z</time>
      </trkpt>
      <trkpt lat="47.51794" lon="6.77495">
        <ele>383.4</ele>
        <time>2017-10-01T10:03:53Z</time>
      </trkpt>
      <trkpt lat="47.51797" lon="6.77496">
        <ele>383.3</ele>
        <time>2017-10-01T10:03:54Z</time>
      </trkpt>
      <trkpt lat="47.518" lon="6.77494">
        <ele>383.2</ele>
        <time>2017-10-01T10:03:55Z</time>
      </trkpt>
      <trkpt lat="47.518" lon="6.7749">
        <ele>383.2</ele>
        <time>2017-10-01T10:03:56Z</time>
      </trkpt>
      <trkpt lat="47.51802" lon="6.77483">
        <ele>383.1</ele>
        <time>2017-10-01T10:03:57Z</time>
      </trkpt>
      <trkpt lat="47.51803" lon="6.77476">
        <ele>383.1</ele>
        <time>2017-10-01T10:03:58Z</time>
      </trkpt>
      <trkpt lat="47.51804" lon="6.77472">
        <ele>383</ele>
        <time>2017-10-01T10:03:59Z</time>
      </trkpt>
      <trkpt lat="47.51803" lon="6.77469">
        <ele>382.9</ele>
        <time>2017-10-01T10:04:00Z</time>
      </trkpt>
      <trkpt lat="47.518" lon="6.77466">
        <ele>383</ele>
        <time>2017-10-01T10:04:13Z</time>
      </trkpt>
      <trkpt lat="47.51799" lon="6.77465">
        <ele>383</ele>
        <time>2017-10-01T10:04:14Z</time>
      </trkpt>
      <trkpt lat="47.51802" lon="6.7746">
        <ele>382.8</ele>
        <time>2017-10-01T10:04:43Z</time>
      </trkpt>
      <trkpt lat="47.51802" lon="6.7746">
        <ele>382.8</ele>
        <time>2017-10-01T10:04:44Z</time>
      </trkpt>
      <trkpt lat="47.51804" lon="6.77464">
        <ele>382.7</ele>
        <time>2017-10-01T10:04:55Z</time>
      </trkpt>
      <trkpt lat="47.51804" lon="6.77466">
        <ele>382.9</ele>
        <time>2017-10-01T10:04:56Z</time>
      </trkpt>
      <trkpt lat="47.51804" lon="6.77472">
        <ele>382.9</ele>
        <time>2017-10-01T10:05:00Z</time>
      </trkpt>
      <trkpt lat="47.51804" lon="6.77473">
        <ele>382.9</ele>
        <time>2017-10-01T10:05:01Z</time>
      </trkpt>
      <trkpt lat="47.51801" lon="6.77477">
        <ele>383</ele>
        <time>2017-10-01T10:05:30Z</time>
      </trkpt>
      <trkpt lat="47.51802" lon="6.77479">
        <ele>383</ele>
        <time>2017-10-01T10:05:31Z</time>
      </trkpt>
      <trkpt lat="47.51802" lon="6.77478">
        <ele>383</ele>
        <time>2017-10-01T10:06:01Z</time>
      </trkpt>
    </trkseg>
  </trk>
</gpx>